<?xml version="1.0" encoding="UTF-8" standalone="no" ?>
<gpx xmlns="http://www.topografix.com/GPX/1/1" xmlns:xsi="http://www.w3.org/2001/XMLSchema-instance" xsi:schemaLocation="http://www.topografix.com/GPX/1/1 http://www.topografix.com/GPX/1/1/gpx.xsd" version="1.1" creator="VisuGPX - https://www.visugpx.com">
  <metadata>
    <name>gravel100</name>
  </metadata>
  <trk>
    <name><![CDATA[Sortie gravel en vu du 100kil]]></name>
    <extensions>
      <line xmlns="http://www.topografix.com/GPX/gpx_style/0/2">
        <color>0000FF</color>
        <width>4</width>
      </line>
    </extensions>
    <trkseg>
      <trkpt lat="47.44508" lon="-0.5694">
        <ele>42.2</ele>
        <time>2021-07-04T05:04:05Z</time>
      </trkpt>
      <trkpt lat="47.44508" lon="-0.5694">
        <ele>42.2</ele>
        <time>2021-07-04T05:04:05Z</time>
      </trkpt>
      <trkpt lat="47.44503" lon="-0.56941">
        <ele>41.8</ele>
        <time>2021-07-04T05:05:04Z</time>
      </trkpt>
      <trkpt lat="47.44501" lon="-0.56938">
        <ele>41.6</ele>
        <time>2021-07-04T05:05:05Z</time>
      </trkpt>
      <trkpt lat="47.445" lon="-0.56934">
        <ele>41.6</ele>
        <time>2021-07-04T05:05:06Z</time>
      </trkpt>
      <trkpt lat="47.44496" lon="-0.56925">
        <ele>41.4</ele>
        <time>2021-07-04T05:05:08Z</time>
      </trkpt>
      <trkpt lat="47.44494" lon="-0.5692">
        <ele>41</ele>
        <time>2021-07-04T05:05:09Z</time>
      </trkpt>
      <trkpt lat="47.44492" lon="-0.56915">
        <ele>40.8</ele>
        <time>2021-07-04T05:05:10Z</time>
      </trkpt>
      <trkpt lat="47.44489" lon="-0.56906">
        <ele>40.8</ele>
        <time>2021-07-04T05:05:12Z</time>
      </trkpt>
      <trkpt lat="47.44489" lon="-0.56898">
        <ele>41.2</ele>
        <time>2021-07-04T05:05:14Z</time>
      </trkpt>
      <trkpt lat="47.44492" lon="-0.56889">
        <ele>41.2</ele>
        <time>2021-07-04T05:05:16Z</time>
      </trkpt>
      <trkpt lat="47.44495" lon="-0.56884">
        <ele>40.8</ele>
        <time>2021-07-04T05:05:17Z</time>
      </trkpt>
      <trkpt lat="47.44499" lon="-0.5688">
        <ele>40.6</ele>
        <time>2021-07-04T05:05:18Z</time>
      </trkpt>
      <trkpt lat="47.44506" lon="-0.56872">
        <ele>40.4</ele>
        <time>2021-07-04T05:05:20Z</time>
      </trkpt>
      <trkpt lat="47.44513" lon="-0.56864">
        <ele>40.4</ele>
        <time>2021-07-04T05:05:22Z</time>
      </trkpt>
      <trkpt lat="47.4452" lon="-0.56858">
        <ele>40.2</ele>
        <time>2021-07-04T05:05:24Z</time>
      </trkpt>
      <trkpt lat="47.44524" lon="-0.56856">
        <ele>40</ele>
        <time>2021-07-04T05:05:25Z</time>
      </trkpt>
      <trkpt lat="47.44528" lon="-0.56855">
        <ele>40</ele>
        <time>2021-07-04T05:05:26Z</time>
      </trkpt>
      <trkpt lat="47.44536" lon="-0.5686">
        <ele>40.2</ele>
        <time>2021-07-04T05:05:28Z</time>
      </trkpt>
      <trkpt lat="47.44541" lon="-0.56872">
        <ele>40.2</ele>
        <time>2021-07-04T05:05:30Z</time>
      </trkpt>
      <trkpt lat="47.44546" lon="-0.56885">
        <ele>39.8</ele>
        <time>2021-07-04T05:05:32Z</time>
      </trkpt>
      <trkpt lat="47.4455" lon="-0.56897">
        <ele>39.8</ele>
        <time>2021-07-04T05:05:34Z</time>
      </trkpt>
      <trkpt lat="47.44553" lon="-0.5691">
        <ele>40</ele>
        <time>2021-07-04T05:05:36Z</time>
      </trkpt>
      <trkpt lat="47.44557" lon="-0.56924">
        <ele>40</ele>
        <time>2021-07-04T05:05:38Z</time>
      </trkpt>
      <trkpt lat="47.44559" lon="-0.56938">
        <ele>40.2</ele>
        <time>2021-07-04T05:05:40Z</time>
      </trkpt>
      <trkpt lat="47.44561" lon="-0.56952">
        <ele>40.6</ele>
        <time>2021-07-04T05:05:42Z</time>
      </trkpt>
      <trkpt lat="47.44564" lon="-0.56966">
        <ele>40.6</ele>
        <time>2021-07-04T05:05:44Z</time>
      </trkpt>
      <trkpt lat="47.44566" lon="-0.56979">
        <ele>40.4</ele>
        <time>2021-07-04T05:05:46Z</time>
      </trkpt>
      <trkpt lat="47.44567" lon="-0.56985">
        <ele>40.8</ele>
        <time>2021-07-04T05:05:47Z</time>
      </trkpt>
      <trkpt lat="47.44568" lon="-0.5699">
        <ele>41</ele>
        <time>2021-07-04T05:05:48Z</time>
      </trkpt>
      <trkpt lat="47.44569" lon="-0.56995">
        <ele>41.2</ele>
        <time>2021-07-04T05:05:49Z</time>
      </trkpt>
      <trkpt lat="47.4457" lon="-0.56999">
        <ele>41.2</ele>
        <time>2021-07-04T05:05:50Z</time>
      </trkpt>
      <trkpt lat="47.4457" lon="-0.57002">
        <ele>41.4</ele>
        <time>2021-07-04T05:05:51Z</time>
      </trkpt>
      <trkpt lat="47.44568" lon="-0.57005">
        <ele>41.4</ele>
        <time>2021-07-04T05:05:52Z</time>
      </trkpt>
      <trkpt lat="47.44564" lon="-0.5701">
        <ele>41.6</ele>
        <time>2021-07-04T05:05:54Z</time>
      </trkpt>
      <trkpt lat="47.4456" lon="-0.57012">
        <ele>41.4</ele>
        <time>2021-07-04T05:05:55Z</time>
      </trkpt>
      <trkpt lat="47.44556" lon="-0.57014">
        <ele>41</ele>
        <time>2021-07-04T05:05:56Z</time>
      </trkpt>
      <trkpt lat="47.44549" lon="-0.57018">
        <ele>41</ele>
        <time>2021-07-04T05:05:58Z</time>
      </trkpt>
      <trkpt lat="47.44545" lon="-0.57021">
        <ele>41</ele>
        <time>2021-07-04T05:05:59Z</time>
      </trkpt>
      <trkpt lat="47.44541" lon="-0.57025">
        <ele>41</ele>
        <time>2021-07-04T05:06:00Z</time>
      </trkpt>
      <trkpt lat="47.44539" lon="-0.57031">
        <ele>41.2</ele>
        <time>2021-07-04T05:06:01Z</time>
      </trkpt>
      <trkpt lat="47.44539" lon="-0.57037">
        <ele>41.4</ele>
        <time>2021-07-04T05:06:02Z</time>
      </trkpt>
      <trkpt lat="47.44542" lon="-0.57051">
        <ele>41.4</ele>
        <time>2021-07-04T05:06:04Z</time>
      </trkpt>
      <trkpt lat="47.44547" lon="-0.57062">
        <ele>41.6</ele>
        <time>2021-07-04T05:06:06Z</time>
      </trkpt>
      <trkpt lat="47.44552" lon="-0.57074">
        <ele>41.8</ele>
        <time>2021-07-04T05:06:08Z</time>
      </trkpt>
      <trkpt lat="47.44557" lon="-0.57087">
        <ele>41.6</ele>
        <time>2021-07-04T05:06:10Z</time>
      </trkpt>
      <trkpt lat="47.44562" lon="-0.571">
        <ele>41.8</ele>
        <time>2021-07-04T05:06:12Z</time>
      </trkpt>
      <trkpt lat="47.44567" lon="-0.57113">
        <ele>41.8</ele>
        <time>2021-07-04T05:06:14Z</time>
      </trkpt>
      <trkpt lat="47.44571" lon="-0.57126">
        <ele>41.8</ele>
        <time>2021-07-04T05:06:16Z</time>
      </trkpt>
      <trkpt lat="47.44575" lon="-0.57139">
        <ele>41.8</ele>
        <time>2021-07-04T05:06:18Z</time>
      </trkpt>
      <trkpt lat="47.44578" lon="-0.57151">
        <ele>42</ele>
        <time>2021-07-04T05:06:20Z</time>
      </trkpt>
      <trkpt lat="47.4458" lon="-0.57158">
        <ele>42.2</ele>
        <time>2021-07-04T05:06:21Z</time>
      </trkpt>
      <trkpt lat="47.44582" lon="-0.57165">
        <ele>42.4</ele>
        <time>2021-07-04T05:06:22Z</time>
      </trkpt>
      <trkpt lat="47.44586" lon="-0.57178">
        <ele>42.6</ele>
        <time>2021-07-04T05:06:24Z</time>
      </trkpt>
      <trkpt lat="47.44588" lon="-0.57184">
        <ele>42.8</ele>
        <time>2021-07-04T05:06:25Z</time>
      </trkpt>
      <trkpt lat="47.44591" lon="-0.57189">
        <ele>42.8</ele>
        <time>2021-07-04T05:06:26Z</time>
      </trkpt>
      <trkpt lat="47.44599" lon="-0.57196">
        <ele>43</ele>
        <time>2021-07-04T05:06:28Z</time>
      </trkpt>
      <trkpt lat="47.44608" lon="-0.57196">
        <ele>43</ele>
        <time>2021-07-04T05:06:30Z</time>
      </trkpt>
      <trkpt lat="47.44613" lon="-0.57193">
        <ele>43</ele>
        <time>2021-07-04T05:06:31Z</time>
      </trkpt>
      <trkpt lat="47.44618" lon="-0.5719">
        <ele>43</ele>
        <time>2021-07-04T05:06:32Z</time>
      </trkpt>
      <trkpt lat="47.44627" lon="-0.57184">
        <ele>42.4</ele>
        <time>2021-07-04T05:06:34Z</time>
      </trkpt>
      <trkpt lat="47.44636" lon="-0.57179">
        <ele>42.4</ele>
        <time>2021-07-04T05:06:36Z</time>
      </trkpt>
      <trkpt lat="47.44644" lon="-0.57174">
        <ele>42.6</ele>
        <time>2021-07-04T05:06:38Z</time>
      </trkpt>
      <trkpt lat="47.44653" lon="-0.57175">
        <ele>42.4</ele>
        <time>2021-07-04T05:06:40Z</time>
      </trkpt>
      <trkpt lat="47.44658" lon="-0.57178">
        <ele>42.6</ele>
        <time>2021-07-04T05:06:41Z</time>
      </trkpt>
      <trkpt lat="47.44661" lon="-0.57182">
        <ele>42.6</ele>
        <time>2021-07-04T05:06:42Z</time>
      </trkpt>
      <trkpt lat="47.44668" lon="-0.57192">
        <ele>42.6</ele>
        <time>2021-07-04T05:06:44Z</time>
      </trkpt>
      <trkpt lat="47.44671" lon="-0.57198">
        <ele>42.6</ele>
        <time>2021-07-04T05:06:45Z</time>
      </trkpt>
      <trkpt lat="47.44673" lon="-0.57205">
        <ele>42.6</ele>
        <time>2021-07-04T05:06:46Z</time>
      </trkpt>
      <trkpt lat="47.44674" lon="-0.57213">
        <ele>42.6</ele>
        <time>2021-07-04T05:06:47Z</time>
      </trkpt>
      <trkpt lat="47.44676" lon="-0.5722">
        <ele>42.6</ele>
        <time>2021-07-04T05:06:48Z</time>
      </trkpt>
      <trkpt lat="47.4468" lon="-0.57233">
        <ele>43</ele>
        <time>2021-07-04T05:06:50Z</time>
      </trkpt>
      <trkpt lat="47.44682" lon="-0.5724">
        <ele>43</ele>
        <time>2021-07-04T05:06:51Z</time>
      </trkpt>
      <trkpt lat="47.44684" lon="-0.57246">
        <ele>43</ele>
        <time>2021-07-04T05:06:52Z</time>
      </trkpt>
      <trkpt lat="47.44688" lon="-0.57259">
        <ele>43.2</ele>
        <time>2021-07-04T05:06:54Z</time>
      </trkpt>
      <trkpt lat="47.4469" lon="-0.57266">
        <ele>43.4</ele>
        <time>2021-07-04T05:06:55Z</time>
      </trkpt>
      <trkpt lat="47.44692" lon="-0.57272">
        <ele>43.6</ele>
        <time>2021-07-04T05:06:56Z</time>
      </trkpt>
      <trkpt lat="47.44696" lon="-0.57285">
        <ele>43.6</ele>
        <time>2021-07-04T05:06:58Z</time>
      </trkpt>
      <trkpt lat="47.44698" lon="-0.57292">
        <ele>43.8</ele>
        <time>2021-07-04T05:06:59Z</time>
      </trkpt>
      <trkpt lat="47.447" lon="-0.57298">
        <ele>43.8</ele>
        <time>2021-07-04T05:07:00Z</time>
      </trkpt>
      <trkpt lat="47.44704" lon="-0.57311">
        <ele>44.2</ele>
        <time>2021-07-04T05:07:02Z</time>
      </trkpt>
      <trkpt lat="47.44706" lon="-0.57316">
        <ele>44.2</ele>
        <time>2021-07-04T05:07:03Z</time>
      </trkpt>
      <trkpt lat="47.44709" lon="-0.57322">
        <ele>44.4</ele>
        <time>2021-07-04T05:07:04Z</time>
      </trkpt>
      <trkpt lat="47.44711" lon="-0.57329">
        <ele>44.4</ele>
        <time>2021-07-04T05:07:05Z</time>
      </trkpt>
      <trkpt lat="47.44713" lon="-0.57334">
        <ele>44.6</ele>
        <time>2021-07-04T05:07:06Z</time>
      </trkpt>
      <trkpt lat="47.44718" lon="-0.57347">
        <ele>44.6</ele>
        <time>2021-07-04T05:07:08Z</time>
      </trkpt>
      <trkpt lat="47.44723" lon="-0.57358">
        <ele>44.6</ele>
        <time>2021-07-04T05:07:10Z</time>
      </trkpt>
      <trkpt lat="47.44729" lon="-0.5737">
        <ele>45</ele>
        <time>2021-07-04T05:07:12Z</time>
      </trkpt>
      <trkpt lat="47.44733" lon="-0.57382">
        <ele>45</ele>
        <time>2021-07-04T05:07:14Z</time>
      </trkpt>
      <trkpt lat="47.44735" lon="-0.57387">
        <ele>45</ele>
        <time>2021-07-04T05:07:15Z</time>
      </trkpt>
      <trkpt lat="47.44737" lon="-0.57393">
        <ele>45.4</ele>
        <time>2021-07-04T05:07:16Z</time>
      </trkpt>
      <trkpt lat="47.44739" lon="-0.57398">
        <ele>45.6</ele>
        <time>2021-07-04T05:07:17Z</time>
      </trkpt>
      <trkpt lat="47.44741" lon="-0.57404">
        <ele>46</ele>
        <time>2021-07-04T05:07:18Z</time>
      </trkpt>
      <trkpt lat="47.44744" lon="-0.57414">
        <ele>46.6</ele>
        <time>2021-07-04T05:07:20Z</time>
      </trkpt>
      <trkpt lat="47.44745" lon="-0.57419">
        <ele>46.8</ele>
        <time>2021-07-04T05:07:21Z</time>
      </trkpt>
      <trkpt lat="47.44747" lon="-0.57423">
        <ele>47</ele>
        <time>2021-07-04T05:07:22Z</time>
      </trkpt>
      <trkpt lat="47.44749" lon="-0.57427">
        <ele>47.4</ele>
        <time>2021-07-04T05:07:24Z</time>
      </trkpt>
      <trkpt lat="47.4475" lon="-0.5743">
        <ele>47.4</ele>
        <time>2021-07-04T05:07:25Z</time>
      </trkpt>
      <trkpt lat="47.4475" lon="-0.57434">
        <ele>47.6</ele>
        <time>2021-07-04T05:07:26Z</time>
      </trkpt>
      <trkpt lat="47.44748" lon="-0.57439">
        <ele>47.6</ele>
        <time>2021-07-04T05:07:27Z</time>
      </trkpt>
      <trkpt lat="47.44746" lon="-0.57443">
        <ele>47.4</ele>
        <time>2021-07-04T05:07:28Z</time>
      </trkpt>
      <trkpt lat="47.44739" lon="-0.57452">
        <ele>47.2</ele>
        <time>2021-07-04T05:07:30Z</time>
      </trkpt>
      <trkpt lat="47.44736" lon="-0.57456">
        <ele>47</ele>
        <time>2021-07-04T05:07:31Z</time>
      </trkpt>
      <trkpt lat="47.44732" lon="-0.5746">
        <ele>46.8</ele>
        <time>2021-07-04T05:07:32Z</time>
      </trkpt>
      <trkpt lat="47.44723" lon="-0.57467">
        <ele>46.6</ele>
        <time>2021-07-04T05:07:34Z</time>
      </trkpt>
      <trkpt lat="47.44715" lon="-0.57474">
        <ele>46.6</ele>
        <time>2021-07-04T05:07:36Z</time>
      </trkpt>
      <trkpt lat="47.44706" lon="-0.57482">
        <ele>46.6</ele>
        <time>2021-07-04T05:07:38Z</time>
      </trkpt>
      <trkpt lat="47.44697" lon="-0.57489">
        <ele>46.6</ele>
        <time>2021-07-04T05:07:40Z</time>
      </trkpt>
      <trkpt lat="47.44688" lon="-0.57498">
        <ele>46.4</ele>
        <time>2021-07-04T05:07:42Z</time>
      </trkpt>
      <trkpt lat="47.44679" lon="-0.57507">
        <ele>46.2</ele>
        <time>2021-07-04T05:07:44Z</time>
      </trkpt>
      <trkpt lat="47.4467" lon="-0.57515">
        <ele>46.6</ele>
        <time>2021-07-04T05:07:46Z</time>
      </trkpt>
      <trkpt lat="47.4466" lon="-0.57523">
        <ele>46.8</ele>
        <time>2021-07-04T05:07:48Z</time>
      </trkpt>
      <trkpt lat="47.44655" lon="-0.57527">
        <ele>46.8</ele>
        <time>2021-07-04T05:07:49Z</time>
      </trkpt>
      <trkpt lat="47.44651" lon="-0.57531">
        <ele>46.6</ele>
        <time>2021-07-04T05:07:50Z</time>
      </trkpt>
      <trkpt lat="47.44641" lon="-0.57539">
        <ele>46.6</ele>
        <time>2021-07-04T05:07:52Z</time>
      </trkpt>
      <trkpt lat="47.44632" lon="-0.57547">
        <ele>46.8</ele>
        <time>2021-07-04T05:07:54Z</time>
      </trkpt>
      <trkpt lat="47.44623" lon="-0.57554">
        <ele>47.2</ele>
        <time>2021-07-04T05:07:56Z</time>
      </trkpt>
      <trkpt lat="47.44614" lon="-0.57562">
        <ele>47.4</ele>
        <time>2021-07-04T05:07:58Z</time>
      </trkpt>
      <trkpt lat="47.44605" lon="-0.57569">
        <ele>47.4</ele>
        <time>2021-07-04T05:08:00Z</time>
      </trkpt>
      <trkpt lat="47.44596" lon="-0.57577">
        <ele>47.6</ele>
        <time>2021-07-04T05:08:02Z</time>
      </trkpt>
      <trkpt lat="47.44587" lon="-0.57585">
        <ele>47.6</ele>
        <time>2021-07-04T05:08:04Z</time>
      </trkpt>
      <trkpt lat="47.44579" lon="-0.57593">
        <ele>47.8</ele>
        <time>2021-07-04T05:08:06Z</time>
      </trkpt>
      <trkpt lat="47.4457" lon="-0.576">
        <ele>48</ele>
        <time>2021-07-04T05:08:08Z</time>
      </trkpt>
      <trkpt lat="47.44561" lon="-0.57607">
        <ele>48.2</ele>
        <time>2021-07-04T05:08:10Z</time>
      </trkpt>
      <trkpt lat="47.44552" lon="-0.57615">
        <ele>48.4</ele>
        <time>2021-07-04T05:08:12Z</time>
      </trkpt>
      <trkpt lat="47.44544" lon="-0.57622">
        <ele>48.6</ele>
        <time>2021-07-04T05:08:14Z</time>
      </trkpt>
      <trkpt lat="47.44535" lon="-0.57629">
        <ele>48.6</ele>
        <time>2021-07-04T05:08:16Z</time>
      </trkpt>
      <trkpt lat="47.44526" lon="-0.57636">
        <ele>48.8</ele>
        <time>2021-07-04T05:08:18Z</time>
      </trkpt>
      <trkpt lat="47.44518" lon="-0.57643">
        <ele>49</ele>
        <time>2021-07-04T05:08:20Z</time>
      </trkpt>
      <trkpt lat="47.44511" lon="-0.5765">
        <ele>49</ele>
        <time>2021-07-04T05:08:22Z</time>
      </trkpt>
      <trkpt lat="47.44509" lon="-0.57656">
        <ele>48.8</ele>
        <time>2021-07-04T05:08:23Z</time>
      </trkpt>
      <trkpt lat="47.4451" lon="-0.57662">
        <ele>49</ele>
        <time>2021-07-04T05:08:24Z</time>
      </trkpt>
      <trkpt lat="47.44514" lon="-0.57674">
        <ele>49.6</ele>
        <time>2021-07-04T05:08:26Z</time>
      </trkpt>
      <trkpt lat="47.44519" lon="-0.57685">
        <ele>50</ele>
        <time>2021-07-04T05:08:28Z</time>
      </trkpt>
      <trkpt lat="47.44522" lon="-0.5769">
        <ele>50.2</ele>
        <time>2021-07-04T05:08:29Z</time>
      </trkpt>
      <trkpt lat="47.44524" lon="-0.57696">
        <ele>50.2</ele>
        <time>2021-07-04T05:08:30Z</time>
      </trkpt>
      <trkpt lat="47.44529" lon="-0.57708">
        <ele>50.4</ele>
        <time>2021-07-04T05:08:32Z</time>
      </trkpt>
      <trkpt lat="47.44532" lon="-0.57713">
        <ele>50.4</ele>
        <time>2021-07-04T05:08:33Z</time>
      </trkpt>
      <trkpt lat="47.44534" lon="-0.57719">
        <ele>50.6</ele>
        <time>2021-07-04T05:08:34Z</time>
      </trkpt>
      <trkpt lat="47.44538" lon="-0.57731">
        <ele>50.6</ele>
        <time>2021-07-04T05:08:36Z</time>
      </trkpt>
      <trkpt lat="47.44543" lon="-0.57742">
        <ele>50.6</ele>
        <time>2021-07-04T05:08:38Z</time>
      </trkpt>
      <trkpt lat="47.44548" lon="-0.57752">
        <ele>50.8</ele>
        <time>2021-07-04T05:08:40Z</time>
      </trkpt>
      <trkpt lat="47.4455" lon="-0.57758">
        <ele>50.8</ele>
        <time>2021-07-04T05:08:41Z</time>
      </trkpt>
      <trkpt lat="47.4455" lon="-0.57764">
        <ele>50.6</ele>
        <time>2021-07-04T05:08:42Z</time>
      </trkpt>
      <trkpt lat="47.44549" lon="-0.57769">
        <ele>50.6</ele>
        <time>2021-07-04T05:08:43Z</time>
      </trkpt>
      <trkpt lat="47.44546" lon="-0.57774">
        <ele>50.4</ele>
        <time>2021-07-04T05:08:44Z</time>
      </trkpt>
      <trkpt lat="47.44539" lon="-0.57781">
        <ele>50.4</ele>
        <time>2021-07-04T05:08:46Z</time>
      </trkpt>
      <trkpt lat="47.44534" lon="-0.57787">
        <ele>50.4</ele>
        <time>2021-07-04T05:08:48Z</time>
      </trkpt>
      <trkpt lat="47.44529" lon="-0.57791">
        <ele>50.6</ele>
        <time>2021-07-04T05:08:50Z</time>
      </trkpt>
      <trkpt lat="47.44528" lon="-0.57794">
        <ele>50.8</ele>
        <time>2021-07-04T05:08:51Z</time>
      </trkpt>
      <trkpt lat="47.44528" lon="-0.57798">
        <ele>50.8</ele>
        <time>2021-07-04T05:08:52Z</time>
      </trkpt>
      <trkpt lat="47.44531" lon="-0.57807">
        <ele>50.6</ele>
        <time>2021-07-04T05:08:54Z</time>
      </trkpt>
      <trkpt lat="47.44535" lon="-0.57818">
        <ele>50.4</ele>
        <time>2021-07-04T05:08:56Z</time>
      </trkpt>
      <trkpt lat="47.4454" lon="-0.5783">
        <ele>50.4</ele>
        <time>2021-07-04T05:08:58Z</time>
      </trkpt>
      <trkpt lat="47.44544" lon="-0.57845">
        <ele>49.8</ele>
        <time>2021-07-04T05:09:00Z</time>
      </trkpt>
      <trkpt lat="47.4455" lon="-0.5786">
        <ele>49.6</ele>
        <time>2021-07-04T05:09:02Z</time>
      </trkpt>
      <trkpt lat="47.44555" lon="-0.57874">
        <ele>49.2</ele>
        <time>2021-07-04T05:09:04Z</time>
      </trkpt>
      <trkpt lat="47.4456" lon="-0.57888">
        <ele>49.2</ele>
        <time>2021-07-04T05:09:06Z</time>
      </trkpt>
      <trkpt lat="47.44566" lon="-0.579">
        <ele>49.2</ele>
        <time>2021-07-04T05:09:08Z</time>
      </trkpt>
      <trkpt lat="47.44568" lon="-0.57906">
        <ele>49</ele>
        <time>2021-07-04T05:09:09Z</time>
      </trkpt>
      <trkpt lat="47.44571" lon="-0.57912">
        <ele>49.2</ele>
        <time>2021-07-04T05:09:10Z</time>
      </trkpt>
      <trkpt lat="47.44574" lon="-0.57917">
        <ele>49.4</ele>
        <time>2021-07-04T05:09:11Z</time>
      </trkpt>
      <trkpt lat="47.44576" lon="-0.57921">
        <ele>49.6</ele>
        <time>2021-07-04T05:09:12Z</time>
      </trkpt>
      <trkpt lat="47.44581" lon="-0.5793">
        <ele>50</ele>
        <time>2021-07-04T05:09:14Z</time>
      </trkpt>
      <trkpt lat="47.44582" lon="-0.57935">
        <ele>49.8</ele>
        <time>2021-07-04T05:09:15Z</time>
      </trkpt>
      <trkpt lat="47.4458" lon="-0.57941">
        <ele>49.4</ele>
        <time>2021-07-04T05:09:16Z</time>
      </trkpt>
      <trkpt lat="47.44573" lon="-0.57951">
        <ele>48.6</ele>
        <time>2021-07-04T05:09:18Z</time>
      </trkpt>
      <trkpt lat="47.44568" lon="-0.57954">
        <ele>48.4</ele>
        <time>2021-07-04T05:09:19Z</time>
      </trkpt>
      <trkpt lat="47.44564" lon="-0.57958">
        <ele>48</ele>
        <time>2021-07-04T05:09:20Z</time>
      </trkpt>
      <trkpt lat="47.44559" lon="-0.57962">
        <ele>48</ele>
        <time>2021-07-04T05:09:21Z</time>
      </trkpt>
      <trkpt lat="47.44554" lon="-0.57966">
        <ele>48</ele>
        <time>2021-07-04T05:09:22Z</time>
      </trkpt>
      <trkpt lat="47.44545" lon="-0.57977">
        <ele>47.6</ele>
        <time>2021-07-04T05:09:24Z</time>
      </trkpt>
      <trkpt lat="47.44536" lon="-0.57991">
        <ele>47.6</ele>
        <time>2021-07-04T05:09:26Z</time>
      </trkpt>
      <trkpt lat="47.44527" lon="-0.58004">
        <ele>47.4</ele>
        <time>2021-07-04T05:09:28Z</time>
      </trkpt>
      <trkpt lat="47.44518" lon="-0.58017">
        <ele>47.4</ele>
        <time>2021-07-04T05:09:30Z</time>
      </trkpt>
      <trkpt lat="47.44514" lon="-0.58024">
        <ele>47.4</ele>
        <time>2021-07-04T05:09:31Z</time>
      </trkpt>
      <trkpt lat="47.4451" lon="-0.58031">
        <ele>47.2</ele>
        <time>2021-07-04T05:09:32Z</time>
      </trkpt>
      <trkpt lat="47.44501" lon="-0.58044">
        <ele>47</ele>
        <time>2021-07-04T05:09:34Z</time>
      </trkpt>
      <trkpt lat="47.44492" lon="-0.58058">
        <ele>47</ele>
        <time>2021-07-04T05:09:36Z</time>
      </trkpt>
      <trkpt lat="47.44484" lon="-0.58071">
        <ele>47.4</ele>
        <time>2021-07-04T05:09:38Z</time>
      </trkpt>
      <trkpt lat="47.44475" lon="-0.58083">
        <ele>47.2</ele>
        <time>2021-07-04T05:09:40Z</time>
      </trkpt>
      <trkpt lat="47.4447" lon="-0.58089">
        <ele>47.2</ele>
        <time>2021-07-04T05:09:41Z</time>
      </trkpt>
      <trkpt lat="47.44465" lon="-0.58095">
        <ele>47</ele>
        <time>2021-07-04T05:09:42Z</time>
      </trkpt>
      <trkpt lat="47.4446" lon="-0.581">
        <ele>47</ele>
        <time>2021-07-04T05:09:43Z</time>
      </trkpt>
      <trkpt lat="47.44456" lon="-0.58105">
        <ele>47</ele>
        <time>2021-07-04T05:09:44Z</time>
      </trkpt>
      <trkpt lat="47.44446" lon="-0.58114">
        <ele>47</ele>
        <time>2021-07-04T05:09:46Z</time>
      </trkpt>
      <trkpt lat="47.44441" lon="-0.5812">
        <ele>47.4</ele>
        <time>2021-07-04T05:09:47Z</time>
      </trkpt>
      <trkpt lat="47.44436" lon="-0.58125">
        <ele>47.4</ele>
        <time>2021-07-04T05:09:48Z</time>
      </trkpt>
      <trkpt lat="47.44425" lon="-0.58138">
        <ele>47.2</ele>
        <time>2021-07-04T05:09:50Z</time>
      </trkpt>
      <trkpt lat="47.44416" lon="-0.58151">
        <ele>46.6</ele>
        <time>2021-07-04T05:09:52Z</time>
      </trkpt>
      <trkpt lat="47.44411" lon="-0.58159">
        <ele>46.4</ele>
        <time>2021-07-04T05:09:53Z</time>
      </trkpt>
      <trkpt lat="47.44407" lon="-0.58167">
        <ele>46.2</ele>
        <time>2021-07-04T05:09:54Z</time>
      </trkpt>
      <trkpt lat="47.44398" lon="-0.58183">
        <ele>45.8</ele>
        <time>2021-07-04T05:09:56Z</time>
      </trkpt>
      <trkpt lat="47.44389" lon="-0.58199">
        <ele>45.2</ele>
        <time>2021-07-04T05:09:58Z</time>
      </trkpt>
      <trkpt lat="47.44384" lon="-0.58207">
        <ele>45</ele>
        <time>2021-07-04T05:09:59Z</time>
      </trkpt>
      <trkpt lat="47.4438" lon="-0.58215">
        <ele>44.6</ele>
        <time>2021-07-04T05:10:00Z</time>
      </trkpt>
      <trkpt lat="47.44375" lon="-0.58223">
        <ele>44.4</ele>
        <time>2021-07-04T05:10:01Z</time>
      </trkpt>
      <trkpt lat="47.44371" lon="-0.58232">
        <ele>44.4</ele>
        <time>2021-07-04T05:10:02Z</time>
      </trkpt>
      <trkpt lat="47.44361" lon="-0.58248">
        <ele>44.2</ele>
        <time>2021-07-04T05:10:04Z</time>
      </trkpt>
      <trkpt lat="47.44352" lon="-0.58263">
        <ele>44.8</ele>
        <time>2021-07-04T05:10:06Z</time>
      </trkpt>
      <trkpt lat="47.44342" lon="-0.58278">
        <ele>43.4</ele>
        <time>2021-07-04T05:10:08Z</time>
      </trkpt>
      <trkpt lat="47.44337" lon="-0.58284">
        <ele>43.2</ele>
        <time>2021-07-04T05:10:09Z</time>
      </trkpt>
      <trkpt lat="47.44331" lon="-0.58291">
        <ele>42.8</ele>
        <time>2021-07-04T05:10:10Z</time>
      </trkpt>
      <trkpt lat="47.44319" lon="-0.58303">
        <ele>42.4</ele>
        <time>2021-07-04T05:10:12Z</time>
      </trkpt>
      <trkpt lat="47.44307" lon="-0.58314">
        <ele>42</ele>
        <time>2021-07-04T05:10:14Z</time>
      </trkpt>
      <trkpt lat="47.44301" lon="-0.58318">
        <ele>42.2</ele>
        <time>2021-07-04T05:10:15Z</time>
      </trkpt>
      <trkpt lat="47.44295" lon="-0.58323">
        <ele>42.2</ele>
        <time>2021-07-04T05:10:16Z</time>
      </trkpt>
      <trkpt lat="47.44283" lon="-0.58333">
        <ele>42.4</ele>
        <time>2021-07-04T05:10:18Z</time>
      </trkpt>
      <trkpt lat="47.44272" lon="-0.58341">
        <ele>42.2</ele>
        <time>2021-07-04T05:10:20Z</time>
      </trkpt>
      <trkpt lat="47.44261" lon="-0.58348">
        <ele>42</ele>
        <time>2021-07-04T05:10:22Z</time>
      </trkpt>
      <trkpt lat="47.44257" lon="-0.58354">
        <ele>42.2</ele>
        <time>2021-07-04T05:10:23Z</time>
      </trkpt>
      <trkpt lat="47.44256" lon="-0.58363">
        <ele>42.2</ele>
        <time>2021-07-04T05:10:24Z</time>
      </trkpt>
      <trkpt lat="47.44258" lon="-0.5838">
        <ele>42.4</ele>
        <time>2021-07-04T05:10:26Z</time>
      </trkpt>
      <trkpt lat="47.4426" lon="-0.58388">
        <ele>42.4</ele>
        <time>2021-07-04T05:10:27Z</time>
      </trkpt>
      <trkpt lat="47.44262" lon="-0.58396">
        <ele>42.4</ele>
        <time>2021-07-04T05:10:28Z</time>
      </trkpt>
      <trkpt lat="47.44266" lon="-0.58412">
        <ele>42.4</ele>
        <time>2021-07-04T05:10:30Z</time>
      </trkpt>
      <trkpt lat="47.44269" lon="-0.58428">
        <ele>42.6</ele>
        <time>2021-07-04T05:10:32Z</time>
      </trkpt>
      <trkpt lat="47.44272" lon="-0.58445">
        <ele>42.8</ele>
        <time>2021-07-04T05:10:34Z</time>
      </trkpt>
      <trkpt lat="47.44275" lon="-0.58461">
        <ele>42.8</ele>
        <time>2021-07-04T05:10:36Z</time>
      </trkpt>
      <trkpt lat="47.44278" lon="-0.58477">
        <ele>42.4</ele>
        <time>2021-07-04T05:10:38Z</time>
      </trkpt>
      <trkpt lat="47.44282" lon="-0.58493">
        <ele>42.4</ele>
        <time>2021-07-04T05:10:40Z</time>
      </trkpt>
      <trkpt lat="47.44284" lon="-0.585">
        <ele>42.6</ele>
        <time>2021-07-04T05:10:41Z</time>
      </trkpt>
      <trkpt lat="47.44286" lon="-0.58507">
        <ele>42.6</ele>
        <time>2021-07-04T05:10:42Z</time>
      </trkpt>
      <trkpt lat="47.4429" lon="-0.5852">
        <ele>42.6</ele>
        <time>2021-07-04T05:10:44Z</time>
      </trkpt>
      <trkpt lat="47.44294" lon="-0.58534">
        <ele>42.6</ele>
        <time>2021-07-04T05:10:46Z</time>
      </trkpt>
      <trkpt lat="47.44298" lon="-0.58548">
        <ele>42</ele>
        <time>2021-07-04T05:10:48Z</time>
      </trkpt>
      <trkpt lat="47.44301" lon="-0.58555">
        <ele>41.2</ele>
        <time>2021-07-04T05:10:49Z</time>
      </trkpt>
      <trkpt lat="47.44304" lon="-0.58563">
        <ele>41</ele>
        <time>2021-07-04T05:10:50Z</time>
      </trkpt>
      <trkpt lat="47.4431" lon="-0.58582">
        <ele>40.4</ele>
        <time>2021-07-04T05:10:52Z</time>
      </trkpt>
      <trkpt lat="47.44313" lon="-0.58593">
        <ele>40</ele>
        <time>2021-07-04T05:10:53Z</time>
      </trkpt>
      <trkpt lat="47.44316" lon="-0.58604">
        <ele>39.4</ele>
        <time>2021-07-04T05:10:54Z</time>
      </trkpt>
      <trkpt lat="47.44318" lon="-0.58616">
        <ele>38.8</ele>
        <time>2021-07-04T05:10:55Z</time>
      </trkpt>
      <trkpt lat="47.4432" lon="-0.58629">
        <ele>38</ele>
        <time>2021-07-04T05:10:56Z</time>
      </trkpt>
      <trkpt lat="47.44323" lon="-0.58642">
        <ele>37.2</ele>
        <time>2021-07-04T05:10:57Z</time>
      </trkpt>
      <trkpt lat="47.44324" lon="-0.58655">
        <ele>36.8</ele>
        <time>2021-07-04T05:10:58Z</time>
      </trkpt>
      <trkpt lat="47.44327" lon="-0.58681">
        <ele>36</ele>
        <time>2021-07-04T05:11:00Z</time>
      </trkpt>
      <trkpt lat="47.4433" lon="-0.58707">
        <ele>34.4</ele>
        <time>2021-07-04T05:11:02Z</time>
      </trkpt>
      <trkpt lat="47.44333" lon="-0.58734">
        <ele>33.4</ele>
        <time>2021-07-04T05:11:04Z</time>
      </trkpt>
      <trkpt lat="47.44336" lon="-0.58762">
        <ele>32.4</ele>
        <time>2021-07-04T05:11:06Z</time>
      </trkpt>
      <trkpt lat="47.44338" lon="-0.58776">
        <ele>31.8</ele>
        <time>2021-07-04T05:11:07Z</time>
      </trkpt>
      <trkpt lat="47.4434" lon="-0.5879">
        <ele>31</ele>
        <time>2021-07-04T05:11:08Z</time>
      </trkpt>
      <trkpt lat="47.44346" lon="-0.58816">
        <ele>30.2</ele>
        <time>2021-07-04T05:11:10Z</time>
      </trkpt>
      <trkpt lat="47.4435" lon="-0.58843">
        <ele>30</ele>
        <time>2021-07-04T05:11:12Z</time>
      </trkpt>
      <trkpt lat="47.44352" lon="-0.58856">
        <ele>29.6</ele>
        <time>2021-07-04T05:11:13Z</time>
      </trkpt>
      <trkpt lat="47.44352" lon="-0.58868">
        <ele>29.8</ele>
        <time>2021-07-04T05:11:14Z</time>
      </trkpt>
      <trkpt lat="47.44354" lon="-0.58893">
        <ele>29.6</ele>
        <time>2021-07-04T05:11:16Z</time>
      </trkpt>
      <trkpt lat="47.44355" lon="-0.58917">
        <ele>29</ele>
        <time>2021-07-04T05:11:18Z</time>
      </trkpt>
      <trkpt lat="47.44356" lon="-0.5894">
        <ele>29.2</ele>
        <time>2021-07-04T05:11:20Z</time>
      </trkpt>
      <trkpt lat="47.44357" lon="-0.58964">
        <ele>29</ele>
        <time>2021-07-04T05:11:22Z</time>
      </trkpt>
      <trkpt lat="47.44358" lon="-0.58975">
        <ele>28.8</ele>
        <time>2021-07-04T05:11:23Z</time>
      </trkpt>
      <trkpt lat="47.44358" lon="-0.58986">
        <ele>28.6</ele>
        <time>2021-07-04T05:11:24Z</time>
      </trkpt>
      <trkpt lat="47.44358" lon="-0.59008">
        <ele>28.4</ele>
        <time>2021-07-04T05:11:26Z</time>
      </trkpt>
      <trkpt lat="47.44357" lon="-0.59028">
        <ele>28.2</ele>
        <time>2021-07-04T05:11:28Z</time>
      </trkpt>
      <trkpt lat="47.44357" lon="-0.59039">
        <ele>28</ele>
        <time>2021-07-04T05:11:29Z</time>
      </trkpt>
      <trkpt lat="47.44357" lon="-0.59049">
        <ele>28</ele>
        <time>2021-07-04T05:11:30Z</time>
      </trkpt>
      <trkpt lat="47.44357" lon="-0.5906">
        <ele>27.8</ele>
        <time>2021-07-04T05:11:31Z</time>
      </trkpt>
      <trkpt lat="47.44357" lon="-0.5907">
        <ele>27.6</ele>
        <time>2021-07-04T05:11:32Z</time>
      </trkpt>
      <trkpt lat="47.44356" lon="-0.59091">
        <ele>27.4</ele>
        <time>2021-07-04T05:11:34Z</time>
      </trkpt>
      <trkpt lat="47.44356" lon="-0.59101">
        <ele>27.4</ele>
        <time>2021-07-04T05:11:35Z</time>
      </trkpt>
      <trkpt lat="47.44356" lon="-0.59111">
        <ele>27.2</ele>
        <time>2021-07-04T05:11:36Z</time>
      </trkpt>
      <trkpt lat="47.44355" lon="-0.59132">
        <ele>26.8</ele>
        <time>2021-07-04T05:11:38Z</time>
      </trkpt>
      <trkpt lat="47.44355" lon="-0.59142">
        <ele>26.6</ele>
        <time>2021-07-04T05:11:39Z</time>
      </trkpt>
      <trkpt lat="47.44354" lon="-0.59153">
        <ele>26.4</ele>
        <time>2021-07-04T05:11:40Z</time>
      </trkpt>
      <trkpt lat="47.44354" lon="-0.59174">
        <ele>26.4</ele>
        <time>2021-07-04T05:11:42Z</time>
      </trkpt>
      <trkpt lat="47.44353" lon="-0.59195">
        <ele>26.4</ele>
        <time>2021-07-04T05:11:44Z</time>
      </trkpt>
      <trkpt lat="47.44353" lon="-0.59215">
        <ele>26.6</ele>
        <time>2021-07-04T05:11:46Z</time>
      </trkpt>
      <trkpt lat="47.44352" lon="-0.59235">
        <ele>26.4</ele>
        <time>2021-07-04T05:11:48Z</time>
      </trkpt>
      <trkpt lat="47.44352" lon="-0.59254">
        <ele>26.4</ele>
        <time>2021-07-04T05:11:50Z</time>
      </trkpt>
      <trkpt lat="47.44351" lon="-0.59274">
        <ele>26.6</ele>
        <time>2021-07-04T05:11:52Z</time>
      </trkpt>
      <trkpt lat="47.44351" lon="-0.59292">
        <ele>26.8</ele>
        <time>2021-07-04T05:11:54Z</time>
      </trkpt>
      <trkpt lat="47.44351" lon="-0.59311">
        <ele>27</ele>
        <time>2021-07-04T05:11:56Z</time>
      </trkpt>
      <trkpt lat="47.44352" lon="-0.5932">
        <ele>27</ele>
        <time>2021-07-04T05:11:57Z</time>
      </trkpt>
      <trkpt lat="47.44353" lon="-0.59328">
        <ele>27</ele>
        <time>2021-07-04T05:11:58Z</time>
      </trkpt>
      <trkpt lat="47.44354" lon="-0.59345">
        <ele>27.2</ele>
        <time>2021-07-04T05:12:00Z</time>
      </trkpt>
      <trkpt lat="47.44356" lon="-0.59361">
        <ele>27.6</ele>
        <time>2021-07-04T05:12:02Z</time>
      </trkpt>
      <trkpt lat="47.44358" lon="-0.59369">
        <ele>27.8</ele>
        <time>2021-07-04T05:12:03Z</time>
      </trkpt>
      <trkpt lat="47.44359" lon="-0.59377">
        <ele>28</ele>
        <time>2021-07-04T05:12:04Z</time>
      </trkpt>
      <trkpt lat="47.44361" lon="-0.59393">
        <ele>28.2</ele>
        <time>2021-07-04T05:12:06Z</time>
      </trkpt>
      <trkpt lat="47.44364" lon="-0.59408">
        <ele>28.2</ele>
        <time>2021-07-04T05:12:08Z</time>
      </trkpt>
      <trkpt lat="47.44368" lon="-0.59423">
        <ele>28.6</ele>
        <time>2021-07-04T05:12:10Z</time>
      </trkpt>
      <trkpt lat="47.44369" lon="-0.59431">
        <ele>28.6</ele>
        <time>2021-07-04T05:12:11Z</time>
      </trkpt>
      <trkpt lat="47.44371" lon="-0.59438">
        <ele>28.6</ele>
        <time>2021-07-04T05:12:12Z</time>
      </trkpt>
      <trkpt lat="47.44376" lon="-0.59453">
        <ele>28.8</ele>
        <time>2021-07-04T05:12:14Z</time>
      </trkpt>
      <trkpt lat="47.44381" lon="-0.59468">
        <ele>29.2</ele>
        <time>2021-07-04T05:12:16Z</time>
      </trkpt>
      <trkpt lat="47.44386" lon="-0.59482">
        <ele>29.4</ele>
        <time>2021-07-04T05:12:18Z</time>
      </trkpt>
      <trkpt lat="47.44389" lon="-0.59489">
        <ele>29.6</ele>
        <time>2021-07-04T05:12:19Z</time>
      </trkpt>
      <trkpt lat="47.44391" lon="-0.59496">
        <ele>29.8</ele>
        <time>2021-07-04T05:12:20Z</time>
      </trkpt>
      <trkpt lat="47.44396" lon="-0.5951">
        <ele>30.2</ele>
        <time>2021-07-04T05:12:22Z</time>
      </trkpt>
      <trkpt lat="47.44398" lon="-0.59517">
        <ele>30.4</ele>
        <time>2021-07-04T05:12:23Z</time>
      </trkpt>
      <trkpt lat="47.44401" lon="-0.59524">
        <ele>30.6</ele>
        <time>2021-07-04T05:12:24Z</time>
      </trkpt>
      <trkpt lat="47.44403" lon="-0.5953">
        <ele>31.4</ele>
        <time>2021-07-04T05:12:25Z</time>
      </trkpt>
      <trkpt lat="47.44405" lon="-0.59536">
        <ele>31.6</ele>
        <time>2021-07-04T05:12:26Z</time>
      </trkpt>
      <trkpt lat="47.44408" lon="-0.59542">
        <ele>31.8</ele>
        <time>2021-07-04T05:12:27Z</time>
      </trkpt>
      <trkpt lat="47.4441" lon="-0.59549">
        <ele>31.6</ele>
        <time>2021-07-04T05:12:28Z</time>
      </trkpt>
      <trkpt lat="47.44414" lon="-0.59563">
        <ele>31.8</ele>
        <time>2021-07-04T05:12:30Z</time>
      </trkpt>
      <trkpt lat="47.44419" lon="-0.59577">
        <ele>31.8</ele>
        <time>2021-07-04T05:12:32Z</time>
      </trkpt>
      <trkpt lat="47.44423" lon="-0.5959">
        <ele>31.8</ele>
        <time>2021-07-04T05:12:34Z</time>
      </trkpt>
      <trkpt lat="47.44427" lon="-0.59604">
        <ele>32.2</ele>
        <time>2021-07-04T05:12:36Z</time>
      </trkpt>
      <trkpt lat="47.44431" lon="-0.59618">
        <ele>32.4</ele>
        <time>2021-07-04T05:12:38Z</time>
      </trkpt>
      <trkpt lat="47.44433" lon="-0.59623">
        <ele>32.4</ele>
        <time>2021-07-04T05:12:39Z</time>
      </trkpt>
      <trkpt lat="47.44434" lon="-0.59631">
        <ele>32.4</ele>
        <time>2021-07-04T05:12:40Z</time>
      </trkpt>
      <trkpt lat="47.44438" lon="-0.59644">
        <ele>32.4</ele>
        <time>2021-07-04T05:12:42Z</time>
      </trkpt>
      <trkpt lat="47.44442" lon="-0.59657">
        <ele>32.8</ele>
        <time>2021-07-04T05:12:44Z</time>
      </trkpt>
      <trkpt lat="47.44446" lon="-0.59671">
        <ele>32.6</ele>
        <time>2021-07-04T05:12:46Z</time>
      </trkpt>
      <trkpt lat="47.4445" lon="-0.59685">
        <ele>33</ele>
        <time>2021-07-04T05:12:48Z</time>
      </trkpt>
      <trkpt lat="47.44454" lon="-0.59699">
        <ele>33</ele>
        <time>2021-07-04T05:12:50Z</time>
      </trkpt>
      <trkpt lat="47.44457" lon="-0.5971">
        <ele>33.2</ele>
        <time>2021-07-04T05:12:52Z</time>
      </trkpt>
      <trkpt lat="47.44459" lon="-0.59722">
        <ele>33.2</ele>
        <time>2021-07-04T05:12:54Z</time>
      </trkpt>
      <trkpt lat="47.44462" lon="-0.59731">
        <ele>33.4</ele>
        <time>2021-07-04T05:12:56Z</time>
      </trkpt>
      <trkpt lat="47.44469" lon="-0.59727">
        <ele>34</ele>
        <time>2021-07-04T05:12:58Z</time>
      </trkpt>
      <trkpt lat="47.44473" lon="-0.5972">
        <ele>25.2</ele>
        <time>2021-07-04T05:13:38Z</time>
      </trkpt>
      <trkpt lat="47.44478" lon="-0.59712">
        <ele>25</ele>
        <time>2021-07-04T05:13:39Z</time>
      </trkpt>
      <trkpt lat="47.44482" lon="-0.59708">
        <ele>24.8</ele>
        <time>2021-07-04T05:13:40Z</time>
      </trkpt>
      <trkpt lat="47.44486" lon="-0.59704">
        <ele>24.6</ele>
        <time>2021-07-04T05:13:41Z</time>
      </trkpt>
      <trkpt lat="47.4449" lon="-0.59699">
        <ele>24.4</ele>
        <time>2021-07-04T05:13:42Z</time>
      </trkpt>
      <trkpt lat="47.44494" lon="-0.59694">
        <ele>24.2</ele>
        <time>2021-07-04T05:13:43Z</time>
      </trkpt>
      <trkpt lat="47.44498" lon="-0.59691">
        <ele>24.2</ele>
        <time>2021-07-04T05:13:44Z</time>
      </trkpt>
      <trkpt lat="47.44507" lon="-0.59685">
        <ele>24.4</ele>
        <time>2021-07-04T05:13:46Z</time>
      </trkpt>
      <trkpt lat="47.44516" lon="-0.59681">
        <ele>24.2</ele>
        <time>2021-07-04T05:13:48Z</time>
      </trkpt>
      <trkpt lat="47.4452" lon="-0.59678">
        <ele>24.2</ele>
        <time>2021-07-04T05:13:49Z</time>
      </trkpt>
      <trkpt lat="47.44525" lon="-0.59675">
        <ele>24.2</ele>
        <time>2021-07-04T05:13:50Z</time>
      </trkpt>
      <trkpt lat="47.44534" lon="-0.59663">
        <ele>24</ele>
        <time>2021-07-04T05:13:52Z</time>
      </trkpt>
      <trkpt lat="47.44545" lon="-0.59652">
        <ele>24.2</ele>
        <time>2021-07-04T05:13:54Z</time>
      </trkpt>
      <trkpt lat="47.44556" lon="-0.59642">
        <ele>24.2</ele>
        <time>2021-07-04T05:13:56Z</time>
      </trkpt>
      <trkpt lat="47.44568" lon="-0.59636">
        <ele>24.4</ele>
        <time>2021-07-04T05:13:58Z</time>
      </trkpt>
      <trkpt lat="47.44579" lon="-0.59628">
        <ele>23.8</ele>
        <time>2021-07-04T05:14:00Z</time>
      </trkpt>
      <trkpt lat="47.44589" lon="-0.5962">
        <ele>23.4</ele>
        <time>2021-07-04T05:14:02Z</time>
      </trkpt>
      <trkpt lat="47.44599" lon="-0.59612">
        <ele>23.2</ele>
        <time>2021-07-04T05:14:04Z</time>
      </trkpt>
      <trkpt lat="47.44604" lon="-0.59608">
        <ele>23.2</ele>
        <time>2021-07-04T05:14:05Z</time>
      </trkpt>
      <trkpt lat="47.44609" lon="-0.59605">
        <ele>23.2</ele>
        <time>2021-07-04T05:14:06Z</time>
      </trkpt>
      <trkpt lat="47.44619" lon="-0.596">
        <ele>23.8</ele>
        <time>2021-07-04T05:14:08Z</time>
      </trkpt>
      <trkpt lat="47.44627" lon="-0.59594">
        <ele>24.2</ele>
        <time>2021-07-04T05:14:10Z</time>
      </trkpt>
      <trkpt lat="47.44631" lon="-0.59592">
        <ele>24.2</ele>
        <time>2021-07-04T05:14:11Z</time>
      </trkpt>
      <trkpt lat="47.44637" lon="-0.5959">
        <ele>24.2</ele>
        <time>2021-07-04T05:14:12Z</time>
      </trkpt>
      <trkpt lat="47.44647" lon="-0.59586">
        <ele>24</ele>
        <time>2021-07-04T05:14:14Z</time>
      </trkpt>
      <trkpt lat="47.44653" lon="-0.59584">
        <ele>24</ele>
        <time>2021-07-04T05:14:15Z</time>
      </trkpt>
      <trkpt lat="47.44658" lon="-0.59582">
        <ele>24</ele>
        <time>2021-07-04T05:14:16Z</time>
      </trkpt>
      <trkpt lat="47.44669" lon="-0.59577">
        <ele>23.8</ele>
        <time>2021-07-04T05:14:18Z</time>
      </trkpt>
      <trkpt lat="47.44676" lon="-0.59575">
        <ele>24</ele>
        <time>2021-07-04T05:14:19Z</time>
      </trkpt>
      <trkpt lat="47.44681" lon="-0.59573">
        <ele>24.2</ele>
        <time>2021-07-04T05:14:20Z</time>
      </trkpt>
      <trkpt lat="47.44694" lon="-0.59568">
        <ele>24.2</ele>
        <time>2021-07-04T05:14:22Z</time>
      </trkpt>
      <trkpt lat="47.44706" lon="-0.59563">
        <ele>24</ele>
        <time>2021-07-04T05:14:24Z</time>
      </trkpt>
      <trkpt lat="47.44717" lon="-0.59558">
        <ele>24</ele>
        <time>2021-07-04T05:14:26Z</time>
      </trkpt>
      <trkpt lat="47.44728" lon="-0.59554">
        <ele>24</ele>
        <time>2021-07-04T05:14:28Z</time>
      </trkpt>
      <trkpt lat="47.44739" lon="-0.5955">
        <ele>24</ele>
        <time>2021-07-04T05:14:30Z</time>
      </trkpt>
      <trkpt lat="47.44752" lon="-0.59545">
        <ele>24</ele>
        <time>2021-07-04T05:14:32Z</time>
      </trkpt>
      <trkpt lat="47.44764" lon="-0.59541">
        <ele>24.2</ele>
        <time>2021-07-04T05:14:34Z</time>
      </trkpt>
      <trkpt lat="47.44777" lon="-0.59536">
        <ele>24.4</ele>
        <time>2021-07-04T05:14:36Z</time>
      </trkpt>
      <trkpt lat="47.44788" lon="-0.59532">
        <ele>24</ele>
        <time>2021-07-04T05:14:38Z</time>
      </trkpt>
      <trkpt lat="47.44794" lon="-0.59529">
        <ele>24</ele>
        <time>2021-07-04T05:14:39Z</time>
      </trkpt>
      <trkpt lat="47.44799" lon="-0.59526">
        <ele>23.8</ele>
        <time>2021-07-04T05:14:40Z</time>
      </trkpt>
      <trkpt lat="47.4481" lon="-0.59522">
        <ele>23.8</ele>
        <time>2021-07-04T05:14:42Z</time>
      </trkpt>
      <trkpt lat="47.44815" lon="-0.5952">
        <ele>23.8</ele>
        <time>2021-07-04T05:14:43Z</time>
      </trkpt>
      <trkpt lat="47.4482" lon="-0.59518">
        <ele>24</ele>
        <time>2021-07-04T05:14:44Z</time>
      </trkpt>
      <trkpt lat="47.44828" lon="-0.59514">
        <ele>24</ele>
        <time>2021-07-04T05:14:46Z</time>
      </trkpt>
      <trkpt lat="47.44836" lon="-0.59509">
        <ele>24</ele>
        <time>2021-07-04T05:14:48Z</time>
      </trkpt>
      <trkpt lat="47.44844" lon="-0.59506">
        <ele>24</ele>
        <time>2021-07-04T05:14:50Z</time>
      </trkpt>
      <trkpt lat="47.44848" lon="-0.59503">
        <ele>23.8</ele>
        <time>2021-07-04T05:14:51Z</time>
      </trkpt>
      <trkpt lat="47.44852" lon="-0.595">
        <ele>23.8</ele>
        <time>2021-07-04T05:14:52Z</time>
      </trkpt>
      <trkpt lat="47.44856" lon="-0.59497">
        <ele>24</ele>
        <time>2021-07-04T05:14:53Z</time>
      </trkpt>
      <trkpt lat="47.44861" lon="-0.59494">
        <ele>24.2</ele>
        <time>2021-07-04T05:14:54Z</time>
      </trkpt>
      <trkpt lat="47.44868" lon="-0.59487">
        <ele>24.2</ele>
        <time>2021-07-04T05:14:56Z</time>
      </trkpt>
      <trkpt lat="47.44876" lon="-0.59479">
        <ele>24.2</ele>
        <time>2021-07-04T05:14:58Z</time>
      </trkpt>
      <trkpt lat="47.44886" lon="-0.59472">
        <ele>24.2</ele>
        <time>2021-07-04T05:15:00Z</time>
      </trkpt>
      <trkpt lat="47.44896" lon="-0.59464">
        <ele>24</ele>
        <time>2021-07-04T05:15:02Z</time>
      </trkpt>
      <trkpt lat="47.44907" lon="-0.59456">
        <ele>23.8</ele>
        <time>2021-07-04T05:15:04Z</time>
      </trkpt>
      <trkpt lat="47.44912" lon="-0.5945">
        <ele>23.6</ele>
        <time>2021-07-04T05:15:05Z</time>
      </trkpt>
      <trkpt lat="47.44918" lon="-0.59445">
        <ele>23.4</ele>
        <time>2021-07-04T05:15:06Z</time>
      </trkpt>
      <trkpt lat="47.44931" lon="-0.59435">
        <ele>23.2</ele>
        <time>2021-07-04T05:15:08Z</time>
      </trkpt>
      <trkpt lat="47.44936" lon="-0.5943">
        <ele>23</ele>
        <time>2021-07-04T05:15:09Z</time>
      </trkpt>
      <trkpt lat="47.44941" lon="-0.59424">
        <ele>23</ele>
        <time>2021-07-04T05:15:10Z</time>
      </trkpt>
      <trkpt lat="47.4495" lon="-0.59413">
        <ele>23</ele>
        <time>2021-07-04T05:15:12Z</time>
      </trkpt>
      <trkpt lat="47.44958" lon="-0.59399">
        <ele>23.2</ele>
        <time>2021-07-04T05:15:14Z</time>
      </trkpt>
      <trkpt lat="47.44963" lon="-0.59392">
        <ele>23.4</ele>
        <time>2021-07-04T05:15:15Z</time>
      </trkpt>
      <trkpt lat="47.44967" lon="-0.59384">
        <ele>23.4</ele>
        <time>2021-07-04T05:15:16Z</time>
      </trkpt>
      <trkpt lat="47.44975" lon="-0.5937">
        <ele>23.4</ele>
        <time>2021-07-04T05:15:18Z</time>
      </trkpt>
      <trkpt lat="47.44983" lon="-0.59356">
        <ele>23.4</ele>
        <time>2021-07-04T05:15:20Z</time>
      </trkpt>
      <trkpt lat="47.44991" lon="-0.59343">
        <ele>24</ele>
        <time>2021-07-04T05:15:22Z</time>
      </trkpt>
      <trkpt lat="47.44998" lon="-0.59329">
        <ele>24.6</ele>
        <time>2021-07-04T05:15:24Z</time>
      </trkpt>
      <trkpt lat="47.45006" lon="-0.59313">
        <ele>24.8</ele>
        <time>2021-07-04T05:15:26Z</time>
      </trkpt>
      <trkpt lat="47.45015" lon="-0.59296">
        <ele>25</ele>
        <time>2021-07-04T05:15:28Z</time>
      </trkpt>
      <trkpt lat="47.45018" lon="-0.59288">
        <ele>24.8</ele>
        <time>2021-07-04T05:15:29Z</time>
      </trkpt>
      <trkpt lat="47.45022" lon="-0.59279">
        <ele>24.4</ele>
        <time>2021-07-04T05:15:30Z</time>
      </trkpt>
      <trkpt lat="47.45031" lon="-0.59264">
        <ele>23.8</ele>
        <time>2021-07-04T05:15:32Z</time>
      </trkpt>
      <trkpt lat="47.45039" lon="-0.59247">
        <ele>23.2</ele>
        <time>2021-07-04T05:15:34Z</time>
      </trkpt>
      <trkpt lat="47.45043" lon="-0.59239">
        <ele>23</ele>
        <time>2021-07-04T05:15:35Z</time>
      </trkpt>
      <trkpt lat="47.45048" lon="-0.5923">
        <ele>22.8</ele>
        <time>2021-07-04T05:15:36Z</time>
      </trkpt>
      <trkpt lat="47.45057" lon="-0.59211">
        <ele>22.8</ele>
        <time>2021-07-04T05:15:38Z</time>
      </trkpt>
      <trkpt lat="47.45065" lon="-0.59194">
        <ele>22.6</ele>
        <time>2021-07-04T05:15:40Z</time>
      </trkpt>
      <trkpt lat="47.45073" lon="-0.59178">
        <ele>23</ele>
        <time>2021-07-04T05:15:42Z</time>
      </trkpt>
      <trkpt lat="47.45081" lon="-0.59162">
        <ele>22.8</ele>
        <time>2021-07-04T05:15:44Z</time>
      </trkpt>
      <trkpt lat="47.45089" lon="-0.59146">
        <ele>22.8</ele>
        <time>2021-07-04T05:15:46Z</time>
      </trkpt>
      <trkpt lat="47.45096" lon="-0.5913">
        <ele>23.4</ele>
        <time>2021-07-04T05:15:48Z</time>
      </trkpt>
      <trkpt lat="47.45099" lon="-0.59122">
        <ele>23.4</ele>
        <time>2021-07-04T05:15:49Z</time>
      </trkpt>
      <trkpt lat="47.45103" lon="-0.59113">
        <ele>23.2</ele>
        <time>2021-07-04T05:15:50Z</time>
      </trkpt>
      <trkpt lat="47.4511" lon="-0.59097">
        <ele>23</ele>
        <time>2021-07-04T05:15:52Z</time>
      </trkpt>
      <trkpt lat="47.45117" lon="-0.59081">
        <ele>23</ele>
        <time>2021-07-04T05:15:54Z</time>
      </trkpt>
      <trkpt lat="47.4512" lon="-0.59073">
        <ele>23</ele>
        <time>2021-07-04T05:15:55Z</time>
      </trkpt>
      <trkpt lat="47.45124" lon="-0.59065">
        <ele>23.2</ele>
        <time>2021-07-04T05:15:56Z</time>
      </trkpt>
      <trkpt lat="47.4513" lon="-0.59049">
        <ele>23</ele>
        <time>2021-07-04T05:15:58Z</time>
      </trkpt>
      <trkpt lat="47.45137" lon="-0.59032">
        <ele>23</ele>
        <time>2021-07-04T05:16:00Z</time>
      </trkpt>
      <trkpt lat="47.45144" lon="-0.59015">
        <ele>23.2</ele>
        <time>2021-07-04T05:16:02Z</time>
      </trkpt>
      <trkpt lat="47.45147" lon="-0.59006">
        <ele>23.2</ele>
        <time>2021-07-04T05:16:03Z</time>
      </trkpt>
      <trkpt lat="47.4515" lon="-0.58997">
        <ele>23.2</ele>
        <time>2021-07-04T05:16:04Z</time>
      </trkpt>
      <trkpt lat="47.45156" lon="-0.58979">
        <ele>23.2</ele>
        <time>2021-07-04T05:16:06Z</time>
      </trkpt>
      <trkpt lat="47.45162" lon="-0.58962">
        <ele>23.2</ele>
        <time>2021-07-04T05:16:08Z</time>
      </trkpt>
      <trkpt lat="47.45168" lon="-0.58944">
        <ele>23.4</ele>
        <time>2021-07-04T05:16:10Z</time>
      </trkpt>
      <trkpt lat="47.45174" lon="-0.58927">
        <ele>23.2</ele>
        <time>2021-07-04T05:16:12Z</time>
      </trkpt>
      <trkpt lat="47.45179" lon="-0.58911">
        <ele>23.2</ele>
        <time>2021-07-04T05:16:14Z</time>
      </trkpt>
      <trkpt lat="47.45185" lon="-0.58895">
        <ele>23.2</ele>
        <time>2021-07-04T05:16:16Z</time>
      </trkpt>
      <trkpt lat="47.45188" lon="-0.58887">
        <ele>23.2</ele>
        <time>2021-07-04T05:16:17Z</time>
      </trkpt>
      <trkpt lat="47.45191" lon="-0.58879">
        <ele>23</ele>
        <time>2021-07-04T05:16:18Z</time>
      </trkpt>
      <trkpt lat="47.45198" lon="-0.58864">
        <ele>23</ele>
        <time>2021-07-04T05:16:20Z</time>
      </trkpt>
      <trkpt lat="47.45204" lon="-0.58848">
        <ele>23.2</ele>
        <time>2021-07-04T05:16:22Z</time>
      </trkpt>
      <trkpt lat="47.45211" lon="-0.58833">
        <ele>23.2</ele>
        <time>2021-07-04T05:16:24Z</time>
      </trkpt>
      <trkpt lat="47.45218" lon="-0.58817">
        <ele>23.2</ele>
        <time>2021-07-04T05:16:26Z</time>
      </trkpt>
      <trkpt lat="47.45224" lon="-0.588">
        <ele>23.4</ele>
        <time>2021-07-04T05:16:28Z</time>
      </trkpt>
      <trkpt lat="47.4523" lon="-0.58784">
        <ele>23.4</ele>
        <time>2021-07-04T05:16:30Z</time>
      </trkpt>
      <trkpt lat="47.45236" lon="-0.58768">
        <ele>23.2</ele>
        <time>2021-07-04T05:16:32Z</time>
      </trkpt>
      <trkpt lat="47.45241" lon="-0.58751">
        <ele>23.4</ele>
        <time>2021-07-04T05:16:34Z</time>
      </trkpt>
      <trkpt lat="47.45247" lon="-0.58735">
        <ele>23.4</ele>
        <time>2021-07-04T05:16:36Z</time>
      </trkpt>
      <trkpt lat="47.4525" lon="-0.58727">
        <ele>23.4</ele>
        <time>2021-07-04T05:16:37Z</time>
      </trkpt>
      <trkpt lat="47.45252" lon="-0.58719">
        <ele>23.4</ele>
        <time>2021-07-04T05:16:38Z</time>
      </trkpt>
      <trkpt lat="47.45258" lon="-0.58703">
        <ele>23.2</ele>
        <time>2021-07-04T05:16:40Z</time>
      </trkpt>
      <trkpt lat="47.45264" lon="-0.58687">
        <ele>23</ele>
        <time>2021-07-04T05:16:42Z</time>
      </trkpt>
      <trkpt lat="47.4527" lon="-0.5867">
        <ele>23</ele>
        <time>2021-07-04T05:16:44Z</time>
      </trkpt>
      <trkpt lat="47.45275" lon="-0.58654">
        <ele>23</ele>
        <time>2021-07-04T05:16:46Z</time>
      </trkpt>
      <trkpt lat="47.4528" lon="-0.58639">
        <ele>23.2</ele>
        <time>2021-07-04T05:16:48Z</time>
      </trkpt>
      <trkpt lat="47.45286" lon="-0.58624">
        <ele>23</ele>
        <time>2021-07-04T05:16:50Z</time>
      </trkpt>
      <trkpt lat="47.45292" lon="-0.58608">
        <ele>23.2</ele>
        <time>2021-07-04T05:16:52Z</time>
      </trkpt>
      <trkpt lat="47.45298" lon="-0.58593">
        <ele>23.2</ele>
        <time>2021-07-04T05:16:54Z</time>
      </trkpt>
      <trkpt lat="47.45305" lon="-0.58578">
        <ele>23.2</ele>
        <time>2021-07-04T05:16:56Z</time>
      </trkpt>
      <trkpt lat="47.45312" lon="-0.58563">
        <ele>23</ele>
        <time>2021-07-04T05:16:58Z</time>
      </trkpt>
      <trkpt lat="47.4532" lon="-0.58548">
        <ele>23.2</ele>
        <time>2021-07-04T05:17:00Z</time>
      </trkpt>
      <trkpt lat="47.45324" lon="-0.58542">
        <ele>23.2</ele>
        <time>2021-07-04T05:17:01Z</time>
      </trkpt>
      <trkpt lat="47.45328" lon="-0.58534">
        <ele>23.2</ele>
        <time>2021-07-04T05:17:02Z</time>
      </trkpt>
      <trkpt lat="47.45336" lon="-0.5852">
        <ele>23.4</ele>
        <time>2021-07-04T05:17:04Z</time>
      </trkpt>
      <trkpt lat="47.45344" lon="-0.58505">
        <ele>23.6</ele>
        <time>2021-07-04T05:17:06Z</time>
      </trkpt>
      <trkpt lat="47.45351" lon="-0.58491">
        <ele>23.2</ele>
        <time>2021-07-04T05:17:08Z</time>
      </trkpt>
      <trkpt lat="47.45355" lon="-0.58484">
        <ele>23</ele>
        <time>2021-07-04T05:17:09Z</time>
      </trkpt>
      <trkpt lat="47.45359" lon="-0.58476">
        <ele>22.8</ele>
        <time>2021-07-04T05:17:10Z</time>
      </trkpt>
      <trkpt lat="47.45367" lon="-0.58461">
        <ele>23</ele>
        <time>2021-07-04T05:17:12Z</time>
      </trkpt>
      <trkpt lat="47.45375" lon="-0.58448">
        <ele>23.4</ele>
        <time>2021-07-04T05:17:14Z</time>
      </trkpt>
      <trkpt lat="47.45382" lon="-0.58434">
        <ele>23.2</ele>
        <time>2021-07-04T05:17:16Z</time>
      </trkpt>
      <trkpt lat="47.4539" lon="-0.58419">
        <ele>23</ele>
        <time>2021-07-04T05:17:18Z</time>
      </trkpt>
      <trkpt lat="47.45397" lon="-0.58404">
        <ele>23.2</ele>
        <time>2021-07-04T05:17:20Z</time>
      </trkpt>
      <trkpt lat="47.45405" lon="-0.5839">
        <ele>23.2</ele>
        <time>2021-07-04T05:17:22Z</time>
      </trkpt>
      <trkpt lat="47.45409" lon="-0.58382">
        <ele>23.2</ele>
        <time>2021-07-04T05:17:23Z</time>
      </trkpt>
      <trkpt lat="47.45412" lon="-0.58375">
        <ele>23.2</ele>
        <time>2021-07-04T05:17:24Z</time>
      </trkpt>
      <trkpt lat="47.45419" lon="-0.58362">
        <ele>23.2</ele>
        <time>2021-07-04T05:17:26Z</time>
      </trkpt>
      <trkpt lat="47.45427" lon="-0.58349">
        <ele>23</ele>
        <time>2021-07-04T05:17:28Z</time>
      </trkpt>
      <trkpt lat="47.45435" lon="-0.58336">
        <ele>23.4</ele>
        <time>2021-07-04T05:17:30Z</time>
      </trkpt>
      <trkpt lat="47.45442" lon="-0.58324">
        <ele>23.8</ele>
        <time>2021-07-04T05:17:32Z</time>
      </trkpt>
      <trkpt lat="47.45451" lon="-0.58311">
        <ele>24</ele>
        <time>2021-07-04T05:17:34Z</time>
      </trkpt>
      <trkpt lat="47.45458" lon="-0.58297">
        <ele>23.6</ele>
        <time>2021-07-04T05:17:36Z</time>
      </trkpt>
      <trkpt lat="47.45467" lon="-0.58283">
        <ele>23</ele>
        <time>2021-07-04T05:17:38Z</time>
      </trkpt>
      <trkpt lat="47.45476" lon="-0.58269">
        <ele>23.4</ele>
        <time>2021-07-04T05:17:40Z</time>
      </trkpt>
      <trkpt lat="47.45484" lon="-0.58255">
        <ele>23.2</ele>
        <time>2021-07-04T05:17:42Z</time>
      </trkpt>
      <trkpt lat="47.45494" lon="-0.58243">
        <ele>23</ele>
        <time>2021-07-04T05:17:44Z</time>
      </trkpt>
      <trkpt lat="47.45499" lon="-0.58237">
        <ele>22.8</ele>
        <time>2021-07-04T05:17:45Z</time>
      </trkpt>
      <trkpt lat="47.45504" lon="-0.5823">
        <ele>22.8</ele>
        <time>2021-07-04T05:17:46Z</time>
      </trkpt>
      <trkpt lat="47.45513" lon="-0.58218">
        <ele>22.6</ele>
        <time>2021-07-04T05:17:48Z</time>
      </trkpt>
      <trkpt lat="47.45522" lon="-0.58206">
        <ele>22.6</ele>
        <time>2021-07-04T05:17:50Z</time>
      </trkpt>
      <trkpt lat="47.45527" lon="-0.582">
        <ele>22.8</ele>
        <time>2021-07-04T05:17:51Z</time>
      </trkpt>
      <trkpt lat="47.45532" lon="-0.58194">
        <ele>22.8</ele>
        <time>2021-07-04T05:17:52Z</time>
      </trkpt>
      <trkpt lat="47.45542" lon="-0.58182">
        <ele>22.6</ele>
        <time>2021-07-04T05:17:54Z</time>
      </trkpt>
      <trkpt lat="47.45552" lon="-0.5817">
        <ele>22.6</ele>
        <time>2021-07-04T05:17:56Z</time>
      </trkpt>
      <trkpt lat="47.45562" lon="-0.58158">
        <ele>22.8</ele>
        <time>2021-07-04T05:17:58Z</time>
      </trkpt>
      <trkpt lat="47.45572" lon="-0.58146">
        <ele>23.2</ele>
        <time>2021-07-04T05:18:00Z</time>
      </trkpt>
      <trkpt lat="47.45583" lon="-0.58136">
        <ele>22.8</ele>
        <time>2021-07-04T05:18:02Z</time>
      </trkpt>
      <trkpt lat="47.45593" lon="-0.58127">
        <ele>23.2</ele>
        <time>2021-07-04T05:18:04Z</time>
      </trkpt>
      <trkpt lat="47.45603" lon="-0.58117">
        <ele>23.2</ele>
        <time>2021-07-04T05:18:06Z</time>
      </trkpt>
      <trkpt lat="47.45613" lon="-0.58107">
        <ele>23.2</ele>
        <time>2021-07-04T05:18:08Z</time>
      </trkpt>
      <trkpt lat="47.45623" lon="-0.58096">
        <ele>23.2</ele>
        <time>2021-07-04T05:18:10Z</time>
      </trkpt>
      <trkpt lat="47.45628" lon="-0.58091">
        <ele>23</ele>
        <time>2021-07-04T05:18:11Z</time>
      </trkpt>
      <trkpt lat="47.45634" lon="-0.58086">
        <ele>22.8</ele>
        <time>2021-07-04T05:18:12Z</time>
      </trkpt>
      <trkpt lat="47.45645" lon="-0.58078">
        <ele>22.8</ele>
        <time>2021-07-04T05:18:14Z</time>
      </trkpt>
      <trkpt lat="47.45655" lon="-0.58071">
        <ele>23.2</ele>
        <time>2021-07-04T05:18:16Z</time>
      </trkpt>
      <trkpt lat="47.45659" lon="-0.58067">
        <ele>23.2</ele>
        <time>2021-07-04T05:18:17Z</time>
      </trkpt>
      <trkpt lat="47.45664" lon="-0.58063">
        <ele>23.2</ele>
        <time>2021-07-04T05:18:18Z</time>
      </trkpt>
      <trkpt lat="47.45673" lon="-0.58056">
        <ele>23.4</ele>
        <time>2021-07-04T05:18:20Z</time>
      </trkpt>
      <trkpt lat="47.45681" lon="-0.58048">
        <ele>23.2</ele>
        <time>2021-07-04T05:18:22Z</time>
      </trkpt>
      <trkpt lat="47.4569" lon="-0.5804">
        <ele>23.2</ele>
        <time>2021-07-04T05:18:24Z</time>
      </trkpt>
      <trkpt lat="47.45701" lon="-0.58032">
        <ele>23.2</ele>
        <time>2021-07-04T05:18:26Z</time>
      </trkpt>
      <trkpt lat="47.45707" lon="-0.58028">
        <ele>23.2</ele>
        <time>2021-07-04T05:18:27Z</time>
      </trkpt>
      <trkpt lat="47.45713" lon="-0.58024">
        <ele>23</ele>
        <time>2021-07-04T05:18:28Z</time>
      </trkpt>
      <trkpt lat="47.45724" lon="-0.58016">
        <ele>23.2</ele>
        <time>2021-07-04T05:18:30Z</time>
      </trkpt>
      <trkpt lat="47.45736" lon="-0.58008">
        <ele>23.4</ele>
        <time>2021-07-04T05:18:32Z</time>
      </trkpt>
      <trkpt lat="47.45748" lon="-0.58001">
        <ele>23.6</ele>
        <time>2021-07-04T05:18:34Z</time>
      </trkpt>
      <trkpt lat="47.45759" lon="-0.57994">
        <ele>23.8</ele>
        <time>2021-07-04T05:18:36Z</time>
      </trkpt>
      <trkpt lat="47.45771" lon="-0.57987">
        <ele>23.4</ele>
        <time>2021-07-04T05:18:38Z</time>
      </trkpt>
      <trkpt lat="47.45784" lon="-0.5798">
        <ele>23.4</ele>
        <time>2021-07-04T05:18:40Z</time>
      </trkpt>
      <trkpt lat="47.45796" lon="-0.57972">
        <ele>23.2</ele>
        <time>2021-07-04T05:18:42Z</time>
      </trkpt>
      <trkpt lat="47.45808" lon="-0.57965">
        <ele>23.2</ele>
        <time>2021-07-04T05:18:44Z</time>
      </trkpt>
      <trkpt lat="47.4582" lon="-0.57958">
        <ele>23.8</ele>
        <time>2021-07-04T05:18:46Z</time>
      </trkpt>
      <trkpt lat="47.45831" lon="-0.57951">
        <ele>23.8</ele>
        <time>2021-07-04T05:18:48Z</time>
      </trkpt>
      <trkpt lat="47.45842" lon="-0.57943">
        <ele>23.2</ele>
        <time>2021-07-04T05:18:50Z</time>
      </trkpt>
      <trkpt lat="47.45853" lon="-0.57936">
        <ele>23.4</ele>
        <time>2021-07-04T05:18:52Z</time>
      </trkpt>
      <trkpt lat="47.45859" lon="-0.57933">
        <ele>23.6</ele>
        <time>2021-07-04T05:18:53Z</time>
      </trkpt>
      <trkpt lat="47.45863" lon="-0.5793">
        <ele>23.8</ele>
        <time>2021-07-04T05:18:54Z</time>
      </trkpt>
      <trkpt lat="47.45875" lon="-0.57923">
        <ele>23.8</ele>
        <time>2021-07-04T05:18:56Z</time>
      </trkpt>
      <trkpt lat="47.45885" lon="-0.57915">
        <ele>23.8</ele>
        <time>2021-07-04T05:18:58Z</time>
      </trkpt>
      <trkpt lat="47.45891" lon="-0.57911">
        <ele>23.8</ele>
        <time>2021-07-04T05:18:59Z</time>
      </trkpt>
      <trkpt lat="47.45897" lon="-0.57907">
        <ele>23.8</ele>
        <time>2021-07-04T05:19:00Z</time>
      </trkpt>
      <trkpt lat="47.45908" lon="-0.579">
        <ele>23.8</ele>
        <time>2021-07-04T05:19:02Z</time>
      </trkpt>
      <trkpt lat="47.45918" lon="-0.57893">
        <ele>23.8</ele>
        <time>2021-07-04T05:19:04Z</time>
      </trkpt>
      <trkpt lat="47.45923" lon="-0.5789">
        <ele>24</ele>
        <time>2021-07-04T05:19:05Z</time>
      </trkpt>
      <trkpt lat="47.4593" lon="-0.57886">
        <ele>23.8</ele>
        <time>2021-07-04T05:19:06Z</time>
      </trkpt>
      <trkpt lat="47.45936" lon="-0.57881">
        <ele>23.8</ele>
        <time>2021-07-04T05:19:07Z</time>
      </trkpt>
      <trkpt lat="47.45942" lon="-0.57876">
        <ele>23.8</ele>
        <time>2021-07-04T05:19:08Z</time>
      </trkpt>
      <trkpt lat="47.45948" lon="-0.57872">
        <ele>23.8</ele>
        <time>2021-07-04T05:19:09Z</time>
      </trkpt>
      <trkpt lat="47.45954" lon="-0.57869">
        <ele>24</ele>
        <time>2021-07-04T05:19:10Z</time>
      </trkpt>
      <trkpt lat="47.45963" lon="-0.57861">
        <ele>24.2</ele>
        <time>2021-07-04T05:19:12Z</time>
      </trkpt>
      <trkpt lat="47.45969" lon="-0.57857">
        <ele>24.2</ele>
        <time>2021-07-04T05:19:13Z</time>
      </trkpt>
      <trkpt lat="47.45974" lon="-0.57853">
        <ele>24</ele>
        <time>2021-07-04T05:19:14Z</time>
      </trkpt>
      <trkpt lat="47.45985" lon="-0.57844">
        <ele>24</ele>
        <time>2021-07-04T05:19:16Z</time>
      </trkpt>
      <trkpt lat="47.45996" lon="-0.57837">
        <ele>23.8</ele>
        <time>2021-07-04T05:19:18Z</time>
      </trkpt>
      <trkpt lat="47.46001" lon="-0.57834">
        <ele>23.8</ele>
        <time>2021-07-04T05:19:19Z</time>
      </trkpt>
      <trkpt lat="47.46006" lon="-0.5783">
        <ele>23.8</ele>
        <time>2021-07-04T05:19:20Z</time>
      </trkpt>
      <trkpt lat="47.46017" lon="-0.57823">
        <ele>24</ele>
        <time>2021-07-04T05:19:22Z</time>
      </trkpt>
      <trkpt lat="47.4603" lon="-0.57815">
        <ele>23.8</ele>
        <time>2021-07-04T05:19:24Z</time>
      </trkpt>
      <trkpt lat="47.46037" lon="-0.57812">
        <ele>23.8</ele>
        <time>2021-07-04T05:19:25Z</time>
      </trkpt>
      <trkpt lat="47.46043" lon="-0.57809">
        <ele>23.8</ele>
        <time>2021-07-04T05:19:26Z</time>
      </trkpt>
      <trkpt lat="47.46055" lon="-0.57802">
        <ele>23.8</ele>
        <time>2021-07-04T05:19:28Z</time>
      </trkpt>
      <trkpt lat="47.46068" lon="-0.57797">
        <ele>23.8</ele>
        <time>2021-07-04T05:19:30Z</time>
      </trkpt>
      <trkpt lat="47.46079" lon="-0.57791">
        <ele>23.8</ele>
        <time>2021-07-04T05:19:32Z</time>
      </trkpt>
      <trkpt lat="47.46092" lon="-0.57785">
        <ele>23.8</ele>
        <time>2021-07-04T05:19:34Z</time>
      </trkpt>
      <trkpt lat="47.46097" lon="-0.57782">
        <ele>23.8</ele>
        <time>2021-07-04T05:19:35Z</time>
      </trkpt>
      <trkpt lat="47.46103" lon="-0.57779">
        <ele>23.8</ele>
        <time>2021-07-04T05:19:36Z</time>
      </trkpt>
      <trkpt lat="47.46115" lon="-0.57774">
        <ele>23.8</ele>
        <time>2021-07-04T05:19:38Z</time>
      </trkpt>
      <trkpt lat="47.46127" lon="-0.57768">
        <ele>23.8</ele>
        <time>2021-07-04T05:19:40Z</time>
      </trkpt>
      <trkpt lat="47.46139" lon="-0.57763">
        <ele>23.8</ele>
        <time>2021-07-04T05:19:42Z</time>
      </trkpt>
      <trkpt lat="47.4615" lon="-0.57758">
        <ele>23.6</ele>
        <time>2021-07-04T05:19:44Z</time>
      </trkpt>
      <trkpt lat="47.46162" lon="-0.57753">
        <ele>23.6</ele>
        <time>2021-07-04T05:19:46Z</time>
      </trkpt>
      <trkpt lat="47.46174" lon="-0.57748">
        <ele>23.8</ele>
        <time>2021-07-04T05:19:48Z</time>
      </trkpt>
      <trkpt lat="47.46186" lon="-0.57742">
        <ele>23.8</ele>
        <time>2021-07-04T05:19:50Z</time>
      </trkpt>
      <trkpt lat="47.46199" lon="-0.57736">
        <ele>23.6</ele>
        <time>2021-07-04T05:19:52Z</time>
      </trkpt>
      <trkpt lat="47.4621" lon="-0.57731">
        <ele>23.8</ele>
        <time>2021-07-04T05:19:54Z</time>
      </trkpt>
      <trkpt lat="47.46221" lon="-0.57725">
        <ele>23.8</ele>
        <time>2021-07-04T05:19:56Z</time>
      </trkpt>
      <trkpt lat="47.46234" lon="-0.57718">
        <ele>24</ele>
        <time>2021-07-04T05:19:58Z</time>
      </trkpt>
      <trkpt lat="47.46247" lon="-0.57712">
        <ele>24</ele>
        <time>2021-07-04T05:20:00Z</time>
      </trkpt>
      <trkpt lat="47.46253" lon="-0.57709">
        <ele>24.2</ele>
        <time>2021-07-04T05:20:01Z</time>
      </trkpt>
      <trkpt lat="47.46259" lon="-0.57706">
        <ele>24.2</ele>
        <time>2021-07-04T05:20:02Z</time>
      </trkpt>
      <trkpt lat="47.46272" lon="-0.57699">
        <ele>23.8</ele>
        <time>2021-07-04T05:20:04Z</time>
      </trkpt>
      <trkpt lat="47.46284" lon="-0.57692">
        <ele>24</ele>
        <time>2021-07-04T05:20:06Z</time>
      </trkpt>
      <trkpt lat="47.46296" lon="-0.57686">
        <ele>24</ele>
        <time>2021-07-04T05:20:08Z</time>
      </trkpt>
      <trkpt lat="47.46303" lon="-0.57681">
        <ele>23.8</ele>
        <time>2021-07-04T05:20:09Z</time>
      </trkpt>
      <trkpt lat="47.46309" lon="-0.57677">
        <ele>23.8</ele>
        <time>2021-07-04T05:20:10Z</time>
      </trkpt>
      <trkpt lat="47.4632" lon="-0.57669">
        <ele>23.8</ele>
        <time>2021-07-04T05:20:12Z</time>
      </trkpt>
      <trkpt lat="47.46331" lon="-0.57661">
        <ele>23.6</ele>
        <time>2021-07-04T05:20:14Z</time>
      </trkpt>
      <trkpt lat="47.46343" lon="-0.57653">
        <ele>23.6</ele>
        <time>2021-07-04T05:20:16Z</time>
      </trkpt>
      <trkpt lat="47.46355" lon="-0.57645">
        <ele>23.4</ele>
        <time>2021-07-04T05:20:18Z</time>
      </trkpt>
      <trkpt lat="47.46367" lon="-0.57636">
        <ele>23.8</ele>
        <time>2021-07-04T05:20:20Z</time>
      </trkpt>
      <trkpt lat="47.46378" lon="-0.57627">
        <ele>23.6</ele>
        <time>2021-07-04T05:20:22Z</time>
      </trkpt>
      <trkpt lat="47.4639" lon="-0.57617">
        <ele>23.8</ele>
        <time>2021-07-04T05:20:24Z</time>
      </trkpt>
      <trkpt lat="47.464" lon="-0.57609">
        <ele>24</ele>
        <time>2021-07-04T05:20:26Z</time>
      </trkpt>
      <trkpt lat="47.46406" lon="-0.57603">
        <ele>24.2</ele>
        <time>2021-07-04T05:20:27Z</time>
      </trkpt>
      <trkpt lat="47.46411" lon="-0.57599">
        <ele>24.4</ele>
        <time>2021-07-04T05:20:28Z</time>
      </trkpt>
      <trkpt lat="47.46421" lon="-0.5759">
        <ele>24.2</ele>
        <time>2021-07-04T05:20:30Z</time>
      </trkpt>
      <trkpt lat="47.46431" lon="-0.57583">
        <ele>24</ele>
        <time>2021-07-04T05:20:32Z</time>
      </trkpt>
      <trkpt lat="47.46436" lon="-0.57578">
        <ele>23.8</ele>
        <time>2021-07-04T05:20:33Z</time>
      </trkpt>
      <trkpt lat="47.46442" lon="-0.57572">
        <ele>23.8</ele>
        <time>2021-07-04T05:20:34Z</time>
      </trkpt>
      <trkpt lat="47.46452" lon="-0.57561">
        <ele>23.6</ele>
        <time>2021-07-04T05:20:36Z</time>
      </trkpt>
      <trkpt lat="47.46462" lon="-0.57551">
        <ele>23.4</ele>
        <time>2021-07-04T05:20:38Z</time>
      </trkpt>
      <trkpt lat="47.46472" lon="-0.57542">
        <ele>23.4</ele>
        <time>2021-07-04T05:20:40Z</time>
      </trkpt>
      <trkpt lat="47.46484" lon="-0.57533">
        <ele>23.6</ele>
        <time>2021-07-04T05:20:42Z</time>
      </trkpt>
      <trkpt lat="47.46495" lon="-0.57524">
        <ele>23.6</ele>
        <time>2021-07-04T05:20:44Z</time>
      </trkpt>
      <trkpt lat="47.46504" lon="-0.57514">
        <ele>23.4</ele>
        <time>2021-07-04T05:20:46Z</time>
      </trkpt>
      <trkpt lat="47.46514" lon="-0.57502">
        <ele>23.4</ele>
        <time>2021-07-04T05:20:48Z</time>
      </trkpt>
      <trkpt lat="47.46524" lon="-0.57492">
        <ele>23.4</ele>
        <time>2021-07-04T05:20:50Z</time>
      </trkpt>
      <trkpt lat="47.46528" lon="-0.57487">
        <ele>23.4</ele>
        <time>2021-07-04T05:20:51Z</time>
      </trkpt>
      <trkpt lat="47.46532" lon="-0.57482">
        <ele>23.4</ele>
        <time>2021-07-04T05:20:52Z</time>
      </trkpt>
      <trkpt lat="47.46543" lon="-0.5747">
        <ele>23.4</ele>
        <time>2021-07-04T05:20:54Z</time>
      </trkpt>
      <trkpt lat="47.46548" lon="-0.57463">
        <ele>23.2</ele>
        <time>2021-07-04T05:20:55Z</time>
      </trkpt>
      <trkpt lat="47.46553" lon="-0.57456">
        <ele>23.2</ele>
        <time>2021-07-04T05:20:56Z</time>
      </trkpt>
      <trkpt lat="47.46563" lon="-0.57444">
        <ele>23.4</ele>
        <time>2021-07-04T05:20:58Z</time>
      </trkpt>
      <trkpt lat="47.46572" lon="-0.57434">
        <ele>23.4</ele>
        <time>2021-07-04T05:21:00Z</time>
      </trkpt>
      <trkpt lat="47.46582" lon="-0.57422">
        <ele>23.6</ele>
        <time>2021-07-04T05:21:02Z</time>
      </trkpt>
      <trkpt lat="47.46591" lon="-0.57412">
        <ele>23.4</ele>
        <time>2021-07-04T05:21:04Z</time>
      </trkpt>
      <trkpt lat="47.466" lon="-0.57399">
        <ele>23.2</ele>
        <time>2021-07-04T05:21:06Z</time>
      </trkpt>
      <trkpt lat="47.46609" lon="-0.57388">
        <ele>23.2</ele>
        <time>2021-07-04T05:21:08Z</time>
      </trkpt>
      <trkpt lat="47.46619" lon="-0.57377">
        <ele>23</ele>
        <time>2021-07-04T05:21:10Z</time>
      </trkpt>
      <trkpt lat="47.46623" lon="-0.57371">
        <ele>23.2</ele>
        <time>2021-07-04T05:21:11Z</time>
      </trkpt>
      <trkpt lat="47.46628" lon="-0.57365">
        <ele>23.2</ele>
        <time>2021-07-04T05:21:12Z</time>
      </trkpt>
      <trkpt lat="47.46638" lon="-0.57353">
        <ele>23</ele>
        <time>2021-07-04T05:21:14Z</time>
      </trkpt>
      <trkpt lat="47.46648" lon="-0.5734">
        <ele>23.2</ele>
        <time>2021-07-04T05:21:16Z</time>
      </trkpt>
      <trkpt lat="47.46655" lon="-0.57329">
        <ele>23.6</ele>
        <time>2021-07-04T05:21:18Z</time>
      </trkpt>
      <trkpt lat="47.46664" lon="-0.57319">
        <ele>23.8</ele>
        <time>2021-07-04T05:21:20Z</time>
      </trkpt>
      <trkpt lat="47.46671" lon="-0.5731">
        <ele>23.8</ele>
        <time>2021-07-04T05:21:22Z</time>
      </trkpt>
      <trkpt lat="47.46675" lon="-0.57305">
        <ele>23.6</ele>
        <time>2021-07-04T05:21:23Z</time>
      </trkpt>
      <trkpt lat="47.4668" lon="-0.57299">
        <ele>23.2</ele>
        <time>2021-07-04T05:21:24Z</time>
      </trkpt>
      <trkpt lat="47.46689" lon="-0.57286">
        <ele>23.2</ele>
        <time>2021-07-04T05:21:26Z</time>
      </trkpt>
      <trkpt lat="47.46698" lon="-0.57272">
        <ele>23.4</ele>
        <time>2021-07-04T05:21:28Z</time>
      </trkpt>
      <trkpt lat="47.46703" lon="-0.57266">
        <ele>23.4</ele>
        <time>2021-07-04T05:21:29Z</time>
      </trkpt>
      <trkpt lat="47.46708" lon="-0.57258">
        <ele>23.6</ele>
        <time>2021-07-04T05:21:30Z</time>
      </trkpt>
      <trkpt lat="47.46718" lon="-0.57244">
        <ele>23.6</ele>
        <time>2021-07-04T05:21:32Z</time>
      </trkpt>
      <trkpt lat="47.4673" lon="-0.57228">
        <ele>23.8</ele>
        <time>2021-07-04T05:21:34Z</time>
      </trkpt>
      <trkpt lat="47.46741" lon="-0.57213">
        <ele>23.2</ele>
        <time>2021-07-04T05:21:36Z</time>
      </trkpt>
      <trkpt lat="47.46752" lon="-0.572">
        <ele>24</ele>
        <time>2021-07-04T05:21:38Z</time>
      </trkpt>
      <trkpt lat="47.46757" lon="-0.57193">
        <ele>24.4</ele>
        <time>2021-07-04T05:21:39Z</time>
      </trkpt>
      <trkpt lat="47.46762" lon="-0.57186">
        <ele>24.4</ele>
        <time>2021-07-04T05:21:40Z</time>
      </trkpt>
      <trkpt lat="47.46767" lon="-0.57169">
        <ele>24</ele>
        <time>2021-07-04T05:21:42Z</time>
      </trkpt>
      <trkpt lat="47.4677" lon="-0.5716">
        <ele>24</ele>
        <time>2021-07-04T05:21:43Z</time>
      </trkpt>
      <trkpt lat="47.46774" lon="-0.57151">
        <ele>23.8</ele>
        <time>2021-07-04T05:21:44Z</time>
      </trkpt>
      <trkpt lat="47.46778" lon="-0.57142">
        <ele>23.2</ele>
        <time>2021-07-04T05:21:45Z</time>
      </trkpt>
      <trkpt lat="47.46784" lon="-0.57133">
        <ele>22.4</ele>
        <time>2021-07-04T05:21:46Z</time>
      </trkpt>
      <trkpt lat="47.46791" lon="-0.57125">
        <ele>21.4</ele>
        <time>2021-07-04T05:21:47Z</time>
      </trkpt>
      <trkpt lat="47.46797" lon="-0.57118">
        <ele>21</ele>
        <time>2021-07-04T05:21:48Z</time>
      </trkpt>
      <trkpt lat="47.46803" lon="-0.57111">
        <ele>20.6</ele>
        <time>2021-07-04T05:21:49Z</time>
      </trkpt>
      <trkpt lat="47.46808" lon="-0.57104">
        <ele>20.6</ele>
        <time>2021-07-04T05:21:50Z</time>
      </trkpt>
      <trkpt lat="47.46819" lon="-0.5709">
        <ele>21.4</ele>
        <time>2021-07-04T05:21:52Z</time>
      </trkpt>
      <trkpt lat="47.46824" lon="-0.57083">
        <ele>21.8</ele>
        <time>2021-07-04T05:21:53Z</time>
      </trkpt>
      <trkpt lat="47.46829" lon="-0.57076">
        <ele>22</ele>
        <time>2021-07-04T05:21:54Z</time>
      </trkpt>
      <trkpt lat="47.46839" lon="-0.57062">
        <ele>21.8</ele>
        <time>2021-07-04T05:21:56Z</time>
      </trkpt>
      <trkpt lat="47.46849" lon="-0.57048">
        <ele>21.6</ele>
        <time>2021-07-04T05:21:58Z</time>
      </trkpt>
      <trkpt lat="47.46859" lon="-0.57036">
        <ele>21.6</ele>
        <time>2021-07-04T05:22:00Z</time>
      </trkpt>
      <trkpt lat="47.46869" lon="-0.57023">
        <ele>22</ele>
        <time>2021-07-04T05:22:02Z</time>
      </trkpt>
      <trkpt lat="47.46879" lon="-0.5701">
        <ele>21.8</ele>
        <time>2021-07-04T05:22:04Z</time>
      </trkpt>
      <trkpt lat="47.46888" lon="-0.56995">
        <ele>21.6</ele>
        <time>2021-07-04T05:22:06Z</time>
      </trkpt>
      <trkpt lat="47.46897" lon="-0.56981">
        <ele>21.6</ele>
        <time>2021-07-04T05:22:08Z</time>
      </trkpt>
      <trkpt lat="47.46907" lon="-0.56967">
        <ele>21.6</ele>
        <time>2021-07-04T05:22:10Z</time>
      </trkpt>
      <trkpt lat="47.46918" lon="-0.56955">
        <ele>21.6</ele>
        <time>2021-07-04T05:22:12Z</time>
      </trkpt>
      <trkpt lat="47.46928" lon="-0.56942">
        <ele>21.4</ele>
        <time>2021-07-04T05:22:14Z</time>
      </trkpt>
      <trkpt lat="47.46938" lon="-0.56929">
        <ele>20.8</ele>
        <time>2021-07-04T05:22:16Z</time>
      </trkpt>
      <trkpt lat="47.46948" lon="-0.56916">
        <ele>21.4</ele>
        <time>2021-07-04T05:22:18Z</time>
      </trkpt>
      <trkpt lat="47.46957" lon="-0.56904">
        <ele>22</ele>
        <time>2021-07-04T05:22:20Z</time>
      </trkpt>
      <trkpt lat="47.46967" lon="-0.56893">
        <ele>22</ele>
        <time>2021-07-04T05:22:22Z</time>
      </trkpt>
      <trkpt lat="47.4697" lon="-0.56887">
        <ele>22.2</ele>
        <time>2021-07-04T05:22:23Z</time>
      </trkpt>
      <trkpt lat="47.46972" lon="-0.56879">
        <ele>21.8</ele>
        <time>2021-07-04T05:22:24Z</time>
      </trkpt>
      <trkpt lat="47.46972" lon="-0.56872">
        <ele>21.6</ele>
        <time>2021-07-04T05:22:25Z</time>
      </trkpt>
      <trkpt lat="47.4697" lon="-0.56864">
        <ele>21.6</ele>
        <time>2021-07-04T05:22:26Z</time>
      </trkpt>
      <trkpt lat="47.46966" lon="-0.56848">
        <ele>21.4</ele>
        <time>2021-07-04T05:22:28Z</time>
      </trkpt>
      <trkpt lat="47.46962" lon="-0.56831">
        <ele>21.2</ele>
        <time>2021-07-04T05:22:30Z</time>
      </trkpt>
      <trkpt lat="47.4696" lon="-0.56814">
        <ele>21</ele>
        <time>2021-07-04T05:22:32Z</time>
      </trkpt>
      <trkpt lat="47.46958" lon="-0.56797">
        <ele>21</ele>
        <time>2021-07-04T05:22:34Z</time>
      </trkpt>
      <trkpt lat="47.46957" lon="-0.56779">
        <ele>21.4</ele>
        <time>2021-07-04T05:22:36Z</time>
      </trkpt>
      <trkpt lat="47.46957" lon="-0.56761">
        <ele>21.4</ele>
        <time>2021-07-04T05:22:38Z</time>
      </trkpt>
      <trkpt lat="47.46957" lon="-0.56743">
        <ele>21.4</ele>
        <time>2021-07-04T05:22:40Z</time>
      </trkpt>
      <trkpt lat="47.46958" lon="-0.56734">
        <ele>21.4</ele>
        <time>2021-07-04T05:22:41Z</time>
      </trkpt>
      <trkpt lat="47.46958" lon="-0.56725">
        <ele>21.6</ele>
        <time>2021-07-04T05:22:42Z</time>
      </trkpt>
      <trkpt lat="47.46961" lon="-0.56708">
        <ele>21.6</ele>
        <time>2021-07-04T05:22:44Z</time>
      </trkpt>
      <trkpt lat="47.46965" lon="-0.56691">
        <ele>21.8</ele>
        <time>2021-07-04T05:22:46Z</time>
      </trkpt>
      <trkpt lat="47.4697" lon="-0.56674">
        <ele>22</ele>
        <time>2021-07-04T05:22:48Z</time>
      </trkpt>
      <trkpt lat="47.46974" lon="-0.56657">
        <ele>21.6</ele>
        <time>2021-07-04T05:22:50Z</time>
      </trkpt>
      <trkpt lat="47.4698" lon="-0.56641">
        <ele>21.8</ele>
        <time>2021-07-04T05:22:52Z</time>
      </trkpt>
      <trkpt lat="47.46987" lon="-0.56626">
        <ele>21.8</ele>
        <time>2021-07-04T05:22:54Z</time>
      </trkpt>
      <trkpt lat="47.46994" lon="-0.56612">
        <ele>21.8</ele>
        <time>2021-07-04T05:22:56Z</time>
      </trkpt>
      <trkpt lat="47.47002" lon="-0.56598">
        <ele>22</ele>
        <time>2021-07-04T05:22:58Z</time>
      </trkpt>
      <trkpt lat="47.4701" lon="-0.56585">
        <ele>22</ele>
        <time>2021-07-04T05:23:00Z</time>
      </trkpt>
      <trkpt lat="47.47019" lon="-0.56571">
        <ele>21.8</ele>
        <time>2021-07-04T05:23:02Z</time>
      </trkpt>
      <trkpt lat="47.47027" lon="-0.56558">
        <ele>22</ele>
        <time>2021-07-04T05:23:04Z</time>
      </trkpt>
      <trkpt lat="47.47036" lon="-0.56545">
        <ele>22.2</ele>
        <time>2021-07-04T05:23:06Z</time>
      </trkpt>
      <trkpt lat="47.47044" lon="-0.56532">
        <ele>22</ele>
        <time>2021-07-04T05:23:08Z</time>
      </trkpt>
      <trkpt lat="47.47052" lon="-0.5652">
        <ele>22.2</ele>
        <time>2021-07-04T05:23:10Z</time>
      </trkpt>
      <trkpt lat="47.4706" lon="-0.56508">
        <ele>22</ele>
        <time>2021-07-04T05:23:12Z</time>
      </trkpt>
      <trkpt lat="47.47063" lon="-0.56502">
        <ele>22</ele>
        <time>2021-07-04T05:23:13Z</time>
      </trkpt>
      <trkpt lat="47.47066" lon="-0.56494">
        <ele>22</ele>
        <time>2021-07-04T05:23:14Z</time>
      </trkpt>
      <trkpt lat="47.47064" lon="-0.56479">
        <ele>22</ele>
        <time>2021-07-04T05:23:16Z</time>
      </trkpt>
      <trkpt lat="47.47063" lon="-0.56464">
        <ele>22.2</ele>
        <time>2021-07-04T05:23:18Z</time>
      </trkpt>
      <trkpt lat="47.47067" lon="-0.56449">
        <ele>22</ele>
        <time>2021-07-04T05:23:20Z</time>
      </trkpt>
      <trkpt lat="47.47071" lon="-0.56434">
        <ele>22</ele>
        <time>2021-07-04T05:23:22Z</time>
      </trkpt>
      <trkpt lat="47.47077" lon="-0.56421">
        <ele>22.2</ele>
        <time>2021-07-04T05:23:24Z</time>
      </trkpt>
      <trkpt lat="47.47081" lon="-0.56415">
        <ele>22.4</ele>
        <time>2021-07-04T05:23:25Z</time>
      </trkpt>
      <trkpt lat="47.47086" lon="-0.5641">
        <ele>22.6</ele>
        <time>2021-07-04T05:23:26Z</time>
      </trkpt>
      <trkpt lat="47.47096" lon="-0.56403">
        <ele>22.6</ele>
        <time>2021-07-04T05:23:28Z</time>
      </trkpt>
      <trkpt lat="47.47101" lon="-0.564">
        <ele>22.6</ele>
        <time>2021-07-04T05:23:29Z</time>
      </trkpt>
      <trkpt lat="47.47105" lon="-0.56397">
        <ele>23</ele>
        <time>2021-07-04T05:23:30Z</time>
      </trkpt>
      <trkpt lat="47.47114" lon="-0.5639">
        <ele>23.8</ele>
        <time>2021-07-04T05:23:32Z</time>
      </trkpt>
      <trkpt lat="47.4712" lon="-0.56381">
        <ele>24.2</ele>
        <time>2021-07-04T05:23:34Z</time>
      </trkpt>
      <trkpt lat="47.47127" lon="-0.56374">
        <ele>24.8</ele>
        <time>2021-07-04T05:23:36Z</time>
      </trkpt>
      <trkpt lat="47.47134" lon="-0.56376">
        <ele>24.2</ele>
        <time>2021-07-04T05:23:38Z</time>
      </trkpt>
      <trkpt lat="47.47142" lon="-0.56384">
        <ele>24</ele>
        <time>2021-07-04T05:23:40Z</time>
      </trkpt>
      <trkpt lat="47.47145" lon="-0.56385">
        <ele>24</ele>
        <time>2021-07-04T05:23:41Z</time>
      </trkpt>
      <trkpt lat="47.47148" lon="-0.56383">
        <ele>24.6</ele>
        <time>2021-07-04T05:23:42Z</time>
      </trkpt>
      <trkpt lat="47.47155" lon="-0.56373">
        <ele>25.2</ele>
        <time>2021-07-04T05:23:44Z</time>
      </trkpt>
      <trkpt lat="47.47159" lon="-0.56368">
        <ele>24.8</ele>
        <time>2021-07-04T05:23:45Z</time>
      </trkpt>
      <trkpt lat="47.47163" lon="-0.56362">
        <ele>24.8</ele>
        <time>2021-07-04T05:23:46Z</time>
      </trkpt>
      <trkpt lat="47.47172" lon="-0.56351">
        <ele>24.8</ele>
        <time>2021-07-04T05:23:48Z</time>
      </trkpt>
      <trkpt lat="47.47177" lon="-0.56346">
        <ele>24.8</ele>
        <time>2021-07-04T05:23:49Z</time>
      </trkpt>
      <trkpt lat="47.47181" lon="-0.56341">
        <ele>25</ele>
        <time>2021-07-04T05:23:50Z</time>
      </trkpt>
      <trkpt lat="47.4719" lon="-0.56329">
        <ele>25.4</ele>
        <time>2021-07-04T05:23:52Z</time>
      </trkpt>
      <trkpt lat="47.47199" lon="-0.56317">
        <ele>25.4</ele>
        <time>2021-07-04T05:23:54Z</time>
      </trkpt>
      <trkpt lat="47.47203" lon="-0.56312">
        <ele>25.4</ele>
        <time>2021-07-04T05:23:55Z</time>
      </trkpt>
      <trkpt lat="47.47208" lon="-0.56306">
        <ele>25.4</ele>
        <time>2021-07-04T05:23:56Z</time>
      </trkpt>
      <trkpt lat="47.47216" lon="-0.56294">
        <ele>25.4</ele>
        <time>2021-07-04T05:23:58Z</time>
      </trkpt>
      <trkpt lat="47.47225" lon="-0.56281">
        <ele>25</ele>
        <time>2021-07-04T05:24:00Z</time>
      </trkpt>
      <trkpt lat="47.47229" lon="-0.56275">
        <ele>25.2</ele>
        <time>2021-07-04T05:24:01Z</time>
      </trkpt>
      <trkpt lat="47.47234" lon="-0.56269">
        <ele>25.2</ele>
        <time>2021-07-04T05:24:02Z</time>
      </trkpt>
      <trkpt lat="47.47242" lon="-0.56258">
        <ele>25.4</ele>
        <time>2021-07-04T05:24:04Z</time>
      </trkpt>
      <trkpt lat="47.47251" lon="-0.56246">
        <ele>25.2</ele>
        <time>2021-07-04T05:24:06Z</time>
      </trkpt>
      <trkpt lat="47.47259" lon="-0.56235">
        <ele>25</ele>
        <time>2021-07-04T05:24:08Z</time>
      </trkpt>
      <trkpt lat="47.47267" lon="-0.56222">
        <ele>25</ele>
        <time>2021-07-04T05:24:10Z</time>
      </trkpt>
      <trkpt lat="47.47275" lon="-0.56209">
        <ele>24.8</ele>
        <time>2021-07-04T05:24:12Z</time>
      </trkpt>
      <trkpt lat="47.47281" lon="-0.56199">
        <ele>25.6</ele>
        <time>2021-07-04T05:24:14Z</time>
      </trkpt>
      <trkpt lat="47.47282" lon="-0.56193">
        <ele>26.2</ele>
        <time>2021-07-04T05:24:15Z</time>
      </trkpt>
      <trkpt lat="47.4728" lon="-0.56189">
        <ele>26.8</ele>
        <time>2021-07-04T05:24:16Z</time>
      </trkpt>
      <trkpt lat="47.47274" lon="-0.5618">
        <ele>27</ele>
        <time>2021-07-04T05:24:18Z</time>
      </trkpt>
      <trkpt lat="47.4727" lon="-0.56176">
        <ele>26.8</ele>
        <time>2021-07-04T05:24:19Z</time>
      </trkpt>
      <trkpt lat="47.47267" lon="-0.56172">
        <ele>26.6</ele>
        <time>2021-07-04T05:24:20Z</time>
      </trkpt>
      <trkpt lat="47.47259" lon="-0.56162">
        <ele>26.2</ele>
        <time>2021-07-04T05:24:22Z</time>
      </trkpt>
      <trkpt lat="47.47251" lon="-0.56151">
        <ele>26</ele>
        <time>2021-07-04T05:24:24Z</time>
      </trkpt>
      <trkpt lat="47.47244" lon="-0.5614">
        <ele>26</ele>
        <time>2021-07-04T05:24:26Z</time>
      </trkpt>
      <trkpt lat="47.47238" lon="-0.56129">
        <ele>26.2</ele>
        <time>2021-07-04T05:24:28Z</time>
      </trkpt>
      <trkpt lat="47.47236" lon="-0.56124">
        <ele>26.6</ele>
        <time>2021-07-04T05:24:29Z</time>
      </trkpt>
      <trkpt lat="47.47236" lon="-0.56118">
        <ele>26.8</ele>
        <time>2021-07-04T05:24:30Z</time>
      </trkpt>
      <trkpt lat="47.47239" lon="-0.56106">
        <ele>27.2</ele>
        <time>2021-07-04T05:24:32Z</time>
      </trkpt>
      <trkpt lat="47.47246" lon="-0.56094">
        <ele>27.2</ele>
        <time>2021-07-04T05:24:34Z</time>
      </trkpt>
      <trkpt lat="47.47253" lon="-0.56082">
        <ele>27.4</ele>
        <time>2021-07-04T05:24:36Z</time>
      </trkpt>
      <trkpt lat="47.4726" lon="-0.56069">
        <ele>27.6</ele>
        <time>2021-07-04T05:24:38Z</time>
      </trkpt>
      <trkpt lat="47.47267" lon="-0.56057">
        <ele>27.2</ele>
        <time>2021-07-04T05:24:40Z</time>
      </trkpt>
      <trkpt lat="47.47275" lon="-0.56045">
        <ele>27.2</ele>
        <time>2021-07-04T05:24:42Z</time>
      </trkpt>
      <trkpt lat="47.47283" lon="-0.56032">
        <ele>27.4</ele>
        <time>2021-07-04T05:24:44Z</time>
      </trkpt>
      <trkpt lat="47.47291" lon="-0.5602">
        <ele>27.6</ele>
        <time>2021-07-04T05:24:46Z</time>
      </trkpt>
      <trkpt lat="47.47298" lon="-0.56007">
        <ele>27.6</ele>
        <time>2021-07-04T05:24:48Z</time>
      </trkpt>
      <trkpt lat="47.47306" lon="-0.55994">
        <ele>27.6</ele>
        <time>2021-07-04T05:24:50Z</time>
      </trkpt>
      <trkpt lat="47.47313" lon="-0.55982">
        <ele>27.4</ele>
        <time>2021-07-04T05:24:52Z</time>
      </trkpt>
      <trkpt lat="47.47321" lon="-0.55968">
        <ele>27.4</ele>
        <time>2021-07-04T05:24:54Z</time>
      </trkpt>
      <trkpt lat="47.47328" lon="-0.55956">
        <ele>27.4</ele>
        <time>2021-07-04T05:24:56Z</time>
      </trkpt>
      <trkpt lat="47.47336" lon="-0.55944">
        <ele>27.4</ele>
        <time>2021-07-04T05:24:58Z</time>
      </trkpt>
      <trkpt lat="47.47339" lon="-0.55938">
        <ele>27.6</ele>
        <time>2021-07-04T05:24:59Z</time>
      </trkpt>
      <trkpt lat="47.47343" lon="-0.55933">
        <ele>27.6</ele>
        <time>2021-07-04T05:25:00Z</time>
      </trkpt>
      <trkpt lat="47.4735" lon="-0.55921">
        <ele>27.8</ele>
        <time>2021-07-04T05:25:02Z</time>
      </trkpt>
      <trkpt lat="47.47355" lon="-0.55911">
        <ele>28.2</ele>
        <time>2021-07-04T05:25:04Z</time>
      </trkpt>
      <trkpt lat="47.47358" lon="-0.55906">
        <ele>28.2</ele>
        <time>2021-07-04T05:25:05Z</time>
      </trkpt>
      <trkpt lat="47.4736" lon="-0.55903">
        <ele>28.6</ele>
        <time>2021-07-04T05:25:06Z</time>
      </trkpt>
      <trkpt lat="47.47362" lon="-0.55898">
        <ele>29.2</ele>
        <time>2021-07-04T05:25:08Z</time>
      </trkpt>
      <trkpt lat="47.47368" lon="-0.5589">
        <ele>29.2</ele>
        <time>2021-07-04T05:25:10Z</time>
      </trkpt>
      <trkpt lat="47.47374" lon="-0.55882">
        <ele>29</ele>
        <time>2021-07-04T05:25:12Z</time>
      </trkpt>
      <trkpt lat="47.47382" lon="-0.55874">
        <ele>28.6</ele>
        <time>2021-07-04T05:25:14Z</time>
      </trkpt>
      <trkpt lat="47.47388" lon="-0.55867">
        <ele>28.2</ele>
        <time>2021-07-04T05:25:16Z</time>
      </trkpt>
      <trkpt lat="47.47393" lon="-0.55859">
        <ele>28.2</ele>
        <time>2021-07-04T05:25:18Z</time>
      </trkpt>
      <trkpt lat="47.47394" lon="-0.55854">
        <ele>28.4</ele>
        <time>2021-07-04T05:25:19Z</time>
      </trkpt>
      <trkpt lat="47.47395" lon="-0.55851">
        <ele>28.6</ele>
        <time>2021-07-04T05:25:20Z</time>
      </trkpt>
      <trkpt lat="47.47396" lon="-0.55847">
        <ele>28.4</ele>
        <time>2021-07-04T05:25:21Z</time>
      </trkpt>
      <trkpt lat="47.47399" lon="-0.55844">
        <ele>28.4</ele>
        <time>2021-07-04T05:25:22Z</time>
      </trkpt>
      <trkpt lat="47.47407" lon="-0.55836">
        <ele>28</ele>
        <time>2021-07-04T05:25:24Z</time>
      </trkpt>
      <trkpt lat="47.4741" lon="-0.55832">
        <ele>28</ele>
        <time>2021-07-04T05:25:25Z</time>
      </trkpt>
      <trkpt lat="47.47413" lon="-0.55829">
        <ele>27.6</ele>
        <time>2021-07-04T05:25:26Z</time>
      </trkpt>
      <trkpt lat="47.47417" lon="-0.55825">
        <ele>27</ele>
        <time>2021-07-04T05:25:27Z</time>
      </trkpt>
      <trkpt lat="47.47422" lon="-0.55821">
        <ele>26.6</ele>
        <time>2021-07-04T05:25:28Z</time>
      </trkpt>
      <trkpt lat="47.47431" lon="-0.55811">
        <ele>26.4</ele>
        <time>2021-07-04T05:25:30Z</time>
      </trkpt>
      <trkpt lat="47.47436" lon="-0.55808">
        <ele>25.6</ele>
        <time>2021-07-04T05:25:31Z</time>
      </trkpt>
      <trkpt lat="47.47441" lon="-0.55804">
        <ele>25</ele>
        <time>2021-07-04T05:25:32Z</time>
      </trkpt>
      <trkpt lat="47.47451" lon="-0.55798">
        <ele>25</ele>
        <time>2021-07-04T05:25:34Z</time>
      </trkpt>
      <trkpt lat="47.47456" lon="-0.55795">
        <ele>24.8</ele>
        <time>2021-07-04T05:25:35Z</time>
      </trkpt>
      <trkpt lat="47.4746" lon="-0.55791">
        <ele>24.6</ele>
        <time>2021-07-04T05:25:36Z</time>
      </trkpt>
      <trkpt lat="47.47465" lon="-0.55788">
        <ele>24.2</ele>
        <time>2021-07-04T05:25:37Z</time>
      </trkpt>
      <trkpt lat="47.4747" lon="-0.55784">
        <ele>23.8</ele>
        <time>2021-07-04T05:25:38Z</time>
      </trkpt>
      <trkpt lat="47.47474" lon="-0.55779">
        <ele>24</ele>
        <time>2021-07-04T05:25:39Z</time>
      </trkpt>
      <trkpt lat="47.47478" lon="-0.55772">
        <ele>23.8</ele>
        <time>2021-07-04T05:25:40Z</time>
      </trkpt>
      <trkpt lat="47.47482" lon="-0.55765">
        <ele>23.6</ele>
        <time>2021-07-04T05:25:41Z</time>
      </trkpt>
      <trkpt lat="47.47487" lon="-0.55759">
        <ele>23.4</ele>
        <time>2021-07-04T05:25:42Z</time>
      </trkpt>
      <trkpt lat="47.47492" lon="-0.55755">
        <ele>23.2</ele>
        <time>2021-07-04T05:25:43Z</time>
      </trkpt>
      <trkpt lat="47.47497" lon="-0.55751">
        <ele>23.2</ele>
        <time>2021-07-04T05:25:44Z</time>
      </trkpt>
      <trkpt lat="47.47503" lon="-0.55747">
        <ele>23.2</ele>
        <time>2021-07-04T05:25:45Z</time>
      </trkpt>
      <trkpt lat="47.47509" lon="-0.55743">
        <ele>23.4</ele>
        <time>2021-07-04T05:25:46Z</time>
      </trkpt>
      <trkpt lat="47.47521" lon="-0.55736">
        <ele>23.4</ele>
        <time>2021-07-04T05:25:48Z</time>
      </trkpt>
      <trkpt lat="47.47533" lon="-0.55727">
        <ele>23.2</ele>
        <time>2021-07-04T05:25:50Z</time>
      </trkpt>
      <trkpt lat="47.47545" lon="-0.55718">
        <ele>23.2</ele>
        <time>2021-07-04T05:25:52Z</time>
      </trkpt>
      <trkpt lat="47.47558" lon="-0.5571">
        <ele>23.2</ele>
        <time>2021-07-04T05:25:54Z</time>
      </trkpt>
      <trkpt lat="47.4757" lon="-0.55702">
        <ele>22.8</ele>
        <time>2021-07-04T05:25:56Z</time>
      </trkpt>
      <trkpt lat="47.47583" lon="-0.55694">
        <ele>22.8</ele>
        <time>2021-07-04T05:25:58Z</time>
      </trkpt>
      <trkpt lat="47.47589" lon="-0.5569">
        <ele>23.4</ele>
        <time>2021-07-04T05:25:59Z</time>
      </trkpt>
      <trkpt lat="47.47594" lon="-0.55686">
        <ele>23.6</ele>
        <time>2021-07-04T05:26:00Z</time>
      </trkpt>
      <trkpt lat="47.47607" lon="-0.55677">
        <ele>23.4</ele>
        <time>2021-07-04T05:26:02Z</time>
      </trkpt>
      <trkpt lat="47.47619" lon="-0.55669">
        <ele>23.4</ele>
        <time>2021-07-04T05:26:04Z</time>
      </trkpt>
      <trkpt lat="47.47631" lon="-0.5566">
        <ele>23.4</ele>
        <time>2021-07-04T05:26:06Z</time>
      </trkpt>
      <trkpt lat="47.47643" lon="-0.55652">
        <ele>23.6</ele>
        <time>2021-07-04T05:26:08Z</time>
      </trkpt>
      <trkpt lat="47.47655" lon="-0.55644">
        <ele>23.4</ele>
        <time>2021-07-04T05:26:10Z</time>
      </trkpt>
      <trkpt lat="47.47668" lon="-0.55635">
        <ele>23.2</ele>
        <time>2021-07-04T05:26:12Z</time>
      </trkpt>
      <trkpt lat="47.4768" lon="-0.55627">
        <ele>23.2</ele>
        <time>2021-07-04T05:26:14Z</time>
      </trkpt>
      <trkpt lat="47.47686" lon="-0.55622">
        <ele>23.4</ele>
        <time>2021-07-04T05:26:15Z</time>
      </trkpt>
      <trkpt lat="47.47692" lon="-0.55618">
        <ele>23.6</ele>
        <time>2021-07-04T05:26:16Z</time>
      </trkpt>
      <trkpt lat="47.47703" lon="-0.55612">
        <ele>23.8</ele>
        <time>2021-07-04T05:26:18Z</time>
      </trkpt>
      <trkpt lat="47.47715" lon="-0.55604">
        <ele>24</ele>
        <time>2021-07-04T05:26:20Z</time>
      </trkpt>
      <trkpt lat="47.4772" lon="-0.556">
        <ele>24.2</ele>
        <time>2021-07-04T05:26:21Z</time>
      </trkpt>
      <trkpt lat="47.47726" lon="-0.55595">
        <ele>23.8</ele>
        <time>2021-07-04T05:26:22Z</time>
      </trkpt>
      <trkpt lat="47.47737" lon="-0.55586">
        <ele>23.6</ele>
        <time>2021-07-04T05:26:24Z</time>
      </trkpt>
      <trkpt lat="47.47749" lon="-0.55577">
        <ele>23.6</ele>
        <time>2021-07-04T05:26:26Z</time>
      </trkpt>
      <trkpt lat="47.47761" lon="-0.55568">
        <ele>23.4</ele>
        <time>2021-07-04T05:26:28Z</time>
      </trkpt>
      <trkpt lat="47.47772" lon="-0.5556">
        <ele>23.4</ele>
        <time>2021-07-04T05:26:30Z</time>
      </trkpt>
      <trkpt lat="47.47783" lon="-0.55552">
        <ele>23.8</ele>
        <time>2021-07-04T05:26:32Z</time>
      </trkpt>
      <trkpt lat="47.47792" lon="-0.55545">
        <ele>23.6</ele>
        <time>2021-07-04T05:26:34Z</time>
      </trkpt>
      <trkpt lat="47.47796" lon="-0.55542">
        <ele>23.6</ele>
        <time>2021-07-04T05:26:35Z</time>
      </trkpt>
      <trkpt lat="47.47799" lon="-0.5554">
        <ele>23.6</ele>
        <time>2021-07-04T05:26:36Z</time>
      </trkpt>
      <trkpt lat="47.47802" lon="-0.55534">
        <ele>23.6</ele>
        <time>2021-07-04T05:26:37Z</time>
      </trkpt>
      <trkpt lat="47.47803" lon="-0.55528">
        <ele>23.6</ele>
        <time>2021-07-04T05:26:38Z</time>
      </trkpt>
      <trkpt lat="47.4781" lon="-0.55519">
        <ele>23.2</ele>
        <time>2021-07-04T05:26:40Z</time>
      </trkpt>
      <trkpt lat="47.47813" lon="-0.55516">
        <ele>23.4</ele>
        <time>2021-07-04T05:26:41Z</time>
      </trkpt>
      <trkpt lat="47.47817" lon="-0.55513">
        <ele>23.6</ele>
        <time>2021-07-04T05:26:42Z</time>
      </trkpt>
      <trkpt lat="47.47826" lon="-0.55513">
        <ele>23.4</ele>
        <time>2021-07-04T05:26:44Z</time>
      </trkpt>
      <trkpt lat="47.47831" lon="-0.55514">
        <ele>23.2</ele>
        <time>2021-07-04T05:26:45Z</time>
      </trkpt>
      <trkpt lat="47.47836" lon="-0.55514">
        <ele>23</ele>
        <time>2021-07-04T05:26:46Z</time>
      </trkpt>
      <trkpt lat="47.47848" lon="-0.55515">
        <ele>22.4</ele>
        <time>2021-07-04T05:26:48Z</time>
      </trkpt>
      <trkpt lat="47.47854" lon="-0.55514">
        <ele>22.2</ele>
        <time>2021-07-04T05:26:49Z</time>
      </trkpt>
      <trkpt lat="47.4786" lon="-0.55513">
        <ele>22</ele>
        <time>2021-07-04T05:26:50Z</time>
      </trkpt>
      <trkpt lat="47.47866" lon="-0.55511">
        <ele>22.2</ele>
        <time>2021-07-04T05:26:51Z</time>
      </trkpt>
      <trkpt lat="47.47871" lon="-0.55508">
        <ele>22.4</ele>
        <time>2021-07-04T05:26:52Z</time>
      </trkpt>
      <trkpt lat="47.47882" lon="-0.55501">
        <ele>22.4</ele>
        <time>2021-07-04T05:26:54Z</time>
      </trkpt>
      <trkpt lat="47.47893" lon="-0.55495">
        <ele>23</ele>
        <time>2021-07-04T05:26:56Z</time>
      </trkpt>
      <trkpt lat="47.47904" lon="-0.55487">
        <ele>23</ele>
        <time>2021-07-04T05:26:58Z</time>
      </trkpt>
      <trkpt lat="47.47913" lon="-0.55477">
        <ele>22.8</ele>
        <time>2021-07-04T05:27:00Z</time>
      </trkpt>
      <trkpt lat="47.47922" lon="-0.55466">
        <ele>22.2</ele>
        <time>2021-07-04T05:27:02Z</time>
      </trkpt>
      <trkpt lat="47.47928" lon="-0.55462">
        <ele>22.2</ele>
        <time>2021-07-04T05:27:03Z</time>
      </trkpt>
      <trkpt lat="47.47933" lon="-0.55459">
        <ele>22.2</ele>
        <time>2021-07-04T05:27:04Z</time>
      </trkpt>
      <trkpt lat="47.47946" lon="-0.55454">
        <ele>22</ele>
        <time>2021-07-04T05:27:06Z</time>
      </trkpt>
      <trkpt lat="47.47958" lon="-0.55447">
        <ele>22.4</ele>
        <time>2021-07-04T05:27:08Z</time>
      </trkpt>
      <trkpt lat="47.4797" lon="-0.55441">
        <ele>22</ele>
        <time>2021-07-04T05:27:10Z</time>
      </trkpt>
      <trkpt lat="47.47981" lon="-0.55436">
        <ele>22.2</ele>
        <time>2021-07-04T05:27:12Z</time>
      </trkpt>
      <trkpt lat="47.47992" lon="-0.55429">
        <ele>22.2</ele>
        <time>2021-07-04T05:27:14Z</time>
      </trkpt>
      <trkpt lat="47.48003" lon="-0.55422">
        <ele>22.4</ele>
        <time>2021-07-04T05:27:16Z</time>
      </trkpt>
      <trkpt lat="47.48009" lon="-0.55418">
        <ele>22.4</ele>
        <time>2021-07-04T05:27:17Z</time>
      </trkpt>
      <trkpt lat="47.48016" lon="-0.55415">
        <ele>22</ele>
        <time>2021-07-04T05:27:18Z</time>
      </trkpt>
      <trkpt lat="47.48027" lon="-0.55408">
        <ele>21.8</ele>
        <time>2021-07-04T05:27:20Z</time>
      </trkpt>
      <trkpt lat="47.48039" lon="-0.55402">
        <ele>22</ele>
        <time>2021-07-04T05:27:22Z</time>
      </trkpt>
      <trkpt lat="47.4805" lon="-0.55395">
        <ele>22</ele>
        <time>2021-07-04T05:27:24Z</time>
      </trkpt>
      <trkpt lat="47.48062" lon="-0.5539">
        <ele>21.6</ele>
        <time>2021-07-04T05:27:26Z</time>
      </trkpt>
      <trkpt lat="47.48073" lon="-0.55383">
        <ele>21.8</ele>
        <time>2021-07-04T05:27:28Z</time>
      </trkpt>
      <trkpt lat="47.48079" lon="-0.55381">
        <ele>22.2</ele>
        <time>2021-07-04T05:27:29Z</time>
      </trkpt>
      <trkpt lat="47.48082" lon="-0.55378">
        <ele>22.6</ele>
        <time>2021-07-04T05:27:30Z</time>
      </trkpt>
      <trkpt lat="47.48092" lon="-0.55369">
        <ele>21.6</ele>
        <time>2021-07-04T05:27:32Z</time>
      </trkpt>
      <trkpt lat="47.48104" lon="-0.55361">
        <ele>21.6</ele>
        <time>2021-07-04T05:27:34Z</time>
      </trkpt>
      <trkpt lat="47.48117" lon="-0.55353">
        <ele>21.8</ele>
        <time>2021-07-04T05:27:36Z</time>
      </trkpt>
      <trkpt lat="47.48123" lon="-0.55349">
        <ele>21.8</ele>
        <time>2021-07-04T05:27:37Z</time>
      </trkpt>
      <trkpt lat="47.48129" lon="-0.55345">
        <ele>22.2</ele>
        <time>2021-07-04T05:27:38Z</time>
      </trkpt>
      <trkpt lat="47.48141" lon="-0.55337">
        <ele>22.8</ele>
        <time>2021-07-04T05:27:40Z</time>
      </trkpt>
      <trkpt lat="47.48152" lon="-0.5533">
        <ele>23.2</ele>
        <time>2021-07-04T05:27:42Z</time>
      </trkpt>
      <trkpt lat="47.48162" lon="-0.55323">
        <ele>23.6</ele>
        <time>2021-07-04T05:27:44Z</time>
      </trkpt>
      <trkpt lat="47.48173" lon="-0.55315">
        <ele>23.8</ele>
        <time>2021-07-04T05:27:46Z</time>
      </trkpt>
      <trkpt lat="47.48184" lon="-0.55308">
        <ele>23.8</ele>
        <time>2021-07-04T05:27:48Z</time>
      </trkpt>
      <trkpt lat="47.48194" lon="-0.55301">
        <ele>23.6</ele>
        <time>2021-07-04T05:27:50Z</time>
      </trkpt>
      <trkpt lat="47.48205" lon="-0.55294">
        <ele>23.8</ele>
        <time>2021-07-04T05:27:52Z</time>
      </trkpt>
      <trkpt lat="47.48216" lon="-0.55286">
        <ele>23.6</ele>
        <time>2021-07-04T05:27:54Z</time>
      </trkpt>
      <trkpt lat="47.4823" lon="-0.55278">
        <ele>22.8</ele>
        <time>2021-07-04T05:27:56Z</time>
      </trkpt>
      <trkpt lat="47.48237" lon="-0.55274">
        <ele>22.6</ele>
        <time>2021-07-04T05:27:57Z</time>
      </trkpt>
      <trkpt lat="47.48243" lon="-0.5527">
        <ele>22.2</ele>
        <time>2021-07-04T05:27:58Z</time>
      </trkpt>
      <trkpt lat="47.4825" lon="-0.55266">
        <ele>22</ele>
        <time>2021-07-04T05:27:59Z</time>
      </trkpt>
      <trkpt lat="47.48256" lon="-0.55262">
        <ele>21.8</ele>
        <time>2021-07-04T05:28:00Z</time>
      </trkpt>
      <trkpt lat="47.4827" lon="-0.55255">
        <ele>21.2</ele>
        <time>2021-07-04T05:28:02Z</time>
      </trkpt>
      <trkpt lat="47.48283" lon="-0.55248">
        <ele>21.4</ele>
        <time>2021-07-04T05:28:04Z</time>
      </trkpt>
      <trkpt lat="47.48289" lon="-0.55245">
        <ele>21.6</ele>
        <time>2021-07-04T05:28:05Z</time>
      </trkpt>
      <trkpt lat="47.48296" lon="-0.55241">
        <ele>21.6</ele>
        <time>2021-07-04T05:28:06Z</time>
      </trkpt>
      <trkpt lat="47.48308" lon="-0.55233">
        <ele>21.6</ele>
        <time>2021-07-04T05:28:08Z</time>
      </trkpt>
      <trkpt lat="47.4832" lon="-0.55225">
        <ele>21.4</ele>
        <time>2021-07-04T05:28:10Z</time>
      </trkpt>
      <trkpt lat="47.48333" lon="-0.55217">
        <ele>21.2</ele>
        <time>2021-07-04T05:28:12Z</time>
      </trkpt>
      <trkpt lat="47.48339" lon="-0.55213">
        <ele>21.4</ele>
        <time>2021-07-04T05:28:13Z</time>
      </trkpt>
      <trkpt lat="47.48345" lon="-0.55209">
        <ele>21.4</ele>
        <time>2021-07-04T05:28:14Z</time>
      </trkpt>
      <trkpt lat="47.48358" lon="-0.55202">
        <ele>21</ele>
        <time>2021-07-04T05:28:16Z</time>
      </trkpt>
      <trkpt lat="47.48371" lon="-0.55194">
        <ele>21.4</ele>
        <time>2021-07-04T05:28:18Z</time>
      </trkpt>
      <trkpt lat="47.48383" lon="-0.55186">
        <ele>21.4</ele>
        <time>2021-07-04T05:28:20Z</time>
      </trkpt>
      <trkpt lat="47.48389" lon="-0.55182">
        <ele>21.4</ele>
        <time>2021-07-04T05:28:21Z</time>
      </trkpt>
      <trkpt lat="47.48395" lon="-0.55177">
        <ele>21.6</ele>
        <time>2021-07-04T05:28:22Z</time>
      </trkpt>
      <trkpt lat="47.48407" lon="-0.55168">
        <ele>21.6</ele>
        <time>2021-07-04T05:28:24Z</time>
      </trkpt>
      <trkpt lat="47.48419" lon="-0.55158">
        <ele>21.8</ele>
        <time>2021-07-04T05:28:26Z</time>
      </trkpt>
      <trkpt lat="47.48431" lon="-0.55149">
        <ele>21.2</ele>
        <time>2021-07-04T05:28:28Z</time>
      </trkpt>
      <trkpt lat="47.48443" lon="-0.55141">
        <ele>21.6</ele>
        <time>2021-07-04T05:28:30Z</time>
      </trkpt>
      <trkpt lat="47.48455" lon="-0.55133">
        <ele>21.6</ele>
        <time>2021-07-04T05:28:32Z</time>
      </trkpt>
      <trkpt lat="47.48468" lon="-0.55126">
        <ele>21.4</ele>
        <time>2021-07-04T05:28:34Z</time>
      </trkpt>
      <trkpt lat="47.48481" lon="-0.5512">
        <ele>21.6</ele>
        <time>2021-07-04T05:28:36Z</time>
      </trkpt>
      <trkpt lat="47.48487" lon="-0.55117">
        <ele>21.8</ele>
        <time>2021-07-04T05:28:37Z</time>
      </trkpt>
      <trkpt lat="47.48494" lon="-0.55115">
        <ele>21.6</ele>
        <time>2021-07-04T05:28:38Z</time>
      </trkpt>
      <trkpt lat="47.48507" lon="-0.55108">
        <ele>21.2</ele>
        <time>2021-07-04T05:28:40Z</time>
      </trkpt>
      <trkpt lat="47.48514" lon="-0.55105">
        <ele>21</ele>
        <time>2021-07-04T05:28:41Z</time>
      </trkpt>
      <trkpt lat="47.4852" lon="-0.55101">
        <ele>21.2</ele>
        <time>2021-07-04T05:28:42Z</time>
      </trkpt>
      <trkpt lat="47.48526" lon="-0.55098">
        <ele>21.8</ele>
        <time>2021-07-04T05:28:43Z</time>
      </trkpt>
      <trkpt lat="47.48531" lon="-0.55095">
        <ele>22.4</ele>
        <time>2021-07-04T05:28:44Z</time>
      </trkpt>
      <trkpt lat="47.48541" lon="-0.55088">
        <ele>23</ele>
        <time>2021-07-04T05:28:46Z</time>
      </trkpt>
      <trkpt lat="47.48546" lon="-0.55084">
        <ele>23.6</ele>
        <time>2021-07-04T05:28:47Z</time>
      </trkpt>
      <trkpt lat="47.48551" lon="-0.55079">
        <ele>23.8</ele>
        <time>2021-07-04T05:28:48Z</time>
      </trkpt>
      <trkpt lat="47.48555" lon="-0.55075">
        <ele>24</ele>
        <time>2021-07-04T05:28:49Z</time>
      </trkpt>
      <trkpt lat="47.4856" lon="-0.5507">
        <ele>23.6</ele>
        <time>2021-07-04T05:28:50Z</time>
      </trkpt>
      <trkpt lat="47.48571" lon="-0.5506">
        <ele>22.8</ele>
        <time>2021-07-04T05:28:52Z</time>
      </trkpt>
      <trkpt lat="47.48577" lon="-0.55054">
        <ele>22.6</ele>
        <time>2021-07-04T05:28:53Z</time>
      </trkpt>
      <trkpt lat="47.48583" lon="-0.55049">
        <ele>22.2</ele>
        <time>2021-07-04T05:28:54Z</time>
      </trkpt>
      <trkpt lat="47.48594" lon="-0.55039">
        <ele>21.8</ele>
        <time>2021-07-04T05:28:56Z</time>
      </trkpt>
      <trkpt lat="47.48605" lon="-0.55028">
        <ele>21.6</ele>
        <time>2021-07-04T05:28:58Z</time>
      </trkpt>
      <trkpt lat="47.48617" lon="-0.55017">
        <ele>21.4</ele>
        <time>2021-07-04T05:29:00Z</time>
      </trkpt>
      <trkpt lat="47.48629" lon="-0.55006">
        <ele>21.4</ele>
        <time>2021-07-04T05:29:02Z</time>
      </trkpt>
      <trkpt lat="47.48635" lon="-0.55">
        <ele>21</ele>
        <time>2021-07-04T05:29:03Z</time>
      </trkpt>
      <trkpt lat="47.48641" lon="-0.54994">
        <ele>20.8</ele>
        <time>2021-07-04T05:29:04Z</time>
      </trkpt>
      <trkpt lat="47.48653" lon="-0.54982">
        <ele>21</ele>
        <time>2021-07-04T05:29:06Z</time>
      </trkpt>
      <trkpt lat="47.48666" lon="-0.54972">
        <ele>21.4</ele>
        <time>2021-07-04T05:29:08Z</time>
      </trkpt>
      <trkpt lat="47.48678" lon="-0.54961">
        <ele>21.6</ele>
        <time>2021-07-04T05:29:10Z</time>
      </trkpt>
      <trkpt lat="47.4869" lon="-0.5495">
        <ele>21.6</ele>
        <time>2021-07-04T05:29:12Z</time>
      </trkpt>
      <trkpt lat="47.48702" lon="-0.54939">
        <ele>21</ele>
        <time>2021-07-04T05:29:14Z</time>
      </trkpt>
      <trkpt lat="47.48714" lon="-0.54928">
        <ele>21.4</ele>
        <time>2021-07-04T05:29:16Z</time>
      </trkpt>
      <trkpt lat="47.4872" lon="-0.54922">
        <ele>21.4</ele>
        <time>2021-07-04T05:29:17Z</time>
      </trkpt>
      <trkpt lat="47.48726" lon="-0.54917">
        <ele>21.4</ele>
        <time>2021-07-04T05:29:18Z</time>
      </trkpt>
      <trkpt lat="47.48738" lon="-0.54906">
        <ele>21.4</ele>
        <time>2021-07-04T05:29:20Z</time>
      </trkpt>
      <trkpt lat="47.4875" lon="-0.54896">
        <ele>22</ele>
        <time>2021-07-04T05:29:22Z</time>
      </trkpt>
      <trkpt lat="47.48756" lon="-0.54891">
        <ele>22.2</ele>
        <time>2021-07-04T05:29:23Z</time>
      </trkpt>
      <trkpt lat="47.48762" lon="-0.54887">
        <ele>21.8</ele>
        <time>2021-07-04T05:29:24Z</time>
      </trkpt>
      <trkpt lat="47.48769" lon="-0.54883">
        <ele>21.6</ele>
        <time>2021-07-04T05:29:25Z</time>
      </trkpt>
      <trkpt lat="47.48775" lon="-0.54878">
        <ele>21.6</ele>
        <time>2021-07-04T05:29:26Z</time>
      </trkpt>
      <trkpt lat="47.48786" lon="-0.54868">
        <ele>21.8</ele>
        <time>2021-07-04T05:29:28Z</time>
      </trkpt>
      <trkpt lat="47.48797" lon="-0.54859">
        <ele>21.6</ele>
        <time>2021-07-04T05:29:30Z</time>
      </trkpt>
      <trkpt lat="47.48809" lon="-0.5485">
        <ele>21.6</ele>
        <time>2021-07-04T05:29:32Z</time>
      </trkpt>
      <trkpt lat="47.48821" lon="-0.54842">
        <ele>21.6</ele>
        <time>2021-07-04T05:29:34Z</time>
      </trkpt>
      <trkpt lat="47.48832" lon="-0.54838">
        <ele>22.6</ele>
        <time>2021-07-04T05:29:36Z</time>
      </trkpt>
      <trkpt lat="47.48836" lon="-0.54837">
        <ele>23.4</ele>
        <time>2021-07-04T05:29:37Z</time>
      </trkpt>
      <trkpt lat="47.48841" lon="-0.54834">
        <ele>24.6</ele>
        <time>2021-07-04T05:29:38Z</time>
      </trkpt>
      <trkpt lat="47.48851" lon="-0.54829">
        <ele>24.8</ele>
        <time>2021-07-04T05:29:40Z</time>
      </trkpt>
      <trkpt lat="47.48861" lon="-0.54822">
        <ele>24.4</ele>
        <time>2021-07-04T05:29:42Z</time>
      </trkpt>
      <trkpt lat="47.48872" lon="-0.54816">
        <ele>24.6</ele>
        <time>2021-07-04T05:29:44Z</time>
      </trkpt>
      <trkpt lat="47.48883" lon="-0.5481">
        <ele>24.8</ele>
        <time>2021-07-04T05:29:46Z</time>
      </trkpt>
      <trkpt lat="47.48894" lon="-0.54802">
        <ele>24.4</ele>
        <time>2021-07-04T05:29:48Z</time>
      </trkpt>
      <trkpt lat="47.48904" lon="-0.54795">
        <ele>23.8</ele>
        <time>2021-07-04T05:29:50Z</time>
      </trkpt>
      <trkpt lat="47.48916" lon="-0.54788">
        <ele>23.8</ele>
        <time>2021-07-04T05:29:52Z</time>
      </trkpt>
      <trkpt lat="47.48927" lon="-0.54779">
        <ele>24.2</ele>
        <time>2021-07-04T05:29:54Z</time>
      </trkpt>
      <trkpt lat="47.48939" lon="-0.54771">
        <ele>24</ele>
        <time>2021-07-04T05:29:56Z</time>
      </trkpt>
      <trkpt lat="47.4895" lon="-0.54763">
        <ele>23.8</ele>
        <time>2021-07-04T05:29:58Z</time>
      </trkpt>
      <trkpt lat="47.48961" lon="-0.54755">
        <ele>23.8</ele>
        <time>2021-07-04T05:30:00Z</time>
      </trkpt>
      <trkpt lat="47.48966" lon="-0.54751">
        <ele>24</ele>
        <time>2021-07-04T05:30:01Z</time>
      </trkpt>
      <trkpt lat="47.48971" lon="-0.54747">
        <ele>24</ele>
        <time>2021-07-04T05:30:02Z</time>
      </trkpt>
      <trkpt lat="47.48981" lon="-0.54738">
        <ele>23</ele>
        <time>2021-07-04T05:30:04Z</time>
      </trkpt>
      <trkpt lat="47.48992" lon="-0.54731">
        <ele>23.2</ele>
        <time>2021-07-04T05:30:06Z</time>
      </trkpt>
      <trkpt lat="47.48997" lon="-0.54726">
        <ele>23.4</ele>
        <time>2021-07-04T05:30:07Z</time>
      </trkpt>
      <trkpt lat="47.49003" lon="-0.54723">
        <ele>23.8</ele>
        <time>2021-07-04T05:30:08Z</time>
      </trkpt>
      <trkpt lat="47.49014" lon="-0.54714">
        <ele>23.8</ele>
        <time>2021-07-04T05:30:10Z</time>
      </trkpt>
      <trkpt lat="47.49025" lon="-0.54705">
        <ele>23.2</ele>
        <time>2021-07-04T05:30:12Z</time>
      </trkpt>
      <trkpt lat="47.4903" lon="-0.547">
        <ele>23.2</ele>
        <time>2021-07-04T05:30:13Z</time>
      </trkpt>
      <trkpt lat="47.49035" lon="-0.54695">
        <ele>23.4</ele>
        <time>2021-07-04T05:30:14Z</time>
      </trkpt>
      <trkpt lat="47.49044" lon="-0.54683">
        <ele>23.2</ele>
        <time>2021-07-04T05:30:16Z</time>
      </trkpt>
      <trkpt lat="47.49049" lon="-0.54676">
        <ele>23</ele>
        <time>2021-07-04T05:30:17Z</time>
      </trkpt>
      <trkpt lat="47.49053" lon="-0.54669">
        <ele>23.2</ele>
        <time>2021-07-04T05:30:18Z</time>
      </trkpt>
      <trkpt lat="47.49062" lon="-0.54655">
        <ele>23.2</ele>
        <time>2021-07-04T05:30:20Z</time>
      </trkpt>
      <trkpt lat="47.49071" lon="-0.54642">
        <ele>22.6</ele>
        <time>2021-07-04T05:30:22Z</time>
      </trkpt>
      <trkpt lat="47.49076" lon="-0.54636">
        <ele>22.2</ele>
        <time>2021-07-04T05:30:23Z</time>
      </trkpt>
      <trkpt lat="47.4908" lon="-0.54629">
        <ele>22</ele>
        <time>2021-07-04T05:30:24Z</time>
      </trkpt>
      <trkpt lat="47.49091" lon="-0.54616">
        <ele>22.2</ele>
        <time>2021-07-04T05:30:26Z</time>
      </trkpt>
      <trkpt lat="47.49101" lon="-0.54602">
        <ele>21.8</ele>
        <time>2021-07-04T05:30:28Z</time>
      </trkpt>
      <trkpt lat="47.4911" lon="-0.54588">
        <ele>22</ele>
        <time>2021-07-04T05:30:30Z</time>
      </trkpt>
      <trkpt lat="47.4912" lon="-0.54574">
        <ele>21.8</ele>
        <time>2021-07-04T05:30:32Z</time>
      </trkpt>
      <trkpt lat="47.49129" lon="-0.54561">
        <ele>22.2</ele>
        <time>2021-07-04T05:30:34Z</time>
      </trkpt>
      <trkpt lat="47.49138" lon="-0.54548">
        <ele>22.2</ele>
        <time>2021-07-04T05:30:36Z</time>
      </trkpt>
      <trkpt lat="47.49143" lon="-0.54541">
        <ele>22</ele>
        <time>2021-07-04T05:30:37Z</time>
      </trkpt>
      <trkpt lat="47.49147" lon="-0.54535">
        <ele>22</ele>
        <time>2021-07-04T05:30:38Z</time>
      </trkpt>
      <trkpt lat="47.49157" lon="-0.54523">
        <ele>22.4</ele>
        <time>2021-07-04T05:30:40Z</time>
      </trkpt>
      <trkpt lat="47.49167" lon="-0.54509">
        <ele>22.4</ele>
        <time>2021-07-04T05:30:42Z</time>
      </trkpt>
      <trkpt lat="47.49172" lon="-0.54503">
        <ele>22.2</ele>
        <time>2021-07-04T05:30:43Z</time>
      </trkpt>
      <trkpt lat="47.49176" lon="-0.54497">
        <ele>22</ele>
        <time>2021-07-04T05:30:44Z</time>
      </trkpt>
      <trkpt lat="47.49186" lon="-0.54484">
        <ele>22.2</ele>
        <time>2021-07-04T05:30:46Z</time>
      </trkpt>
      <trkpt lat="47.49196" lon="-0.54473">
        <ele>22.4</ele>
        <time>2021-07-04T05:30:48Z</time>
      </trkpt>
      <trkpt lat="47.49204" lon="-0.54462">
        <ele>22.6</ele>
        <time>2021-07-04T05:30:50Z</time>
      </trkpt>
      <trkpt lat="47.49214" lon="-0.54449">
        <ele>22.6</ele>
        <time>2021-07-04T05:30:52Z</time>
      </trkpt>
      <trkpt lat="47.49225" lon="-0.54437">
        <ele>22.6</ele>
        <time>2021-07-04T05:30:54Z</time>
      </trkpt>
      <trkpt lat="47.49235" lon="-0.54425">
        <ele>23</ele>
        <time>2021-07-04T05:30:56Z</time>
      </trkpt>
      <trkpt lat="47.4924" lon="-0.54419">
        <ele>23</ele>
        <time>2021-07-04T05:30:57Z</time>
      </trkpt>
      <trkpt lat="47.49245" lon="-0.54414">
        <ele>23.2</ele>
        <time>2021-07-04T05:30:58Z</time>
      </trkpt>
      <trkpt lat="47.49254" lon="-0.54406">
        <ele>23.4</ele>
        <time>2021-07-04T05:31:00Z</time>
      </trkpt>
      <trkpt lat="47.49259" lon="-0.54402">
        <ele>23.4</ele>
        <time>2021-07-04T05:31:02Z</time>
      </trkpt>
      <trkpt lat="47.49259" lon="-0.54402">
        <ele>24</ele>
        <time>2021-07-04T05:31:04Z</time>
      </trkpt>
      <trkpt lat="47.49278" lon="-0.54392">
        <ele>30.6</ele>
        <time>2021-07-04T05:31:43Z</time>
      </trkpt>
      <trkpt lat="47.49284" lon="-0.54397">
        <ele>30.4</ele>
        <time>2021-07-04T05:31:45Z</time>
      </trkpt>
      <trkpt lat="47.49291" lon="-0.54406">
        <ele>30</ele>
        <time>2021-07-04T05:31:47Z</time>
      </trkpt>
      <trkpt lat="47.49298" lon="-0.54415">
        <ele>29.8</ele>
        <time>2021-07-04T05:31:49Z</time>
      </trkpt>
      <trkpt lat="47.49301" lon="-0.54421">
        <ele>29.8</ele>
        <time>2021-07-04T05:31:50Z</time>
      </trkpt>
      <trkpt lat="47.49305" lon="-0.54425">
        <ele>29.6</ele>
        <time>2021-07-04T05:31:51Z</time>
      </trkpt>
      <trkpt lat="47.49309" lon="-0.5443">
        <ele>29.6</ele>
        <time>2021-07-04T05:31:52Z</time>
      </trkpt>
      <trkpt lat="47.49312" lon="-0.54435">
        <ele>29.6</ele>
        <time>2021-07-04T05:31:53Z</time>
      </trkpt>
      <trkpt lat="47.49319" lon="-0.54446">
        <ele>29.4</ele>
        <time>2021-07-04T05:31:55Z</time>
      </trkpt>
      <trkpt lat="47.49323" lon="-0.54452">
        <ele>29.2</ele>
        <time>2021-07-04T05:31:56Z</time>
      </trkpt>
      <trkpt lat="47.49326" lon="-0.54458">
        <ele>29.4</ele>
        <time>2021-07-04T05:31:57Z</time>
      </trkpt>
      <trkpt lat="47.49334" lon="-0.54467">
        <ele>29.2</ele>
        <time>2021-07-04T05:31:59Z</time>
      </trkpt>
      <trkpt lat="47.49342" lon="-0.54479">
        <ele>29.2</ele>
        <time>2021-07-04T05:32:01Z</time>
      </trkpt>
      <trkpt lat="47.49347" lon="-0.54485">
        <ele>29.2</ele>
        <time>2021-07-04T05:32:02Z</time>
      </trkpt>
      <trkpt lat="47.49351" lon="-0.54491">
        <ele>29</ele>
        <time>2021-07-04T05:32:03Z</time>
      </trkpt>
      <trkpt lat="47.49361" lon="-0.54504">
        <ele>29</ele>
        <time>2021-07-04T05:32:05Z</time>
      </trkpt>
      <trkpt lat="47.4937" lon="-0.54517">
        <ele>28.8</ele>
        <time>2021-07-04T05:32:07Z</time>
      </trkpt>
      <trkpt lat="47.49374" lon="-0.54523">
        <ele>28.8</ele>
        <time>2021-07-04T05:32:08Z</time>
      </trkpt>
      <trkpt lat="47.49378" lon="-0.54528">
        <ele>28.8</ele>
        <time>2021-07-04T05:32:09Z</time>
      </trkpt>
      <trkpt lat="47.49386" lon="-0.5454">
        <ele>29</ele>
        <time>2021-07-04T05:32:11Z</time>
      </trkpt>
      <trkpt lat="47.49395" lon="-0.54552">
        <ele>29</ele>
        <time>2021-07-04T05:32:13Z</time>
      </trkpt>
      <trkpt lat="47.49403" lon="-0.54563">
        <ele>29</ele>
        <time>2021-07-04T05:32:15Z</time>
      </trkpt>
      <trkpt lat="47.49411" lon="-0.54576">
        <ele>29.2</ele>
        <time>2021-07-04T05:32:17Z</time>
      </trkpt>
      <trkpt lat="47.49419" lon="-0.54588">
        <ele>29.2</ele>
        <time>2021-07-04T05:32:19Z</time>
      </trkpt>
      <trkpt lat="47.49428" lon="-0.546">
        <ele>29</ele>
        <time>2021-07-04T05:32:21Z</time>
      </trkpt>
      <trkpt lat="47.49437" lon="-0.54614">
        <ele>29</ele>
        <time>2021-07-04T05:32:23Z</time>
      </trkpt>
      <trkpt lat="47.49446" lon="-0.54628">
        <ele>29</ele>
        <time>2021-07-04T05:32:25Z</time>
      </trkpt>
      <trkpt lat="47.49455" lon="-0.54641">
        <ele>29</ele>
        <time>2021-07-04T05:32:27Z</time>
      </trkpt>
      <trkpt lat="47.49464" lon="-0.54654">
        <ele>29.2</ele>
        <time>2021-07-04T05:32:29Z</time>
      </trkpt>
      <trkpt lat="47.49474" lon="-0.54667">
        <ele>29.4</ele>
        <time>2021-07-04T05:32:31Z</time>
      </trkpt>
      <trkpt lat="47.49483" lon="-0.54681">
        <ele>29.4</ele>
        <time>2021-07-04T05:32:33Z</time>
      </trkpt>
      <trkpt lat="47.49493" lon="-0.54693">
        <ele>29.6</ele>
        <time>2021-07-04T05:32:35Z</time>
      </trkpt>
      <trkpt lat="47.49502" lon="-0.54706">
        <ele>29.8</ele>
        <time>2021-07-04T05:32:37Z</time>
      </trkpt>
      <trkpt lat="47.49511" lon="-0.54718">
        <ele>29.8</ele>
        <time>2021-07-04T05:32:39Z</time>
      </trkpt>
      <trkpt lat="47.4952" lon="-0.54731">
        <ele>30</ele>
        <time>2021-07-04T05:32:41Z</time>
      </trkpt>
      <trkpt lat="47.49529" lon="-0.54743">
        <ele>30.4</ele>
        <time>2021-07-04T05:32:43Z</time>
      </trkpt>
      <trkpt lat="47.49533" lon="-0.54749">
        <ele>30.4</ele>
        <time>2021-07-04T05:32:44Z</time>
      </trkpt>
      <trkpt lat="47.49538" lon="-0.54755">
        <ele>30.2</ele>
        <time>2021-07-04T05:32:45Z</time>
      </trkpt>
      <trkpt lat="47.49547" lon="-0.54767">
        <ele>30.4</ele>
        <time>2021-07-04T05:32:47Z</time>
      </trkpt>
      <trkpt lat="47.49552" lon="-0.54773">
        <ele>30.6</ele>
        <time>2021-07-04T05:32:48Z</time>
      </trkpt>
      <trkpt lat="47.49556" lon="-0.54779">
        <ele>30.8</ele>
        <time>2021-07-04T05:32:49Z</time>
      </trkpt>
      <trkpt lat="47.49565" lon="-0.54791">
        <ele>31.6</ele>
        <time>2021-07-04T05:32:51Z</time>
      </trkpt>
      <trkpt lat="47.49569" lon="-0.54797">
        <ele>31.8</ele>
        <time>2021-07-04T05:32:52Z</time>
      </trkpt>
      <trkpt lat="47.49574" lon="-0.54803">
        <ele>32</ele>
        <time>2021-07-04T05:32:53Z</time>
      </trkpt>
      <trkpt lat="47.49583" lon="-0.54815">
        <ele>32</ele>
        <time>2021-07-04T05:32:55Z</time>
      </trkpt>
      <trkpt lat="47.49592" lon="-0.54828">
        <ele>31.6</ele>
        <time>2021-07-04T05:32:57Z</time>
      </trkpt>
      <trkpt lat="47.49601" lon="-0.54842">
        <ele>31.6</ele>
        <time>2021-07-04T05:32:59Z</time>
      </trkpt>
      <trkpt lat="47.49609" lon="-0.54854">
        <ele>31.8</ele>
        <time>2021-07-04T05:33:01Z</time>
      </trkpt>
      <trkpt lat="47.49617" lon="-0.54867">
        <ele>32</ele>
        <time>2021-07-04T05:33:03Z</time>
      </trkpt>
      <trkpt lat="47.49625" lon="-0.54881">
        <ele>32.2</ele>
        <time>2021-07-04T05:33:05Z</time>
      </trkpt>
      <trkpt lat="47.49633" lon="-0.54894">
        <ele>32.2</ele>
        <time>2021-07-04T05:33:07Z</time>
      </trkpt>
      <trkpt lat="47.49641" lon="-0.54907">
        <ele>32.4</ele>
        <time>2021-07-04T05:33:09Z</time>
      </trkpt>
      <trkpt lat="47.49649" lon="-0.5492">
        <ele>32.6</ele>
        <time>2021-07-04T05:33:11Z</time>
      </trkpt>
      <trkpt lat="47.49652" lon="-0.54927">
        <ele>33</ele>
        <time>2021-07-04T05:33:12Z</time>
      </trkpt>
      <trkpt lat="47.49657" lon="-0.54933">
        <ele>33</ele>
        <time>2021-07-04T05:33:13Z</time>
      </trkpt>
      <trkpt lat="47.49664" lon="-0.54946">
        <ele>33.2</ele>
        <time>2021-07-04T05:33:15Z</time>
      </trkpt>
      <trkpt lat="47.49668" lon="-0.54952">
        <ele>33.4</ele>
        <time>2021-07-04T05:33:16Z</time>
      </trkpt>
      <trkpt lat="47.49672" lon="-0.54959">
        <ele>33.6</ele>
        <time>2021-07-04T05:33:17Z</time>
      </trkpt>
      <trkpt lat="47.49679" lon="-0.54972">
        <ele>33.8</ele>
        <time>2021-07-04T05:33:19Z</time>
      </trkpt>
      <trkpt lat="47.49687" lon="-0.54986">
        <ele>33.8</ele>
        <time>2021-07-04T05:33:21Z</time>
      </trkpt>
      <trkpt lat="47.49693" lon="-0.54998">
        <ele>33.8</ele>
        <time>2021-07-04T05:33:23Z</time>
      </trkpt>
      <trkpt lat="47.49697" lon="-0.55004">
        <ele>34</ele>
        <time>2021-07-04T05:33:24Z</time>
      </trkpt>
      <trkpt lat="47.497" lon="-0.55011">
        <ele>34</ele>
        <time>2021-07-04T05:33:25Z</time>
      </trkpt>
      <trkpt lat="47.49707" lon="-0.55025">
        <ele>34.2</ele>
        <time>2021-07-04T05:33:27Z</time>
      </trkpt>
      <trkpt lat="47.4971" lon="-0.55031">
        <ele>34.2</ele>
        <time>2021-07-04T05:33:28Z</time>
      </trkpt>
      <trkpt lat="47.49713" lon="-0.55036">
        <ele>34.2</ele>
        <time>2021-07-04T05:33:29Z</time>
      </trkpt>
      <trkpt lat="47.49719" lon="-0.5505">
        <ele>34.4</ele>
        <time>2021-07-04T05:33:31Z</time>
      </trkpt>
      <trkpt lat="47.49724" lon="-0.55064">
        <ele>34.4</ele>
        <time>2021-07-04T05:33:33Z</time>
      </trkpt>
      <trkpt lat="47.49727" lon="-0.55072">
        <ele>34.6</ele>
        <time>2021-07-04T05:33:34Z</time>
      </trkpt>
      <trkpt lat="47.49729" lon="-0.55079">
        <ele>34.6</ele>
        <time>2021-07-04T05:33:35Z</time>
      </trkpt>
      <trkpt lat="47.49733" lon="-0.55094">
        <ele>34.8</ele>
        <time>2021-07-04T05:33:37Z</time>
      </trkpt>
      <trkpt lat="47.49737" lon="-0.55108">
        <ele>35</ele>
        <time>2021-07-04T05:33:39Z</time>
      </trkpt>
      <trkpt lat="47.49738" lon="-0.55114">
        <ele>35</ele>
        <time>2021-07-04T05:33:40Z</time>
      </trkpt>
      <trkpt lat="47.4974" lon="-0.55122">
        <ele>35</ele>
        <time>2021-07-04T05:33:41Z</time>
      </trkpt>
      <trkpt lat="47.49745" lon="-0.55137">
        <ele>35.2</ele>
        <time>2021-07-04T05:33:43Z</time>
      </trkpt>
      <trkpt lat="47.49749" lon="-0.55153">
        <ele>35.2</ele>
        <time>2021-07-04T05:33:45Z</time>
      </trkpt>
      <trkpt lat="47.49753" lon="-0.55168">
        <ele>35.4</ele>
        <time>2021-07-04T05:33:47Z</time>
      </trkpt>
      <trkpt lat="47.49757" lon="-0.55181">
        <ele>35.8</ele>
        <time>2021-07-04T05:33:49Z</time>
      </trkpt>
      <trkpt lat="47.49759" lon="-0.55188">
        <ele>35.8</ele>
        <time>2021-07-04T05:33:50Z</time>
      </trkpt>
      <trkpt lat="47.49761" lon="-0.55195">
        <ele>36</ele>
        <time>2021-07-04T05:33:51Z</time>
      </trkpt>
      <trkpt lat="47.49765" lon="-0.55208">
        <ele>36.2</ele>
        <time>2021-07-04T05:33:53Z</time>
      </trkpt>
      <trkpt lat="47.49769" lon="-0.55221">
        <ele>36.2</ele>
        <time>2021-07-04T05:33:55Z</time>
      </trkpt>
      <trkpt lat="47.49772" lon="-0.55234">
        <ele>36.4</ele>
        <time>2021-07-04T05:33:57Z</time>
      </trkpt>
      <trkpt lat="47.49776" lon="-0.55246">
        <ele>36.6</ele>
        <time>2021-07-04T05:33:59Z</time>
      </trkpt>
      <trkpt lat="47.49777" lon="-0.55253">
        <ele>36.6</ele>
        <time>2021-07-04T05:34:00Z</time>
      </trkpt>
      <trkpt lat="47.4978" lon="-0.55262">
        <ele>36.6</ele>
        <time>2021-07-04T05:34:01Z</time>
      </trkpt>
      <trkpt lat="47.49784" lon="-0.55279">
        <ele>36.8</ele>
        <time>2021-07-04T05:34:03Z</time>
      </trkpt>
      <trkpt lat="47.49789" lon="-0.55296">
        <ele>37</ele>
        <time>2021-07-04T05:34:05Z</time>
      </trkpt>
      <trkpt lat="47.4979" lon="-0.55304">
        <ele>37.2</ele>
        <time>2021-07-04T05:34:06Z</time>
      </trkpt>
      <trkpt lat="47.49793" lon="-0.55312">
        <ele>37.2</ele>
        <time>2021-07-04T05:34:07Z</time>
      </trkpt>
      <trkpt lat="47.49794" lon="-0.5532">
        <ele>37.4</ele>
        <time>2021-07-04T05:34:08Z</time>
      </trkpt>
      <trkpt lat="47.49797" lon="-0.5533">
        <ele>37.2</ele>
        <time>2021-07-04T05:34:09Z</time>
      </trkpt>
      <trkpt lat="47.49801" lon="-0.55344">
        <ele>37.4</ele>
        <time>2021-07-04T05:34:11Z</time>
      </trkpt>
      <trkpt lat="47.49805" lon="-0.5536">
        <ele>37.6</ele>
        <time>2021-07-04T05:34:13Z</time>
      </trkpt>
      <trkpt lat="47.49809" lon="-0.55376">
        <ele>37.6</ele>
        <time>2021-07-04T05:34:15Z</time>
      </trkpt>
      <trkpt lat="47.49812" lon="-0.55391">
        <ele>37.8</ele>
        <time>2021-07-04T05:34:17Z</time>
      </trkpt>
      <trkpt lat="47.49817" lon="-0.55406">
        <ele>38.2</ele>
        <time>2021-07-04T05:34:19Z</time>
      </trkpt>
      <trkpt lat="47.49818" lon="-0.55421">
        <ele>38.6</ele>
        <time>2021-07-04T05:34:21Z</time>
      </trkpt>
      <trkpt lat="47.49817" lon="-0.55426">
        <ele>38.8</ele>
        <time>2021-07-04T05:34:22Z</time>
      </trkpt>
      <trkpt lat="47.49817" lon="-0.55433">
        <ele>39</ele>
        <time>2021-07-04T05:34:23Z</time>
      </trkpt>
      <trkpt lat="47.49822" lon="-0.55441">
        <ele>39.2</ele>
        <time>2021-07-04T05:34:25Z</time>
      </trkpt>
      <trkpt lat="47.49827" lon="-0.55455">
        <ele>39.2</ele>
        <time>2021-07-04T05:34:27Z</time>
      </trkpt>
      <trkpt lat="47.49831" lon="-0.55471">
        <ele>38.8</ele>
        <time>2021-07-04T05:34:29Z</time>
      </trkpt>
      <trkpt lat="47.49835" lon="-0.55487">
        <ele>38.8</ele>
        <time>2021-07-04T05:34:31Z</time>
      </trkpt>
      <trkpt lat="47.49837" lon="-0.555">
        <ele>38.8</ele>
        <time>2021-07-04T05:34:33Z</time>
      </trkpt>
      <trkpt lat="47.4984" lon="-0.55507">
        <ele>38.6</ele>
        <time>2021-07-04T05:34:34Z</time>
      </trkpt>
      <trkpt lat="47.49842" lon="-0.55515">
        <ele>38.8</ele>
        <time>2021-07-04T05:34:35Z</time>
      </trkpt>
      <trkpt lat="47.49845" lon="-0.55522">
        <ele>39</ele>
        <time>2021-07-04T05:34:36Z</time>
      </trkpt>
      <trkpt lat="47.49847" lon="-0.55529">
        <ele>39</ele>
        <time>2021-07-04T05:34:37Z</time>
      </trkpt>
      <trkpt lat="47.4985" lon="-0.55542">
        <ele>39.2</ele>
        <time>2021-07-04T05:34:39Z</time>
      </trkpt>
      <trkpt lat="47.49855" lon="-0.55557">
        <ele>39.2</ele>
        <time>2021-07-04T05:34:41Z</time>
      </trkpt>
      <trkpt lat="47.49859" lon="-0.55572">
        <ele>39.6</ele>
        <time>2021-07-04T05:34:43Z</time>
      </trkpt>
      <trkpt lat="47.49862" lon="-0.5558">
        <ele>39.6</ele>
        <time>2021-07-04T05:34:44Z</time>
      </trkpt>
      <trkpt lat="47.49864" lon="-0.55588">
        <ele>39.6</ele>
        <time>2021-07-04T05:34:45Z</time>
      </trkpt>
      <trkpt lat="47.49869" lon="-0.55603">
        <ele>39.8</ele>
        <time>2021-07-04T05:34:47Z</time>
      </trkpt>
      <trkpt lat="47.4987" lon="-0.5561">
        <ele>39.8</ele>
        <time>2021-07-04T05:34:48Z</time>
      </trkpt>
      <trkpt lat="47.49872" lon="-0.55617">
        <ele>40</ele>
        <time>2021-07-04T05:34:49Z</time>
      </trkpt>
      <trkpt lat="47.49874" lon="-0.55626">
        <ele>40.2</ele>
        <time>2021-07-04T05:34:50Z</time>
      </trkpt>
      <trkpt lat="47.49876" lon="-0.55635">
        <ele>40.2</ele>
        <time>2021-07-04T05:34:51Z</time>
      </trkpt>
      <trkpt lat="47.49878" lon="-0.55642">
        <ele>40.2</ele>
        <time>2021-07-04T05:34:52Z</time>
      </trkpt>
      <trkpt lat="47.49879" lon="-0.5565">
        <ele>40.4</ele>
        <time>2021-07-04T05:34:53Z</time>
      </trkpt>
      <trkpt lat="47.49883" lon="-0.55668">
        <ele>40.6</ele>
        <time>2021-07-04T05:34:55Z</time>
      </trkpt>
      <trkpt lat="47.49887" lon="-0.55685">
        <ele>40.6</ele>
        <time>2021-07-04T05:34:57Z</time>
      </trkpt>
      <trkpt lat="47.49889" lon="-0.557">
        <ele>40.6</ele>
        <time>2021-07-04T05:34:59Z</time>
      </trkpt>
      <trkpt lat="47.49892" lon="-0.55718">
        <ele>40.8</ele>
        <time>2021-07-04T05:35:01Z</time>
      </trkpt>
      <trkpt lat="47.49895" lon="-0.55735">
        <ele>40.8</ele>
        <time>2021-07-04T05:35:03Z</time>
      </trkpt>
      <trkpt lat="47.49896" lon="-0.55744">
        <ele>40.8</ele>
        <time>2021-07-04T05:35:04Z</time>
      </trkpt>
      <trkpt lat="47.49897" lon="-0.55754">
        <ele>41</ele>
        <time>2021-07-04T05:35:05Z</time>
      </trkpt>
      <trkpt lat="47.499" lon="-0.55773">
        <ele>41.2</ele>
        <time>2021-07-04T05:35:07Z</time>
      </trkpt>
      <trkpt lat="47.49901" lon="-0.55782">
        <ele>41.2</ele>
        <time>2021-07-04T05:35:08Z</time>
      </trkpt>
      <trkpt lat="47.49901" lon="-0.55791">
        <ele>41.2</ele>
        <time>2021-07-04T05:35:09Z</time>
      </trkpt>
      <trkpt lat="47.49902" lon="-0.55808">
        <ele>41.6</ele>
        <time>2021-07-04T05:35:11Z</time>
      </trkpt>
      <trkpt lat="47.49902" lon="-0.55826">
        <ele>41.8</ele>
        <time>2021-07-04T05:35:13Z</time>
      </trkpt>
      <trkpt lat="47.49903" lon="-0.55843">
        <ele>42</ele>
        <time>2021-07-04T05:35:15Z</time>
      </trkpt>
      <trkpt lat="47.49904" lon="-0.5586">
        <ele>42.2</ele>
        <time>2021-07-04T05:35:17Z</time>
      </trkpt>
      <trkpt lat="47.49905" lon="-0.55878">
        <ele>42.4</ele>
        <time>2021-07-04T05:35:19Z</time>
      </trkpt>
      <trkpt lat="47.49905" lon="-0.55887">
        <ele>42.6</ele>
        <time>2021-07-04T05:35:20Z</time>
      </trkpt>
      <trkpt lat="47.49905" lon="-0.55897">
        <ele>42.6</ele>
        <time>2021-07-04T05:35:21Z</time>
      </trkpt>
      <trkpt lat="47.49905" lon="-0.55907">
        <ele>42.6</ele>
        <time>2021-07-04T05:35:22Z</time>
      </trkpt>
      <trkpt lat="47.49905" lon="-0.55917">
        <ele>42.6</ele>
        <time>2021-07-04T05:35:23Z</time>
      </trkpt>
      <trkpt lat="47.49904" lon="-0.55935">
        <ele>42.6</ele>
        <time>2021-07-04T05:35:25Z</time>
      </trkpt>
      <trkpt lat="47.49904" lon="-0.55944">
        <ele>42.6</ele>
        <time>2021-07-04T05:35:26Z</time>
      </trkpt>
      <trkpt lat="47.49904" lon="-0.55954">
        <ele>42.8</ele>
        <time>2021-07-04T05:35:27Z</time>
      </trkpt>
      <trkpt lat="47.49904" lon="-0.55973">
        <ele>43.2</ele>
        <time>2021-07-04T05:35:29Z</time>
      </trkpt>
      <trkpt lat="47.49902" lon="-0.5599">
        <ele>43.4</ele>
        <time>2021-07-04T05:35:31Z</time>
      </trkpt>
      <trkpt lat="47.49902" lon="-0.55997">
        <ele>43.4</ele>
        <time>2021-07-04T05:35:32Z</time>
      </trkpt>
      <trkpt lat="47.499" lon="-0.56005">
        <ele>43.4</ele>
        <time>2021-07-04T05:35:33Z</time>
      </trkpt>
      <trkpt lat="47.499" lon="-0.56024">
        <ele>43.6</ele>
        <time>2021-07-04T05:35:35Z</time>
      </trkpt>
      <trkpt lat="47.499" lon="-0.56033">
        <ele>43.6</ele>
        <time>2021-07-04T05:35:36Z</time>
      </trkpt>
      <trkpt lat="47.49899" lon="-0.56042">
        <ele>43.6</ele>
        <time>2021-07-04T05:35:37Z</time>
      </trkpt>
      <trkpt lat="47.49898" lon="-0.56059">
        <ele>43.6</ele>
        <time>2021-07-04T05:35:39Z</time>
      </trkpt>
      <trkpt lat="47.49897" lon="-0.56076">
        <ele>44</ele>
        <time>2021-07-04T05:35:41Z</time>
      </trkpt>
      <trkpt lat="47.49896" lon="-0.56093">
        <ele>44</ele>
        <time>2021-07-04T05:35:43Z</time>
      </trkpt>
      <trkpt lat="47.49896" lon="-0.56102">
        <ele>44</ele>
        <time>2021-07-04T05:35:44Z</time>
      </trkpt>
      <trkpt lat="47.49895" lon="-0.5611">
        <ele>44.2</ele>
        <time>2021-07-04T05:35:45Z</time>
      </trkpt>
      <trkpt lat="47.49895" lon="-0.56128">
        <ele>44.4</ele>
        <time>2021-07-04T05:35:47Z</time>
      </trkpt>
      <trkpt lat="47.49893" lon="-0.56136">
        <ele>44.4</ele>
        <time>2021-07-04T05:35:48Z</time>
      </trkpt>
      <trkpt lat="47.49892" lon="-0.56144">
        <ele>44.4</ele>
        <time>2021-07-04T05:35:49Z</time>
      </trkpt>
      <trkpt lat="47.49891" lon="-0.56162">
        <ele>44.6</ele>
        <time>2021-07-04T05:35:51Z</time>
      </trkpt>
      <trkpt lat="47.49891" lon="-0.5618">
        <ele>44.6</ele>
        <time>2021-07-04T05:35:53Z</time>
      </trkpt>
      <trkpt lat="47.4989" lon="-0.56199">
        <ele>45</ele>
        <time>2021-07-04T05:35:55Z</time>
      </trkpt>
      <trkpt lat="47.49889" lon="-0.56217">
        <ele>45.2</ele>
        <time>2021-07-04T05:35:57Z</time>
      </trkpt>
      <trkpt lat="47.49888" lon="-0.56236">
        <ele>45.4</ele>
        <time>2021-07-04T05:35:59Z</time>
      </trkpt>
      <trkpt lat="47.49887" lon="-0.56256">
        <ele>45.4</ele>
        <time>2021-07-04T05:36:01Z</time>
      </trkpt>
      <trkpt lat="47.49888" lon="-0.56266">
        <ele>45.6</ele>
        <time>2021-07-04T05:36:02Z</time>
      </trkpt>
      <trkpt lat="47.49887" lon="-0.56276">
        <ele>46.2</ele>
        <time>2021-07-04T05:36:03Z</time>
      </trkpt>
      <trkpt lat="47.49887" lon="-0.56294">
        <ele>46.2</ele>
        <time>2021-07-04T05:36:05Z</time>
      </trkpt>
      <trkpt lat="47.49886" lon="-0.56313">
        <ele>46.4</ele>
        <time>2021-07-04T05:36:07Z</time>
      </trkpt>
      <trkpt lat="47.49885" lon="-0.56331">
        <ele>46.6</ele>
        <time>2021-07-04T05:36:09Z</time>
      </trkpt>
      <trkpt lat="47.49884" lon="-0.56349">
        <ele>46.6</ele>
        <time>2021-07-04T05:36:11Z</time>
      </trkpt>
      <trkpt lat="47.49884" lon="-0.56358">
        <ele>46.6</ele>
        <time>2021-07-04T05:36:12Z</time>
      </trkpt>
      <trkpt lat="47.49883" lon="-0.56367">
        <ele>46.8</ele>
        <time>2021-07-04T05:36:13Z</time>
      </trkpt>
      <trkpt lat="47.49882" lon="-0.56386">
        <ele>46.8</ele>
        <time>2021-07-04T05:36:15Z</time>
      </trkpt>
      <trkpt lat="47.49881" lon="-0.56395">
        <ele>46.8</ele>
        <time>2021-07-04T05:36:16Z</time>
      </trkpt>
      <trkpt lat="47.49881" lon="-0.56405">
        <ele>47</ele>
        <time>2021-07-04T05:36:17Z</time>
      </trkpt>
      <trkpt lat="47.4988" lon="-0.56425">
        <ele>47.4</ele>
        <time>2021-07-04T05:36:19Z</time>
      </trkpt>
      <trkpt lat="47.49879" lon="-0.56444">
        <ele>47.6</ele>
        <time>2021-07-04T05:36:21Z</time>
      </trkpt>
      <trkpt lat="47.49879" lon="-0.56453">
        <ele>47.8</ele>
        <time>2021-07-04T05:36:22Z</time>
      </trkpt>
      <trkpt lat="47.49878" lon="-0.56462">
        <ele>47.6</ele>
        <time>2021-07-04T05:36:23Z</time>
      </trkpt>
      <trkpt lat="47.49877" lon="-0.5648">
        <ele>47.8</ele>
        <time>2021-07-04T05:36:25Z</time>
      </trkpt>
      <trkpt lat="47.49875" lon="-0.56496">
        <ele>48</ele>
        <time>2021-07-04T05:36:27Z</time>
      </trkpt>
      <trkpt lat="47.49874" lon="-0.56513">
        <ele>48.2</ele>
        <time>2021-07-04T05:36:29Z</time>
      </trkpt>
      <trkpt lat="47.49874" lon="-0.56532">
        <ele>48.4</ele>
        <time>2021-07-04T05:36:31Z</time>
      </trkpt>
      <trkpt lat="47.49874" lon="-0.56542">
        <ele>48.4</ele>
        <time>2021-07-04T05:36:32Z</time>
      </trkpt>
      <trkpt lat="47.49875" lon="-0.56552">
        <ele>48.6</ele>
        <time>2021-07-04T05:36:33Z</time>
      </trkpt>
      <trkpt lat="47.49876" lon="-0.5656">
        <ele>48.8</ele>
        <time>2021-07-04T05:36:34Z</time>
      </trkpt>
      <trkpt lat="47.49876" lon="-0.56569">
        <ele>48.8</ele>
        <time>2021-07-04T05:36:35Z</time>
      </trkpt>
      <trkpt lat="47.49877" lon="-0.56588">
        <ele>48.8</ele>
        <time>2021-07-04T05:36:37Z</time>
      </trkpt>
      <trkpt lat="47.49877" lon="-0.56606">
        <ele>49</ele>
        <time>2021-07-04T05:36:39Z</time>
      </trkpt>
      <trkpt lat="47.49878" lon="-0.56625">
        <ele>49.2</ele>
        <time>2021-07-04T05:36:41Z</time>
      </trkpt>
      <trkpt lat="47.49879" lon="-0.56643">
        <ele>49.4</ele>
        <time>2021-07-04T05:36:43Z</time>
      </trkpt>
      <trkpt lat="47.4988" lon="-0.56659">
        <ele>49.8</ele>
        <time>2021-07-04T05:36:45Z</time>
      </trkpt>
      <trkpt lat="47.49881" lon="-0.56676">
        <ele>49.6</ele>
        <time>2021-07-04T05:36:47Z</time>
      </trkpt>
      <trkpt lat="47.49882" lon="-0.56694">
        <ele>49.8</ele>
        <time>2021-07-04T05:36:49Z</time>
      </trkpt>
      <trkpt lat="47.49885" lon="-0.5671">
        <ele>50</ele>
        <time>2021-07-04T05:36:51Z</time>
      </trkpt>
      <trkpt lat="47.49888" lon="-0.56725">
        <ele>50.2</ele>
        <time>2021-07-04T05:36:53Z</time>
      </trkpt>
      <trkpt lat="47.4989" lon="-0.56739">
        <ele>50.4</ele>
        <time>2021-07-04T05:36:55Z</time>
      </trkpt>
      <trkpt lat="47.49892" lon="-0.56754">
        <ele>50.6</ele>
        <time>2021-07-04T05:36:57Z</time>
      </trkpt>
      <trkpt lat="47.49893" lon="-0.56769">
        <ele>50.8</ele>
        <time>2021-07-04T05:36:59Z</time>
      </trkpt>
      <trkpt lat="47.49895" lon="-0.56784">
        <ele>50.8</ele>
        <time>2021-07-04T05:37:01Z</time>
      </trkpt>
      <trkpt lat="47.49897" lon="-0.56791">
        <ele>50.8</ele>
        <time>2021-07-04T05:37:02Z</time>
      </trkpt>
      <trkpt lat="47.49898" lon="-0.56799">
        <ele>51</ele>
        <time>2021-07-04T05:37:03Z</time>
      </trkpt>
      <trkpt lat="47.49902" lon="-0.56817">
        <ele>50.8</ele>
        <time>2021-07-04T05:37:05Z</time>
      </trkpt>
      <trkpt lat="47.49905" lon="-0.56833">
        <ele>51.2</ele>
        <time>2021-07-04T05:37:07Z</time>
      </trkpt>
      <trkpt lat="47.49907" lon="-0.56841">
        <ele>51.4</ele>
        <time>2021-07-04T05:37:08Z</time>
      </trkpt>
      <trkpt lat="47.49909" lon="-0.56849">
        <ele>51.4</ele>
        <time>2021-07-04T05:37:09Z</time>
      </trkpt>
      <trkpt lat="47.49912" lon="-0.56866">
        <ele>51.8</ele>
        <time>2021-07-04T05:37:11Z</time>
      </trkpt>
      <trkpt lat="47.49916" lon="-0.56882">
        <ele>51.6</ele>
        <time>2021-07-04T05:37:13Z</time>
      </trkpt>
      <trkpt lat="47.4992" lon="-0.56897">
        <ele>51.8</ele>
        <time>2021-07-04T05:37:15Z</time>
      </trkpt>
      <trkpt lat="47.49922" lon="-0.56906">
        <ele>51.8</ele>
        <time>2021-07-04T05:37:16Z</time>
      </trkpt>
      <trkpt lat="47.49924" lon="-0.56914">
        <ele>51.8</ele>
        <time>2021-07-04T05:37:17Z</time>
      </trkpt>
      <trkpt lat="47.49926" lon="-0.56922">
        <ele>51.8</ele>
        <time>2021-07-04T05:37:18Z</time>
      </trkpt>
      <trkpt lat="47.49928" lon="-0.56931">
        <ele>52</ele>
        <time>2021-07-04T05:37:19Z</time>
      </trkpt>
      <trkpt lat="47.49933" lon="-0.56948">
        <ele>52.2</ele>
        <time>2021-07-04T05:37:21Z</time>
      </trkpt>
      <trkpt lat="47.49938" lon="-0.56964">
        <ele>52.4</ele>
        <time>2021-07-04T05:37:23Z</time>
      </trkpt>
      <trkpt lat="47.49942" lon="-0.5698">
        <ele>52.6</ele>
        <time>2021-07-04T05:37:25Z</time>
      </trkpt>
      <trkpt lat="47.49944" lon="-0.56988">
        <ele>52.8</ele>
        <time>2021-07-04T05:37:26Z</time>
      </trkpt>
      <trkpt lat="47.49947" lon="-0.56995">
        <ele>53</ele>
        <time>2021-07-04T05:37:27Z</time>
      </trkpt>
      <trkpt lat="47.49952" lon="-0.5701">
        <ele>53</ele>
        <time>2021-07-04T05:37:29Z</time>
      </trkpt>
      <trkpt lat="47.49955" lon="-0.57017">
        <ele>53</ele>
        <time>2021-07-04T05:37:30Z</time>
      </trkpt>
      <trkpt lat="47.49957" lon="-0.57026">
        <ele>53</ele>
        <time>2021-07-04T05:37:31Z</time>
      </trkpt>
      <trkpt lat="47.49963" lon="-0.57042">
        <ele>53.2</ele>
        <time>2021-07-04T05:37:33Z</time>
      </trkpt>
      <trkpt lat="47.49969" lon="-0.57057">
        <ele>53.2</ele>
        <time>2021-07-04T05:37:35Z</time>
      </trkpt>
      <trkpt lat="47.49972" lon="-0.57064">
        <ele>53.2</ele>
        <time>2021-07-04T05:37:36Z</time>
      </trkpt>
      <trkpt lat="47.49974" lon="-0.57072">
        <ele>53.2</ele>
        <time>2021-07-04T05:37:37Z</time>
      </trkpt>
      <trkpt lat="47.4998" lon="-0.57087">
        <ele>54</ele>
        <time>2021-07-04T05:37:39Z</time>
      </trkpt>
      <trkpt lat="47.49986" lon="-0.57102">
        <ele>54.2</ele>
        <time>2021-07-04T05:37:41Z</time>
      </trkpt>
      <trkpt lat="47.49989" lon="-0.57109">
        <ele>54.2</ele>
        <time>2021-07-04T05:37:42Z</time>
      </trkpt>
      <trkpt lat="47.49991" lon="-0.57116">
        <ele>54.2</ele>
        <time>2021-07-04T05:37:43Z</time>
      </trkpt>
      <trkpt lat="47.49997" lon="-0.5713">
        <ele>54.2</ele>
        <time>2021-07-04T05:37:45Z</time>
      </trkpt>
      <trkpt lat="47.50001" lon="-0.57143">
        <ele>54.4</ele>
        <time>2021-07-04T05:37:47Z</time>
      </trkpt>
      <trkpt lat="47.50004" lon="-0.57149">
        <ele>54.4</ele>
        <time>2021-07-04T05:37:48Z</time>
      </trkpt>
      <trkpt lat="47.50006" lon="-0.57156">
        <ele>54.6</ele>
        <time>2021-07-04T05:37:49Z</time>
      </trkpt>
      <trkpt lat="47.50012" lon="-0.5717">
        <ele>54.6</ele>
        <time>2021-07-04T05:37:51Z</time>
      </trkpt>
      <trkpt lat="47.50017" lon="-0.57185">
        <ele>55</ele>
        <time>2021-07-04T05:37:53Z</time>
      </trkpt>
      <trkpt lat="47.5002" lon="-0.57192">
        <ele>55</ele>
        <time>2021-07-04T05:37:54Z</time>
      </trkpt>
      <trkpt lat="47.50023" lon="-0.57199">
        <ele>55</ele>
        <time>2021-07-04T05:37:55Z</time>
      </trkpt>
      <trkpt lat="47.50028" lon="-0.57213">
        <ele>55</ele>
        <time>2021-07-04T05:37:57Z</time>
      </trkpt>
      <trkpt lat="47.50032" lon="-0.57226">
        <ele>55.4</ele>
        <time>2021-07-04T05:37:59Z</time>
      </trkpt>
      <trkpt lat="47.50037" lon="-0.5724">
        <ele>55.6</ele>
        <time>2021-07-04T05:38:01Z</time>
      </trkpt>
      <trkpt lat="47.50041" lon="-0.57254">
        <ele>55.8</ele>
        <time>2021-07-04T05:38:03Z</time>
      </trkpt>
      <trkpt lat="47.50044" lon="-0.5726">
        <ele>55.8</ele>
        <time>2021-07-04T05:38:04Z</time>
      </trkpt>
      <trkpt lat="47.50046" lon="-0.57266">
        <ele>55.8</ele>
        <time>2021-07-04T05:38:05Z</time>
      </trkpt>
      <trkpt lat="47.50052" lon="-0.57278">
        <ele>56</ele>
        <time>2021-07-04T05:38:07Z</time>
      </trkpt>
      <trkpt lat="47.50058" lon="-0.57292">
        <ele>56</ele>
        <time>2021-07-04T05:38:09Z</time>
      </trkpt>
      <trkpt lat="47.50061" lon="-0.57299">
        <ele>56</ele>
        <time>2021-07-04T05:38:10Z</time>
      </trkpt>
      <trkpt lat="47.50064" lon="-0.57306">
        <ele>56.2</ele>
        <time>2021-07-04T05:38:11Z</time>
      </trkpt>
      <trkpt lat="47.50068" lon="-0.57313">
        <ele>56.4</ele>
        <time>2021-07-04T05:38:12Z</time>
      </trkpt>
      <trkpt lat="47.50071" lon="-0.57319">
        <ele>56.6</ele>
        <time>2021-07-04T05:38:13Z</time>
      </trkpt>
      <trkpt lat="47.50077" lon="-0.57334">
        <ele>56.6</ele>
        <time>2021-07-04T05:38:15Z</time>
      </trkpt>
      <trkpt lat="47.50084" lon="-0.57349">
        <ele>56.8</ele>
        <time>2021-07-04T05:38:17Z</time>
      </trkpt>
      <trkpt lat="47.50091" lon="-0.57364">
        <ele>57</ele>
        <time>2021-07-04T05:38:19Z</time>
      </trkpt>
      <trkpt lat="47.50098" lon="-0.57381">
        <ele>57.2</ele>
        <time>2021-07-04T05:38:21Z</time>
      </trkpt>
      <trkpt lat="47.50101" lon="-0.5739">
        <ele>57.2</ele>
        <time>2021-07-04T05:38:22Z</time>
      </trkpt>
      <trkpt lat="47.50104" lon="-0.57398">
        <ele>57.4</ele>
        <time>2021-07-04T05:38:23Z</time>
      </trkpt>
      <trkpt lat="47.50109" lon="-0.57414">
        <ele>57.4</ele>
        <time>2021-07-04T05:38:25Z</time>
      </trkpt>
      <trkpt lat="47.50115" lon="-0.5743">
        <ele>57.4</ele>
        <time>2021-07-04T05:38:27Z</time>
      </trkpt>
      <trkpt lat="47.50118" lon="-0.57438">
        <ele>57.4</ele>
        <time>2021-07-04T05:38:28Z</time>
      </trkpt>
      <trkpt lat="47.50121" lon="-0.57446">
        <ele>57.4</ele>
        <time>2021-07-04T05:38:29Z</time>
      </trkpt>
      <trkpt lat="47.50127" lon="-0.57462">
        <ele>57.6</ele>
        <time>2021-07-04T05:38:31Z</time>
      </trkpt>
      <trkpt lat="47.50133" lon="-0.57476">
        <ele>57.8</ele>
        <time>2021-07-04T05:38:33Z</time>
      </trkpt>
      <trkpt lat="47.50138" lon="-0.57491">
        <ele>58</ele>
        <time>2021-07-04T05:38:35Z</time>
      </trkpt>
      <trkpt lat="47.50141" lon="-0.57498">
        <ele>58.2</ele>
        <time>2021-07-04T05:38:36Z</time>
      </trkpt>
      <trkpt lat="47.50144" lon="-0.57505">
        <ele>58.4</ele>
        <time>2021-07-04T05:38:37Z</time>
      </trkpt>
      <trkpt lat="47.50147" lon="-0.57512">
        <ele>58.4</ele>
        <time>2021-07-04T05:38:38Z</time>
      </trkpt>
      <trkpt lat="47.5015" lon="-0.57519">
        <ele>58.4</ele>
        <time>2021-07-04T05:38:39Z</time>
      </trkpt>
      <trkpt lat="47.50152" lon="-0.57525">
        <ele>58.6</ele>
        <time>2021-07-04T05:38:40Z</time>
      </trkpt>
      <trkpt lat="47.50155" lon="-0.5753">
        <ele>58.6</ele>
        <time>2021-07-04T05:38:41Z</time>
      </trkpt>
      <trkpt lat="47.50158" lon="-0.57537">
        <ele>58.6</ele>
        <time>2021-07-04T05:38:42Z</time>
      </trkpt>
      <trkpt lat="47.5016" lon="-0.57544">
        <ele>58.6</ele>
        <time>2021-07-04T05:38:43Z</time>
      </trkpt>
      <trkpt lat="47.50163" lon="-0.57551">
        <ele>58.8</ele>
        <time>2021-07-04T05:38:44Z</time>
      </trkpt>
      <trkpt lat="47.50165" lon="-0.57558">
        <ele>58.8</ele>
        <time>2021-07-04T05:38:45Z</time>
      </trkpt>
      <trkpt lat="47.50171" lon="-0.57574">
        <ele>59</ele>
        <time>2021-07-04T05:38:47Z</time>
      </trkpt>
      <trkpt lat="47.50177" lon="-0.57589">
        <ele>59.2</ele>
        <time>2021-07-04T05:38:49Z</time>
      </trkpt>
      <trkpt lat="47.5018" lon="-0.57597">
        <ele>59.2</ele>
        <time>2021-07-04T05:38:50Z</time>
      </trkpt>
      <trkpt lat="47.50183" lon="-0.57605">
        <ele>59.6</ele>
        <time>2021-07-04T05:38:51Z</time>
      </trkpt>
      <trkpt lat="47.50186" lon="-0.57613">
        <ele>59.6</ele>
        <time>2021-07-04T05:38:52Z</time>
      </trkpt>
      <trkpt lat="47.50189" lon="-0.57621">
        <ele>59.6</ele>
        <time>2021-07-04T05:38:53Z</time>
      </trkpt>
      <trkpt lat="47.50195" lon="-0.57638">
        <ele>59.6</ele>
        <time>2021-07-04T05:38:55Z</time>
      </trkpt>
      <trkpt lat="47.50198" lon="-0.57646">
        <ele>59.6</ele>
        <time>2021-07-04T05:38:56Z</time>
      </trkpt>
      <trkpt lat="47.50201" lon="-0.57654">
        <ele>59.6</ele>
        <time>2021-07-04T05:38:57Z</time>
      </trkpt>
      <trkpt lat="47.50207" lon="-0.57671">
        <ele>60</ele>
        <time>2021-07-04T05:38:59Z</time>
      </trkpt>
      <trkpt lat="47.50213" lon="-0.57686">
        <ele>60</ele>
        <time>2021-07-04T05:39:01Z</time>
      </trkpt>
      <trkpt lat="47.50216" lon="-0.57693">
        <ele>60</ele>
        <time>2021-07-04T05:39:02Z</time>
      </trkpt>
      <trkpt lat="47.50219" lon="-0.57701">
        <ele>60.2</ele>
        <time>2021-07-04T05:39:03Z</time>
      </trkpt>
      <trkpt lat="47.50221" lon="-0.57708">
        <ele>60.2</ele>
        <time>2021-07-04T05:39:04Z</time>
      </trkpt>
      <trkpt lat="47.50224" lon="-0.57716">
        <ele>60.4</ele>
        <time>2021-07-04T05:39:05Z</time>
      </trkpt>
      <trkpt lat="47.5023" lon="-0.57732">
        <ele>60.6</ele>
        <time>2021-07-04T05:39:07Z</time>
      </trkpt>
      <trkpt lat="47.50236" lon="-0.57748">
        <ele>60.8</ele>
        <time>2021-07-04T05:39:09Z</time>
      </trkpt>
      <trkpt lat="47.50242" lon="-0.57764">
        <ele>60.8</ele>
        <time>2021-07-04T05:39:11Z</time>
      </trkpt>
      <trkpt lat="47.50248" lon="-0.57779">
        <ele>61</ele>
        <time>2021-07-04T05:39:13Z</time>
      </trkpt>
      <trkpt lat="47.50254" lon="-0.57793">
        <ele>61.6</ele>
        <time>2021-07-04T05:39:15Z</time>
      </trkpt>
      <trkpt lat="47.50261" lon="-0.57808">
        <ele>61.4</ele>
        <time>2021-07-04T05:39:17Z</time>
      </trkpt>
      <trkpt lat="47.50267" lon="-0.57824">
        <ele>61.8</ele>
        <time>2021-07-04T05:39:19Z</time>
      </trkpt>
      <trkpt lat="47.50273" lon="-0.57839">
        <ele>61.8</ele>
        <time>2021-07-04T05:39:21Z</time>
      </trkpt>
      <trkpt lat="47.50279" lon="-0.57853">
        <ele>61.8</ele>
        <time>2021-07-04T05:39:23Z</time>
      </trkpt>
      <trkpt lat="47.50286" lon="-0.57868">
        <ele>62.2</ele>
        <time>2021-07-04T05:39:25Z</time>
      </trkpt>
      <trkpt lat="47.50292" lon="-0.57883">
        <ele>62.4</ele>
        <time>2021-07-04T05:39:27Z</time>
      </trkpt>
      <trkpt lat="47.50299" lon="-0.57897">
        <ele>62.6</ele>
        <time>2021-07-04T05:39:29Z</time>
      </trkpt>
      <trkpt lat="47.50307" lon="-0.57912">
        <ele>62.6</ele>
        <time>2021-07-04T05:39:31Z</time>
      </trkpt>
      <trkpt lat="47.50315" lon="-0.57927">
        <ele>62.6</ele>
        <time>2021-07-04T05:39:33Z</time>
      </trkpt>
      <trkpt lat="47.50323" lon="-0.57942">
        <ele>62.8</ele>
        <time>2021-07-04T05:39:35Z</time>
      </trkpt>
      <trkpt lat="47.50331" lon="-0.57958">
        <ele>63</ele>
        <time>2021-07-04T05:39:37Z</time>
      </trkpt>
      <trkpt lat="47.50338" lon="-0.57973">
        <ele>63.2</ele>
        <time>2021-07-04T05:39:39Z</time>
      </trkpt>
      <trkpt lat="47.50345" lon="-0.57988">
        <ele>63.4</ele>
        <time>2021-07-04T05:39:41Z</time>
      </trkpt>
      <trkpt lat="47.50349" lon="-0.57995">
        <ele>63.6</ele>
        <time>2021-07-04T05:39:42Z</time>
      </trkpt>
      <trkpt lat="47.50352" lon="-0.58001">
        <ele>63.6</ele>
        <time>2021-07-04T05:39:43Z</time>
      </trkpt>
      <trkpt lat="47.50356" lon="-0.58008">
        <ele>63.6</ele>
        <time>2021-07-04T05:39:44Z</time>
      </trkpt>
      <trkpt lat="47.50359" lon="-0.58015">
        <ele>63.8</ele>
        <time>2021-07-04T05:39:45Z</time>
      </trkpt>
      <trkpt lat="47.50361" lon="-0.58022">
        <ele>63.8</ele>
        <time>2021-07-04T05:39:46Z</time>
      </trkpt>
      <trkpt lat="47.50362" lon="-0.58029">
        <ele>63.8</ele>
        <time>2021-07-04T05:39:47Z</time>
      </trkpt>
      <trkpt lat="47.50364" lon="-0.5804">
        <ele>64.2</ele>
        <time>2021-07-04T05:39:49Z</time>
      </trkpt>
      <trkpt lat="47.50365" lon="-0.58046">
        <ele>64.4</ele>
        <time>2021-07-04T05:39:50Z</time>
      </trkpt>
      <trkpt lat="47.50367" lon="-0.5805">
        <ele>64.8</ele>
        <time>2021-07-04T05:39:51Z</time>
      </trkpt>
      <trkpt lat="47.50373" lon="-0.58054">
        <ele>65</ele>
        <time>2021-07-04T05:39:53Z</time>
      </trkpt>
      <trkpt lat="47.50376" lon="-0.58056">
        <ele>65</ele>
        <time>2021-07-04T05:39:54Z</time>
      </trkpt>
      <trkpt lat="47.5038" lon="-0.58057">
        <ele>65</ele>
        <time>2021-07-04T05:39:55Z</time>
      </trkpt>
      <trkpt lat="47.50387" lon="-0.58062">
        <ele>64.2</ele>
        <time>2021-07-04T05:39:57Z</time>
      </trkpt>
      <trkpt lat="47.50392" lon="-0.58068">
        <ele>63.8</ele>
        <time>2021-07-04T05:39:58Z</time>
      </trkpt>
      <trkpt lat="47.50396" lon="-0.58074">
        <ele>63.6</ele>
        <time>2021-07-04T05:39:59Z</time>
      </trkpt>
      <trkpt lat="47.50405" lon="-0.58086">
        <ele>63.2</ele>
        <time>2021-07-04T05:40:01Z</time>
      </trkpt>
      <trkpt lat="47.50414" lon="-0.58099">
        <ele>63</ele>
        <time>2021-07-04T05:40:03Z</time>
      </trkpt>
      <trkpt lat="47.50424" lon="-0.58113">
        <ele>63</ele>
        <time>2021-07-04T05:40:05Z</time>
      </trkpt>
      <trkpt lat="47.50434" lon="-0.58126">
        <ele>63</ele>
        <time>2021-07-04T05:40:07Z</time>
      </trkpt>
      <trkpt lat="47.50444" lon="-0.58139">
        <ele>62.8</ele>
        <time>2021-07-04T05:40:09Z</time>
      </trkpt>
      <trkpt lat="47.50453" lon="-0.58153">
        <ele>62.6</ele>
        <time>2021-07-04T05:40:11Z</time>
      </trkpt>
      <trkpt lat="47.50463" lon="-0.58166">
        <ele>62.6</ele>
        <time>2021-07-04T05:40:13Z</time>
      </trkpt>
      <trkpt lat="47.50474" lon="-0.5818">
        <ele>62.6</ele>
        <time>2021-07-04T05:40:15Z</time>
      </trkpt>
      <trkpt lat="47.50484" lon="-0.58194">
        <ele>62.2</ele>
        <time>2021-07-04T05:40:17Z</time>
      </trkpt>
      <trkpt lat="47.50493" lon="-0.58209">
        <ele>62.2</ele>
        <time>2021-07-04T05:40:19Z</time>
      </trkpt>
      <trkpt lat="47.50498" lon="-0.58216">
        <ele>62</ele>
        <time>2021-07-04T05:40:20Z</time>
      </trkpt>
      <trkpt lat="47.50504" lon="-0.58222">
        <ele>61.6</ele>
        <time>2021-07-04T05:40:21Z</time>
      </trkpt>
      <trkpt lat="47.50514" lon="-0.58237">
        <ele>61.4</ele>
        <time>2021-07-04T05:40:23Z</time>
      </trkpt>
      <trkpt lat="47.50524" lon="-0.5825">
        <ele>61.6</ele>
        <time>2021-07-04T05:40:25Z</time>
      </trkpt>
      <trkpt lat="47.50534" lon="-0.58264">
        <ele>61.6</ele>
        <time>2021-07-04T05:40:27Z</time>
      </trkpt>
      <trkpt lat="47.50545" lon="-0.58278">
        <ele>61.4</ele>
        <time>2021-07-04T05:40:29Z</time>
      </trkpt>
      <trkpt lat="47.50556" lon="-0.58292">
        <ele>61</ele>
        <time>2021-07-04T05:40:31Z</time>
      </trkpt>
      <trkpt lat="47.50566" lon="-0.58306">
        <ele>61.2</ele>
        <time>2021-07-04T05:40:33Z</time>
      </trkpt>
      <trkpt lat="47.50576" lon="-0.58321">
        <ele>61</ele>
        <time>2021-07-04T05:40:35Z</time>
      </trkpt>
      <trkpt lat="47.50586" lon="-0.58334">
        <ele>61</ele>
        <time>2021-07-04T05:40:37Z</time>
      </trkpt>
      <trkpt lat="47.50596" lon="-0.58348">
        <ele>61</ele>
        <time>2021-07-04T05:40:39Z</time>
      </trkpt>
      <trkpt lat="47.50606" lon="-0.58361">
        <ele>61</ele>
        <time>2021-07-04T05:40:41Z</time>
      </trkpt>
      <trkpt lat="47.50616" lon="-0.58375">
        <ele>60.8</ele>
        <time>2021-07-04T05:40:43Z</time>
      </trkpt>
      <trkpt lat="47.50621" lon="-0.58381">
        <ele>61</ele>
        <time>2021-07-04T05:40:44Z</time>
      </trkpt>
      <trkpt lat="47.50625" lon="-0.58388">
        <ele>61.2</ele>
        <time>2021-07-04T05:40:45Z</time>
      </trkpt>
      <trkpt lat="47.50634" lon="-0.584">
        <ele>61</ele>
        <time>2021-07-04T05:40:47Z</time>
      </trkpt>
      <trkpt lat="47.50643" lon="-0.58412">
        <ele>61.2</ele>
        <time>2021-07-04T05:40:49Z</time>
      </trkpt>
      <trkpt lat="47.50651" lon="-0.58423">
        <ele>61.8</ele>
        <time>2021-07-04T05:40:51Z</time>
      </trkpt>
      <trkpt lat="47.50654" lon="-0.58429">
        <ele>62</ele>
        <time>2021-07-04T05:40:52Z</time>
      </trkpt>
      <trkpt lat="47.50656" lon="-0.58434">
        <ele>62</ele>
        <time>2021-07-04T05:40:53Z</time>
      </trkpt>
      <trkpt lat="47.5066" lon="-0.58443">
        <ele>62.4</ele>
        <time>2021-07-04T05:40:55Z</time>
      </trkpt>
      <trkpt lat="47.50666" lon="-0.58448">
        <ele>62.8</ele>
        <time>2021-07-04T05:40:57Z</time>
      </trkpt>
      <trkpt lat="47.50669" lon="-0.58452">
        <ele>63</ele>
        <time>2021-07-04T05:40:59Z</time>
      </trkpt>
      <trkpt lat="47.50674" lon="-0.58456">
        <ele>63.2</ele>
        <time>2021-07-04T05:41:01Z</time>
      </trkpt>
      <trkpt lat="47.50677" lon="-0.58458">
        <ele>63.2</ele>
        <time>2021-07-04T05:41:02Z</time>
      </trkpt>
      <trkpt lat="47.50681" lon="-0.5846">
        <ele>62.8</ele>
        <time>2021-07-04T05:41:03Z</time>
      </trkpt>
      <trkpt lat="47.50685" lon="-0.58464">
        <ele>62.4</ele>
        <time>2021-07-04T05:41:04Z</time>
      </trkpt>
      <trkpt lat="47.50689" lon="-0.58469">
        <ele>62.2</ele>
        <time>2021-07-04T05:41:05Z</time>
      </trkpt>
      <trkpt lat="47.50698" lon="-0.58479">
        <ele>62.2</ele>
        <time>2021-07-04T05:41:07Z</time>
      </trkpt>
      <trkpt lat="47.50707" lon="-0.58491">
        <ele>62.2</ele>
        <time>2021-07-04T05:41:09Z</time>
      </trkpt>
      <trkpt lat="47.50716" lon="-0.58503">
        <ele>61.8</ele>
        <time>2021-07-04T05:41:11Z</time>
      </trkpt>
      <trkpt lat="47.50725" lon="-0.58516">
        <ele>61.6</ele>
        <time>2021-07-04T05:41:13Z</time>
      </trkpt>
      <trkpt lat="47.50734" lon="-0.58528">
        <ele>62</ele>
        <time>2021-07-04T05:41:15Z</time>
      </trkpt>
      <trkpt lat="47.50739" lon="-0.58535">
        <ele>62.2</ele>
        <time>2021-07-04T05:41:16Z</time>
      </trkpt>
      <trkpt lat="47.50743" lon="-0.58541">
        <ele>62.2</ele>
        <time>2021-07-04T05:41:17Z</time>
      </trkpt>
      <trkpt lat="47.50747" lon="-0.58548">
        <ele>62.2</ele>
        <time>2021-07-04T05:41:18Z</time>
      </trkpt>
      <trkpt lat="47.50752" lon="-0.58554">
        <ele>62.2</ele>
        <time>2021-07-04T05:41:19Z</time>
      </trkpt>
      <trkpt lat="47.50762" lon="-0.58566">
        <ele>62.2</ele>
        <time>2021-07-04T05:41:21Z</time>
      </trkpt>
      <trkpt lat="47.50772" lon="-0.58579">
        <ele>62.2</ele>
        <time>2021-07-04T05:41:23Z</time>
      </trkpt>
      <trkpt lat="47.50782" lon="-0.58593">
        <ele>62.2</ele>
        <time>2021-07-04T05:41:25Z</time>
      </trkpt>
      <trkpt lat="47.50792" lon="-0.58607">
        <ele>62.4</ele>
        <time>2021-07-04T05:41:27Z</time>
      </trkpt>
      <trkpt lat="47.50801" lon="-0.58621">
        <ele>62.4</ele>
        <time>2021-07-04T05:41:29Z</time>
      </trkpt>
      <trkpt lat="47.5081" lon="-0.58635">
        <ele>62.2</ele>
        <time>2021-07-04T05:41:31Z</time>
      </trkpt>
      <trkpt lat="47.50819" lon="-0.58649">
        <ele>62.4</ele>
        <time>2021-07-04T05:41:33Z</time>
      </trkpt>
      <trkpt lat="47.50827" lon="-0.58663">
        <ele>62.2</ele>
        <time>2021-07-04T05:41:35Z</time>
      </trkpt>
      <trkpt lat="47.50835" lon="-0.58676">
        <ele>62.4</ele>
        <time>2021-07-04T05:41:37Z</time>
      </trkpt>
      <trkpt lat="47.50843" lon="-0.58689">
        <ele>63.4</ele>
        <time>2021-07-04T05:41:39Z</time>
      </trkpt>
      <trkpt lat="47.50851" lon="-0.58702">
        <ele>63.6</ele>
        <time>2021-07-04T05:41:41Z</time>
      </trkpt>
      <trkpt lat="47.50858" lon="-0.58715">
        <ele>63.8</ele>
        <time>2021-07-04T05:41:43Z</time>
      </trkpt>
      <trkpt lat="47.50865" lon="-0.58728">
        <ele>64</ele>
        <time>2021-07-04T05:41:45Z</time>
      </trkpt>
      <trkpt lat="47.50871" lon="-0.58739">
        <ele>64.2</ele>
        <time>2021-07-04T05:41:47Z</time>
      </trkpt>
      <trkpt lat="47.50875" lon="-0.58745">
        <ele>64.2</ele>
        <time>2021-07-04T05:41:49Z</time>
      </trkpt>
      <trkpt lat="47.50875" lon="-0.58747">
        <ele>64.4</ele>
        <time>2021-07-04T05:41:50Z</time>
      </trkpt>
      <trkpt lat="47.50875" lon="-0.5875">
        <ele>64.6</ele>
        <time>2021-07-04T05:41:51Z</time>
      </trkpt>
      <trkpt lat="47.50875" lon="-0.58759">
        <ele>64.6</ele>
        <time>2021-07-04T05:41:53Z</time>
      </trkpt>
      <trkpt lat="47.50876" lon="-0.58764">
        <ele>64.4</ele>
        <time>2021-07-04T05:41:54Z</time>
      </trkpt>
      <trkpt lat="47.50877" lon="-0.58768">
        <ele>64.4</ele>
        <time>2021-07-04T05:41:55Z</time>
      </trkpt>
      <trkpt lat="47.50882" lon="-0.58773">
        <ele>64.4</ele>
        <time>2021-07-04T05:41:57Z</time>
      </trkpt>
      <trkpt lat="47.50888" lon="-0.58779">
        <ele>64.4</ele>
        <time>2021-07-04T05:41:59Z</time>
      </trkpt>
      <trkpt lat="47.5089" lon="-0.58784">
        <ele>64.2</ele>
        <time>2021-07-04T05:42:00Z</time>
      </trkpt>
      <trkpt lat="47.50893" lon="-0.5879">
        <ele>64</ele>
        <time>2021-07-04T05:42:01Z</time>
      </trkpt>
      <trkpt lat="47.50899" lon="-0.58803">
        <ele>64</ele>
        <time>2021-07-04T05:42:03Z</time>
      </trkpt>
      <trkpt lat="47.50905" lon="-0.58817">
        <ele>63.8</ele>
        <time>2021-07-04T05:42:05Z</time>
      </trkpt>
      <trkpt lat="47.50911" lon="-0.58831">
        <ele>63.8</ele>
        <time>2021-07-04T05:42:07Z</time>
      </trkpt>
      <trkpt lat="47.50918" lon="-0.58845">
        <ele>63.6</ele>
        <time>2021-07-04T05:42:09Z</time>
      </trkpt>
      <trkpt lat="47.50924" lon="-0.58859">
        <ele>63.8</ele>
        <time>2021-07-04T05:42:11Z</time>
      </trkpt>
      <trkpt lat="47.5093" lon="-0.58875">
        <ele>63.8</ele>
        <time>2021-07-04T05:42:13Z</time>
      </trkpt>
      <trkpt lat="47.50937" lon="-0.58891">
        <ele>63.6</ele>
        <time>2021-07-04T05:42:15Z</time>
      </trkpt>
      <trkpt lat="47.50941" lon="-0.58899">
        <ele>63.4</ele>
        <time>2021-07-04T05:42:16Z</time>
      </trkpt>
      <trkpt lat="47.50944" lon="-0.58907">
        <ele>63.4</ele>
        <time>2021-07-04T05:42:17Z</time>
      </trkpt>
      <trkpt lat="47.50951" lon="-0.58923">
        <ele>63.4</ele>
        <time>2021-07-04T05:42:19Z</time>
      </trkpt>
      <trkpt lat="47.50958" lon="-0.58939">
        <ele>63.6</ele>
        <time>2021-07-04T05:42:21Z</time>
      </trkpt>
      <trkpt lat="47.50964" lon="-0.58955">
        <ele>63.8</ele>
        <time>2021-07-04T05:42:23Z</time>
      </trkpt>
      <trkpt lat="47.50971" lon="-0.58971">
        <ele>63.8</ele>
        <time>2021-07-04T05:42:25Z</time>
      </trkpt>
      <trkpt lat="47.50978" lon="-0.58987">
        <ele>63.8</ele>
        <time>2021-07-04T05:42:27Z</time>
      </trkpt>
      <trkpt lat="47.50985" lon="-0.59003">
        <ele>63.6</ele>
        <time>2021-07-04T05:42:29Z</time>
      </trkpt>
      <trkpt lat="47.50988" lon="-0.59011">
        <ele>63.4</ele>
        <time>2021-07-04T05:42:30Z</time>
      </trkpt>
      <trkpt lat="47.50991" lon="-0.5902">
        <ele>63.4</ele>
        <time>2021-07-04T05:42:31Z</time>
      </trkpt>
      <trkpt lat="47.50998" lon="-0.59037">
        <ele>63.6</ele>
        <time>2021-07-04T05:42:33Z</time>
      </trkpt>
      <trkpt lat="47.51005" lon="-0.59053">
        <ele>63.6</ele>
        <time>2021-07-04T05:42:35Z</time>
      </trkpt>
      <trkpt lat="47.51012" lon="-0.59068">
        <ele>63.8</ele>
        <time>2021-07-04T05:42:37Z</time>
      </trkpt>
      <trkpt lat="47.51018" lon="-0.59084">
        <ele>64</ele>
        <time>2021-07-04T05:42:39Z</time>
      </trkpt>
      <trkpt lat="47.51025" lon="-0.591">
        <ele>64</ele>
        <time>2021-07-04T05:42:41Z</time>
      </trkpt>
      <trkpt lat="47.51032" lon="-0.59115">
        <ele>64</ele>
        <time>2021-07-04T05:42:43Z</time>
      </trkpt>
      <trkpt lat="47.51039" lon="-0.59131">
        <ele>64</ele>
        <time>2021-07-04T05:42:45Z</time>
      </trkpt>
      <trkpt lat="47.51045" lon="-0.59146">
        <ele>63.8</ele>
        <time>2021-07-04T05:42:47Z</time>
      </trkpt>
      <trkpt lat="47.51052" lon="-0.59161">
        <ele>64</ele>
        <time>2021-07-04T05:42:49Z</time>
      </trkpt>
      <trkpt lat="47.51059" lon="-0.59176">
        <ele>64.4</ele>
        <time>2021-07-04T05:42:51Z</time>
      </trkpt>
      <trkpt lat="47.51062" lon="-0.59184">
        <ele>64.4</ele>
        <time>2021-07-04T05:42:52Z</time>
      </trkpt>
      <trkpt lat="47.51065" lon="-0.59191">
        <ele>64.2</ele>
        <time>2021-07-04T05:42:53Z</time>
      </trkpt>
      <trkpt lat="47.51072" lon="-0.59206">
        <ele>64.2</ele>
        <time>2021-07-04T05:42:55Z</time>
      </trkpt>
      <trkpt lat="47.51079" lon="-0.59221">
        <ele>64.4</ele>
        <time>2021-07-04T05:42:57Z</time>
      </trkpt>
      <trkpt lat="47.51086" lon="-0.59236">
        <ele>64.2</ele>
        <time>2021-07-04T05:42:59Z</time>
      </trkpt>
      <trkpt lat="47.51092" lon="-0.59252">
        <ele>64.2</ele>
        <time>2021-07-04T05:43:01Z</time>
      </trkpt>
      <trkpt lat="47.51098" lon="-0.59267">
        <ele>64.4</ele>
        <time>2021-07-04T05:43:03Z</time>
      </trkpt>
      <trkpt lat="47.51105" lon="-0.59283">
        <ele>64.4</ele>
        <time>2021-07-04T05:43:05Z</time>
      </trkpt>
      <trkpt lat="47.51111" lon="-0.59298">
        <ele>64.6</ele>
        <time>2021-07-04T05:43:07Z</time>
      </trkpt>
      <trkpt lat="47.51115" lon="-0.59306">
        <ele>64.6</ele>
        <time>2021-07-04T05:43:08Z</time>
      </trkpt>
      <trkpt lat="47.51118" lon="-0.59314">
        <ele>64.4</ele>
        <time>2021-07-04T05:43:09Z</time>
      </trkpt>
      <trkpt lat="47.51125" lon="-0.5933">
        <ele>64.2</ele>
        <time>2021-07-04T05:43:11Z</time>
      </trkpt>
      <trkpt lat="47.51132" lon="-0.59345">
        <ele>64.4</ele>
        <time>2021-07-04T05:43:13Z</time>
      </trkpt>
      <trkpt lat="47.51138" lon="-0.59361">
        <ele>64.2</ele>
        <time>2021-07-04T05:43:15Z</time>
      </trkpt>
      <trkpt lat="47.51142" lon="-0.59369">
        <ele>64.2</ele>
        <time>2021-07-04T05:43:16Z</time>
      </trkpt>
      <trkpt lat="47.51145" lon="-0.59377">
        <ele>64.4</ele>
        <time>2021-07-04T05:43:17Z</time>
      </trkpt>
      <trkpt lat="47.51152" lon="-0.59393">
        <ele>64.4</ele>
        <time>2021-07-04T05:43:19Z</time>
      </trkpt>
      <trkpt lat="47.51159" lon="-0.59409">
        <ele>64.4</ele>
        <time>2021-07-04T05:43:21Z</time>
      </trkpt>
      <trkpt lat="47.51165" lon="-0.59424">
        <ele>64.4</ele>
        <time>2021-07-04T05:43:23Z</time>
      </trkpt>
      <trkpt lat="47.51172" lon="-0.59441">
        <ele>64.4</ele>
        <time>2021-07-04T05:43:25Z</time>
      </trkpt>
      <trkpt lat="47.51176" lon="-0.59449">
        <ele>64.2</ele>
        <time>2021-07-04T05:43:26Z</time>
      </trkpt>
      <trkpt lat="47.51179" lon="-0.59457">
        <ele>64</ele>
        <time>2021-07-04T05:43:27Z</time>
      </trkpt>
      <trkpt lat="47.51186" lon="-0.59474">
        <ele>63.6</ele>
        <time>2021-07-04T05:43:29Z</time>
      </trkpt>
      <trkpt lat="47.51193" lon="-0.59491">
        <ele>63.8</ele>
        <time>2021-07-04T05:43:31Z</time>
      </trkpt>
      <trkpt lat="47.512" lon="-0.59507">
        <ele>63.6</ele>
        <time>2021-07-04T05:43:33Z</time>
      </trkpt>
      <trkpt lat="47.51207" lon="-0.59523">
        <ele>63.4</ele>
        <time>2021-07-04T05:43:35Z</time>
      </trkpt>
      <trkpt lat="47.51211" lon="-0.59531">
        <ele>63.4</ele>
        <time>2021-07-04T05:43:36Z</time>
      </trkpt>
      <trkpt lat="47.51214" lon="-0.59538">
        <ele>63.4</ele>
        <time>2021-07-04T05:43:37Z</time>
      </trkpt>
      <trkpt lat="47.5122" lon="-0.59553">
        <ele>63.2</ele>
        <time>2021-07-04T05:43:39Z</time>
      </trkpt>
      <trkpt lat="47.51225" lon="-0.59568">
        <ele>63.4</ele>
        <time>2021-07-04T05:43:41Z</time>
      </trkpt>
      <trkpt lat="47.51226" lon="-0.59576">
        <ele>63.6</ele>
        <time>2021-07-04T05:43:42Z</time>
      </trkpt>
      <trkpt lat="47.51227" lon="-0.59582">
        <ele>63.8</ele>
        <time>2021-07-04T05:43:43Z</time>
      </trkpt>
      <trkpt lat="47.5123" lon="-0.59591">
        <ele>64</ele>
        <time>2021-07-04T05:43:45Z</time>
      </trkpt>
      <trkpt lat="47.51233" lon="-0.59599">
        <ele>64.8</ele>
        <time>2021-07-04T05:43:47Z</time>
      </trkpt>
      <trkpt lat="47.51239" lon="-0.59605">
        <ele>64.8</ele>
        <time>2021-07-04T05:43:49Z</time>
      </trkpt>
      <trkpt lat="47.51246" lon="-0.59613">
        <ele>63.8</ele>
        <time>2021-07-04T05:43:51Z</time>
      </trkpt>
      <trkpt lat="47.51249" lon="-0.59619">
        <ele>63.6</ele>
        <time>2021-07-04T05:43:52Z</time>
      </trkpt>
      <trkpt lat="47.51252" lon="-0.59626">
        <ele>63.4</ele>
        <time>2021-07-04T05:43:53Z</time>
      </trkpt>
      <trkpt lat="47.51259" lon="-0.59641">
        <ele>62.8</ele>
        <time>2021-07-04T05:43:55Z</time>
      </trkpt>
      <trkpt lat="47.51267" lon="-0.59658">
        <ele>62.6</ele>
        <time>2021-07-04T05:43:57Z</time>
      </trkpt>
      <trkpt lat="47.51274" lon="-0.59676">
        <ele>62.4</ele>
        <time>2021-07-04T05:43:59Z</time>
      </trkpt>
      <trkpt lat="47.51282" lon="-0.59694">
        <ele>62</ele>
        <time>2021-07-04T05:44:01Z</time>
      </trkpt>
      <trkpt lat="47.51289" lon="-0.59712">
        <ele>61.4</ele>
        <time>2021-07-04T05:44:03Z</time>
      </trkpt>
      <trkpt lat="47.51297" lon="-0.5973">
        <ele>61.2</ele>
        <time>2021-07-04T05:44:05Z</time>
      </trkpt>
      <trkpt lat="47.51305" lon="-0.59749">
        <ele>60.6</ele>
        <time>2021-07-04T05:44:07Z</time>
      </trkpt>
      <trkpt lat="47.51313" lon="-0.59766">
        <ele>60.2</ele>
        <time>2021-07-04T05:44:09Z</time>
      </trkpt>
      <trkpt lat="47.51321" lon="-0.59784">
        <ele>60.4</ele>
        <time>2021-07-04T05:44:11Z</time>
      </trkpt>
      <trkpt lat="47.51328" lon="-0.59801">
        <ele>60.2</ele>
        <time>2021-07-04T05:44:13Z</time>
      </trkpt>
      <trkpt lat="47.51337" lon="-0.59817">
        <ele>60</ele>
        <time>2021-07-04T05:44:15Z</time>
      </trkpt>
      <trkpt lat="47.51344" lon="-0.59834">
        <ele>59.8</ele>
        <time>2021-07-04T05:44:17Z</time>
      </trkpt>
      <trkpt lat="47.51352" lon="-0.59851">
        <ele>59.8</ele>
        <time>2021-07-04T05:44:19Z</time>
      </trkpt>
      <trkpt lat="47.5136" lon="-0.59869">
        <ele>59.8</ele>
        <time>2021-07-04T05:44:21Z</time>
      </trkpt>
      <trkpt lat="47.51368" lon="-0.59886">
        <ele>59.6</ele>
        <time>2021-07-04T05:44:23Z</time>
      </trkpt>
      <trkpt lat="47.51377" lon="-0.59904">
        <ele>59.4</ele>
        <time>2021-07-04T05:44:25Z</time>
      </trkpt>
      <trkpt lat="47.51381" lon="-0.59912">
        <ele>59.2</ele>
        <time>2021-07-04T05:44:26Z</time>
      </trkpt>
      <trkpt lat="47.51385" lon="-0.59921">
        <ele>59.2</ele>
        <time>2021-07-04T05:44:27Z</time>
      </trkpt>
      <trkpt lat="47.51394" lon="-0.59937">
        <ele>59</ele>
        <time>2021-07-04T05:44:29Z</time>
      </trkpt>
      <trkpt lat="47.51399" lon="-0.59945">
        <ele>58.6</ele>
        <time>2021-07-04T05:44:30Z</time>
      </trkpt>
      <trkpt lat="47.51404" lon="-0.59954">
        <ele>58.6</ele>
        <time>2021-07-04T05:44:31Z</time>
      </trkpt>
      <trkpt lat="47.51413" lon="-0.59971">
        <ele>58.8</ele>
        <time>2021-07-04T05:44:33Z</time>
      </trkpt>
      <trkpt lat="47.51423" lon="-0.59987">
        <ele>58.4</ele>
        <time>2021-07-04T05:44:35Z</time>
      </trkpt>
      <trkpt lat="47.51428" lon="-0.59995">
        <ele>58</ele>
        <time>2021-07-04T05:44:36Z</time>
      </trkpt>
      <trkpt lat="47.51433" lon="-0.60004">
        <ele>58</ele>
        <time>2021-07-04T05:44:37Z</time>
      </trkpt>
      <trkpt lat="47.51444" lon="-0.6002">
        <ele>58.2</ele>
        <time>2021-07-04T05:44:39Z</time>
      </trkpt>
      <trkpt lat="47.51453" lon="-0.60036">
        <ele>57.8</ele>
        <time>2021-07-04T05:44:41Z</time>
      </trkpt>
      <trkpt lat="47.51463" lon="-0.60052">
        <ele>57.6</ele>
        <time>2021-07-04T05:44:43Z</time>
      </trkpt>
      <trkpt lat="47.51468" lon="-0.60059">
        <ele>57.4</ele>
        <time>2021-07-04T05:44:44Z</time>
      </trkpt>
      <trkpt lat="47.51473" lon="-0.60067">
        <ele>57.2</ele>
        <time>2021-07-04T05:44:45Z</time>
      </trkpt>
      <trkpt lat="47.51482" lon="-0.60082">
        <ele>57.2</ele>
        <time>2021-07-04T05:44:47Z</time>
      </trkpt>
      <trkpt lat="47.51492" lon="-0.60098">
        <ele>57.4</ele>
        <time>2021-07-04T05:44:49Z</time>
      </trkpt>
      <trkpt lat="47.51502" lon="-0.60113">
        <ele>57.4</ele>
        <time>2021-07-04T05:44:51Z</time>
      </trkpt>
      <trkpt lat="47.51511" lon="-0.60128">
        <ele>57.4</ele>
        <time>2021-07-04T05:44:53Z</time>
      </trkpt>
      <trkpt lat="47.51521" lon="-0.60143">
        <ele>57.4</ele>
        <time>2021-07-04T05:44:55Z</time>
      </trkpt>
      <trkpt lat="47.5153" lon="-0.60158">
        <ele>57.6</ele>
        <time>2021-07-04T05:44:57Z</time>
      </trkpt>
      <trkpt lat="47.51539" lon="-0.60172">
        <ele>57.6</ele>
        <time>2021-07-04T05:44:59Z</time>
      </trkpt>
      <trkpt lat="47.51549" lon="-0.60186">
        <ele>57.6</ele>
        <time>2021-07-04T05:45:01Z</time>
      </trkpt>
      <trkpt lat="47.51558" lon="-0.602">
        <ele>57.4</ele>
        <time>2021-07-04T05:45:03Z</time>
      </trkpt>
      <trkpt lat="47.51568" lon="-0.60214">
        <ele>57.4</ele>
        <time>2021-07-04T05:45:05Z</time>
      </trkpt>
      <trkpt lat="47.51572" lon="-0.60221">
        <ele>57.6</ele>
        <time>2021-07-04T05:45:06Z</time>
      </trkpt>
      <trkpt lat="47.51577" lon="-0.60228">
        <ele>57.4</ele>
        <time>2021-07-04T05:45:07Z</time>
      </trkpt>
      <trkpt lat="47.51584" lon="-0.60238">
        <ele>57.8</ele>
        <time>2021-07-04T05:45:09Z</time>
      </trkpt>
      <trkpt lat="47.51585" lon="-0.60242">
        <ele>58.4</ele>
        <time>2021-07-04T05:45:10Z</time>
      </trkpt>
      <trkpt lat="47.51584" lon="-0.60245">
        <ele>58.6</ele>
        <time>2021-07-04T05:45:11Z</time>
      </trkpt>
      <trkpt lat="47.51583" lon="-0.60247">
        <ele>59.2</ele>
        <time>2021-07-04T05:45:12Z</time>
      </trkpt>
      <trkpt lat="47.51582" lon="-0.60248">
        <ele>59.4</ele>
        <time>2021-07-04T05:45:13Z</time>
      </trkpt>
      <trkpt lat="47.51581" lon="-0.60249">
        <ele>59.6</ele>
        <time>2021-07-04T05:45:15Z</time>
      </trkpt>
      <trkpt lat="47.51579" lon="-0.60253">
        <ele>59.8</ele>
        <time>2021-07-04T05:45:17Z</time>
      </trkpt>
      <trkpt lat="47.51577" lon="-0.60257">
        <ele>60</ele>
        <time>2021-07-04T05:45:19Z</time>
      </trkpt>
      <trkpt lat="47.51574" lon="-0.60264">
        <ele>60.2</ele>
        <time>2021-07-04T05:45:21Z</time>
      </trkpt>
      <trkpt lat="47.51571" lon="-0.60268">
        <ele>60</ele>
        <time>2021-07-04T05:45:22Z</time>
      </trkpt>
      <trkpt lat="47.51569" lon="-0.60271">
        <ele>59.8</ele>
        <time>2021-07-04T05:45:23Z</time>
      </trkpt>
      <trkpt lat="47.51566" lon="-0.60278">
        <ele>59.8</ele>
        <time>2021-07-04T05:45:25Z</time>
      </trkpt>
      <trkpt lat="47.51564" lon="-0.60281">
        <ele>60</ele>
        <time>2021-07-04T05:45:26Z</time>
      </trkpt>
      <trkpt lat="47.51562" lon="-0.60284">
        <ele>60.4</ele>
        <time>2021-07-04T05:45:27Z</time>
      </trkpt>
      <trkpt lat="47.51558" lon="-0.6029">
        <ele>60.8</ele>
        <time>2021-07-04T05:45:29Z</time>
      </trkpt>
      <trkpt lat="47.51553" lon="-0.60295">
        <ele>60.8</ele>
        <time>2021-07-04T05:45:31Z</time>
      </trkpt>
      <trkpt lat="47.5155" lon="-0.60296">
        <ele>61</ele>
        <time>2021-07-04T05:45:32Z</time>
      </trkpt>
      <trkpt lat="47.51548" lon="-0.60298">
        <ele>61</ele>
        <time>2021-07-04T05:45:33Z</time>
      </trkpt>
      <trkpt lat="47.51543" lon="-0.60303">
        <ele>61</ele>
        <time>2021-07-04T05:45:35Z</time>
      </trkpt>
      <trkpt lat="47.5154" lon="-0.60309">
        <ele>61.8</ele>
        <time>2021-07-04T05:45:37Z</time>
      </trkpt>
      <trkpt lat="47.51541" lon="-0.60313">
        <ele>62.6</ele>
        <time>2021-07-04T05:45:38Z</time>
      </trkpt>
      <trkpt lat="47.51543" lon="-0.60317">
        <ele>62.8</ele>
        <time>2021-07-04T05:45:39Z</time>
      </trkpt>
      <trkpt lat="47.51545" lon="-0.60322">
        <ele>63</ele>
        <time>2021-07-04T05:45:40Z</time>
      </trkpt>
      <trkpt lat="47.51547" lon="-0.60327">
        <ele>62.8</ele>
        <time>2021-07-04T05:45:41Z</time>
      </trkpt>
      <trkpt lat="47.5155" lon="-0.60335">
        <ele>63</ele>
        <time>2021-07-04T05:45:43Z</time>
      </trkpt>
      <trkpt lat="47.5155" lon="-0.60339">
        <ele>63.2</ele>
        <time>2021-07-04T05:45:44Z</time>
      </trkpt>
      <trkpt lat="47.51548" lon="-0.60343">
        <ele>63.2</ele>
        <time>2021-07-04T05:45:45Z</time>
      </trkpt>
      <trkpt lat="47.51545" lon="-0.60348">
        <ele>63.2</ele>
        <time>2021-07-04T05:45:46Z</time>
      </trkpt>
      <trkpt lat="47.51541" lon="-0.60353">
        <ele>63.2</ele>
        <time>2021-07-04T05:45:47Z</time>
      </trkpt>
      <trkpt lat="47.51537" lon="-0.60359">
        <ele>63.2</ele>
        <time>2021-07-04T05:45:48Z</time>
      </trkpt>
      <trkpt lat="47.51532" lon="-0.60363">
        <ele>63</ele>
        <time>2021-07-04T05:45:49Z</time>
      </trkpt>
      <trkpt lat="47.51523" lon="-0.60372">
        <ele>62.8</ele>
        <time>2021-07-04T05:45:51Z</time>
      </trkpt>
      <trkpt lat="47.51519" lon="-0.60376">
        <ele>63</ele>
        <time>2021-07-04T05:45:52Z</time>
      </trkpt>
      <trkpt lat="47.51515" lon="-0.6038">
        <ele>63</ele>
        <time>2021-07-04T05:45:53Z</time>
      </trkpt>
      <trkpt lat="47.51507" lon="-0.60389">
        <ele>63</ele>
        <time>2021-07-04T05:45:55Z</time>
      </trkpt>
      <trkpt lat="47.51499" lon="-0.60398">
        <ele>63</ele>
        <time>2021-07-04T05:45:57Z</time>
      </trkpt>
      <trkpt lat="47.51491" lon="-0.60406">
        <ele>63</ele>
        <time>2021-07-04T05:45:59Z</time>
      </trkpt>
      <trkpt lat="47.51486" lon="-0.6041">
        <ele>63</ele>
        <time>2021-07-04T05:46:00Z</time>
      </trkpt>
      <trkpt lat="47.51482" lon="-0.60414">
        <ele>63</ele>
        <time>2021-07-04T05:46:01Z</time>
      </trkpt>
      <trkpt lat="47.51474" lon="-0.60424">
        <ele>63</ele>
        <time>2021-07-04T05:46:03Z</time>
      </trkpt>
      <trkpt lat="47.51469" lon="-0.60428">
        <ele>63.2</ele>
        <time>2021-07-04T05:46:04Z</time>
      </trkpt>
      <trkpt lat="47.51464" lon="-0.60432">
        <ele>63.2</ele>
        <time>2021-07-04T05:46:05Z</time>
      </trkpt>
      <trkpt lat="47.51455" lon="-0.60441">
        <ele>63.2</ele>
        <time>2021-07-04T05:46:07Z</time>
      </trkpt>
      <trkpt lat="47.51446" lon="-0.60451">
        <ele>63.2</ele>
        <time>2021-07-04T05:46:09Z</time>
      </trkpt>
      <trkpt lat="47.51439" lon="-0.60465">
        <ele>63.2</ele>
        <time>2021-07-04T05:46:11Z</time>
      </trkpt>
      <trkpt lat="47.51435" lon="-0.60471">
        <ele>63</ele>
        <time>2021-07-04T05:46:12Z</time>
      </trkpt>
      <trkpt lat="47.51432" lon="-0.60475">
        <ele>62.8</ele>
        <time>2021-07-04T05:46:13Z</time>
      </trkpt>
      <trkpt lat="47.51426" lon="-0.60478">
        <ele>63.2</ele>
        <time>2021-07-04T05:46:15Z</time>
      </trkpt>
      <trkpt lat="47.51421" lon="-0.60482">
        <ele>63</ele>
        <time>2021-07-04T05:46:17Z</time>
      </trkpt>
      <trkpt lat="47.51417" lon="-0.60487">
        <ele>62.6</ele>
        <time>2021-07-04T05:46:19Z</time>
      </trkpt>
      <trkpt lat="47.51414" lon="-0.60489">
        <ele>62.6</ele>
        <time>2021-07-04T05:46:20Z</time>
      </trkpt>
      <trkpt lat="47.51411" lon="-0.60491">
        <ele>62.6</ele>
        <time>2021-07-04T05:46:21Z</time>
      </trkpt>
      <trkpt lat="47.51407" lon="-0.60493">
        <ele>62.4</ele>
        <time>2021-07-04T05:46:22Z</time>
      </trkpt>
      <trkpt lat="47.51403" lon="-0.60494">
        <ele>62.4</ele>
        <time>2021-07-04T05:46:23Z</time>
      </trkpt>
      <trkpt lat="47.51395" lon="-0.60497">
        <ele>62</ele>
        <time>2021-07-04T05:46:25Z</time>
      </trkpt>
      <trkpt lat="47.5139" lon="-0.60499">
        <ele>61.4</ele>
        <time>2021-07-04T05:46:26Z</time>
      </trkpt>
      <trkpt lat="47.51385" lon="-0.605">
        <ele>60.8</ele>
        <time>2021-07-04T05:46:27Z</time>
      </trkpt>
      <trkpt lat="47.51381" lon="-0.60502">
        <ele>60.2</ele>
        <time>2021-07-04T05:46:28Z</time>
      </trkpt>
      <trkpt lat="47.51376" lon="-0.60504">
        <ele>59.6</ele>
        <time>2021-07-04T05:46:29Z</time>
      </trkpt>
      <trkpt lat="47.51365" lon="-0.60509">
        <ele>59</ele>
        <time>2021-07-04T05:46:31Z</time>
      </trkpt>
      <trkpt lat="47.51352" lon="-0.60515">
        <ele>58.4</ele>
        <time>2021-07-04T05:46:33Z</time>
      </trkpt>
      <trkpt lat="47.51338" lon="-0.6052">
        <ele>58</ele>
        <time>2021-07-04T05:46:35Z</time>
      </trkpt>
      <trkpt lat="47.51332" lon="-0.60523">
        <ele>57.4</ele>
        <time>2021-07-04T05:46:36Z</time>
      </trkpt>
      <trkpt lat="47.51325" lon="-0.60527">
        <ele>57.2</ele>
        <time>2021-07-04T05:46:37Z</time>
      </trkpt>
      <trkpt lat="47.51311" lon="-0.60533">
        <ele>57.6</ele>
        <time>2021-07-04T05:46:39Z</time>
      </trkpt>
      <trkpt lat="47.51297" lon="-0.6054">
        <ele>56.6</ele>
        <time>2021-07-04T05:46:41Z</time>
      </trkpt>
      <trkpt lat="47.51289" lon="-0.60544">
        <ele>56</ele>
        <time>2021-07-04T05:46:42Z</time>
      </trkpt>
      <trkpt lat="47.51283" lon="-0.60548">
        <ele>55.8</ele>
        <time>2021-07-04T05:46:43Z</time>
      </trkpt>
      <trkpt lat="47.51269" lon="-0.60555">
        <ele>55.4</ele>
        <time>2021-07-04T05:46:45Z</time>
      </trkpt>
      <trkpt lat="47.51263" lon="-0.60557">
        <ele>55.2</ele>
        <time>2021-07-04T05:46:46Z</time>
      </trkpt>
      <trkpt lat="47.51256" lon="-0.6056">
        <ele>55</ele>
        <time>2021-07-04T05:46:47Z</time>
      </trkpt>
      <trkpt lat="47.5125" lon="-0.60561">
        <ele>55</ele>
        <time>2021-07-04T05:46:48Z</time>
      </trkpt>
      <trkpt lat="47.51243" lon="-0.60562">
        <ele>54.8</ele>
        <time>2021-07-04T05:46:49Z</time>
      </trkpt>
      <trkpt lat="47.51231" lon="-0.60562">
        <ele>54.2</ele>
        <time>2021-07-04T05:46:51Z</time>
      </trkpt>
      <trkpt lat="47.51225" lon="-0.60563">
        <ele>54.4</ele>
        <time>2021-07-04T05:46:52Z</time>
      </trkpt>
      <trkpt lat="47.51219" lon="-0.60564">
        <ele>54.6</ele>
        <time>2021-07-04T05:46:53Z</time>
      </trkpt>
      <trkpt lat="47.51207" lon="-0.6057">
        <ele>54.8</ele>
        <time>2021-07-04T05:46:55Z</time>
      </trkpt>
      <trkpt lat="47.51203" lon="-0.60573">
        <ele>54.8</ele>
        <time>2021-07-04T05:46:56Z</time>
      </trkpt>
      <trkpt lat="47.51197" lon="-0.60571">
        <ele>54.8</ele>
        <time>2021-07-04T05:46:57Z</time>
      </trkpt>
      <trkpt lat="47.51189" lon="-0.60566">
        <ele>55.2</ele>
        <time>2021-07-04T05:46:59Z</time>
      </trkpt>
      <trkpt lat="47.51185" lon="-0.60561">
        <ele>55.4</ele>
        <time>2021-07-04T05:47:00Z</time>
      </trkpt>
      <trkpt lat="47.51179" lon="-0.60557">
        <ele>55.2</ele>
        <time>2021-07-04T05:47:01Z</time>
      </trkpt>
      <trkpt lat="47.51169" lon="-0.60546">
        <ele>55</ele>
        <time>2021-07-04T05:47:03Z</time>
      </trkpt>
      <trkpt lat="47.51165" lon="-0.6054">
        <ele>54.4</ele>
        <time>2021-07-04T05:47:04Z</time>
      </trkpt>
      <trkpt lat="47.51161" lon="-0.60533">
        <ele>54</ele>
        <time>2021-07-04T05:47:05Z</time>
      </trkpt>
      <trkpt lat="47.51157" lon="-0.60526">
        <ele>53.8</ele>
        <time>2021-07-04T05:47:06Z</time>
      </trkpt>
      <trkpt lat="47.51153" lon="-0.6052">
        <ele>53.6</ele>
        <time>2021-07-04T05:47:07Z</time>
      </trkpt>
      <trkpt lat="47.51145" lon="-0.60507">
        <ele>53.4</ele>
        <time>2021-07-04T05:47:09Z</time>
      </trkpt>
      <trkpt lat="47.51138" lon="-0.60494">
        <ele>53.4</ele>
        <time>2021-07-04T05:47:11Z</time>
      </trkpt>
      <trkpt lat="47.51134" lon="-0.60487">
        <ele>53.2</ele>
        <time>2021-07-04T05:47:12Z</time>
      </trkpt>
      <trkpt lat="47.51129" lon="-0.6048">
        <ele>53</ele>
        <time>2021-07-04T05:47:13Z</time>
      </trkpt>
      <trkpt lat="47.51121" lon="-0.60467">
        <ele>52.6</ele>
        <time>2021-07-04T05:47:15Z</time>
      </trkpt>
      <trkpt lat="47.51113" lon="-0.60453">
        <ele>52.6</ele>
        <time>2021-07-04T05:47:17Z</time>
      </trkpt>
      <trkpt lat="47.51104" lon="-0.60439">
        <ele>52.6</ele>
        <time>2021-07-04T05:47:19Z</time>
      </trkpt>
      <trkpt lat="47.51098" lon="-0.60426">
        <ele>52.8</ele>
        <time>2021-07-04T05:47:21Z</time>
      </trkpt>
      <trkpt lat="47.5109" lon="-0.60413">
        <ele>52.6</ele>
        <time>2021-07-04T05:47:23Z</time>
      </trkpt>
      <trkpt lat="47.51086" lon="-0.60408">
        <ele>52.4</ele>
        <time>2021-07-04T05:47:24Z</time>
      </trkpt>
      <trkpt lat="47.5108" lon="-0.60405">
        <ele>52.2</ele>
        <time>2021-07-04T05:47:25Z</time>
      </trkpt>
      <trkpt lat="47.51069" lon="-0.604">
        <ele>52</ele>
        <time>2021-07-04T05:47:27Z</time>
      </trkpt>
      <trkpt lat="47.51059" lon="-0.60387">
        <ele>52</ele>
        <time>2021-07-04T05:47:29Z</time>
      </trkpt>
      <trkpt lat="47.51057" lon="-0.60378">
        <ele>52</ele>
        <time>2021-07-04T05:47:30Z</time>
      </trkpt>
      <trkpt lat="47.51057" lon="-0.60368">
        <ele>52.4</ele>
        <time>2021-07-04T05:47:31Z</time>
      </trkpt>
      <trkpt lat="47.51058" lon="-0.6036">
        <ele>52.4</ele>
        <time>2021-07-04T05:47:32Z</time>
      </trkpt>
      <trkpt lat="47.51057" lon="-0.60351">
        <ele>52.6</ele>
        <time>2021-07-04T05:47:33Z</time>
      </trkpt>
      <trkpt lat="47.51051" lon="-0.60337">
        <ele>52.6</ele>
        <time>2021-07-04T05:47:35Z</time>
      </trkpt>
      <trkpt lat="47.51048" lon="-0.6033">
        <ele>52.8</ele>
        <time>2021-07-04T05:47:36Z</time>
      </trkpt>
      <trkpt lat="47.51045" lon="-0.60324">
        <ele>52.8</ele>
        <time>2021-07-04T05:47:37Z</time>
      </trkpt>
      <trkpt lat="47.51039" lon="-0.60312">
        <ele>53.2</ele>
        <time>2021-07-04T05:47:39Z</time>
      </trkpt>
      <trkpt lat="47.51036" lon="-0.60308">
        <ele>53.4</ele>
        <time>2021-07-04T05:47:40Z</time>
      </trkpt>
      <trkpt lat="47.51032" lon="-0.60307">
        <ele>53.8</ele>
        <time>2021-07-04T05:47:41Z</time>
      </trkpt>
      <trkpt lat="47.51023" lon="-0.6031">
        <ele>54.2</ele>
        <time>2021-07-04T05:47:43Z</time>
      </trkpt>
      <trkpt lat="47.51018" lon="-0.60309">
        <ele>53.6</ele>
        <time>2021-07-04T05:47:44Z</time>
      </trkpt>
      <trkpt lat="47.51013" lon="-0.60307">
        <ele>53.2</ele>
        <time>2021-07-04T05:47:45Z</time>
      </trkpt>
      <trkpt lat="47.51009" lon="-0.60303">
        <ele>52.6</ele>
        <time>2021-07-04T05:47:46Z</time>
      </trkpt>
      <trkpt lat="47.51005" lon="-0.60298">
        <ele>52.6</ele>
        <time>2021-07-04T05:47:47Z</time>
      </trkpt>
      <trkpt lat="47.50994" lon="-0.60292">
        <ele>52.6</ele>
        <time>2021-07-04T05:47:49Z</time>
      </trkpt>
      <trkpt lat="47.50988" lon="-0.60291">
        <ele>52.2</ele>
        <time>2021-07-04T05:47:50Z</time>
      </trkpt>
      <trkpt lat="47.50982" lon="-0.6029">
        <ele>51.8</ele>
        <time>2021-07-04T05:47:51Z</time>
      </trkpt>
      <trkpt lat="47.50976" lon="-0.60291">
        <ele>50.8</ele>
        <time>2021-07-04T05:47:52Z</time>
      </trkpt>
      <trkpt lat="47.5097" lon="-0.60293">
        <ele>50.4</ele>
        <time>2021-07-04T05:47:53Z</time>
      </trkpt>
      <trkpt lat="47.50965" lon="-0.60297">
        <ele>50.2</ele>
        <time>2021-07-04T05:47:54Z</time>
      </trkpt>
      <trkpt lat="47.50961" lon="-0.60302">
        <ele>50.8</ele>
        <time>2021-07-04T05:47:55Z</time>
      </trkpt>
      <trkpt lat="47.50951" lon="-0.60312">
        <ele>50.8</ele>
        <time>2021-07-04T05:47:57Z</time>
      </trkpt>
      <trkpt lat="47.50942" lon="-0.60321">
        <ele>51.2</ele>
        <time>2021-07-04T05:47:59Z</time>
      </trkpt>
      <trkpt lat="47.50933" lon="-0.6033">
        <ele>51.8</ele>
        <time>2021-07-04T05:48:01Z</time>
      </trkpt>
      <trkpt lat="47.50924" lon="-0.60336">
        <ele>51.8</ele>
        <time>2021-07-04T05:48:03Z</time>
      </trkpt>
      <trkpt lat="47.50914" lon="-0.60342">
        <ele>51.6</ele>
        <time>2021-07-04T05:48:05Z</time>
      </trkpt>
      <trkpt lat="47.50909" lon="-0.60344">
        <ele>51.6</ele>
        <time>2021-07-04T05:48:06Z</time>
      </trkpt>
      <trkpt lat="47.50904" lon="-0.60347">
        <ele>52</ele>
        <time>2021-07-04T05:48:07Z</time>
      </trkpt>
      <trkpt lat="47.50897" lon="-0.60351">
        <ele>52</ele>
        <time>2021-07-04T05:48:09Z</time>
      </trkpt>
      <trkpt lat="47.50894" lon="-0.60354">
        <ele>52.2</ele>
        <time>2021-07-04T05:48:10Z</time>
      </trkpt>
      <trkpt lat="47.50892" lon="-0.60357">
        <ele>52.4</ele>
        <time>2021-07-04T05:48:11Z</time>
      </trkpt>
      <trkpt lat="47.50887" lon="-0.60363">
        <ele>52.2</ele>
        <time>2021-07-04T05:48:13Z</time>
      </trkpt>
      <trkpt lat="47.50883" lon="-0.60366">
        <ele>52.2</ele>
        <time>2021-07-04T05:48:14Z</time>
      </trkpt>
      <trkpt lat="47.5088" lon="-0.60369">
        <ele>52</ele>
        <time>2021-07-04T05:48:15Z</time>
      </trkpt>
      <trkpt lat="47.50873" lon="-0.60374">
        <ele>51.6</ele>
        <time>2021-07-04T05:48:17Z</time>
      </trkpt>
      <trkpt lat="47.50869" lon="-0.60375">
        <ele>51.4</ele>
        <time>2021-07-04T05:48:18Z</time>
      </trkpt>
      <trkpt lat="47.50865" lon="-0.60375">
        <ele>51.4</ele>
        <time>2021-07-04T05:48:19Z</time>
      </trkpt>
      <trkpt lat="47.50858" lon="-0.6037">
        <ele>51.2</ele>
        <time>2021-07-04T05:48:21Z</time>
      </trkpt>
      <trkpt lat="47.50853" lon="-0.60369">
        <ele>51.2</ele>
        <time>2021-07-04T05:48:22Z</time>
      </trkpt>
      <trkpt lat="47.50848" lon="-0.60368">
        <ele>51.2</ele>
        <time>2021-07-04T05:48:23Z</time>
      </trkpt>
      <trkpt lat="47.50843" lon="-0.60368">
        <ele>51.2</ele>
        <time>2021-07-04T05:48:24Z</time>
      </trkpt>
      <trkpt lat="47.50837" lon="-0.6037">
        <ele>51.2</ele>
        <time>2021-07-04T05:48:25Z</time>
      </trkpt>
      <trkpt lat="47.50828" lon="-0.60373">
        <ele>50.8</ele>
        <time>2021-07-04T05:48:27Z</time>
      </trkpt>
      <trkpt lat="47.50823" lon="-0.60375">
        <ele>50.8</ele>
        <time>2021-07-04T05:48:28Z</time>
      </trkpt>
      <trkpt lat="47.50819" lon="-0.60376">
        <ele>51</ele>
        <time>2021-07-04T05:48:29Z</time>
      </trkpt>
      <trkpt lat="47.50811" lon="-0.60382">
        <ele>51.4</ele>
        <time>2021-07-04T05:48:31Z</time>
      </trkpt>
      <trkpt lat="47.50804" lon="-0.60389">
        <ele>51.4</ele>
        <time>2021-07-04T05:48:33Z</time>
      </trkpt>
      <trkpt lat="47.508" lon="-0.60393">
        <ele>51.2</ele>
        <time>2021-07-04T05:48:34Z</time>
      </trkpt>
      <trkpt lat="47.50795" lon="-0.60396">
        <ele>51.4</ele>
        <time>2021-07-04T05:48:35Z</time>
      </trkpt>
      <trkpt lat="47.50786" lon="-0.60402">
        <ele>51.4</ele>
        <time>2021-07-04T05:48:37Z</time>
      </trkpt>
      <trkpt lat="47.50777" lon="-0.60407">
        <ele>51.4</ele>
        <time>2021-07-04T05:48:39Z</time>
      </trkpt>
      <trkpt lat="47.50767" lon="-0.60412">
        <ele>51.6</ele>
        <time>2021-07-04T05:48:41Z</time>
      </trkpt>
      <trkpt lat="47.50762" lon="-0.60415">
        <ele>51.6</ele>
        <time>2021-07-04T05:48:42Z</time>
      </trkpt>
      <trkpt lat="47.50756" lon="-0.60417">
        <ele>51.8</ele>
        <time>2021-07-04T05:48:43Z</time>
      </trkpt>
      <trkpt lat="47.50745" lon="-0.60422">
        <ele>51.4</ele>
        <time>2021-07-04T05:48:45Z</time>
      </trkpt>
      <trkpt lat="47.50741" lon="-0.60424">
        <ele>51</ele>
        <time>2021-07-04T05:48:46Z</time>
      </trkpt>
      <trkpt lat="47.50738" lon="-0.6043">
        <ele>51.2</ele>
        <time>2021-07-04T05:48:47Z</time>
      </trkpt>
      <trkpt lat="47.50733" lon="-0.60442">
        <ele>51.2</ele>
        <time>2021-07-04T05:48:49Z</time>
      </trkpt>
      <trkpt lat="47.5073" lon="-0.60448">
        <ele>51.2</ele>
        <time>2021-07-04T05:48:50Z</time>
      </trkpt>
      <trkpt lat="47.50726" lon="-0.60452">
        <ele>51.2</ele>
        <time>2021-07-04T05:48:51Z</time>
      </trkpt>
      <trkpt lat="47.50722" lon="-0.60454">
        <ele>51.6</ele>
        <time>2021-07-04T05:48:52Z</time>
      </trkpt>
      <trkpt lat="47.50718" lon="-0.60456">
        <ele>51.8</ele>
        <time>2021-07-04T05:48:53Z</time>
      </trkpt>
      <trkpt lat="47.50713" lon="-0.60454">
        <ele>52.4</ele>
        <time>2021-07-04T05:48:55Z</time>
      </trkpt>
      <trkpt lat="47.50708" lon="-0.60446">
        <ele>51.8</ele>
        <time>2021-07-04T05:48:57Z</time>
      </trkpt>
      <trkpt lat="47.50703" lon="-0.60439">
        <ele>51</ele>
        <time>2021-07-04T05:48:59Z</time>
      </trkpt>
      <trkpt lat="47.50696" lon="-0.60431">
        <ele>51.2</ele>
        <time>2021-07-04T05:49:01Z</time>
      </trkpt>
      <trkpt lat="47.50693" lon="-0.60426">
        <ele>51.2</ele>
        <time>2021-07-04T05:49:02Z</time>
      </trkpt>
      <trkpt lat="47.50689" lon="-0.60421">
        <ele>51</ele>
        <time>2021-07-04T05:49:03Z</time>
      </trkpt>
      <trkpt lat="47.50686" lon="-0.60416">
        <ele>50.8</ele>
        <time>2021-07-04T05:49:04Z</time>
      </trkpt>
      <trkpt lat="47.50682" lon="-0.6041">
        <ele>51</ele>
        <time>2021-07-04T05:49:05Z</time>
      </trkpt>
      <trkpt lat="47.50679" lon="-0.60405">
        <ele>51.2</ele>
        <time>2021-07-04T05:49:06Z</time>
      </trkpt>
      <trkpt lat="47.50676" lon="-0.60399">
        <ele>51.4</ele>
        <time>2021-07-04T05:49:07Z</time>
      </trkpt>
      <trkpt lat="47.50669" lon="-0.60388">
        <ele>51.6</ele>
        <time>2021-07-04T05:49:09Z</time>
      </trkpt>
      <trkpt lat="47.50666" lon="-0.60382">
        <ele>51.4</ele>
        <time>2021-07-04T05:49:10Z</time>
      </trkpt>
      <trkpt lat="47.50662" lon="-0.60377">
        <ele>51.4</ele>
        <time>2021-07-04T05:49:11Z</time>
      </trkpt>
      <trkpt lat="47.50656" lon="-0.60369">
        <ele>51.4</ele>
        <time>2021-07-04T05:49:13Z</time>
      </trkpt>
      <trkpt lat="47.50652" lon="-0.60367">
        <ele>51.8</ele>
        <time>2021-07-04T05:49:14Z</time>
      </trkpt>
      <trkpt lat="47.50647" lon="-0.60366">
        <ele>52</ele>
        <time>2021-07-04T05:49:15Z</time>
      </trkpt>
      <trkpt lat="47.50636" lon="-0.60369">
        <ele>51.8</ele>
        <time>2021-07-04T05:49:17Z</time>
      </trkpt>
      <trkpt lat="47.50626" lon="-0.60377">
        <ele>51.2</ele>
        <time>2021-07-04T05:49:19Z</time>
      </trkpt>
      <trkpt lat="47.50622" lon="-0.60382">
        <ele>51</ele>
        <time>2021-07-04T05:49:20Z</time>
      </trkpt>
      <trkpt lat="47.50619" lon="-0.60386">
        <ele>51</ele>
        <time>2021-07-04T05:49:21Z</time>
      </trkpt>
      <trkpt lat="47.50617" lon="-0.60388">
        <ele>51</ele>
        <time>2021-07-04T05:49:22Z</time>
      </trkpt>
      <trkpt lat="47.50616" lon="-0.6039">
        <ele>51.2</ele>
        <time>2021-07-04T05:49:23Z</time>
      </trkpt>
      <trkpt lat="47.50616" lon="-0.60396">
        <ele>51.4</ele>
        <time>2021-07-04T05:49:25Z</time>
      </trkpt>
      <trkpt lat="47.50616" lon="-0.60401">
        <ele>51.2</ele>
        <time>2021-07-04T05:49:26Z</time>
      </trkpt>
      <trkpt lat="47.50617" lon="-0.60405">
        <ele>51.2</ele>
        <time>2021-07-04T05:49:27Z</time>
      </trkpt>
      <trkpt lat="47.50616" lon="-0.60411">
        <ele>50.8</ele>
        <time>2021-07-04T05:49:29Z</time>
      </trkpt>
      <trkpt lat="47.50614" lon="-0.60411">
        <ele>50.6</ele>
        <time>2021-07-04T05:49:30Z</time>
      </trkpt>
      <trkpt lat="47.50613" lon="-0.60412">
        <ele>50.2</ele>
        <time>2021-07-04T05:49:31Z</time>
      </trkpt>
      <trkpt lat="47.50611" lon="-0.60412">
        <ele>50.2</ele>
        <time>2021-07-04T05:49:33Z</time>
      </trkpt>
      <trkpt lat="47.50608" lon="-0.60413">
        <ele>50.2</ele>
        <time>2021-07-04T05:49:35Z</time>
      </trkpt>
      <trkpt lat="47.50605" lon="-0.60415">
        <ele>50.2</ele>
        <time>2021-07-04T05:49:36Z</time>
      </trkpt>
      <trkpt lat="47.50601" lon="-0.60416">
        <ele>50</ele>
        <time>2021-07-04T05:49:37Z</time>
      </trkpt>
      <trkpt lat="47.50597" lon="-0.60418">
        <ele>49.6</ele>
        <time>2021-07-04T05:49:38Z</time>
      </trkpt>
      <trkpt lat="47.50593" lon="-0.6042">
        <ele>49</ele>
        <time>2021-07-04T05:49:39Z</time>
      </trkpt>
      <trkpt lat="47.50586" lon="-0.60425">
        <ele>48</ele>
        <time>2021-07-04T05:49:41Z</time>
      </trkpt>
      <trkpt lat="47.50579" lon="-0.60432">
        <ele>48.4</ele>
        <time>2021-07-04T05:49:43Z</time>
      </trkpt>
      <trkpt lat="47.50576" lon="-0.60435">
        <ele>48.6</ele>
        <time>2021-07-04T05:49:44Z</time>
      </trkpt>
      <trkpt lat="47.50571" lon="-0.60437">
        <ele>48.6</ele>
        <time>2021-07-04T05:49:45Z</time>
      </trkpt>
      <trkpt lat="47.50559" lon="-0.60439">
        <ele>48</ele>
        <time>2021-07-04T05:49:47Z</time>
      </trkpt>
      <trkpt lat="47.50548" lon="-0.6044">
        <ele>48</ele>
        <time>2021-07-04T05:49:49Z</time>
      </trkpt>
      <trkpt lat="47.50537" lon="-0.60443">
        <ele>48.2</ele>
        <time>2021-07-04T05:49:51Z</time>
      </trkpt>
      <trkpt lat="47.50531" lon="-0.60445">
        <ele>48.2</ele>
        <time>2021-07-04T05:49:52Z</time>
      </trkpt>
      <trkpt lat="47.50526" lon="-0.60447">
        <ele>48</ele>
        <time>2021-07-04T05:49:53Z</time>
      </trkpt>
      <trkpt lat="47.50516" lon="-0.6045">
        <ele>48</ele>
        <time>2021-07-04T05:49:55Z</time>
      </trkpt>
      <trkpt lat="47.50511" lon="-0.60456">
        <ele>48.2</ele>
        <time>2021-07-04T05:49:57Z</time>
      </trkpt>
      <trkpt lat="47.50505" lon="-0.60464">
        <ele>48</ele>
        <time>2021-07-04T05:49:59Z</time>
      </trkpt>
      <trkpt lat="47.50496" lon="-0.60469">
        <ele>47.6</ele>
        <time>2021-07-04T05:50:01Z</time>
      </trkpt>
      <trkpt lat="47.50487" lon="-0.60471">
        <ele>46.8</ele>
        <time>2021-07-04T05:50:03Z</time>
      </trkpt>
      <trkpt lat="47.50479" lon="-0.60471">
        <ele>46.4</ele>
        <time>2021-07-04T05:50:05Z</time>
      </trkpt>
      <trkpt lat="47.50474" lon="-0.60471">
        <ele>46.2</ele>
        <time>2021-07-04T05:50:06Z</time>
      </trkpt>
      <trkpt lat="47.50468" lon="-0.60473">
        <ele>46.4</ele>
        <time>2021-07-04T05:50:07Z</time>
      </trkpt>
      <trkpt lat="47.50455" lon="-0.60474">
        <ele>46.2</ele>
        <time>2021-07-04T05:50:09Z</time>
      </trkpt>
      <trkpt lat="47.50441" lon="-0.60474">
        <ele>46.4</ele>
        <time>2021-07-04T05:50:11Z</time>
      </trkpt>
      <trkpt lat="47.50427" lon="-0.60473">
        <ele>46.4</ele>
        <time>2021-07-04T05:50:13Z</time>
      </trkpt>
      <trkpt lat="47.5042" lon="-0.60472">
        <ele>46.2</ele>
        <time>2021-07-04T05:50:14Z</time>
      </trkpt>
      <trkpt lat="47.50414" lon="-0.6047">
        <ele>46.2</ele>
        <time>2021-07-04T05:50:15Z</time>
      </trkpt>
      <trkpt lat="47.50403" lon="-0.60464">
        <ele>46</ele>
        <time>2021-07-04T05:50:17Z</time>
      </trkpt>
      <trkpt lat="47.50398" lon="-0.6046">
        <ele>45.6</ele>
        <time>2021-07-04T05:50:18Z</time>
      </trkpt>
      <trkpt lat="47.50393" lon="-0.60456">
        <ele>45.8</ele>
        <time>2021-07-04T05:50:19Z</time>
      </trkpt>
      <trkpt lat="47.50383" lon="-0.60448">
        <ele>46.2</ele>
        <time>2021-07-04T05:50:21Z</time>
      </trkpt>
      <trkpt lat="47.50371" lon="-0.60441">
        <ele>46.2</ele>
        <time>2021-07-04T05:50:23Z</time>
      </trkpt>
      <trkpt lat="47.50359" lon="-0.60435">
        <ele>45.6</ele>
        <time>2021-07-04T05:50:25Z</time>
      </trkpt>
      <trkpt lat="47.50347" lon="-0.60429">
        <ele>46.2</ele>
        <time>2021-07-04T05:50:27Z</time>
      </trkpt>
      <trkpt lat="47.50341" lon="-0.60426">
        <ele>46.6</ele>
        <time>2021-07-04T05:50:28Z</time>
      </trkpt>
      <trkpt lat="47.50335" lon="-0.60423">
        <ele>46.6</ele>
        <time>2021-07-04T05:50:29Z</time>
      </trkpt>
      <trkpt lat="47.50328" lon="-0.60421">
        <ele>46.6</ele>
        <time>2021-07-04T05:50:30Z</time>
      </trkpt>
      <trkpt lat="47.50322" lon="-0.60421">
        <ele>46.6</ele>
        <time>2021-07-04T05:50:31Z</time>
      </trkpt>
      <trkpt lat="47.50316" lon="-0.60422">
        <ele>46.6</ele>
        <time>2021-07-04T05:50:32Z</time>
      </trkpt>
      <trkpt lat="47.5031" lon="-0.60423">
        <ele>46.2</ele>
        <time>2021-07-04T05:50:33Z</time>
      </trkpt>
      <trkpt lat="47.50305" lon="-0.60424">
        <ele>46.2</ele>
        <time>2021-07-04T05:50:34Z</time>
      </trkpt>
      <trkpt lat="47.50301" lon="-0.60425">
        <ele>46.4</ele>
        <time>2021-07-04T05:50:35Z</time>
      </trkpt>
      <trkpt lat="47.50299" lon="-0.60425">
        <ele>46.8</ele>
        <time>2021-07-04T05:50:36Z</time>
      </trkpt>
      <trkpt lat="47.50296" lon="-0.60424">
        <ele>46.6</ele>
        <time>2021-07-04T05:50:37Z</time>
      </trkpt>
      <trkpt lat="47.50291" lon="-0.60426">
        <ele>46.4</ele>
        <time>2021-07-04T05:50:39Z</time>
      </trkpt>
      <trkpt lat="47.5029" lon="-0.60428">
        <ele>46.4</ele>
        <time>2021-07-04T05:50:40Z</time>
      </trkpt>
      <trkpt lat="47.50289" lon="-0.60431">
        <ele>46.2</ele>
        <time>2021-07-04T05:50:41Z</time>
      </trkpt>
      <trkpt lat="47.50288" lon="-0.60439">
        <ele>46</ele>
        <time>2021-07-04T05:50:43Z</time>
      </trkpt>
      <trkpt lat="47.50288" lon="-0.60443">
        <ele>45.8</ele>
        <time>2021-07-04T05:50:44Z</time>
      </trkpt>
      <trkpt lat="47.50287" lon="-0.60446">
        <ele>45.8</ele>
        <time>2021-07-04T05:50:45Z</time>
      </trkpt>
      <trkpt lat="47.50281" lon="-0.60451">
        <ele>45.6</ele>
        <time>2021-07-04T05:50:47Z</time>
      </trkpt>
      <trkpt lat="47.50273" lon="-0.60455">
        <ele>44.8</ele>
        <time>2021-07-04T05:50:49Z</time>
      </trkpt>
      <trkpt lat="47.50268" lon="-0.60457">
        <ele>44.2</ele>
        <time>2021-07-04T05:50:50Z</time>
      </trkpt>
      <trkpt lat="47.50264" lon="-0.60458">
        <ele>44.4</ele>
        <time>2021-07-04T05:50:51Z</time>
      </trkpt>
      <trkpt lat="47.50259" lon="-0.60458">
        <ele>44</ele>
        <time>2021-07-04T05:50:52Z</time>
      </trkpt>
      <trkpt lat="47.50253" lon="-0.60459">
        <ele>43.6</ele>
        <time>2021-07-04T05:50:53Z</time>
      </trkpt>
      <trkpt lat="47.50247" lon="-0.6046">
        <ele>43</ele>
        <time>2021-07-04T05:50:54Z</time>
      </trkpt>
      <trkpt lat="47.50241" lon="-0.60464">
        <ele>42.8</ele>
        <time>2021-07-04T05:50:55Z</time>
      </trkpt>
      <trkpt lat="47.50229" lon="-0.60471">
        <ele>42.6</ele>
        <time>2021-07-04T05:50:57Z</time>
      </trkpt>
      <trkpt lat="47.50217" lon="-0.60477">
        <ele>42.2</ele>
        <time>2021-07-04T05:50:59Z</time>
      </trkpt>
      <trkpt lat="47.5021" lon="-0.6048">
        <ele>42.2</ele>
        <time>2021-07-04T05:51:00Z</time>
      </trkpt>
      <trkpt lat="47.50205" lon="-0.60483">
        <ele>42.2</ele>
        <time>2021-07-04T05:51:01Z</time>
      </trkpt>
      <trkpt lat="47.50193" lon="-0.6049">
        <ele>42</ele>
        <time>2021-07-04T05:51:03Z</time>
      </trkpt>
      <trkpt lat="47.50181" lon="-0.60497">
        <ele>42.2</ele>
        <time>2021-07-04T05:51:05Z</time>
      </trkpt>
      <trkpt lat="47.50174" lon="-0.605">
        <ele>42</ele>
        <time>2021-07-04T05:51:06Z</time>
      </trkpt>
      <trkpt lat="47.50168" lon="-0.60502">
        <ele>41.8</ele>
        <time>2021-07-04T05:51:07Z</time>
      </trkpt>
      <trkpt lat="47.50157" lon="-0.60506">
        <ele>42</ele>
        <time>2021-07-04T05:51:09Z</time>
      </trkpt>
      <trkpt lat="47.50147" lon="-0.60505">
        <ele>42</ele>
        <time>2021-07-04T05:51:11Z</time>
      </trkpt>
      <trkpt lat="47.50142" lon="-0.60502">
        <ele>42</ele>
        <time>2021-07-04T05:51:12Z</time>
      </trkpt>
      <trkpt lat="47.50137" lon="-0.60499">
        <ele>42</ele>
        <time>2021-07-04T05:51:13Z</time>
      </trkpt>
      <trkpt lat="47.50132" lon="-0.60495">
        <ele>41.8</ele>
        <time>2021-07-04T05:51:14Z</time>
      </trkpt>
      <trkpt lat="47.50126" lon="-0.60492">
        <ele>41.6</ele>
        <time>2021-07-04T05:51:15Z</time>
      </trkpt>
      <trkpt lat="47.50115" lon="-0.60483">
        <ele>41.2</ele>
        <time>2021-07-04T05:51:17Z</time>
      </trkpt>
      <trkpt lat="47.50104" lon="-0.60475">
        <ele>41.4</ele>
        <time>2021-07-04T05:51:19Z</time>
      </trkpt>
      <trkpt lat="47.5009" lon="-0.60469">
        <ele>41.6</ele>
        <time>2021-07-04T05:51:21Z</time>
      </trkpt>
      <trkpt lat="47.50077" lon="-0.60465">
        <ele>41.4</ele>
        <time>2021-07-04T05:51:23Z</time>
      </trkpt>
      <trkpt lat="47.50065" lon="-0.60458">
        <ele>41.2</ele>
        <time>2021-07-04T05:51:25Z</time>
      </trkpt>
      <trkpt lat="47.50058" lon="-0.60455">
        <ele>40.8</ele>
        <time>2021-07-04T05:51:26Z</time>
      </trkpt>
      <trkpt lat="47.50051" lon="-0.60454">
        <ele>40.6</ele>
        <time>2021-07-04T05:51:27Z</time>
      </trkpt>
      <trkpt lat="47.50039" lon="-0.6045">
        <ele>39.6</ele>
        <time>2021-07-04T05:51:29Z</time>
      </trkpt>
      <trkpt lat="47.50034" lon="-0.60449">
        <ele>39.2</ele>
        <time>2021-07-04T05:51:30Z</time>
      </trkpt>
      <trkpt lat="47.5003" lon="-0.60449">
        <ele>39.2</ele>
        <time>2021-07-04T05:51:31Z</time>
      </trkpt>
      <trkpt lat="47.50024" lon="-0.60451">
        <ele>39.8</ele>
        <time>2021-07-04T05:51:33Z</time>
      </trkpt>
      <trkpt lat="47.5002" lon="-0.60452">
        <ele>40</ele>
        <time>2021-07-04T05:51:34Z</time>
      </trkpt>
      <trkpt lat="47.50017" lon="-0.60454">
        <ele>39.8</ele>
        <time>2021-07-04T05:51:35Z</time>
      </trkpt>
      <trkpt lat="47.50018" lon="-0.60461">
        <ele>39.8</ele>
        <time>2021-07-04T05:51:36Z</time>
      </trkpt>
      <trkpt lat="47.50018" lon="-0.6047">
        <ele>39.8</ele>
        <time>2021-07-04T05:51:37Z</time>
      </trkpt>
      <trkpt lat="47.50017" lon="-0.60489">
        <ele>40</ele>
        <time>2021-07-04T05:51:39Z</time>
      </trkpt>
      <trkpt lat="47.50016" lon="-0.60508">
        <ele>39.8</ele>
        <time>2021-07-04T05:51:41Z</time>
      </trkpt>
      <trkpt lat="47.50015" lon="-0.60517">
        <ele>39.6</ele>
        <time>2021-07-04T05:51:42Z</time>
      </trkpt>
      <trkpt lat="47.50014" lon="-0.60527">
        <ele>39.6</ele>
        <time>2021-07-04T05:51:43Z</time>
      </trkpt>
      <trkpt lat="47.50011" lon="-0.60547">
        <ele>39.4</ele>
        <time>2021-07-04T05:51:45Z</time>
      </trkpt>
      <trkpt lat="47.50011" lon="-0.60556">
        <ele>39.4</ele>
        <time>2021-07-04T05:51:46Z</time>
      </trkpt>
      <trkpt lat="47.5001" lon="-0.60565">
        <ele>39.4</ele>
        <time>2021-07-04T05:51:47Z</time>
      </trkpt>
      <trkpt lat="47.50008" lon="-0.60585">
        <ele>39.2</ele>
        <time>2021-07-04T05:51:49Z</time>
      </trkpt>
      <trkpt lat="47.50005" lon="-0.60605">
        <ele>39</ele>
        <time>2021-07-04T05:51:51Z</time>
      </trkpt>
      <trkpt lat="47.50002" lon="-0.60625">
        <ele>39.2</ele>
        <time>2021-07-04T05:51:53Z</time>
      </trkpt>
      <trkpt lat="47.49999" lon="-0.60644">
        <ele>39</ele>
        <time>2021-07-04T05:51:55Z</time>
      </trkpt>
      <trkpt lat="47.49994" lon="-0.60664">
        <ele>38.6</ele>
        <time>2021-07-04T05:51:57Z</time>
      </trkpt>
      <trkpt lat="47.49989" lon="-0.60684">
        <ele>38.6</ele>
        <time>2021-07-04T05:51:59Z</time>
      </trkpt>
      <trkpt lat="47.49986" lon="-0.60694">
        <ele>38.6</ele>
        <time>2021-07-04T05:52:00Z</time>
      </trkpt>
      <trkpt lat="47.49982" lon="-0.60701">
        <ele>38.4</ele>
        <time>2021-07-04T05:52:01Z</time>
      </trkpt>
      <trkpt lat="47.49971" lon="-0.60713">
        <ele>38.6</ele>
        <time>2021-07-04T05:52:03Z</time>
      </trkpt>
      <trkpt lat="47.49966" lon="-0.60719">
        <ele>38.6</ele>
        <time>2021-07-04T05:52:04Z</time>
      </trkpt>
      <trkpt lat="47.4996" lon="-0.60725">
        <ele>38.6</ele>
        <time>2021-07-04T05:52:05Z</time>
      </trkpt>
      <trkpt lat="47.49955" lon="-0.60731">
        <ele>38.8</ele>
        <time>2021-07-04T05:52:06Z</time>
      </trkpt>
      <trkpt lat="47.49949" lon="-0.60736">
        <ele>39</ele>
        <time>2021-07-04T05:52:07Z</time>
      </trkpt>
      <trkpt lat="47.49938" lon="-0.60746">
        <ele>39</ele>
        <time>2021-07-04T05:52:09Z</time>
      </trkpt>
      <trkpt lat="47.49926" lon="-0.60754">
        <ele>38.4</ele>
        <time>2021-07-04T05:52:11Z</time>
      </trkpt>
      <trkpt lat="47.49914" lon="-0.60757">
        <ele>38.2</ele>
        <time>2021-07-04T05:52:13Z</time>
      </trkpt>
      <trkpt lat="47.49907" lon="-0.60759">
        <ele>38.4</ele>
        <time>2021-07-04T05:52:14Z</time>
      </trkpt>
      <trkpt lat="47.49901" lon="-0.60762">
        <ele>38.6</ele>
        <time>2021-07-04T05:52:15Z</time>
      </trkpt>
      <trkpt lat="47.49896" lon="-0.60768">
        <ele>38.8</ele>
        <time>2021-07-04T05:52:16Z</time>
      </trkpt>
      <trkpt lat="47.49893" lon="-0.60775">
        <ele>39.4</ele>
        <time>2021-07-04T05:52:17Z</time>
      </trkpt>
      <trkpt lat="47.4989" lon="-0.60782">
        <ele>39.6</ele>
        <time>2021-07-04T05:52:18Z</time>
      </trkpt>
      <trkpt lat="47.49887" lon="-0.6079">
        <ele>40</ele>
        <time>2021-07-04T05:52:19Z</time>
      </trkpt>
      <trkpt lat="47.49885" lon="-0.60798">
        <ele>40</ele>
        <time>2021-07-04T05:52:20Z</time>
      </trkpt>
      <trkpt lat="47.49883" lon="-0.60805">
        <ele>39.8</ele>
        <time>2021-07-04T05:52:21Z</time>
      </trkpt>
      <trkpt lat="47.4988" lon="-0.60819">
        <ele>40.6</ele>
        <time>2021-07-04T05:52:23Z</time>
      </trkpt>
      <trkpt lat="47.49878" lon="-0.60825">
        <ele>41.4</ele>
        <time>2021-07-04T05:52:24Z</time>
      </trkpt>
      <trkpt lat="47.49877" lon="-0.60832">
        <ele>42.2</ele>
        <time>2021-07-04T05:52:25Z</time>
      </trkpt>
      <trkpt lat="47.49876" lon="-0.60837">
        <ele>42.8</ele>
        <time>2021-07-04T05:52:26Z</time>
      </trkpt>
      <trkpt lat="47.49874" lon="-0.60842">
        <ele>43.2</ele>
        <time>2021-07-04T05:52:27Z</time>
      </trkpt>
      <trkpt lat="47.49872" lon="-0.60845">
        <ele>44</ele>
        <time>2021-07-04T05:52:28Z</time>
      </trkpt>
      <trkpt lat="47.4987" lon="-0.60848">
        <ele>43.6</ele>
        <time>2021-07-04T05:52:29Z</time>
      </trkpt>
      <trkpt lat="47.49867" lon="-0.6085">
        <ele>42.4</ele>
        <time>2021-07-04T05:52:30Z</time>
      </trkpt>
      <trkpt lat="47.49865" lon="-0.60851">
        <ele>41.4</ele>
        <time>2021-07-04T05:52:31Z</time>
      </trkpt>
      <trkpt lat="47.49864" lon="-0.60852">
        <ele>40.4</ele>
        <time>2021-07-04T05:52:32Z</time>
      </trkpt>
      <trkpt lat="47.49861" lon="-0.60853">
        <ele>39.2</ele>
        <time>2021-07-04T05:52:33Z</time>
      </trkpt>
      <trkpt lat="47.49857" lon="-0.6085">
        <ele>37.4</ele>
        <time>2021-07-04T05:52:35Z</time>
      </trkpt>
      <trkpt lat="47.49849" lon="-0.60853">
        <ele>36.2</ele>
        <time>2021-07-04T05:52:37Z</time>
      </trkpt>
      <trkpt lat="47.49843" lon="-0.60857">
        <ele>35.6</ele>
        <time>2021-07-04T05:52:38Z</time>
      </trkpt>
      <trkpt lat="47.49838" lon="-0.60863">
        <ele>34.6</ele>
        <time>2021-07-04T05:52:39Z</time>
      </trkpt>
      <trkpt lat="47.49833" lon="-0.60869">
        <ele>34.2</ele>
        <time>2021-07-04T05:52:40Z</time>
      </trkpt>
      <trkpt lat="47.49828" lon="-0.60876">
        <ele>34</ele>
        <time>2021-07-04T05:52:41Z</time>
      </trkpt>
      <trkpt lat="47.49822" lon="-0.60884">
        <ele>33.6</ele>
        <time>2021-07-04T05:52:42Z</time>
      </trkpt>
      <trkpt lat="47.49817" lon="-0.60891">
        <ele>33.2</ele>
        <time>2021-07-04T05:52:43Z</time>
      </trkpt>
      <trkpt lat="47.49806" lon="-0.60905">
        <ele>32.8</ele>
        <time>2021-07-04T05:52:45Z</time>
      </trkpt>
      <trkpt lat="47.49796" lon="-0.60919">
        <ele>32.6</ele>
        <time>2021-07-04T05:52:47Z</time>
      </trkpt>
      <trkpt lat="47.49785" lon="-0.60934">
        <ele>32.4</ele>
        <time>2021-07-04T05:52:49Z</time>
      </trkpt>
      <trkpt lat="47.49774" lon="-0.60948">
        <ele>31.6</ele>
        <time>2021-07-04T05:52:51Z</time>
      </trkpt>
      <trkpt lat="47.49769" lon="-0.60954">
        <ele>30.8</ele>
        <time>2021-07-04T05:52:52Z</time>
      </trkpt>
      <trkpt lat="47.49764" lon="-0.60961">
        <ele>30.6</ele>
        <time>2021-07-04T05:52:53Z</time>
      </trkpt>
      <trkpt lat="47.49754" lon="-0.60974">
        <ele>30.8</ele>
        <time>2021-07-04T05:52:55Z</time>
      </trkpt>
      <trkpt lat="47.49745" lon="-0.60986">
        <ele>30.4</ele>
        <time>2021-07-04T05:52:57Z</time>
      </trkpt>
      <trkpt lat="47.49742" lon="-0.60991">
        <ele>31</ele>
        <time>2021-07-04T05:52:58Z</time>
      </trkpt>
      <trkpt lat="47.49739" lon="-0.60994">
        <ele>31.4</ele>
        <time>2021-07-04T05:52:59Z</time>
      </trkpt>
      <trkpt lat="47.49737" lon="-0.60997">
        <ele>32</ele>
        <time>2021-07-04T05:53:00Z</time>
      </trkpt>
      <trkpt lat="47.49734" lon="-0.60998">
        <ele>31.8</ele>
        <time>2021-07-04T05:53:01Z</time>
      </trkpt>
      <trkpt lat="47.49732" lon="-0.60997">
        <ele>31.8</ele>
        <time>2021-07-04T05:53:02Z</time>
      </trkpt>
      <trkpt lat="47.49729" lon="-0.60996">
        <ele>31.4</ele>
        <time>2021-07-04T05:53:03Z</time>
      </trkpt>
      <trkpt lat="47.49721" lon="-0.60989">
        <ele>31.4</ele>
        <time>2021-07-04T05:53:05Z</time>
      </trkpt>
      <trkpt lat="47.49715" lon="-0.60985">
        <ele>33.4</ele>
        <time>2021-07-04T05:53:07Z</time>
      </trkpt>
      <trkpt lat="47.49712" lon="-0.60986">
        <ele>34.4</ele>
        <time>2021-07-04T05:53:08Z</time>
      </trkpt>
      <trkpt lat="47.49709" lon="-0.60987">
        <ele>34.8</ele>
        <time>2021-07-04T05:53:09Z</time>
      </trkpt>
      <trkpt lat="47.49704" lon="-0.60992">
        <ele>34.4</ele>
        <time>2021-07-04T05:53:11Z</time>
      </trkpt>
      <trkpt lat="47.49702" lon="-0.60996">
        <ele>33.8</ele>
        <time>2021-07-04T05:53:12Z</time>
      </trkpt>
      <trkpt lat="47.49696" lon="-0.60999">
        <ele>33.4</ele>
        <time>2021-07-04T05:53:13Z</time>
      </trkpt>
      <trkpt lat="47.49686" lon="-0.60997">
        <ele>33</ele>
        <time>2021-07-04T05:53:15Z</time>
      </trkpt>
      <trkpt lat="47.49678" lon="-0.6099">
        <ele>32.2</ele>
        <time>2021-07-04T05:53:17Z</time>
      </trkpt>
      <trkpt lat="47.49674" lon="-0.60986">
        <ele>32.2</ele>
        <time>2021-07-04T05:53:18Z</time>
      </trkpt>
      <trkpt lat="47.4967" lon="-0.60981">
        <ele>32.4</ele>
        <time>2021-07-04T05:53:19Z</time>
      </trkpt>
      <trkpt lat="47.49661" lon="-0.60971">
        <ele>32.2</ele>
        <time>2021-07-04T05:53:21Z</time>
      </trkpt>
      <trkpt lat="47.49652" lon="-0.6096">
        <ele>32</ele>
        <time>2021-07-04T05:53:23Z</time>
      </trkpt>
      <trkpt lat="47.4964" lon="-0.60949">
        <ele>31.8</ele>
        <time>2021-07-04T05:53:25Z</time>
      </trkpt>
      <trkpt lat="47.49634" lon="-0.60942">
        <ele>31.6</ele>
        <time>2021-07-04T05:53:26Z</time>
      </trkpt>
      <trkpt lat="47.49629" lon="-0.60934">
        <ele>31.6</ele>
        <time>2021-07-04T05:53:27Z</time>
      </trkpt>
      <trkpt lat="47.49621" lon="-0.60918">
        <ele>31.6</ele>
        <time>2021-07-04T05:53:29Z</time>
      </trkpt>
      <trkpt lat="47.49614" lon="-0.60901">
        <ele>31.8</ele>
        <time>2021-07-04T05:53:31Z</time>
      </trkpt>
      <trkpt lat="47.49607" lon="-0.60886">
        <ele>32</ele>
        <time>2021-07-04T05:53:33Z</time>
      </trkpt>
      <trkpt lat="47.49602" lon="-0.6087">
        <ele>32.2</ele>
        <time>2021-07-04T05:53:35Z</time>
      </trkpt>
      <trkpt lat="47.49597" lon="-0.60855">
        <ele>32.6</ele>
        <time>2021-07-04T05:53:37Z</time>
      </trkpt>
      <trkpt lat="47.49593" lon="-0.6084">
        <ele>32.8</ele>
        <time>2021-07-04T05:53:39Z</time>
      </trkpt>
      <trkpt lat="47.4959" lon="-0.60824">
        <ele>33</ele>
        <time>2021-07-04T05:53:41Z</time>
      </trkpt>
      <trkpt lat="47.49586" lon="-0.60806">
        <ele>33.2</ele>
        <time>2021-07-04T05:53:43Z</time>
      </trkpt>
      <trkpt lat="47.49584" lon="-0.60798">
        <ele>33.2</ele>
        <time>2021-07-04T05:53:44Z</time>
      </trkpt>
      <trkpt lat="47.49583" lon="-0.6079">
        <ele>33.6</ele>
        <time>2021-07-04T05:53:45Z</time>
      </trkpt>
      <trkpt lat="47.4958" lon="-0.60774">
        <ele>34.2</ele>
        <time>2021-07-04T05:53:47Z</time>
      </trkpt>
      <trkpt lat="47.49578" lon="-0.60759">
        <ele>34.8</ele>
        <time>2021-07-04T05:53:49Z</time>
      </trkpt>
      <trkpt lat="47.49577" lon="-0.60751">
        <ele>35</ele>
        <time>2021-07-04T05:53:50Z</time>
      </trkpt>
      <trkpt lat="47.49577" lon="-0.60743">
        <ele>35</ele>
        <time>2021-07-04T05:53:51Z</time>
      </trkpt>
      <trkpt lat="47.49575" lon="-0.60728">
        <ele>35</ele>
        <time>2021-07-04T05:53:53Z</time>
      </trkpt>
      <trkpt lat="47.49573" lon="-0.60713">
        <ele>35.4</ele>
        <time>2021-07-04T05:53:55Z</time>
      </trkpt>
      <trkpt lat="47.49572" lon="-0.60705">
        <ele>35.6</ele>
        <time>2021-07-04T05:53:56Z</time>
      </trkpt>
      <trkpt lat="47.49571" lon="-0.60697">
        <ele>35.8</ele>
        <time>2021-07-04T05:53:57Z</time>
      </trkpt>
      <trkpt lat="47.49569" lon="-0.60681">
        <ele>36</ele>
        <time>2021-07-04T05:53:59Z</time>
      </trkpt>
      <trkpt lat="47.49567" lon="-0.60666">
        <ele>36.4</ele>
        <time>2021-07-04T05:54:01Z</time>
      </trkpt>
      <trkpt lat="47.49564" lon="-0.60651">
        <ele>36.2</ele>
        <time>2021-07-04T05:54:03Z</time>
      </trkpt>
      <trkpt lat="47.49562" lon="-0.60636">
        <ele>36.4</ele>
        <time>2021-07-04T05:54:05Z</time>
      </trkpt>
      <trkpt lat="47.49559" lon="-0.6062">
        <ele>36.4</ele>
        <time>2021-07-04T05:54:07Z</time>
      </trkpt>
      <trkpt lat="47.49555" lon="-0.60605">
        <ele>36.6</ele>
        <time>2021-07-04T05:54:09Z</time>
      </trkpt>
      <trkpt lat="47.49552" lon="-0.60589">
        <ele>36.6</ele>
        <time>2021-07-04T05:54:11Z</time>
      </trkpt>
      <trkpt lat="47.4955" lon="-0.60575">
        <ele>36.6</ele>
        <time>2021-07-04T05:54:13Z</time>
      </trkpt>
      <trkpt lat="47.49547" lon="-0.6056">
        <ele>36.6</ele>
        <time>2021-07-04T05:54:15Z</time>
      </trkpt>
      <trkpt lat="47.49545" lon="-0.60552">
        <ele>36.4</ele>
        <time>2021-07-04T05:54:16Z</time>
      </trkpt>
      <trkpt lat="47.49544" lon="-0.60544">
        <ele>36.6</ele>
        <time>2021-07-04T05:54:17Z</time>
      </trkpt>
      <trkpt lat="47.4954" lon="-0.60525">
        <ele>37</ele>
        <time>2021-07-04T05:54:19Z</time>
      </trkpt>
      <trkpt lat="47.49536" lon="-0.60507">
        <ele>37</ele>
        <time>2021-07-04T05:54:21Z</time>
      </trkpt>
      <trkpt lat="47.49533" lon="-0.60489">
        <ele>36.8</ele>
        <time>2021-07-04T05:54:23Z</time>
      </trkpt>
      <trkpt lat="47.4953" lon="-0.60472">
        <ele>36.8</ele>
        <time>2021-07-04T05:54:25Z</time>
      </trkpt>
      <trkpt lat="47.49529" lon="-0.60464">
        <ele>37.2</ele>
        <time>2021-07-04T05:54:26Z</time>
      </trkpt>
      <trkpt lat="47.49528" lon="-0.60456">
        <ele>37.4</ele>
        <time>2021-07-04T05:54:27Z</time>
      </trkpt>
      <trkpt lat="47.49527" lon="-0.60449">
        <ele>37.8</ele>
        <time>2021-07-04T05:54:28Z</time>
      </trkpt>
      <trkpt lat="47.49526" lon="-0.60441">
        <ele>38.2</ele>
        <time>2021-07-04T05:54:29Z</time>
      </trkpt>
      <trkpt lat="47.49524" lon="-0.60426">
        <ele>38.6</ele>
        <time>2021-07-04T05:54:31Z</time>
      </trkpt>
      <trkpt lat="47.49522" lon="-0.60419">
        <ele>38.6</ele>
        <time>2021-07-04T05:54:32Z</time>
      </trkpt>
      <trkpt lat="47.49521" lon="-0.60411">
        <ele>39</ele>
        <time>2021-07-04T05:54:33Z</time>
      </trkpt>
      <trkpt lat="47.49518" lon="-0.60395">
        <ele>39</ele>
        <time>2021-07-04T05:54:35Z</time>
      </trkpt>
      <trkpt lat="47.49516" lon="-0.6038">
        <ele>38.6</ele>
        <time>2021-07-04T05:54:37Z</time>
      </trkpt>
      <trkpt lat="47.49514" lon="-0.60365">
        <ele>38.8</ele>
        <time>2021-07-04T05:54:39Z</time>
      </trkpt>
      <trkpt lat="47.49511" lon="-0.60351">
        <ele>39.2</ele>
        <time>2021-07-04T05:54:41Z</time>
      </trkpt>
      <trkpt lat="47.4951" lon="-0.60337">
        <ele>39.6</ele>
        <time>2021-07-04T05:54:43Z</time>
      </trkpt>
      <trkpt lat="47.49507" lon="-0.60329">
        <ele>40</ele>
        <time>2021-07-04T05:54:45Z</time>
      </trkpt>
      <trkpt lat="47.49505" lon="-0.60327">
        <ele>40.2</ele>
        <time>2021-07-04T05:54:46Z</time>
      </trkpt>
      <trkpt lat="47.49503" lon="-0.60326">
        <ele>40.4</ele>
        <time>2021-07-04T05:54:47Z</time>
      </trkpt>
      <trkpt lat="47.495" lon="-0.60324">
        <ele>40.6</ele>
        <time>2021-07-04T05:54:49Z</time>
      </trkpt>
      <trkpt lat="47.49496" lon="-0.60323">
        <ele>41</ele>
        <time>2021-07-04T05:54:55Z</time>
      </trkpt>
      <trkpt lat="47.49489" lon="-0.60321">
        <ele>40.8</ele>
        <time>2021-07-04T05:54:57Z</time>
      </trkpt>
      <trkpt lat="47.49481" lon="-0.6032">
        <ele>40.2</ele>
        <time>2021-07-04T05:54:59Z</time>
      </trkpt>
      <trkpt lat="47.49472" lon="-0.6032">
        <ele>39.6</ele>
        <time>2021-07-04T05:55:01Z</time>
      </trkpt>
      <trkpt lat="47.49467" lon="-0.60321">
        <ele>39.4</ele>
        <time>2021-07-04T05:55:02Z</time>
      </trkpt>
      <trkpt lat="47.49462" lon="-0.60322">
        <ele>39.6</ele>
        <time>2021-07-04T05:55:03Z</time>
      </trkpt>
      <trkpt lat="47.49452" lon="-0.60325">
        <ele>39.2</ele>
        <time>2021-07-04T05:55:05Z</time>
      </trkpt>
      <trkpt lat="47.49446" lon="-0.60327">
        <ele>39</ele>
        <time>2021-07-04T05:55:06Z</time>
      </trkpt>
      <trkpt lat="47.49441" lon="-0.60328">
        <ele>38.8</ele>
        <time>2021-07-04T05:55:07Z</time>
      </trkpt>
      <trkpt lat="47.49431" lon="-0.60332">
        <ele>38.6</ele>
        <time>2021-07-04T05:55:09Z</time>
      </trkpt>
      <trkpt lat="47.49426" lon="-0.60333">
        <ele>38.6</ele>
        <time>2021-07-04T05:55:10Z</time>
      </trkpt>
      <trkpt lat="47.49421" lon="-0.60334">
        <ele>38.4</ele>
        <time>2021-07-04T05:55:11Z</time>
      </trkpt>
      <trkpt lat="47.49416" lon="-0.60336">
        <ele>38.2</ele>
        <time>2021-07-04T05:55:12Z</time>
      </trkpt>
      <trkpt lat="47.49411" lon="-0.60338">
        <ele>38.2</ele>
        <time>2021-07-04T05:55:13Z</time>
      </trkpt>
      <trkpt lat="47.49406" lon="-0.60339">
        <ele>38</ele>
        <time>2021-07-04T05:55:14Z</time>
      </trkpt>
      <trkpt lat="47.494" lon="-0.60338">
        <ele>38</ele>
        <time>2021-07-04T05:55:15Z</time>
      </trkpt>
      <trkpt lat="47.49393" lon="-0.60327">
        <ele>37.8</ele>
        <time>2021-07-04T05:55:17Z</time>
      </trkpt>
      <trkpt lat="47.49391" lon="-0.6032">
        <ele>37.6</ele>
        <time>2021-07-04T05:55:18Z</time>
      </trkpt>
      <trkpt lat="47.49389" lon="-0.60312">
        <ele>37.6</ele>
        <time>2021-07-04T05:55:19Z</time>
      </trkpt>
      <trkpt lat="47.49388" lon="-0.60305">
        <ele>37.6</ele>
        <time>2021-07-04T05:55:20Z</time>
      </trkpt>
      <trkpt lat="47.49387" lon="-0.60297">
        <ele>37.6</ele>
        <time>2021-07-04T05:55:21Z</time>
      </trkpt>
      <trkpt lat="47.49384" lon="-0.60281">
        <ele>37.4</ele>
        <time>2021-07-04T05:55:23Z</time>
      </trkpt>
      <trkpt lat="47.49382" lon="-0.60264">
        <ele>37.4</ele>
        <time>2021-07-04T05:55:25Z</time>
      </trkpt>
      <trkpt lat="47.49379" lon="-0.60247">
        <ele>37.8</ele>
        <time>2021-07-04T05:55:27Z</time>
      </trkpt>
      <trkpt lat="47.49377" lon="-0.60231">
        <ele>38</ele>
        <time>2021-07-04T05:55:29Z</time>
      </trkpt>
      <trkpt lat="47.49373" lon="-0.60215">
        <ele>38.6</ele>
        <time>2021-07-04T05:55:31Z</time>
      </trkpt>
      <trkpt lat="47.4937" lon="-0.60199">
        <ele>38.4</ele>
        <time>2021-07-04T05:55:33Z</time>
      </trkpt>
      <trkpt lat="47.49367" lon="-0.60182">
        <ele>38.2</ele>
        <time>2021-07-04T05:55:35Z</time>
      </trkpt>
      <trkpt lat="47.49363" lon="-0.60166">
        <ele>38</ele>
        <time>2021-07-04T05:55:37Z</time>
      </trkpt>
      <trkpt lat="47.49361" lon="-0.60157">
        <ele>37.8</ele>
        <time>2021-07-04T05:55:38Z</time>
      </trkpt>
      <trkpt lat="47.4936" lon="-0.60149">
        <ele>37.8</ele>
        <time>2021-07-04T05:55:39Z</time>
      </trkpt>
      <trkpt lat="47.49356" lon="-0.60132">
        <ele>38</ele>
        <time>2021-07-04T05:55:41Z</time>
      </trkpt>
      <trkpt lat="47.49352" lon="-0.60114">
        <ele>37.8</ele>
        <time>2021-07-04T05:55:43Z</time>
      </trkpt>
      <trkpt lat="47.49348" lon="-0.60097">
        <ele>37.8</ele>
        <time>2021-07-04T05:55:45Z</time>
      </trkpt>
      <trkpt lat="47.49346" lon="-0.60088">
        <ele>37.6</ele>
        <time>2021-07-04T05:55:46Z</time>
      </trkpt>
      <trkpt lat="47.49344" lon="-0.60079">
        <ele>37.8</ele>
        <time>2021-07-04T05:55:47Z</time>
      </trkpt>
      <trkpt lat="47.49339" lon="-0.60061">
        <ele>37.6</ele>
        <time>2021-07-04T05:55:49Z</time>
      </trkpt>
      <trkpt lat="47.49335" lon="-0.60043">
        <ele>37.4</ele>
        <time>2021-07-04T05:55:51Z</time>
      </trkpt>
      <trkpt lat="47.49329" lon="-0.60027">
        <ele>37.2</ele>
        <time>2021-07-04T05:55:53Z</time>
      </trkpt>
      <trkpt lat="47.49325" lon="-0.60019">
        <ele>36.8</ele>
        <time>2021-07-04T05:55:54Z</time>
      </trkpt>
      <trkpt lat="47.49319" lon="-0.60013">
        <ele>36.6</ele>
        <time>2021-07-04T05:55:55Z</time>
      </trkpt>
      <trkpt lat="47.49314" lon="-0.60007">
        <ele>36.4</ele>
        <time>2021-07-04T05:55:56Z</time>
      </trkpt>
      <trkpt lat="47.49308" lon="-0.60002">
        <ele>36.2</ele>
        <time>2021-07-04T05:55:57Z</time>
      </trkpt>
      <trkpt lat="47.49301" lon="-0.59997">
        <ele>36</ele>
        <time>2021-07-04T05:55:58Z</time>
      </trkpt>
      <trkpt lat="47.49295" lon="-0.59992">
        <ele>36</ele>
        <time>2021-07-04T05:55:59Z</time>
      </trkpt>
      <trkpt lat="47.49282" lon="-0.59982">
        <ele>35.4</ele>
        <time>2021-07-04T05:56:01Z</time>
      </trkpt>
      <trkpt lat="47.49271" lon="-0.59971">
        <ele>35.2</ele>
        <time>2021-07-04T05:56:03Z</time>
      </trkpt>
      <trkpt lat="47.4926" lon="-0.5996">
        <ele>35.6</ele>
        <time>2021-07-04T05:56:05Z</time>
      </trkpt>
      <trkpt lat="47.49255" lon="-0.59954">
        <ele>35.4</ele>
        <time>2021-07-04T05:56:06Z</time>
      </trkpt>
      <trkpt lat="47.4925" lon="-0.59948">
        <ele>35.2</ele>
        <time>2021-07-04T05:56:07Z</time>
      </trkpt>
      <trkpt lat="47.4924" lon="-0.59935">
        <ele>35</ele>
        <time>2021-07-04T05:56:09Z</time>
      </trkpt>
      <trkpt lat="47.49231" lon="-0.59925">
        <ele>35.2</ele>
        <time>2021-07-04T05:56:11Z</time>
      </trkpt>
      <trkpt lat="47.49225" lon="-0.59921">
        <ele>35.4</ele>
        <time>2021-07-04T05:56:12Z</time>
      </trkpt>
      <trkpt lat="47.49219" lon="-0.59918">
        <ele>35.4</ele>
        <time>2021-07-04T05:56:13Z</time>
      </trkpt>
      <trkpt lat="47.49206" lon="-0.59914">
        <ele>35.8</ele>
        <time>2021-07-04T05:56:15Z</time>
      </trkpt>
      <trkpt lat="47.49199" lon="-0.59911">
        <ele>36</ele>
        <time>2021-07-04T05:56:16Z</time>
      </trkpt>
      <trkpt lat="47.49192" lon="-0.59909">
        <ele>36</ele>
        <time>2021-07-04T05:56:17Z</time>
      </trkpt>
      <trkpt lat="47.49186" lon="-0.59907">
        <ele>36</ele>
        <time>2021-07-04T05:56:18Z</time>
      </trkpt>
      <trkpt lat="47.4918" lon="-0.59905">
        <ele>36.2</ele>
        <time>2021-07-04T05:56:19Z</time>
      </trkpt>
      <trkpt lat="47.49167" lon="-0.599">
        <ele>36.2</ele>
        <time>2021-07-04T05:56:21Z</time>
      </trkpt>
      <trkpt lat="47.49155" lon="-0.59896">
        <ele>36.8</ele>
        <time>2021-07-04T05:56:23Z</time>
      </trkpt>
      <trkpt lat="47.49149" lon="-0.59893">
        <ele>37</ele>
        <time>2021-07-04T05:56:24Z</time>
      </trkpt>
      <trkpt lat="47.49143" lon="-0.59892">
        <ele>37</ele>
        <time>2021-07-04T05:56:25Z</time>
      </trkpt>
      <trkpt lat="47.49131" lon="-0.5989">
        <ele>37.2</ele>
        <time>2021-07-04T05:56:27Z</time>
      </trkpt>
      <trkpt lat="47.4912" lon="-0.5989">
        <ele>37.8</ele>
        <time>2021-07-04T05:56:29Z</time>
      </trkpt>
      <trkpt lat="47.4911" lon="-0.59891">
        <ele>38.2</ele>
        <time>2021-07-04T05:56:31Z</time>
      </trkpt>
      <trkpt lat="47.49105" lon="-0.59893">
        <ele>38.6</ele>
        <time>2021-07-04T05:56:32Z</time>
      </trkpt>
      <trkpt lat="47.49102" lon="-0.59896">
        <ele>39</ele>
        <time>2021-07-04T05:56:33Z</time>
      </trkpt>
      <trkpt lat="47.49098" lon="-0.599">
        <ele>39.2</ele>
        <time>2021-07-04T05:56:34Z</time>
      </trkpt>
      <trkpt lat="47.49094" lon="-0.59903">
        <ele>39.4</ele>
        <time>2021-07-04T05:56:35Z</time>
      </trkpt>
      <trkpt lat="47.49089" lon="-0.59906">
        <ele>39.6</ele>
        <time>2021-07-04T05:56:36Z</time>
      </trkpt>
      <trkpt lat="47.49085" lon="-0.59909">
        <ele>39.6</ele>
        <time>2021-07-04T05:56:37Z</time>
      </trkpt>
      <trkpt lat="47.49077" lon="-0.59918">
        <ele>39.8</ele>
        <time>2021-07-04T05:56:39Z</time>
      </trkpt>
      <trkpt lat="47.49074" lon="-0.59925">
        <ele>39.6</ele>
        <time>2021-07-04T05:56:40Z</time>
      </trkpt>
      <trkpt lat="47.49071" lon="-0.59932">
        <ele>39.4</ele>
        <time>2021-07-04T05:56:41Z</time>
      </trkpt>
      <trkpt lat="47.49066" lon="-0.59948">
        <ele>39</ele>
        <time>2021-07-04T05:56:43Z</time>
      </trkpt>
      <trkpt lat="47.49061" lon="-0.59964">
        <ele>38.4</ele>
        <time>2021-07-04T05:56:45Z</time>
      </trkpt>
      <trkpt lat="47.49056" lon="-0.5998">
        <ele>37.8</ele>
        <time>2021-07-04T05:56:47Z</time>
      </trkpt>
      <trkpt lat="47.49051" lon="-0.59995">
        <ele>38</ele>
        <time>2021-07-04T05:56:49Z</time>
      </trkpt>
      <trkpt lat="47.49046" lon="-0.60011">
        <ele>38.4</ele>
        <time>2021-07-04T05:56:51Z</time>
      </trkpt>
      <trkpt lat="47.49044" lon="-0.60019">
        <ele>37.6</ele>
        <time>2021-07-04T05:56:52Z</time>
      </trkpt>
      <trkpt lat="47.49041" lon="-0.60027">
        <ele>37.8</ele>
        <time>2021-07-04T05:56:53Z</time>
      </trkpt>
      <trkpt lat="47.49036" lon="-0.60043">
        <ele>38</ele>
        <time>2021-07-04T05:56:55Z</time>
      </trkpt>
      <trkpt lat="47.49031" lon="-0.60058">
        <ele>38</ele>
        <time>2021-07-04T05:56:57Z</time>
      </trkpt>
      <trkpt lat="47.49026" lon="-0.60073">
        <ele>38.4</ele>
        <time>2021-07-04T05:56:59Z</time>
      </trkpt>
      <trkpt lat="47.49022" lon="-0.60087">
        <ele>38.6</ele>
        <time>2021-07-04T05:57:01Z</time>
      </trkpt>
      <trkpt lat="47.49018" lon="-0.601">
        <ele>38.8</ele>
        <time>2021-07-04T05:57:03Z</time>
      </trkpt>
      <trkpt lat="47.49014" lon="-0.60113">
        <ele>39</ele>
        <time>2021-07-04T05:57:05Z</time>
      </trkpt>
      <trkpt lat="47.49011" lon="-0.60117">
        <ele>38.8</ele>
        <time>2021-07-04T05:57:06Z</time>
      </trkpt>
      <trkpt lat="47.49007" lon="-0.6012">
        <ele>39</ele>
        <time>2021-07-04T05:57:07Z</time>
      </trkpt>
      <trkpt lat="47.48998" lon="-0.6012">
        <ele>39.2</ele>
        <time>2021-07-04T05:57:09Z</time>
      </trkpt>
      <trkpt lat="47.48992" lon="-0.60119">
        <ele>39.2</ele>
        <time>2021-07-04T05:57:10Z</time>
      </trkpt>
      <trkpt lat="47.48988" lon="-0.60119">
        <ele>39.4</ele>
        <time>2021-07-04T05:57:11Z</time>
      </trkpt>
      <trkpt lat="47.48977" lon="-0.6012">
        <ele>40</ele>
        <time>2021-07-04T05:57:13Z</time>
      </trkpt>
      <trkpt lat="47.48968" lon="-0.6012">
        <ele>40.4</ele>
        <time>2021-07-04T05:57:15Z</time>
      </trkpt>
      <trkpt lat="47.48958" lon="-0.60119">
        <ele>41.6</ele>
        <time>2021-07-04T05:57:17Z</time>
      </trkpt>
      <trkpt lat="47.48954" lon="-0.6012">
        <ele>41.8</ele>
        <time>2021-07-04T05:57:18Z</time>
      </trkpt>
      <trkpt lat="47.48949" lon="-0.6012">
        <ele>42</ele>
        <time>2021-07-04T05:57:19Z</time>
      </trkpt>
      <trkpt lat="47.4894" lon="-0.60121">
        <ele>42.8</ele>
        <time>2021-07-04T05:57:21Z</time>
      </trkpt>
      <trkpt lat="47.48931" lon="-0.60122">
        <ele>43.2</ele>
        <time>2021-07-04T05:57:23Z</time>
      </trkpt>
      <trkpt lat="47.48923" lon="-0.60124">
        <ele>43.6</ele>
        <time>2021-07-04T05:57:25Z</time>
      </trkpt>
      <trkpt lat="47.48919" lon="-0.60125">
        <ele>44</ele>
        <time>2021-07-04T05:57:26Z</time>
      </trkpt>
      <trkpt lat="47.48916" lon="-0.60126">
        <ele>44.6</ele>
        <time>2021-07-04T05:57:27Z</time>
      </trkpt>
      <trkpt lat="47.4891" lon="-0.60128">
        <ele>45.2</ele>
        <time>2021-07-04T05:57:29Z</time>
      </trkpt>
      <trkpt lat="47.48904" lon="-0.60129">
        <ele>46.4</ele>
        <time>2021-07-04T05:57:31Z</time>
      </trkpt>
      <trkpt lat="47.48901" lon="-0.60129">
        <ele>47</ele>
        <time>2021-07-04T05:57:32Z</time>
      </trkpt>
      <trkpt lat="47.48897" lon="-0.6013">
        <ele>47.6</ele>
        <time>2021-07-04T05:57:33Z</time>
      </trkpt>
      <trkpt lat="47.48893" lon="-0.60132">
        <ele>48.2</ele>
        <time>2021-07-04T05:57:35Z</time>
      </trkpt>
      <trkpt lat="47.48892" lon="-0.60134">
        <ele>48.2</ele>
        <time>2021-07-04T05:57:36Z</time>
      </trkpt>
      <trkpt lat="47.48892" lon="-0.60135">
        <ele>48.4</ele>
        <time>2021-07-04T05:57:37Z</time>
      </trkpt>
      <trkpt lat="47.48892" lon="-0.60139">
        <ele>48.6</ele>
        <time>2021-07-04T05:57:38Z</time>
      </trkpt>
      <trkpt lat="47.48893" lon="-0.60142">
        <ele>48.6</ele>
        <time>2021-07-04T05:57:39Z</time>
      </trkpt>
      <trkpt lat="47.48895" lon="-0.6015">
        <ele>48.6</ele>
        <time>2021-07-04T05:57:41Z</time>
      </trkpt>
      <trkpt lat="47.48896" lon="-0.60156">
        <ele>48.6</ele>
        <time>2021-07-04T05:57:42Z</time>
      </trkpt>
      <trkpt lat="47.48898" lon="-0.60162">
        <ele>48.2</ele>
        <time>2021-07-04T05:57:43Z</time>
      </trkpt>
      <trkpt lat="47.48899" lon="-0.60175">
        <ele>47.8</ele>
        <time>2021-07-04T05:57:45Z</time>
      </trkpt>
      <trkpt lat="47.48898" lon="-0.6018">
        <ele>47.4</ele>
        <time>2021-07-04T05:57:46Z</time>
      </trkpt>
      <trkpt lat="47.48898" lon="-0.60185">
        <ele>47.4</ele>
        <time>2021-07-04T05:57:47Z</time>
      </trkpt>
      <trkpt lat="47.48898" lon="-0.60191">
        <ele>47.4</ele>
        <time>2021-07-04T05:57:48Z</time>
      </trkpt>
      <trkpt lat="47.48899" lon="-0.60197">
        <ele>47.6</ele>
        <time>2021-07-04T05:57:49Z</time>
      </trkpt>
      <trkpt lat="47.48903" lon="-0.6021">
        <ele>47.4</ele>
        <time>2021-07-04T05:57:51Z</time>
      </trkpt>
      <trkpt lat="47.48906" lon="-0.60226">
        <ele>47</ele>
        <time>2021-07-04T05:57:53Z</time>
      </trkpt>
      <trkpt lat="47.48909" lon="-0.60243">
        <ele>46.4</ele>
        <time>2021-07-04T05:57:55Z</time>
      </trkpt>
      <trkpt lat="47.48911" lon="-0.60252">
        <ele>46.2</ele>
        <time>2021-07-04T05:57:56Z</time>
      </trkpt>
      <trkpt lat="47.48913" lon="-0.60261">
        <ele>45.8</ele>
        <time>2021-07-04T05:57:57Z</time>
      </trkpt>
      <trkpt lat="47.48917" lon="-0.6028">
        <ele>45</ele>
        <time>2021-07-04T05:57:59Z</time>
      </trkpt>
      <trkpt lat="47.4892" lon="-0.60299">
        <ele>44.2</ele>
        <time>2021-07-04T05:58:01Z</time>
      </trkpt>
      <trkpt lat="47.48922" lon="-0.60308">
        <ele>43.8</ele>
        <time>2021-07-04T05:58:02Z</time>
      </trkpt>
      <trkpt lat="47.48923" lon="-0.60317">
        <ele>43.4</ele>
        <time>2021-07-04T05:58:03Z</time>
      </trkpt>
      <trkpt lat="47.48926" lon="-0.60325">
        <ele>42.4</ele>
        <time>2021-07-04T05:58:04Z</time>
      </trkpt>
      <trkpt lat="47.48928" lon="-0.60333">
        <ele>42.4</ele>
        <time>2021-07-04T05:58:05Z</time>
      </trkpt>
      <trkpt lat="47.4893" lon="-0.60339">
        <ele>42.6</ele>
        <time>2021-07-04T05:58:06Z</time>
      </trkpt>
      <trkpt lat="47.48932" lon="-0.60345">
        <ele>42.6</ele>
        <time>2021-07-04T05:58:07Z</time>
      </trkpt>
      <trkpt lat="47.48935" lon="-0.60351">
        <ele>42.2</ele>
        <time>2021-07-04T05:58:08Z</time>
      </trkpt>
      <trkpt lat="47.48938" lon="-0.60358">
        <ele>41.6</ele>
        <time>2021-07-04T05:58:09Z</time>
      </trkpt>
      <trkpt lat="47.48941" lon="-0.60366">
        <ele>41.4</ele>
        <time>2021-07-04T05:58:10Z</time>
      </trkpt>
      <trkpt lat="47.48944" lon="-0.60373">
        <ele>40.6</ele>
        <time>2021-07-04T05:58:11Z</time>
      </trkpt>
      <trkpt lat="47.48947" lon="-0.60382">
        <ele>40.2</ele>
        <time>2021-07-04T05:58:12Z</time>
      </trkpt>
      <trkpt lat="47.48949" lon="-0.6039">
        <ele>39</ele>
        <time>2021-07-04T05:58:13Z</time>
      </trkpt>
      <trkpt lat="47.48951" lon="-0.60408">
        <ele>37.6</ele>
        <time>2021-07-04T05:58:15Z</time>
      </trkpt>
      <trkpt lat="47.48948" lon="-0.60428">
        <ele>36.4</ele>
        <time>2021-07-04T05:58:17Z</time>
      </trkpt>
      <trkpt lat="47.48946" lon="-0.60439">
        <ele>35.8</ele>
        <time>2021-07-04T05:58:18Z</time>
      </trkpt>
      <trkpt lat="47.48944" lon="-0.60449">
        <ele>35.6</ele>
        <time>2021-07-04T05:58:19Z</time>
      </trkpt>
      <trkpt lat="47.48943" lon="-0.60459">
        <ele>35.4</ele>
        <time>2021-07-04T05:58:20Z</time>
      </trkpt>
      <trkpt lat="47.48942" lon="-0.6047">
        <ele>35</ele>
        <time>2021-07-04T05:58:21Z</time>
      </trkpt>
      <trkpt lat="47.4894" lon="-0.60481">
        <ele>34</ele>
        <time>2021-07-04T05:58:22Z</time>
      </trkpt>
      <trkpt lat="47.48939" lon="-0.60492">
        <ele>33</ele>
        <time>2021-07-04T05:58:23Z</time>
      </trkpt>
      <trkpt lat="47.48937" lon="-0.60502">
        <ele>32.2</ele>
        <time>2021-07-04T05:58:24Z</time>
      </trkpt>
      <trkpt lat="47.48935" lon="-0.60511">
        <ele>31.8</ele>
        <time>2021-07-04T05:58:25Z</time>
      </trkpt>
      <trkpt lat="47.48926" lon="-0.60526">
        <ele>31.2</ele>
        <time>2021-07-04T05:58:27Z</time>
      </trkpt>
      <trkpt lat="47.48921" lon="-0.60534">
        <ele>30.4</ele>
        <time>2021-07-04T05:58:28Z</time>
      </trkpt>
      <trkpt lat="47.48918" lon="-0.60542">
        <ele>30.4</ele>
        <time>2021-07-04T05:58:29Z</time>
      </trkpt>
      <trkpt lat="47.48915" lon="-0.6055">
        <ele>30.4</ele>
        <time>2021-07-04T05:58:30Z</time>
      </trkpt>
      <trkpt lat="47.48913" lon="-0.60557">
        <ele>30.6</ele>
        <time>2021-07-04T05:58:31Z</time>
      </trkpt>
      <trkpt lat="47.48913" lon="-0.60565">
        <ele>30.8</ele>
        <time>2021-07-04T05:58:32Z</time>
      </trkpt>
      <trkpt lat="47.48913" lon="-0.60573">
        <ele>30.6</ele>
        <time>2021-07-04T05:58:33Z</time>
      </trkpt>
      <trkpt lat="47.48917" lon="-0.6059">
        <ele>29.8</ele>
        <time>2021-07-04T05:58:35Z</time>
      </trkpt>
      <trkpt lat="47.48918" lon="-0.60599">
        <ele>29.6</ele>
        <time>2021-07-04T05:58:36Z</time>
      </trkpt>
      <trkpt lat="47.4892" lon="-0.60607">
        <ele>29.2</ele>
        <time>2021-07-04T05:58:37Z</time>
      </trkpt>
      <trkpt lat="47.48922" lon="-0.60621">
        <ele>29.8</ele>
        <time>2021-07-04T05:58:39Z</time>
      </trkpt>
      <trkpt lat="47.48922" lon="-0.60628">
        <ele>30</ele>
        <time>2021-07-04T05:58:40Z</time>
      </trkpt>
      <trkpt lat="47.48923" lon="-0.60634">
        <ele>30.2</ele>
        <time>2021-07-04T05:58:41Z</time>
      </trkpt>
      <trkpt lat="47.48925" lon="-0.60646">
        <ele>30.2</ele>
        <time>2021-07-04T05:58:43Z</time>
      </trkpt>
      <trkpt lat="47.48926" lon="-0.60655">
        <ele>30.4</ele>
        <time>2021-07-04T05:58:45Z</time>
      </trkpt>
      <trkpt lat="47.48928" lon="-0.60661">
        <ele>30.8</ele>
        <time>2021-07-04T05:58:47Z</time>
      </trkpt>
      <trkpt lat="47.48929" lon="-0.60668">
        <ele>30.8</ele>
        <time>2021-07-04T05:58:49Z</time>
      </trkpt>
      <trkpt lat="47.48929" lon="-0.60674">
        <ele>30.8</ele>
        <time>2021-07-04T05:58:51Z</time>
      </trkpt>
      <trkpt lat="47.4893" lon="-0.60678">
        <ele>30.8</ele>
        <time>2021-07-04T05:58:52Z</time>
      </trkpt>
      <trkpt lat="47.4893" lon="-0.60683">
        <ele>30.6</ele>
        <time>2021-07-04T05:58:53Z</time>
      </trkpt>
      <trkpt lat="47.48928" lon="-0.60691">
        <ele>30.2</ele>
        <time>2021-07-04T05:58:55Z</time>
      </trkpt>
      <trkpt lat="47.48923" lon="-0.60698">
        <ele>30.2</ele>
        <time>2021-07-04T05:58:57Z</time>
      </trkpt>
      <trkpt lat="47.48914" lon="-0.60702">
        <ele>30.2</ele>
        <time>2021-07-04T05:58:59Z</time>
      </trkpt>
      <trkpt lat="47.48905" lon="-0.60706">
        <ele>29.8</ele>
        <time>2021-07-04T05:59:01Z</time>
      </trkpt>
      <trkpt lat="47.48893" lon="-0.60712">
        <ele>29.4</ele>
        <time>2021-07-04T05:59:03Z</time>
      </trkpt>
      <trkpt lat="47.48889" lon="-0.60714">
        <ele>29.4</ele>
        <time>2021-07-04T05:59:04Z</time>
      </trkpt>
      <trkpt lat="47.48885" lon="-0.60717">
        <ele>29.4</ele>
        <time>2021-07-04T05:59:05Z</time>
      </trkpt>
      <trkpt lat="47.48878" lon="-0.60726">
        <ele>29.8</ele>
        <time>2021-07-04T05:59:07Z</time>
      </trkpt>
      <trkpt lat="47.48875" lon="-0.6073">
        <ele>29.8</ele>
        <time>2021-07-04T05:59:08Z</time>
      </trkpt>
      <trkpt lat="47.48873" lon="-0.60734">
        <ele>29.8</ele>
        <time>2021-07-04T05:59:09Z</time>
      </trkpt>
      <trkpt lat="47.48869" lon="-0.60746">
        <ele>29.6</ele>
        <time>2021-07-04T05:59:11Z</time>
      </trkpt>
      <trkpt lat="47.48867" lon="-0.60752">
        <ele>29.4</ele>
        <time>2021-07-04T05:59:12Z</time>
      </trkpt>
      <trkpt lat="47.48866" lon="-0.60758">
        <ele>29.2</ele>
        <time>2021-07-04T05:59:13Z</time>
      </trkpt>
      <trkpt lat="47.48866" lon="-0.60772">
        <ele>29.2</ele>
        <time>2021-07-04T05:59:15Z</time>
      </trkpt>
      <trkpt lat="47.48867" lon="-0.6078">
        <ele>29</ele>
        <time>2021-07-04T05:59:16Z</time>
      </trkpt>
      <trkpt lat="47.48868" lon="-0.60788">
        <ele>28.6</ele>
        <time>2021-07-04T05:59:17Z</time>
      </trkpt>
      <trkpt lat="47.48868" lon="-0.60796">
        <ele>28.6</ele>
        <time>2021-07-04T05:59:18Z</time>
      </trkpt>
      <trkpt lat="47.48868" lon="-0.60804">
        <ele>28.6</ele>
        <time>2021-07-04T05:59:19Z</time>
      </trkpt>
      <trkpt lat="47.48869" lon="-0.6081">
        <ele>29</ele>
        <time>2021-07-04T05:59:20Z</time>
      </trkpt>
      <trkpt lat="47.48869" lon="-0.60817">
        <ele>29</ele>
        <time>2021-07-04T05:59:21Z</time>
      </trkpt>
      <trkpt lat="47.48869" lon="-0.60832">
        <ele>29.2</ele>
        <time>2021-07-04T05:59:23Z</time>
      </trkpt>
      <trkpt lat="47.48869" lon="-0.60846">
        <ele>28.8</ele>
        <time>2021-07-04T05:59:25Z</time>
      </trkpt>
      <trkpt lat="47.48871" lon="-0.60855">
        <ele>28.6</ele>
        <time>2021-07-04T05:59:26Z</time>
      </trkpt>
      <trkpt lat="47.48873" lon="-0.60863">
        <ele>28.8</ele>
        <time>2021-07-04T05:59:27Z</time>
      </trkpt>
      <trkpt lat="47.48875" lon="-0.60878">
        <ele>29</ele>
        <time>2021-07-04T05:59:29Z</time>
      </trkpt>
      <trkpt lat="47.48877" lon="-0.60896">
        <ele>28.8</ele>
        <time>2021-07-04T05:59:31Z</time>
      </trkpt>
      <trkpt lat="47.48879" lon="-0.60913">
        <ele>28.6</ele>
        <time>2021-07-04T05:59:33Z</time>
      </trkpt>
      <trkpt lat="47.4888" lon="-0.60922">
        <ele>28.6</ele>
        <time>2021-07-04T05:59:34Z</time>
      </trkpt>
      <trkpt lat="47.48881" lon="-0.6093">
        <ele>28.8</ele>
        <time>2021-07-04T05:59:35Z</time>
      </trkpt>
      <trkpt lat="47.48883" lon="-0.60948">
        <ele>29</ele>
        <time>2021-07-04T05:59:37Z</time>
      </trkpt>
      <trkpt lat="47.48885" lon="-0.60965">
        <ele>28.8</ele>
        <time>2021-07-04T05:59:39Z</time>
      </trkpt>
      <trkpt lat="47.48887" lon="-0.60973">
        <ele>29.2</ele>
        <time>2021-07-04T05:59:40Z</time>
      </trkpt>
      <trkpt lat="47.48889" lon="-0.60979">
        <ele>29.6</ele>
        <time>2021-07-04T05:59:41Z</time>
      </trkpt>
      <trkpt lat="47.48894" lon="-0.60988">
        <ele>30.2</ele>
        <time>2021-07-04T05:59:43Z</time>
      </trkpt>
      <trkpt lat="47.48896" lon="-0.60992">
        <ele>30.4</ele>
        <time>2021-07-04T05:59:44Z</time>
      </trkpt>
      <trkpt lat="47.48897" lon="-0.60994">
        <ele>30.8</ele>
        <time>2021-07-04T05:59:45Z</time>
      </trkpt>
      <trkpt lat="47.48899" lon="-0.60998">
        <ele>31.2</ele>
        <time>2021-07-04T05:59:46Z</time>
      </trkpt>
      <trkpt lat="47.489" lon="-0.61002">
        <ele>31.2</ele>
        <time>2021-07-04T05:59:47Z</time>
      </trkpt>
      <trkpt lat="47.48901" lon="-0.61007">
        <ele>31.2</ele>
        <time>2021-07-04T05:59:48Z</time>
      </trkpt>
      <trkpt lat="47.48903" lon="-0.61013">
        <ele>30.6</ele>
        <time>2021-07-04T05:59:49Z</time>
      </trkpt>
      <trkpt lat="47.48908" lon="-0.61026">
        <ele>30</ele>
        <time>2021-07-04T05:59:51Z</time>
      </trkpt>
      <trkpt lat="47.48909" lon="-0.61034">
        <ele>30.2</ele>
        <time>2021-07-04T05:59:52Z</time>
      </trkpt>
      <trkpt lat="47.4891" lon="-0.61042">
        <ele>30.4</ele>
        <time>2021-07-04T05:59:53Z</time>
      </trkpt>
      <trkpt lat="47.48913" lon="-0.61054">
        <ele>31.2</ele>
        <time>2021-07-04T05:59:55Z</time>
      </trkpt>
      <trkpt lat="47.48916" lon="-0.61065">
        <ele>32.4</ele>
        <time>2021-07-04T05:59:57Z</time>
      </trkpt>
      <trkpt lat="47.4892" lon="-0.61078">
        <ele>33.2</ele>
        <time>2021-07-04T05:59:59Z</time>
      </trkpt>
      <trkpt lat="47.48926" lon="-0.61091">
        <ele>32.8</ele>
        <time>2021-07-04T06:00:01Z</time>
      </trkpt>
      <trkpt lat="47.48933" lon="-0.61103">
        <ele>32.2</ele>
        <time>2021-07-04T06:00:03Z</time>
      </trkpt>
      <trkpt lat="47.48936" lon="-0.6111">
        <ele>32.4</ele>
        <time>2021-07-04T06:00:04Z</time>
      </trkpt>
      <trkpt lat="47.48938" lon="-0.61117">
        <ele>32.4</ele>
        <time>2021-07-04T06:00:05Z</time>
      </trkpt>
      <trkpt lat="47.48942" lon="-0.61131">
        <ele>32.4</ele>
        <time>2021-07-04T06:00:07Z</time>
      </trkpt>
      <trkpt lat="47.48945" lon="-0.61144">
        <ele>32.6</ele>
        <time>2021-07-04T06:00:09Z</time>
      </trkpt>
      <trkpt lat="47.48948" lon="-0.61157">
        <ele>32.2</ele>
        <time>2021-07-04T06:00:11Z</time>
      </trkpt>
      <trkpt lat="47.4895" lon="-0.61173">
        <ele>31.8</ele>
        <time>2021-07-04T06:00:13Z</time>
      </trkpt>
      <trkpt lat="47.48951" lon="-0.6118">
        <ele>31.4</ele>
        <time>2021-07-04T06:00:14Z</time>
      </trkpt>
      <trkpt lat="47.48953" lon="-0.61188">
        <ele>31.4</ele>
        <time>2021-07-04T06:00:15Z</time>
      </trkpt>
      <trkpt lat="47.48955" lon="-0.61196">
        <ele>31.2</ele>
        <time>2021-07-04T06:00:16Z</time>
      </trkpt>
      <trkpt lat="47.48957" lon="-0.61204">
        <ele>31.4</ele>
        <time>2021-07-04T06:00:17Z</time>
      </trkpt>
      <trkpt lat="47.48961" lon="-0.61217">
        <ele>31.6</ele>
        <time>2021-07-04T06:00:19Z</time>
      </trkpt>
      <trkpt lat="47.48962" lon="-0.61224">
        <ele>32</ele>
        <time>2021-07-04T06:00:20Z</time>
      </trkpt>
      <trkpt lat="47.48965" lon="-0.61232">
        <ele>32.2</ele>
        <time>2021-07-04T06:00:21Z</time>
      </trkpt>
      <trkpt lat="47.48967" lon="-0.61238">
        <ele>32.4</ele>
        <time>2021-07-04T06:00:22Z</time>
      </trkpt>
      <trkpt lat="47.48969" lon="-0.61245">
        <ele>32.4</ele>
        <time>2021-07-04T06:00:23Z</time>
      </trkpt>
      <trkpt lat="47.48974" lon="-0.61257">
        <ele>33</ele>
        <time>2021-07-04T06:00:25Z</time>
      </trkpt>
      <trkpt lat="47.48976" lon="-0.61263">
        <ele>33.6</ele>
        <time>2021-07-04T06:00:26Z</time>
      </trkpt>
      <trkpt lat="47.48978" lon="-0.61269">
        <ele>34.2</ele>
        <time>2021-07-04T06:00:27Z</time>
      </trkpt>
      <trkpt lat="47.4898" lon="-0.61276">
        <ele>35</ele>
        <time>2021-07-04T06:00:28Z</time>
      </trkpt>
      <trkpt lat="47.48982" lon="-0.61281">
        <ele>35.2</ele>
        <time>2021-07-04T06:00:29Z</time>
      </trkpt>
      <trkpt lat="47.48984" lon="-0.61286">
        <ele>35.6</ele>
        <time>2021-07-04T06:00:30Z</time>
      </trkpt>
      <trkpt lat="47.48987" lon="-0.61292">
        <ele>35.8</ele>
        <time>2021-07-04T06:00:31Z</time>
      </trkpt>
      <trkpt lat="47.4899" lon="-0.61299">
        <ele>36.4</ele>
        <time>2021-07-04T06:00:32Z</time>
      </trkpt>
      <trkpt lat="47.48993" lon="-0.61306">
        <ele>36.8</ele>
        <time>2021-07-04T06:00:33Z</time>
      </trkpt>
      <trkpt lat="47.48999" lon="-0.61317">
        <ele>37.4</ele>
        <time>2021-07-04T06:00:35Z</time>
      </trkpt>
      <trkpt lat="47.49002" lon="-0.61323">
        <ele>37.6</ele>
        <time>2021-07-04T06:00:36Z</time>
      </trkpt>
      <trkpt lat="47.49005" lon="-0.61328">
        <ele>37.8</ele>
        <time>2021-07-04T06:00:37Z</time>
      </trkpt>
      <trkpt lat="47.49011" lon="-0.61339">
        <ele>38.2</ele>
        <time>2021-07-04T06:00:39Z</time>
      </trkpt>
      <trkpt lat="47.49014" lon="-0.61346">
        <ele>38</ele>
        <time>2021-07-04T06:00:40Z</time>
      </trkpt>
      <trkpt lat="47.49017" lon="-0.61351">
        <ele>38</ele>
        <time>2021-07-04T06:00:41Z</time>
      </trkpt>
      <trkpt lat="47.49023" lon="-0.61362">
        <ele>37.8</ele>
        <time>2021-07-04T06:00:43Z</time>
      </trkpt>
      <trkpt lat="47.49029" lon="-0.61375">
        <ele>37.6</ele>
        <time>2021-07-04T06:00:45Z</time>
      </trkpt>
      <trkpt lat="47.49031" lon="-0.6138">
        <ele>37.8</ele>
        <time>2021-07-04T06:00:46Z</time>
      </trkpt>
      <trkpt lat="47.49034" lon="-0.61385">
        <ele>37.6</ele>
        <time>2021-07-04T06:00:47Z</time>
      </trkpt>
      <trkpt lat="47.49037" lon="-0.61387">
        <ele>37.8</ele>
        <time>2021-07-04T06:00:49Z</time>
      </trkpt>
      <trkpt lat="47.49038" lon="-0.61389">
        <ele>38.4</ele>
        <time>2021-07-04T06:00:50Z</time>
      </trkpt>
      <trkpt lat="47.4904" lon="-0.61391">
        <ele>39</ele>
        <time>2021-07-04T06:00:51Z</time>
      </trkpt>
      <trkpt lat="47.49042" lon="-0.61393">
        <ele>39.4</ele>
        <time>2021-07-04T06:00:52Z</time>
      </trkpt>
      <trkpt lat="47.49044" lon="-0.61399">
        <ele>39.2</ele>
        <time>2021-07-04T06:00:53Z</time>
      </trkpt>
      <trkpt lat="47.49048" lon="-0.61404">
        <ele>39.2</ele>
        <time>2021-07-04T06:00:54Z</time>
      </trkpt>
      <trkpt lat="47.49051" lon="-0.6141">
        <ele>38.6</ele>
        <time>2021-07-04T06:00:55Z</time>
      </trkpt>
      <trkpt lat="47.49059" lon="-0.61422">
        <ele>37.8</ele>
        <time>2021-07-04T06:00:57Z</time>
      </trkpt>
      <trkpt lat="47.49067" lon="-0.61432">
        <ele>37.6</ele>
        <time>2021-07-04T06:00:59Z</time>
      </trkpt>
      <trkpt lat="47.49075" lon="-0.61444">
        <ele>37.6</ele>
        <time>2021-07-04T06:01:01Z</time>
      </trkpt>
      <trkpt lat="47.4908" lon="-0.61457">
        <ele>37.6</ele>
        <time>2021-07-04T06:01:03Z</time>
      </trkpt>
      <trkpt lat="47.49085" lon="-0.61469">
        <ele>38.2</ele>
        <time>2021-07-04T06:01:05Z</time>
      </trkpt>
      <trkpt lat="47.49086" lon="-0.61476">
        <ele>38.6</ele>
        <time>2021-07-04T06:01:06Z</time>
      </trkpt>
      <trkpt lat="47.49087" lon="-0.61483">
        <ele>38.8</ele>
        <time>2021-07-04T06:01:07Z</time>
      </trkpt>
      <trkpt lat="47.49089" lon="-0.61489">
        <ele>39</ele>
        <time>2021-07-04T06:01:08Z</time>
      </trkpt>
      <trkpt lat="47.4909" lon="-0.61494">
        <ele>39.6</ele>
        <time>2021-07-04T06:01:09Z</time>
      </trkpt>
      <trkpt lat="47.49093" lon="-0.61498">
        <ele>40.2</ele>
        <time>2021-07-04T06:01:10Z</time>
      </trkpt>
      <trkpt lat="47.49095" lon="-0.61502">
        <ele>41</ele>
        <time>2021-07-04T06:01:11Z</time>
      </trkpt>
      <trkpt lat="47.49096" lon="-0.61507">
        <ele>41.2</ele>
        <time>2021-07-04T06:01:12Z</time>
      </trkpt>
      <trkpt lat="47.49095" lon="-0.61511">
        <ele>41.2</ele>
        <time>2021-07-04T06:01:13Z</time>
      </trkpt>
      <trkpt lat="47.49093" lon="-0.61513">
        <ele>40.8</ele>
        <time>2021-07-04T06:01:14Z</time>
      </trkpt>
      <trkpt lat="47.49091" lon="-0.61515">
        <ele>40.6</ele>
        <time>2021-07-04T06:01:15Z</time>
      </trkpt>
      <trkpt lat="47.49088" lon="-0.61517">
        <ele>40.6</ele>
        <time>2021-07-04T06:01:16Z</time>
      </trkpt>
      <trkpt lat="47.49085" lon="-0.6152">
        <ele>40.2</ele>
        <time>2021-07-04T06:01:17Z</time>
      </trkpt>
      <trkpt lat="47.49079" lon="-0.61526">
        <ele>38.6</ele>
        <time>2021-07-04T06:01:19Z</time>
      </trkpt>
      <trkpt lat="47.49078" lon="-0.61533">
        <ele>37.6</ele>
        <time>2021-07-04T06:01:21Z</time>
      </trkpt>
      <trkpt lat="47.49079" lon="-0.61538">
        <ele>37.8</ele>
        <time>2021-07-04T06:01:22Z</time>
      </trkpt>
      <trkpt lat="47.49079" lon="-0.61543">
        <ele>37.8</ele>
        <time>2021-07-04T06:01:23Z</time>
      </trkpt>
      <trkpt lat="47.49081" lon="-0.61553">
        <ele>37.8</ele>
        <time>2021-07-04T06:01:25Z</time>
      </trkpt>
      <trkpt lat="47.49084" lon="-0.61565">
        <ele>38</ele>
        <time>2021-07-04T06:01:27Z</time>
      </trkpt>
      <trkpt lat="47.49087" lon="-0.61576">
        <ele>38.2</ele>
        <time>2021-07-04T06:01:29Z</time>
      </trkpt>
      <trkpt lat="47.49089" lon="-0.61582">
        <ele>38.6</ele>
        <time>2021-07-04T06:01:30Z</time>
      </trkpt>
      <trkpt lat="47.4909" lon="-0.61589">
        <ele>38.6</ele>
        <time>2021-07-04T06:01:31Z</time>
      </trkpt>
      <trkpt lat="47.49094" lon="-0.61603">
        <ele>38.8</ele>
        <time>2021-07-04T06:01:33Z</time>
      </trkpt>
      <trkpt lat="47.49097" lon="-0.61617">
        <ele>39</ele>
        <time>2021-07-04T06:01:35Z</time>
      </trkpt>
      <trkpt lat="47.49099" lon="-0.61623">
        <ele>39.2</ele>
        <time>2021-07-04T06:01:36Z</time>
      </trkpt>
      <trkpt lat="47.49101" lon="-0.6163">
        <ele>39.2</ele>
        <time>2021-07-04T06:01:37Z</time>
      </trkpt>
      <trkpt lat="47.49104" lon="-0.61644">
        <ele>39.4</ele>
        <time>2021-07-04T06:01:39Z</time>
      </trkpt>
      <trkpt lat="47.49106" lon="-0.61659">
        <ele>39.6</ele>
        <time>2021-07-04T06:01:41Z</time>
      </trkpt>
      <trkpt lat="47.49108" lon="-0.61666">
        <ele>39.8</ele>
        <time>2021-07-04T06:01:42Z</time>
      </trkpt>
      <trkpt lat="47.49109" lon="-0.61673">
        <ele>40</ele>
        <time>2021-07-04T06:01:43Z</time>
      </trkpt>
      <trkpt lat="47.49111" lon="-0.6168">
        <ele>40.4</ele>
        <time>2021-07-04T06:01:44Z</time>
      </trkpt>
      <trkpt lat="47.49112" lon="-0.61686">
        <ele>40.6</ele>
        <time>2021-07-04T06:01:45Z</time>
      </trkpt>
      <trkpt lat="47.49115" lon="-0.61698">
        <ele>40.8</ele>
        <time>2021-07-04T06:01:47Z</time>
      </trkpt>
      <trkpt lat="47.4912" lon="-0.61712">
        <ele>41</ele>
        <time>2021-07-04T06:01:49Z</time>
      </trkpt>
      <trkpt lat="47.49121" lon="-0.61718">
        <ele>40.8</ele>
        <time>2021-07-04T06:01:50Z</time>
      </trkpt>
      <trkpt lat="47.49124" lon="-0.61726">
        <ele>40.6</ele>
        <time>2021-07-04T06:01:51Z</time>
      </trkpt>
      <trkpt lat="47.49128" lon="-0.61741">
        <ele>40.4</ele>
        <time>2021-07-04T06:01:53Z</time>
      </trkpt>
      <trkpt lat="47.49129" lon="-0.61748">
        <ele>40.2</ele>
        <time>2021-07-04T06:01:54Z</time>
      </trkpt>
      <trkpt lat="47.49132" lon="-0.61756">
        <ele>40.4</ele>
        <time>2021-07-04T06:01:55Z</time>
      </trkpt>
      <trkpt lat="47.49135" lon="-0.61771">
        <ele>40.2</ele>
        <time>2021-07-04T06:01:57Z</time>
      </trkpt>
      <trkpt lat="47.49138" lon="-0.61778">
        <ele>40</ele>
        <time>2021-07-04T06:01:58Z</time>
      </trkpt>
      <trkpt lat="47.4914" lon="-0.61787">
        <ele>39.6</ele>
        <time>2021-07-04T06:01:59Z</time>
      </trkpt>
      <trkpt lat="47.49141" lon="-0.61794">
        <ele>39.2</ele>
        <time>2021-07-04T06:02:00Z</time>
      </trkpt>
      <trkpt lat="47.49143" lon="-0.61802">
        <ele>39</ele>
        <time>2021-07-04T06:02:01Z</time>
      </trkpt>
      <trkpt lat="47.49146" lon="-0.61817">
        <ele>39</ele>
        <time>2021-07-04T06:02:03Z</time>
      </trkpt>
      <trkpt lat="47.49149" lon="-0.61834">
        <ele>39</ele>
        <time>2021-07-04T06:02:05Z</time>
      </trkpt>
      <trkpt lat="47.49149" lon="-0.61842">
        <ele>38.8</ele>
        <time>2021-07-04T06:02:06Z</time>
      </trkpt>
      <trkpt lat="47.49151" lon="-0.6185">
        <ele>38.8</ele>
        <time>2021-07-04T06:02:07Z</time>
      </trkpt>
      <trkpt lat="47.49152" lon="-0.61857">
        <ele>38.6</ele>
        <time>2021-07-04T06:02:08Z</time>
      </trkpt>
      <trkpt lat="47.49153" lon="-0.61864">
        <ele>38.6</ele>
        <time>2021-07-04T06:02:09Z</time>
      </trkpt>
      <trkpt lat="47.49155" lon="-0.6187">
        <ele>38.2</ele>
        <time>2021-07-04T06:02:10Z</time>
      </trkpt>
      <trkpt lat="47.49157" lon="-0.61879">
        <ele>38</ele>
        <time>2021-07-04T06:02:11Z</time>
      </trkpt>
      <trkpt lat="47.49158" lon="-0.61888">
        <ele>37.8</ele>
        <time>2021-07-04T06:02:12Z</time>
      </trkpt>
      <trkpt lat="47.4916" lon="-0.61896">
        <ele>37.6</ele>
        <time>2021-07-04T06:02:13Z</time>
      </trkpt>
      <trkpt lat="47.49164" lon="-0.61915">
        <ele>37.6</ele>
        <time>2021-07-04T06:02:15Z</time>
      </trkpt>
      <trkpt lat="47.49167" lon="-0.61931">
        <ele>37.8</ele>
        <time>2021-07-04T06:02:17Z</time>
      </trkpt>
      <trkpt lat="47.4917" lon="-0.61947">
        <ele>38</ele>
        <time>2021-07-04T06:02:19Z</time>
      </trkpt>
      <trkpt lat="47.49172" lon="-0.61964">
        <ele>38</ele>
        <time>2021-07-04T06:02:21Z</time>
      </trkpt>
      <trkpt lat="47.49174" lon="-0.61982">
        <ele>38</ele>
        <time>2021-07-04T06:02:23Z</time>
      </trkpt>
      <trkpt lat="47.49176" lon="-0.62001">
        <ele>38.6</ele>
        <time>2021-07-04T06:02:25Z</time>
      </trkpt>
      <trkpt lat="47.49177" lon="-0.6201">
        <ele>39</ele>
        <time>2021-07-04T06:02:26Z</time>
      </trkpt>
      <trkpt lat="47.49178" lon="-0.6202">
        <ele>39.2</ele>
        <time>2021-07-04T06:02:27Z</time>
      </trkpt>
      <trkpt lat="47.49179" lon="-0.62028">
        <ele>39.6</ele>
        <time>2021-07-04T06:02:28Z</time>
      </trkpt>
      <trkpt lat="47.4918" lon="-0.62037">
        <ele>39.6</ele>
        <time>2021-07-04T06:02:29Z</time>
      </trkpt>
      <trkpt lat="47.49182" lon="-0.62055">
        <ele>39.4</ele>
        <time>2021-07-04T06:02:31Z</time>
      </trkpt>
      <trkpt lat="47.49184" lon="-0.62064">
        <ele>39.2</ele>
        <time>2021-07-04T06:02:32Z</time>
      </trkpt>
      <trkpt lat="47.49184" lon="-0.62072">
        <ele>39</ele>
        <time>2021-07-04T06:02:33Z</time>
      </trkpt>
      <trkpt lat="47.49187" lon="-0.62091">
        <ele>38.4</ele>
        <time>2021-07-04T06:02:35Z</time>
      </trkpt>
      <trkpt lat="47.49189" lon="-0.621">
        <ele>38.4</ele>
        <time>2021-07-04T06:02:36Z</time>
      </trkpt>
      <trkpt lat="47.49191" lon="-0.62108">
        <ele>38.4</ele>
        <time>2021-07-04T06:02:37Z</time>
      </trkpt>
      <trkpt lat="47.49192" lon="-0.62117">
        <ele>38.4</ele>
        <time>2021-07-04T06:02:38Z</time>
      </trkpt>
      <trkpt lat="47.49193" lon="-0.62125">
        <ele>38.6</ele>
        <time>2021-07-04T06:02:39Z</time>
      </trkpt>
      <trkpt lat="47.49194" lon="-0.62142">
        <ele>38.8</ele>
        <time>2021-07-04T06:02:41Z</time>
      </trkpt>
      <trkpt lat="47.49194" lon="-0.6215">
        <ele>38.6</ele>
        <time>2021-07-04T06:02:42Z</time>
      </trkpt>
      <trkpt lat="47.49193" lon="-0.6216">
        <ele>38</ele>
        <time>2021-07-04T06:02:43Z</time>
      </trkpt>
      <trkpt lat="47.49192" lon="-0.62171">
        <ele>37.6</ele>
        <time>2021-07-04T06:02:44Z</time>
      </trkpt>
      <trkpt lat="47.49191" lon="-0.62181">
        <ele>37.2</ele>
        <time>2021-07-04T06:02:45Z</time>
      </trkpt>
      <trkpt lat="47.4919" lon="-0.622">
        <ele>36.8</ele>
        <time>2021-07-04T06:02:47Z</time>
      </trkpt>
      <trkpt lat="47.4919" lon="-0.62219">
        <ele>36.6</ele>
        <time>2021-07-04T06:02:49Z</time>
      </trkpt>
      <trkpt lat="47.49188" lon="-0.6223">
        <ele>36.6</ele>
        <time>2021-07-04T06:02:50Z</time>
      </trkpt>
      <trkpt lat="47.49186" lon="-0.62241">
        <ele>36.4</ele>
        <time>2021-07-04T06:02:51Z</time>
      </trkpt>
      <trkpt lat="47.49182" lon="-0.62259">
        <ele>36.4</ele>
        <time>2021-07-04T06:02:53Z</time>
      </trkpt>
      <trkpt lat="47.49174" lon="-0.62276">
        <ele>36.4</ele>
        <time>2021-07-04T06:02:55Z</time>
      </trkpt>
      <trkpt lat="47.49169" lon="-0.62284">
        <ele>36.4</ele>
        <time>2021-07-04T06:02:56Z</time>
      </trkpt>
      <trkpt lat="47.49166" lon="-0.62293">
        <ele>36.6</ele>
        <time>2021-07-04T06:02:57Z</time>
      </trkpt>
      <trkpt lat="47.49165" lon="-0.62311">
        <ele>37.6</ele>
        <time>2021-07-04T06:02:59Z</time>
      </trkpt>
      <trkpt lat="47.49167" lon="-0.62327">
        <ele>38.8</ele>
        <time>2021-07-04T06:03:01Z</time>
      </trkpt>
      <trkpt lat="47.49164" lon="-0.6234">
        <ele>39.6</ele>
        <time>2021-07-04T06:03:03Z</time>
      </trkpt>
      <trkpt lat="47.49162" lon="-0.62345">
        <ele>40</ele>
        <time>2021-07-04T06:03:04Z</time>
      </trkpt>
      <trkpt lat="47.49159" lon="-0.6235">
        <ele>40.4</ele>
        <time>2021-07-04T06:03:05Z</time>
      </trkpt>
      <trkpt lat="47.49153" lon="-0.62361">
        <ele>40.8</ele>
        <time>2021-07-04T06:03:07Z</time>
      </trkpt>
      <trkpt lat="47.4915" lon="-0.62366">
        <ele>41</ele>
        <time>2021-07-04T06:03:08Z</time>
      </trkpt>
      <trkpt lat="47.49148" lon="-0.62372">
        <ele>41.2</ele>
        <time>2021-07-04T06:03:09Z</time>
      </trkpt>
      <trkpt lat="47.49147" lon="-0.62378">
        <ele>41.6</ele>
        <time>2021-07-04T06:03:10Z</time>
      </trkpt>
      <trkpt lat="47.49146" lon="-0.62384">
        <ele>42</ele>
        <time>2021-07-04T06:03:11Z</time>
      </trkpt>
      <trkpt lat="47.49145" lon="-0.6239">
        <ele>42.4</ele>
        <time>2021-07-04T06:03:12Z</time>
      </trkpt>
      <trkpt lat="47.49144" lon="-0.62397">
        <ele>42.6</ele>
        <time>2021-07-04T06:03:13Z</time>
      </trkpt>
      <trkpt lat="47.49143" lon="-0.62403">
        <ele>43</ele>
        <time>2021-07-04T06:03:14Z</time>
      </trkpt>
      <trkpt lat="47.49142" lon="-0.62409">
        <ele>43.4</ele>
        <time>2021-07-04T06:03:15Z</time>
      </trkpt>
      <trkpt lat="47.49142" lon="-0.62415">
        <ele>43.6</ele>
        <time>2021-07-04T06:03:16Z</time>
      </trkpt>
      <trkpt lat="47.49142" lon="-0.62422">
        <ele>43.8</ele>
        <time>2021-07-04T06:03:17Z</time>
      </trkpt>
      <trkpt lat="47.49141" lon="-0.62435">
        <ele>44</ele>
        <time>2021-07-04T06:03:19Z</time>
      </trkpt>
      <trkpt lat="47.49141" lon="-0.62448">
        <ele>44.2</ele>
        <time>2021-07-04T06:03:21Z</time>
      </trkpt>
      <trkpt lat="47.49141" lon="-0.6246">
        <ele>44.6</ele>
        <time>2021-07-04T06:03:23Z</time>
      </trkpt>
      <trkpt lat="47.49142" lon="-0.62472">
        <ele>44.8</ele>
        <time>2021-07-04T06:03:25Z</time>
      </trkpt>
      <trkpt lat="47.49143" lon="-0.62478">
        <ele>45</ele>
        <time>2021-07-04T06:03:26Z</time>
      </trkpt>
      <trkpt lat="47.49143" lon="-0.62484">
        <ele>45.4</ele>
        <time>2021-07-04T06:03:27Z</time>
      </trkpt>
      <trkpt lat="47.49143" lon="-0.6249">
        <ele>45.8</ele>
        <time>2021-07-04T06:03:28Z</time>
      </trkpt>
      <trkpt lat="47.49143" lon="-0.62496">
        <ele>46</ele>
        <time>2021-07-04T06:03:29Z</time>
      </trkpt>
      <trkpt lat="47.49141" lon="-0.62501">
        <ele>46.2</ele>
        <time>2021-07-04T06:03:30Z</time>
      </trkpt>
      <trkpt lat="47.49139" lon="-0.62507">
        <ele>46.2</ele>
        <time>2021-07-04T06:03:31Z</time>
      </trkpt>
      <trkpt lat="47.49137" lon="-0.62517">
        <ele>46.6</ele>
        <time>2021-07-04T06:03:33Z</time>
      </trkpt>
      <trkpt lat="47.49136" lon="-0.62523">
        <ele>47.2</ele>
        <time>2021-07-04T06:03:34Z</time>
      </trkpt>
      <trkpt lat="47.49135" lon="-0.62528">
        <ele>47.8</ele>
        <time>2021-07-04T06:03:35Z</time>
      </trkpt>
      <trkpt lat="47.49134" lon="-0.62533">
        <ele>48.2</ele>
        <time>2021-07-04T06:03:36Z</time>
      </trkpt>
      <trkpt lat="47.49133" lon="-0.62538">
        <ele>48.6</ele>
        <time>2021-07-04T06:03:37Z</time>
      </trkpt>
      <trkpt lat="47.4913" lon="-0.62547">
        <ele>49</ele>
        <time>2021-07-04T06:03:39Z</time>
      </trkpt>
      <trkpt lat="47.49129" lon="-0.62552">
        <ele>49.4</ele>
        <time>2021-07-04T06:03:40Z</time>
      </trkpt>
      <trkpt lat="47.49128" lon="-0.62557">
        <ele>49.8</ele>
        <time>2021-07-04T06:03:41Z</time>
      </trkpt>
      <trkpt lat="47.49126" lon="-0.62569">
        <ele>49.8</ele>
        <time>2021-07-04T06:03:43Z</time>
      </trkpt>
      <trkpt lat="47.49126" lon="-0.62584">
        <ele>49.6</ele>
        <time>2021-07-04T06:03:45Z</time>
      </trkpt>
      <trkpt lat="47.49128" lon="-0.626">
        <ele>49</ele>
        <time>2021-07-04T06:03:47Z</time>
      </trkpt>
      <trkpt lat="47.49132" lon="-0.62616">
        <ele>48.4</ele>
        <time>2021-07-04T06:03:49Z</time>
      </trkpt>
      <trkpt lat="47.49136" lon="-0.62631">
        <ele>47.8</ele>
        <time>2021-07-04T06:03:51Z</time>
      </trkpt>
      <trkpt lat="47.49139" lon="-0.62647">
        <ele>48</ele>
        <time>2021-07-04T06:03:53Z</time>
      </trkpt>
      <trkpt lat="47.49142" lon="-0.62664">
        <ele>46.8</ele>
        <time>2021-07-04T06:03:55Z</time>
      </trkpt>
      <trkpt lat="47.49144" lon="-0.62674">
        <ele>45.8</ele>
        <time>2021-07-04T06:03:56Z</time>
      </trkpt>
      <trkpt lat="47.49146" lon="-0.62685">
        <ele>45</ele>
        <time>2021-07-04T06:03:57Z</time>
      </trkpt>
      <trkpt lat="47.49148" lon="-0.62696">
        <ele>44</ele>
        <time>2021-07-04T06:03:58Z</time>
      </trkpt>
      <trkpt lat="47.49149" lon="-0.62707">
        <ele>43</ele>
        <time>2021-07-04T06:03:59Z</time>
      </trkpt>
      <trkpt lat="47.49151" lon="-0.62719">
        <ele>41.8</ele>
        <time>2021-07-04T06:04:00Z</time>
      </trkpt>
      <trkpt lat="47.49153" lon="-0.6273">
        <ele>41.4</ele>
        <time>2021-07-04T06:04:01Z</time>
      </trkpt>
      <trkpt lat="47.49155" lon="-0.62751">
        <ele>41.2</ele>
        <time>2021-07-04T06:04:03Z</time>
      </trkpt>
      <trkpt lat="47.49155" lon="-0.6276">
        <ele>41.4</ele>
        <time>2021-07-04T06:04:04Z</time>
      </trkpt>
      <trkpt lat="47.49156" lon="-0.6277">
        <ele>41.4</ele>
        <time>2021-07-04T06:04:05Z</time>
      </trkpt>
      <trkpt lat="47.49157" lon="-0.6279">
        <ele>41</ele>
        <time>2021-07-04T06:04:07Z</time>
      </trkpt>
      <trkpt lat="47.49159" lon="-0.62809">
        <ele>41.6</ele>
        <time>2021-07-04T06:04:09Z</time>
      </trkpt>
      <trkpt lat="47.49158" lon="-0.62818">
        <ele>41.8</ele>
        <time>2021-07-04T06:04:10Z</time>
      </trkpt>
      <trkpt lat="47.49156" lon="-0.62827">
        <ele>41.8</ele>
        <time>2021-07-04T06:04:11Z</time>
      </trkpt>
      <trkpt lat="47.49152" lon="-0.62844">
        <ele>41.4</ele>
        <time>2021-07-04T06:04:13Z</time>
      </trkpt>
      <trkpt lat="47.49149" lon="-0.62852">
        <ele>41.2</ele>
        <time>2021-07-04T06:04:14Z</time>
      </trkpt>
      <trkpt lat="47.49146" lon="-0.6286">
        <ele>41.2</ele>
        <time>2021-07-04T06:04:15Z</time>
      </trkpt>
      <trkpt lat="47.49139" lon="-0.62876">
        <ele>41.2</ele>
        <time>2021-07-04T06:04:17Z</time>
      </trkpt>
      <trkpt lat="47.49132" lon="-0.62891">
        <ele>41.2</ele>
        <time>2021-07-04T06:04:19Z</time>
      </trkpt>
      <trkpt lat="47.49126" lon="-0.62905">
        <ele>41.4</ele>
        <time>2021-07-04T06:04:21Z</time>
      </trkpt>
      <trkpt lat="47.49121" lon="-0.62919">
        <ele>42</ele>
        <time>2021-07-04T06:04:23Z</time>
      </trkpt>
      <trkpt lat="47.4912" lon="-0.62926">
        <ele>42.2</ele>
        <time>2021-07-04T06:04:24Z</time>
      </trkpt>
      <trkpt lat="47.4912" lon="-0.62935">
        <ele>42.6</ele>
        <time>2021-07-04T06:04:25Z</time>
      </trkpt>
      <trkpt lat="47.49122" lon="-0.62952">
        <ele>43.2</ele>
        <time>2021-07-04T06:04:27Z</time>
      </trkpt>
      <trkpt lat="47.49123" lon="-0.62959">
        <ele>43.6</ele>
        <time>2021-07-04T06:04:28Z</time>
      </trkpt>
      <trkpt lat="47.49124" lon="-0.62967">
        <ele>44.4</ele>
        <time>2021-07-04T06:04:29Z</time>
      </trkpt>
      <trkpt lat="47.49122" lon="-0.62983">
        <ele>45</ele>
        <time>2021-07-04T06:04:31Z</time>
      </trkpt>
      <trkpt lat="47.4912" lon="-0.62997">
        <ele>45.2</ele>
        <time>2021-07-04T06:04:33Z</time>
      </trkpt>
      <trkpt lat="47.49119" lon="-0.63004">
        <ele>45.2</ele>
        <time>2021-07-04T06:04:34Z</time>
      </trkpt>
      <trkpt lat="47.49117" lon="-0.63011">
        <ele>45</ele>
        <time>2021-07-04T06:04:35Z</time>
      </trkpt>
      <trkpt lat="47.49114" lon="-0.63018">
        <ele>45</ele>
        <time>2021-07-04T06:04:36Z</time>
      </trkpt>
      <trkpt lat="47.49112" lon="-0.63026">
        <ele>44.6</ele>
        <time>2021-07-04T06:04:37Z</time>
      </trkpt>
      <trkpt lat="47.49108" lon="-0.6304">
        <ele>44.2</ele>
        <time>2021-07-04T06:04:39Z</time>
      </trkpt>
      <trkpt lat="47.49104" lon="-0.63054">
        <ele>44</ele>
        <time>2021-07-04T06:04:41Z</time>
      </trkpt>
      <trkpt lat="47.49101" lon="-0.6307">
        <ele>43.8</ele>
        <time>2021-07-04T06:04:43Z</time>
      </trkpt>
      <trkpt lat="47.49099" lon="-0.63088">
        <ele>44</ele>
        <time>2021-07-04T06:04:45Z</time>
      </trkpt>
      <trkpt lat="47.49099" lon="-0.63098">
        <ele>44.2</ele>
        <time>2021-07-04T06:04:46Z</time>
      </trkpt>
      <trkpt lat="47.491" lon="-0.63107">
        <ele>44.2</ele>
        <time>2021-07-04T06:04:47Z</time>
      </trkpt>
      <trkpt lat="47.491" lon="-0.63115">
        <ele>44.4</ele>
        <time>2021-07-04T06:04:48Z</time>
      </trkpt>
      <trkpt lat="47.49101" lon="-0.63123">
        <ele>44.4</ele>
        <time>2021-07-04T06:04:49Z</time>
      </trkpt>
      <trkpt lat="47.49106" lon="-0.63139">
        <ele>44.8</ele>
        <time>2021-07-04T06:04:51Z</time>
      </trkpt>
      <trkpt lat="47.49111" lon="-0.63153">
        <ele>45.4</ele>
        <time>2021-07-04T06:04:53Z</time>
      </trkpt>
      <trkpt lat="47.49113" lon="-0.6316">
        <ele>45.6</ele>
        <time>2021-07-04T06:04:54Z</time>
      </trkpt>
      <trkpt lat="47.49116" lon="-0.63166">
        <ele>46</ele>
        <time>2021-07-04T06:04:55Z</time>
      </trkpt>
      <trkpt lat="47.49121" lon="-0.63177">
        <ele>46.4</ele>
        <time>2021-07-04T06:04:57Z</time>
      </trkpt>
      <trkpt lat="47.49123" lon="-0.63183">
        <ele>47</ele>
        <time>2021-07-04T06:04:58Z</time>
      </trkpt>
      <trkpt lat="47.49123" lon="-0.63188">
        <ele>47.4</ele>
        <time>2021-07-04T06:04:59Z</time>
      </trkpt>
      <trkpt lat="47.49123" lon="-0.63193">
        <ele>47.6</ele>
        <time>2021-07-04T06:05:00Z</time>
      </trkpt>
      <trkpt lat="47.49121" lon="-0.63195">
        <ele>47.6</ele>
        <time>2021-07-04T06:05:01Z</time>
      </trkpt>
      <trkpt lat="47.49114" lon="-0.63195">
        <ele>47.2</ele>
        <time>2021-07-04T06:05:03Z</time>
      </trkpt>
      <trkpt lat="47.4911" lon="-0.63194">
        <ele>46.8</ele>
        <time>2021-07-04T06:05:04Z</time>
      </trkpt>
      <trkpt lat="47.49106" lon="-0.63192">
        <ele>46.4</ele>
        <time>2021-07-04T06:05:05Z</time>
      </trkpt>
      <trkpt lat="47.49101" lon="-0.63191">
        <ele>46</ele>
        <time>2021-07-04T06:05:06Z</time>
      </trkpt>
      <trkpt lat="47.49097" lon="-0.63189">
        <ele>45.8</ele>
        <time>2021-07-04T06:05:07Z</time>
      </trkpt>
      <trkpt lat="47.49087" lon="-0.63185">
        <ele>45.2</ele>
        <time>2021-07-04T06:05:09Z</time>
      </trkpt>
      <trkpt lat="47.49077" lon="-0.63182">
        <ele>44.8</ele>
        <time>2021-07-04T06:05:11Z</time>
      </trkpt>
      <trkpt lat="47.49066" lon="-0.63178">
        <ele>44.8</ele>
        <time>2021-07-04T06:05:13Z</time>
      </trkpt>
      <trkpt lat="47.49053" lon="-0.63175">
        <ele>44</ele>
        <time>2021-07-04T06:05:15Z</time>
      </trkpt>
      <trkpt lat="47.49046" lon="-0.63173">
        <ele>43.6</ele>
        <time>2021-07-04T06:05:16Z</time>
      </trkpt>
      <trkpt lat="47.4904" lon="-0.63172">
        <ele>43.8</ele>
        <time>2021-07-04T06:05:17Z</time>
      </trkpt>
      <trkpt lat="47.49028" lon="-0.63172">
        <ele>43.6</ele>
        <time>2021-07-04T06:05:19Z</time>
      </trkpt>
      <trkpt lat="47.49016" lon="-0.63172">
        <ele>43.6</ele>
        <time>2021-07-04T06:05:21Z</time>
      </trkpt>
      <trkpt lat="47.49004" lon="-0.63178">
        <ele>43.8</ele>
        <time>2021-07-04T06:05:23Z</time>
      </trkpt>
      <trkpt lat="47.48997" lon="-0.63181">
        <ele>43.8</ele>
        <time>2021-07-04T06:05:24Z</time>
      </trkpt>
      <trkpt lat="47.48992" lon="-0.63185">
        <ele>43.4</ele>
        <time>2021-07-04T06:05:25Z</time>
      </trkpt>
      <trkpt lat="47.4898" lon="-0.63196">
        <ele>43.2</ele>
        <time>2021-07-04T06:05:27Z</time>
      </trkpt>
      <trkpt lat="47.48975" lon="-0.63201">
        <ele>43.4</ele>
        <time>2021-07-04T06:05:28Z</time>
      </trkpt>
      <trkpt lat="47.48971" lon="-0.63207">
        <ele>43.6</ele>
        <time>2021-07-04T06:05:29Z</time>
      </trkpt>
      <trkpt lat="47.4896" lon="-0.63218">
        <ele>43.8</ele>
        <time>2021-07-04T06:05:31Z</time>
      </trkpt>
      <trkpt lat="47.48951" lon="-0.63231">
        <ele>43.6</ele>
        <time>2021-07-04T06:05:33Z</time>
      </trkpt>
      <trkpt lat="47.48941" lon="-0.63242">
        <ele>43.6</ele>
        <time>2021-07-04T06:05:35Z</time>
      </trkpt>
      <trkpt lat="47.48933" lon="-0.63252">
        <ele>43.8</ele>
        <time>2021-07-04T06:05:37Z</time>
      </trkpt>
      <trkpt lat="47.48923" lon="-0.63264">
        <ele>43.8</ele>
        <time>2021-07-04T06:05:39Z</time>
      </trkpt>
      <trkpt lat="47.48918" lon="-0.63269">
        <ele>43.8</ele>
        <time>2021-07-04T06:05:40Z</time>
      </trkpt>
      <trkpt lat="47.48912" lon="-0.63274">
        <ele>43.8</ele>
        <time>2021-07-04T06:05:41Z</time>
      </trkpt>
      <trkpt lat="47.489" lon="-0.63283">
        <ele>43.4</ele>
        <time>2021-07-04T06:05:43Z</time>
      </trkpt>
      <trkpt lat="47.48887" lon="-0.63292">
        <ele>42.8</ele>
        <time>2021-07-04T06:05:45Z</time>
      </trkpt>
      <trkpt lat="47.4888" lon="-0.63296">
        <ele>42.2</ele>
        <time>2021-07-04T06:05:46Z</time>
      </trkpt>
      <trkpt lat="47.48874" lon="-0.63301">
        <ele>41.8</ele>
        <time>2021-07-04T06:05:47Z</time>
      </trkpt>
      <trkpt lat="47.48869" lon="-0.63307">
        <ele>41.4</ele>
        <time>2021-07-04T06:05:48Z</time>
      </trkpt>
      <trkpt lat="47.48864" lon="-0.63314">
        <ele>41.2</ele>
        <time>2021-07-04T06:05:49Z</time>
      </trkpt>
      <trkpt lat="47.48854" lon="-0.63327">
        <ele>41.6</ele>
        <time>2021-07-04T06:05:51Z</time>
      </trkpt>
      <trkpt lat="47.48848" lon="-0.63334">
        <ele>42</ele>
        <time>2021-07-04T06:05:52Z</time>
      </trkpt>
      <trkpt lat="47.48842" lon="-0.6334">
        <ele>42.4</ele>
        <time>2021-07-04T06:05:53Z</time>
      </trkpt>
      <trkpt lat="47.48829" lon="-0.63351">
        <ele>42.8</ele>
        <time>2021-07-04T06:05:55Z</time>
      </trkpt>
      <trkpt lat="47.48823" lon="-0.63355">
        <ele>42.8</ele>
        <time>2021-07-04T06:05:56Z</time>
      </trkpt>
      <trkpt lat="47.48817" lon="-0.63359">
        <ele>42.6</ele>
        <time>2021-07-04T06:05:57Z</time>
      </trkpt>
      <trkpt lat="47.48804" lon="-0.63364">
        <ele>42.4</ele>
        <time>2021-07-04T06:05:59Z</time>
      </trkpt>
      <trkpt lat="47.48798" lon="-0.63365">
        <ele>42.4</ele>
        <time>2021-07-04T06:06:00Z</time>
      </trkpt>
      <trkpt lat="47.48792" lon="-0.63366">
        <ele>42.2</ele>
        <time>2021-07-04T06:06:01Z</time>
      </trkpt>
      <trkpt lat="47.48781" lon="-0.63364">
        <ele>42.2</ele>
        <time>2021-07-04T06:06:03Z</time>
      </trkpt>
      <trkpt lat="47.48768" lon="-0.63358">
        <ele>42.4</ele>
        <time>2021-07-04T06:06:05Z</time>
      </trkpt>
      <trkpt lat="47.48757" lon="-0.63348">
        <ele>42.2</ele>
        <time>2021-07-04T06:06:07Z</time>
      </trkpt>
      <trkpt lat="47.48752" lon="-0.63343">
        <ele>42.2</ele>
        <time>2021-07-04T06:06:08Z</time>
      </trkpt>
      <trkpt lat="47.48747" lon="-0.63337">
        <ele>42.2</ele>
        <time>2021-07-04T06:06:09Z</time>
      </trkpt>
      <trkpt lat="47.48738" lon="-0.63326">
        <ele>42.4</ele>
        <time>2021-07-04T06:06:11Z</time>
      </trkpt>
      <trkpt lat="47.48729" lon="-0.63316">
        <ele>42.6</ele>
        <time>2021-07-04T06:06:13Z</time>
      </trkpt>
      <trkpt lat="47.48725" lon="-0.6331">
        <ele>42.8</ele>
        <time>2021-07-04T06:06:14Z</time>
      </trkpt>
      <trkpt lat="47.4872" lon="-0.63304">
        <ele>42.8</ele>
        <time>2021-07-04T06:06:15Z</time>
      </trkpt>
      <trkpt lat="47.48711" lon="-0.63291">
        <ele>43</ele>
        <time>2021-07-04T06:06:17Z</time>
      </trkpt>
      <trkpt lat="47.48702" lon="-0.6328">
        <ele>43</ele>
        <time>2021-07-04T06:06:19Z</time>
      </trkpt>
      <trkpt lat="47.48698" lon="-0.63275">
        <ele>43.2</ele>
        <time>2021-07-04T06:06:20Z</time>
      </trkpt>
      <trkpt lat="47.48694" lon="-0.63269">
        <ele>43.2</ele>
        <time>2021-07-04T06:06:21Z</time>
      </trkpt>
      <trkpt lat="47.48686" lon="-0.63258">
        <ele>43.2</ele>
        <time>2021-07-04T06:06:23Z</time>
      </trkpt>
      <trkpt lat="47.48681" lon="-0.63253">
        <ele>43.4</ele>
        <time>2021-07-04T06:06:24Z</time>
      </trkpt>
      <trkpt lat="47.48677" lon="-0.63247">
        <ele>43.6</ele>
        <time>2021-07-04T06:06:25Z</time>
      </trkpt>
      <trkpt lat="47.48668" lon="-0.63235">
        <ele>44</ele>
        <time>2021-07-04T06:06:27Z</time>
      </trkpt>
      <trkpt lat="47.48659" lon="-0.63225">
        <ele>44.6</ele>
        <time>2021-07-04T06:06:29Z</time>
      </trkpt>
      <trkpt lat="47.4865" lon="-0.63213">
        <ele>44.6</ele>
        <time>2021-07-04T06:06:31Z</time>
      </trkpt>
      <trkpt lat="47.48642" lon="-0.63202">
        <ele>45</ele>
        <time>2021-07-04T06:06:33Z</time>
      </trkpt>
      <trkpt lat="47.48633" lon="-0.63191">
        <ele>45</ele>
        <time>2021-07-04T06:06:35Z</time>
      </trkpt>
      <trkpt lat="47.48624" lon="-0.6318">
        <ele>45.4</ele>
        <time>2021-07-04T06:06:37Z</time>
      </trkpt>
      <trkpt lat="47.48615" lon="-0.63166">
        <ele>46</ele>
        <time>2021-07-04T06:06:39Z</time>
      </trkpt>
      <trkpt lat="47.48607" lon="-0.63154">
        <ele>46.8</ele>
        <time>2021-07-04T06:06:41Z</time>
      </trkpt>
      <trkpt lat="47.48603" lon="-0.63148">
        <ele>47.2</ele>
        <time>2021-07-04T06:06:42Z</time>
      </trkpt>
      <trkpt lat="47.48599" lon="-0.63143">
        <ele>47.2</ele>
        <time>2021-07-04T06:06:43Z</time>
      </trkpt>
      <trkpt lat="47.48592" lon="-0.63134">
        <ele>47.6</ele>
        <time>2021-07-04T06:06:45Z</time>
      </trkpt>
      <trkpt lat="47.48585" lon="-0.63125">
        <ele>48.4</ele>
        <time>2021-07-04T06:06:47Z</time>
      </trkpt>
      <trkpt lat="47.48578" lon="-0.63116">
        <ele>49</ele>
        <time>2021-07-04T06:06:49Z</time>
      </trkpt>
      <trkpt lat="47.48575" lon="-0.63112">
        <ele>49.2</ele>
        <time>2021-07-04T06:06:50Z</time>
      </trkpt>
      <trkpt lat="47.48573" lon="-0.63108">
        <ele>49.6</ele>
        <time>2021-07-04T06:06:51Z</time>
      </trkpt>
      <trkpt lat="47.4857" lon="-0.63107">
        <ele>50</ele>
        <time>2021-07-04T06:06:52Z</time>
      </trkpt>
      <trkpt lat="47.48566" lon="-0.63108">
        <ele>50.6</ele>
        <time>2021-07-04T06:06:53Z</time>
      </trkpt>
      <trkpt lat="47.48558" lon="-0.63113">
        <ele>50.6</ele>
        <time>2021-07-04T06:06:55Z</time>
      </trkpt>
      <trkpt lat="47.4855" lon="-0.63119">
        <ele>50.4</ele>
        <time>2021-07-04T06:06:57Z</time>
      </trkpt>
      <trkpt lat="47.48541" lon="-0.63125">
        <ele>50.2</ele>
        <time>2021-07-04T06:06:59Z</time>
      </trkpt>
      <trkpt lat="47.48537" lon="-0.63129">
        <ele>50</ele>
        <time>2021-07-04T06:07:00Z</time>
      </trkpt>
      <trkpt lat="47.48533" lon="-0.63133">
        <ele>50</ele>
        <time>2021-07-04T06:07:01Z</time>
      </trkpt>
      <trkpt lat="47.48529" lon="-0.63137">
        <ele>49.6</ele>
        <time>2021-07-04T06:07:02Z</time>
      </trkpt>
      <trkpt lat="47.48525" lon="-0.63142">
        <ele>49.4</ele>
        <time>2021-07-04T06:07:03Z</time>
      </trkpt>
      <trkpt lat="47.4852" lon="-0.63154">
        <ele>49.8</ele>
        <time>2021-07-04T06:07:05Z</time>
      </trkpt>
      <trkpt lat="47.48515" lon="-0.63165">
        <ele>50.2</ele>
        <time>2021-07-04T06:07:07Z</time>
      </trkpt>
      <trkpt lat="47.48511" lon="-0.63177">
        <ele>51</ele>
        <time>2021-07-04T06:07:09Z</time>
      </trkpt>
      <trkpt lat="47.48506" lon="-0.63187">
        <ele>51.4</ele>
        <time>2021-07-04T06:07:11Z</time>
      </trkpt>
      <trkpt lat="47.48502" lon="-0.63188">
        <ele>51.4</ele>
        <time>2021-07-04T06:07:12Z</time>
      </trkpt>
      <trkpt lat="47.48498" lon="-0.63188">
        <ele>51.2</ele>
        <time>2021-07-04T06:07:13Z</time>
      </trkpt>
      <trkpt lat="47.4849" lon="-0.63181">
        <ele>51.2</ele>
        <time>2021-07-04T06:07:15Z</time>
      </trkpt>
      <trkpt lat="47.48484" lon="-0.63172">
        <ele>51.4</ele>
        <time>2021-07-04T06:07:17Z</time>
      </trkpt>
      <trkpt lat="47.48479" lon="-0.6317">
        <ele>51.4</ele>
        <time>2021-07-04T06:07:18Z</time>
      </trkpt>
      <trkpt lat="47.48474" lon="-0.63171">
        <ele>51.6</ele>
        <time>2021-07-04T06:07:19Z</time>
      </trkpt>
      <trkpt lat="47.48464" lon="-0.63173">
        <ele>51.8</ele>
        <time>2021-07-04T06:07:21Z</time>
      </trkpt>
      <trkpt lat="47.48459" lon="-0.63175">
        <ele>51.8</ele>
        <time>2021-07-04T06:07:22Z</time>
      </trkpt>
      <trkpt lat="47.48454" lon="-0.63176">
        <ele>51.8</ele>
        <time>2021-07-04T06:07:23Z</time>
      </trkpt>
      <trkpt lat="47.48445" lon="-0.63179">
        <ele>52</ele>
        <time>2021-07-04T06:07:25Z</time>
      </trkpt>
      <trkpt lat="47.48436" lon="-0.63182">
        <ele>52.4</ele>
        <time>2021-07-04T06:07:27Z</time>
      </trkpt>
      <trkpt lat="47.48427" lon="-0.63184">
        <ele>53</ele>
        <time>2021-07-04T06:07:29Z</time>
      </trkpt>
      <trkpt lat="47.48422" lon="-0.63185">
        <ele>53.4</ele>
        <time>2021-07-04T06:07:30Z</time>
      </trkpt>
      <trkpt lat="47.48417" lon="-0.63186">
        <ele>53.8</ele>
        <time>2021-07-04T06:07:31Z</time>
      </trkpt>
      <trkpt lat="47.48412" lon="-0.63186">
        <ele>54</ele>
        <time>2021-07-04T06:07:32Z</time>
      </trkpt>
      <trkpt lat="47.48407" lon="-0.63187">
        <ele>54.4</ele>
        <time>2021-07-04T06:07:33Z</time>
      </trkpt>
      <trkpt lat="47.48398" lon="-0.63187">
        <ele>54.6</ele>
        <time>2021-07-04T06:07:35Z</time>
      </trkpt>
      <trkpt lat="47.48388" lon="-0.63188">
        <ele>55</ele>
        <time>2021-07-04T06:07:37Z</time>
      </trkpt>
      <trkpt lat="47.48384" lon="-0.63188">
        <ele>55.2</ele>
        <time>2021-07-04T06:07:38Z</time>
      </trkpt>
      <trkpt lat="47.48379" lon="-0.63188">
        <ele>55.2</ele>
        <time>2021-07-04T06:07:39Z</time>
      </trkpt>
      <trkpt lat="47.4837" lon="-0.63188">
        <ele>55.8</ele>
        <time>2021-07-04T06:07:41Z</time>
      </trkpt>
      <trkpt lat="47.48361" lon="-0.63188">
        <ele>56.2</ele>
        <time>2021-07-04T06:07:43Z</time>
      </trkpt>
      <trkpt lat="47.48352" lon="-0.63188">
        <ele>56.6</ele>
        <time>2021-07-04T06:07:45Z</time>
      </trkpt>
      <trkpt lat="47.48343" lon="-0.63188">
        <ele>56.6</ele>
        <time>2021-07-04T06:07:47Z</time>
      </trkpt>
      <trkpt lat="47.48339" lon="-0.63188">
        <ele>56.6</ele>
        <time>2021-07-04T06:07:48Z</time>
      </trkpt>
      <trkpt lat="47.48335" lon="-0.63187">
        <ele>56.8</ele>
        <time>2021-07-04T06:07:49Z</time>
      </trkpt>
      <trkpt lat="47.48327" lon="-0.6319">
        <ele>57.4</ele>
        <time>2021-07-04T06:07:51Z</time>
      </trkpt>
      <trkpt lat="47.48324" lon="-0.63194">
        <ele>58</ele>
        <time>2021-07-04T06:07:52Z</time>
      </trkpt>
      <trkpt lat="47.48322" lon="-0.63199">
        <ele>58.4</ele>
        <time>2021-07-04T06:07:53Z</time>
      </trkpt>
      <trkpt lat="47.48321" lon="-0.63206">
        <ele>58.6</ele>
        <time>2021-07-04T06:07:54Z</time>
      </trkpt>
      <trkpt lat="47.48318" lon="-0.6321">
        <ele>58.8</ele>
        <time>2021-07-04T06:07:55Z</time>
      </trkpt>
      <trkpt lat="47.48308" lon="-0.63213">
        <ele>58.8</ele>
        <time>2021-07-04T06:07:57Z</time>
      </trkpt>
      <trkpt lat="47.48304" lon="-0.63213">
        <ele>58.6</ele>
        <time>2021-07-04T06:07:58Z</time>
      </trkpt>
      <trkpt lat="47.48299" lon="-0.63209">
        <ele>58.6</ele>
        <time>2021-07-04T06:07:59Z</time>
      </trkpt>
      <trkpt lat="47.48294" lon="-0.632">
        <ele>58.6</ele>
        <time>2021-07-04T06:08:01Z</time>
      </trkpt>
      <trkpt lat="47.48286" lon="-0.63191">
        <ele>59</ele>
        <time>2021-07-04T06:08:03Z</time>
      </trkpt>
      <trkpt lat="47.48283" lon="-0.63186">
        <ele>59.2</ele>
        <time>2021-07-04T06:08:04Z</time>
      </trkpt>
      <trkpt lat="47.48281" lon="-0.6318">
        <ele>59.4</ele>
        <time>2021-07-04T06:08:05Z</time>
      </trkpt>
      <trkpt lat="47.48278" lon="-0.63175">
        <ele>59.4</ele>
        <time>2021-07-04T06:08:06Z</time>
      </trkpt>
      <trkpt lat="47.48275" lon="-0.63169">
        <ele>59.6</ele>
        <time>2021-07-04T06:08:07Z</time>
      </trkpt>
      <trkpt lat="47.48272" lon="-0.63165">
        <ele>59.6</ele>
        <time>2021-07-04T06:08:08Z</time>
      </trkpt>
      <trkpt lat="47.48269" lon="-0.63162">
        <ele>59.6</ele>
        <time>2021-07-04T06:08:09Z</time>
      </trkpt>
      <trkpt lat="47.48262" lon="-0.63158">
        <ele>59.8</ele>
        <time>2021-07-04T06:08:11Z</time>
      </trkpt>
      <trkpt lat="47.48254" lon="-0.63158">
        <ele>60.2</ele>
        <time>2021-07-04T06:08:13Z</time>
      </trkpt>
      <trkpt lat="47.48251" lon="-0.63155">
        <ele>60.6</ele>
        <time>2021-07-04T06:08:14Z</time>
      </trkpt>
      <trkpt lat="47.48249" lon="-0.63149">
        <ele>60.8</ele>
        <time>2021-07-04T06:08:15Z</time>
      </trkpt>
      <trkpt lat="47.48246" lon="-0.63136">
        <ele>60.6</ele>
        <time>2021-07-04T06:08:17Z</time>
      </trkpt>
      <trkpt lat="47.48246" lon="-0.63122">
        <ele>60.6</ele>
        <time>2021-07-04T06:08:19Z</time>
      </trkpt>
      <trkpt lat="47.48254" lon="-0.63114">
        <ele>60.6</ele>
        <time>2021-07-04T06:08:21Z</time>
      </trkpt>
      <trkpt lat="47.48255" lon="-0.63107">
        <ele>60.4</ele>
        <time>2021-07-04T06:08:22Z</time>
      </trkpt>
      <trkpt lat="47.48255" lon="-0.63099">
        <ele>60.4</ele>
        <time>2021-07-04T06:08:23Z</time>
      </trkpt>
      <trkpt lat="47.48255" lon="-0.63092">
        <ele>60.2</ele>
        <time>2021-07-04T06:08:24Z</time>
      </trkpt>
      <trkpt lat="47.48254" lon="-0.63083">
        <ele>60.2</ele>
        <time>2021-07-04T06:08:25Z</time>
      </trkpt>
      <trkpt lat="47.48252" lon="-0.63066">
        <ele>59.8</ele>
        <time>2021-07-04T06:08:27Z</time>
      </trkpt>
      <trkpt lat="47.48251" lon="-0.63058">
        <ele>59.6</ele>
        <time>2021-07-04T06:08:28Z</time>
      </trkpt>
      <trkpt lat="47.4825" lon="-0.63049">
        <ele>59.4</ele>
        <time>2021-07-04T06:08:29Z</time>
      </trkpt>
      <trkpt lat="47.48249" lon="-0.6303">
        <ele>59.2</ele>
        <time>2021-07-04T06:08:31Z</time>
      </trkpt>
      <trkpt lat="47.48247" lon="-0.63012">
        <ele>58.8</ele>
        <time>2021-07-04T06:08:33Z</time>
      </trkpt>
      <trkpt lat="47.48247" lon="-0.63002">
        <ele>58.6</ele>
        <time>2021-07-04T06:08:34Z</time>
      </trkpt>
      <trkpt lat="47.48247" lon="-0.62993">
        <ele>58.4</ele>
        <time>2021-07-04T06:08:35Z</time>
      </trkpt>
      <trkpt lat="47.48245" lon="-0.62974">
        <ele>58</ele>
        <time>2021-07-04T06:08:37Z</time>
      </trkpt>
      <trkpt lat="47.48245" lon="-0.62964">
        <ele>57.8</ele>
        <time>2021-07-04T06:08:38Z</time>
      </trkpt>
      <trkpt lat="47.48244" lon="-0.62954">
        <ele>57.6</ele>
        <time>2021-07-04T06:08:39Z</time>
      </trkpt>
      <trkpt lat="47.48244" lon="-0.62945">
        <ele>57.4</ele>
        <time>2021-07-04T06:08:40Z</time>
      </trkpt>
      <trkpt lat="47.48244" lon="-0.62936">
        <ele>57.2</ele>
        <time>2021-07-04T06:08:41Z</time>
      </trkpt>
      <trkpt lat="47.48244" lon="-0.62918">
        <ele>57</ele>
        <time>2021-07-04T06:08:43Z</time>
      </trkpt>
      <trkpt lat="47.48243" lon="-0.62901">
        <ele>57.2</ele>
        <time>2021-07-04T06:08:45Z</time>
      </trkpt>
      <trkpt lat="47.48244" lon="-0.62892">
        <ele>57.4</ele>
        <time>2021-07-04T06:08:46Z</time>
      </trkpt>
      <trkpt lat="47.48244" lon="-0.62883">
        <ele>57.6</ele>
        <time>2021-07-04T06:08:47Z</time>
      </trkpt>
      <trkpt lat="47.48244" lon="-0.62874">
        <ele>57.8</ele>
        <time>2021-07-04T06:08:48Z</time>
      </trkpt>
      <trkpt lat="47.48243" lon="-0.62866">
        <ele>57.6</ele>
        <time>2021-07-04T06:08:49Z</time>
      </trkpt>
      <trkpt lat="47.48242" lon="-0.62849">
        <ele>57.4</ele>
        <time>2021-07-04T06:08:51Z</time>
      </trkpt>
      <trkpt lat="47.48242" lon="-0.62831">
        <ele>57.4</ele>
        <time>2021-07-04T06:08:53Z</time>
      </trkpt>
      <trkpt lat="47.48241" lon="-0.62812">
        <ele>56.8</ele>
        <time>2021-07-04T06:08:55Z</time>
      </trkpt>
      <trkpt lat="47.48241" lon="-0.62793">
        <ele>56.4</ele>
        <time>2021-07-04T06:08:57Z</time>
      </trkpt>
      <trkpt lat="47.48241" lon="-0.62783">
        <ele>56.2</ele>
        <time>2021-07-04T06:08:58Z</time>
      </trkpt>
      <trkpt lat="47.48242" lon="-0.62774">
        <ele>56</ele>
        <time>2021-07-04T06:08:59Z</time>
      </trkpt>
      <trkpt lat="47.48241" lon="-0.62755">
        <ele>55.8</ele>
        <time>2021-07-04T06:09:01Z</time>
      </trkpt>
      <trkpt lat="47.4824" lon="-0.62738">
        <ele>55.8</ele>
        <time>2021-07-04T06:09:03Z</time>
      </trkpt>
      <trkpt lat="47.4824" lon="-0.6273">
        <ele>55.8</ele>
        <time>2021-07-04T06:09:04Z</time>
      </trkpt>
      <trkpt lat="47.48239" lon="-0.62721">
        <ele>55.8</ele>
        <time>2021-07-04T06:09:05Z</time>
      </trkpt>
      <trkpt lat="47.48238" lon="-0.62702">
        <ele>55.6</ele>
        <time>2021-07-04T06:09:07Z</time>
      </trkpt>
      <trkpt lat="47.48235" lon="-0.62684">
        <ele>55.2</ele>
        <time>2021-07-04T06:09:09Z</time>
      </trkpt>
      <trkpt lat="47.48233" lon="-0.62674">
        <ele>55.2</ele>
        <time>2021-07-04T06:09:10Z</time>
      </trkpt>
      <trkpt lat="47.48232" lon="-0.62664">
        <ele>55</ele>
        <time>2021-07-04T06:09:11Z</time>
      </trkpt>
      <trkpt lat="47.48231" lon="-0.62644">
        <ele>54.4</ele>
        <time>2021-07-04T06:09:13Z</time>
      </trkpt>
      <trkpt lat="47.48231" lon="-0.62634">
        <ele>54</ele>
        <time>2021-07-04T06:09:14Z</time>
      </trkpt>
      <trkpt lat="47.48231" lon="-0.62624">
        <ele>53.6</ele>
        <time>2021-07-04T06:09:15Z</time>
      </trkpt>
      <trkpt lat="47.4823" lon="-0.62603">
        <ele>52.4</ele>
        <time>2021-07-04T06:09:17Z</time>
      </trkpt>
      <trkpt lat="47.48229" lon="-0.62583">
        <ele>52.2</ele>
        <time>2021-07-04T06:09:19Z</time>
      </trkpt>
      <trkpt lat="47.48229" lon="-0.62562">
        <ele>52</ele>
        <time>2021-07-04T06:09:21Z</time>
      </trkpt>
      <trkpt lat="47.48229" lon="-0.62542">
        <ele>52</ele>
        <time>2021-07-04T06:09:23Z</time>
      </trkpt>
      <trkpt lat="47.4823" lon="-0.62522">
        <ele>51.6</ele>
        <time>2021-07-04T06:09:25Z</time>
      </trkpt>
      <trkpt lat="47.4823" lon="-0.62512">
        <ele>51.4</ele>
        <time>2021-07-04T06:09:26Z</time>
      </trkpt>
      <trkpt lat="47.4823" lon="-0.62501">
        <ele>51.2</ele>
        <time>2021-07-04T06:09:27Z</time>
      </trkpt>
      <trkpt lat="47.48231" lon="-0.6248">
        <ele>51</ele>
        <time>2021-07-04T06:09:29Z</time>
      </trkpt>
      <trkpt lat="47.48232" lon="-0.62469">
        <ele>50.8</ele>
        <time>2021-07-04T06:09:30Z</time>
      </trkpt>
      <trkpt lat="47.48232" lon="-0.62459">
        <ele>50.8</ele>
        <time>2021-07-04T06:09:31Z</time>
      </trkpt>
      <trkpt lat="47.48234" lon="-0.62438">
        <ele>50.8</ele>
        <time>2021-07-04T06:09:33Z</time>
      </trkpt>
      <trkpt lat="47.48235" lon="-0.62419">
        <ele>51</ele>
        <time>2021-07-04T06:09:35Z</time>
      </trkpt>
      <trkpt lat="47.48234" lon="-0.6241">
        <ele>51.2</ele>
        <time>2021-07-04T06:09:36Z</time>
      </trkpt>
      <trkpt lat="47.4823" lon="-0.62402">
        <ele>51.4</ele>
        <time>2021-07-04T06:09:37Z</time>
      </trkpt>
      <trkpt lat="47.4822" lon="-0.62389">
        <ele>51.2</ele>
        <time>2021-07-04T06:09:39Z</time>
      </trkpt>
      <trkpt lat="47.48215" lon="-0.62383">
        <ele>51</ele>
        <time>2021-07-04T06:09:40Z</time>
      </trkpt>
      <trkpt lat="47.48209" lon="-0.62377">
        <ele>50.8</ele>
        <time>2021-07-04T06:09:41Z</time>
      </trkpt>
      <trkpt lat="47.48198" lon="-0.62364">
        <ele>50.2</ele>
        <time>2021-07-04T06:09:43Z</time>
      </trkpt>
      <trkpt lat="47.48187" lon="-0.6235">
        <ele>49.8</ele>
        <time>2021-07-04T06:09:45Z</time>
      </trkpt>
      <trkpt lat="47.48181" lon="-0.62344">
        <ele>49.8</ele>
        <time>2021-07-04T06:09:46Z</time>
      </trkpt>
      <trkpt lat="47.48175" lon="-0.62337">
        <ele>49.8</ele>
        <time>2021-07-04T06:09:47Z</time>
      </trkpt>
      <trkpt lat="47.48163" lon="-0.62324">
        <ele>49.4</ele>
        <time>2021-07-04T06:09:49Z</time>
      </trkpt>
      <trkpt lat="47.48157" lon="-0.62317">
        <ele>49</ele>
        <time>2021-07-04T06:09:50Z</time>
      </trkpt>
      <trkpt lat="47.48151" lon="-0.62311">
        <ele>49</ele>
        <time>2021-07-04T06:09:51Z</time>
      </trkpt>
      <trkpt lat="47.48138" lon="-0.62301">
        <ele>48.8</ele>
        <time>2021-07-04T06:09:53Z</time>
      </trkpt>
      <trkpt lat="47.48131" lon="-0.62297">
        <ele>48.6</ele>
        <time>2021-07-04T06:09:54Z</time>
      </trkpt>
      <trkpt lat="47.48123" lon="-0.62295">
        <ele>48.4</ele>
        <time>2021-07-04T06:09:55Z</time>
      </trkpt>
      <trkpt lat="47.48109" lon="-0.6229">
        <ele>48.4</ele>
        <time>2021-07-04T06:09:57Z</time>
      </trkpt>
      <trkpt lat="47.48096" lon="-0.62288">
        <ele>48.6</ele>
        <time>2021-07-04T06:09:59Z</time>
      </trkpt>
      <trkpt lat="47.48084" lon="-0.62284">
        <ele>48.6</ele>
        <time>2021-07-04T06:10:01Z</time>
      </trkpt>
      <trkpt lat="47.4808" lon="-0.62281">
        <ele>48.8</ele>
        <time>2021-07-04T06:10:02Z</time>
      </trkpt>
      <trkpt lat="47.48077" lon="-0.62278">
        <ele>49.2</ele>
        <time>2021-07-04T06:10:03Z</time>
      </trkpt>
      <trkpt lat="47.48074" lon="-0.62267">
        <ele>50</ele>
        <time>2021-07-04T06:10:05Z</time>
      </trkpt>
      <trkpt lat="47.4807" lon="-0.62262">
        <ele>50.2</ele>
        <time>2021-07-04T06:10:06Z</time>
      </trkpt>
      <trkpt lat="47.48067" lon="-0.62259">
        <ele>50.4</ele>
        <time>2021-07-04T06:10:07Z</time>
      </trkpt>
      <trkpt lat="47.48061" lon="-0.62258">
        <ele>50.4</ele>
        <time>2021-07-04T06:10:08Z</time>
      </trkpt>
      <trkpt lat="47.48055" lon="-0.62259">
        <ele>50.4</ele>
        <time>2021-07-04T06:10:09Z</time>
      </trkpt>
      <trkpt lat="47.48048" lon="-0.62259">
        <ele>50.4</ele>
        <time>2021-07-04T06:10:10Z</time>
      </trkpt>
      <trkpt lat="47.48042" lon="-0.62259">
        <ele>50.2</ele>
        <time>2021-07-04T06:10:11Z</time>
      </trkpt>
      <trkpt lat="47.48029" lon="-0.62258">
        <ele>50</ele>
        <time>2021-07-04T06:10:13Z</time>
      </trkpt>
      <trkpt lat="47.48023" lon="-0.6226">
        <ele>50</ele>
        <time>2021-07-04T06:10:14Z</time>
      </trkpt>
      <trkpt lat="47.48016" lon="-0.62264">
        <ele>50.2</ele>
        <time>2021-07-04T06:10:15Z</time>
      </trkpt>
      <trkpt lat="47.48012" lon="-0.6227">
        <ele>50.4</ele>
        <time>2021-07-04T06:10:16Z</time>
      </trkpt>
      <trkpt lat="47.4801" lon="-0.62275">
        <ele>50.6</ele>
        <time>2021-07-04T06:10:17Z</time>
      </trkpt>
      <trkpt lat="47.48004" lon="-0.62279">
        <ele>51</ele>
        <time>2021-07-04T06:10:19Z</time>
      </trkpt>
      <trkpt lat="47.48002" lon="-0.62276">
        <ele>51.2</ele>
        <time>2021-07-04T06:10:20Z</time>
      </trkpt>
      <trkpt lat="47.48" lon="-0.62272">
        <ele>51.4</ele>
        <time>2021-07-04T06:10:21Z</time>
      </trkpt>
      <trkpt lat="47.47998" lon="-0.62267">
        <ele>51.4</ele>
        <time>2021-07-04T06:10:22Z</time>
      </trkpt>
      <trkpt lat="47.47996" lon="-0.62261">
        <ele>51.2</ele>
        <time>2021-07-04T06:10:23Z</time>
      </trkpt>
      <trkpt lat="47.47991" lon="-0.62248">
        <ele>50.8</ele>
        <time>2021-07-04T06:10:25Z</time>
      </trkpt>
      <trkpt lat="47.47985" lon="-0.62238">
        <ele>50.6</ele>
        <time>2021-07-04T06:10:27Z</time>
      </trkpt>
      <trkpt lat="47.47981" lon="-0.62232">
        <ele>50.4</ele>
        <time>2021-07-04T06:10:28Z</time>
      </trkpt>
      <trkpt lat="47.47976" lon="-0.62228">
        <ele>50.2</ele>
        <time>2021-07-04T06:10:29Z</time>
      </trkpt>
      <trkpt lat="47.47966" lon="-0.62222">
        <ele>50.4</ele>
        <time>2021-07-04T06:10:31Z</time>
      </trkpt>
      <trkpt lat="47.47954" lon="-0.62217">
        <ele>50.6</ele>
        <time>2021-07-04T06:10:33Z</time>
      </trkpt>
      <trkpt lat="47.47949" lon="-0.62215">
        <ele>50.8</ele>
        <time>2021-07-04T06:10:34Z</time>
      </trkpt>
      <trkpt lat="47.47944" lon="-0.62214">
        <ele>51</ele>
        <time>2021-07-04T06:10:35Z</time>
      </trkpt>
      <trkpt lat="47.47938" lon="-0.62212">
        <ele>50.8</ele>
        <time>2021-07-04T06:10:36Z</time>
      </trkpt>
      <trkpt lat="47.47933" lon="-0.6221">
        <ele>50.8</ele>
        <time>2021-07-04T06:10:37Z</time>
      </trkpt>
      <trkpt lat="47.47922" lon="-0.62206">
        <ele>50.6</ele>
        <time>2021-07-04T06:10:39Z</time>
      </trkpt>
      <trkpt lat="47.4791" lon="-0.622">
        <ele>50.8</ele>
        <time>2021-07-04T06:10:41Z</time>
      </trkpt>
      <trkpt lat="47.47899" lon="-0.62194">
        <ele>50.8</ele>
        <time>2021-07-04T06:10:43Z</time>
      </trkpt>
      <trkpt lat="47.47894" lon="-0.62192">
        <ele>51</ele>
        <time>2021-07-04T06:10:44Z</time>
      </trkpt>
      <trkpt lat="47.47889" lon="-0.62189">
        <ele>51</ele>
        <time>2021-07-04T06:10:45Z</time>
      </trkpt>
      <trkpt lat="47.47877" lon="-0.62185">
        <ele>51.2</ele>
        <time>2021-07-04T06:10:47Z</time>
      </trkpt>
      <trkpt lat="47.47867" lon="-0.62181">
        <ele>51.4</ele>
        <time>2021-07-04T06:10:49Z</time>
      </trkpt>
      <trkpt lat="47.47855" lon="-0.62176">
        <ele>51.8</ele>
        <time>2021-07-04T06:10:51Z</time>
      </trkpt>
      <trkpt lat="47.47845" lon="-0.6217">
        <ele>52.2</ele>
        <time>2021-07-04T06:10:53Z</time>
      </trkpt>
      <trkpt lat="47.47835" lon="-0.62166">
        <ele>52</ele>
        <time>2021-07-04T06:10:55Z</time>
      </trkpt>
      <trkpt lat="47.47829" lon="-0.62163">
        <ele>52.2</ele>
        <time>2021-07-04T06:10:56Z</time>
      </trkpt>
      <trkpt lat="47.47825" lon="-0.6216">
        <ele>52.2</ele>
        <time>2021-07-04T06:10:57Z</time>
      </trkpt>
      <trkpt lat="47.47815" lon="-0.62154">
        <ele>52.2</ele>
        <time>2021-07-04T06:10:59Z</time>
      </trkpt>
      <trkpt lat="47.4781" lon="-0.62151">
        <ele>52.2</ele>
        <time>2021-07-04T06:11:00Z</time>
      </trkpt>
      <trkpt lat="47.47804" lon="-0.62148">
        <ele>52.6</ele>
        <time>2021-07-04T06:11:01Z</time>
      </trkpt>
      <trkpt lat="47.47795" lon="-0.62142">
        <ele>52.8</ele>
        <time>2021-07-04T06:11:03Z</time>
      </trkpt>
      <trkpt lat="47.47786" lon="-0.62134">
        <ele>53</ele>
        <time>2021-07-04T06:11:05Z</time>
      </trkpt>
      <trkpt lat="47.47777" lon="-0.62126">
        <ele>53</ele>
        <time>2021-07-04T06:11:07Z</time>
      </trkpt>
      <trkpt lat="47.47768" lon="-0.62119">
        <ele>53.2</ele>
        <time>2021-07-04T06:11:09Z</time>
      </trkpt>
      <trkpt lat="47.47764" lon="-0.62115">
        <ele>53.4</ele>
        <time>2021-07-04T06:11:10Z</time>
      </trkpt>
      <trkpt lat="47.47759" lon="-0.62112">
        <ele>53.4</ele>
        <time>2021-07-04T06:11:11Z</time>
      </trkpt>
      <trkpt lat="47.47754" lon="-0.62109">
        <ele>53.4</ele>
        <time>2021-07-04T06:11:12Z</time>
      </trkpt>
      <trkpt lat="47.47749" lon="-0.62105">
        <ele>53.4</ele>
        <time>2021-07-04T06:11:13Z</time>
      </trkpt>
      <trkpt lat="47.4774" lon="-0.62099">
        <ele>53.2</ele>
        <time>2021-07-04T06:11:15Z</time>
      </trkpt>
      <trkpt lat="47.4773" lon="-0.62091">
        <ele>53</ele>
        <time>2021-07-04T06:11:17Z</time>
      </trkpt>
      <trkpt lat="47.47725" lon="-0.62088">
        <ele>53.2</ele>
        <time>2021-07-04T06:11:18Z</time>
      </trkpt>
      <trkpt lat="47.4772" lon="-0.62084">
        <ele>53.4</ele>
        <time>2021-07-04T06:11:19Z</time>
      </trkpt>
      <trkpt lat="47.47711" lon="-0.62076">
        <ele>53.8</ele>
        <time>2021-07-04T06:11:21Z</time>
      </trkpt>
      <trkpt lat="47.47701" lon="-0.62068">
        <ele>54</ele>
        <time>2021-07-04T06:11:23Z</time>
      </trkpt>
      <trkpt lat="47.47691" lon="-0.6206">
        <ele>54.2</ele>
        <time>2021-07-04T06:11:25Z</time>
      </trkpt>
      <trkpt lat="47.47683" lon="-0.62051">
        <ele>54.2</ele>
        <time>2021-07-04T06:11:27Z</time>
      </trkpt>
      <trkpt lat="47.47674" lon="-0.62042">
        <ele>54.6</ele>
        <time>2021-07-04T06:11:29Z</time>
      </trkpt>
      <trkpt lat="47.47666" lon="-0.62032">
        <ele>54.8</ele>
        <time>2021-07-04T06:11:31Z</time>
      </trkpt>
      <trkpt lat="47.47657" lon="-0.62022">
        <ele>54.8</ele>
        <time>2021-07-04T06:11:33Z</time>
      </trkpt>
      <trkpt lat="47.47653" lon="-0.62017">
        <ele>54.8</ele>
        <time>2021-07-04T06:11:34Z</time>
      </trkpt>
      <trkpt lat="47.47648" lon="-0.62011">
        <ele>55</ele>
        <time>2021-07-04T06:11:35Z</time>
      </trkpt>
      <trkpt lat="47.4764" lon="-0.62001">
        <ele>55</ele>
        <time>2021-07-04T06:11:37Z</time>
      </trkpt>
      <trkpt lat="47.47631" lon="-0.61991">
        <ele>55</ele>
        <time>2021-07-04T06:11:39Z</time>
      </trkpt>
      <trkpt lat="47.47623" lon="-0.6198">
        <ele>55</ele>
        <time>2021-07-04T06:11:41Z</time>
      </trkpt>
      <trkpt lat="47.47615" lon="-0.61969">
        <ele>55.2</ele>
        <time>2021-07-04T06:11:43Z</time>
      </trkpt>
      <trkpt lat="47.47607" lon="-0.61958">
        <ele>55.4</ele>
        <time>2021-07-04T06:11:45Z</time>
      </trkpt>
      <trkpt lat="47.47599" lon="-0.61947">
        <ele>55.4</ele>
        <time>2021-07-04T06:11:47Z</time>
      </trkpt>
      <trkpt lat="47.4759" lon="-0.61936">
        <ele>55.2</ele>
        <time>2021-07-04T06:11:49Z</time>
      </trkpt>
      <trkpt lat="47.47582" lon="-0.61924">
        <ele>55.2</ele>
        <time>2021-07-04T06:11:51Z</time>
      </trkpt>
      <trkpt lat="47.47574" lon="-0.61914">
        <ele>55.2</ele>
        <time>2021-07-04T06:11:53Z</time>
      </trkpt>
      <trkpt lat="47.47565" lon="-0.61904">
        <ele>55.6</ele>
        <time>2021-07-04T06:11:55Z</time>
      </trkpt>
      <trkpt lat="47.47556" lon="-0.61894">
        <ele>55.8</ele>
        <time>2021-07-04T06:11:57Z</time>
      </trkpt>
      <trkpt lat="47.47552" lon="-0.6189">
        <ele>55.8</ele>
        <time>2021-07-04T06:11:58Z</time>
      </trkpt>
      <trkpt lat="47.47548" lon="-0.61886">
        <ele>56</ele>
        <time>2021-07-04T06:11:59Z</time>
      </trkpt>
      <trkpt lat="47.47539" lon="-0.61877">
        <ele>56.8</ele>
        <time>2021-07-04T06:12:01Z</time>
      </trkpt>
      <trkpt lat="47.47531" lon="-0.61869">
        <ele>57.4</ele>
        <time>2021-07-04T06:12:03Z</time>
      </trkpt>
      <trkpt lat="47.47523" lon="-0.61862">
        <ele>57.2</ele>
        <time>2021-07-04T06:12:05Z</time>
      </trkpt>
      <trkpt lat="47.47514" lon="-0.61854">
        <ele>57.2</ele>
        <time>2021-07-04T06:12:07Z</time>
      </trkpt>
      <trkpt lat="47.47504" lon="-0.61847">
        <ele>57.4</ele>
        <time>2021-07-04T06:12:09Z</time>
      </trkpt>
      <trkpt lat="47.47495" lon="-0.61839">
        <ele>57.4</ele>
        <time>2021-07-04T06:12:11Z</time>
      </trkpt>
      <trkpt lat="47.47486" lon="-0.61831">
        <ele>57.8</ele>
        <time>2021-07-04T06:12:13Z</time>
      </trkpt>
      <trkpt lat="47.47482" lon="-0.61827">
        <ele>57.8</ele>
        <time>2021-07-04T06:12:14Z</time>
      </trkpt>
      <trkpt lat="47.47477" lon="-0.61823">
        <ele>58</ele>
        <time>2021-07-04T06:12:15Z</time>
      </trkpt>
      <trkpt lat="47.47467" lon="-0.61815">
        <ele>57.8</ele>
        <time>2021-07-04T06:12:17Z</time>
      </trkpt>
      <trkpt lat="47.47458" lon="-0.61808">
        <ele>57.8</ele>
        <time>2021-07-04T06:12:19Z</time>
      </trkpt>
      <trkpt lat="47.47448" lon="-0.61802">
        <ele>58.4</ele>
        <time>2021-07-04T06:12:21Z</time>
      </trkpt>
      <trkpt lat="47.4744" lon="-0.61796">
        <ele>58.8</ele>
        <time>2021-07-04T06:12:23Z</time>
      </trkpt>
      <trkpt lat="47.47432" lon="-0.6179">
        <ele>59.6</ele>
        <time>2021-07-04T06:12:25Z</time>
      </trkpt>
      <trkpt lat="47.47428" lon="-0.61786">
        <ele>59.8</ele>
        <time>2021-07-04T06:12:26Z</time>
      </trkpt>
      <trkpt lat="47.47424" lon="-0.61781">
        <ele>59.6</ele>
        <time>2021-07-04T06:12:27Z</time>
      </trkpt>
      <trkpt lat="47.47419" lon="-0.61766">
        <ele>59.2</ele>
        <time>2021-07-04T06:12:29Z</time>
      </trkpt>
      <trkpt lat="47.47418" lon="-0.61759">
        <ele>59.4</ele>
        <time>2021-07-04T06:12:30Z</time>
      </trkpt>
      <trkpt lat="47.47417" lon="-0.61752">
        <ele>59.4</ele>
        <time>2021-07-04T06:12:31Z</time>
      </trkpt>
      <trkpt lat="47.47416" lon="-0.61745">
        <ele>59.4</ele>
        <time>2021-07-04T06:12:32Z</time>
      </trkpt>
      <trkpt lat="47.47416" lon="-0.61738">
        <ele>59.4</ele>
        <time>2021-07-04T06:12:33Z</time>
      </trkpt>
      <trkpt lat="47.47415" lon="-0.61724">
        <ele>59</ele>
        <time>2021-07-04T06:12:35Z</time>
      </trkpt>
      <trkpt lat="47.47414" lon="-0.61717">
        <ele>58.8</ele>
        <time>2021-07-04T06:12:36Z</time>
      </trkpt>
      <trkpt lat="47.47414" lon="-0.6171">
        <ele>58.6</ele>
        <time>2021-07-04T06:12:37Z</time>
      </trkpt>
      <trkpt lat="47.47412" lon="-0.61695">
        <ele>58.6</ele>
        <time>2021-07-04T06:12:39Z</time>
      </trkpt>
      <trkpt lat="47.47412" lon="-0.61688">
        <ele>58.8</ele>
        <time>2021-07-04T06:12:40Z</time>
      </trkpt>
      <trkpt lat="47.47411" lon="-0.61682">
        <ele>59</ele>
        <time>2021-07-04T06:12:41Z</time>
      </trkpt>
      <trkpt lat="47.47408" lon="-0.61678">
        <ele>59.2</ele>
        <time>2021-07-04T06:12:42Z</time>
      </trkpt>
      <trkpt lat="47.47404" lon="-0.61676">
        <ele>59.6</ele>
        <time>2021-07-04T06:12:43Z</time>
      </trkpt>
      <trkpt lat="47.47398" lon="-0.6167">
        <ele>59.8</ele>
        <time>2021-07-04T06:12:45Z</time>
      </trkpt>
      <trkpt lat="47.47397" lon="-0.61656">
        <ele>59.8</ele>
        <time>2021-07-04T06:12:47Z</time>
      </trkpt>
      <trkpt lat="47.47395" lon="-0.6165">
        <ele>60</ele>
        <time>2021-07-04T06:12:48Z</time>
      </trkpt>
      <trkpt lat="47.47391" lon="-0.61647">
        <ele>60</ele>
        <time>2021-07-04T06:12:49Z</time>
      </trkpt>
      <trkpt lat="47.47386" lon="-0.61646">
        <ele>59.8</ele>
        <time>2021-07-04T06:12:50Z</time>
      </trkpt>
      <trkpt lat="47.47381" lon="-0.61646">
        <ele>59.8</ele>
        <time>2021-07-04T06:12:51Z</time>
      </trkpt>
      <trkpt lat="47.47376" lon="-0.61646">
        <ele>59.8</ele>
        <time>2021-07-04T06:12:52Z</time>
      </trkpt>
      <trkpt lat="47.4737" lon="-0.61644">
        <ele>59.8</ele>
        <time>2021-07-04T06:12:53Z</time>
      </trkpt>
      <trkpt lat="47.47365" lon="-0.61642">
        <ele>59.4</ele>
        <time>2021-07-04T06:12:54Z</time>
      </trkpt>
      <trkpt lat="47.4736" lon="-0.61639">
        <ele>59.2</ele>
        <time>2021-07-04T06:12:55Z</time>
      </trkpt>
      <trkpt lat="47.47351" lon="-0.61632">
        <ele>59.2</ele>
        <time>2021-07-04T06:12:57Z</time>
      </trkpt>
      <trkpt lat="47.47346" lon="-0.61628">
        <ele>59.4</ele>
        <time>2021-07-04T06:12:58Z</time>
      </trkpt>
      <trkpt lat="47.47341" lon="-0.61622">
        <ele>59.2</ele>
        <time>2021-07-04T06:12:59Z</time>
      </trkpt>
      <trkpt lat="47.4733" lon="-0.61612">
        <ele>59</ele>
        <time>2021-07-04T06:13:01Z</time>
      </trkpt>
      <trkpt lat="47.4732" lon="-0.616">
        <ele>59</ele>
        <time>2021-07-04T06:13:03Z</time>
      </trkpt>
      <trkpt lat="47.4731" lon="-0.6159">
        <ele>59.2</ele>
        <time>2021-07-04T06:13:05Z</time>
      </trkpt>
      <trkpt lat="47.473" lon="-0.61579">
        <ele>59.2</ele>
        <time>2021-07-04T06:13:07Z</time>
      </trkpt>
      <trkpt lat="47.4729" lon="-0.61568">
        <ele>59.2</ele>
        <time>2021-07-04T06:13:09Z</time>
      </trkpt>
      <trkpt lat="47.4728" lon="-0.61557">
        <ele>59</ele>
        <time>2021-07-04T06:13:11Z</time>
      </trkpt>
      <trkpt lat="47.47271" lon="-0.61547">
        <ele>59</ele>
        <time>2021-07-04T06:13:13Z</time>
      </trkpt>
      <trkpt lat="47.47261" lon="-0.61536">
        <ele>59</ele>
        <time>2021-07-04T06:13:15Z</time>
      </trkpt>
      <trkpt lat="47.47251" lon="-0.61525">
        <ele>58.8</ele>
        <time>2021-07-04T06:13:17Z</time>
      </trkpt>
      <trkpt lat="47.47242" lon="-0.61514">
        <ele>58.8</ele>
        <time>2021-07-04T06:13:19Z</time>
      </trkpt>
      <trkpt lat="47.47232" lon="-0.61504">
        <ele>59</ele>
        <time>2021-07-04T06:13:21Z</time>
      </trkpt>
      <trkpt lat="47.47222" lon="-0.61493">
        <ele>59.2</ele>
        <time>2021-07-04T06:13:23Z</time>
      </trkpt>
      <trkpt lat="47.47212" lon="-0.61482">
        <ele>59</ele>
        <time>2021-07-04T06:13:25Z</time>
      </trkpt>
      <trkpt lat="47.47207" lon="-0.61477">
        <ele>59.2</ele>
        <time>2021-07-04T06:13:26Z</time>
      </trkpt>
      <trkpt lat="47.47202" lon="-0.61471">
        <ele>59</ele>
        <time>2021-07-04T06:13:27Z</time>
      </trkpt>
      <trkpt lat="47.47192" lon="-0.61461">
        <ele>59</ele>
        <time>2021-07-04T06:13:29Z</time>
      </trkpt>
      <trkpt lat="47.47183" lon="-0.61451">
        <ele>59</ele>
        <time>2021-07-04T06:13:31Z</time>
      </trkpt>
      <trkpt lat="47.47173" lon="-0.6144">
        <ele>58.6</ele>
        <time>2021-07-04T06:13:33Z</time>
      </trkpt>
      <trkpt lat="47.47163" lon="-0.6143">
        <ele>58.8</ele>
        <time>2021-07-04T06:13:35Z</time>
      </trkpt>
      <trkpt lat="47.47157" lon="-0.61424">
        <ele>58.6</ele>
        <time>2021-07-04T06:13:36Z</time>
      </trkpt>
      <trkpt lat="47.47152" lon="-0.6142">
        <ele>58.8</ele>
        <time>2021-07-04T06:13:37Z</time>
      </trkpt>
      <trkpt lat="47.47141" lon="-0.61413">
        <ele>58.8</ele>
        <time>2021-07-04T06:13:39Z</time>
      </trkpt>
      <trkpt lat="47.47129" lon="-0.61408">
        <ele>58.2</ele>
        <time>2021-07-04T06:13:41Z</time>
      </trkpt>
      <trkpt lat="47.47117" lon="-0.61404">
        <ele>58</ele>
        <time>2021-07-04T06:13:43Z</time>
      </trkpt>
      <trkpt lat="47.47105" lon="-0.614">
        <ele>57.6</ele>
        <time>2021-07-04T06:13:45Z</time>
      </trkpt>
      <trkpt lat="47.47099" lon="-0.614">
        <ele>57.4</ele>
        <time>2021-07-04T06:13:46Z</time>
      </trkpt>
      <trkpt lat="47.47093" lon="-0.61401">
        <ele>57.4</ele>
        <time>2021-07-04T06:13:47Z</time>
      </trkpt>
      <trkpt lat="47.47081" lon="-0.61403">
        <ele>57.2</ele>
        <time>2021-07-04T06:13:49Z</time>
      </trkpt>
      <trkpt lat="47.47069" lon="-0.61407">
        <ele>57.6</ele>
        <time>2021-07-04T06:13:51Z</time>
      </trkpt>
      <trkpt lat="47.47063" lon="-0.6141">
        <ele>57.4</ele>
        <time>2021-07-04T06:13:52Z</time>
      </trkpt>
      <trkpt lat="47.47056" lon="-0.61412">
        <ele>57.4</ele>
        <time>2021-07-04T06:13:53Z</time>
      </trkpt>
      <trkpt lat="47.47042" lon="-0.61416">
        <ele>57.6</ele>
        <time>2021-07-04T06:13:55Z</time>
      </trkpt>
      <trkpt lat="47.47031" lon="-0.61419">
        <ele>58</ele>
        <time>2021-07-04T06:13:57Z</time>
      </trkpt>
      <trkpt lat="47.47019" lon="-0.61422">
        <ele>58.6</ele>
        <time>2021-07-04T06:13:59Z</time>
      </trkpt>
      <trkpt lat="47.47013" lon="-0.61423">
        <ele>58.8</ele>
        <time>2021-07-04T06:14:00Z</time>
      </trkpt>
      <trkpt lat="47.47007" lon="-0.61425">
        <ele>59.2</ele>
        <time>2021-07-04T06:14:01Z</time>
      </trkpt>
      <trkpt lat="47.47003" lon="-0.61428">
        <ele>59.4</ele>
        <time>2021-07-04T06:14:02Z</time>
      </trkpt>
      <trkpt lat="47.46999" lon="-0.61431">
        <ele>60</ele>
        <time>2021-07-04T06:14:03Z</time>
      </trkpt>
      <trkpt lat="47.46991" lon="-0.61435">
        <ele>61</ele>
        <time>2021-07-04T06:14:05Z</time>
      </trkpt>
      <trkpt lat="47.46983" lon="-0.61436">
        <ele>61.6</ele>
        <time>2021-07-04T06:14:07Z</time>
      </trkpt>
      <trkpt lat="47.46978" lon="-0.61436">
        <ele>61.8</ele>
        <time>2021-07-04T06:14:08Z</time>
      </trkpt>
      <trkpt lat="47.46974" lon="-0.61436">
        <ele>62</ele>
        <time>2021-07-04T06:14:09Z</time>
      </trkpt>
      <trkpt lat="47.46971" lon="-0.61436">
        <ele>62.4</ele>
        <time>2021-07-04T06:14:10Z</time>
      </trkpt>
      <trkpt lat="47.46968" lon="-0.61438">
        <ele>62.6</ele>
        <time>2021-07-04T06:14:11Z</time>
      </trkpt>
      <trkpt lat="47.46967" lon="-0.61442">
        <ele>62.8</ele>
        <time>2021-07-04T06:14:12Z</time>
      </trkpt>
      <trkpt lat="47.46964" lon="-0.61444">
        <ele>62.8</ele>
        <time>2021-07-04T06:14:13Z</time>
      </trkpt>
      <trkpt lat="47.4696" lon="-0.61452">
        <ele>62.8</ele>
        <time>2021-07-04T06:14:15Z</time>
      </trkpt>
      <trkpt lat="47.46961" lon="-0.61459">
        <ele>62.8</ele>
        <time>2021-07-04T06:14:16Z</time>
      </trkpt>
      <trkpt lat="47.4696" lon="-0.61466">
        <ele>62.8</ele>
        <time>2021-07-04T06:14:17Z</time>
      </trkpt>
      <trkpt lat="47.46958" lon="-0.61479">
        <ele>63</ele>
        <time>2021-07-04T06:14:19Z</time>
      </trkpt>
      <trkpt lat="47.46955" lon="-0.61493">
        <ele>63</ele>
        <time>2021-07-04T06:14:21Z</time>
      </trkpt>
      <trkpt lat="47.4695" lon="-0.61507">
        <ele>63</ele>
        <time>2021-07-04T06:14:23Z</time>
      </trkpt>
      <trkpt lat="47.46945" lon="-0.6152">
        <ele>63</ele>
        <time>2021-07-04T06:14:25Z</time>
      </trkpt>
      <trkpt lat="47.46939" lon="-0.61534">
        <ele>63.2</ele>
        <time>2021-07-04T06:14:27Z</time>
      </trkpt>
      <trkpt lat="47.46934" lon="-0.61547">
        <ele>63.4</ele>
        <time>2021-07-04T06:14:29Z</time>
      </trkpt>
      <trkpt lat="47.46929" lon="-0.61561">
        <ele>63.8</ele>
        <time>2021-07-04T06:14:31Z</time>
      </trkpt>
      <trkpt lat="47.46924" lon="-0.61574">
        <ele>64.4</ele>
        <time>2021-07-04T06:14:33Z</time>
      </trkpt>
      <trkpt lat="47.46918" lon="-0.61586">
        <ele>64.6</ele>
        <time>2021-07-04T06:14:35Z</time>
      </trkpt>
      <trkpt lat="47.46914" lon="-0.61598">
        <ele>64.8</ele>
        <time>2021-07-04T06:14:37Z</time>
      </trkpt>
      <trkpt lat="47.46909" lon="-0.61609">
        <ele>65.2</ele>
        <time>2021-07-04T06:14:39Z</time>
      </trkpt>
      <trkpt lat="47.46904" lon="-0.61621">
        <ele>65.6</ele>
        <time>2021-07-04T06:14:41Z</time>
      </trkpt>
      <trkpt lat="47.46901" lon="-0.61627">
        <ele>65.8</ele>
        <time>2021-07-04T06:14:42Z</time>
      </trkpt>
      <trkpt lat="47.46899" lon="-0.61633">
        <ele>66</ele>
        <time>2021-07-04T06:14:43Z</time>
      </trkpt>
      <trkpt lat="47.46894" lon="-0.61645">
        <ele>65.8</ele>
        <time>2021-07-04T06:14:45Z</time>
      </trkpt>
      <trkpt lat="47.46889" lon="-0.61658">
        <ele>66.4</ele>
        <time>2021-07-04T06:14:47Z</time>
      </trkpt>
      <trkpt lat="47.46883" lon="-0.6167">
        <ele>67</ele>
        <time>2021-07-04T06:14:49Z</time>
      </trkpt>
      <trkpt lat="47.46878" lon="-0.61682">
        <ele>67</ele>
        <time>2021-07-04T06:14:51Z</time>
      </trkpt>
      <trkpt lat="47.46876" lon="-0.61686">
        <ele>67</ele>
        <time>2021-07-04T06:14:52Z</time>
      </trkpt>
      <trkpt lat="47.46874" lon="-0.61691">
        <ele>67.4</ele>
        <time>2021-07-04T06:14:53Z</time>
      </trkpt>
      <trkpt lat="47.46869" lon="-0.61702">
        <ele>67.8</ele>
        <time>2021-07-04T06:14:55Z</time>
      </trkpt>
      <trkpt lat="47.46864" lon="-0.61713">
        <ele>68</ele>
        <time>2021-07-04T06:14:57Z</time>
      </trkpt>
      <trkpt lat="47.4686" lon="-0.61725">
        <ele>68.2</ele>
        <time>2021-07-04T06:14:59Z</time>
      </trkpt>
      <trkpt lat="47.46857" lon="-0.6173">
        <ele>68.4</ele>
        <time>2021-07-04T06:15:00Z</time>
      </trkpt>
      <trkpt lat="47.46855" lon="-0.61737">
        <ele>68.6</ele>
        <time>2021-07-04T06:15:01Z</time>
      </trkpt>
      <trkpt lat="47.4685" lon="-0.61749">
        <ele>69.2</ele>
        <time>2021-07-04T06:15:03Z</time>
      </trkpt>
      <trkpt lat="47.46845" lon="-0.61761">
        <ele>69.4</ele>
        <time>2021-07-04T06:15:05Z</time>
      </trkpt>
      <trkpt lat="47.46842" lon="-0.61766">
        <ele>69.4</ele>
        <time>2021-07-04T06:15:06Z</time>
      </trkpt>
      <trkpt lat="47.46839" lon="-0.61771">
        <ele>69.6</ele>
        <time>2021-07-04T06:15:07Z</time>
      </trkpt>
      <trkpt lat="47.46836" lon="-0.61777">
        <ele>69.6</ele>
        <time>2021-07-04T06:15:08Z</time>
      </trkpt>
      <trkpt lat="47.46833" lon="-0.61782">
        <ele>69.8</ele>
        <time>2021-07-04T06:15:09Z</time>
      </trkpt>
      <trkpt lat="47.46826" lon="-0.61791">
        <ele>70</ele>
        <time>2021-07-04T06:15:11Z</time>
      </trkpt>
      <trkpt lat="47.46818" lon="-0.61798">
        <ele>69.8</ele>
        <time>2021-07-04T06:15:13Z</time>
      </trkpt>
      <trkpt lat="47.46814" lon="-0.61801">
        <ele>69.8</ele>
        <time>2021-07-04T06:15:14Z</time>
      </trkpt>
      <trkpt lat="47.4681" lon="-0.61805">
        <ele>69.8</ele>
        <time>2021-07-04T06:15:15Z</time>
      </trkpt>
      <trkpt lat="47.46806" lon="-0.61808">
        <ele>70</ele>
        <time>2021-07-04T06:15:16Z</time>
      </trkpt>
      <trkpt lat="47.46801" lon="-0.61809">
        <ele>70.4</ele>
        <time>2021-07-04T06:15:17Z</time>
      </trkpt>
      <trkpt lat="47.46792" lon="-0.61812">
        <ele>70.8</ele>
        <time>2021-07-04T06:15:19Z</time>
      </trkpt>
      <trkpt lat="47.46787" lon="-0.61812">
        <ele>70.8</ele>
        <time>2021-07-04T06:15:20Z</time>
      </trkpt>
      <trkpt lat="47.46783" lon="-0.61812">
        <ele>70.8</ele>
        <time>2021-07-04T06:15:21Z</time>
      </trkpt>
      <trkpt lat="47.46778" lon="-0.61813">
        <ele>71</ele>
        <time>2021-07-04T06:15:22Z</time>
      </trkpt>
      <trkpt lat="47.46774" lon="-0.61817">
        <ele>71</ele>
        <time>2021-07-04T06:15:23Z</time>
      </trkpt>
      <trkpt lat="47.46771" lon="-0.61823">
        <ele>71.6</ele>
        <time>2021-07-04T06:15:24Z</time>
      </trkpt>
      <trkpt lat="47.46766" lon="-0.61826">
        <ele>71.8</ele>
        <time>2021-07-04T06:15:25Z</time>
      </trkpt>
      <trkpt lat="47.46757" lon="-0.61823">
        <ele>72</ele>
        <time>2021-07-04T06:15:27Z</time>
      </trkpt>
      <trkpt lat="47.46748" lon="-0.61819">
        <ele>72</ele>
        <time>2021-07-04T06:15:29Z</time>
      </trkpt>
      <trkpt lat="47.46744" lon="-0.61816">
        <ele>72.2</ele>
        <time>2021-07-04T06:15:30Z</time>
      </trkpt>
      <trkpt lat="47.46739" lon="-0.61814">
        <ele>72.2</ele>
        <time>2021-07-04T06:15:31Z</time>
      </trkpt>
      <trkpt lat="47.46734" lon="-0.61815">
        <ele>72.4</ele>
        <time>2021-07-04T06:15:32Z</time>
      </trkpt>
      <trkpt lat="47.4673" lon="-0.61819">
        <ele>72.8</ele>
        <time>2021-07-04T06:15:33Z</time>
      </trkpt>
      <trkpt lat="47.46725" lon="-0.6183">
        <ele>73.6</ele>
        <time>2021-07-04T06:15:35Z</time>
      </trkpt>
      <trkpt lat="47.46722" lon="-0.61835">
        <ele>74</ele>
        <time>2021-07-04T06:15:36Z</time>
      </trkpt>
      <trkpt lat="47.46719" lon="-0.6184">
        <ele>74.2</ele>
        <time>2021-07-04T06:15:37Z</time>
      </trkpt>
      <trkpt lat="47.46714" lon="-0.6185">
        <ele>74.4</ele>
        <time>2021-07-04T06:15:39Z</time>
      </trkpt>
      <trkpt lat="47.46708" lon="-0.61861">
        <ele>74.6</ele>
        <time>2021-07-04T06:15:41Z</time>
      </trkpt>
      <trkpt lat="47.46705" lon="-0.61867">
        <ele>74.8</ele>
        <time>2021-07-04T06:15:42Z</time>
      </trkpt>
      <trkpt lat="47.46702" lon="-0.61872">
        <ele>75</ele>
        <time>2021-07-04T06:15:43Z</time>
      </trkpt>
      <trkpt lat="47.46696" lon="-0.61883">
        <ele>75.6</ele>
        <time>2021-07-04T06:15:45Z</time>
      </trkpt>
      <trkpt lat="47.4669" lon="-0.61894">
        <ele>76.2</ele>
        <time>2021-07-04T06:15:47Z</time>
      </trkpt>
      <trkpt lat="47.46685" lon="-0.61904">
        <ele>77</ele>
        <time>2021-07-04T06:15:49Z</time>
      </trkpt>
      <trkpt lat="47.4668" lon="-0.61915">
        <ele>77.2</ele>
        <time>2021-07-04T06:15:51Z</time>
      </trkpt>
      <trkpt lat="47.46678" lon="-0.6192">
        <ele>77.2</ele>
        <time>2021-07-04T06:15:52Z</time>
      </trkpt>
      <trkpt lat="47.46676" lon="-0.61925">
        <ele>74.4</ele>
        <time>2021-07-04T06:15:53Z</time>
      </trkpt>
      <trkpt lat="47.46673" lon="-0.6193">
        <ele>76</ele>
        <time>2021-07-04T06:15:54Z</time>
      </trkpt>
      <trkpt lat="47.46671" lon="-0.61935">
        <ele>76.6</ele>
        <time>2021-07-04T06:15:55Z</time>
      </trkpt>
      <trkpt lat="47.46669" lon="-0.61941">
        <ele>79.6</ele>
        <time>2021-07-04T06:15:56Z</time>
      </trkpt>
      <trkpt lat="47.46667" lon="-0.61946">
        <ele>78.6</ele>
        <time>2021-07-04T06:15:57Z</time>
      </trkpt>
      <trkpt lat="47.46667" lon="-0.61952">
        <ele>78.4</ele>
        <time>2021-07-04T06:15:58Z</time>
      </trkpt>
      <trkpt lat="47.46667" lon="-0.61959">
        <ele>78.4</ele>
        <time>2021-07-04T06:15:59Z</time>
      </trkpt>
      <trkpt lat="47.46664" lon="-0.61972">
        <ele>78.6</ele>
        <time>2021-07-04T06:16:01Z</time>
      </trkpt>
      <trkpt lat="47.46657" lon="-0.61983">
        <ele>78.4</ele>
        <time>2021-07-04T06:16:03Z</time>
      </trkpt>
      <trkpt lat="47.46649" lon="-0.61992">
        <ele>77.4</ele>
        <time>2021-07-04T06:16:05Z</time>
      </trkpt>
      <trkpt lat="47.46645" lon="-0.61997">
        <ele>76.8</ele>
        <time>2021-07-04T06:16:06Z</time>
      </trkpt>
      <trkpt lat="47.46641" lon="-0.62002">
        <ele>76.6</ele>
        <time>2021-07-04T06:16:07Z</time>
      </trkpt>
      <trkpt lat="47.46638" lon="-0.62008">
        <ele>76.6</ele>
        <time>2021-07-04T06:16:08Z</time>
      </trkpt>
      <trkpt lat="47.46635" lon="-0.62015">
        <ele>76.2</ele>
        <time>2021-07-04T06:16:09Z</time>
      </trkpt>
      <trkpt lat="47.46628" lon="-0.62029">
        <ele>75.6</ele>
        <time>2021-07-04T06:16:11Z</time>
      </trkpt>
      <trkpt lat="47.4662" lon="-0.62044">
        <ele>75.8</ele>
        <time>2021-07-04T06:16:13Z</time>
      </trkpt>
      <trkpt lat="47.46613" lon="-0.62059">
        <ele>75.8</ele>
        <time>2021-07-04T06:16:15Z</time>
      </trkpt>
      <trkpt lat="47.46605" lon="-0.62074">
        <ele>75.6</ele>
        <time>2021-07-04T06:16:17Z</time>
      </trkpt>
      <trkpt lat="47.46598" lon="-0.62088">
        <ele>75</ele>
        <time>2021-07-04T06:16:19Z</time>
      </trkpt>
      <trkpt lat="47.46594" lon="-0.62095">
        <ele>74.4</ele>
        <time>2021-07-04T06:16:20Z</time>
      </trkpt>
      <trkpt lat="47.46591" lon="-0.62103">
        <ele>74</ele>
        <time>2021-07-04T06:16:21Z</time>
      </trkpt>
      <trkpt lat="47.46587" lon="-0.6211">
        <ele>74</ele>
        <time>2021-07-04T06:16:22Z</time>
      </trkpt>
      <trkpt lat="47.46584" lon="-0.62117">
        <ele>74</ele>
        <time>2021-07-04T06:16:23Z</time>
      </trkpt>
      <trkpt lat="47.46577" lon="-0.62132">
        <ele>74</ele>
        <time>2021-07-04T06:16:25Z</time>
      </trkpt>
      <trkpt lat="47.46569" lon="-0.62147">
        <ele>73.8</ele>
        <time>2021-07-04T06:16:27Z</time>
      </trkpt>
      <trkpt lat="47.46562" lon="-0.62162">
        <ele>73.2</ele>
        <time>2021-07-04T06:16:29Z</time>
      </trkpt>
      <trkpt lat="47.46558" lon="-0.62171">
        <ele>72.8</ele>
        <time>2021-07-04T06:16:30Z</time>
      </trkpt>
      <trkpt lat="47.46554" lon="-0.62179">
        <ele>72.6</ele>
        <time>2021-07-04T06:16:31Z</time>
      </trkpt>
      <trkpt lat="47.46547" lon="-0.62196">
        <ele>72.2</ele>
        <time>2021-07-04T06:16:33Z</time>
      </trkpt>
      <trkpt lat="47.46539" lon="-0.62213">
        <ele>72.2</ele>
        <time>2021-07-04T06:16:35Z</time>
      </trkpt>
      <trkpt lat="47.46535" lon="-0.62221">
        <ele>72.4</ele>
        <time>2021-07-04T06:16:36Z</time>
      </trkpt>
      <trkpt lat="47.46532" lon="-0.6223">
        <ele>72.2</ele>
        <time>2021-07-04T06:16:37Z</time>
      </trkpt>
      <trkpt lat="47.46524" lon="-0.62247">
        <ele>71.8</ele>
        <time>2021-07-04T06:16:39Z</time>
      </trkpt>
      <trkpt lat="47.46517" lon="-0.62264">
        <ele>71.6</ele>
        <time>2021-07-04T06:16:41Z</time>
      </trkpt>
      <trkpt lat="47.4651" lon="-0.62281">
        <ele>71.4</ele>
        <time>2021-07-04T06:16:43Z</time>
      </trkpt>
      <trkpt lat="47.46503" lon="-0.62299">
        <ele>71.4</ele>
        <time>2021-07-04T06:16:45Z</time>
      </trkpt>
      <trkpt lat="47.46497" lon="-0.62315">
        <ele>71.4</ele>
        <time>2021-07-04T06:16:47Z</time>
      </trkpt>
      <trkpt lat="47.46491" lon="-0.62332">
        <ele>71.6</ele>
        <time>2021-07-04T06:16:49Z</time>
      </trkpt>
      <trkpt lat="47.46486" lon="-0.62349">
        <ele>71.8</ele>
        <time>2021-07-04T06:16:51Z</time>
      </trkpt>
      <trkpt lat="47.4648" lon="-0.62364">
        <ele>71.6</ele>
        <time>2021-07-04T06:16:53Z</time>
      </trkpt>
      <trkpt lat="47.46474" lon="-0.6238">
        <ele>72</ele>
        <time>2021-07-04T06:16:55Z</time>
      </trkpt>
      <trkpt lat="47.46468" lon="-0.62395">
        <ele>72.2</ele>
        <time>2021-07-04T06:16:57Z</time>
      </trkpt>
      <trkpt lat="47.46464" lon="-0.62411">
        <ele>72.4</ele>
        <time>2021-07-04T06:16:59Z</time>
      </trkpt>
      <trkpt lat="47.4646" lon="-0.62427">
        <ele>72.8</ele>
        <time>2021-07-04T06:17:01Z</time>
      </trkpt>
      <trkpt lat="47.46455" lon="-0.62442">
        <ele>73</ele>
        <time>2021-07-04T06:17:03Z</time>
      </trkpt>
      <trkpt lat="47.4645" lon="-0.62458">
        <ele>73.2</ele>
        <time>2021-07-04T06:17:05Z</time>
      </trkpt>
      <trkpt lat="47.46448" lon="-0.62465">
        <ele>73.4</ele>
        <time>2021-07-04T06:17:06Z</time>
      </trkpt>
      <trkpt lat="47.46446" lon="-0.62473">
        <ele>73.8</ele>
        <time>2021-07-04T06:17:07Z</time>
      </trkpt>
      <trkpt lat="47.46443" lon="-0.6248">
        <ele>74</ele>
        <time>2021-07-04T06:17:08Z</time>
      </trkpt>
      <trkpt lat="47.46441" lon="-0.62488">
        <ele>73.8</ele>
        <time>2021-07-04T06:17:09Z</time>
      </trkpt>
      <trkpt lat="47.46435" lon="-0.62504">
        <ele>73.8</ele>
        <time>2021-07-04T06:17:11Z</time>
      </trkpt>
      <trkpt lat="47.46433" lon="-0.62511">
        <ele>74</ele>
        <time>2021-07-04T06:17:12Z</time>
      </trkpt>
      <trkpt lat="47.4643" lon="-0.62519">
        <ele>74.2</ele>
        <time>2021-07-04T06:17:13Z</time>
      </trkpt>
      <trkpt lat="47.46425" lon="-0.62534">
        <ele>74.4</ele>
        <time>2021-07-04T06:17:15Z</time>
      </trkpt>
      <trkpt lat="47.46419" lon="-0.62549">
        <ele>74.6</ele>
        <time>2021-07-04T06:17:17Z</time>
      </trkpt>
      <trkpt lat="47.46417" lon="-0.62557">
        <ele>75</ele>
        <time>2021-07-04T06:17:18Z</time>
      </trkpt>
      <trkpt lat="47.46414" lon="-0.62564">
        <ele>75</ele>
        <time>2021-07-04T06:17:19Z</time>
      </trkpt>
      <trkpt lat="47.46409" lon="-0.62578">
        <ele>74.8</ele>
        <time>2021-07-04T06:17:21Z</time>
      </trkpt>
      <trkpt lat="47.46404" lon="-0.62593">
        <ele>75.4</ele>
        <time>2021-07-04T06:17:23Z</time>
      </trkpt>
      <trkpt lat="47.46399" lon="-0.62608">
        <ele>75.6</ele>
        <time>2021-07-04T06:17:25Z</time>
      </trkpt>
      <trkpt lat="47.46393" lon="-0.62623">
        <ele>75.8</ele>
        <time>2021-07-04T06:17:27Z</time>
      </trkpt>
      <trkpt lat="47.46388" lon="-0.62637">
        <ele>75.8</ele>
        <time>2021-07-04T06:17:29Z</time>
      </trkpt>
      <trkpt lat="47.46384" lon="-0.62652">
        <ele>76</ele>
        <time>2021-07-04T06:17:31Z</time>
      </trkpt>
      <trkpt lat="47.46381" lon="-0.62659">
        <ele>76.2</ele>
        <time>2021-07-04T06:17:32Z</time>
      </trkpt>
      <trkpt lat="47.46378" lon="-0.62666">
        <ele>76.4</ele>
        <time>2021-07-04T06:17:33Z</time>
      </trkpt>
      <trkpt lat="47.46374" lon="-0.62681">
        <ele>76.6</ele>
        <time>2021-07-04T06:17:35Z</time>
      </trkpt>
      <trkpt lat="47.46368" lon="-0.62695">
        <ele>77</ele>
        <time>2021-07-04T06:17:37Z</time>
      </trkpt>
      <trkpt lat="47.46363" lon="-0.62709">
        <ele>77</ele>
        <time>2021-07-04T06:17:39Z</time>
      </trkpt>
      <trkpt lat="47.46361" lon="-0.62716">
        <ele>77.2</ele>
        <time>2021-07-04T06:17:40Z</time>
      </trkpt>
      <trkpt lat="47.46359" lon="-0.62723">
        <ele>77.4</ele>
        <time>2021-07-04T06:17:41Z</time>
      </trkpt>
      <trkpt lat="47.46354" lon="-0.62737">
        <ele>77.6</ele>
        <time>2021-07-04T06:17:43Z</time>
      </trkpt>
      <trkpt lat="47.46349" lon="-0.62751">
        <ele>77.8</ele>
        <time>2021-07-04T06:17:45Z</time>
      </trkpt>
      <trkpt lat="47.46344" lon="-0.62766">
        <ele>78</ele>
        <time>2021-07-04T06:17:47Z</time>
      </trkpt>
      <trkpt lat="47.46341" lon="-0.62773">
        <ele>78</ele>
        <time>2021-07-04T06:17:48Z</time>
      </trkpt>
      <trkpt lat="47.46339" lon="-0.6278">
        <ele>78</ele>
        <time>2021-07-04T06:17:49Z</time>
      </trkpt>
      <trkpt lat="47.46334" lon="-0.62794">
        <ele>78.2</ele>
        <time>2021-07-04T06:17:51Z</time>
      </trkpt>
      <trkpt lat="47.4633" lon="-0.62809">
        <ele>78.4</ele>
        <time>2021-07-04T06:17:53Z</time>
      </trkpt>
      <trkpt lat="47.46325" lon="-0.62824">
        <ele>78.6</ele>
        <time>2021-07-04T06:17:55Z</time>
      </trkpt>
      <trkpt lat="47.46322" lon="-0.6284">
        <ele>79</ele>
        <time>2021-07-04T06:17:57Z</time>
      </trkpt>
      <trkpt lat="47.4632" lon="-0.62848">
        <ele>79.2</ele>
        <time>2021-07-04T06:17:58Z</time>
      </trkpt>
      <trkpt lat="47.46318" lon="-0.62856">
        <ele>79.2</ele>
        <time>2021-07-04T06:17:59Z</time>
      </trkpt>
      <trkpt lat="47.46315" lon="-0.62871">
        <ele>79.4</ele>
        <time>2021-07-04T06:18:01Z</time>
      </trkpt>
      <trkpt lat="47.46312" lon="-0.62887">
        <ele>79.6</ele>
        <time>2021-07-04T06:18:03Z</time>
      </trkpt>
      <trkpt lat="47.4631" lon="-0.62903">
        <ele>79.6</ele>
        <time>2021-07-04T06:18:05Z</time>
      </trkpt>
      <trkpt lat="47.46308" lon="-0.6291">
        <ele>80</ele>
        <time>2021-07-04T06:18:06Z</time>
      </trkpt>
      <trkpt lat="47.46307" lon="-0.62918">
        <ele>80.2</ele>
        <time>2021-07-04T06:18:07Z</time>
      </trkpt>
      <trkpt lat="47.46305" lon="-0.62935">
        <ele>80</ele>
        <time>2021-07-04T06:18:09Z</time>
      </trkpt>
      <trkpt lat="47.46303" lon="-0.62952">
        <ele>80.2</ele>
        <time>2021-07-04T06:18:11Z</time>
      </trkpt>
      <trkpt lat="47.46302" lon="-0.6296">
        <ele>80.4</ele>
        <time>2021-07-04T06:18:12Z</time>
      </trkpt>
      <trkpt lat="47.46302" lon="-0.62968">
        <ele>80.6</ele>
        <time>2021-07-04T06:18:13Z</time>
      </trkpt>
      <trkpt lat="47.46302" lon="-0.62985">
        <ele>80.4</ele>
        <time>2021-07-04T06:18:15Z</time>
      </trkpt>
      <trkpt lat="47.46302" lon="-0.63002">
        <ele>80.6</ele>
        <time>2021-07-04T06:18:17Z</time>
      </trkpt>
      <trkpt lat="47.46302" lon="-0.63019">
        <ele>81</ele>
        <time>2021-07-04T06:18:19Z</time>
      </trkpt>
      <trkpt lat="47.46302" lon="-0.63036">
        <ele>80.6</ele>
        <time>2021-07-04T06:18:21Z</time>
      </trkpt>
      <trkpt lat="47.46303" lon="-0.63045">
        <ele>80.6</ele>
        <time>2021-07-04T06:18:22Z</time>
      </trkpt>
      <trkpt lat="47.46303" lon="-0.63053">
        <ele>80.6</ele>
        <time>2021-07-04T06:18:23Z</time>
      </trkpt>
      <trkpt lat="47.46304" lon="-0.63069">
        <ele>81</ele>
        <time>2021-07-04T06:18:25Z</time>
      </trkpt>
      <trkpt lat="47.46305" lon="-0.63086">
        <ele>81.2</ele>
        <time>2021-07-04T06:18:27Z</time>
      </trkpt>
      <trkpt lat="47.46306" lon="-0.63103">
        <ele>81.4</ele>
        <time>2021-07-04T06:18:29Z</time>
      </trkpt>
      <trkpt lat="47.46307" lon="-0.6312">
        <ele>82</ele>
        <time>2021-07-04T06:18:31Z</time>
      </trkpt>
      <trkpt lat="47.46308" lon="-0.63138">
        <ele>82</ele>
        <time>2021-07-04T06:18:33Z</time>
      </trkpt>
      <trkpt lat="47.46309" lon="-0.63154">
        <ele>82.2</ele>
        <time>2021-07-04T06:18:35Z</time>
      </trkpt>
      <trkpt lat="47.4631" lon="-0.63171">
        <ele>82.4</ele>
        <time>2021-07-04T06:18:37Z</time>
      </trkpt>
      <trkpt lat="47.46311" lon="-0.63179">
        <ele>82.4</ele>
        <time>2021-07-04T06:18:38Z</time>
      </trkpt>
      <trkpt lat="47.46311" lon="-0.63187">
        <ele>82.6</ele>
        <time>2021-07-04T06:18:39Z</time>
      </trkpt>
      <trkpt lat="47.46312" lon="-0.63196">
        <ele>82.6</ele>
        <time>2021-07-04T06:18:40Z</time>
      </trkpt>
      <trkpt lat="47.46313" lon="-0.63204">
        <ele>82.8</ele>
        <time>2021-07-04T06:18:41Z</time>
      </trkpt>
      <trkpt lat="47.46314" lon="-0.6322">
        <ele>83</ele>
        <time>2021-07-04T06:18:43Z</time>
      </trkpt>
      <trkpt lat="47.46315" lon="-0.63237">
        <ele>83.2</ele>
        <time>2021-07-04T06:18:45Z</time>
      </trkpt>
      <trkpt lat="47.46316" lon="-0.63254">
        <ele>83.4</ele>
        <time>2021-07-04T06:18:47Z</time>
      </trkpt>
      <trkpt lat="47.46316" lon="-0.63262">
        <ele>83.6</ele>
        <time>2021-07-04T06:18:48Z</time>
      </trkpt>
      <trkpt lat="47.46317" lon="-0.6327">
        <ele>83.6</ele>
        <time>2021-07-04T06:18:49Z</time>
      </trkpt>
      <trkpt lat="47.46318" lon="-0.63287">
        <ele>83.8</ele>
        <time>2021-07-04T06:18:51Z</time>
      </trkpt>
      <trkpt lat="47.46319" lon="-0.63304">
        <ele>84</ele>
        <time>2021-07-04T06:18:53Z</time>
      </trkpt>
      <trkpt lat="47.4632" lon="-0.63321">
        <ele>84.4</ele>
        <time>2021-07-04T06:18:55Z</time>
      </trkpt>
      <trkpt lat="47.46321" lon="-0.63338">
        <ele>84.6</ele>
        <time>2021-07-04T06:18:57Z</time>
      </trkpt>
      <trkpt lat="47.46324" lon="-0.63354">
        <ele>84.8</ele>
        <time>2021-07-04T06:18:59Z</time>
      </trkpt>
      <trkpt lat="47.46326" lon="-0.63371">
        <ele>85</ele>
        <time>2021-07-04T06:19:01Z</time>
      </trkpt>
      <trkpt lat="47.46327" lon="-0.63387">
        <ele>85</ele>
        <time>2021-07-04T06:19:03Z</time>
      </trkpt>
      <trkpt lat="47.46328" lon="-0.63404">
        <ele>85</ele>
        <time>2021-07-04T06:19:05Z</time>
      </trkpt>
      <trkpt lat="47.46328" lon="-0.63421">
        <ele>84.8</ele>
        <time>2021-07-04T06:19:07Z</time>
      </trkpt>
      <trkpt lat="47.46328" lon="-0.63439">
        <ele>84.8</ele>
        <time>2021-07-04T06:19:09Z</time>
      </trkpt>
      <trkpt lat="47.46327" lon="-0.63456">
        <ele>85.2</ele>
        <time>2021-07-04T06:19:11Z</time>
      </trkpt>
      <trkpt lat="47.46326" lon="-0.63473">
        <ele>85.2</ele>
        <time>2021-07-04T06:19:13Z</time>
      </trkpt>
      <trkpt lat="47.46325" lon="-0.63489">
        <ele>85.4</ele>
        <time>2021-07-04T06:19:15Z</time>
      </trkpt>
      <trkpt lat="47.46324" lon="-0.63505">
        <ele>85.8</ele>
        <time>2021-07-04T06:19:17Z</time>
      </trkpt>
      <trkpt lat="47.46323" lon="-0.63522">
        <ele>86.6</ele>
        <time>2021-07-04T06:19:19Z</time>
      </trkpt>
      <trkpt lat="47.46323" lon="-0.6353">
        <ele>86.8</ele>
        <time>2021-07-04T06:19:20Z</time>
      </trkpt>
      <trkpt lat="47.46322" lon="-0.63538">
        <ele>87</ele>
        <time>2021-07-04T06:19:21Z</time>
      </trkpt>
      <trkpt lat="47.46322" lon="-0.63546">
        <ele>87</ele>
        <time>2021-07-04T06:19:22Z</time>
      </trkpt>
      <trkpt lat="47.46322" lon="-0.63554">
        <ele>87.4</ele>
        <time>2021-07-04T06:19:23Z</time>
      </trkpt>
      <trkpt lat="47.46322" lon="-0.63569">
        <ele>87.6</ele>
        <time>2021-07-04T06:19:25Z</time>
      </trkpt>
      <trkpt lat="47.46323" lon="-0.63577">
        <ele>87.6</ele>
        <time>2021-07-04T06:19:26Z</time>
      </trkpt>
      <trkpt lat="47.46323" lon="-0.63584">
        <ele>87.8</ele>
        <time>2021-07-04T06:19:27Z</time>
      </trkpt>
      <trkpt lat="47.46324" lon="-0.63591">
        <ele>88</ele>
        <time>2021-07-04T06:19:28Z</time>
      </trkpt>
      <trkpt lat="47.46325" lon="-0.63598">
        <ele>88.4</ele>
        <time>2021-07-04T06:19:29Z</time>
      </trkpt>
      <trkpt lat="47.46327" lon="-0.63611">
        <ele>88.6</ele>
        <time>2021-07-04T06:19:31Z</time>
      </trkpt>
      <trkpt lat="47.46325" lon="-0.63617">
        <ele>88.2</ele>
        <time>2021-07-04T06:19:32Z</time>
      </trkpt>
      <trkpt lat="47.46323" lon="-0.63623">
        <ele>88</ele>
        <time>2021-07-04T06:19:33Z</time>
      </trkpt>
      <trkpt lat="47.46314" lon="-0.63626">
        <ele>88</ele>
        <time>2021-07-04T06:19:35Z</time>
      </trkpt>
      <trkpt lat="47.46305" lon="-0.63627">
        <ele>88.2</ele>
        <time>2021-07-04T06:19:37Z</time>
      </trkpt>
      <trkpt lat="47.46302" lon="-0.63628">
        <ele>88.2</ele>
        <time>2021-07-04T06:19:38Z</time>
      </trkpt>
      <trkpt lat="47.46298" lon="-0.63629">
        <ele>88.2</ele>
        <time>2021-07-04T06:19:39Z</time>
      </trkpt>
      <trkpt lat="47.46293" lon="-0.63629">
        <ele>88</ele>
        <time>2021-07-04T06:19:40Z</time>
      </trkpt>
      <trkpt lat="47.46288" lon="-0.63631">
        <ele>87.8</ele>
        <time>2021-07-04T06:19:41Z</time>
      </trkpt>
      <trkpt lat="47.46282" lon="-0.63632">
        <ele>86.8</ele>
        <time>2021-07-04T06:19:42Z</time>
      </trkpt>
      <trkpt lat="47.46276" lon="-0.63635">
        <ele>86</ele>
        <time>2021-07-04T06:19:43Z</time>
      </trkpt>
      <trkpt lat="47.4627" lon="-0.63638">
        <ele>85.2</ele>
        <time>2021-07-04T06:19:44Z</time>
      </trkpt>
      <trkpt lat="47.46263" lon="-0.63641">
        <ele>84.6</ele>
        <time>2021-07-04T06:19:45Z</time>
      </trkpt>
      <trkpt lat="47.46258" lon="-0.63646">
        <ele>84</ele>
        <time>2021-07-04T06:19:46Z</time>
      </trkpt>
      <trkpt lat="47.46251" lon="-0.63652">
        <ele>83.4</ele>
        <time>2021-07-04T06:19:47Z</time>
      </trkpt>
      <trkpt lat="47.46245" lon="-0.63658">
        <ele>83</ele>
        <time>2021-07-04T06:19:48Z</time>
      </trkpt>
      <trkpt lat="47.46238" lon="-0.63663">
        <ele>82.6</ele>
        <time>2021-07-04T06:19:49Z</time>
      </trkpt>
      <trkpt lat="47.46225" lon="-0.63675">
        <ele>81.6</ele>
        <time>2021-07-04T06:19:51Z</time>
      </trkpt>
      <trkpt lat="47.46219" lon="-0.63681">
        <ele>81.2</ele>
        <time>2021-07-04T06:19:52Z</time>
      </trkpt>
      <trkpt lat="47.46213" lon="-0.63688">
        <ele>80.6</ele>
        <time>2021-07-04T06:19:53Z</time>
      </trkpt>
      <trkpt lat="47.46207" lon="-0.63694">
        <ele>80.2</ele>
        <time>2021-07-04T06:19:54Z</time>
      </trkpt>
      <trkpt lat="47.46202" lon="-0.63701">
        <ele>79.8</ele>
        <time>2021-07-04T06:19:55Z</time>
      </trkpt>
      <trkpt lat="47.46189" lon="-0.63713">
        <ele>79</ele>
        <time>2021-07-04T06:19:57Z</time>
      </trkpt>
      <trkpt lat="47.46176" lon="-0.63724">
        <ele>78.2</ele>
        <time>2021-07-04T06:19:59Z</time>
      </trkpt>
      <trkpt lat="47.46171" lon="-0.63732">
        <ele>77.6</ele>
        <time>2021-07-04T06:20:00Z</time>
      </trkpt>
      <trkpt lat="47.46165" lon="-0.63738">
        <ele>77.2</ele>
        <time>2021-07-04T06:20:01Z</time>
      </trkpt>
      <trkpt lat="47.46154" lon="-0.6375">
        <ele>76.6</ele>
        <time>2021-07-04T06:20:03Z</time>
      </trkpt>
      <trkpt lat="47.46149" lon="-0.63756">
        <ele>76.6</ele>
        <time>2021-07-04T06:20:04Z</time>
      </trkpt>
      <trkpt lat="47.46144" lon="-0.63761">
        <ele>76.4</ele>
        <time>2021-07-04T06:20:05Z</time>
      </trkpt>
      <trkpt lat="47.46132" lon="-0.63773">
        <ele>75.8</ele>
        <time>2021-07-04T06:20:07Z</time>
      </trkpt>
      <trkpt lat="47.46122" lon="-0.63784">
        <ele>75.2</ele>
        <time>2021-07-04T06:20:09Z</time>
      </trkpt>
      <trkpt lat="47.46112" lon="-0.63796">
        <ele>74.8</ele>
        <time>2021-07-04T06:20:11Z</time>
      </trkpt>
      <trkpt lat="47.46101" lon="-0.63806">
        <ele>74.6</ele>
        <time>2021-07-04T06:20:13Z</time>
      </trkpt>
      <trkpt lat="47.46095" lon="-0.63811">
        <ele>74.4</ele>
        <time>2021-07-04T06:20:14Z</time>
      </trkpt>
      <trkpt lat="47.46089" lon="-0.63816">
        <ele>74.4</ele>
        <time>2021-07-04T06:20:15Z</time>
      </trkpt>
      <trkpt lat="47.46077" lon="-0.63825">
        <ele>74.2</ele>
        <time>2021-07-04T06:20:17Z</time>
      </trkpt>
      <trkpt lat="47.46065" lon="-0.63834">
        <ele>73.6</ele>
        <time>2021-07-04T06:20:19Z</time>
      </trkpt>
      <trkpt lat="47.46057" lon="-0.63836">
        <ele>73.6</ele>
        <time>2021-07-04T06:20:20Z</time>
      </trkpt>
      <trkpt lat="47.4605" lon="-0.63838">
        <ele>73.4</ele>
        <time>2021-07-04T06:20:21Z</time>
      </trkpt>
      <trkpt lat="47.46037" lon="-0.63841">
        <ele>73</ele>
        <time>2021-07-04T06:20:23Z</time>
      </trkpt>
      <trkpt lat="47.46023" lon="-0.63844">
        <ele>72.4</ele>
        <time>2021-07-04T06:20:25Z</time>
      </trkpt>
      <trkpt lat="47.46009" lon="-0.63851">
        <ele>72</ele>
        <time>2021-07-04T06:20:27Z</time>
      </trkpt>
      <trkpt lat="47.45994" lon="-0.63859">
        <ele>71.4</ele>
        <time>2021-07-04T06:20:29Z</time>
      </trkpt>
      <trkpt lat="47.45987" lon="-0.63864">
        <ele>70.8</ele>
        <time>2021-07-04T06:20:30Z</time>
      </trkpt>
      <trkpt lat="47.45981" lon="-0.6387">
        <ele>70.8</ele>
        <time>2021-07-04T06:20:31Z</time>
      </trkpt>
      <trkpt lat="47.45975" lon="-0.63877">
        <ele>70.8</ele>
        <time>2021-07-04T06:20:32Z</time>
      </trkpt>
      <trkpt lat="47.4597" lon="-0.63883">
        <ele>70.8</ele>
        <time>2021-07-04T06:20:33Z</time>
      </trkpt>
      <trkpt lat="47.45957" lon="-0.63896">
        <ele>70.6</ele>
        <time>2021-07-04T06:20:35Z</time>
      </trkpt>
      <trkpt lat="47.45946" lon="-0.63907">
        <ele>70.4</ele>
        <time>2021-07-04T06:20:37Z</time>
      </trkpt>
      <trkpt lat="47.45936" lon="-0.63921">
        <ele>70.6</ele>
        <time>2021-07-04T06:20:39Z</time>
      </trkpt>
      <trkpt lat="47.45924" lon="-0.63937">
        <ele>70.8</ele>
        <time>2021-07-04T06:20:41Z</time>
      </trkpt>
      <trkpt lat="47.45913" lon="-0.63951">
        <ele>70.8</ele>
        <time>2021-07-04T06:20:43Z</time>
      </trkpt>
      <trkpt lat="47.45902" lon="-0.63963">
        <ele>70.8</ele>
        <time>2021-07-04T06:20:45Z</time>
      </trkpt>
      <trkpt lat="47.45892" lon="-0.63975">
        <ele>71</ele>
        <time>2021-07-04T06:20:47Z</time>
      </trkpt>
      <trkpt lat="47.45881" lon="-0.63987">
        <ele>71.2</ele>
        <time>2021-07-04T06:20:49Z</time>
      </trkpt>
      <trkpt lat="47.45872" lon="-0.63998">
        <ele>71.4</ele>
        <time>2021-07-04T06:20:51Z</time>
      </trkpt>
      <trkpt lat="47.45863" lon="-0.64008">
        <ele>71.4</ele>
        <time>2021-07-04T06:20:53Z</time>
      </trkpt>
      <trkpt lat="47.45853" lon="-0.6402">
        <ele>71.6</ele>
        <time>2021-07-04T06:20:55Z</time>
      </trkpt>
      <trkpt lat="47.45843" lon="-0.64032">
        <ele>71.8</ele>
        <time>2021-07-04T06:20:57Z</time>
      </trkpt>
      <trkpt lat="47.45838" lon="-0.64036">
        <ele>71.8</ele>
        <time>2021-07-04T06:20:58Z</time>
      </trkpt>
      <trkpt lat="47.45833" lon="-0.64041">
        <ele>71.8</ele>
        <time>2021-07-04T06:20:59Z</time>
      </trkpt>
      <trkpt lat="47.45828" lon="-0.64047">
        <ele>72</ele>
        <time>2021-07-04T06:21:00Z</time>
      </trkpt>
      <trkpt lat="47.45823" lon="-0.64052">
        <ele>72</ele>
        <time>2021-07-04T06:21:01Z</time>
      </trkpt>
      <trkpt lat="47.45812" lon="-0.64064">
        <ele>72</ele>
        <time>2021-07-04T06:21:03Z</time>
      </trkpt>
      <trkpt lat="47.45802" lon="-0.64074">
        <ele>72.2</ele>
        <time>2021-07-04T06:21:05Z</time>
      </trkpt>
      <trkpt lat="47.45793" lon="-0.64083">
        <ele>72.4</ele>
        <time>2021-07-04T06:21:07Z</time>
      </trkpt>
      <trkpt lat="47.45788" lon="-0.64088">
        <ele>72.4</ele>
        <time>2021-07-04T06:21:08Z</time>
      </trkpt>
      <trkpt lat="47.45783" lon="-0.64093">
        <ele>72.6</ele>
        <time>2021-07-04T06:21:09Z</time>
      </trkpt>
      <trkpt lat="47.45778" lon="-0.64097">
        <ele>72.8</ele>
        <time>2021-07-04T06:21:10Z</time>
      </trkpt>
      <trkpt lat="47.45773" lon="-0.64103">
        <ele>72.8</ele>
        <time>2021-07-04T06:21:11Z</time>
      </trkpt>
      <trkpt lat="47.45762" lon="-0.64114">
        <ele>73</ele>
        <time>2021-07-04T06:21:13Z</time>
      </trkpt>
      <trkpt lat="47.45752" lon="-0.64125">
        <ele>73.4</ele>
        <time>2021-07-04T06:21:15Z</time>
      </trkpt>
      <trkpt lat="47.45748" lon="-0.6413">
        <ele>73.4</ele>
        <time>2021-07-04T06:21:16Z</time>
      </trkpt>
      <trkpt lat="47.45743" lon="-0.64134">
        <ele>73.6</ele>
        <time>2021-07-04T06:21:17Z</time>
      </trkpt>
      <trkpt lat="47.45739" lon="-0.64137">
        <ele>74.2</ele>
        <time>2021-07-04T06:21:18Z</time>
      </trkpt>
      <trkpt lat="47.45734" lon="-0.64139">
        <ele>74.2</ele>
        <time>2021-07-04T06:21:19Z</time>
      </trkpt>
      <trkpt lat="47.4573" lon="-0.6414">
        <ele>74</ele>
        <time>2021-07-04T06:21:20Z</time>
      </trkpt>
      <trkpt lat="47.45725" lon="-0.6414">
        <ele>74.2</ele>
        <time>2021-07-04T06:21:21Z</time>
      </trkpt>
      <trkpt lat="47.45716" lon="-0.64137">
        <ele>74.6</ele>
        <time>2021-07-04T06:21:23Z</time>
      </trkpt>
      <trkpt lat="47.45711" lon="-0.64135">
        <ele>74.6</ele>
        <time>2021-07-04T06:21:24Z</time>
      </trkpt>
      <trkpt lat="47.45707" lon="-0.64134">
        <ele>74.4</ele>
        <time>2021-07-04T06:21:25Z</time>
      </trkpt>
      <trkpt lat="47.457" lon="-0.6413">
        <ele>74.4</ele>
        <time>2021-07-04T06:21:27Z</time>
      </trkpt>
      <trkpt lat="47.45693" lon="-0.64125">
        <ele>74.6</ele>
        <time>2021-07-04T06:21:29Z</time>
      </trkpt>
      <trkpt lat="47.4569" lon="-0.6412">
        <ele>74.6</ele>
        <time>2021-07-04T06:21:30Z</time>
      </trkpt>
      <trkpt lat="47.45686" lon="-0.64116">
        <ele>74.6</ele>
        <time>2021-07-04T06:21:31Z</time>
      </trkpt>
      <trkpt lat="47.45677" lon="-0.64106">
        <ele>74</ele>
        <time>2021-07-04T06:21:33Z</time>
      </trkpt>
      <trkpt lat="47.45669" lon="-0.64092">
        <ele>73.8</ele>
        <time>2021-07-04T06:21:35Z</time>
      </trkpt>
      <trkpt lat="47.45661" lon="-0.64078">
        <ele>73.6</ele>
        <time>2021-07-04T06:21:37Z</time>
      </trkpt>
      <trkpt lat="47.45653" lon="-0.64062">
        <ele>73.6</ele>
        <time>2021-07-04T06:21:39Z</time>
      </trkpt>
      <trkpt lat="47.4565" lon="-0.64053">
        <ele>73.4</ele>
        <time>2021-07-04T06:21:40Z</time>
      </trkpt>
      <trkpt lat="47.45646" lon="-0.64044">
        <ele>73.4</ele>
        <time>2021-07-04T06:21:41Z</time>
      </trkpt>
      <trkpt lat="47.45643" lon="-0.64036">
        <ele>72.8</ele>
        <time>2021-07-04T06:21:42Z</time>
      </trkpt>
      <trkpt lat="47.45639" lon="-0.64026">
        <ele>72.6</ele>
        <time>2021-07-04T06:21:43Z</time>
      </trkpt>
      <trkpt lat="47.45629" lon="-0.64009">
        <ele>72.2</ele>
        <time>2021-07-04T06:21:45Z</time>
      </trkpt>
      <trkpt lat="47.45625" lon="-0.64">
        <ele>72</ele>
        <time>2021-07-04T06:21:46Z</time>
      </trkpt>
      <trkpt lat="47.45619" lon="-0.6399">
        <ele>72</ele>
        <time>2021-07-04T06:21:47Z</time>
      </trkpt>
      <trkpt lat="47.45611" lon="-0.63972">
        <ele>71.8</ele>
        <time>2021-07-04T06:21:49Z</time>
      </trkpt>
      <trkpt lat="47.45602" lon="-0.63953">
        <ele>71.6</ele>
        <time>2021-07-04T06:21:51Z</time>
      </trkpt>
      <trkpt lat="47.45597" lon="-0.63943">
        <ele>71.6</ele>
        <time>2021-07-04T06:21:52Z</time>
      </trkpt>
      <trkpt lat="47.45592" lon="-0.63932">
        <ele>71.6</ele>
        <time>2021-07-04T06:21:53Z</time>
      </trkpt>
      <trkpt lat="47.45583" lon="-0.63912">
        <ele>71.6</ele>
        <time>2021-07-04T06:21:55Z</time>
      </trkpt>
      <trkpt lat="47.45574" lon="-0.63891">
        <ele>71.2</ele>
        <time>2021-07-04T06:21:57Z</time>
      </trkpt>
      <trkpt lat="47.45566" lon="-0.63872">
        <ele>71.4</ele>
        <time>2021-07-04T06:21:59Z</time>
      </trkpt>
      <trkpt lat="47.45562" lon="-0.63862">
        <ele>71</ele>
        <time>2021-07-04T06:22:00Z</time>
      </trkpt>
      <trkpt lat="47.45558" lon="-0.63851">
        <ele>70.6</ele>
        <time>2021-07-04T06:22:01Z</time>
      </trkpt>
      <trkpt lat="47.45553" lon="-0.63831">
        <ele>70.4</ele>
        <time>2021-07-04T06:22:03Z</time>
      </trkpt>
      <trkpt lat="47.45547" lon="-0.63811">
        <ele>70.4</ele>
        <time>2021-07-04T06:22:05Z</time>
      </trkpt>
      <trkpt lat="47.45544" lon="-0.63801">
        <ele>70.2</ele>
        <time>2021-07-04T06:22:06Z</time>
      </trkpt>
      <trkpt lat="47.45541" lon="-0.63791">
        <ele>70.2</ele>
        <time>2021-07-04T06:22:07Z</time>
      </trkpt>
      <trkpt lat="47.45534" lon="-0.63772">
        <ele>70.2</ele>
        <time>2021-07-04T06:22:09Z</time>
      </trkpt>
      <trkpt lat="47.45527" lon="-0.63753">
        <ele>69.6</ele>
        <time>2021-07-04T06:22:11Z</time>
      </trkpt>
      <trkpt lat="47.45521" lon="-0.63734">
        <ele>69.6</ele>
        <time>2021-07-04T06:22:13Z</time>
      </trkpt>
      <trkpt lat="47.45519" lon="-0.63725">
        <ele>69.6</ele>
        <time>2021-07-04T06:22:14Z</time>
      </trkpt>
      <trkpt lat="47.45516" lon="-0.63716">
        <ele>69.4</ele>
        <time>2021-07-04T06:22:15Z</time>
      </trkpt>
      <trkpt lat="47.4551" lon="-0.63698">
        <ele>69.8</ele>
        <time>2021-07-04T06:22:17Z</time>
      </trkpt>
      <trkpt lat="47.45505" lon="-0.63681">
        <ele>70.2</ele>
        <time>2021-07-04T06:22:19Z</time>
      </trkpt>
      <trkpt lat="47.45499" lon="-0.63663">
        <ele>70.4</ele>
        <time>2021-07-04T06:22:21Z</time>
      </trkpt>
      <trkpt lat="47.45493" lon="-0.63647">
        <ele>69.8</ele>
        <time>2021-07-04T06:22:23Z</time>
      </trkpt>
      <trkpt lat="47.45487" lon="-0.63632">
        <ele>70.2</ele>
        <time>2021-07-04T06:22:25Z</time>
      </trkpt>
      <trkpt lat="47.45484" lon="-0.63625">
        <ele>70.2</ele>
        <time>2021-07-04T06:22:26Z</time>
      </trkpt>
      <trkpt lat="47.45481" lon="-0.63618">
        <ele>70.2</ele>
        <time>2021-07-04T06:22:27Z</time>
      </trkpt>
      <trkpt lat="47.45473" lon="-0.63605">
        <ele>70.4</ele>
        <time>2021-07-04T06:22:29Z</time>
      </trkpt>
      <trkpt lat="47.45469" lon="-0.63599">
        <ele>70.6</ele>
        <time>2021-07-04T06:22:30Z</time>
      </trkpt>
      <trkpt lat="47.45465" lon="-0.63595">
        <ele>70.6</ele>
        <time>2021-07-04T06:22:31Z</time>
      </trkpt>
      <trkpt lat="47.45457" lon="-0.63589">
        <ele>70.6</ele>
        <time>2021-07-04T06:22:33Z</time>
      </trkpt>
      <trkpt lat="47.45453" lon="-0.63586">
        <ele>70.6</ele>
        <time>2021-07-04T06:22:34Z</time>
      </trkpt>
      <trkpt lat="47.45448" lon="-0.63582">
        <ele>70.8</ele>
        <time>2021-07-04T06:22:35Z</time>
      </trkpt>
      <trkpt lat="47.45443" lon="-0.63577">
        <ele>70.8</ele>
        <time>2021-07-04T06:22:36Z</time>
      </trkpt>
      <trkpt lat="47.45439" lon="-0.63571">
        <ele>70.6</ele>
        <time>2021-07-04T06:22:37Z</time>
      </trkpt>
      <trkpt lat="47.45435" lon="-0.63565">
        <ele>70.6</ele>
        <time>2021-07-04T06:22:38Z</time>
      </trkpt>
      <trkpt lat="47.45431" lon="-0.63558">
        <ele>70.6</ele>
        <time>2021-07-04T06:22:39Z</time>
      </trkpt>
      <trkpt lat="47.45427" lon="-0.63551">
        <ele>70.8</ele>
        <time>2021-07-04T06:22:40Z</time>
      </trkpt>
      <trkpt lat="47.45424" lon="-0.63545">
        <ele>70.8</ele>
        <time>2021-07-04T06:22:41Z</time>
      </trkpt>
      <trkpt lat="47.45416" lon="-0.63533">
        <ele>71.2</ele>
        <time>2021-07-04T06:22:43Z</time>
      </trkpt>
      <trkpt lat="47.45411" lon="-0.63527">
        <ele>71.4</ele>
        <time>2021-07-04T06:22:44Z</time>
      </trkpt>
      <trkpt lat="47.45407" lon="-0.63521">
        <ele>71.6</ele>
        <time>2021-07-04T06:22:45Z</time>
      </trkpt>
      <trkpt lat="47.45397" lon="-0.6351">
        <ele>71.6</ele>
        <time>2021-07-04T06:22:47Z</time>
      </trkpt>
      <trkpt lat="47.45387" lon="-0.63499">
        <ele>71.4</ele>
        <time>2021-07-04T06:22:49Z</time>
      </trkpt>
      <trkpt lat="47.45382" lon="-0.63494">
        <ele>71.4</ele>
        <time>2021-07-04T06:22:50Z</time>
      </trkpt>
      <trkpt lat="47.45377" lon="-0.63489">
        <ele>71.4</ele>
        <time>2021-07-04T06:22:51Z</time>
      </trkpt>
      <trkpt lat="47.45368" lon="-0.63477">
        <ele>71.8</ele>
        <time>2021-07-04T06:22:53Z</time>
      </trkpt>
      <trkpt lat="47.45363" lon="-0.63471">
        <ele>72.2</ele>
        <time>2021-07-04T06:22:54Z</time>
      </trkpt>
      <trkpt lat="47.45359" lon="-0.63465">
        <ele>72</ele>
        <time>2021-07-04T06:22:55Z</time>
      </trkpt>
      <trkpt lat="47.45352" lon="-0.63451">
        <ele>72.2</ele>
        <time>2021-07-04T06:22:57Z</time>
      </trkpt>
      <trkpt lat="47.45346" lon="-0.63436">
        <ele>72</ele>
        <time>2021-07-04T06:22:59Z</time>
      </trkpt>
      <trkpt lat="47.45342" lon="-0.63428">
        <ele>72.2</ele>
        <time>2021-07-04T06:23:00Z</time>
      </trkpt>
      <trkpt lat="47.45339" lon="-0.63419">
        <ele>72.2</ele>
        <time>2021-07-04T06:23:01Z</time>
      </trkpt>
      <trkpt lat="47.45332" lon="-0.63402">
        <ele>72.2</ele>
        <time>2021-07-04T06:23:03Z</time>
      </trkpt>
      <trkpt lat="47.45329" lon="-0.63395">
        <ele>72</ele>
        <time>2021-07-04T06:23:04Z</time>
      </trkpt>
      <trkpt lat="47.45326" lon="-0.63386">
        <ele>72</ele>
        <time>2021-07-04T06:23:05Z</time>
      </trkpt>
      <trkpt lat="47.45318" lon="-0.63365">
        <ele>72</ele>
        <time>2021-07-04T06:23:07Z</time>
      </trkpt>
      <trkpt lat="47.4531" lon="-0.63346">
        <ele>71.2</ele>
        <time>2021-07-04T06:23:09Z</time>
      </trkpt>
      <trkpt lat="47.45303" lon="-0.6333">
        <ele>71</ele>
        <time>2021-07-04T06:23:11Z</time>
      </trkpt>
      <trkpt lat="47.45296" lon="-0.63314">
        <ele>71.4</ele>
        <time>2021-07-04T06:23:13Z</time>
      </trkpt>
      <trkpt lat="47.45289" lon="-0.63299">
        <ele>71.4</ele>
        <time>2021-07-04T06:23:15Z</time>
      </trkpt>
      <trkpt lat="47.45284" lon="-0.63291">
        <ele>71.2</ele>
        <time>2021-07-04T06:23:16Z</time>
      </trkpt>
      <trkpt lat="47.4528" lon="-0.63283">
        <ele>71.2</ele>
        <time>2021-07-04T06:23:17Z</time>
      </trkpt>
      <trkpt lat="47.45272" lon="-0.63267">
        <ele>71.2</ele>
        <time>2021-07-04T06:23:19Z</time>
      </trkpt>
      <trkpt lat="47.45263" lon="-0.63252">
        <ele>70.8</ele>
        <time>2021-07-04T06:23:21Z</time>
      </trkpt>
      <trkpt lat="47.45259" lon="-0.63245">
        <ele>70.8</ele>
        <time>2021-07-04T06:23:22Z</time>
      </trkpt>
      <trkpt lat="47.45254" lon="-0.63239">
        <ele>70.8</ele>
        <time>2021-07-04T06:23:23Z</time>
      </trkpt>
      <trkpt lat="47.45246" lon="-0.63228">
        <ele>70.8</ele>
        <time>2021-07-04T06:23:25Z</time>
      </trkpt>
      <trkpt lat="47.45238" lon="-0.63217">
        <ele>71.4</ele>
        <time>2021-07-04T06:23:27Z</time>
      </trkpt>
      <trkpt lat="47.45234" lon="-0.63212">
        <ele>71.4</ele>
        <time>2021-07-04T06:23:28Z</time>
      </trkpt>
      <trkpt lat="47.45231" lon="-0.63207">
        <ele>71.2</ele>
        <time>2021-07-04T06:23:29Z</time>
      </trkpt>
      <trkpt lat="47.45225" lon="-0.63199">
        <ele>71</ele>
        <time>2021-07-04T06:23:31Z</time>
      </trkpt>
      <trkpt lat="47.45222" lon="-0.63194">
        <ele>71</ele>
        <time>2021-07-04T06:23:32Z</time>
      </trkpt>
      <trkpt lat="47.45218" lon="-0.63189">
        <ele>71</ele>
        <time>2021-07-04T06:23:33Z</time>
      </trkpt>
      <trkpt lat="47.45215" lon="-0.63185">
        <ele>71</ele>
        <time>2021-07-04T06:23:34Z</time>
      </trkpt>
      <trkpt lat="47.45211" lon="-0.6318">
        <ele>70.6</ele>
        <time>2021-07-04T06:23:35Z</time>
      </trkpt>
      <trkpt lat="47.45204" lon="-0.6317">
        <ele>70.4</ele>
        <time>2021-07-04T06:23:37Z</time>
      </trkpt>
      <trkpt lat="47.45194" lon="-0.63158">
        <ele>70.6</ele>
        <time>2021-07-04T06:23:39Z</time>
      </trkpt>
      <trkpt lat="47.45185" lon="-0.63148">
        <ele>70.6</ele>
        <time>2021-07-04T06:23:41Z</time>
      </trkpt>
      <trkpt lat="47.45174" lon="-0.63137">
        <ele>70.4</ele>
        <time>2021-07-04T06:23:43Z</time>
      </trkpt>
      <trkpt lat="47.45162" lon="-0.63127">
        <ele>70</ele>
        <time>2021-07-04T06:23:45Z</time>
      </trkpt>
      <trkpt lat="47.45157" lon="-0.63121">
        <ele>69.8</ele>
        <time>2021-07-04T06:23:46Z</time>
      </trkpt>
      <trkpt lat="47.45151" lon="-0.63115">
        <ele>69.8</ele>
        <time>2021-07-04T06:23:47Z</time>
      </trkpt>
      <trkpt lat="47.45141" lon="-0.63102">
        <ele>69.8</ele>
        <time>2021-07-04T06:23:49Z</time>
      </trkpt>
      <trkpt lat="47.45131" lon="-0.6309">
        <ele>69.6</ele>
        <time>2021-07-04T06:23:51Z</time>
      </trkpt>
      <trkpt lat="47.45127" lon="-0.63083">
        <ele>69.8</ele>
        <time>2021-07-04T06:23:52Z</time>
      </trkpt>
      <trkpt lat="47.45124" lon="-0.63075">
        <ele>70.2</ele>
        <time>2021-07-04T06:23:53Z</time>
      </trkpt>
      <trkpt lat="47.4512" lon="-0.63056">
        <ele>70.2</ele>
        <time>2021-07-04T06:23:55Z</time>
      </trkpt>
      <trkpt lat="47.4512" lon="-0.63046">
        <ele>70</ele>
        <time>2021-07-04T06:23:56Z</time>
      </trkpt>
      <trkpt lat="47.45122" lon="-0.63038">
        <ele>70</ele>
        <time>2021-07-04T06:23:57Z</time>
      </trkpt>
      <trkpt lat="47.45124" lon="-0.6303">
        <ele>69.8</ele>
        <time>2021-07-04T06:23:58Z</time>
      </trkpt>
      <trkpt lat="47.45126" lon="-0.63023">
        <ele>69.6</ele>
        <time>2021-07-04T06:23:59Z</time>
      </trkpt>
      <trkpt lat="47.45131" lon="-0.63007">
        <ele>68.8</ele>
        <time>2021-07-04T06:24:01Z</time>
      </trkpt>
      <trkpt lat="47.45136" lon="-0.62993">
        <ele>68.4</ele>
        <time>2021-07-04T06:24:03Z</time>
      </trkpt>
      <trkpt lat="47.45142" lon="-0.62979">
        <ele>67.8</ele>
        <time>2021-07-04T06:24:05Z</time>
      </trkpt>
      <trkpt lat="47.45145" lon="-0.62972">
        <ele>67.8</ele>
        <time>2021-07-04T06:24:06Z</time>
      </trkpt>
      <trkpt lat="47.45149" lon="-0.62964">
        <ele>67.6</ele>
        <time>2021-07-04T06:24:07Z</time>
      </trkpt>
      <trkpt lat="47.45153" lon="-0.62957">
        <ele>67.4</ele>
        <time>2021-07-04T06:24:08Z</time>
      </trkpt>
      <trkpt lat="47.45157" lon="-0.6295">
        <ele>67.2</ele>
        <time>2021-07-04T06:24:09Z</time>
      </trkpt>
      <trkpt lat="47.45161" lon="-0.62942">
        <ele>67</ele>
        <time>2021-07-04T06:24:10Z</time>
      </trkpt>
      <trkpt lat="47.45165" lon="-0.62934">
        <ele>66.4</ele>
        <time>2021-07-04T06:24:11Z</time>
      </trkpt>
      <trkpt lat="47.45168" lon="-0.62926">
        <ele>66.2</ele>
        <time>2021-07-04T06:24:12Z</time>
      </trkpt>
      <trkpt lat="47.45173" lon="-0.62919">
        <ele>66</ele>
        <time>2021-07-04T06:24:13Z</time>
      </trkpt>
      <trkpt lat="47.45181" lon="-0.62907">
        <ele>65.8</ele>
        <time>2021-07-04T06:24:15Z</time>
      </trkpt>
      <trkpt lat="47.45185" lon="-0.62893">
        <ele>66</ele>
        <time>2021-07-04T06:24:17Z</time>
      </trkpt>
      <trkpt lat="47.45186" lon="-0.62884">
        <ele>65.8</ele>
        <time>2021-07-04T06:24:18Z</time>
      </trkpt>
      <trkpt lat="47.45186" lon="-0.62874">
        <ele>65.6</ele>
        <time>2021-07-04T06:24:19Z</time>
      </trkpt>
      <trkpt lat="47.45183" lon="-0.62855">
        <ele>65.6</ele>
        <time>2021-07-04T06:24:21Z</time>
      </trkpt>
      <trkpt lat="47.45181" lon="-0.62846">
        <ele>65.4</ele>
        <time>2021-07-04T06:24:22Z</time>
      </trkpt>
      <trkpt lat="47.45179" lon="-0.62838">
        <ele>65.4</ele>
        <time>2021-07-04T06:24:23Z</time>
      </trkpt>
      <trkpt lat="47.45175" lon="-0.62821">
        <ele>65.8</ele>
        <time>2021-07-04T06:24:25Z</time>
      </trkpt>
      <trkpt lat="47.4517" lon="-0.62804">
        <ele>65.8</ele>
        <time>2021-07-04T06:24:27Z</time>
      </trkpt>
      <trkpt lat="47.45169" lon="-0.62796">
        <ele>65.8</ele>
        <time>2021-07-04T06:24:28Z</time>
      </trkpt>
      <trkpt lat="47.45168" lon="-0.62788">
        <ele>66</ele>
        <time>2021-07-04T06:24:29Z</time>
      </trkpt>
      <trkpt lat="47.45163" lon="-0.6277">
        <ele>66.4</ele>
        <time>2021-07-04T06:24:31Z</time>
      </trkpt>
      <trkpt lat="47.45158" lon="-0.62753">
        <ele>66.4</ele>
        <time>2021-07-04T06:24:33Z</time>
      </trkpt>
      <trkpt lat="47.45156" lon="-0.62746">
        <ele>66.4</ele>
        <time>2021-07-04T06:24:34Z</time>
      </trkpt>
      <trkpt lat="47.45153" lon="-0.62738">
        <ele>66.6</ele>
        <time>2021-07-04T06:24:35Z</time>
      </trkpt>
      <trkpt lat="47.45149" lon="-0.62726">
        <ele>67.2</ele>
        <time>2021-07-04T06:24:37Z</time>
      </trkpt>
      <trkpt lat="47.45145" lon="-0.62715">
        <ele>67</ele>
        <time>2021-07-04T06:24:39Z</time>
      </trkpt>
      <trkpt lat="47.4514" lon="-0.62704">
        <ele>67.4</ele>
        <time>2021-07-04T06:24:41Z</time>
      </trkpt>
      <trkpt lat="47.45136" lon="-0.62693">
        <ele>67.6</ele>
        <time>2021-07-04T06:24:43Z</time>
      </trkpt>
      <trkpt lat="47.45134" lon="-0.62687">
        <ele>67.4</ele>
        <time>2021-07-04T06:24:44Z</time>
      </trkpt>
      <trkpt lat="47.45132" lon="-0.62682">
        <ele>67.6</ele>
        <time>2021-07-04T06:24:45Z</time>
      </trkpt>
      <trkpt lat="47.45129" lon="-0.62671">
        <ele>67.8</ele>
        <time>2021-07-04T06:24:47Z</time>
      </trkpt>
      <trkpt lat="47.45124" lon="-0.62658">
        <ele>68</ele>
        <time>2021-07-04T06:24:49Z</time>
      </trkpt>
      <trkpt lat="47.45118" lon="-0.62644">
        <ele>68.4</ele>
        <time>2021-07-04T06:24:51Z</time>
      </trkpt>
      <trkpt lat="47.45115" lon="-0.62637">
        <ele>68.6</ele>
        <time>2021-07-04T06:24:52Z</time>
      </trkpt>
      <trkpt lat="47.45113" lon="-0.62631">
        <ele>68.6</ele>
        <time>2021-07-04T06:24:53Z</time>
      </trkpt>
      <trkpt lat="47.45109" lon="-0.62618">
        <ele>68.8</ele>
        <time>2021-07-04T06:24:55Z</time>
      </trkpt>
      <trkpt lat="47.45105" lon="-0.62606">
        <ele>69</ele>
        <time>2021-07-04T06:24:57Z</time>
      </trkpt>
      <trkpt lat="47.45102" lon="-0.62594">
        <ele>69.2</ele>
        <time>2021-07-04T06:24:59Z</time>
      </trkpt>
      <trkpt lat="47.45097" lon="-0.6258">
        <ele>69.2</ele>
        <time>2021-07-04T06:25:01Z</time>
      </trkpt>
      <trkpt lat="47.45093" lon="-0.62568">
        <ele>69.6</ele>
        <time>2021-07-04T06:25:03Z</time>
      </trkpt>
      <trkpt lat="47.4509" lon="-0.62559">
        <ele>69.8</ele>
        <time>2021-07-04T06:25:04Z</time>
      </trkpt>
      <trkpt lat="47.45086" lon="-0.6255">
        <ele>70</ele>
        <time>2021-07-04T06:25:05Z</time>
      </trkpt>
      <trkpt lat="47.45081" lon="-0.62542">
        <ele>70</ele>
        <time>2021-07-04T06:25:06Z</time>
      </trkpt>
      <trkpt lat="47.45077" lon="-0.62533">
        <ele>70.2</ele>
        <time>2021-07-04T06:25:07Z</time>
      </trkpt>
      <trkpt lat="47.45071" lon="-0.62517">
        <ele>70</ele>
        <time>2021-07-04T06:25:09Z</time>
      </trkpt>
      <trkpt lat="47.45067" lon="-0.62502">
        <ele>70</ele>
        <time>2021-07-04T06:25:11Z</time>
      </trkpt>
      <trkpt lat="47.45064" lon="-0.62488">
        <ele>70</ele>
        <time>2021-07-04T06:25:13Z</time>
      </trkpt>
      <trkpt lat="47.4506" lon="-0.62475">
        <ele>70.2</ele>
        <time>2021-07-04T06:25:15Z</time>
      </trkpt>
      <trkpt lat="47.45059" lon="-0.62464">
        <ele>70.2</ele>
        <time>2021-07-04T06:25:17Z</time>
      </trkpt>
      <trkpt lat="47.45058" lon="-0.62459">
        <ele>70.8</ele>
        <time>2021-07-04T06:25:18Z</time>
      </trkpt>
      <trkpt lat="47.45057" lon="-0.62454">
        <ele>71.2</ele>
        <time>2021-07-04T06:25:19Z</time>
      </trkpt>
      <trkpt lat="47.45049" lon="-0.62439">
        <ele>71.4</ele>
        <time>2021-07-04T06:25:20Z</time>
      </trkpt>
      <trkpt lat="47.45041" lon="-0.62423">
        <ele>71.4</ele>
        <time>2021-07-04T06:26:47Z</time>
      </trkpt>
      <trkpt lat="47.45033" lon="-0.62408">
        <ele>71.2</ele>
        <time>2021-07-04T06:26:48Z</time>
      </trkpt>
      <trkpt lat="47.45033" lon="-0.62401">
        <ele>71.2</ele>
        <time>2021-07-04T06:26:49Z</time>
      </trkpt>
      <trkpt lat="47.45033" lon="-0.62395">
        <ele>70.8</ele>
        <time>2021-07-04T06:26:50Z</time>
      </trkpt>
      <trkpt lat="47.45036" lon="-0.62384">
        <ele>70.2</ele>
        <time>2021-07-04T06:26:52Z</time>
      </trkpt>
      <trkpt lat="47.45039" lon="-0.62373">
        <ele>69.8</ele>
        <time>2021-07-04T06:26:54Z</time>
      </trkpt>
      <trkpt lat="47.45041" lon="-0.62361">
        <ele>69.4</ele>
        <time>2021-07-04T06:26:56Z</time>
      </trkpt>
      <trkpt lat="47.45043" lon="-0.62356">
        <ele>69.4</ele>
        <time>2021-07-04T06:26:57Z</time>
      </trkpt>
      <trkpt lat="47.45044" lon="-0.62352">
        <ele>69.2</ele>
        <time>2021-07-04T06:26:58Z</time>
      </trkpt>
      <trkpt lat="47.45048" lon="-0.6234">
        <ele>69.2</ele>
        <time>2021-07-04T06:27:00Z</time>
      </trkpt>
      <trkpt lat="47.45049" lon="-0.62333">
        <ele>69.2</ele>
        <time>2021-07-04T06:27:01Z</time>
      </trkpt>
      <trkpt lat="47.45051" lon="-0.62325">
        <ele>69.4</ele>
        <time>2021-07-04T06:27:02Z</time>
      </trkpt>
      <trkpt lat="47.45055" lon="-0.62309">
        <ele>69.4</ele>
        <time>2021-07-04T06:27:04Z</time>
      </trkpt>
      <trkpt lat="47.4506" lon="-0.62293">
        <ele>69</ele>
        <time>2021-07-04T06:27:06Z</time>
      </trkpt>
      <trkpt lat="47.45062" lon="-0.62277">
        <ele>69</ele>
        <time>2021-07-04T06:27:08Z</time>
      </trkpt>
      <trkpt lat="47.45064" lon="-0.62262">
        <ele>69.2</ele>
        <time>2021-07-04T06:27:10Z</time>
      </trkpt>
      <trkpt lat="47.45066" lon="-0.62247">
        <ele>68.8</ele>
        <time>2021-07-04T06:27:12Z</time>
      </trkpt>
      <trkpt lat="47.45067" lon="-0.6223">
        <ele>68.8</ele>
        <time>2021-07-04T06:27:14Z</time>
      </trkpt>
      <trkpt lat="47.45068" lon="-0.62221">
        <ele>68.8</ele>
        <time>2021-07-04T06:27:15Z</time>
      </trkpt>
      <trkpt lat="47.45068" lon="-0.62212">
        <ele>68.8</ele>
        <time>2021-07-04T06:27:16Z</time>
      </trkpt>
      <trkpt lat="47.45068" lon="-0.62193">
        <ele>68</ele>
        <time>2021-07-04T06:27:18Z</time>
      </trkpt>
      <trkpt lat="47.45068" lon="-0.62173">
        <ele>68</ele>
        <time>2021-07-04T06:27:20Z</time>
      </trkpt>
      <trkpt lat="47.45067" lon="-0.62152">
        <ele>67.4</ele>
        <time>2021-07-04T06:27:22Z</time>
      </trkpt>
      <trkpt lat="47.45066" lon="-0.6213">
        <ele>66.8</ele>
        <time>2021-07-04T06:27:24Z</time>
      </trkpt>
      <trkpt lat="47.45064" lon="-0.62109">
        <ele>66.4</ele>
        <time>2021-07-04T06:27:26Z</time>
      </trkpt>
      <trkpt lat="47.45063" lon="-0.62098">
        <ele>66.2</ele>
        <time>2021-07-04T06:27:27Z</time>
      </trkpt>
      <trkpt lat="47.45062" lon="-0.62088">
        <ele>66</ele>
        <time>2021-07-04T06:27:28Z</time>
      </trkpt>
      <trkpt lat="47.45061" lon="-0.62066">
        <ele>66</ele>
        <time>2021-07-04T06:27:30Z</time>
      </trkpt>
      <trkpt lat="47.4506" lon="-0.62045">
        <ele>65.6</ele>
        <time>2021-07-04T06:27:32Z</time>
      </trkpt>
      <trkpt lat="47.4506" lon="-0.62035">
        <ele>65.4</ele>
        <time>2021-07-04T06:27:33Z</time>
      </trkpt>
      <trkpt lat="47.4506" lon="-0.62024">
        <ele>65</ele>
        <time>2021-07-04T06:27:34Z</time>
      </trkpt>
      <trkpt lat="47.45061" lon="-0.62003">
        <ele>64.8</ele>
        <time>2021-07-04T06:27:36Z</time>
      </trkpt>
      <trkpt lat="47.45063" lon="-0.61983">
        <ele>64.8</ele>
        <time>2021-07-04T06:27:38Z</time>
      </trkpt>
      <trkpt lat="47.45066" lon="-0.61963">
        <ele>64.8</ele>
        <time>2021-07-04T06:27:40Z</time>
      </trkpt>
      <trkpt lat="47.4507" lon="-0.61945">
        <ele>64.8</ele>
        <time>2021-07-04T06:27:42Z</time>
      </trkpt>
      <trkpt lat="47.45077" lon="-0.6193">
        <ele>65.2</ele>
        <time>2021-07-04T06:27:44Z</time>
      </trkpt>
      <trkpt lat="47.45086" lon="-0.61918">
        <ele>64.8</ele>
        <time>2021-07-04T06:27:46Z</time>
      </trkpt>
      <trkpt lat="47.45096" lon="-0.61905">
        <ele>64.8</ele>
        <time>2021-07-04T06:27:48Z</time>
      </trkpt>
      <trkpt lat="47.45107" lon="-0.61892">
        <ele>64.6</ele>
        <time>2021-07-04T06:27:50Z</time>
      </trkpt>
      <trkpt lat="47.45118" lon="-0.6188">
        <ele>64.2</ele>
        <time>2021-07-04T06:27:52Z</time>
      </trkpt>
      <trkpt lat="47.45124" lon="-0.61874">
        <ele>64</ele>
        <time>2021-07-04T06:27:53Z</time>
      </trkpt>
      <trkpt lat="47.4513" lon="-0.61868">
        <ele>64</ele>
        <time>2021-07-04T06:27:54Z</time>
      </trkpt>
      <trkpt lat="47.45136" lon="-0.61863">
        <ele>63.8</ele>
        <time>2021-07-04T06:27:55Z</time>
      </trkpt>
      <trkpt lat="47.45143" lon="-0.61858">
        <ele>63.8</ele>
        <time>2021-07-04T06:27:56Z</time>
      </trkpt>
      <trkpt lat="47.45159" lon="-0.61848">
        <ele>63</ele>
        <time>2021-07-04T06:27:58Z</time>
      </trkpt>
      <trkpt lat="47.45175" lon="-0.61839">
        <ele>62.2</ele>
        <time>2021-07-04T06:28:00Z</time>
      </trkpt>
      <trkpt lat="47.45183" lon="-0.61833">
        <ele>61.8</ele>
        <time>2021-07-04T06:28:01Z</time>
      </trkpt>
      <trkpt lat="47.45191" lon="-0.61828">
        <ele>61.2</ele>
        <time>2021-07-04T06:28:02Z</time>
      </trkpt>
      <trkpt lat="47.45199" lon="-0.61823">
        <ele>60.4</ele>
        <time>2021-07-04T06:28:03Z</time>
      </trkpt>
      <trkpt lat="47.45207" lon="-0.61817">
        <ele>60</ele>
        <time>2021-07-04T06:28:04Z</time>
      </trkpt>
      <trkpt lat="47.45216" lon="-0.61812">
        <ele>59.4</ele>
        <time>2021-07-04T06:28:05Z</time>
      </trkpt>
      <trkpt lat="47.45224" lon="-0.61806">
        <ele>58.8</ele>
        <time>2021-07-04T06:28:06Z</time>
      </trkpt>
      <trkpt lat="47.45231" lon="-0.618">
        <ele>57.6</ele>
        <time>2021-07-04T06:28:07Z</time>
      </trkpt>
      <trkpt lat="47.45239" lon="-0.61792">
        <ele>57.2</ele>
        <time>2021-07-04T06:28:08Z</time>
      </trkpt>
      <trkpt lat="47.45252" lon="-0.61774">
        <ele>56.6</ele>
        <time>2021-07-04T06:28:10Z</time>
      </trkpt>
      <trkpt lat="47.45258" lon="-0.61765">
        <ele>56.6</ele>
        <time>2021-07-04T06:28:11Z</time>
      </trkpt>
      <trkpt lat="47.45264" lon="-0.61756">
        <ele>56.4</ele>
        <time>2021-07-04T06:28:12Z</time>
      </trkpt>
      <trkpt lat="47.45271" lon="-0.61748">
        <ele>56.2</ele>
        <time>2021-07-04T06:28:13Z</time>
      </trkpt>
      <trkpt lat="47.45277" lon="-0.6174">
        <ele>55.8</ele>
        <time>2021-07-04T06:28:14Z</time>
      </trkpt>
      <trkpt lat="47.45291" lon="-0.61723">
        <ele>55.4</ele>
        <time>2021-07-04T06:28:16Z</time>
      </trkpt>
      <trkpt lat="47.45305" lon="-0.61707">
        <ele>54.2</ele>
        <time>2021-07-04T06:28:18Z</time>
      </trkpt>
      <trkpt lat="47.45319" lon="-0.6169">
        <ele>53.2</ele>
        <time>2021-07-04T06:28:20Z</time>
      </trkpt>
      <trkpt lat="47.45326" lon="-0.61682">
        <ele>53</ele>
        <time>2021-07-04T06:28:21Z</time>
      </trkpt>
      <trkpt lat="47.45334" lon="-0.61673">
        <ele>52.4</ele>
        <time>2021-07-04T06:28:22Z</time>
      </trkpt>
      <trkpt lat="47.45341" lon="-0.61664">
        <ele>51.8</ele>
        <time>2021-07-04T06:28:23Z</time>
      </trkpt>
      <trkpt lat="47.45349" lon="-0.61655">
        <ele>51.4</ele>
        <time>2021-07-04T06:28:24Z</time>
      </trkpt>
      <trkpt lat="47.45363" lon="-0.61637">
        <ele>50.2</ele>
        <time>2021-07-04T06:28:26Z</time>
      </trkpt>
      <trkpt lat="47.45377" lon="-0.61618">
        <ele>49.4</ele>
        <time>2021-07-04T06:28:28Z</time>
      </trkpt>
      <trkpt lat="47.45384" lon="-0.61609">
        <ele>49.2</ele>
        <time>2021-07-04T06:28:29Z</time>
      </trkpt>
      <trkpt lat="47.45391" lon="-0.616">
        <ele>48.4</ele>
        <time>2021-07-04T06:28:30Z</time>
      </trkpt>
      <trkpt lat="47.45397" lon="-0.6159">
        <ele>47.4</ele>
        <time>2021-07-04T06:28:31Z</time>
      </trkpt>
      <trkpt lat="47.45404" lon="-0.61581">
        <ele>47.6</ele>
        <time>2021-07-04T06:28:32Z</time>
      </trkpt>
      <trkpt lat="47.45415" lon="-0.61562">
        <ele>48</ele>
        <time>2021-07-04T06:28:34Z</time>
      </trkpt>
      <trkpt lat="47.45424" lon="-0.61543">
        <ele>48.6</ele>
        <time>2021-07-04T06:28:36Z</time>
      </trkpt>
      <trkpt lat="47.45433" lon="-0.61526">
        <ele>48.8</ele>
        <time>2021-07-04T06:28:38Z</time>
      </trkpt>
      <trkpt lat="47.45437" lon="-0.61518">
        <ele>48.8</ele>
        <time>2021-07-04T06:28:39Z</time>
      </trkpt>
      <trkpt lat="47.45441" lon="-0.61511">
        <ele>49</ele>
        <time>2021-07-04T06:28:40Z</time>
      </trkpt>
      <trkpt lat="47.45443" lon="-0.61504">
        <ele>49</ele>
        <time>2021-07-04T06:28:41Z</time>
      </trkpt>
      <trkpt lat="47.45442" lon="-0.61498">
        <ele>49.4</ele>
        <time>2021-07-04T06:28:42Z</time>
      </trkpt>
      <trkpt lat="47.45439" lon="-0.61494">
        <ele>50</ele>
        <time>2021-07-04T06:28:43Z</time>
      </trkpt>
      <trkpt lat="47.45434" lon="-0.61493">
        <ele>50</ele>
        <time>2021-07-04T06:28:44Z</time>
      </trkpt>
      <trkpt lat="47.45423" lon="-0.61493">
        <ele>49.4</ele>
        <time>2021-07-04T06:28:46Z</time>
      </trkpt>
      <trkpt lat="47.45413" lon="-0.61487">
        <ele>48.8</ele>
        <time>2021-07-04T06:28:48Z</time>
      </trkpt>
      <trkpt lat="47.45404" lon="-0.61472">
        <ele>47</ele>
        <time>2021-07-04T06:28:50Z</time>
      </trkpt>
      <trkpt lat="47.454" lon="-0.61462">
        <ele>46</ele>
        <time>2021-07-04T06:28:51Z</time>
      </trkpt>
      <trkpt lat="47.45397" lon="-0.61451">
        <ele>45.2</ele>
        <time>2021-07-04T06:28:52Z</time>
      </trkpt>
      <trkpt lat="47.45393" lon="-0.61441">
        <ele>44.8</ele>
        <time>2021-07-04T06:28:53Z</time>
      </trkpt>
      <trkpt lat="47.45389" lon="-0.61431">
        <ele>44.6</ele>
        <time>2021-07-04T06:28:54Z</time>
      </trkpt>
      <trkpt lat="47.45383" lon="-0.61413">
        <ele>45.2</ele>
        <time>2021-07-04T06:28:56Z</time>
      </trkpt>
      <trkpt lat="47.45379" lon="-0.61406">
        <ele>45.6</ele>
        <time>2021-07-04T06:28:57Z</time>
      </trkpt>
      <trkpt lat="47.45376" lon="-0.614">
        <ele>46.2</ele>
        <time>2021-07-04T06:28:58Z</time>
      </trkpt>
      <trkpt lat="47.45367" lon="-0.61392">
        <ele>47.6</ele>
        <time>2021-07-04T06:29:00Z</time>
      </trkpt>
      <trkpt lat="47.45362" lon="-0.6139">
        <ele>48.2</ele>
        <time>2021-07-04T06:29:01Z</time>
      </trkpt>
      <trkpt lat="47.45358" lon="-0.61389">
        <ele>48.6</ele>
        <time>2021-07-04T06:29:02Z</time>
      </trkpt>
      <trkpt lat="47.45354" lon="-0.61389">
        <ele>49</ele>
        <time>2021-07-04T06:29:03Z</time>
      </trkpt>
      <trkpt lat="47.45349" lon="-0.61389">
        <ele>49.4</ele>
        <time>2021-07-04T06:29:04Z</time>
      </trkpt>
      <trkpt lat="47.45345" lon="-0.61389">
        <ele>49.8</ele>
        <time>2021-07-04T06:29:05Z</time>
      </trkpt>
      <trkpt lat="47.45341" lon="-0.6139">
        <ele>50.2</ele>
        <time>2021-07-04T06:29:06Z</time>
      </trkpt>
      <trkpt lat="47.45337" lon="-0.6139">
        <ele>50.6</ele>
        <time>2021-07-04T06:29:07Z</time>
      </trkpt>
      <trkpt lat="47.45333" lon="-0.61389">
        <ele>51</ele>
        <time>2021-07-04T06:29:08Z</time>
      </trkpt>
      <trkpt lat="47.45329" lon="-0.61389">
        <ele>51.6</ele>
        <time>2021-07-04T06:29:09Z</time>
      </trkpt>
      <trkpt lat="47.45324" lon="-0.61388">
        <ele>52</ele>
        <time>2021-07-04T06:29:10Z</time>
      </trkpt>
      <trkpt lat="47.4532" lon="-0.61387">
        <ele>52.4</ele>
        <time>2021-07-04T06:29:11Z</time>
      </trkpt>
      <trkpt lat="47.45317" lon="-0.61386">
        <ele>52.6</ele>
        <time>2021-07-04T06:29:12Z</time>
      </trkpt>
      <trkpt lat="47.45309" lon="-0.61382">
        <ele>53.6</ele>
        <time>2021-07-04T06:29:14Z</time>
      </trkpt>
      <trkpt lat="47.45306" lon="-0.61379">
        <ele>54</ele>
        <time>2021-07-04T06:29:15Z</time>
      </trkpt>
      <trkpt lat="47.45303" lon="-0.61376">
        <ele>54.2</ele>
        <time>2021-07-04T06:29:16Z</time>
      </trkpt>
      <trkpt lat="47.45297" lon="-0.6137">
        <ele>54.8</ele>
        <time>2021-07-04T06:29:18Z</time>
      </trkpt>
      <trkpt lat="47.45295" lon="-0.61366">
        <ele>55.4</ele>
        <time>2021-07-04T06:29:19Z</time>
      </trkpt>
      <trkpt lat="47.45293" lon="-0.61363">
        <ele>55.8</ele>
        <time>2021-07-04T06:29:20Z</time>
      </trkpt>
      <trkpt lat="47.45289" lon="-0.61355">
        <ele>56.2</ele>
        <time>2021-07-04T06:29:22Z</time>
      </trkpt>
      <trkpt lat="47.45284" lon="-0.61345">
        <ele>56.4</ele>
        <time>2021-07-04T06:29:24Z</time>
      </trkpt>
      <trkpt lat="47.45279" lon="-0.61333">
        <ele>56.4</ele>
        <time>2021-07-04T06:29:26Z</time>
      </trkpt>
      <trkpt lat="47.45278" lon="-0.61327">
        <ele>56.4</ele>
        <time>2021-07-04T06:29:27Z</time>
      </trkpt>
      <trkpt lat="47.45276" lon="-0.6132">
        <ele>56.6</ele>
        <time>2021-07-04T06:29:28Z</time>
      </trkpt>
      <trkpt lat="47.45275" lon="-0.61308">
        <ele>57</ele>
        <time>2021-07-04T06:29:30Z</time>
      </trkpt>
      <trkpt lat="47.45273" lon="-0.61297">
        <ele>57.6</ele>
        <time>2021-07-04T06:29:32Z</time>
      </trkpt>
      <trkpt lat="47.45271" lon="-0.61286">
        <ele>58.2</ele>
        <time>2021-07-04T06:29:34Z</time>
      </trkpt>
      <trkpt lat="47.45268" lon="-0.61276">
        <ele>58.8</ele>
        <time>2021-07-04T06:29:36Z</time>
      </trkpt>
      <trkpt lat="47.45266" lon="-0.61265">
        <ele>59.2</ele>
        <time>2021-07-04T06:29:38Z</time>
      </trkpt>
      <trkpt lat="47.45263" lon="-0.61255">
        <ele>59.4</ele>
        <time>2021-07-04T06:29:40Z</time>
      </trkpt>
      <trkpt lat="47.4526" lon="-0.61244">
        <ele>60</ele>
        <time>2021-07-04T06:29:42Z</time>
      </trkpt>
      <trkpt lat="47.45257" lon="-0.61234">
        <ele>61</ele>
        <time>2021-07-04T06:29:44Z</time>
      </trkpt>
      <trkpt lat="47.45256" lon="-0.61229">
        <ele>61</ele>
        <time>2021-07-04T06:29:45Z</time>
      </trkpt>
      <trkpt lat="47.45254" lon="-0.61224">
        <ele>61.2</ele>
        <time>2021-07-04T06:29:46Z</time>
      </trkpt>
      <trkpt lat="47.45251" lon="-0.61215">
        <ele>61.6</ele>
        <time>2021-07-04T06:29:48Z</time>
      </trkpt>
      <trkpt lat="47.45248" lon="-0.61206">
        <ele>62.2</ele>
        <time>2021-07-04T06:29:50Z</time>
      </trkpt>
      <trkpt lat="47.45246" lon="-0.61196">
        <ele>62.6</ele>
        <time>2021-07-04T06:29:52Z</time>
      </trkpt>
      <trkpt lat="47.45243" lon="-0.61186">
        <ele>63.4</ele>
        <time>2021-07-04T06:29:54Z</time>
      </trkpt>
      <trkpt lat="47.4524" lon="-0.61176">
        <ele>64.2</ele>
        <time>2021-07-04T06:29:56Z</time>
      </trkpt>
      <trkpt lat="47.45239" lon="-0.61172">
        <ele>64.6</ele>
        <time>2021-07-04T06:29:57Z</time>
      </trkpt>
      <trkpt lat="47.45237" lon="-0.61167">
        <ele>64.8</ele>
        <time>2021-07-04T06:29:58Z</time>
      </trkpt>
      <trkpt lat="47.45235" lon="-0.61157">
        <ele>65.2</ele>
        <time>2021-07-04T06:30:00Z</time>
      </trkpt>
      <trkpt lat="47.45232" lon="-0.61148">
        <ele>65.6</ele>
        <time>2021-07-04T06:30:02Z</time>
      </trkpt>
      <trkpt lat="47.4523" lon="-0.61138">
        <ele>66</ele>
        <time>2021-07-04T06:30:04Z</time>
      </trkpt>
      <trkpt lat="47.45228" lon="-0.61129">
        <ele>66.6</ele>
        <time>2021-07-04T06:30:06Z</time>
      </trkpt>
      <trkpt lat="47.45227" lon="-0.61123">
        <ele>67</ele>
        <time>2021-07-04T06:30:07Z</time>
      </trkpt>
      <trkpt lat="47.45226" lon="-0.61118">
        <ele>67.2</ele>
        <time>2021-07-04T06:30:08Z</time>
      </trkpt>
      <trkpt lat="47.45223" lon="-0.61108">
        <ele>67.4</ele>
        <time>2021-07-04T06:30:10Z</time>
      </trkpt>
      <trkpt lat="47.4522" lon="-0.61098">
        <ele>67.8</ele>
        <time>2021-07-04T06:30:12Z</time>
      </trkpt>
      <trkpt lat="47.45219" lon="-0.61093">
        <ele>68</ele>
        <time>2021-07-04T06:30:13Z</time>
      </trkpt>
      <trkpt lat="47.45218" lon="-0.61089">
        <ele>68.2</ele>
        <time>2021-07-04T06:30:14Z</time>
      </trkpt>
      <trkpt lat="47.45214" lon="-0.61079">
        <ele>68.2</ele>
        <time>2021-07-04T06:30:16Z</time>
      </trkpt>
      <trkpt lat="47.4521" lon="-0.61069">
        <ele>68.8</ele>
        <time>2021-07-04T06:30:18Z</time>
      </trkpt>
      <trkpt lat="47.45208" lon="-0.61064">
        <ele>69</ele>
        <time>2021-07-04T06:30:19Z</time>
      </trkpt>
      <trkpt lat="47.45206" lon="-0.61059">
        <ele>69.2</ele>
        <time>2021-07-04T06:30:20Z</time>
      </trkpt>
      <trkpt lat="47.45202" lon="-0.61049">
        <ele>69.4</ele>
        <time>2021-07-04T06:30:22Z</time>
      </trkpt>
      <trkpt lat="47.45197" lon="-0.6104">
        <ele>69.8</ele>
        <time>2021-07-04T06:30:24Z</time>
      </trkpt>
      <trkpt lat="47.45195" lon="-0.61035">
        <ele>70</ele>
        <time>2021-07-04T06:30:25Z</time>
      </trkpt>
      <trkpt lat="47.45193" lon="-0.61031">
        <ele>70.2</ele>
        <time>2021-07-04T06:30:26Z</time>
      </trkpt>
      <trkpt lat="47.45189" lon="-0.61021">
        <ele>70.6</ele>
        <time>2021-07-04T06:30:28Z</time>
      </trkpt>
      <trkpt lat="47.45185" lon="-0.61012">
        <ele>70.8</ele>
        <time>2021-07-04T06:30:30Z</time>
      </trkpt>
      <trkpt lat="47.45181" lon="-0.61002">
        <ele>71.2</ele>
        <time>2021-07-04T06:30:32Z</time>
      </trkpt>
      <trkpt lat="47.45179" lon="-0.60998">
        <ele>71.4</ele>
        <time>2021-07-04T06:30:33Z</time>
      </trkpt>
      <trkpt lat="47.45177" lon="-0.60993">
        <ele>71.6</ele>
        <time>2021-07-04T06:30:34Z</time>
      </trkpt>
      <trkpt lat="47.45175" lon="-0.60989">
        <ele>71.8</ele>
        <time>2021-07-04T06:30:35Z</time>
      </trkpt>
      <trkpt lat="47.45173" lon="-0.60984">
        <ele>72</ele>
        <time>2021-07-04T06:30:36Z</time>
      </trkpt>
      <trkpt lat="47.45168" lon="-0.60975">
        <ele>72.6</ele>
        <time>2021-07-04T06:30:38Z</time>
      </trkpt>
      <trkpt lat="47.45164" lon="-0.60967">
        <ele>73</ele>
        <time>2021-07-04T06:30:40Z</time>
      </trkpt>
      <trkpt lat="47.45161" lon="-0.60963">
        <ele>73.2</ele>
        <time>2021-07-04T06:30:41Z</time>
      </trkpt>
      <trkpt lat="47.45158" lon="-0.60959">
        <ele>73.4</ele>
        <time>2021-07-04T06:30:42Z</time>
      </trkpt>
      <trkpt lat="47.45153" lon="-0.60952">
        <ele>73.6</ele>
        <time>2021-07-04T06:30:44Z</time>
      </trkpt>
      <trkpt lat="47.45148" lon="-0.60945">
        <ele>74</ele>
        <time>2021-07-04T06:30:46Z</time>
      </trkpt>
      <trkpt lat="47.45145" lon="-0.60943">
        <ele>74.2</ele>
        <time>2021-07-04T06:30:47Z</time>
      </trkpt>
      <trkpt lat="47.45143" lon="-0.6094">
        <ele>74.4</ele>
        <time>2021-07-04T06:30:48Z</time>
      </trkpt>
      <trkpt lat="47.45141" lon="-0.60936">
        <ele>74.6</ele>
        <time>2021-07-04T06:30:49Z</time>
      </trkpt>
      <trkpt lat="47.45138" lon="-0.60932">
        <ele>75</ele>
        <time>2021-07-04T06:30:50Z</time>
      </trkpt>
      <trkpt lat="47.45132" lon="-0.60924">
        <ele>75.4</ele>
        <time>2021-07-04T06:30:52Z</time>
      </trkpt>
      <trkpt lat="47.45129" lon="-0.6092">
        <ele>75.6</ele>
        <time>2021-07-04T06:30:53Z</time>
      </trkpt>
      <trkpt lat="47.45126" lon="-0.60916">
        <ele>75.6</ele>
        <time>2021-07-04T06:30:54Z</time>
      </trkpt>
      <trkpt lat="47.4512" lon="-0.60908">
        <ele>76</ele>
        <time>2021-07-04T06:30:56Z</time>
      </trkpt>
      <trkpt lat="47.45114" lon="-0.60899">
        <ele>76.2</ele>
        <time>2021-07-04T06:30:58Z</time>
      </trkpt>
      <trkpt lat="47.45111" lon="-0.60894">
        <ele>76.4</ele>
        <time>2021-07-04T06:30:59Z</time>
      </trkpt>
      <trkpt lat="47.45108" lon="-0.60889">
        <ele>76.4</ele>
        <time>2021-07-04T06:31:00Z</time>
      </trkpt>
      <trkpt lat="47.45103" lon="-0.6088">
        <ele>76.6</ele>
        <time>2021-07-04T06:31:02Z</time>
      </trkpt>
      <trkpt lat="47.45098" lon="-0.6087">
        <ele>76.8</ele>
        <time>2021-07-04T06:31:04Z</time>
      </trkpt>
      <trkpt lat="47.45092" lon="-0.60861">
        <ele>76.8</ele>
        <time>2021-07-04T06:31:06Z</time>
      </trkpt>
      <trkpt lat="47.45086" lon="-0.60854">
        <ele>76.4</ele>
        <time>2021-07-04T06:31:08Z</time>
      </trkpt>
      <trkpt lat="47.45083" lon="-0.60851">
        <ele>76.4</ele>
        <time>2021-07-04T06:31:09Z</time>
      </trkpt>
      <trkpt lat="47.45078" lon="-0.6085">
        <ele>76.4</ele>
        <time>2021-07-04T06:31:10Z</time>
      </trkpt>
      <trkpt lat="47.4507" lon="-0.60849">
        <ele>76</ele>
        <time>2021-07-04T06:31:12Z</time>
      </trkpt>
      <trkpt lat="47.45065" lon="-0.60852">
        <ele>75.2</ele>
        <time>2021-07-04T06:31:13Z</time>
      </trkpt>
      <trkpt lat="47.45061" lon="-0.60856">
        <ele>75</ele>
        <time>2021-07-04T06:31:14Z</time>
      </trkpt>
      <trkpt lat="47.45056" lon="-0.60869">
        <ele>74.6</ele>
        <time>2021-07-04T06:31:16Z</time>
      </trkpt>
      <trkpt lat="47.45053" lon="-0.60876">
        <ele>73.8</ele>
        <time>2021-07-04T06:31:17Z</time>
      </trkpt>
      <trkpt lat="47.4505" lon="-0.60884">
        <ele>73.2</ele>
        <time>2021-07-04T06:31:18Z</time>
      </trkpt>
      <trkpt lat="47.45046" lon="-0.60892">
        <ele>72.2</ele>
        <time>2021-07-04T06:31:19Z</time>
      </trkpt>
      <trkpt lat="47.45041" lon="-0.60899">
        <ele>72</ele>
        <time>2021-07-04T06:31:20Z</time>
      </trkpt>
      <trkpt lat="47.45036" lon="-0.60905">
        <ele>71.8</ele>
        <time>2021-07-04T06:31:21Z</time>
      </trkpt>
      <trkpt lat="47.4503" lon="-0.60911">
        <ele>71.6</ele>
        <time>2021-07-04T06:31:22Z</time>
      </trkpt>
      <trkpt lat="47.45024" lon="-0.60917">
        <ele>71</ele>
        <time>2021-07-04T06:31:23Z</time>
      </trkpt>
      <trkpt lat="47.45017" lon="-0.60923">
        <ele>70.6</ele>
        <time>2021-07-04T06:31:24Z</time>
      </trkpt>
      <trkpt lat="47.45011" lon="-0.60929">
        <ele>70</ele>
        <time>2021-07-04T06:31:25Z</time>
      </trkpt>
      <trkpt lat="47.45004" lon="-0.60935">
        <ele>69.2</ele>
        <time>2021-07-04T06:31:26Z</time>
      </trkpt>
      <trkpt lat="47.44997" lon="-0.60942">
        <ele>68.2</ele>
        <time>2021-07-04T06:31:27Z</time>
      </trkpt>
      <trkpt lat="47.44991" lon="-0.60949">
        <ele>67.4</ele>
        <time>2021-07-04T06:31:28Z</time>
      </trkpt>
      <trkpt lat="47.44985" lon="-0.60956">
        <ele>66.8</ele>
        <time>2021-07-04T06:31:29Z</time>
      </trkpt>
      <trkpt lat="47.44979" lon="-0.60962">
        <ele>66.4</ele>
        <time>2021-07-04T06:31:30Z</time>
      </trkpt>
      <trkpt lat="47.44972" lon="-0.60968">
        <ele>65.8</ele>
        <time>2021-07-04T06:31:31Z</time>
      </trkpt>
      <trkpt lat="47.44964" lon="-0.60972">
        <ele>65.8</ele>
        <time>2021-07-04T06:31:32Z</time>
      </trkpt>
      <trkpt lat="47.44949" lon="-0.60976">
        <ele>65.8</ele>
        <time>2021-07-04T06:31:34Z</time>
      </trkpt>
      <trkpt lat="47.44942" lon="-0.60978">
        <ele>66</ele>
        <time>2021-07-04T06:31:35Z</time>
      </trkpt>
      <trkpt lat="47.44935" lon="-0.6098">
        <ele>65.8</ele>
        <time>2021-07-04T06:31:36Z</time>
      </trkpt>
      <trkpt lat="47.44927" lon="-0.60983">
        <ele>65.6</ele>
        <time>2021-07-04T06:31:37Z</time>
      </trkpt>
      <trkpt lat="47.44921" lon="-0.60988">
        <ele>65.4</ele>
        <time>2021-07-04T06:31:38Z</time>
      </trkpt>
      <trkpt lat="47.44914" lon="-0.60993">
        <ele>64.8</ele>
        <time>2021-07-04T06:31:39Z</time>
      </trkpt>
      <trkpt lat="47.44908" lon="-0.60998">
        <ele>64.6</ele>
        <time>2021-07-04T06:31:40Z</time>
      </trkpt>
      <trkpt lat="47.44896" lon="-0.61009">
        <ele>64</ele>
        <time>2021-07-04T06:31:42Z</time>
      </trkpt>
      <trkpt lat="47.44883" lon="-0.61019">
        <ele>63.8</ele>
        <time>2021-07-04T06:31:44Z</time>
      </trkpt>
      <trkpt lat="47.44878" lon="-0.61024">
        <ele>63.4</ele>
        <time>2021-07-04T06:31:45Z</time>
      </trkpt>
      <trkpt lat="47.44872" lon="-0.61029">
        <ele>63.4</ele>
        <time>2021-07-04T06:31:46Z</time>
      </trkpt>
      <trkpt lat="47.44861" lon="-0.6104">
        <ele>63.2</ele>
        <time>2021-07-04T06:31:48Z</time>
      </trkpt>
      <trkpt lat="47.44849" lon="-0.61048">
        <ele>63.4</ele>
        <time>2021-07-04T06:31:50Z</time>
      </trkpt>
      <trkpt lat="47.44837" lon="-0.61053">
        <ele>63.4</ele>
        <time>2021-07-04T06:31:52Z</time>
      </trkpt>
      <trkpt lat="47.44824" lon="-0.61057">
        <ele>63</ele>
        <time>2021-07-04T06:31:54Z</time>
      </trkpt>
      <trkpt lat="47.44819" lon="-0.61057">
        <ele>62.8</ele>
        <time>2021-07-04T06:31:55Z</time>
      </trkpt>
      <trkpt lat="47.44814" lon="-0.61057">
        <ele>62.8</ele>
        <time>2021-07-04T06:31:56Z</time>
      </trkpt>
      <trkpt lat="47.44803" lon="-0.61061">
        <ele>63.2</ele>
        <time>2021-07-04T06:31:58Z</time>
      </trkpt>
      <trkpt lat="47.44797" lon="-0.61065">
        <ele>62.8</ele>
        <time>2021-07-04T06:31:59Z</time>
      </trkpt>
      <trkpt lat="47.44792" lon="-0.61068">
        <ele>62.6</ele>
        <time>2021-07-04T06:32:00Z</time>
      </trkpt>
      <trkpt lat="47.44788" lon="-0.61072">
        <ele>62.4</ele>
        <time>2021-07-04T06:32:01Z</time>
      </trkpt>
      <trkpt lat="47.44782" lon="-0.61075">
        <ele>62.2</ele>
        <time>2021-07-04T06:32:02Z</time>
      </trkpt>
      <trkpt lat="47.44773" lon="-0.61078">
        <ele>61.6</ele>
        <time>2021-07-04T06:32:04Z</time>
      </trkpt>
      <trkpt lat="47.44768" lon="-0.61079">
        <ele>61.2</ele>
        <time>2021-07-04T06:32:05Z</time>
      </trkpt>
      <trkpt lat="47.44766" lon="-0.61078">
        <ele>61.2</ele>
        <time>2021-07-04T06:32:06Z</time>
      </trkpt>
      <trkpt lat="47.44764" lon="-0.61077">
        <ele>60.6</ele>
        <time>2021-07-04T06:32:07Z</time>
      </trkpt>
      <trkpt lat="47.44761" lon="-0.61077">
        <ele>60.4</ele>
        <time>2021-07-04T06:32:08Z</time>
      </trkpt>
      <trkpt lat="47.44757" lon="-0.61078">
        <ele>60.2</ele>
        <time>2021-07-04T06:32:09Z</time>
      </trkpt>
      <trkpt lat="47.44752" lon="-0.61079">
        <ele>60.2</ele>
        <time>2021-07-04T06:32:10Z</time>
      </trkpt>
      <trkpt lat="47.44741" lon="-0.6108">
        <ele>59.6</ele>
        <time>2021-07-04T06:32:12Z</time>
      </trkpt>
      <trkpt lat="47.44735" lon="-0.61083">
        <ele>59</ele>
        <time>2021-07-04T06:32:13Z</time>
      </trkpt>
      <trkpt lat="47.44727" lon="-0.61087">
        <ele>58.6</ele>
        <time>2021-07-04T06:32:14Z</time>
      </trkpt>
      <trkpt lat="47.44721" lon="-0.6109">
        <ele>58.2</ele>
        <time>2021-07-04T06:32:15Z</time>
      </trkpt>
      <trkpt lat="47.44714" lon="-0.61094">
        <ele>58.2</ele>
        <time>2021-07-04T06:32:16Z</time>
      </trkpt>
      <trkpt lat="47.44707" lon="-0.61097">
        <ele>57.8</ele>
        <time>2021-07-04T06:32:17Z</time>
      </trkpt>
      <trkpt lat="47.44702" lon="-0.611">
        <ele>57.8</ele>
        <time>2021-07-04T06:32:18Z</time>
      </trkpt>
      <trkpt lat="47.44695" lon="-0.61105">
        <ele>58</ele>
        <time>2021-07-04T06:32:20Z</time>
      </trkpt>
      <trkpt lat="47.44694" lon="-0.61108">
        <ele>58.4</ele>
        <time>2021-07-04T06:32:21Z</time>
      </trkpt>
      <trkpt lat="47.44694" lon="-0.61111">
        <ele>58.4</ele>
        <time>2021-07-04T06:32:22Z</time>
      </trkpt>
      <trkpt lat="47.44695" lon="-0.61114">
        <ele>58.4</ele>
        <time>2021-07-04T06:32:23Z</time>
      </trkpt>
      <trkpt lat="47.44696" lon="-0.61118">
        <ele>58.2</ele>
        <time>2021-07-04T06:32:24Z</time>
      </trkpt>
      <trkpt lat="47.44701" lon="-0.61126">
        <ele>58.2</ele>
        <time>2021-07-04T06:32:26Z</time>
      </trkpt>
      <trkpt lat="47.44704" lon="-0.61129">
        <ele>58.4</ele>
        <time>2021-07-04T06:32:27Z</time>
      </trkpt>
      <trkpt lat="47.44707" lon="-0.61133">
        <ele>58.4</ele>
        <time>2021-07-04T06:32:28Z</time>
      </trkpt>
      <trkpt lat="47.44714" lon="-0.6114">
        <ele>59</ele>
        <time>2021-07-04T06:32:30Z</time>
      </trkpt>
      <trkpt lat="47.44718" lon="-0.61142">
        <ele>59.2</ele>
        <time>2021-07-04T06:32:31Z</time>
      </trkpt>
      <trkpt lat="47.44721" lon="-0.61145">
        <ele>59.2</ele>
        <time>2021-07-04T06:32:32Z</time>
      </trkpt>
      <trkpt lat="47.44724" lon="-0.61146">
        <ele>59.2</ele>
        <time>2021-07-04T06:32:33Z</time>
      </trkpt>
      <trkpt lat="47.44728" lon="-0.61148">
        <ele>59.6</ele>
        <time>2021-07-04T06:32:34Z</time>
      </trkpt>
      <trkpt lat="47.44735" lon="-0.61152">
        <ele>60</ele>
        <time>2021-07-04T06:32:36Z</time>
      </trkpt>
      <trkpt lat="47.44744" lon="-0.61157">
        <ele>59.8</ele>
        <time>2021-07-04T06:32:38Z</time>
      </trkpt>
      <trkpt lat="47.44752" lon="-0.61161">
        <ele>60.2</ele>
        <time>2021-07-04T06:32:40Z</time>
      </trkpt>
      <trkpt lat="47.44759" lon="-0.61164">
        <ele>61</ele>
        <time>2021-07-04T06:32:42Z</time>
      </trkpt>
      <trkpt lat="47.44763" lon="-0.61166">
        <ele>61.2</ele>
        <time>2021-07-04T06:32:43Z</time>
      </trkpt>
      <trkpt lat="47.44767" lon="-0.61169">
        <ele>61.2</ele>
        <time>2021-07-04T06:32:44Z</time>
      </trkpt>
      <trkpt lat="47.44775" lon="-0.61173">
        <ele>61.8</ele>
        <time>2021-07-04T06:32:46Z</time>
      </trkpt>
      <trkpt lat="47.44782" lon="-0.61178">
        <ele>62.4</ele>
        <time>2021-07-04T06:32:48Z</time>
      </trkpt>
      <trkpt lat="47.4479" lon="-0.61184">
        <ele>62.6</ele>
        <time>2021-07-04T06:32:50Z</time>
      </trkpt>
      <trkpt lat="47.44796" lon="-0.6119">
        <ele>62.8</ele>
        <time>2021-07-04T06:32:52Z</time>
      </trkpt>
      <trkpt lat="47.44799" lon="-0.61194">
        <ele>63</ele>
        <time>2021-07-04T06:32:53Z</time>
      </trkpt>
      <trkpt lat="47.44802" lon="-0.61198">
        <ele>63</ele>
        <time>2021-07-04T06:32:54Z</time>
      </trkpt>
      <trkpt lat="47.44805" lon="-0.61202">
        <ele>63.4</ele>
        <time>2021-07-04T06:32:55Z</time>
      </trkpt>
      <trkpt lat="47.44809" lon="-0.61206">
        <ele>63.4</ele>
        <time>2021-07-04T06:32:56Z</time>
      </trkpt>
      <trkpt lat="47.44812" lon="-0.6121">
        <ele>63.8</ele>
        <time>2021-07-04T06:32:57Z</time>
      </trkpt>
      <trkpt lat="47.44817" lon="-0.61214">
        <ele>63.8</ele>
        <time>2021-07-04T06:32:58Z</time>
      </trkpt>
      <trkpt lat="47.44825" lon="-0.61222">
        <ele>63.8</ele>
        <time>2021-07-04T06:33:00Z</time>
      </trkpt>
      <trkpt lat="47.44833" lon="-0.61228">
        <ele>64</ele>
        <time>2021-07-04T06:33:02Z</time>
      </trkpt>
      <trkpt lat="47.44841" lon="-0.61228">
        <ele>64.4</ele>
        <time>2021-07-04T06:33:04Z</time>
      </trkpt>
      <trkpt lat="47.44843" lon="-0.61226">
        <ele>64.6</ele>
        <time>2021-07-04T06:33:05Z</time>
      </trkpt>
      <trkpt lat="47.44846" lon="-0.61224">
        <ele>64.4</ele>
        <time>2021-07-04T06:33:06Z</time>
      </trkpt>
      <trkpt lat="47.44851" lon="-0.6122">
        <ele>64.6</ele>
        <time>2021-07-04T06:33:08Z</time>
      </trkpt>
      <trkpt lat="47.44855" lon="-0.61219">
        <ele>65</ele>
        <time>2021-07-04T06:33:10Z</time>
      </trkpt>
      <trkpt lat="47.44858" lon="-0.61219">
        <ele>64.8</ele>
        <time>2021-07-04T06:33:11Z</time>
      </trkpt>
      <trkpt lat="47.44861" lon="-0.61221">
        <ele>65</ele>
        <time>2021-07-04T06:33:12Z</time>
      </trkpt>
      <trkpt lat="47.44864" lon="-0.61223">
        <ele>64.6</ele>
        <time>2021-07-04T06:33:13Z</time>
      </trkpt>
      <trkpt lat="47.44869" lon="-0.61225">
        <ele>64.8</ele>
        <time>2021-07-04T06:33:14Z</time>
      </trkpt>
      <trkpt lat="47.44877" lon="-0.61233">
        <ele>64.6</ele>
        <time>2021-07-04T06:33:16Z</time>
      </trkpt>
      <trkpt lat="47.4488" lon="-0.61237">
        <ele>64.2</ele>
        <time>2021-07-04T06:33:17Z</time>
      </trkpt>
      <trkpt lat="47.44885" lon="-0.61242">
        <ele>64.4</ele>
        <time>2021-07-04T06:33:18Z</time>
      </trkpt>
      <trkpt lat="47.44895" lon="-0.61253">
        <ele>64.8</ele>
        <time>2021-07-04T06:33:20Z</time>
      </trkpt>
      <trkpt lat="47.44904" lon="-0.61267">
        <ele>64.6</ele>
        <time>2021-07-04T06:33:22Z</time>
      </trkpt>
      <trkpt lat="47.44912" lon="-0.61281">
        <ele>64.8</ele>
        <time>2021-07-04T06:33:24Z</time>
      </trkpt>
      <trkpt lat="47.44918" lon="-0.61295">
        <ele>65.2</ele>
        <time>2021-07-04T06:33:26Z</time>
      </trkpt>
      <trkpt lat="47.44921" lon="-0.61302">
        <ele>65.4</ele>
        <time>2021-07-04T06:33:27Z</time>
      </trkpt>
      <trkpt lat="47.44924" lon="-0.61309">
        <ele>66</ele>
        <time>2021-07-04T06:33:28Z</time>
      </trkpt>
      <trkpt lat="47.44931" lon="-0.61322">
        <ele>66.2</ele>
        <time>2021-07-04T06:33:30Z</time>
      </trkpt>
      <trkpt lat="47.44937" lon="-0.61334">
        <ele>66.2</ele>
        <time>2021-07-04T06:33:32Z</time>
      </trkpt>
      <trkpt lat="47.44943" lon="-0.61346">
        <ele>66</ele>
        <time>2021-07-04T06:33:34Z</time>
      </trkpt>
      <trkpt lat="47.44944" lon="-0.61357">
        <ele>66</ele>
        <time>2021-07-04T06:33:36Z</time>
      </trkpt>
      <trkpt lat="47.44943" lon="-0.61363">
        <ele>65.8</ele>
        <time>2021-07-04T06:33:37Z</time>
      </trkpt>
      <trkpt lat="47.4494" lon="-0.6137">
        <ele>65.6</ele>
        <time>2021-07-04T06:33:38Z</time>
      </trkpt>
      <trkpt lat="47.44936" lon="-0.61386">
        <ele>65</ele>
        <time>2021-07-04T06:33:40Z</time>
      </trkpt>
      <trkpt lat="47.44933" lon="-0.61395">
        <ele>65</ele>
        <time>2021-07-04T06:33:41Z</time>
      </trkpt>
      <trkpt lat="47.44931" lon="-0.61403">
        <ele>64.8</ele>
        <time>2021-07-04T06:33:42Z</time>
      </trkpt>
      <trkpt lat="47.44926" lon="-0.61419">
        <ele>64.6</ele>
        <time>2021-07-04T06:33:44Z</time>
      </trkpt>
      <trkpt lat="47.44922" lon="-0.61434">
        <ele>64.4</ele>
        <time>2021-07-04T06:33:46Z</time>
      </trkpt>
      <trkpt lat="47.44917" lon="-0.61451">
        <ele>64.4</ele>
        <time>2021-07-04T06:33:48Z</time>
      </trkpt>
      <trkpt lat="47.44914" lon="-0.61459">
        <ele>64.2</ele>
        <time>2021-07-04T06:33:49Z</time>
      </trkpt>
      <trkpt lat="47.44912" lon="-0.61468">
        <ele>64.2</ele>
        <time>2021-07-04T06:33:50Z</time>
      </trkpt>
      <trkpt lat="47.44907" lon="-0.61486">
        <ele>64.2</ele>
        <time>2021-07-04T06:33:52Z</time>
      </trkpt>
      <trkpt lat="47.44903" lon="-0.61503">
        <ele>64</ele>
        <time>2021-07-04T06:33:54Z</time>
      </trkpt>
      <trkpt lat="47.44897" lon="-0.61519">
        <ele>63.4</ele>
        <time>2021-07-04T06:33:56Z</time>
      </trkpt>
      <trkpt lat="47.44888" lon="-0.61531">
        <ele>63</ele>
        <time>2021-07-04T06:33:58Z</time>
      </trkpt>
      <trkpt lat="47.44883" lon="-0.61535">
        <ele>62.8</ele>
        <time>2021-07-04T06:33:59Z</time>
      </trkpt>
      <trkpt lat="47.4488" lon="-0.61538">
        <ele>62.6</ele>
        <time>2021-07-04T06:34:00Z</time>
      </trkpt>
      <trkpt lat="47.44875" lon="-0.61549">
        <ele>62.6</ele>
        <time>2021-07-04T06:34:02Z</time>
      </trkpt>
      <trkpt lat="47.44872" lon="-0.61555">
        <ele>62.6</ele>
        <time>2021-07-04T06:34:03Z</time>
      </trkpt>
      <trkpt lat="47.44868" lon="-0.61561">
        <ele>62.6</ele>
        <time>2021-07-04T06:34:04Z</time>
      </trkpt>
      <trkpt lat="47.44864" lon="-0.61567">
        <ele>62.2</ele>
        <time>2021-07-04T06:34:05Z</time>
      </trkpt>
      <trkpt lat="47.44859" lon="-0.61573">
        <ele>62</ele>
        <time>2021-07-04T06:34:06Z</time>
      </trkpt>
      <trkpt lat="47.44854" lon="-0.61577">
        <ele>61</ele>
        <time>2021-07-04T06:34:07Z</time>
      </trkpt>
      <trkpt lat="47.44849" lon="-0.61579">
        <ele>60.2</ele>
        <time>2021-07-04T06:34:08Z</time>
      </trkpt>
      <trkpt lat="47.44843" lon="-0.61581">
        <ele>59.8</ele>
        <time>2021-07-04T06:34:09Z</time>
      </trkpt>
      <trkpt lat="47.44837" lon="-0.61583">
        <ele>59.8</ele>
        <time>2021-07-04T06:34:10Z</time>
      </trkpt>
      <trkpt lat="47.44823" lon="-0.61588">
        <ele>58.8</ele>
        <time>2021-07-04T06:34:12Z</time>
      </trkpt>
      <trkpt lat="47.44808" lon="-0.6159">
        <ele>57.2</ele>
        <time>2021-07-04T06:34:14Z</time>
      </trkpt>
      <trkpt lat="47.44792" lon="-0.61592">
        <ele>56.2</ele>
        <time>2021-07-04T06:34:16Z</time>
      </trkpt>
      <trkpt lat="47.44776" lon="-0.61593">
        <ele>55.2</ele>
        <time>2021-07-04T06:34:18Z</time>
      </trkpt>
      <trkpt lat="47.44768" lon="-0.61594">
        <ele>55</ele>
        <time>2021-07-04T06:34:19Z</time>
      </trkpt>
      <trkpt lat="47.4476" lon="-0.61594">
        <ele>55</ele>
        <time>2021-07-04T06:34:20Z</time>
      </trkpt>
      <trkpt lat="47.44753" lon="-0.61594">
        <ele>55</ele>
        <time>2021-07-04T06:34:21Z</time>
      </trkpt>
      <trkpt lat="47.44746" lon="-0.61594">
        <ele>55.2</ele>
        <time>2021-07-04T06:34:22Z</time>
      </trkpt>
      <trkpt lat="47.44732" lon="-0.61594">
        <ele>55.8</ele>
        <time>2021-07-04T06:34:24Z</time>
      </trkpt>
      <trkpt lat="47.4472" lon="-0.61595">
        <ele>55.8</ele>
        <time>2021-07-04T06:34:26Z</time>
      </trkpt>
      <trkpt lat="47.44708" lon="-0.61597">
        <ele>55.8</ele>
        <time>2021-07-04T06:34:28Z</time>
      </trkpt>
      <trkpt lat="47.44695" lon="-0.61599">
        <ele>56</ele>
        <time>2021-07-04T06:34:30Z</time>
      </trkpt>
      <trkpt lat="47.44683" lon="-0.616">
        <ele>55.8</ele>
        <time>2021-07-04T06:34:32Z</time>
      </trkpt>
      <trkpt lat="47.44671" lon="-0.616">
        <ele>55.8</ele>
        <time>2021-07-04T06:34:34Z</time>
      </trkpt>
      <trkpt lat="47.4466" lon="-0.616">
        <ele>55.8</ele>
        <time>2021-07-04T06:34:36Z</time>
      </trkpt>
      <trkpt lat="47.44649" lon="-0.616">
        <ele>55.8</ele>
        <time>2021-07-04T06:34:38Z</time>
      </trkpt>
      <trkpt lat="47.44645" lon="-0.616">
        <ele>55.8</ele>
        <time>2021-07-04T06:34:39Z</time>
      </trkpt>
      <trkpt lat="47.44641" lon="-0.61602">
        <ele>55.8</ele>
        <time>2021-07-04T06:34:40Z</time>
      </trkpt>
      <trkpt lat="47.44634" lon="-0.61609">
        <ele>56.2</ele>
        <time>2021-07-04T06:34:42Z</time>
      </trkpt>
      <trkpt lat="47.44629" lon="-0.61619">
        <ele>56.4</ele>
        <time>2021-07-04T06:34:44Z</time>
      </trkpt>
      <trkpt lat="47.44628" lon="-0.6163">
        <ele>56.8</ele>
        <time>2021-07-04T06:34:46Z</time>
      </trkpt>
      <trkpt lat="47.44626" lon="-0.61642">
        <ele>57</ele>
        <time>2021-07-04T06:34:48Z</time>
      </trkpt>
      <trkpt lat="47.44621" lon="-0.61654">
        <ele>57.4</ele>
        <time>2021-07-04T06:34:50Z</time>
      </trkpt>
      <trkpt lat="47.44615" lon="-0.61661">
        <ele>57.8</ele>
        <time>2021-07-04T06:34:52Z</time>
      </trkpt>
      <trkpt lat="47.44612" lon="-0.61664">
        <ele>57.8</ele>
        <time>2021-07-04T06:34:53Z</time>
      </trkpt>
      <trkpt lat="47.44608" lon="-0.61666">
        <ele>58.4</ele>
        <time>2021-07-04T06:34:54Z</time>
      </trkpt>
      <trkpt lat="47.44601" lon="-0.61669">
        <ele>58.6</ele>
        <time>2021-07-04T06:34:56Z</time>
      </trkpt>
      <trkpt lat="47.44599" lon="-0.61667">
        <ele>58.6</ele>
        <time>2021-07-04T06:34:57Z</time>
      </trkpt>
      <trkpt lat="47.44596" lon="-0.61666">
        <ele>58.4</ele>
        <time>2021-07-04T06:34:58Z</time>
      </trkpt>
      <trkpt lat="47.44588" lon="-0.61667">
        <ele>58</ele>
        <time>2021-07-04T06:35:00Z</time>
      </trkpt>
      <trkpt lat="47.44584" lon="-0.61671">
        <ele>57.8</ele>
        <time>2021-07-04T06:35:01Z</time>
      </trkpt>
      <trkpt lat="47.4458" lon="-0.61675">
        <ele>57.8</ele>
        <time>2021-07-04T06:35:02Z</time>
      </trkpt>
      <trkpt lat="47.44573" lon="-0.61683">
        <ele>57.8</ele>
        <time>2021-07-04T06:35:04Z</time>
      </trkpt>
      <trkpt lat="47.44566" lon="-0.61689">
        <ele>58</ele>
        <time>2021-07-04T06:35:06Z</time>
      </trkpt>
      <trkpt lat="47.44562" lon="-0.61688">
        <ele>58</ele>
        <time>2021-07-04T06:35:07Z</time>
      </trkpt>
      <trkpt lat="47.44558" lon="-0.61685">
        <ele>58</ele>
        <time>2021-07-04T06:35:08Z</time>
      </trkpt>
      <trkpt lat="47.4455" lon="-0.61676">
        <ele>57.4</ele>
        <time>2021-07-04T06:35:10Z</time>
      </trkpt>
      <trkpt lat="47.44545" lon="-0.61672">
        <ele>57.2</ele>
        <time>2021-07-04T06:35:11Z</time>
      </trkpt>
      <trkpt lat="47.44541" lon="-0.61667">
        <ele>57</ele>
        <time>2021-07-04T06:35:12Z</time>
      </trkpt>
      <trkpt lat="47.44532" lon="-0.61661">
        <ele>56.6</ele>
        <time>2021-07-04T06:35:14Z</time>
      </trkpt>
      <trkpt lat="47.44528" lon="-0.61661">
        <ele>56.6</ele>
        <time>2021-07-04T06:35:15Z</time>
      </trkpt>
      <trkpt lat="47.44523" lon="-0.61664">
        <ele>56.6</ele>
        <time>2021-07-04T06:35:16Z</time>
      </trkpt>
      <trkpt lat="47.44514" lon="-0.61672">
        <ele>56.2</ele>
        <time>2021-07-04T06:35:18Z</time>
      </trkpt>
      <trkpt lat="47.44509" lon="-0.61675">
        <ele>56</ele>
        <time>2021-07-04T06:35:19Z</time>
      </trkpt>
      <trkpt lat="47.44504" lon="-0.61675">
        <ele>56</ele>
        <time>2021-07-04T06:35:20Z</time>
      </trkpt>
      <trkpt lat="47.44499" lon="-0.61672">
        <ele>55.8</ele>
        <time>2021-07-04T06:35:21Z</time>
      </trkpt>
      <trkpt lat="47.44495" lon="-0.61667">
        <ele>55.6</ele>
        <time>2021-07-04T06:35:22Z</time>
      </trkpt>
      <trkpt lat="47.44491" lon="-0.61663">
        <ele>55.2</ele>
        <time>2021-07-04T06:35:23Z</time>
      </trkpt>
      <trkpt lat="47.44487" lon="-0.61658">
        <ele>55.2</ele>
        <time>2021-07-04T06:35:24Z</time>
      </trkpt>
      <trkpt lat="47.44485" lon="-0.61657">
        <ele>55.4</ele>
        <time>2021-07-04T06:35:25Z</time>
      </trkpt>
      <trkpt lat="47.44482" lon="-0.61658">
        <ele>55.8</ele>
        <time>2021-07-04T06:35:26Z</time>
      </trkpt>
      <trkpt lat="47.44477" lon="-0.61662">
        <ele>56.6</ele>
        <time>2021-07-04T06:35:28Z</time>
      </trkpt>
      <trkpt lat="47.44473" lon="-0.61668">
        <ele>57</ele>
        <time>2021-07-04T06:35:30Z</time>
      </trkpt>
      <trkpt lat="47.44468" lon="-0.61676">
        <ele>56.4</ele>
        <time>2021-07-04T06:35:32Z</time>
      </trkpt>
      <trkpt lat="47.44466" lon="-0.6168">
        <ele>56.4</ele>
        <time>2021-07-04T06:35:33Z</time>
      </trkpt>
      <trkpt lat="47.44462" lon="-0.61684">
        <ele>56.6</ele>
        <time>2021-07-04T06:35:34Z</time>
      </trkpt>
      <trkpt lat="47.44456" lon="-0.6169">
        <ele>56.6</ele>
        <time>2021-07-04T06:35:36Z</time>
      </trkpt>
      <trkpt lat="47.4445" lon="-0.61697">
        <ele>56.8</ele>
        <time>2021-07-04T06:35:38Z</time>
      </trkpt>
      <trkpt lat="47.44447" lon="-0.61701">
        <ele>57</ele>
        <time>2021-07-04T06:35:39Z</time>
      </trkpt>
      <trkpt lat="47.44445" lon="-0.61705">
        <ele>57.2</ele>
        <time>2021-07-04T06:35:40Z</time>
      </trkpt>
      <trkpt lat="47.4444" lon="-0.61715">
        <ele>57.4</ele>
        <time>2021-07-04T06:35:42Z</time>
      </trkpt>
      <trkpt lat="47.44438" lon="-0.61726">
        <ele>57.4</ele>
        <time>2021-07-04T06:35:44Z</time>
      </trkpt>
      <trkpt lat="47.44435" lon="-0.61735">
        <ele>58.2</ele>
        <time>2021-07-04T06:35:46Z</time>
      </trkpt>
      <trkpt lat="47.44434" lon="-0.6174">
        <ele>58.4</ele>
        <time>2021-07-04T06:35:47Z</time>
      </trkpt>
      <trkpt lat="47.44431" lon="-0.61745">
        <ele>58.6</ele>
        <time>2021-07-04T06:35:48Z</time>
      </trkpt>
      <trkpt lat="47.44428" lon="-0.61747">
        <ele>58.6</ele>
        <time>2021-07-04T06:35:49Z</time>
      </trkpt>
      <trkpt lat="47.44424" lon="-0.61747">
        <ele>58.6</ele>
        <time>2021-07-04T06:35:50Z</time>
      </trkpt>
      <trkpt lat="47.44415" lon="-0.61746">
        <ele>59</ele>
        <time>2021-07-04T06:35:52Z</time>
      </trkpt>
      <trkpt lat="47.44406" lon="-0.61746">
        <ele>59.4</ele>
        <time>2021-07-04T06:35:54Z</time>
      </trkpt>
      <trkpt lat="47.44399" lon="-0.61746">
        <ele>59.6</ele>
        <time>2021-07-04T06:35:56Z</time>
      </trkpt>
      <trkpt lat="47.44396" lon="-0.6175">
        <ele>59.6</ele>
        <time>2021-07-04T06:35:57Z</time>
      </trkpt>
      <trkpt lat="47.44395" lon="-0.61754">
        <ele>59.8</ele>
        <time>2021-07-04T06:35:58Z</time>
      </trkpt>
      <trkpt lat="47.44395" lon="-0.61766">
        <ele>60.2</ele>
        <time>2021-07-04T06:36:00Z</time>
      </trkpt>
      <trkpt lat="47.44391" lon="-0.61775">
        <ele>60.6</ele>
        <time>2021-07-04T06:36:02Z</time>
      </trkpt>
      <trkpt lat="47.44386" lon="-0.61783">
        <ele>60.8</ele>
        <time>2021-07-04T06:36:04Z</time>
      </trkpt>
      <trkpt lat="47.44383" lon="-0.61786">
        <ele>60.8</ele>
        <time>2021-07-04T06:36:05Z</time>
      </trkpt>
      <trkpt lat="47.4438" lon="-0.6179">
        <ele>61.2</ele>
        <time>2021-07-04T06:36:06Z</time>
      </trkpt>
      <trkpt lat="47.44376" lon="-0.61792">
        <ele>62</ele>
        <time>2021-07-04T06:36:07Z</time>
      </trkpt>
      <trkpt lat="47.44373" lon="-0.61795">
        <ele>62.2</ele>
        <time>2021-07-04T06:36:08Z</time>
      </trkpt>
      <trkpt lat="47.44367" lon="-0.61801">
        <ele>62.6</ele>
        <time>2021-07-04T06:36:10Z</time>
      </trkpt>
      <trkpt lat="47.44364" lon="-0.61803">
        <ele>63</ele>
        <time>2021-07-04T06:36:11Z</time>
      </trkpt>
      <trkpt lat="47.44361" lon="-0.61806">
        <ele>63.2</ele>
        <time>2021-07-04T06:36:12Z</time>
      </trkpt>
      <trkpt lat="47.44355" lon="-0.61811">
        <ele>63.8</ele>
        <time>2021-07-04T06:36:14Z</time>
      </trkpt>
      <trkpt lat="47.44349" lon="-0.61815">
        <ele>64.2</ele>
        <time>2021-07-04T06:36:16Z</time>
      </trkpt>
      <trkpt lat="47.44346" lon="-0.61814">
        <ele>64.8</ele>
        <time>2021-07-04T06:36:17Z</time>
      </trkpt>
      <trkpt lat="47.44344" lon="-0.61813">
        <ele>65.2</ele>
        <time>2021-07-04T06:36:18Z</time>
      </trkpt>
      <trkpt lat="47.44342" lon="-0.6181">
        <ele>66</ele>
        <time>2021-07-04T06:36:19Z</time>
      </trkpt>
      <trkpt lat="47.44341" lon="-0.61806">
        <ele>66.2</ele>
        <time>2021-07-04T06:36:20Z</time>
      </trkpt>
      <trkpt lat="47.44336" lon="-0.61798">
        <ele>66.4</ele>
        <time>2021-07-04T06:36:22Z</time>
      </trkpt>
      <trkpt lat="47.44331" lon="-0.6179">
        <ele>66.6</ele>
        <time>2021-07-04T06:36:24Z</time>
      </trkpt>
      <trkpt lat="47.44328" lon="-0.61786">
        <ele>66.8</ele>
        <time>2021-07-04T06:36:25Z</time>
      </trkpt>
      <trkpt lat="47.44325" lon="-0.61783">
        <ele>66.8</ele>
        <time>2021-07-04T06:36:26Z</time>
      </trkpt>
      <trkpt lat="47.44319" lon="-0.61777">
        <ele>66.8</ele>
        <time>2021-07-04T06:36:28Z</time>
      </trkpt>
      <trkpt lat="47.44315" lon="-0.61775">
        <ele>66.8</ele>
        <time>2021-07-04T06:36:29Z</time>
      </trkpt>
      <trkpt lat="47.44312" lon="-0.61771">
        <ele>66.6</ele>
        <time>2021-07-04T06:36:30Z</time>
      </trkpt>
      <trkpt lat="47.44305" lon="-0.61766">
        <ele>66.8</ele>
        <time>2021-07-04T06:36:32Z</time>
      </trkpt>
      <trkpt lat="47.44297" lon="-0.61761">
        <ele>66.8</ele>
        <time>2021-07-04T06:36:34Z</time>
      </trkpt>
      <trkpt lat="47.44289" lon="-0.61756">
        <ele>66.4</ele>
        <time>2021-07-04T06:36:36Z</time>
      </trkpt>
      <trkpt lat="47.44284" lon="-0.61755">
        <ele>66.2</ele>
        <time>2021-07-04T06:36:37Z</time>
      </trkpt>
      <trkpt lat="47.4428" lon="-0.61756">
        <ele>66.2</ele>
        <time>2021-07-04T06:36:38Z</time>
      </trkpt>
      <trkpt lat="47.44276" lon="-0.61757">
        <ele>66.2</ele>
        <time>2021-07-04T06:36:39Z</time>
      </trkpt>
      <trkpt lat="47.44271" lon="-0.61758">
        <ele>66.2</ele>
        <time>2021-07-04T06:36:40Z</time>
      </trkpt>
      <trkpt lat="47.44262" lon="-0.6176">
        <ele>66.2</ele>
        <time>2021-07-04T06:36:42Z</time>
      </trkpt>
      <trkpt lat="47.44252" lon="-0.61761">
        <ele>66.4</ele>
        <time>2021-07-04T06:36:44Z</time>
      </trkpt>
      <trkpt lat="47.44248" lon="-0.61763">
        <ele>66.4</ele>
        <time>2021-07-04T06:36:45Z</time>
      </trkpt>
      <trkpt lat="47.44243" lon="-0.61764">
        <ele>66.4</ele>
        <time>2021-07-04T06:36:46Z</time>
      </trkpt>
      <trkpt lat="47.44233" lon="-0.61767">
        <ele>66.2</ele>
        <time>2021-07-04T06:36:48Z</time>
      </trkpt>
      <trkpt lat="47.44223" lon="-0.6177">
        <ele>66.2</ele>
        <time>2021-07-04T06:36:50Z</time>
      </trkpt>
      <trkpt lat="47.44214" lon="-0.61773">
        <ele>66.4</ele>
        <time>2021-07-04T06:36:52Z</time>
      </trkpt>
      <trkpt lat="47.44209" lon="-0.61775">
        <ele>66.6</ele>
        <time>2021-07-04T06:36:53Z</time>
      </trkpt>
      <trkpt lat="47.44204" lon="-0.61777">
        <ele>66.8</ele>
        <time>2021-07-04T06:36:54Z</time>
      </trkpt>
      <trkpt lat="47.442" lon="-0.61779">
        <ele>67.2</ele>
        <time>2021-07-04T06:36:55Z</time>
      </trkpt>
      <trkpt lat="47.44195" lon="-0.6178">
        <ele>67.2</ele>
        <time>2021-07-04T06:36:56Z</time>
      </trkpt>
      <trkpt lat="47.44187" lon="-0.61783">
        <ele>67.6</ele>
        <time>2021-07-04T06:36:58Z</time>
      </trkpt>
      <trkpt lat="47.44183" lon="-0.61786">
        <ele>67.6</ele>
        <time>2021-07-04T06:36:59Z</time>
      </trkpt>
      <trkpt lat="47.44179" lon="-0.61791">
        <ele>67.6</ele>
        <time>2021-07-04T06:37:00Z</time>
      </trkpt>
      <trkpt lat="47.44171" lon="-0.61799">
        <ele>67.6</ele>
        <time>2021-07-04T06:37:02Z</time>
      </trkpt>
      <trkpt lat="47.44163" lon="-0.61809">
        <ele>67.4</ele>
        <time>2021-07-04T06:37:04Z</time>
      </trkpt>
      <trkpt lat="47.44154" lon="-0.61818">
        <ele>67.2</ele>
        <time>2021-07-04T06:37:06Z</time>
      </trkpt>
      <trkpt lat="47.44145" lon="-0.61828">
        <ele>67.4</ele>
        <time>2021-07-04T06:37:08Z</time>
      </trkpt>
      <trkpt lat="47.44136" lon="-0.61838">
        <ele>67.6</ele>
        <time>2021-07-04T06:37:10Z</time>
      </trkpt>
      <trkpt lat="47.44127" lon="-0.61848">
        <ele>67.4</ele>
        <time>2021-07-04T06:37:12Z</time>
      </trkpt>
      <trkpt lat="47.44123" lon="-0.61852">
        <ele>67.6</ele>
        <time>2021-07-04T06:37:13Z</time>
      </trkpt>
      <trkpt lat="47.44119" lon="-0.61857">
        <ele>67.8</ele>
        <time>2021-07-04T06:37:14Z</time>
      </trkpt>
      <trkpt lat="47.44111" lon="-0.61867">
        <ele>68.2</ele>
        <time>2021-07-04T06:37:16Z</time>
      </trkpt>
      <trkpt lat="47.44103" lon="-0.61877">
        <ele>68.6</ele>
        <time>2021-07-04T06:37:18Z</time>
      </trkpt>
      <trkpt lat="47.44094" lon="-0.61886">
        <ele>68.6</ele>
        <time>2021-07-04T06:37:20Z</time>
      </trkpt>
      <trkpt lat="47.44086" lon="-0.61896">
        <ele>69</ele>
        <time>2021-07-04T06:37:22Z</time>
      </trkpt>
      <trkpt lat="47.44082" lon="-0.619">
        <ele>69.2</ele>
        <time>2021-07-04T06:37:23Z</time>
      </trkpt>
      <trkpt lat="47.44078" lon="-0.61905">
        <ele>69.4</ele>
        <time>2021-07-04T06:37:24Z</time>
      </trkpt>
      <trkpt lat="47.44071" lon="-0.61915">
        <ele>69.6</ele>
        <time>2021-07-04T06:37:26Z</time>
      </trkpt>
      <trkpt lat="47.44065" lon="-0.61925">
        <ele>70.2</ele>
        <time>2021-07-04T06:37:28Z</time>
      </trkpt>
      <trkpt lat="47.44062" lon="-0.61929">
        <ele>70.4</ele>
        <time>2021-07-04T06:37:29Z</time>
      </trkpt>
      <trkpt lat="47.44059" lon="-0.61934">
        <ele>70.4</ele>
        <time>2021-07-04T06:37:30Z</time>
      </trkpt>
      <trkpt lat="47.44053" lon="-0.61945">
        <ele>70.6</ele>
        <time>2021-07-04T06:37:32Z</time>
      </trkpt>
      <trkpt lat="47.44047" lon="-0.61955">
        <ele>70.8</ele>
        <time>2021-07-04T06:37:34Z</time>
      </trkpt>
      <trkpt lat="47.44045" lon="-0.6196">
        <ele>70.8</ele>
        <time>2021-07-04T06:37:35Z</time>
      </trkpt>
      <trkpt lat="47.44043" lon="-0.61964">
        <ele>71</ele>
        <time>2021-07-04T06:37:36Z</time>
      </trkpt>
      <trkpt lat="47.44038" lon="-0.61972">
        <ele>71.2</ele>
        <time>2021-07-04T06:37:38Z</time>
      </trkpt>
      <trkpt lat="47.44034" lon="-0.61982">
        <ele>71.2</ele>
        <time>2021-07-04T06:37:40Z</time>
      </trkpt>
      <trkpt lat="47.4403" lon="-0.61992">
        <ele>71.6</ele>
        <time>2021-07-04T06:37:42Z</time>
      </trkpt>
      <trkpt lat="47.44025" lon="-0.62004">
        <ele>72</ele>
        <time>2021-07-04T06:37:44Z</time>
      </trkpt>
      <trkpt lat="47.4402" lon="-0.62015">
        <ele>72.2</ele>
        <time>2021-07-04T06:37:46Z</time>
      </trkpt>
      <trkpt lat="47.44013" lon="-0.62027">
        <ele>72.2</ele>
        <time>2021-07-04T06:37:48Z</time>
      </trkpt>
      <trkpt lat="47.44007" lon="-0.62037">
        <ele>72.2</ele>
        <time>2021-07-04T06:37:50Z</time>
      </trkpt>
      <trkpt lat="47.44002" lon="-0.62047">
        <ele>72.8</ele>
        <time>2021-07-04T06:37:52Z</time>
      </trkpt>
      <trkpt lat="47.43995" lon="-0.62057">
        <ele>73.2</ele>
        <time>2021-07-04T06:37:54Z</time>
      </trkpt>
      <trkpt lat="47.43988" lon="-0.62067">
        <ele>73.4</ele>
        <time>2021-07-04T06:37:56Z</time>
      </trkpt>
      <trkpt lat="47.4398" lon="-0.62077">
        <ele>73.8</ele>
        <time>2021-07-04T06:37:58Z</time>
      </trkpt>
      <trkpt lat="47.43973" lon="-0.62088">
        <ele>74.4</ele>
        <time>2021-07-04T06:38:00Z</time>
      </trkpt>
      <trkpt lat="47.43965" lon="-0.62099">
        <ele>74.2</ele>
        <time>2021-07-04T06:38:02Z</time>
      </trkpt>
      <trkpt lat="47.43957" lon="-0.62109">
        <ele>74.8</ele>
        <time>2021-07-04T06:38:04Z</time>
      </trkpt>
      <trkpt lat="47.43953" lon="-0.62114">
        <ele>75.2</ele>
        <time>2021-07-04T06:38:05Z</time>
      </trkpt>
      <trkpt lat="47.43949" lon="-0.62119">
        <ele>75.2</ele>
        <time>2021-07-04T06:38:06Z</time>
      </trkpt>
      <trkpt lat="47.43946" lon="-0.62124">
        <ele>75.6</ele>
        <time>2021-07-04T06:38:07Z</time>
      </trkpt>
      <trkpt lat="47.43942" lon="-0.62129">
        <ele>76</ele>
        <time>2021-07-04T06:38:08Z</time>
      </trkpt>
      <trkpt lat="47.43939" lon="-0.62134">
        <ele>76</ele>
        <time>2021-07-04T06:38:09Z</time>
      </trkpt>
      <trkpt lat="47.43935" lon="-0.62139">
        <ele>76</ele>
        <time>2021-07-04T06:38:10Z</time>
      </trkpt>
      <trkpt lat="47.43929" lon="-0.62147">
        <ele>75.8</ele>
        <time>2021-07-04T06:38:12Z</time>
      </trkpt>
      <trkpt lat="47.43926" lon="-0.62152">
        <ele>75.8</ele>
        <time>2021-07-04T06:38:13Z</time>
      </trkpt>
      <trkpt lat="47.43923" lon="-0.62157">
        <ele>76</ele>
        <time>2021-07-04T06:38:14Z</time>
      </trkpt>
      <trkpt lat="47.43915" lon="-0.62166">
        <ele>76.2</ele>
        <time>2021-07-04T06:38:16Z</time>
      </trkpt>
      <trkpt lat="47.43907" lon="-0.62176">
        <ele>76</ele>
        <time>2021-07-04T06:38:18Z</time>
      </trkpt>
      <trkpt lat="47.43902" lon="-0.62182">
        <ele>75.8</ele>
        <time>2021-07-04T06:38:19Z</time>
      </trkpt>
      <trkpt lat="47.43898" lon="-0.62187">
        <ele>75.8</ele>
        <time>2021-07-04T06:38:20Z</time>
      </trkpt>
      <trkpt lat="47.43889" lon="-0.62197">
        <ele>76</ele>
        <time>2021-07-04T06:38:22Z</time>
      </trkpt>
      <trkpt lat="47.43881" lon="-0.62206">
        <ele>76.2</ele>
        <time>2021-07-04T06:38:24Z</time>
      </trkpt>
      <trkpt lat="47.43872" lon="-0.62215">
        <ele>77</ele>
        <time>2021-07-04T06:38:26Z</time>
      </trkpt>
      <trkpt lat="47.43868" lon="-0.62219">
        <ele>77</ele>
        <time>2021-07-04T06:38:27Z</time>
      </trkpt>
      <trkpt lat="47.43864" lon="-0.62224">
        <ele>77</ele>
        <time>2021-07-04T06:38:28Z</time>
      </trkpt>
      <trkpt lat="47.43856" lon="-0.62233">
        <ele>76.8</ele>
        <time>2021-07-04T06:38:30Z</time>
      </trkpt>
      <trkpt lat="47.43848" lon="-0.62243">
        <ele>76.8</ele>
        <time>2021-07-04T06:38:32Z</time>
      </trkpt>
      <trkpt lat="47.4384" lon="-0.62253">
        <ele>77.2</ele>
        <time>2021-07-04T06:38:34Z</time>
      </trkpt>
      <trkpt lat="47.43836" lon="-0.62258">
        <ele>77.4</ele>
        <time>2021-07-04T06:38:35Z</time>
      </trkpt>
      <trkpt lat="47.43832" lon="-0.62263">
        <ele>77.6</ele>
        <time>2021-07-04T06:38:36Z</time>
      </trkpt>
      <trkpt lat="47.43825" lon="-0.62273">
        <ele>78</ele>
        <time>2021-07-04T06:38:38Z</time>
      </trkpt>
      <trkpt lat="47.43817" lon="-0.62284">
        <ele>78.2</ele>
        <time>2021-07-04T06:38:40Z</time>
      </trkpt>
      <trkpt lat="47.43809" lon="-0.62294">
        <ele>78</ele>
        <time>2021-07-04T06:38:42Z</time>
      </trkpt>
      <trkpt lat="47.438" lon="-0.62305">
        <ele>77.6</ele>
        <time>2021-07-04T06:38:44Z</time>
      </trkpt>
      <trkpt lat="47.43793" lon="-0.62317">
        <ele>77.6</ele>
        <time>2021-07-04T06:38:46Z</time>
      </trkpt>
      <trkpt lat="47.43786" lon="-0.62329">
        <ele>77.4</ele>
        <time>2021-07-04T06:38:48Z</time>
      </trkpt>
      <trkpt lat="47.43782" lon="-0.62335">
        <ele>77.2</ele>
        <time>2021-07-04T06:38:49Z</time>
      </trkpt>
      <trkpt lat="47.43778" lon="-0.62341">
        <ele>77.2</ele>
        <time>2021-07-04T06:38:50Z</time>
      </trkpt>
      <trkpt lat="47.43768" lon="-0.62353">
        <ele>76.6</ele>
        <time>2021-07-04T06:38:52Z</time>
      </trkpt>
      <trkpt lat="47.43764" lon="-0.62359">
        <ele>76.2</ele>
        <time>2021-07-04T06:38:53Z</time>
      </trkpt>
      <trkpt lat="47.4376" lon="-0.62365">
        <ele>76.2</ele>
        <time>2021-07-04T06:38:54Z</time>
      </trkpt>
      <trkpt lat="47.43751" lon="-0.62379">
        <ele>75.8</ele>
        <time>2021-07-04T06:38:56Z</time>
      </trkpt>
      <trkpt lat="47.43747" lon="-0.62386">
        <ele>75.8</ele>
        <time>2021-07-04T06:38:57Z</time>
      </trkpt>
      <trkpt lat="47.43743" lon="-0.62394">
        <ele>75.4</ele>
        <time>2021-07-04T06:38:58Z</time>
      </trkpt>
      <trkpt lat="47.43739" lon="-0.624">
        <ele>75.2</ele>
        <time>2021-07-04T06:38:59Z</time>
      </trkpt>
      <trkpt lat="47.43734" lon="-0.62405">
        <ele>75</ele>
        <time>2021-07-04T06:39:00Z</time>
      </trkpt>
      <trkpt lat="47.43724" lon="-0.62418">
        <ele>75.2</ele>
        <time>2021-07-04T06:39:02Z</time>
      </trkpt>
      <trkpt lat="47.43715" lon="-0.62428">
        <ele>74.8</ele>
        <time>2021-07-04T06:39:04Z</time>
      </trkpt>
      <trkpt lat="47.43707" lon="-0.62439">
        <ele>74.6</ele>
        <time>2021-07-04T06:39:06Z</time>
      </trkpt>
      <trkpt lat="47.43703" lon="-0.62446">
        <ele>74</ele>
        <time>2021-07-04T06:39:07Z</time>
      </trkpt>
      <trkpt lat="47.43698" lon="-0.62452">
        <ele>73.8</ele>
        <time>2021-07-04T06:39:08Z</time>
      </trkpt>
      <trkpt lat="47.4369" lon="-0.62466">
        <ele>73.4</ele>
        <time>2021-07-04T06:39:10Z</time>
      </trkpt>
      <trkpt lat="47.4368" lon="-0.62481">
        <ele>72.4</ele>
        <time>2021-07-04T06:39:12Z</time>
      </trkpt>
      <trkpt lat="47.43675" lon="-0.62489">
        <ele>71.4</ele>
        <time>2021-07-04T06:39:13Z</time>
      </trkpt>
      <trkpt lat="47.43669" lon="-0.62496">
        <ele>71</ele>
        <time>2021-07-04T06:39:14Z</time>
      </trkpt>
      <trkpt lat="47.43657" lon="-0.62509">
        <ele>69.4</ele>
        <time>2021-07-04T06:39:16Z</time>
      </trkpt>
      <trkpt lat="47.4365" lon="-0.62516">
        <ele>69.2</ele>
        <time>2021-07-04T06:39:17Z</time>
      </trkpt>
      <trkpt lat="47.43643" lon="-0.62522">
        <ele>68.8</ele>
        <time>2021-07-04T06:39:18Z</time>
      </trkpt>
      <trkpt lat="47.43636" lon="-0.62527">
        <ele>68.2</ele>
        <time>2021-07-04T06:39:19Z</time>
      </trkpt>
      <trkpt lat="47.43629" lon="-0.62533">
        <ele>67.4</ele>
        <time>2021-07-04T06:39:20Z</time>
      </trkpt>
      <trkpt lat="47.43623" lon="-0.6254">
        <ele>66.2</ele>
        <time>2021-07-04T06:39:21Z</time>
      </trkpt>
      <trkpt lat="47.43617" lon="-0.62548">
        <ele>65.4</ele>
        <time>2021-07-04T06:39:22Z</time>
      </trkpt>
      <trkpt lat="47.4361" lon="-0.62556">
        <ele>64.4</ele>
        <time>2021-07-04T06:39:23Z</time>
      </trkpt>
      <trkpt lat="47.43605" lon="-0.62565">
        <ele>64.2</ele>
        <time>2021-07-04T06:39:24Z</time>
      </trkpt>
      <trkpt lat="47.43593" lon="-0.62582">
        <ele>64.2</ele>
        <time>2021-07-04T06:39:26Z</time>
      </trkpt>
      <trkpt lat="47.43588" lon="-0.6259">
        <ele>63.2</ele>
        <time>2021-07-04T06:39:27Z</time>
      </trkpt>
      <trkpt lat="47.43581" lon="-0.62598">
        <ele>62</ele>
        <time>2021-07-04T06:39:28Z</time>
      </trkpt>
      <trkpt lat="47.43569" lon="-0.62613">
        <ele>62</ele>
        <time>2021-07-04T06:39:30Z</time>
      </trkpt>
      <trkpt lat="47.43556" lon="-0.62626">
        <ele>62.4</ele>
        <time>2021-07-04T06:39:32Z</time>
      </trkpt>
      <trkpt lat="47.43544" lon="-0.62636">
        <ele>61.8</ele>
        <time>2021-07-04T06:39:34Z</time>
      </trkpt>
      <trkpt lat="47.43532" lon="-0.62647">
        <ele>61.2</ele>
        <time>2021-07-04T06:39:36Z</time>
      </trkpt>
      <trkpt lat="47.43527" lon="-0.62651">
        <ele>61.6</ele>
        <time>2021-07-04T06:39:37Z</time>
      </trkpt>
      <trkpt lat="47.43522" lon="-0.62656">
        <ele>62.2</ele>
        <time>2021-07-04T06:39:38Z</time>
      </trkpt>
      <trkpt lat="47.43519" lon="-0.62661">
        <ele>62.6</ele>
        <time>2021-07-04T06:39:39Z</time>
      </trkpt>
      <trkpt lat="47.43515" lon="-0.62665">
        <ele>63</ele>
        <time>2021-07-04T06:39:40Z</time>
      </trkpt>
      <trkpt lat="47.43511" lon="-0.6267">
        <ele>62.8</ele>
        <time>2021-07-04T06:39:41Z</time>
      </trkpt>
      <trkpt lat="47.43506" lon="-0.62677">
        <ele>62.4</ele>
        <time>2021-07-04T06:39:42Z</time>
      </trkpt>
      <trkpt lat="47.43502" lon="-0.62685">
        <ele>62.6</ele>
        <time>2021-07-04T06:39:43Z</time>
      </trkpt>
      <trkpt lat="47.43498" lon="-0.62692">
        <ele>62.6</ele>
        <time>2021-07-04T06:39:44Z</time>
      </trkpt>
      <trkpt lat="47.43494" lon="-0.62698">
        <ele>61.6</ele>
        <time>2021-07-04T06:39:45Z</time>
      </trkpt>
      <trkpt lat="47.43489" lon="-0.62704">
        <ele>61.2</ele>
        <time>2021-07-04T06:39:46Z</time>
      </trkpt>
      <trkpt lat="47.43484" lon="-0.62711">
        <ele>60.8</ele>
        <time>2021-07-04T06:39:47Z</time>
      </trkpt>
      <trkpt lat="47.43479" lon="-0.62717">
        <ele>60.8</ele>
        <time>2021-07-04T06:39:48Z</time>
      </trkpt>
      <trkpt lat="47.43466" lon="-0.62734">
        <ele>60.2</ele>
        <time>2021-07-04T06:39:50Z</time>
      </trkpt>
      <trkpt lat="47.43454" lon="-0.6275">
        <ele>60</ele>
        <time>2021-07-04T06:39:52Z</time>
      </trkpt>
      <trkpt lat="47.43442" lon="-0.62764">
        <ele>60</ele>
        <time>2021-07-04T06:39:54Z</time>
      </trkpt>
      <trkpt lat="47.4343" lon="-0.62778">
        <ele>59.6</ele>
        <time>2021-07-04T06:39:56Z</time>
      </trkpt>
      <trkpt lat="47.43418" lon="-0.62791">
        <ele>60.4</ele>
        <time>2021-07-04T06:39:58Z</time>
      </trkpt>
      <trkpt lat="47.43412" lon="-0.62797">
        <ele>60.8</ele>
        <time>2021-07-04T06:39:59Z</time>
      </trkpt>
      <trkpt lat="47.43406" lon="-0.62802">
        <ele>60.6</ele>
        <time>2021-07-04T06:40:00Z</time>
      </trkpt>
      <trkpt lat="47.43393" lon="-0.62812">
        <ele>59.8</ele>
        <time>2021-07-04T06:40:02Z</time>
      </trkpt>
      <trkpt lat="47.43386" lon="-0.62816">
        <ele>59.2</ele>
        <time>2021-07-04T06:40:03Z</time>
      </trkpt>
      <trkpt lat="47.43379" lon="-0.62819">
        <ele>59.2</ele>
        <time>2021-07-04T06:40:04Z</time>
      </trkpt>
      <trkpt lat="47.43364" lon="-0.62823">
        <ele>58.8</ele>
        <time>2021-07-04T06:40:06Z</time>
      </trkpt>
      <trkpt lat="47.43357" lon="-0.62824">
        <ele>58.8</ele>
        <time>2021-07-04T06:40:07Z</time>
      </trkpt>
      <trkpt lat="47.43349" lon="-0.62824">
        <ele>58.6</ele>
        <time>2021-07-04T06:40:08Z</time>
      </trkpt>
      <trkpt lat="47.43341" lon="-0.62825">
        <ele>57.6</ele>
        <time>2021-07-04T06:40:09Z</time>
      </trkpt>
      <trkpt lat="47.43334" lon="-0.62826">
        <ele>57</ele>
        <time>2021-07-04T06:40:10Z</time>
      </trkpt>
      <trkpt lat="47.43325" lon="-0.62826">
        <ele>56.4</ele>
        <time>2021-07-04T06:40:11Z</time>
      </trkpt>
      <trkpt lat="47.43318" lon="-0.62827">
        <ele>56</ele>
        <time>2021-07-04T06:40:12Z</time>
      </trkpt>
      <trkpt lat="47.4331" lon="-0.62829">
        <ele>55</ele>
        <time>2021-07-04T06:40:13Z</time>
      </trkpt>
      <trkpt lat="47.43301" lon="-0.6283">
        <ele>54</ele>
        <time>2021-07-04T06:40:14Z</time>
      </trkpt>
      <trkpt lat="47.43285" lon="-0.62835">
        <ele>52.4</ele>
        <time>2021-07-04T06:40:16Z</time>
      </trkpt>
      <trkpt lat="47.43269" lon="-0.62838">
        <ele>50</ele>
        <time>2021-07-04T06:40:18Z</time>
      </trkpt>
      <trkpt lat="47.43262" lon="-0.6284">
        <ele>49</ele>
        <time>2021-07-04T06:40:19Z</time>
      </trkpt>
      <trkpt lat="47.43254" lon="-0.62841">
        <ele>48</ele>
        <time>2021-07-04T06:40:20Z</time>
      </trkpt>
      <trkpt lat="47.43239" lon="-0.62842">
        <ele>47</ele>
        <time>2021-07-04T06:40:22Z</time>
      </trkpt>
      <trkpt lat="47.43232" lon="-0.62843">
        <ele>45.6</ele>
        <time>2021-07-04T06:40:23Z</time>
      </trkpt>
      <trkpt lat="47.43226" lon="-0.62844">
        <ele>44.4</ele>
        <time>2021-07-04T06:40:24Z</time>
      </trkpt>
      <trkpt lat="47.43213" lon="-0.62844">
        <ele>43.2</ele>
        <time>2021-07-04T06:40:26Z</time>
      </trkpt>
      <trkpt lat="47.43206" lon="-0.62845">
        <ele>42</ele>
        <time>2021-07-04T06:40:27Z</time>
      </trkpt>
      <trkpt lat="47.43198" lon="-0.62847">
        <ele>40.8</ele>
        <time>2021-07-04T06:40:28Z</time>
      </trkpt>
      <trkpt lat="47.4319" lon="-0.62848">
        <ele>39.4</ele>
        <time>2021-07-04T06:40:29Z</time>
      </trkpt>
      <trkpt lat="47.43182" lon="-0.62849">
        <ele>38.2</ele>
        <time>2021-07-04T06:40:30Z</time>
      </trkpt>
      <trkpt lat="47.43174" lon="-0.6285">
        <ele>36.2</ele>
        <time>2021-07-04T06:40:31Z</time>
      </trkpt>
      <trkpt lat="47.43167" lon="-0.62853">
        <ele>35.6</ele>
        <time>2021-07-04T06:40:32Z</time>
      </trkpt>
      <trkpt lat="47.43159" lon="-0.62856">
        <ele>34.6</ele>
        <time>2021-07-04T06:40:33Z</time>
      </trkpt>
      <trkpt lat="47.43152" lon="-0.62858">
        <ele>34</ele>
        <time>2021-07-04T06:40:34Z</time>
      </trkpt>
      <trkpt lat="47.43145" lon="-0.62861">
        <ele>33</ele>
        <time>2021-07-04T06:40:35Z</time>
      </trkpt>
      <trkpt lat="47.43139" lon="-0.62863">
        <ele>32.4</ele>
        <time>2021-07-04T06:40:36Z</time>
      </trkpt>
      <trkpt lat="47.43133" lon="-0.62864">
        <ele>31.4</ele>
        <time>2021-07-04T06:40:37Z</time>
      </trkpt>
      <trkpt lat="47.43127" lon="-0.62862">
        <ele>30.8</ele>
        <time>2021-07-04T06:40:38Z</time>
      </trkpt>
      <trkpt lat="47.43122" lon="-0.62861">
        <ele>29.8</ele>
        <time>2021-07-04T06:40:39Z</time>
      </trkpt>
      <trkpt lat="47.43117" lon="-0.62858">
        <ele>28.4</ele>
        <time>2021-07-04T06:40:40Z</time>
      </trkpt>
      <trkpt lat="47.43111" lon="-0.62857">
        <ele>27.6</ele>
        <time>2021-07-04T06:40:41Z</time>
      </trkpt>
      <trkpt lat="47.43106" lon="-0.62858">
        <ele>27</ele>
        <time>2021-07-04T06:40:42Z</time>
      </trkpt>
      <trkpt lat="47.431" lon="-0.62859">
        <ele>26.6</ele>
        <time>2021-07-04T06:40:43Z</time>
      </trkpt>
      <trkpt lat="47.43094" lon="-0.6286">
        <ele>26.2</ele>
        <time>2021-07-04T06:40:44Z</time>
      </trkpt>
      <trkpt lat="47.43089" lon="-0.62861">
        <ele>26</ele>
        <time>2021-07-04T06:40:45Z</time>
      </trkpt>
      <trkpt lat="47.43084" lon="-0.62862">
        <ele>26.2</ele>
        <time>2021-07-04T06:40:46Z</time>
      </trkpt>
      <trkpt lat="47.43075" lon="-0.62863">
        <ele>26.8</ele>
        <time>2021-07-04T06:40:48Z</time>
      </trkpt>
      <trkpt lat="47.43065" lon="-0.62863">
        <ele>26.4</ele>
        <time>2021-07-04T06:40:50Z</time>
      </trkpt>
      <trkpt lat="47.43055" lon="-0.62863">
        <ele>26.6</ele>
        <time>2021-07-04T06:40:52Z</time>
      </trkpt>
      <trkpt lat="47.43049" lon="-0.62863">
        <ele>27.2</ele>
        <time>2021-07-04T06:40:53Z</time>
      </trkpt>
      <trkpt lat="47.43043" lon="-0.62863">
        <ele>27.8</ele>
        <time>2021-07-04T06:40:54Z</time>
      </trkpt>
      <trkpt lat="47.43037" lon="-0.62863">
        <ele>28.6</ele>
        <time>2021-07-04T06:40:55Z</time>
      </trkpt>
      <trkpt lat="47.43033" lon="-0.62864">
        <ele>29.4</ele>
        <time>2021-07-04T06:40:56Z</time>
      </trkpt>
      <trkpt lat="47.43028" lon="-0.62865">
        <ele>30.4</ele>
        <time>2021-07-04T06:40:57Z</time>
      </trkpt>
      <trkpt lat="47.43024" lon="-0.62866">
        <ele>31.2</ele>
        <time>2021-07-04T06:40:58Z</time>
      </trkpt>
      <trkpt lat="47.4302" lon="-0.62868">
        <ele>31.6</ele>
        <time>2021-07-04T06:40:59Z</time>
      </trkpt>
      <trkpt lat="47.43015" lon="-0.62869">
        <ele>32</ele>
        <time>2021-07-04T06:41:00Z</time>
      </trkpt>
      <trkpt lat="47.4301" lon="-0.62869">
        <ele>32.8</ele>
        <time>2021-07-04T06:41:01Z</time>
      </trkpt>
      <trkpt lat="47.43006" lon="-0.62871">
        <ele>33.4</ele>
        <time>2021-07-04T06:41:02Z</time>
      </trkpt>
      <trkpt lat="47.42998" lon="-0.62874">
        <ele>33.6</ele>
        <time>2021-07-04T06:41:04Z</time>
      </trkpt>
      <trkpt lat="47.42989" lon="-0.62877">
        <ele>33.8</ele>
        <time>2021-07-04T06:41:06Z</time>
      </trkpt>
      <trkpt lat="47.42985" lon="-0.6288">
        <ele>34</ele>
        <time>2021-07-04T06:41:07Z</time>
      </trkpt>
      <trkpt lat="47.4298" lon="-0.62883">
        <ele>34</ele>
        <time>2021-07-04T06:41:08Z</time>
      </trkpt>
      <trkpt lat="47.42976" lon="-0.62886">
        <ele>34.2</ele>
        <time>2021-07-04T06:41:09Z</time>
      </trkpt>
      <trkpt lat="47.42971" lon="-0.62888">
        <ele>34.2</ele>
        <time>2021-07-04T06:41:10Z</time>
      </trkpt>
      <trkpt lat="47.42959" lon="-0.62895">
        <ele>34.4</ele>
        <time>2021-07-04T06:41:12Z</time>
      </trkpt>
      <trkpt lat="47.42948" lon="-0.62902">
        <ele>35</ele>
        <time>2021-07-04T06:41:14Z</time>
      </trkpt>
      <trkpt lat="47.42938" lon="-0.6291">
        <ele>35.4</ele>
        <time>2021-07-04T06:41:16Z</time>
      </trkpt>
      <trkpt lat="47.42927" lon="-0.62918">
        <ele>35.8</ele>
        <time>2021-07-04T06:41:18Z</time>
      </trkpt>
      <trkpt lat="47.42922" lon="-0.62923">
        <ele>35.8</ele>
        <time>2021-07-04T06:41:19Z</time>
      </trkpt>
      <trkpt lat="47.42916" lon="-0.62929">
        <ele>35.8</ele>
        <time>2021-07-04T06:41:20Z</time>
      </trkpt>
      <trkpt lat="47.42911" lon="-0.62934">
        <ele>35.8</ele>
        <time>2021-07-04T06:41:21Z</time>
      </trkpt>
      <trkpt lat="47.42906" lon="-0.6294">
        <ele>36</ele>
        <time>2021-07-04T06:41:22Z</time>
      </trkpt>
      <trkpt lat="47.42902" lon="-0.62946">
        <ele>36.2</ele>
        <time>2021-07-04T06:41:23Z</time>
      </trkpt>
      <trkpt lat="47.42899" lon="-0.62952">
        <ele>36.6</ele>
        <time>2021-07-04T06:41:24Z</time>
      </trkpt>
      <trkpt lat="47.42895" lon="-0.62959">
        <ele>36.8</ele>
        <time>2021-07-04T06:41:25Z</time>
      </trkpt>
      <trkpt lat="47.42891" lon="-0.62965">
        <ele>37</ele>
        <time>2021-07-04T06:41:26Z</time>
      </trkpt>
      <trkpt lat="47.42883" lon="-0.62978">
        <ele>37.2</ele>
        <time>2021-07-04T06:41:28Z</time>
      </trkpt>
      <trkpt lat="47.42873" lon="-0.62989">
        <ele>37.4</ele>
        <time>2021-07-04T06:41:30Z</time>
      </trkpt>
      <trkpt lat="47.42863" lon="-0.62999">
        <ele>37.2</ele>
        <time>2021-07-04T06:41:32Z</time>
      </trkpt>
      <trkpt lat="47.42858" lon="-0.63003">
        <ele>37</ele>
        <time>2021-07-04T06:41:33Z</time>
      </trkpt>
      <trkpt lat="47.42851" lon="-0.63006">
        <ele>37</ele>
        <time>2021-07-04T06:41:34Z</time>
      </trkpt>
      <trkpt lat="47.42845" lon="-0.6301">
        <ele>37.2</ele>
        <time>2021-07-04T06:41:35Z</time>
      </trkpt>
      <trkpt lat="47.42838" lon="-0.63012">
        <ele>37.4</ele>
        <time>2021-07-04T06:41:36Z</time>
      </trkpt>
      <trkpt lat="47.42824" lon="-0.63017">
        <ele>37.6</ele>
        <time>2021-07-04T06:41:38Z</time>
      </trkpt>
      <trkpt lat="47.42811" lon="-0.63019">
        <ele>37.4</ele>
        <time>2021-07-04T06:41:40Z</time>
      </trkpt>
      <trkpt lat="47.42798" lon="-0.63012">
        <ele>37.6</ele>
        <time>2021-07-04T06:41:42Z</time>
      </trkpt>
      <trkpt lat="47.42792" lon="-0.63007">
        <ele>37.8</ele>
        <time>2021-07-04T06:41:43Z</time>
      </trkpt>
      <trkpt lat="47.42787" lon="-0.63001">
        <ele>37.8</ele>
        <time>2021-07-04T06:41:44Z</time>
      </trkpt>
      <trkpt lat="47.42781" lon="-0.62995">
        <ele>37.6</ele>
        <time>2021-07-04T06:41:45Z</time>
      </trkpt>
      <trkpt lat="47.42776" lon="-0.62989">
        <ele>37.6</ele>
        <time>2021-07-04T06:41:46Z</time>
      </trkpt>
      <trkpt lat="47.42766" lon="-0.62977">
        <ele>37.8</ele>
        <time>2021-07-04T06:41:48Z</time>
      </trkpt>
      <trkpt lat="47.4276" lon="-0.62972">
        <ele>38</ele>
        <time>2021-07-04T06:41:49Z</time>
      </trkpt>
      <trkpt lat="47.42755" lon="-0.62967">
        <ele>38</ele>
        <time>2021-07-04T06:41:50Z</time>
      </trkpt>
      <trkpt lat="47.4275" lon="-0.62962">
        <ele>38.4</ele>
        <time>2021-07-04T06:41:51Z</time>
      </trkpt>
      <trkpt lat="47.42744" lon="-0.62958">
        <ele>38.6</ele>
        <time>2021-07-04T06:41:52Z</time>
      </trkpt>
      <trkpt lat="47.42732" lon="-0.62955">
        <ele>38</ele>
        <time>2021-07-04T06:41:54Z</time>
      </trkpt>
      <trkpt lat="47.4272" lon="-0.6296">
        <ele>38.4</ele>
        <time>2021-07-04T06:41:56Z</time>
      </trkpt>
      <trkpt lat="47.42714" lon="-0.62963">
        <ele>38.8</ele>
        <time>2021-07-04T06:41:57Z</time>
      </trkpt>
      <trkpt lat="47.42709" lon="-0.62967">
        <ele>39.2</ele>
        <time>2021-07-04T06:41:58Z</time>
      </trkpt>
      <trkpt lat="47.42703" lon="-0.62971">
        <ele>39.6</ele>
        <time>2021-07-04T06:41:59Z</time>
      </trkpt>
      <trkpt lat="47.42698" lon="-0.62975">
        <ele>40</ele>
        <time>2021-07-04T06:42:00Z</time>
      </trkpt>
      <trkpt lat="47.42687" lon="-0.62981">
        <ele>40</ele>
        <time>2021-07-04T06:42:02Z</time>
      </trkpt>
      <trkpt lat="47.42681" lon="-0.62984">
        <ele>40</ele>
        <time>2021-07-04T06:42:03Z</time>
      </trkpt>
      <trkpt lat="47.42676" lon="-0.62987">
        <ele>40.2</ele>
        <time>2021-07-04T06:42:04Z</time>
      </trkpt>
      <trkpt lat="47.42665" lon="-0.62992">
        <ele>40.4</ele>
        <time>2021-07-04T06:42:06Z</time>
      </trkpt>
      <trkpt lat="47.4266" lon="-0.62994">
        <ele>40.8</ele>
        <time>2021-07-04T06:42:07Z</time>
      </trkpt>
      <trkpt lat="47.42655" lon="-0.62997">
        <ele>40.8</ele>
        <time>2021-07-04T06:42:08Z</time>
      </trkpt>
      <trkpt lat="47.42652" lon="-0.63001">
        <ele>41.2</ele>
        <time>2021-07-04T06:42:09Z</time>
      </trkpt>
      <trkpt lat="47.4265" lon="-0.63007">
        <ele>41.8</ele>
        <time>2021-07-04T06:42:10Z</time>
      </trkpt>
      <trkpt lat="47.4265" lon="-0.63013">
        <ele>42.2</ele>
        <time>2021-07-04T06:42:11Z</time>
      </trkpt>
      <trkpt lat="47.42651" lon="-0.63018">
        <ele>42.8</ele>
        <time>2021-07-04T06:42:12Z</time>
      </trkpt>
      <trkpt lat="47.42652" lon="-0.63024">
        <ele>43</ele>
        <time>2021-07-04T06:42:13Z</time>
      </trkpt>
      <trkpt lat="47.42653" lon="-0.6303">
        <ele>43.2</ele>
        <time>2021-07-04T06:42:14Z</time>
      </trkpt>
      <trkpt lat="47.42656" lon="-0.63041">
        <ele>43.2</ele>
        <time>2021-07-04T06:42:17Z</time>
      </trkpt>
      <trkpt lat="47.42659" lon="-0.63057">
        <ele>43.8</ele>
        <time>2021-07-04T06:42:20Z</time>
      </trkpt>
      <trkpt lat="47.4266" lon="-0.63063">
        <ele>43.8</ele>
        <time>2021-07-04T06:42:21Z</time>
      </trkpt>
      <trkpt lat="47.42663" lon="-0.63074">
        <ele>43.8</ele>
        <time>2021-07-04T06:42:23Z</time>
      </trkpt>
      <trkpt lat="47.42665" lon="-0.63085">
        <ele>44</ele>
        <time>2021-07-04T06:42:25Z</time>
      </trkpt>
      <trkpt lat="47.42668" lon="-0.63097">
        <ele>44.2</ele>
        <time>2021-07-04T06:42:27Z</time>
      </trkpt>
      <trkpt lat="47.42669" lon="-0.63102">
        <ele>44.2</ele>
        <time>2021-07-04T06:42:28Z</time>
      </trkpt>
      <trkpt lat="47.4267" lon="-0.63108">
        <ele>44.2</ele>
        <time>2021-07-04T06:42:29Z</time>
      </trkpt>
      <trkpt lat="47.42672" lon="-0.63119">
        <ele>44.6</ele>
        <time>2021-07-04T06:42:31Z</time>
      </trkpt>
      <trkpt lat="47.42674" lon="-0.6313">
        <ele>45.2</ele>
        <time>2021-07-04T06:42:33Z</time>
      </trkpt>
      <trkpt lat="47.42677" lon="-0.63141">
        <ele>45.2</ele>
        <time>2021-07-04T06:42:35Z</time>
      </trkpt>
      <trkpt lat="47.42679" lon="-0.63153">
        <ele>45.2</ele>
        <time>2021-07-04T06:42:37Z</time>
      </trkpt>
      <trkpt lat="47.4268" lon="-0.63159">
        <ele>45</ele>
        <time>2021-07-04T06:42:38Z</time>
      </trkpt>
      <trkpt lat="47.42682" lon="-0.63165">
        <ele>45</ele>
        <time>2021-07-04T06:42:39Z</time>
      </trkpt>
      <trkpt lat="47.42684" lon="-0.63177">
        <ele>45.4</ele>
        <time>2021-07-04T06:42:41Z</time>
      </trkpt>
      <trkpt lat="47.42687" lon="-0.63188">
        <ele>46</ele>
        <time>2021-07-04T06:42:43Z</time>
      </trkpt>
      <trkpt lat="47.4269" lon="-0.63199">
        <ele>46</ele>
        <time>2021-07-04T06:42:45Z</time>
      </trkpt>
      <trkpt lat="47.42693" lon="-0.63211">
        <ele>46.4</ele>
        <time>2021-07-04T06:42:47Z</time>
      </trkpt>
      <trkpt lat="47.42695" lon="-0.63223">
        <ele>46.4</ele>
        <time>2021-07-04T06:42:49Z</time>
      </trkpt>
      <trkpt lat="47.42698" lon="-0.63235">
        <ele>46.6</ele>
        <time>2021-07-04T06:42:51Z</time>
      </trkpt>
      <trkpt lat="47.427" lon="-0.63242">
        <ele>46.8</ele>
        <time>2021-07-04T06:42:52Z</time>
      </trkpt>
      <trkpt lat="47.42702" lon="-0.63248">
        <ele>47.2</ele>
        <time>2021-07-04T06:42:53Z</time>
      </trkpt>
      <trkpt lat="47.42705" lon="-0.63261">
        <ele>47.6</ele>
        <time>2021-07-04T06:42:55Z</time>
      </trkpt>
      <trkpt lat="47.42708" lon="-0.63275">
        <ele>48.2</ele>
        <time>2021-07-04T06:42:57Z</time>
      </trkpt>
      <trkpt lat="47.42711" lon="-0.63289">
        <ele>48.4</ele>
        <time>2021-07-04T06:42:59Z</time>
      </trkpt>
      <trkpt lat="47.42714" lon="-0.63303">
        <ele>48.6</ele>
        <time>2021-07-04T06:43:01Z</time>
      </trkpt>
      <trkpt lat="47.42718" lon="-0.63316">
        <ele>48.8</ele>
        <time>2021-07-04T06:43:03Z</time>
      </trkpt>
      <trkpt lat="47.42722" lon="-0.63329">
        <ele>49</ele>
        <time>2021-07-04T06:43:05Z</time>
      </trkpt>
      <trkpt lat="47.42727" lon="-0.63341">
        <ele>49.2</ele>
        <time>2021-07-04T06:43:07Z</time>
      </trkpt>
      <trkpt lat="47.4273" lon="-0.63347">
        <ele>49.4</ele>
        <time>2021-07-04T06:43:08Z</time>
      </trkpt>
      <trkpt lat="47.42733" lon="-0.63352">
        <ele>49.8</ele>
        <time>2021-07-04T06:43:09Z</time>
      </trkpt>
      <trkpt lat="47.42736" lon="-0.63358">
        <ele>49.8</ele>
        <time>2021-07-04T06:43:10Z</time>
      </trkpt>
      <trkpt lat="47.42738" lon="-0.63364">
        <ele>50</ele>
        <time>2021-07-04T06:43:11Z</time>
      </trkpt>
      <trkpt lat="47.42745" lon="-0.63376">
        <ele>50</ele>
        <time>2021-07-04T06:43:13Z</time>
      </trkpt>
      <trkpt lat="47.42751" lon="-0.63388">
        <ele>50.2</ele>
        <time>2021-07-04T06:43:15Z</time>
      </trkpt>
      <trkpt lat="47.42758" lon="-0.634">
        <ele>50</ele>
        <time>2021-07-04T06:43:17Z</time>
      </trkpt>
      <trkpt lat="47.42764" lon="-0.63412">
        <ele>49.8</ele>
        <time>2021-07-04T06:43:19Z</time>
      </trkpt>
      <trkpt lat="47.4277" lon="-0.63424">
        <ele>50.2</ele>
        <time>2021-07-04T06:43:21Z</time>
      </trkpt>
      <trkpt lat="47.42777" lon="-0.63435">
        <ele>50</ele>
        <time>2021-07-04T06:43:23Z</time>
      </trkpt>
      <trkpt lat="47.4278" lon="-0.63441">
        <ele>49.8</ele>
        <time>2021-07-04T06:43:24Z</time>
      </trkpt>
      <trkpt lat="47.42783" lon="-0.63447">
        <ele>49.8</ele>
        <time>2021-07-04T06:43:25Z</time>
      </trkpt>
      <trkpt lat="47.42789" lon="-0.63457">
        <ele>49.8</ele>
        <time>2021-07-04T06:43:27Z</time>
      </trkpt>
      <trkpt lat="47.42793" lon="-0.63462">
        <ele>49.6</ele>
        <time>2021-07-04T06:43:28Z</time>
      </trkpt>
      <trkpt lat="47.42795" lon="-0.63467">
        <ele>49.6</ele>
        <time>2021-07-04T06:43:29Z</time>
      </trkpt>
      <trkpt lat="47.42797" lon="-0.63471">
        <ele>49.4</ele>
        <time>2021-07-04T06:43:30Z</time>
      </trkpt>
      <trkpt lat="47.42797" lon="-0.63474">
        <ele>49.8</ele>
        <time>2021-07-04T06:43:31Z</time>
      </trkpt>
      <trkpt lat="47.42794" lon="-0.63477">
        <ele>50</ele>
        <time>2021-07-04T06:43:32Z</time>
      </trkpt>
      <trkpt lat="47.4279" lon="-0.6348">
        <ele>50</ele>
        <time>2021-07-04T06:43:33Z</time>
      </trkpt>
      <trkpt lat="47.42782" lon="-0.63485">
        <ele>50</ele>
        <time>2021-07-04T06:43:35Z</time>
      </trkpt>
      <trkpt lat="47.42778" lon="-0.63487">
        <ele>49.8</ele>
        <time>2021-07-04T06:43:36Z</time>
      </trkpt>
      <trkpt lat="47.42774" lon="-0.63489">
        <ele>49.6</ele>
        <time>2021-07-04T06:43:37Z</time>
      </trkpt>
      <trkpt lat="47.42765" lon="-0.63494">
        <ele>50</ele>
        <time>2021-07-04T06:43:39Z</time>
      </trkpt>
      <trkpt lat="47.42757" lon="-0.63499">
        <ele>50.6</ele>
        <time>2021-07-04T06:43:41Z</time>
      </trkpt>
      <trkpt lat="47.42749" lon="-0.63505">
        <ele>50.8</ele>
        <time>2021-07-04T06:43:43Z</time>
      </trkpt>
      <trkpt lat="47.42741" lon="-0.6351">
        <ele>51.8</ele>
        <time>2021-07-04T06:43:45Z</time>
      </trkpt>
      <trkpt lat="47.42734" lon="-0.63514">
        <ele>51.8</ele>
        <time>2021-07-04T06:43:47Z</time>
      </trkpt>
      <trkpt lat="47.42731" lon="-0.63516">
        <ele>52</ele>
        <time>2021-07-04T06:43:48Z</time>
      </trkpt>
      <trkpt lat="47.42727" lon="-0.63519">
        <ele>52.2</ele>
        <time>2021-07-04T06:43:49Z</time>
      </trkpt>
      <trkpt lat="47.42721" lon="-0.63523">
        <ele>52.6</ele>
        <time>2021-07-04T06:43:51Z</time>
      </trkpt>
      <trkpt lat="47.42715" lon="-0.63527">
        <ele>53</ele>
        <time>2021-07-04T06:43:53Z</time>
      </trkpt>
      <trkpt lat="47.4271" lon="-0.63531">
        <ele>53.4</ele>
        <time>2021-07-04T06:43:55Z</time>
      </trkpt>
      <trkpt lat="47.42709" lon="-0.63534">
        <ele>53.4</ele>
        <time>2021-07-04T06:43:56Z</time>
      </trkpt>
      <trkpt lat="47.42708" lon="-0.63539">
        <ele>53.8</ele>
        <time>2021-07-04T06:43:57Z</time>
      </trkpt>
      <trkpt lat="47.42708" lon="-0.63544">
        <ele>54.2</ele>
        <time>2021-07-04T06:43:58Z</time>
      </trkpt>
      <trkpt lat="47.42709" lon="-0.6355">
        <ele>54.6</ele>
        <time>2021-07-04T06:43:59Z</time>
      </trkpt>
      <trkpt lat="47.4271" lon="-0.63561">
        <ele>54.6</ele>
        <time>2021-07-04T06:44:01Z</time>
      </trkpt>
      <trkpt lat="47.4271" lon="-0.63567">
        <ele>54.4</ele>
        <time>2021-07-04T06:44:02Z</time>
      </trkpt>
      <trkpt lat="47.4271" lon="-0.63572">
        <ele>54.6</ele>
        <time>2021-07-04T06:44:03Z</time>
      </trkpt>
      <trkpt lat="47.42709" lon="-0.63584">
        <ele>54.6</ele>
        <time>2021-07-04T06:44:05Z</time>
      </trkpt>
      <trkpt lat="47.42708" lon="-0.63597">
        <ele>54.8</ele>
        <time>2021-07-04T06:44:07Z</time>
      </trkpt>
      <trkpt lat="47.42707" lon="-0.63603">
        <ele>55</ele>
        <time>2021-07-04T06:44:08Z</time>
      </trkpt>
      <trkpt lat="47.42706" lon="-0.63609">
        <ele>55</ele>
        <time>2021-07-04T06:44:09Z</time>
      </trkpt>
      <trkpt lat="47.42704" lon="-0.63622">
        <ele>55</ele>
        <time>2021-07-04T06:44:11Z</time>
      </trkpt>
      <trkpt lat="47.42703" lon="-0.63634">
        <ele>55</ele>
        <time>2021-07-04T06:44:13Z</time>
      </trkpt>
      <trkpt lat="47.42701" lon="-0.63648">
        <ele>55.2</ele>
        <time>2021-07-04T06:44:15Z</time>
      </trkpt>
      <trkpt lat="47.42701" lon="-0.63654">
        <ele>55.2</ele>
        <time>2021-07-04T06:44:16Z</time>
      </trkpt>
      <trkpt lat="47.427" lon="-0.63662">
        <ele>55.4</ele>
        <time>2021-07-04T06:44:17Z</time>
      </trkpt>
      <trkpt lat="47.42698" lon="-0.63675">
        <ele>55.6</ele>
        <time>2021-07-04T06:44:19Z</time>
      </trkpt>
      <trkpt lat="47.42696" lon="-0.63688">
        <ele>55.8</ele>
        <time>2021-07-04T06:44:21Z</time>
      </trkpt>
      <trkpt lat="47.42694" lon="-0.63702">
        <ele>55.8</ele>
        <time>2021-07-04T06:44:23Z</time>
      </trkpt>
      <trkpt lat="47.42694" lon="-0.63709">
        <ele>55.8</ele>
        <time>2021-07-04T06:44:24Z</time>
      </trkpt>
      <trkpt lat="47.42694" lon="-0.63716">
        <ele>56</ele>
        <time>2021-07-04T06:44:25Z</time>
      </trkpt>
      <trkpt lat="47.42694" lon="-0.63729">
        <ele>56</ele>
        <time>2021-07-04T06:44:27Z</time>
      </trkpt>
      <trkpt lat="47.42692" lon="-0.63736">
        <ele>56.2</ele>
        <time>2021-07-04T06:44:28Z</time>
      </trkpt>
      <trkpt lat="47.42691" lon="-0.63744">
        <ele>56.2</ele>
        <time>2021-07-04T06:44:29Z</time>
      </trkpt>
      <trkpt lat="47.4269" lon="-0.63751">
        <ele>56.4</ele>
        <time>2021-07-04T06:44:30Z</time>
      </trkpt>
      <trkpt lat="47.42689" lon="-0.63759">
        <ele>56.8</ele>
        <time>2021-07-04T06:44:31Z</time>
      </trkpt>
      <trkpt lat="47.42687" lon="-0.63775">
        <ele>56.8</ele>
        <time>2021-07-04T06:44:33Z</time>
      </trkpt>
      <trkpt lat="47.42686" lon="-0.63793">
        <ele>56.8</ele>
        <time>2021-07-04T06:44:35Z</time>
      </trkpt>
      <trkpt lat="47.42687" lon="-0.6381">
        <ele>56.2</ele>
        <time>2021-07-04T06:44:37Z</time>
      </trkpt>
      <trkpt lat="47.42687" lon="-0.63827">
        <ele>56.2</ele>
        <time>2021-07-04T06:44:39Z</time>
      </trkpt>
      <trkpt lat="47.42687" lon="-0.63835">
        <ele>56.2</ele>
        <time>2021-07-04T06:44:40Z</time>
      </trkpt>
      <trkpt lat="47.42687" lon="-0.63843">
        <ele>55.8</ele>
        <time>2021-07-04T06:44:41Z</time>
      </trkpt>
      <trkpt lat="47.42686" lon="-0.63859">
        <ele>55.2</ele>
        <time>2021-07-04T06:44:43Z</time>
      </trkpt>
      <trkpt lat="47.42686" lon="-0.63877">
        <ele>55.6</ele>
        <time>2021-07-04T06:44:45Z</time>
      </trkpt>
      <trkpt lat="47.42686" lon="-0.63886">
        <ele>55.2</ele>
        <time>2021-07-04T06:44:46Z</time>
      </trkpt>
      <trkpt lat="47.42685" lon="-0.63894">
        <ele>54.8</ele>
        <time>2021-07-04T06:44:47Z</time>
      </trkpt>
      <trkpt lat="47.42684" lon="-0.63903">
        <ele>54.8</ele>
        <time>2021-07-04T06:44:48Z</time>
      </trkpt>
      <trkpt lat="47.42683" lon="-0.63912">
        <ele>54.6</ele>
        <time>2021-07-04T06:44:49Z</time>
      </trkpt>
      <trkpt lat="47.42681" lon="-0.6393">
        <ele>53.8</ele>
        <time>2021-07-04T06:44:51Z</time>
      </trkpt>
      <trkpt lat="47.4268" lon="-0.63948">
        <ele>53.4</ele>
        <time>2021-07-04T06:44:53Z</time>
      </trkpt>
      <trkpt lat="47.42678" lon="-0.63965">
        <ele>52.8</ele>
        <time>2021-07-04T06:44:55Z</time>
      </trkpt>
      <trkpt lat="47.42675" lon="-0.63981">
        <ele>53</ele>
        <time>2021-07-04T06:44:57Z</time>
      </trkpt>
      <trkpt lat="47.42673" lon="-0.63988">
        <ele>52.8</ele>
        <time>2021-07-04T06:44:58Z</time>
      </trkpt>
      <trkpt lat="47.42671" lon="-0.63994">
        <ele>53</ele>
        <time>2021-07-04T06:44:59Z</time>
      </trkpt>
      <trkpt lat="47.42667" lon="-0.64008">
        <ele>53.2</ele>
        <time>2021-07-04T06:45:01Z</time>
      </trkpt>
      <trkpt lat="47.42667" lon="-0.64018">
        <ele>53.2</ele>
        <time>2021-07-04T06:45:02Z</time>
      </trkpt>
      <trkpt lat="47.42666" lon="-0.64028">
        <ele>53.2</ele>
        <time>2021-07-04T06:45:03Z</time>
      </trkpt>
      <trkpt lat="47.42668" lon="-0.64047">
        <ele>52.6</ele>
        <time>2021-07-04T06:45:05Z</time>
      </trkpt>
      <trkpt lat="47.42668" lon="-0.64057">
        <ele>52.2</ele>
        <time>2021-07-04T06:45:06Z</time>
      </trkpt>
      <trkpt lat="47.42669" lon="-0.64066">
        <ele>52.2</ele>
        <time>2021-07-04T06:45:07Z</time>
      </trkpt>
      <trkpt lat="47.42669" lon="-0.64084">
        <ele>52.2</ele>
        <time>2021-07-04T06:45:09Z</time>
      </trkpt>
      <trkpt lat="47.42662" lon="-0.64099">
        <ele>52.2</ele>
        <time>2021-07-04T06:45:11Z</time>
      </trkpt>
      <trkpt lat="47.42653" lon="-0.64112">
        <ele>52.4</ele>
        <time>2021-07-04T06:45:13Z</time>
      </trkpt>
      <trkpt lat="47.42644" lon="-0.64125">
        <ele>52.8</ele>
        <time>2021-07-04T06:45:15Z</time>
      </trkpt>
      <trkpt lat="47.4264" lon="-0.64131">
        <ele>53.2</ele>
        <time>2021-07-04T06:45:16Z</time>
      </trkpt>
      <trkpt lat="47.42636" lon="-0.64137">
        <ele>53.6</ele>
        <time>2021-07-04T06:45:17Z</time>
      </trkpt>
      <trkpt lat="47.42628" lon="-0.6415">
        <ele>54</ele>
        <time>2021-07-04T06:45:19Z</time>
      </trkpt>
      <trkpt lat="47.4262" lon="-0.64163">
        <ele>54.6</ele>
        <time>2021-07-04T06:45:21Z</time>
      </trkpt>
      <trkpt lat="47.42611" lon="-0.64175">
        <ele>55</ele>
        <time>2021-07-04T06:45:23Z</time>
      </trkpt>
      <trkpt lat="47.42607" lon="-0.64181">
        <ele>55</ele>
        <time>2021-07-04T06:45:24Z</time>
      </trkpt>
      <trkpt lat="47.42603" lon="-0.64186">
        <ele>55.2</ele>
        <time>2021-07-04T06:45:25Z</time>
      </trkpt>
      <trkpt lat="47.42595" lon="-0.64199">
        <ele>55.8</ele>
        <time>2021-07-04T06:45:27Z</time>
      </trkpt>
      <trkpt lat="47.42587" lon="-0.6421">
        <ele>56</ele>
        <time>2021-07-04T06:45:29Z</time>
      </trkpt>
      <trkpt lat="47.42578" lon="-0.64222">
        <ele>56</ele>
        <time>2021-07-04T06:45:31Z</time>
      </trkpt>
      <trkpt lat="47.4257" lon="-0.64234">
        <ele>56.2</ele>
        <time>2021-07-04T06:45:33Z</time>
      </trkpt>
      <trkpt lat="47.42562" lon="-0.64245">
        <ele>56.4</ele>
        <time>2021-07-04T06:45:35Z</time>
      </trkpt>
      <trkpt lat="47.42558" lon="-0.64251">
        <ele>56.6</ele>
        <time>2021-07-04T06:45:36Z</time>
      </trkpt>
      <trkpt lat="47.42554" lon="-0.64256">
        <ele>57</ele>
        <time>2021-07-04T06:45:37Z</time>
      </trkpt>
      <trkpt lat="47.4255" lon="-0.64262">
        <ele>57</ele>
        <time>2021-07-04T06:45:38Z</time>
      </trkpt>
      <trkpt lat="47.42546" lon="-0.64268">
        <ele>57.2</ele>
        <time>2021-07-04T06:45:39Z</time>
      </trkpt>
      <trkpt lat="47.42538" lon="-0.64279">
        <ele>57.4</ele>
        <time>2021-07-04T06:45:41Z</time>
      </trkpt>
      <trkpt lat="47.42529" lon="-0.64291">
        <ele>57.4</ele>
        <time>2021-07-04T06:45:43Z</time>
      </trkpt>
      <trkpt lat="47.42525" lon="-0.64297">
        <ele>57.6</ele>
        <time>2021-07-04T06:45:44Z</time>
      </trkpt>
      <trkpt lat="47.42521" lon="-0.64303">
        <ele>57.6</ele>
        <time>2021-07-04T06:45:45Z</time>
      </trkpt>
      <trkpt lat="47.42512" lon="-0.64316">
        <ele>57.6</ele>
        <time>2021-07-04T06:45:47Z</time>
      </trkpt>
      <trkpt lat="47.42503" lon="-0.64328">
        <ele>57.2</ele>
        <time>2021-07-04T06:45:49Z</time>
      </trkpt>
      <trkpt lat="47.42495" lon="-0.6434">
        <ele>57.2</ele>
        <time>2021-07-04T06:45:51Z</time>
      </trkpt>
      <trkpt lat="47.42487" lon="-0.64352">
        <ele>57.2</ele>
        <time>2021-07-04T06:45:53Z</time>
      </trkpt>
      <trkpt lat="47.4248" lon="-0.64365">
        <ele>57.4</ele>
        <time>2021-07-04T06:45:55Z</time>
      </trkpt>
      <trkpt lat="47.42473" lon="-0.64378">
        <ele>58</ele>
        <time>2021-07-04T06:45:57Z</time>
      </trkpt>
      <trkpt lat="47.4247" lon="-0.64385">
        <ele>58</ele>
        <time>2021-07-04T06:45:58Z</time>
      </trkpt>
      <trkpt lat="47.42466" lon="-0.64391">
        <ele>58</ele>
        <time>2021-07-04T06:45:59Z</time>
      </trkpt>
      <trkpt lat="47.4246" lon="-0.64405">
        <ele>58.2</ele>
        <time>2021-07-04T06:46:01Z</time>
      </trkpt>
      <trkpt lat="47.42454" lon="-0.6442">
        <ele>58.4</ele>
        <time>2021-07-04T06:46:03Z</time>
      </trkpt>
      <trkpt lat="47.42448" lon="-0.64435">
        <ele>58.6</ele>
        <time>2021-07-04T06:46:05Z</time>
      </trkpt>
      <trkpt lat="47.42443" lon="-0.64451">
        <ele>58.6</ele>
        <time>2021-07-04T06:46:07Z</time>
      </trkpt>
      <trkpt lat="47.42438" lon="-0.64466">
        <ele>58.4</ele>
        <time>2021-07-04T06:46:09Z</time>
      </trkpt>
      <trkpt lat="47.42433" lon="-0.64481">
        <ele>58.8</ele>
        <time>2021-07-04T06:46:11Z</time>
      </trkpt>
      <trkpt lat="47.42428" lon="-0.64497">
        <ele>59</ele>
        <time>2021-07-04T06:46:13Z</time>
      </trkpt>
      <trkpt lat="47.42423" lon="-0.64513">
        <ele>59</ele>
        <time>2021-07-04T06:46:15Z</time>
      </trkpt>
      <trkpt lat="47.42418" lon="-0.64529">
        <ele>58.6</ele>
        <time>2021-07-04T06:46:17Z</time>
      </trkpt>
      <trkpt lat="47.42416" lon="-0.64537">
        <ele>58.6</ele>
        <time>2021-07-04T06:46:18Z</time>
      </trkpt>
      <trkpt lat="47.42413" lon="-0.64545">
        <ele>58.6</ele>
        <time>2021-07-04T06:46:19Z</time>
      </trkpt>
      <trkpt lat="47.42408" lon="-0.6456">
        <ele>58.8</ele>
        <time>2021-07-04T06:46:21Z</time>
      </trkpt>
      <trkpt lat="47.42404" lon="-0.64576">
        <ele>58.8</ele>
        <time>2021-07-04T06:46:23Z</time>
      </trkpt>
      <trkpt lat="47.42399" lon="-0.64591">
        <ele>59</ele>
        <time>2021-07-04T06:46:25Z</time>
      </trkpt>
      <trkpt lat="47.42396" lon="-0.64598">
        <ele>58.8</ele>
        <time>2021-07-04T06:46:26Z</time>
      </trkpt>
      <trkpt lat="47.42394" lon="-0.64604">
        <ele>59</ele>
        <time>2021-07-04T06:46:27Z</time>
      </trkpt>
      <trkpt lat="47.42389" lon="-0.64616">
        <ele>59</ele>
        <time>2021-07-04T06:46:29Z</time>
      </trkpt>
      <trkpt lat="47.42387" lon="-0.64621">
        <ele>59.2</ele>
        <time>2021-07-04T06:46:30Z</time>
      </trkpt>
      <trkpt lat="47.42387" lon="-0.64625">
        <ele>59.6</ele>
        <time>2021-07-04T06:46:31Z</time>
      </trkpt>
      <trkpt lat="47.42388" lon="-0.64632">
        <ele>60.2</ele>
        <time>2021-07-04T06:46:33Z</time>
      </trkpt>
      <trkpt lat="47.42389" lon="-0.64635">
        <ele>60.2</ele>
        <time>2021-07-04T06:46:34Z</time>
      </trkpt>
      <trkpt lat="47.42391" lon="-0.64638">
        <ele>60.4</ele>
        <time>2021-07-04T06:46:35Z</time>
      </trkpt>
      <trkpt lat="47.42395" lon="-0.64645">
        <ele>60.2</ele>
        <time>2021-07-04T06:46:37Z</time>
      </trkpt>
      <trkpt lat="47.42398" lon="-0.64652">
        <ele>59.8</ele>
        <time>2021-07-04T06:46:39Z</time>
      </trkpt>
      <trkpt lat="47.42402" lon="-0.64659">
        <ele>60</ele>
        <time>2021-07-04T06:46:41Z</time>
      </trkpt>
      <trkpt lat="47.42405" lon="-0.64667">
        <ele>60</ele>
        <time>2021-07-04T06:46:43Z</time>
      </trkpt>
      <trkpt lat="47.42406" lon="-0.6467">
        <ele>60.2</ele>
        <time>2021-07-04T06:46:44Z</time>
      </trkpt>
      <trkpt lat="47.42408" lon="-0.64673">
        <ele>60.4</ele>
        <time>2021-07-04T06:46:45Z</time>
      </trkpt>
      <trkpt lat="47.4241" lon="-0.64678">
        <ele>60.4</ele>
        <time>2021-07-04T06:46:47Z</time>
      </trkpt>
      <trkpt lat="47.42412" lon="-0.64684">
        <ele>60.2</ele>
        <time>2021-07-04T06:46:49Z</time>
      </trkpt>
      <trkpt lat="47.42414" lon="-0.64686">
        <ele>60.2</ele>
        <time>2021-07-04T06:46:50Z</time>
      </trkpt>
      <trkpt lat="47.42415" lon="-0.64688">
        <ele>60.2</ele>
        <time>2021-07-04T06:46:51Z</time>
      </trkpt>
      <trkpt lat="47.42418" lon="-0.64693">
        <ele>60</ele>
        <time>2021-07-04T06:46:53Z</time>
      </trkpt>
      <trkpt lat="47.4242" lon="-0.64698">
        <ele>60</ele>
        <time>2021-07-04T06:46:55Z</time>
      </trkpt>
      <trkpt lat="47.42421" lon="-0.647">
        <ele>60.2</ele>
        <time>2021-07-04T06:46:56Z</time>
      </trkpt>
      <trkpt lat="47.42423" lon="-0.64702">
        <ele>60.4</ele>
        <time>2021-07-04T06:46:57Z</time>
      </trkpt>
      <trkpt lat="47.42425" lon="-0.64707">
        <ele>60.6</ele>
        <time>2021-07-04T06:46:59Z</time>
      </trkpt>
      <trkpt lat="47.42427" lon="-0.64711">
        <ele>60.6</ele>
        <time>2021-07-04T06:47:01Z</time>
      </trkpt>
      <trkpt lat="47.42429" lon="-0.64715">
        <ele>61</ele>
        <time>2021-07-04T06:47:03Z</time>
      </trkpt>
      <trkpt lat="47.42431" lon="-0.6472">
        <ele>61</ele>
        <time>2021-07-04T06:47:05Z</time>
      </trkpt>
      <trkpt lat="47.42434" lon="-0.64726">
        <ele>60.6</ele>
        <time>2021-07-04T06:47:07Z</time>
      </trkpt>
      <trkpt lat="47.42436" lon="-0.64728">
        <ele>60.6</ele>
        <time>2021-07-04T06:47:08Z</time>
      </trkpt>
      <trkpt lat="47.42436" lon="-0.6473">
        <ele>60.8</ele>
        <time>2021-07-04T06:47:09Z</time>
      </trkpt>
      <trkpt lat="47.42439" lon="-0.64734">
        <ele>60.8</ele>
        <time>2021-07-04T06:47:11Z</time>
      </trkpt>
      <trkpt lat="47.4244" lon="-0.64736">
        <ele>61</ele>
        <time>2021-07-04T06:47:13Z</time>
      </trkpt>
      <trkpt lat="47.42442" lon="-0.64739">
        <ele>61</ele>
        <time>2021-07-04T06:47:15Z</time>
      </trkpt>
      <trkpt lat="47.4245" lon="-0.6475">
        <ele>61.2</ele>
        <time>2021-07-04T06:47:36Z</time>
      </trkpt>
      <trkpt lat="47.42453" lon="-0.64755">
        <ele>61</ele>
        <time>2021-07-04T06:47:38Z</time>
      </trkpt>
      <trkpt lat="47.42456" lon="-0.6476">
        <ele>60.8</ele>
        <time>2021-07-04T06:47:40Z</time>
      </trkpt>
      <trkpt lat="47.42458" lon="-0.64764">
        <ele>61.2</ele>
        <time>2021-07-04T06:47:42Z</time>
      </trkpt>
      <trkpt lat="47.42461" lon="-0.64766">
        <ele>61.4</ele>
        <time>2021-07-04T06:47:43Z</time>
      </trkpt>
      <trkpt lat="47.42463" lon="-0.6477">
        <ele>61.4</ele>
        <time>2021-07-04T06:47:44Z</time>
      </trkpt>
      <trkpt lat="47.42466" lon="-0.64774">
        <ele>61</ele>
        <time>2021-07-04T06:47:45Z</time>
      </trkpt>
      <trkpt lat="47.42469" lon="-0.64777">
        <ele>60.8</ele>
        <time>2021-07-04T06:47:46Z</time>
      </trkpt>
      <trkpt lat="47.42477" lon="-0.64784">
        <ele>60.8</ele>
        <time>2021-07-04T06:47:48Z</time>
      </trkpt>
      <trkpt lat="47.42483" lon="-0.64791">
        <ele>61.2</ele>
        <time>2021-07-04T06:47:50Z</time>
      </trkpt>
      <trkpt lat="47.42487" lon="-0.648">
        <ele>61.2</ele>
        <time>2021-07-04T06:47:52Z</time>
      </trkpt>
      <trkpt lat="47.42489" lon="-0.64804">
        <ele>61</ele>
        <time>2021-07-04T06:47:53Z</time>
      </trkpt>
      <trkpt lat="47.42491" lon="-0.64807">
        <ele>61.4</ele>
        <time>2021-07-04T06:47:54Z</time>
      </trkpt>
      <trkpt lat="47.42491" lon="-0.64816">
        <ele>61.8</ele>
        <time>2021-07-04T06:47:56Z</time>
      </trkpt>
      <trkpt lat="47.42492" lon="-0.64822">
        <ele>61.8</ele>
        <time>2021-07-04T06:47:58Z</time>
      </trkpt>
      <trkpt lat="47.42495" lon="-0.64829">
        <ele>61.8</ele>
        <time>2021-07-04T06:48:00Z</time>
      </trkpt>
      <trkpt lat="47.42497" lon="-0.64835">
        <ele>61.6</ele>
        <time>2021-07-04T06:48:02Z</time>
      </trkpt>
      <trkpt lat="47.42501" lon="-0.64841">
        <ele>61.6</ele>
        <time>2021-07-04T06:48:04Z</time>
      </trkpt>
      <trkpt lat="47.42505" lon="-0.64847">
        <ele>61.4</ele>
        <time>2021-07-04T06:48:06Z</time>
      </trkpt>
      <trkpt lat="47.42509" lon="-0.64853">
        <ele>61.6</ele>
        <time>2021-07-04T06:48:08Z</time>
      </trkpt>
      <trkpt lat="47.42514" lon="-0.64857">
        <ele>61.4</ele>
        <time>2021-07-04T06:48:10Z</time>
      </trkpt>
      <trkpt lat="47.4252" lon="-0.64862">
        <ele>61.6</ele>
        <time>2021-07-04T06:48:12Z</time>
      </trkpt>
      <trkpt lat="47.42526" lon="-0.64865">
        <ele>61.4</ele>
        <time>2021-07-04T06:48:14Z</time>
      </trkpt>
      <trkpt lat="47.42528" lon="-0.64866">
        <ele>61.6</ele>
        <time>2021-07-04T06:48:15Z</time>
      </trkpt>
      <trkpt lat="47.42531" lon="-0.64867">
        <ele>61.6</ele>
        <time>2021-07-04T06:48:16Z</time>
      </trkpt>
      <trkpt lat="47.42536" lon="-0.6487">
        <ele>61.4</ele>
        <time>2021-07-04T06:48:18Z</time>
      </trkpt>
      <trkpt lat="47.42541" lon="-0.64874">
        <ele>61.6</ele>
        <time>2021-07-04T06:48:20Z</time>
      </trkpt>
      <trkpt lat="47.42546" lon="-0.64881">
        <ele>61.4</ele>
        <time>2021-07-04T06:48:22Z</time>
      </trkpt>
      <trkpt lat="47.42552" lon="-0.64888">
        <ele>61</ele>
        <time>2021-07-04T06:48:24Z</time>
      </trkpt>
      <trkpt lat="47.42556" lon="-0.64891">
        <ele>61</ele>
        <time>2021-07-04T06:48:25Z</time>
      </trkpt>
      <trkpt lat="47.42559" lon="-0.64894">
        <ele>61.2</ele>
        <time>2021-07-04T06:48:26Z</time>
      </trkpt>
      <trkpt lat="47.42568" lon="-0.649">
        <ele>61.2</ele>
        <time>2021-07-04T06:48:28Z</time>
      </trkpt>
      <trkpt lat="47.42574" lon="-0.64906">
        <ele>61.2</ele>
        <time>2021-07-04T06:48:30Z</time>
      </trkpt>
      <trkpt lat="47.42582" lon="-0.64916">
        <ele>61.4</ele>
        <time>2021-07-04T06:48:32Z</time>
      </trkpt>
      <trkpt lat="47.42589" lon="-0.64925">
        <ele>61</ele>
        <time>2021-07-04T06:48:34Z</time>
      </trkpt>
      <trkpt lat="47.42593" lon="-0.64934">
        <ele>61</ele>
        <time>2021-07-04T06:48:36Z</time>
      </trkpt>
      <trkpt lat="47.42597" lon="-0.64941">
        <ele>61.4</ele>
        <time>2021-07-04T06:48:38Z</time>
      </trkpt>
      <trkpt lat="47.42599" lon="-0.64944">
        <ele>61</ele>
        <time>2021-07-04T06:48:39Z</time>
      </trkpt>
      <trkpt lat="47.42601" lon="-0.64947">
        <ele>60.8</ele>
        <time>2021-07-04T06:48:40Z</time>
      </trkpt>
      <trkpt lat="47.42605" lon="-0.64954">
        <ele>61.8</ele>
        <time>2021-07-04T06:48:42Z</time>
      </trkpt>
      <trkpt lat="47.42612" lon="-0.64963">
        <ele>62</ele>
        <time>2021-07-04T06:48:44Z</time>
      </trkpt>
      <trkpt lat="47.42614" lon="-0.64967">
        <ele>62.2</ele>
        <time>2021-07-04T06:48:45Z</time>
      </trkpt>
      <trkpt lat="47.42622" lon="-0.6497">
        <ele>62</ele>
        <time>2021-07-04T06:48:46Z</time>
      </trkpt>
      <trkpt lat="47.42627" lon="-0.64981">
        <ele>61.6</ele>
        <time>2021-07-04T06:48:48Z</time>
      </trkpt>
      <trkpt lat="47.42629" lon="-0.64987">
        <ele>61.4</ele>
        <time>2021-07-04T06:48:49Z</time>
      </trkpt>
      <trkpt lat="47.42631" lon="-0.64995">
        <ele>61.2</ele>
        <time>2021-07-04T06:48:50Z</time>
      </trkpt>
      <trkpt lat="47.42632" lon="-0.65002">
        <ele>61.2</ele>
        <time>2021-07-04T06:48:51Z</time>
      </trkpt>
      <trkpt lat="47.42631" lon="-0.65009">
        <ele>61.2</ele>
        <time>2021-07-04T06:48:52Z</time>
      </trkpt>
      <trkpt lat="47.42632" lon="-0.65025">
        <ele>61</ele>
        <time>2021-07-04T06:48:54Z</time>
      </trkpt>
      <trkpt lat="47.42634" lon="-0.65041">
        <ele>60.8</ele>
        <time>2021-07-04T06:48:56Z</time>
      </trkpt>
      <trkpt lat="47.42639" lon="-0.65055">
        <ele>60.6</ele>
        <time>2021-07-04T06:48:58Z</time>
      </trkpt>
      <trkpt lat="47.42641" lon="-0.65061">
        <ele>60.6</ele>
        <time>2021-07-04T06:48:59Z</time>
      </trkpt>
      <trkpt lat="47.42644" lon="-0.65068">
        <ele>60.6</ele>
        <time>2021-07-04T06:49:00Z</time>
      </trkpt>
      <trkpt lat="47.42647" lon="-0.65075">
        <ele>60.4</ele>
        <time>2021-07-04T06:49:01Z</time>
      </trkpt>
      <trkpt lat="47.42649" lon="-0.65082">
        <ele>60.4</ele>
        <time>2021-07-04T06:49:02Z</time>
      </trkpt>
      <trkpt lat="47.42654" lon="-0.65096">
        <ele>60.4</ele>
        <time>2021-07-04T06:49:04Z</time>
      </trkpt>
      <trkpt lat="47.42656" lon="-0.65104">
        <ele>60.6</ele>
        <time>2021-07-04T06:49:05Z</time>
      </trkpt>
      <trkpt lat="47.42657" lon="-0.65111">
        <ele>60.6</ele>
        <time>2021-07-04T06:49:06Z</time>
      </trkpt>
      <trkpt lat="47.42657" lon="-0.65127">
        <ele>60.6</ele>
        <time>2021-07-04T06:49:08Z</time>
      </trkpt>
      <trkpt lat="47.42658" lon="-0.65136">
        <ele>60.4</ele>
        <time>2021-07-04T06:49:09Z</time>
      </trkpt>
      <trkpt lat="47.42658" lon="-0.65144">
        <ele>60.4</ele>
        <time>2021-07-04T06:49:10Z</time>
      </trkpt>
      <trkpt lat="47.42659" lon="-0.65153">
        <ele>60.2</ele>
        <time>2021-07-04T06:49:11Z</time>
      </trkpt>
      <trkpt lat="47.42659" lon="-0.65159">
        <ele>60.4</ele>
        <time>2021-07-04T06:49:12Z</time>
      </trkpt>
      <trkpt lat="47.42659" lon="-0.65166">
        <ele>60.2</ele>
        <time>2021-07-04T06:49:13Z</time>
      </trkpt>
      <trkpt lat="47.42657" lon="-0.65174">
        <ele>60</ele>
        <time>2021-07-04T06:49:14Z</time>
      </trkpt>
      <trkpt lat="47.42653" lon="-0.65191">
        <ele>60</ele>
        <time>2021-07-04T06:49:16Z</time>
      </trkpt>
      <trkpt lat="47.42652" lon="-0.65199">
        <ele>60</ele>
        <time>2021-07-04T06:49:17Z</time>
      </trkpt>
      <trkpt lat="47.42651" lon="-0.65208">
        <ele>60</ele>
        <time>2021-07-04T06:49:18Z</time>
      </trkpt>
      <trkpt lat="47.42648" lon="-0.65221">
        <ele>60</ele>
        <time>2021-07-04T06:49:20Z</time>
      </trkpt>
      <trkpt lat="47.42646" lon="-0.65228">
        <ele>59.8</ele>
        <time>2021-07-04T06:49:21Z</time>
      </trkpt>
      <trkpt lat="47.42644" lon="-0.65234">
        <ele>60</ele>
        <time>2021-07-04T06:49:22Z</time>
      </trkpt>
      <trkpt lat="47.42639" lon="-0.65245">
        <ele>59.8</ele>
        <time>2021-07-04T06:49:24Z</time>
      </trkpt>
      <trkpt lat="47.42637" lon="-0.65251">
        <ele>59.6</ele>
        <time>2021-07-04T06:49:25Z</time>
      </trkpt>
      <trkpt lat="47.42634" lon="-0.65257">
        <ele>59.6</ele>
        <time>2021-07-04T06:49:26Z</time>
      </trkpt>
      <trkpt lat="47.42628" lon="-0.6527">
        <ele>59.8</ele>
        <time>2021-07-04T06:49:28Z</time>
      </trkpt>
      <trkpt lat="47.42622" lon="-0.65284">
        <ele>60.2</ele>
        <time>2021-07-04T06:49:30Z</time>
      </trkpt>
      <trkpt lat="47.42618" lon="-0.65297">
        <ele>60</ele>
        <time>2021-07-04T06:49:32Z</time>
      </trkpt>
      <trkpt lat="47.42612" lon="-0.6531">
        <ele>60.2</ele>
        <time>2021-07-04T06:49:34Z</time>
      </trkpt>
      <trkpt lat="47.4261" lon="-0.65316">
        <ele>60.8</ele>
        <time>2021-07-04T06:49:35Z</time>
      </trkpt>
      <trkpt lat="47.42607" lon="-0.65321">
        <ele>60.8</ele>
        <time>2021-07-04T06:49:36Z</time>
      </trkpt>
      <trkpt lat="47.42605" lon="-0.65327">
        <ele>60.6</ele>
        <time>2021-07-04T06:49:37Z</time>
      </trkpt>
      <trkpt lat="47.42604" lon="-0.65333">
        <ele>60.6</ele>
        <time>2021-07-04T06:49:38Z</time>
      </trkpt>
      <trkpt lat="47.42602" lon="-0.65338">
        <ele>61</ele>
        <time>2021-07-04T06:49:39Z</time>
      </trkpt>
      <trkpt lat="47.42599" lon="-0.65344">
        <ele>61.2</ele>
        <time>2021-07-04T06:49:40Z</time>
      </trkpt>
      <trkpt lat="47.42594" lon="-0.65357">
        <ele>60.6</ele>
        <time>2021-07-04T06:49:42Z</time>
      </trkpt>
      <trkpt lat="47.42591" lon="-0.65364">
        <ele>60.8</ele>
        <time>2021-07-04T06:49:43Z</time>
      </trkpt>
      <trkpt lat="47.42589" lon="-0.6537">
        <ele>60.6</ele>
        <time>2021-07-04T06:49:44Z</time>
      </trkpt>
      <trkpt lat="47.42584" lon="-0.65385">
        <ele>60.6</ele>
        <time>2021-07-04T06:49:46Z</time>
      </trkpt>
      <trkpt lat="47.42581" lon="-0.654">
        <ele>60.6</ele>
        <time>2021-07-04T06:49:48Z</time>
      </trkpt>
      <trkpt lat="47.42581" lon="-0.65415">
        <ele>60.8</ele>
        <time>2021-07-04T06:49:50Z</time>
      </trkpt>
      <trkpt lat="47.42581" lon="-0.65423">
        <ele>61</ele>
        <time>2021-07-04T06:49:51Z</time>
      </trkpt>
      <trkpt lat="47.4258" lon="-0.65431">
        <ele>61.2</ele>
        <time>2021-07-04T06:49:52Z</time>
      </trkpt>
      <trkpt lat="47.4258" lon="-0.65439">
        <ele>61</ele>
        <time>2021-07-04T06:49:53Z</time>
      </trkpt>
      <trkpt lat="47.4258" lon="-0.65448">
        <ele>61.2</ele>
        <time>2021-07-04T06:49:54Z</time>
      </trkpt>
      <trkpt lat="47.42581" lon="-0.65463">
        <ele>61.4</ele>
        <time>2021-07-04T06:49:56Z</time>
      </trkpt>
      <trkpt lat="47.4258" lon="-0.6547">
        <ele>61.4</ele>
        <time>2021-07-04T06:49:57Z</time>
      </trkpt>
      <trkpt lat="47.4258" lon="-0.65478">
        <ele>61.4</ele>
        <time>2021-07-04T06:49:58Z</time>
      </trkpt>
      <trkpt lat="47.4258" lon="-0.65495">
        <ele>61.2</ele>
        <time>2021-07-04T06:50:00Z</time>
      </trkpt>
      <trkpt lat="47.42582" lon="-0.6551">
        <ele>61.2</ele>
        <time>2021-07-04T06:50:02Z</time>
      </trkpt>
      <trkpt lat="47.42584" lon="-0.65518">
        <ele>61.4</ele>
        <time>2021-07-04T06:50:03Z</time>
      </trkpt>
      <trkpt lat="47.42586" lon="-0.65525">
        <ele>61.6</ele>
        <time>2021-07-04T06:50:04Z</time>
      </trkpt>
      <trkpt lat="47.4259" lon="-0.65539">
        <ele>62</ele>
        <time>2021-07-04T06:50:06Z</time>
      </trkpt>
      <trkpt lat="47.42595" lon="-0.65553">
        <ele>62.2</ele>
        <time>2021-07-04T06:50:08Z</time>
      </trkpt>
      <trkpt lat="47.42597" lon="-0.65559">
        <ele>62.4</ele>
        <time>2021-07-04T06:50:09Z</time>
      </trkpt>
      <trkpt lat="47.42601" lon="-0.65565">
        <ele>62.4</ele>
        <time>2021-07-04T06:50:10Z</time>
      </trkpt>
      <trkpt lat="47.42607" lon="-0.65579">
        <ele>62.2</ele>
        <time>2021-07-04T06:50:12Z</time>
      </trkpt>
      <trkpt lat="47.42612" lon="-0.65595">
        <ele>62.2</ele>
        <time>2021-07-04T06:50:14Z</time>
      </trkpt>
      <trkpt lat="47.42617" lon="-0.65609">
        <ele>62.2</ele>
        <time>2021-07-04T06:50:16Z</time>
      </trkpt>
      <trkpt lat="47.42621" lon="-0.65623">
        <ele>62.4</ele>
        <time>2021-07-04T06:50:18Z</time>
      </trkpt>
      <trkpt lat="47.42624" lon="-0.65629">
        <ele>62.4</ele>
        <time>2021-07-04T06:50:19Z</time>
      </trkpt>
      <trkpt lat="47.42627" lon="-0.65637">
        <ele>62.4</ele>
        <time>2021-07-04T06:50:20Z</time>
      </trkpt>
      <trkpt lat="47.42629" lon="-0.65644">
        <ele>62.6</ele>
        <time>2021-07-04T06:50:21Z</time>
      </trkpt>
      <trkpt lat="47.42629" lon="-0.65652">
        <ele>62.8</ele>
        <time>2021-07-04T06:50:22Z</time>
      </trkpt>
      <trkpt lat="47.42629" lon="-0.65667">
        <ele>62.8</ele>
        <time>2021-07-04T06:50:24Z</time>
      </trkpt>
      <trkpt lat="47.42627" lon="-0.65683">
        <ele>62.8</ele>
        <time>2021-07-04T06:50:26Z</time>
      </trkpt>
      <trkpt lat="47.42625" lon="-0.65698">
        <ele>63.2</ele>
        <time>2021-07-04T06:50:28Z</time>
      </trkpt>
      <trkpt lat="47.42623" lon="-0.65706">
        <ele>63.4</ele>
        <time>2021-07-04T06:50:29Z</time>
      </trkpt>
      <trkpt lat="47.42622" lon="-0.65715">
        <ele>63.4</ele>
        <time>2021-07-04T06:50:30Z</time>
      </trkpt>
      <trkpt lat="47.4262" lon="-0.65731">
        <ele>63.2</ele>
        <time>2021-07-04T06:50:32Z</time>
      </trkpt>
      <trkpt lat="47.42619" lon="-0.65749">
        <ele>63.6</ele>
        <time>2021-07-04T06:50:34Z</time>
      </trkpt>
      <trkpt lat="47.42618" lon="-0.65757">
        <ele>63.4</ele>
        <time>2021-07-04T06:50:35Z</time>
      </trkpt>
      <trkpt lat="47.42617" lon="-0.65766">
        <ele>63.4</ele>
        <time>2021-07-04T06:50:36Z</time>
      </trkpt>
      <trkpt lat="47.42615" lon="-0.65781">
        <ele>63.4</ele>
        <time>2021-07-04T06:50:38Z</time>
      </trkpt>
      <trkpt lat="47.42614" lon="-0.65789">
        <ele>63.4</ele>
        <time>2021-07-04T06:50:39Z</time>
      </trkpt>
      <trkpt lat="47.42613" lon="-0.65797">
        <ele>63.4</ele>
        <time>2021-07-04T06:50:40Z</time>
      </trkpt>
      <trkpt lat="47.42611" lon="-0.65804">
        <ele>63.2</ele>
        <time>2021-07-04T06:50:41Z</time>
      </trkpt>
      <trkpt lat="47.4261" lon="-0.65813">
        <ele>63.2</ele>
        <time>2021-07-04T06:50:42Z</time>
      </trkpt>
      <trkpt lat="47.42606" lon="-0.65829">
        <ele>63.4</ele>
        <time>2021-07-04T06:50:44Z</time>
      </trkpt>
      <trkpt lat="47.42603" lon="-0.65844">
        <ele>63.2</ele>
        <time>2021-07-04T06:50:46Z</time>
      </trkpt>
      <trkpt lat="47.426" lon="-0.65859">
        <ele>63</ele>
        <time>2021-07-04T06:50:48Z</time>
      </trkpt>
      <trkpt lat="47.42598" lon="-0.65868">
        <ele>62.8</ele>
        <time>2021-07-04T06:50:49Z</time>
      </trkpt>
      <trkpt lat="47.42597" lon="-0.65877">
        <ele>63</ele>
        <time>2021-07-04T06:50:50Z</time>
      </trkpt>
      <trkpt lat="47.42596" lon="-0.65896">
        <ele>63</ele>
        <time>2021-07-04T06:50:52Z</time>
      </trkpt>
      <trkpt lat="47.42595" lon="-0.65915">
        <ele>63</ele>
        <time>2021-07-04T06:50:54Z</time>
      </trkpt>
      <trkpt lat="47.42595" lon="-0.65934">
        <ele>63</ele>
        <time>2021-07-04T06:50:56Z</time>
      </trkpt>
      <trkpt lat="47.42594" lon="-0.65951">
        <ele>62.6</ele>
        <time>2021-07-04T06:50:58Z</time>
      </trkpt>
      <trkpt lat="47.42596" lon="-0.65968">
        <ele>62.6</ele>
        <time>2021-07-04T06:51:00Z</time>
      </trkpt>
      <trkpt lat="47.42597" lon="-0.6598">
        <ele>63.2</ele>
        <time>2021-07-04T06:51:02Z</time>
      </trkpt>
      <trkpt lat="47.42597" lon="-0.65985">
        <ele>63.4</ele>
        <time>2021-07-04T06:51:03Z</time>
      </trkpt>
      <trkpt lat="47.42597" lon="-0.6599">
        <ele>63.8</ele>
        <time>2021-07-04T06:51:04Z</time>
      </trkpt>
      <trkpt lat="47.42599" lon="-0.66002">
        <ele>64</ele>
        <time>2021-07-04T06:51:06Z</time>
      </trkpt>
      <trkpt lat="47.426" lon="-0.66014">
        <ele>63.8</ele>
        <time>2021-07-04T06:51:08Z</time>
      </trkpt>
      <trkpt lat="47.42602" lon="-0.66026">
        <ele>63.8</ele>
        <time>2021-07-04T06:51:10Z</time>
      </trkpt>
      <trkpt lat="47.42603" lon="-0.66041">
        <ele>63.2</ele>
        <time>2021-07-04T06:51:12Z</time>
      </trkpt>
      <trkpt lat="47.42604" lon="-0.66056">
        <ele>63.2</ele>
        <time>2021-07-04T06:51:14Z</time>
      </trkpt>
      <trkpt lat="47.42605" lon="-0.6607">
        <ele>62.8</ele>
        <time>2021-07-04T06:51:16Z</time>
      </trkpt>
      <trkpt lat="47.42605" lon="-0.66087">
        <ele>63</ele>
        <time>2021-07-04T06:51:18Z</time>
      </trkpt>
      <trkpt lat="47.42605" lon="-0.66101">
        <ele>63.2</ele>
        <time>2021-07-04T06:51:20Z</time>
      </trkpt>
      <trkpt lat="47.42605" lon="-0.66114">
        <ele>63.8</ele>
        <time>2021-07-04T06:51:22Z</time>
      </trkpt>
      <trkpt lat="47.42605" lon="-0.66119">
        <ele>63.6</ele>
        <time>2021-07-04T06:51:23Z</time>
      </trkpt>
      <trkpt lat="47.42606" lon="-0.66125">
        <ele>64</ele>
        <time>2021-07-04T06:51:24Z</time>
      </trkpt>
      <trkpt lat="47.42607" lon="-0.66138">
        <ele>64.2</ele>
        <time>2021-07-04T06:51:26Z</time>
      </trkpt>
      <trkpt lat="47.42608" lon="-0.66145">
        <ele>64.2</ele>
        <time>2021-07-04T06:51:27Z</time>
      </trkpt>
      <trkpt lat="47.42609" lon="-0.66151">
        <ele>64.4</ele>
        <time>2021-07-04T06:51:28Z</time>
      </trkpt>
      <trkpt lat="47.42612" lon="-0.66164">
        <ele>63.8</ele>
        <time>2021-07-04T06:51:30Z</time>
      </trkpt>
      <trkpt lat="47.42615" lon="-0.66177">
        <ele>63.8</ele>
        <time>2021-07-04T06:51:32Z</time>
      </trkpt>
      <trkpt lat="47.42616" lon="-0.66183">
        <ele>63.8</ele>
        <time>2021-07-04T06:51:33Z</time>
      </trkpt>
      <trkpt lat="47.42617" lon="-0.6619">
        <ele>64.2</ele>
        <time>2021-07-04T06:51:34Z</time>
      </trkpt>
      <trkpt lat="47.4262" lon="-0.66202">
        <ele>64.4</ele>
        <time>2021-07-04T06:51:36Z</time>
      </trkpt>
      <trkpt lat="47.42625" lon="-0.66214">
        <ele>64.2</ele>
        <time>2021-07-04T06:51:38Z</time>
      </trkpt>
      <trkpt lat="47.42629" lon="-0.66227">
        <ele>64.2</ele>
        <time>2021-07-04T06:51:40Z</time>
      </trkpt>
      <trkpt lat="47.42633" lon="-0.66242">
        <ele>63.8</ele>
        <time>2021-07-04T06:51:42Z</time>
      </trkpt>
      <trkpt lat="47.42636" lon="-0.66256">
        <ele>63.8</ele>
        <time>2021-07-04T06:51:44Z</time>
      </trkpt>
      <trkpt lat="47.42639" lon="-0.66262">
        <ele>63.8</ele>
        <time>2021-07-04T06:51:45Z</time>
      </trkpt>
      <trkpt lat="47.42641" lon="-0.66269">
        <ele>64</ele>
        <time>2021-07-04T06:51:46Z</time>
      </trkpt>
      <trkpt lat="47.42644" lon="-0.66275">
        <ele>63.8</ele>
        <time>2021-07-04T06:51:47Z</time>
      </trkpt>
      <trkpt lat="47.42647" lon="-0.66281">
        <ele>64</ele>
        <time>2021-07-04T06:51:48Z</time>
      </trkpt>
      <trkpt lat="47.42652" lon="-0.66293">
        <ele>64.2</ele>
        <time>2021-07-04T06:51:50Z</time>
      </trkpt>
      <trkpt lat="47.42655" lon="-0.66308">
        <ele>64.6</ele>
        <time>2021-07-04T06:51:52Z</time>
      </trkpt>
      <trkpt lat="47.42659" lon="-0.66318">
        <ele>64.8</ele>
        <time>2021-07-04T06:51:54Z</time>
      </trkpt>
      <trkpt lat="47.4266" lon="-0.66321">
        <ele>65</ele>
        <time>2021-07-04T06:51:55Z</time>
      </trkpt>
      <trkpt lat="47.4266" lon="-0.66323">
        <ele>65.2</ele>
        <time>2021-07-04T06:51:56Z</time>
      </trkpt>
      <trkpt lat="47.42659" lon="-0.66325">
        <ele>64.8</ele>
        <time>2021-07-04T06:51:58Z</time>
      </trkpt>
      <trkpt lat="47.42656" lon="-0.66327">
        <ele>64.6</ele>
        <time>2021-07-04T06:51:59Z</time>
      </trkpt>
      <trkpt lat="47.42652" lon="-0.6633">
        <ele>64.2</ele>
        <time>2021-07-04T06:52:00Z</time>
      </trkpt>
      <trkpt lat="47.42648" lon="-0.66331">
        <ele>64</ele>
        <time>2021-07-04T06:52:01Z</time>
      </trkpt>
      <trkpt lat="47.42643" lon="-0.66332">
        <ele>64.2</ele>
        <time>2021-07-04T06:52:02Z</time>
      </trkpt>
      <trkpt lat="47.42635" lon="-0.66336">
        <ele>64.2</ele>
        <time>2021-07-04T06:52:04Z</time>
      </trkpt>
      <trkpt lat="47.4263" lon="-0.66339">
        <ele>64.2</ele>
        <time>2021-07-04T06:52:05Z</time>
      </trkpt>
      <trkpt lat="47.42625" lon="-0.66342">
        <ele>64</ele>
        <time>2021-07-04T06:52:06Z</time>
      </trkpt>
      <trkpt lat="47.42615" lon="-0.66347">
        <ele>63.6</ele>
        <time>2021-07-04T06:52:08Z</time>
      </trkpt>
      <trkpt lat="47.42605" lon="-0.66351">
        <ele>63.4</ele>
        <time>2021-07-04T06:52:10Z</time>
      </trkpt>
      <trkpt lat="47.426" lon="-0.66353">
        <ele>63.4</ele>
        <time>2021-07-04T06:52:11Z</time>
      </trkpt>
      <trkpt lat="47.42594" lon="-0.66355">
        <ele>63.4</ele>
        <time>2021-07-04T06:52:12Z</time>
      </trkpt>
      <trkpt lat="47.42584" lon="-0.66356">
        <ele>64</ele>
        <time>2021-07-04T06:52:14Z</time>
      </trkpt>
      <trkpt lat="47.42572" lon="-0.66358">
        <ele>63.4</ele>
        <time>2021-07-04T06:52:16Z</time>
      </trkpt>
      <trkpt lat="47.42566" lon="-0.66359">
        <ele>63.2</ele>
        <time>2021-07-04T06:52:17Z</time>
      </trkpt>
      <trkpt lat="47.42559" lon="-0.66359">
        <ele>62.8</ele>
        <time>2021-07-04T06:52:18Z</time>
      </trkpt>
      <trkpt lat="47.42548" lon="-0.6636">
        <ele>62.6</ele>
        <time>2021-07-04T06:52:20Z</time>
      </trkpt>
      <trkpt lat="47.42535" lon="-0.66361">
        <ele>62.8</ele>
        <time>2021-07-04T06:52:22Z</time>
      </trkpt>
      <trkpt lat="47.42529" lon="-0.66362">
        <ele>62.6</ele>
        <time>2021-07-04T06:52:23Z</time>
      </trkpt>
      <trkpt lat="47.42522" lon="-0.66363">
        <ele>62.8</ele>
        <time>2021-07-04T06:52:24Z</time>
      </trkpt>
      <trkpt lat="47.42509" lon="-0.66365">
        <ele>63.2</ele>
        <time>2021-07-04T06:52:26Z</time>
      </trkpt>
      <trkpt lat="47.42496" lon="-0.66366">
        <ele>63.2</ele>
        <time>2021-07-04T06:52:28Z</time>
      </trkpt>
      <trkpt lat="47.42483" lon="-0.66368">
        <ele>63.4</ele>
        <time>2021-07-04T06:52:30Z</time>
      </trkpt>
      <trkpt lat="47.42471" lon="-0.6637">
        <ele>63.2</ele>
        <time>2021-07-04T06:52:32Z</time>
      </trkpt>
      <trkpt lat="47.42459" lon="-0.66372">
        <ele>63</ele>
        <time>2021-07-04T06:52:34Z</time>
      </trkpt>
      <trkpt lat="47.42447" lon="-0.66373">
        <ele>62.8</ele>
        <time>2021-07-04T06:52:36Z</time>
      </trkpt>
      <trkpt lat="47.42435" lon="-0.66374">
        <ele>63.2</ele>
        <time>2021-07-04T06:52:38Z</time>
      </trkpt>
      <trkpt lat="47.42423" lon="-0.66374">
        <ele>63.8</ele>
        <time>2021-07-04T06:52:40Z</time>
      </trkpt>
      <trkpt lat="47.42417" lon="-0.66375">
        <ele>63.6</ele>
        <time>2021-07-04T06:52:41Z</time>
      </trkpt>
      <trkpt lat="47.4241" lon="-0.66377">
        <ele>63.6</ele>
        <time>2021-07-04T06:52:42Z</time>
      </trkpt>
      <trkpt lat="47.42398" lon="-0.66379">
        <ele>63.6</ele>
        <time>2021-07-04T06:52:44Z</time>
      </trkpt>
      <trkpt lat="47.42393" lon="-0.66381">
        <ele>63.6</ele>
        <time>2021-07-04T06:52:45Z</time>
      </trkpt>
      <trkpt lat="47.42387" lon="-0.66382">
        <ele>63.8</ele>
        <time>2021-07-04T06:52:46Z</time>
      </trkpt>
      <trkpt lat="47.42376" lon="-0.66385">
        <ele>63.8</ele>
        <time>2021-07-04T06:52:48Z</time>
      </trkpt>
      <trkpt lat="47.42365" lon="-0.66388">
        <ele>63.8</ele>
        <time>2021-07-04T06:52:50Z</time>
      </trkpt>
      <trkpt lat="47.42354" lon="-0.66391">
        <ele>64</ele>
        <time>2021-07-04T06:52:52Z</time>
      </trkpt>
      <trkpt lat="47.42344" lon="-0.66394">
        <ele>64.4</ele>
        <time>2021-07-04T06:52:54Z</time>
      </trkpt>
      <trkpt lat="47.42334" lon="-0.66397">
        <ele>64.6</ele>
        <time>2021-07-04T06:52:56Z</time>
      </trkpt>
      <trkpt lat="47.42329" lon="-0.66398">
        <ele>65</ele>
        <time>2021-07-04T06:52:57Z</time>
      </trkpt>
      <trkpt lat="47.42323" lon="-0.664">
        <ele>65</ele>
        <time>2021-07-04T06:52:58Z</time>
      </trkpt>
      <trkpt lat="47.42314" lon="-0.66401">
        <ele>65</ele>
        <time>2021-07-04T06:53:00Z</time>
      </trkpt>
      <trkpt lat="47.42304" lon="-0.66405">
        <ele>65.2</ele>
        <time>2021-07-04T06:53:02Z</time>
      </trkpt>
      <trkpt lat="47.42295" lon="-0.66407">
        <ele>65.4</ele>
        <time>2021-07-04T06:53:04Z</time>
      </trkpt>
      <trkpt lat="47.42285" lon="-0.66409">
        <ele>66</ele>
        <time>2021-07-04T06:53:06Z</time>
      </trkpt>
      <trkpt lat="47.4228" lon="-0.6641">
        <ele>66</ele>
        <time>2021-07-04T06:53:07Z</time>
      </trkpt>
      <trkpt lat="47.42274" lon="-0.66411">
        <ele>66.2</ele>
        <time>2021-07-04T06:53:08Z</time>
      </trkpt>
      <trkpt lat="47.42264" lon="-0.66413">
        <ele>66</ele>
        <time>2021-07-04T06:53:10Z</time>
      </trkpt>
      <trkpt lat="47.42258" lon="-0.66413">
        <ele>65.8</ele>
        <time>2021-07-04T06:53:11Z</time>
      </trkpt>
      <trkpt lat="47.42252" lon="-0.66414">
        <ele>66</ele>
        <time>2021-07-04T06:53:12Z</time>
      </trkpt>
      <trkpt lat="47.42241" lon="-0.66415">
        <ele>66.4</ele>
        <time>2021-07-04T06:53:14Z</time>
      </trkpt>
      <trkpt lat="47.42229" lon="-0.66417">
        <ele>66.6</ele>
        <time>2021-07-04T06:53:16Z</time>
      </trkpt>
      <trkpt lat="47.42218" lon="-0.66418">
        <ele>66.4</ele>
        <time>2021-07-04T06:53:18Z</time>
      </trkpt>
      <trkpt lat="47.42206" lon="-0.66418">
        <ele>66.6</ele>
        <time>2021-07-04T06:53:20Z</time>
      </trkpt>
      <trkpt lat="47.42195" lon="-0.6642">
        <ele>66.6</ele>
        <time>2021-07-04T06:53:22Z</time>
      </trkpt>
      <trkpt lat="47.42184" lon="-0.66422">
        <ele>66.2</ele>
        <time>2021-07-04T06:53:24Z</time>
      </trkpt>
      <trkpt lat="47.42179" lon="-0.66422">
        <ele>66.2</ele>
        <time>2021-07-04T06:53:25Z</time>
      </trkpt>
      <trkpt lat="47.42174" lon="-0.66423">
        <ele>65.8</ele>
        <time>2021-07-04T06:53:26Z</time>
      </trkpt>
      <trkpt lat="47.42163" lon="-0.66424">
        <ele>66</ele>
        <time>2021-07-04T06:53:28Z</time>
      </trkpt>
      <trkpt lat="47.4215" lon="-0.66425">
        <ele>66.6</ele>
        <time>2021-07-04T06:53:30Z</time>
      </trkpt>
      <trkpt lat="47.42144" lon="-0.66426">
        <ele>66.6</ele>
        <time>2021-07-04T06:53:31Z</time>
      </trkpt>
      <trkpt lat="47.42138" lon="-0.66427">
        <ele>66.6</ele>
        <time>2021-07-04T06:53:32Z</time>
      </trkpt>
      <trkpt lat="47.42127" lon="-0.66428">
        <ele>66.4</ele>
        <time>2021-07-04T06:53:34Z</time>
      </trkpt>
      <trkpt lat="47.42117" lon="-0.66429">
        <ele>66.2</ele>
        <time>2021-07-04T06:53:36Z</time>
      </trkpt>
      <trkpt lat="47.42107" lon="-0.66431">
        <ele>66.4</ele>
        <time>2021-07-04T06:53:38Z</time>
      </trkpt>
      <trkpt lat="47.42103" lon="-0.66431">
        <ele>66.6</ele>
        <time>2021-07-04T06:53:39Z</time>
      </trkpt>
      <trkpt lat="47.42099" lon="-0.66429">
        <ele>66.6</ele>
        <time>2021-07-04T06:53:40Z</time>
      </trkpt>
      <trkpt lat="47.42095" lon="-0.66424">
        <ele>67.2</ele>
        <time>2021-07-04T06:53:42Z</time>
      </trkpt>
      <trkpt lat="47.42093" lon="-0.66415">
        <ele>67.4</ele>
        <time>2021-07-04T06:53:44Z</time>
      </trkpt>
      <trkpt lat="47.42093" lon="-0.66402">
        <ele>66.8</ele>
        <time>2021-07-04T06:53:46Z</time>
      </trkpt>
      <trkpt lat="47.42094" lon="-0.66395">
        <ele>66.6</ele>
        <time>2021-07-04T06:53:47Z</time>
      </trkpt>
      <trkpt lat="47.42096" lon="-0.66387">
        <ele>66.2</ele>
        <time>2021-07-04T06:53:48Z</time>
      </trkpt>
      <trkpt lat="47.42097" lon="-0.66378">
        <ele>66</ele>
        <time>2021-07-04T06:53:49Z</time>
      </trkpt>
      <trkpt lat="47.42099" lon="-0.6637">
        <ele>65.8</ele>
        <time>2021-07-04T06:53:50Z</time>
      </trkpt>
      <trkpt lat="47.42102" lon="-0.66351">
        <ele>65.2</ele>
        <time>2021-07-04T06:53:52Z</time>
      </trkpt>
      <trkpt lat="47.42104" lon="-0.66332">
        <ele>64.8</ele>
        <time>2021-07-04T06:53:54Z</time>
      </trkpt>
      <trkpt lat="47.42107" lon="-0.66314">
        <ele>64.8</ele>
        <time>2021-07-04T06:53:56Z</time>
      </trkpt>
      <trkpt lat="47.4211" lon="-0.66294">
        <ele>64.4</ele>
        <time>2021-07-04T06:53:58Z</time>
      </trkpt>
      <trkpt lat="47.42111" lon="-0.66284">
        <ele>64.2</ele>
        <time>2021-07-04T06:53:59Z</time>
      </trkpt>
      <trkpt lat="47.42111" lon="-0.66275">
        <ele>64</ele>
        <time>2021-07-04T06:54:00Z</time>
      </trkpt>
      <trkpt lat="47.42112" lon="-0.66265">
        <ele>63.8</ele>
        <time>2021-07-04T06:54:01Z</time>
      </trkpt>
      <trkpt lat="47.42112" lon="-0.66255">
        <ele>63.6</ele>
        <time>2021-07-04T06:54:02Z</time>
      </trkpt>
      <trkpt lat="47.42111" lon="-0.66245">
        <ele>63.6</ele>
        <time>2021-07-04T06:54:03Z</time>
      </trkpt>
      <trkpt lat="47.42111" lon="-0.66235">
        <ele>63.6</ele>
        <time>2021-07-04T06:54:04Z</time>
      </trkpt>
      <trkpt lat="47.42107" lon="-0.66216">
        <ele>63</ele>
        <time>2021-07-04T06:54:06Z</time>
      </trkpt>
      <trkpt lat="47.42104" lon="-0.66206">
        <ele>62.4</ele>
        <time>2021-07-04T06:54:07Z</time>
      </trkpt>
      <trkpt lat="47.421" lon="-0.66197">
        <ele>62.2</ele>
        <time>2021-07-04T06:54:08Z</time>
      </trkpt>
      <trkpt lat="47.42095" lon="-0.66189">
        <ele>61.4</ele>
        <time>2021-07-04T06:54:09Z</time>
      </trkpt>
      <trkpt lat="47.42091" lon="-0.66181">
        <ele>61.2</ele>
        <time>2021-07-04T06:54:10Z</time>
      </trkpt>
      <trkpt lat="47.4208" lon="-0.66168">
        <ele>61.4</ele>
        <time>2021-07-04T06:54:12Z</time>
      </trkpt>
      <trkpt lat="47.42074" lon="-0.66161">
        <ele>61.4</ele>
        <time>2021-07-04T06:54:13Z</time>
      </trkpt>
      <trkpt lat="47.42069" lon="-0.66155">
        <ele>61.2</ele>
        <time>2021-07-04T06:54:14Z</time>
      </trkpt>
      <trkpt lat="47.42058" lon="-0.66144">
        <ele>61</ele>
        <time>2021-07-04T06:54:16Z</time>
      </trkpt>
      <trkpt lat="47.42048" lon="-0.66133">
        <ele>60.8</ele>
        <time>2021-07-04T06:54:18Z</time>
      </trkpt>
      <trkpt lat="47.42037" lon="-0.66122">
        <ele>60.8</ele>
        <time>2021-07-04T06:54:20Z</time>
      </trkpt>
      <trkpt lat="47.42027" lon="-0.66111">
        <ele>61</ele>
        <time>2021-07-04T06:54:22Z</time>
      </trkpt>
      <trkpt lat="47.42017" lon="-0.66099">
        <ele>61.2</ele>
        <time>2021-07-04T06:54:24Z</time>
      </trkpt>
      <trkpt lat="47.42006" lon="-0.66088">
        <ele>61</ele>
        <time>2021-07-04T06:54:26Z</time>
      </trkpt>
      <trkpt lat="47.41996" lon="-0.66078">
        <ele>60.6</ele>
        <time>2021-07-04T06:54:28Z</time>
      </trkpt>
      <trkpt lat="47.41985" lon="-0.66066">
        <ele>60.4</ele>
        <time>2021-07-04T06:54:30Z</time>
      </trkpt>
      <trkpt lat="47.41975" lon="-0.66055">
        <ele>60.6</ele>
        <time>2021-07-04T06:54:32Z</time>
      </trkpt>
      <trkpt lat="47.4197" lon="-0.66049">
        <ele>60.4</ele>
        <time>2021-07-04T06:54:33Z</time>
      </trkpt>
      <trkpt lat="47.41965" lon="-0.66042">
        <ele>59.8</ele>
        <time>2021-07-04T06:54:34Z</time>
      </trkpt>
      <trkpt lat="47.41956" lon="-0.66027">
        <ele>59.4</ele>
        <time>2021-07-04T06:54:36Z</time>
      </trkpt>
      <trkpt lat="47.41951" lon="-0.66019">
        <ele>59</ele>
        <time>2021-07-04T06:54:37Z</time>
      </trkpt>
      <trkpt lat="47.41947" lon="-0.6601">
        <ele>58.8</ele>
        <time>2021-07-04T06:54:38Z</time>
      </trkpt>
      <trkpt lat="47.4194" lon="-0.65991">
        <ele>58.4</ele>
        <time>2021-07-04T06:54:40Z</time>
      </trkpt>
      <trkpt lat="47.41934" lon="-0.6597">
        <ele>57.8</ele>
        <time>2021-07-04T06:54:42Z</time>
      </trkpt>
      <trkpt lat="47.41928" lon="-0.65949">
        <ele>57.2</ele>
        <time>2021-07-04T06:54:44Z</time>
      </trkpt>
      <trkpt lat="47.41924" lon="-0.65927">
        <ele>56.6</ele>
        <time>2021-07-04T06:54:46Z</time>
      </trkpt>
      <trkpt lat="47.4192" lon="-0.65905">
        <ele>55.8</ele>
        <time>2021-07-04T06:54:48Z</time>
      </trkpt>
      <trkpt lat="47.41917" lon="-0.65894">
        <ele>55.6</ele>
        <time>2021-07-04T06:54:49Z</time>
      </trkpt>
      <trkpt lat="47.41915" lon="-0.65882">
        <ele>55.4</ele>
        <time>2021-07-04T06:54:50Z</time>
      </trkpt>
      <trkpt lat="47.41911" lon="-0.65861">
        <ele>54.8</ele>
        <time>2021-07-04T06:54:52Z</time>
      </trkpt>
      <trkpt lat="47.41909" lon="-0.6585">
        <ele>54.6</ele>
        <time>2021-07-04T06:54:53Z</time>
      </trkpt>
      <trkpt lat="47.41907" lon="-0.6584">
        <ele>54.4</ele>
        <time>2021-07-04T06:54:54Z</time>
      </trkpt>
      <trkpt lat="47.41906" lon="-0.6583">
        <ele>54.2</ele>
        <time>2021-07-04T06:54:55Z</time>
      </trkpt>
      <trkpt lat="47.41904" lon="-0.6582">
        <ele>54.4</ele>
        <time>2021-07-04T06:54:56Z</time>
      </trkpt>
      <trkpt lat="47.419" lon="-0.65801">
        <ele>54.8</ele>
        <time>2021-07-04T06:54:58Z</time>
      </trkpt>
      <trkpt lat="47.41896" lon="-0.65781">
        <ele>55</ele>
        <time>2021-07-04T06:55:00Z</time>
      </trkpt>
      <trkpt lat="47.41894" lon="-0.65772">
        <ele>55</ele>
        <time>2021-07-04T06:55:01Z</time>
      </trkpt>
      <trkpt lat="47.41892" lon="-0.65762">
        <ele>55</ele>
        <time>2021-07-04T06:55:02Z</time>
      </trkpt>
      <trkpt lat="47.41888" lon="-0.65743">
        <ele>54.8</ele>
        <time>2021-07-04T06:55:04Z</time>
      </trkpt>
      <trkpt lat="47.41884" lon="-0.65724">
        <ele>55</ele>
        <time>2021-07-04T06:55:06Z</time>
      </trkpt>
      <trkpt lat="47.4188" lon="-0.65706">
        <ele>55</ele>
        <time>2021-07-04T06:55:08Z</time>
      </trkpt>
      <trkpt lat="47.41877" lon="-0.65686">
        <ele>55.4</ele>
        <time>2021-07-04T06:55:10Z</time>
      </trkpt>
      <trkpt lat="47.41875" lon="-0.65676">
        <ele>55.8</ele>
        <time>2021-07-04T06:55:11Z</time>
      </trkpt>
      <trkpt lat="47.41874" lon="-0.65667">
        <ele>55.8</ele>
        <time>2021-07-04T06:55:12Z</time>
      </trkpt>
      <trkpt lat="47.41869" lon="-0.65648">
        <ele>55.8</ele>
        <time>2021-07-04T06:55:14Z</time>
      </trkpt>
      <trkpt lat="47.41864" lon="-0.65629">
        <ele>56.2</ele>
        <time>2021-07-04T06:55:16Z</time>
      </trkpt>
      <trkpt lat="47.41859" lon="-0.65612">
        <ele>56</ele>
        <time>2021-07-04T06:55:18Z</time>
      </trkpt>
      <trkpt lat="47.41854" lon="-0.65597">
        <ele>56.2</ele>
        <time>2021-07-04T06:55:20Z</time>
      </trkpt>
      <trkpt lat="47.41848" lon="-0.65582">
        <ele>57</ele>
        <time>2021-07-04T06:55:22Z</time>
      </trkpt>
      <trkpt lat="47.41843" lon="-0.65568">
        <ele>57.2</ele>
        <time>2021-07-04T06:55:24Z</time>
      </trkpt>
      <trkpt lat="47.41837" lon="-0.65553">
        <ele>58</ele>
        <time>2021-07-04T06:55:26Z</time>
      </trkpt>
      <trkpt lat="47.41834" lon="-0.65547">
        <ele>58</ele>
        <time>2021-07-04T06:55:27Z</time>
      </trkpt>
      <trkpt lat="47.41831" lon="-0.6554">
        <ele>57.6</ele>
        <time>2021-07-04T06:55:28Z</time>
      </trkpt>
      <trkpt lat="47.41824" lon="-0.65526">
        <ele>57.8</ele>
        <time>2021-07-04T06:55:30Z</time>
      </trkpt>
      <trkpt lat="47.4182" lon="-0.65518">
        <ele>58</ele>
        <time>2021-07-04T06:55:31Z</time>
      </trkpt>
      <trkpt lat="47.41817" lon="-0.65511">
        <ele>58</ele>
        <time>2021-07-04T06:55:32Z</time>
      </trkpt>
      <trkpt lat="47.41809" lon="-0.65495">
        <ele>57.8</ele>
        <time>2021-07-04T06:55:34Z</time>
      </trkpt>
      <trkpt lat="47.41806" lon="-0.65489">
        <ele>57.8</ele>
        <time>2021-07-04T06:55:35Z</time>
      </trkpt>
      <trkpt lat="47.41803" lon="-0.65481">
        <ele>58</ele>
        <time>2021-07-04T06:55:36Z</time>
      </trkpt>
      <trkpt lat="47.41797" lon="-0.65468">
        <ele>57.8</ele>
        <time>2021-07-04T06:55:38Z</time>
      </trkpt>
      <trkpt lat="47.41791" lon="-0.65455">
        <ele>57.8</ele>
        <time>2021-07-04T06:55:40Z</time>
      </trkpt>
      <trkpt lat="47.41788" lon="-0.65448">
        <ele>58</ele>
        <time>2021-07-04T06:55:41Z</time>
      </trkpt>
      <trkpt lat="47.41784" lon="-0.65442">
        <ele>58.2</ele>
        <time>2021-07-04T06:55:42Z</time>
      </trkpt>
      <trkpt lat="47.41776" lon="-0.65427">
        <ele>58.6</ele>
        <time>2021-07-04T06:55:44Z</time>
      </trkpt>
      <trkpt lat="47.41768" lon="-0.65413">
        <ele>58.4</ele>
        <time>2021-07-04T06:55:46Z</time>
      </trkpt>
      <trkpt lat="47.41765" lon="-0.65406">
        <ele>58.2</ele>
        <time>2021-07-04T06:55:47Z</time>
      </trkpt>
      <trkpt lat="47.41761" lon="-0.65398">
        <ele>58</ele>
        <time>2021-07-04T06:55:48Z</time>
      </trkpt>
      <trkpt lat="47.41754" lon="-0.65382">
        <ele>57.8</ele>
        <time>2021-07-04T06:55:50Z</time>
      </trkpt>
      <trkpt lat="47.41747" lon="-0.65364">
        <ele>57.6</ele>
        <time>2021-07-04T06:55:52Z</time>
      </trkpt>
      <trkpt lat="47.41741" lon="-0.65347">
        <ele>57.8</ele>
        <time>2021-07-04T06:55:54Z</time>
      </trkpt>
      <trkpt lat="47.41735" lon="-0.6533">
        <ele>57.8</ele>
        <time>2021-07-04T06:55:56Z</time>
      </trkpt>
      <trkpt lat="47.4173" lon="-0.65314">
        <ele>58</ele>
        <time>2021-07-04T06:55:58Z</time>
      </trkpt>
      <trkpt lat="47.41725" lon="-0.65299">
        <ele>58.6</ele>
        <time>2021-07-04T06:56:00Z</time>
      </trkpt>
      <trkpt lat="47.41723" lon="-0.65292">
        <ele>58.8</ele>
        <time>2021-07-04T06:56:01Z</time>
      </trkpt>
      <trkpt lat="47.41721" lon="-0.65285">
        <ele>58.8</ele>
        <time>2021-07-04T06:56:02Z</time>
      </trkpt>
      <trkpt lat="47.41714" lon="-0.65272">
        <ele>59</ele>
        <time>2021-07-04T06:56:04Z</time>
      </trkpt>
      <trkpt lat="47.41709" lon="-0.65257">
        <ele>59</ele>
        <time>2021-07-04T06:56:06Z</time>
      </trkpt>
      <trkpt lat="47.41707" lon="-0.65249">
        <ele>59.2</ele>
        <time>2021-07-04T06:56:07Z</time>
      </trkpt>
      <trkpt lat="47.41705" lon="-0.65241">
        <ele>59.4</ele>
        <time>2021-07-04T06:56:08Z</time>
      </trkpt>
      <trkpt lat="47.41701" lon="-0.65226">
        <ele>59.6</ele>
        <time>2021-07-04T06:56:10Z</time>
      </trkpt>
      <trkpt lat="47.41698" lon="-0.65212">
        <ele>59.6</ele>
        <time>2021-07-04T06:56:12Z</time>
      </trkpt>
      <trkpt lat="47.41697" lon="-0.65201">
        <ele>60.2</ele>
        <time>2021-07-04T06:56:14Z</time>
      </trkpt>
      <trkpt lat="47.41695" lon="-0.65197">
        <ele>61</ele>
        <time>2021-07-04T06:56:16Z</time>
      </trkpt>
      <trkpt lat="47.41694" lon="-0.65197">
        <ele>61</ele>
        <time>2021-07-04T06:56:17Z</time>
      </trkpt>
      <trkpt lat="47.41693" lon="-0.65197">
        <ele>61</ele>
        <time>2021-07-04T06:56:18Z</time>
      </trkpt>
      <trkpt lat="47.41691" lon="-0.65196">
        <ele>61</ele>
        <time>2021-07-04T06:56:19Z</time>
      </trkpt>
      <trkpt lat="47.4169" lon="-0.65195">
        <ele>60.8</ele>
        <time>2021-07-04T06:56:20Z</time>
      </trkpt>
      <trkpt lat="47.41685" lon="-0.65193">
        <ele>60.6</ele>
        <time>2021-07-04T06:56:22Z</time>
      </trkpt>
      <trkpt lat="47.41679" lon="-0.65194">
        <ele>60.6</ele>
        <time>2021-07-04T06:56:24Z</time>
      </trkpt>
      <trkpt lat="47.41674" lon="-0.65197">
        <ele>60.6</ele>
        <time>2021-07-04T06:56:26Z</time>
      </trkpt>
      <trkpt lat="47.41671" lon="-0.65199">
        <ele>60.6</ele>
        <time>2021-07-04T06:56:27Z</time>
      </trkpt>
      <trkpt lat="47.41668" lon="-0.65202">
        <ele>60.4</ele>
        <time>2021-07-04T06:56:28Z</time>
      </trkpt>
      <trkpt lat="47.41661" lon="-0.65206">
        <ele>60.2</ele>
        <time>2021-07-04T06:56:30Z</time>
      </trkpt>
      <trkpt lat="47.41655" lon="-0.6521">
        <ele>60.2</ele>
        <time>2021-07-04T06:56:32Z</time>
      </trkpt>
      <trkpt lat="47.41648" lon="-0.65215">
        <ele>61</ele>
        <time>2021-07-04T06:56:34Z</time>
      </trkpt>
      <trkpt lat="47.41643" lon="-0.65219">
        <ele>61</ele>
        <time>2021-07-04T06:56:36Z</time>
      </trkpt>
      <trkpt lat="47.41637" lon="-0.65224">
        <ele>61.2</ele>
        <time>2021-07-04T06:56:38Z</time>
      </trkpt>
      <trkpt lat="47.41634" lon="-0.65226">
        <ele>61.4</ele>
        <time>2021-07-04T06:56:39Z</time>
      </trkpt>
      <trkpt lat="47.41631" lon="-0.65228">
        <ele>61.4</ele>
        <time>2021-07-04T06:56:40Z</time>
      </trkpt>
      <trkpt lat="47.41624" lon="-0.65231">
        <ele>61</ele>
        <time>2021-07-04T06:56:42Z</time>
      </trkpt>
      <trkpt lat="47.41616" lon="-0.65236">
        <ele>60.8</ele>
        <time>2021-07-04T06:56:44Z</time>
      </trkpt>
      <trkpt lat="47.41606" lon="-0.6524">
        <ele>60.6</ele>
        <time>2021-07-04T06:56:46Z</time>
      </trkpt>
      <trkpt lat="47.41597" lon="-0.65244">
        <ele>60.6</ele>
        <time>2021-07-04T06:56:48Z</time>
      </trkpt>
      <trkpt lat="47.41588" lon="-0.65246">
        <ele>60.4</ele>
        <time>2021-07-04T06:56:50Z</time>
      </trkpt>
      <trkpt lat="47.41585" lon="-0.65247">
        <ele>60.2</ele>
        <time>2021-07-04T06:56:51Z</time>
      </trkpt>
      <trkpt lat="47.41581" lon="-0.65249">
        <ele>60.2</ele>
        <time>2021-07-04T06:56:52Z</time>
      </trkpt>
      <trkpt lat="47.41574" lon="-0.65253">
        <ele>60.8</ele>
        <time>2021-07-04T06:56:54Z</time>
      </trkpt>
      <trkpt lat="47.41568" lon="-0.6526">
        <ele>61.2</ele>
        <time>2021-07-04T06:56:56Z</time>
      </trkpt>
      <trkpt lat="47.41565" lon="-0.65261">
        <ele>61.2</ele>
        <time>2021-07-04T06:56:57Z</time>
      </trkpt>
      <trkpt lat="47.41562" lon="-0.65261">
        <ele>61</ele>
        <time>2021-07-04T06:56:58Z</time>
      </trkpt>
      <trkpt lat="47.41556" lon="-0.65263">
        <ele>61</ele>
        <time>2021-07-04T06:57:00Z</time>
      </trkpt>
      <trkpt lat="47.41551" lon="-0.65264">
        <ele>60.8</ele>
        <time>2021-07-04T06:57:02Z</time>
      </trkpt>
      <trkpt lat="47.41545" lon="-0.6526">
        <ele>60.4</ele>
        <time>2021-07-04T06:57:04Z</time>
      </trkpt>
      <trkpt lat="47.41537" lon="-0.65258">
        <ele>60.2</ele>
        <time>2021-07-04T06:57:05Z</time>
      </trkpt>
      <trkpt lat="47.4153" lon="-0.65256">
        <ele>60</ele>
        <time>2021-07-04T06:57:06Z</time>
      </trkpt>
      <trkpt lat="47.41521" lon="-0.65252">
        <ele>59.8</ele>
        <time>2021-07-04T06:57:08Z</time>
      </trkpt>
      <trkpt lat="47.41516" lon="-0.6525">
        <ele>59.8</ele>
        <time>2021-07-04T06:57:09Z</time>
      </trkpt>
      <trkpt lat="47.41513" lon="-0.65247">
        <ele>59.8</ele>
        <time>2021-07-04T06:57:10Z</time>
      </trkpt>
      <trkpt lat="47.41508" lon="-0.65246">
        <ele>60.4</ele>
        <time>2021-07-04T06:57:12Z</time>
      </trkpt>
      <trkpt lat="47.41503" lon="-0.65246">
        <ele>60.8</ele>
        <time>2021-07-04T06:57:14Z</time>
      </trkpt>
      <trkpt lat="47.41499" lon="-0.65246">
        <ele>60.8</ele>
        <time>2021-07-04T06:57:16Z</time>
      </trkpt>
      <trkpt lat="47.41492" lon="-0.65246">
        <ele>60.8</ele>
        <time>2021-07-04T06:57:18Z</time>
      </trkpt>
      <trkpt lat="47.41486" lon="-0.65247">
        <ele>60.8</ele>
        <time>2021-07-04T06:57:20Z</time>
      </trkpt>
      <trkpt lat="47.41481" lon="-0.65246">
        <ele>60.6</ele>
        <time>2021-07-04T06:57:22Z</time>
      </trkpt>
      <trkpt lat="47.41479" lon="-0.65249">
        <ele>60.6</ele>
        <time>2021-07-04T06:57:23Z</time>
      </trkpt>
      <trkpt lat="47.41477" lon="-0.65252">
        <ele>60.4</ele>
        <time>2021-07-04T06:57:24Z</time>
      </trkpt>
      <trkpt lat="47.41472" lon="-0.65258">
        <ele>60.2</ele>
        <time>2021-07-04T06:57:26Z</time>
      </trkpt>
      <trkpt lat="47.4147" lon="-0.6526">
        <ele>60.4</ele>
        <time>2021-07-04T06:57:27Z</time>
      </trkpt>
      <trkpt lat="47.41469" lon="-0.65262">
        <ele>60.2</ele>
        <time>2021-07-04T06:57:28Z</time>
      </trkpt>
      <trkpt lat="47.4146" lon="-0.65258">
        <ele>60.6</ele>
        <time>2021-07-04T06:57:33Z</time>
      </trkpt>
      <trkpt lat="47.41454" lon="-0.65253">
        <ele>60.4</ele>
        <time>2021-07-04T06:57:35Z</time>
      </trkpt>
      <trkpt lat="47.41447" lon="-0.65246">
        <ele>60.6</ele>
        <time>2021-07-04T06:57:37Z</time>
      </trkpt>
      <trkpt lat="47.41439" lon="-0.6524">
        <ele>61</ele>
        <time>2021-07-04T06:57:39Z</time>
      </trkpt>
      <trkpt lat="47.41431" lon="-0.65235">
        <ele>61</ele>
        <time>2021-07-04T06:57:41Z</time>
      </trkpt>
      <trkpt lat="47.41424" lon="-0.6523">
        <ele>61.4</ele>
        <time>2021-07-04T06:57:43Z</time>
      </trkpt>
      <trkpt lat="47.41416" lon="-0.65224">
        <ele>61.8</ele>
        <time>2021-07-04T06:57:45Z</time>
      </trkpt>
      <trkpt lat="47.41409" lon="-0.65218">
        <ele>62.2</ele>
        <time>2021-07-04T06:57:47Z</time>
      </trkpt>
      <trkpt lat="47.41405" lon="-0.65215">
        <ele>62.2</ele>
        <time>2021-07-04T06:57:48Z</time>
      </trkpt>
      <trkpt lat="47.414" lon="-0.65211">
        <ele>62.4</ele>
        <time>2021-07-04T06:57:49Z</time>
      </trkpt>
      <trkpt lat="47.41397" lon="-0.65208">
        <ele>62.8</ele>
        <time>2021-07-04T06:57:50Z</time>
      </trkpt>
      <trkpt lat="47.41393" lon="-0.65205">
        <ele>63</ele>
        <time>2021-07-04T06:57:51Z</time>
      </trkpt>
      <trkpt lat="47.41382" lon="-0.652">
        <ele>63.2</ele>
        <time>2021-07-04T06:57:53Z</time>
      </trkpt>
      <trkpt lat="47.41372" lon="-0.65195">
        <ele>63.6</ele>
        <time>2021-07-04T06:57:55Z</time>
      </trkpt>
      <trkpt lat="47.41363" lon="-0.65189">
        <ele>63.8</ele>
        <time>2021-07-04T06:57:57Z</time>
      </trkpt>
      <trkpt lat="47.41353" lon="-0.65183">
        <ele>64.4</ele>
        <time>2021-07-04T06:57:59Z</time>
      </trkpt>
      <trkpt lat="47.41343" lon="-0.6518">
        <ele>65</ele>
        <time>2021-07-04T06:58:01Z</time>
      </trkpt>
      <trkpt lat="47.41336" lon="-0.65177">
        <ele>65.2</ele>
        <time>2021-07-04T06:58:03Z</time>
      </trkpt>
      <trkpt lat="47.41327" lon="-0.65172">
        <ele>65.6</ele>
        <time>2021-07-04T06:58:05Z</time>
      </trkpt>
      <trkpt lat="47.41318" lon="-0.65165">
        <ele>65.8</ele>
        <time>2021-07-04T06:58:07Z</time>
      </trkpt>
      <trkpt lat="47.41313" lon="-0.65162">
        <ele>66</ele>
        <time>2021-07-04T06:58:08Z</time>
      </trkpt>
      <trkpt lat="47.41309" lon="-0.6516">
        <ele>65.8</ele>
        <time>2021-07-04T06:58:09Z</time>
      </trkpt>
      <trkpt lat="47.41301" lon="-0.65156">
        <ele>66.4</ele>
        <time>2021-07-04T06:58:11Z</time>
      </trkpt>
      <trkpt lat="47.41293" lon="-0.65152">
        <ele>67</ele>
        <time>2021-07-04T06:58:13Z</time>
      </trkpt>
      <trkpt lat="47.41287" lon="-0.65149">
        <ele>67</ele>
        <time>2021-07-04T06:58:14Z</time>
      </trkpt>
      <trkpt lat="47.41282" lon="-0.65146">
        <ele>67</ele>
        <time>2021-07-04T06:58:15Z</time>
      </trkpt>
      <trkpt lat="47.41272" lon="-0.6514">
        <ele>67.2</ele>
        <time>2021-07-04T06:58:17Z</time>
      </trkpt>
      <trkpt lat="47.41261" lon="-0.6513">
        <ele>67.2</ele>
        <time>2021-07-04T06:58:19Z</time>
      </trkpt>
      <trkpt lat="47.41257" lon="-0.65127">
        <ele>66.6</ele>
        <time>2021-07-04T06:58:20Z</time>
      </trkpt>
      <trkpt lat="47.41253" lon="-0.65124">
        <ele>66.8</ele>
        <time>2021-07-04T06:58:21Z</time>
      </trkpt>
      <trkpt lat="47.41244" lon="-0.65119">
        <ele>67</ele>
        <time>2021-07-04T06:58:23Z</time>
      </trkpt>
      <trkpt lat="47.41235" lon="-0.6511">
        <ele>67.4</ele>
        <time>2021-07-04T06:58:25Z</time>
      </trkpt>
      <trkpt lat="47.41229" lon="-0.65102">
        <ele>67.8</ele>
        <time>2021-07-04T06:58:27Z</time>
      </trkpt>
      <trkpt lat="47.41225" lon="-0.65098">
        <ele>68</ele>
        <time>2021-07-04T06:58:28Z</time>
      </trkpt>
      <trkpt lat="47.41221" lon="-0.65092">
        <ele>68.2</ele>
        <time>2021-07-04T06:58:29Z</time>
      </trkpt>
      <trkpt lat="47.41208" lon="-0.65083">
        <ele>68.4</ele>
        <time>2021-07-04T06:58:31Z</time>
      </trkpt>
      <trkpt lat="47.41203" lon="-0.65077">
        <ele>68.4</ele>
        <time>2021-07-04T06:58:32Z</time>
      </trkpt>
      <trkpt lat="47.41198" lon="-0.65071">
        <ele>68</ele>
        <time>2021-07-04T06:58:33Z</time>
      </trkpt>
      <trkpt lat="47.41191" lon="-0.65061">
        <ele>68</ele>
        <time>2021-07-04T06:58:35Z</time>
      </trkpt>
      <trkpt lat="47.41187" lon="-0.65056">
        <ele>68.2</ele>
        <time>2021-07-04T06:58:36Z</time>
      </trkpt>
      <trkpt lat="47.41182" lon="-0.65052">
        <ele>68.2</ele>
        <time>2021-07-04T06:58:37Z</time>
      </trkpt>
      <trkpt lat="47.41176" lon="-0.65049">
        <ele>68.4</ele>
        <time>2021-07-04T06:58:38Z</time>
      </trkpt>
      <trkpt lat="47.41171" lon="-0.65045">
        <ele>68.2</ele>
        <time>2021-07-04T06:58:39Z</time>
      </trkpt>
      <trkpt lat="47.41163" lon="-0.65038">
        <ele>68.2</ele>
        <time>2021-07-04T06:58:41Z</time>
      </trkpt>
      <trkpt lat="47.41155" lon="-0.65029">
        <ele>68.4</ele>
        <time>2021-07-04T06:58:43Z</time>
      </trkpt>
      <trkpt lat="47.41151" lon="-0.65024">
        <ele>68.6</ele>
        <time>2021-07-04T06:58:44Z</time>
      </trkpt>
      <trkpt lat="47.41146" lon="-0.6502">
        <ele>68.8</ele>
        <time>2021-07-04T06:58:45Z</time>
      </trkpt>
      <trkpt lat="47.4114" lon="-0.65015">
        <ele>69</ele>
        <time>2021-07-04T06:58:47Z</time>
      </trkpt>
      <trkpt lat="47.41136" lon="-0.65013">
        <ele>69.4</ele>
        <time>2021-07-04T06:58:48Z</time>
      </trkpt>
      <trkpt lat="47.41133" lon="-0.65012">
        <ele>69.2</ele>
        <time>2021-07-04T06:58:49Z</time>
      </trkpt>
      <trkpt lat="47.41125" lon="-0.6501">
        <ele>69.2</ele>
        <time>2021-07-04T06:58:51Z</time>
      </trkpt>
      <trkpt lat="47.41116" lon="-0.65007">
        <ele>69.2</ele>
        <time>2021-07-04T06:58:53Z</time>
      </trkpt>
      <trkpt lat="47.41106" lon="-0.65006">
        <ele>69.6</ele>
        <time>2021-07-04T06:58:55Z</time>
      </trkpt>
      <trkpt lat="47.41097" lon="-0.6501">
        <ele>70</ele>
        <time>2021-07-04T06:58:57Z</time>
      </trkpt>
      <trkpt lat="47.41089" lon="-0.65007">
        <ele>69.8</ele>
        <time>2021-07-04T06:58:59Z</time>
      </trkpt>
      <trkpt lat="47.41086" lon="-0.65005">
        <ele>70.2</ele>
        <time>2021-07-04T06:59:00Z</time>
      </trkpt>
      <trkpt lat="47.41083" lon="-0.65004">
        <ele>70.4</ele>
        <time>2021-07-04T06:59:01Z</time>
      </trkpt>
      <trkpt lat="47.41076" lon="-0.65005">
        <ele>71</ele>
        <time>2021-07-04T06:59:03Z</time>
      </trkpt>
      <trkpt lat="47.41072" lon="-0.65007">
        <ele>71.2</ele>
        <time>2021-07-04T06:59:04Z</time>
      </trkpt>
      <trkpt lat="47.41068" lon="-0.65008">
        <ele>71.4</ele>
        <time>2021-07-04T06:59:05Z</time>
      </trkpt>
      <trkpt lat="47.4106" lon="-0.65007">
        <ele>71.4</ele>
        <time>2021-07-04T06:59:07Z</time>
      </trkpt>
      <trkpt lat="47.41056" lon="-0.65006">
        <ele>71.6</ele>
        <time>2021-07-04T06:59:08Z</time>
      </trkpt>
      <trkpt lat="47.41052" lon="-0.65006">
        <ele>71.8</ele>
        <time>2021-07-04T06:59:09Z</time>
      </trkpt>
      <trkpt lat="47.41046" lon="-0.65005">
        <ele>72.4</ele>
        <time>2021-07-04T06:59:11Z</time>
      </trkpt>
      <trkpt lat="47.41038" lon="-0.65005">
        <ele>72.6</ele>
        <time>2021-07-04T06:59:13Z</time>
      </trkpt>
      <trkpt lat="47.4103" lon="-0.65002">
        <ele>72.6</ele>
        <time>2021-07-04T06:59:15Z</time>
      </trkpt>
      <trkpt lat="47.41023" lon="-0.65001">
        <ele>73</ele>
        <time>2021-07-04T06:59:17Z</time>
      </trkpt>
      <trkpt lat="47.41019" lon="-0.65">
        <ele>73.4</ele>
        <time>2021-07-04T06:59:18Z</time>
      </trkpt>
      <trkpt lat="47.41017" lon="-0.64998">
        <ele>73.6</ele>
        <time>2021-07-04T06:59:19Z</time>
      </trkpt>
      <trkpt lat="47.41012" lon="-0.64995">
        <ele>73.8</ele>
        <time>2021-07-04T06:59:21Z</time>
      </trkpt>
      <trkpt lat="47.41007" lon="-0.64991">
        <ele>74.4</ele>
        <time>2021-07-04T06:59:23Z</time>
      </trkpt>
      <trkpt lat="47.41001" lon="-0.64988">
        <ele>74.4</ele>
        <time>2021-07-04T06:59:25Z</time>
      </trkpt>
      <trkpt lat="47.40998" lon="-0.64986">
        <ele>74.4</ele>
        <time>2021-07-04T06:59:26Z</time>
      </trkpt>
      <trkpt lat="47.40995" lon="-0.64984">
        <ele>74.4</ele>
        <time>2021-07-04T06:59:27Z</time>
      </trkpt>
      <trkpt lat="47.40988" lon="-0.64981">
        <ele>74.6</ele>
        <time>2021-07-04T06:59:29Z</time>
      </trkpt>
      <trkpt lat="47.40982" lon="-0.64977">
        <ele>74.8</ele>
        <time>2021-07-04T06:59:31Z</time>
      </trkpt>
      <trkpt lat="47.40975" lon="-0.64971">
        <ele>75.2</ele>
        <time>2021-07-04T06:59:33Z</time>
      </trkpt>
      <trkpt lat="47.40966" lon="-0.64967">
        <ele>75</ele>
        <time>2021-07-04T06:59:35Z</time>
      </trkpt>
      <trkpt lat="47.40956" lon="-0.64963">
        <ele>74.8</ele>
        <time>2021-07-04T06:59:37Z</time>
      </trkpt>
      <trkpt lat="47.4095" lon="-0.64963">
        <ele>75</ele>
        <time>2021-07-04T06:59:38Z</time>
      </trkpt>
      <trkpt lat="47.40945" lon="-0.64963">
        <ele>75</ele>
        <time>2021-07-04T06:59:39Z</time>
      </trkpt>
      <trkpt lat="47.4094" lon="-0.64964">
        <ele>75</ele>
        <time>2021-07-04T06:59:40Z</time>
      </trkpt>
      <trkpt lat="47.40934" lon="-0.64963">
        <ele>74.8</ele>
        <time>2021-07-04T06:59:41Z</time>
      </trkpt>
      <trkpt lat="47.40924" lon="-0.64959">
        <ele>74.6</ele>
        <time>2021-07-04T06:59:43Z</time>
      </trkpt>
      <trkpt lat="47.40915" lon="-0.64957">
        <ele>74.6</ele>
        <time>2021-07-04T06:59:44Z</time>
      </trkpt>
      <trkpt lat="47.40908" lon="-0.64956">
        <ele>74.2</ele>
        <time>2021-07-04T06:59:45Z</time>
      </trkpt>
      <trkpt lat="47.40901" lon="-0.64954">
        <ele>74</ele>
        <time>2021-07-04T06:59:46Z</time>
      </trkpt>
      <trkpt lat="47.40895" lon="-0.64952">
        <ele>74.2</ele>
        <time>2021-07-04T06:59:47Z</time>
      </trkpt>
      <trkpt lat="47.40888" lon="-0.64946">
        <ele>74.4</ele>
        <time>2021-07-04T06:59:49Z</time>
      </trkpt>
      <trkpt lat="47.40886" lon="-0.64934">
        <ele>74.8</ele>
        <time>2021-07-04T06:59:51Z</time>
      </trkpt>
      <trkpt lat="47.40884" lon="-0.64929">
        <ele>74.8</ele>
        <time>2021-07-04T06:59:52Z</time>
      </trkpt>
      <trkpt lat="47.40883" lon="-0.64924">
        <ele>74.4</ele>
        <time>2021-07-04T06:59:53Z</time>
      </trkpt>
      <trkpt lat="47.40879" lon="-0.64915">
        <ele>74.2</ele>
        <time>2021-07-04T06:59:55Z</time>
      </trkpt>
      <trkpt lat="47.40874" lon="-0.649">
        <ele>73.6</ele>
        <time>2021-07-04T06:59:57Z</time>
      </trkpt>
      <trkpt lat="47.40871" lon="-0.64892">
        <ele>73.4</ele>
        <time>2021-07-04T06:59:58Z</time>
      </trkpt>
      <trkpt lat="47.40868" lon="-0.64883">
        <ele>73.4</ele>
        <time>2021-07-04T06:59:59Z</time>
      </trkpt>
      <trkpt lat="47.40865" lon="-0.64869">
        <ele>73.8</ele>
        <time>2021-07-04T07:00:01Z</time>
      </trkpt>
      <trkpt lat="47.40864" lon="-0.6486">
        <ele>73.8</ele>
        <time>2021-07-04T07:00:02Z</time>
      </trkpt>
      <trkpt lat="47.40863" lon="-0.64852">
        <ele>73.8</ele>
        <time>2021-07-04T07:00:03Z</time>
      </trkpt>
      <trkpt lat="47.40861" lon="-0.64837">
        <ele>73.6</ele>
        <time>2021-07-04T07:00:05Z</time>
      </trkpt>
      <trkpt lat="47.40859" lon="-0.64823">
        <ele>73.8</ele>
        <time>2021-07-04T07:00:07Z</time>
      </trkpt>
      <trkpt lat="47.40857" lon="-0.64808">
        <ele>73.2</ele>
        <time>2021-07-04T07:00:09Z</time>
      </trkpt>
      <trkpt lat="47.40854" lon="-0.6479">
        <ele>73</ele>
        <time>2021-07-04T07:00:11Z</time>
      </trkpt>
      <trkpt lat="47.40853" lon="-0.64772">
        <ele>73</ele>
        <time>2021-07-04T07:00:13Z</time>
      </trkpt>
      <trkpt lat="47.40851" lon="-0.64755">
        <ele>73.2</ele>
        <time>2021-07-04T07:00:15Z</time>
      </trkpt>
      <trkpt lat="47.40849" lon="-0.64737">
        <ele>72.8</ele>
        <time>2021-07-04T07:00:17Z</time>
      </trkpt>
      <trkpt lat="47.40847" lon="-0.64727">
        <ele>72.6</ele>
        <time>2021-07-04T07:00:18Z</time>
      </trkpt>
      <trkpt lat="47.40846" lon="-0.64718">
        <ele>72.8</ele>
        <time>2021-07-04T07:00:19Z</time>
      </trkpt>
      <trkpt lat="47.40844" lon="-0.64697">
        <ele>72.6</ele>
        <time>2021-07-04T07:00:21Z</time>
      </trkpt>
      <trkpt lat="47.40843" lon="-0.64688">
        <ele>72.2</ele>
        <time>2021-07-04T07:00:22Z</time>
      </trkpt>
      <trkpt lat="47.40843" lon="-0.64677">
        <ele>72.4</ele>
        <time>2021-07-04T07:00:23Z</time>
      </trkpt>
      <trkpt lat="47.40841" lon="-0.64657">
        <ele>72.2</ele>
        <time>2021-07-04T07:00:25Z</time>
      </trkpt>
      <trkpt lat="47.4084" lon="-0.64637">
        <ele>72</ele>
        <time>2021-07-04T07:00:27Z</time>
      </trkpt>
      <trkpt lat="47.40838" lon="-0.64619">
        <ele>71.8</ele>
        <time>2021-07-04T07:00:29Z</time>
      </trkpt>
      <trkpt lat="47.40837" lon="-0.6461">
        <ele>71.8</ele>
        <time>2021-07-04T07:00:30Z</time>
      </trkpt>
      <trkpt lat="47.40837" lon="-0.646">
        <ele>72.2</ele>
        <time>2021-07-04T07:00:31Z</time>
      </trkpt>
      <trkpt lat="47.40836" lon="-0.64581">
        <ele>72</ele>
        <time>2021-07-04T07:00:33Z</time>
      </trkpt>
      <trkpt lat="47.40835" lon="-0.64561">
        <ele>71.6</ele>
        <time>2021-07-04T07:00:35Z</time>
      </trkpt>
      <trkpt lat="47.40834" lon="-0.64542">
        <ele>71.8</ele>
        <time>2021-07-04T07:00:37Z</time>
      </trkpt>
      <trkpt lat="47.40834" lon="-0.64533">
        <ele>72</ele>
        <time>2021-07-04T07:00:38Z</time>
      </trkpt>
      <trkpt lat="47.40834" lon="-0.64524">
        <ele>72</ele>
        <time>2021-07-04T07:00:39Z</time>
      </trkpt>
      <trkpt lat="47.40835" lon="-0.64514">
        <ele>71.8</ele>
        <time>2021-07-04T07:00:40Z</time>
      </trkpt>
      <trkpt lat="47.40835" lon="-0.64504">
        <ele>71.4</ele>
        <time>2021-07-04T07:00:41Z</time>
      </trkpt>
      <trkpt lat="47.40834" lon="-0.64494">
        <ele>71.2</ele>
        <time>2021-07-04T07:00:42Z</time>
      </trkpt>
      <trkpt lat="47.40834" lon="-0.64484">
        <ele>71</ele>
        <time>2021-07-04T07:00:43Z</time>
      </trkpt>
      <trkpt lat="47.40834" lon="-0.64465">
        <ele>71.2</ele>
        <time>2021-07-04T07:00:45Z</time>
      </trkpt>
      <trkpt lat="47.40833" lon="-0.64456">
        <ele>71.4</ele>
        <time>2021-07-04T07:00:46Z</time>
      </trkpt>
      <trkpt lat="47.40832" lon="-0.64447">
        <ele>71.4</ele>
        <time>2021-07-04T07:00:47Z</time>
      </trkpt>
      <trkpt lat="47.4083" lon="-0.64429">
        <ele>71.4</ele>
        <time>2021-07-04T07:00:49Z</time>
      </trkpt>
      <trkpt lat="47.40828" lon="-0.6442">
        <ele>71.8</ele>
        <time>2021-07-04T07:00:50Z</time>
      </trkpt>
      <trkpt lat="47.40826" lon="-0.6441">
        <ele>71.4</ele>
        <time>2021-07-04T07:00:51Z</time>
      </trkpt>
      <trkpt lat="47.40824" lon="-0.6439">
        <ele>71.6</ele>
        <time>2021-07-04T07:00:53Z</time>
      </trkpt>
      <trkpt lat="47.40824" lon="-0.64381">
        <ele>71.4</ele>
        <time>2021-07-04T07:00:54Z</time>
      </trkpt>
      <trkpt lat="47.40823" lon="-0.64372">
        <ele>71</ele>
        <time>2021-07-04T07:00:55Z</time>
      </trkpt>
      <trkpt lat="47.4082" lon="-0.64354">
        <ele>70.6</ele>
        <time>2021-07-04T07:00:57Z</time>
      </trkpt>
      <trkpt lat="47.40818" lon="-0.64338">
        <ele>71.8</ele>
        <time>2021-07-04T07:00:59Z</time>
      </trkpt>
      <trkpt lat="47.40817" lon="-0.64329">
        <ele>71.6</ele>
        <time>2021-07-04T07:01:00Z</time>
      </trkpt>
      <trkpt lat="47.40817" lon="-0.6432">
        <ele>71.4</ele>
        <time>2021-07-04T07:01:01Z</time>
      </trkpt>
      <trkpt lat="47.40815" lon="-0.643">
        <ele>71.4</ele>
        <time>2021-07-04T07:01:03Z</time>
      </trkpt>
      <trkpt lat="47.40813" lon="-0.64282">
        <ele>71.6</ele>
        <time>2021-07-04T07:01:05Z</time>
      </trkpt>
      <trkpt lat="47.40811" lon="-0.64263">
        <ele>71.4</ele>
        <time>2021-07-04T07:01:07Z</time>
      </trkpt>
      <trkpt lat="47.40807" lon="-0.64245">
        <ele>71.4</ele>
        <time>2021-07-04T07:01:09Z</time>
      </trkpt>
      <trkpt lat="47.40802" lon="-0.64229">
        <ele>71.6</ele>
        <time>2021-07-04T07:01:11Z</time>
      </trkpt>
      <trkpt lat="47.40795" lon="-0.64214">
        <ele>71.8</ele>
        <time>2021-07-04T07:01:13Z</time>
      </trkpt>
      <trkpt lat="47.40789" lon="-0.64199">
        <ele>72</ele>
        <time>2021-07-04T07:01:15Z</time>
      </trkpt>
      <trkpt lat="47.40785" lon="-0.64192">
        <ele>72.4</ele>
        <time>2021-07-04T07:01:16Z</time>
      </trkpt>
      <trkpt lat="47.40781" lon="-0.64185">
        <ele>72.6</ele>
        <time>2021-07-04T07:01:17Z</time>
      </trkpt>
      <trkpt lat="47.40775" lon="-0.64171">
        <ele>73</ele>
        <time>2021-07-04T07:01:19Z</time>
      </trkpt>
      <trkpt lat="47.40768" lon="-0.64157">
        <ele>73</ele>
        <time>2021-07-04T07:01:21Z</time>
      </trkpt>
      <trkpt lat="47.40761" lon="-0.64143">
        <ele>73</ele>
        <time>2021-07-04T07:01:23Z</time>
      </trkpt>
      <trkpt lat="47.40757" lon="-0.64135">
        <ele>73.2</ele>
        <time>2021-07-04T07:01:24Z</time>
      </trkpt>
      <trkpt lat="47.40754" lon="-0.64128">
        <ele>73.4</ele>
        <time>2021-07-04T07:01:25Z</time>
      </trkpt>
      <trkpt lat="47.40748" lon="-0.64114">
        <ele>72.8</ele>
        <time>2021-07-04T07:01:27Z</time>
      </trkpt>
      <trkpt lat="47.4074" lon="-0.641">
        <ele>72.6</ele>
        <time>2021-07-04T07:01:29Z</time>
      </trkpt>
      <trkpt lat="47.40734" lon="-0.64086">
        <ele>72.4</ele>
        <time>2021-07-04T07:01:31Z</time>
      </trkpt>
      <trkpt lat="47.40727" lon="-0.64072">
        <ele>72.8</ele>
        <time>2021-07-04T07:01:33Z</time>
      </trkpt>
      <trkpt lat="47.4072" lon="-0.64058">
        <ele>72.6</ele>
        <time>2021-07-04T07:01:35Z</time>
      </trkpt>
      <trkpt lat="47.40713" lon="-0.64044">
        <ele>72.4</ele>
        <time>2021-07-04T07:01:37Z</time>
      </trkpt>
      <trkpt lat="47.40706" lon="-0.64029">
        <ele>72</ele>
        <time>2021-07-04T07:01:39Z</time>
      </trkpt>
      <trkpt lat="47.40699" lon="-0.64015">
        <ele>71.4</ele>
        <time>2021-07-04T07:01:41Z</time>
      </trkpt>
      <trkpt lat="47.40696" lon="-0.64007">
        <ele>71</ele>
        <time>2021-07-04T07:01:42Z</time>
      </trkpt>
      <trkpt lat="47.40692" lon="-0.63999">
        <ele>70.4</ele>
        <time>2021-07-04T07:01:43Z</time>
      </trkpt>
      <trkpt lat="47.40686" lon="-0.63981">
        <ele>70.4</ele>
        <time>2021-07-04T07:01:45Z</time>
      </trkpt>
      <trkpt lat="47.40681" lon="-0.63962">
        <ele>70.6</ele>
        <time>2021-07-04T07:01:47Z</time>
      </trkpt>
      <trkpt lat="47.40679" lon="-0.63952">
        <ele>70</ele>
        <time>2021-07-04T07:01:48Z</time>
      </trkpt>
      <trkpt lat="47.40678" lon="-0.63942">
        <ele>69.2</ele>
        <time>2021-07-04T07:01:49Z</time>
      </trkpt>
      <trkpt lat="47.40678" lon="-0.63931">
        <ele>68.6</ele>
        <time>2021-07-04T07:01:50Z</time>
      </trkpt>
      <trkpt lat="47.40678" lon="-0.6392">
        <ele>68.2</ele>
        <time>2021-07-04T07:01:51Z</time>
      </trkpt>
      <trkpt lat="47.4068" lon="-0.63897">
        <ele>67.6</ele>
        <time>2021-07-04T07:01:53Z</time>
      </trkpt>
      <trkpt lat="47.40682" lon="-0.63886">
        <ele>67.2</ele>
        <time>2021-07-04T07:01:54Z</time>
      </trkpt>
      <trkpt lat="47.40684" lon="-0.63875">
        <ele>66.8</ele>
        <time>2021-07-04T07:01:55Z</time>
      </trkpt>
      <trkpt lat="47.40686" lon="-0.63864">
        <ele>66.4</ele>
        <time>2021-07-04T07:01:56Z</time>
      </trkpt>
      <trkpt lat="47.40689" lon="-0.63854">
        <ele>66.2</ele>
        <time>2021-07-04T07:01:57Z</time>
      </trkpt>
      <trkpt lat="47.40691" lon="-0.63838">
        <ele>66.4</ele>
        <time>2021-07-04T07:01:59Z</time>
      </trkpt>
      <trkpt lat="47.40684" lon="-0.63831">
        <ele>66.4</ele>
        <time>2021-07-04T07:02:01Z</time>
      </trkpt>
      <trkpt lat="47.40675" lon="-0.63832">
        <ele>67</ele>
        <time>2021-07-04T07:02:03Z</time>
      </trkpt>
      <trkpt lat="47.40671" lon="-0.63833">
        <ele>67.2</ele>
        <time>2021-07-04T07:02:04Z</time>
      </trkpt>
      <trkpt lat="47.40666" lon="-0.63835">
        <ele>67.6</ele>
        <time>2021-07-04T07:02:05Z</time>
      </trkpt>
      <trkpt lat="47.40657" lon="-0.63837">
        <ele>68</ele>
        <time>2021-07-04T07:02:07Z</time>
      </trkpt>
      <trkpt lat="47.40647" lon="-0.6384">
        <ele>68.2</ele>
        <time>2021-07-04T07:02:09Z</time>
      </trkpt>
      <trkpt lat="47.40642" lon="-0.63841">
        <ele>68.8</ele>
        <time>2021-07-04T07:02:10Z</time>
      </trkpt>
      <trkpt lat="47.40637" lon="-0.63841">
        <ele>68.8</ele>
        <time>2021-07-04T07:02:11Z</time>
      </trkpt>
      <trkpt lat="47.40627" lon="-0.6384">
        <ele>69</ele>
        <time>2021-07-04T07:02:13Z</time>
      </trkpt>
      <trkpt lat="47.40618" lon="-0.63839">
        <ele>69.2</ele>
        <time>2021-07-04T07:02:15Z</time>
      </trkpt>
      <trkpt lat="47.40613" lon="-0.6384">
        <ele>69.8</ele>
        <time>2021-07-04T07:02:16Z</time>
      </trkpt>
      <trkpt lat="47.4061" lon="-0.63842">
        <ele>69.8</ele>
        <time>2021-07-04T07:02:17Z</time>
      </trkpt>
      <trkpt lat="47.40601" lon="-0.63847">
        <ele>70.2</ele>
        <time>2021-07-04T07:02:19Z</time>
      </trkpt>
      <trkpt lat="47.40593" lon="-0.63848">
        <ele>70.4</ele>
        <time>2021-07-04T07:02:21Z</time>
      </trkpt>
      <trkpt lat="47.40589" lon="-0.6385">
        <ele>70.2</ele>
        <time>2021-07-04T07:02:22Z</time>
      </trkpt>
      <trkpt lat="47.40585" lon="-0.6385">
        <ele>70.4</ele>
        <time>2021-07-04T07:02:23Z</time>
      </trkpt>
      <trkpt lat="47.40578" lon="-0.63851">
        <ele>70.6</ele>
        <time>2021-07-04T07:02:25Z</time>
      </trkpt>
      <trkpt lat="47.40569" lon="-0.63851">
        <ele>70.2</ele>
        <time>2021-07-04T07:02:27Z</time>
      </trkpt>
      <trkpt lat="47.40562" lon="-0.63854">
        <ele>70</ele>
        <time>2021-07-04T07:02:29Z</time>
      </trkpt>
      <trkpt lat="47.40557" lon="-0.63854">
        <ele>70.2</ele>
        <time>2021-07-04T07:02:30Z</time>
      </trkpt>
      <trkpt lat="47.40553" lon="-0.63854">
        <ele>70.2</ele>
        <time>2021-07-04T07:02:31Z</time>
      </trkpt>
      <trkpt lat="47.40543" lon="-0.63855">
        <ele>70</ele>
        <time>2021-07-04T07:02:33Z</time>
      </trkpt>
      <trkpt lat="47.40538" lon="-0.63857">
        <ele>70</ele>
        <time>2021-07-04T07:02:34Z</time>
      </trkpt>
      <trkpt lat="47.40533" lon="-0.6386">
        <ele>69.8</ele>
        <time>2021-07-04T07:02:35Z</time>
      </trkpt>
      <trkpt lat="47.40524" lon="-0.63865">
        <ele>69.6</ele>
        <time>2021-07-04T07:02:37Z</time>
      </trkpt>
      <trkpt lat="47.40514" lon="-0.63869">
        <ele>68.8</ele>
        <time>2021-07-04T07:02:39Z</time>
      </trkpt>
      <trkpt lat="47.40508" lon="-0.63872">
        <ele>68</ele>
        <time>2021-07-04T07:02:40Z</time>
      </trkpt>
      <trkpt lat="47.40503" lon="-0.63876">
        <ele>67.6</ele>
        <time>2021-07-04T07:02:41Z</time>
      </trkpt>
      <trkpt lat="47.40498" lon="-0.63878">
        <ele>67</ele>
        <time>2021-07-04T07:02:42Z</time>
      </trkpt>
      <trkpt lat="47.40494" lon="-0.6388">
        <ele>66.4</ele>
        <time>2021-07-04T07:02:43Z</time>
      </trkpt>
      <trkpt lat="47.40489" lon="-0.63882">
        <ele>65</ele>
        <time>2021-07-04T07:02:44Z</time>
      </trkpt>
      <trkpt lat="47.40485" lon="-0.63882">
        <ele>63.6</ele>
        <time>2021-07-04T07:02:45Z</time>
      </trkpt>
      <trkpt lat="47.4048" lon="-0.63883">
        <ele>62.4</ele>
        <time>2021-07-04T07:02:46Z</time>
      </trkpt>
      <trkpt lat="47.40475" lon="-0.63884">
        <ele>61</ele>
        <time>2021-07-04T07:02:47Z</time>
      </trkpt>
      <trkpt lat="47.4047" lon="-0.63886">
        <ele>60.6</ele>
        <time>2021-07-04T07:02:48Z</time>
      </trkpt>
      <trkpt lat="47.40465" lon="-0.63887">
        <ele>60</ele>
        <time>2021-07-04T07:02:49Z</time>
      </trkpt>
      <trkpt lat="47.40454" lon="-0.63887">
        <ele>58.4</ele>
        <time>2021-07-04T07:02:51Z</time>
      </trkpt>
      <trkpt lat="47.40445" lon="-0.63885">
        <ele>57</ele>
        <time>2021-07-04T07:02:53Z</time>
      </trkpt>
      <trkpt lat="47.40436" lon="-0.6388">
        <ele>55.6</ele>
        <time>2021-07-04T07:02:55Z</time>
      </trkpt>
      <trkpt lat="47.40431" lon="-0.63877">
        <ele>55.4</ele>
        <time>2021-07-04T07:02:56Z</time>
      </trkpt>
      <trkpt lat="47.40427" lon="-0.63874">
        <ele>55.4</ele>
        <time>2021-07-04T07:02:57Z</time>
      </trkpt>
      <trkpt lat="47.40423" lon="-0.63871">
        <ele>56</ele>
        <time>2021-07-04T07:02:58Z</time>
      </trkpt>
      <trkpt lat="47.40418" lon="-0.63868">
        <ele>56.2</ele>
        <time>2021-07-04T07:02:59Z</time>
      </trkpt>
      <trkpt lat="47.40413" lon="-0.63866">
        <ele>56.6</ele>
        <time>2021-07-04T07:03:00Z</time>
      </trkpt>
      <trkpt lat="47.40407" lon="-0.63864">
        <ele>56.8</ele>
        <time>2021-07-04T07:03:01Z</time>
      </trkpt>
      <trkpt lat="47.40392" lon="-0.63861">
        <ele>56.8</ele>
        <time>2021-07-04T07:03:03Z</time>
      </trkpt>
      <trkpt lat="47.40385" lon="-0.63858">
        <ele>57.2</ele>
        <time>2021-07-04T07:03:04Z</time>
      </trkpt>
      <trkpt lat="47.40379" lon="-0.63855">
        <ele>57.4</ele>
        <time>2021-07-04T07:03:05Z</time>
      </trkpt>
      <trkpt lat="47.40373" lon="-0.63854">
        <ele>57.8</ele>
        <time>2021-07-04T07:03:06Z</time>
      </trkpt>
      <trkpt lat="47.40366" lon="-0.63851">
        <ele>58</ele>
        <time>2021-07-04T07:03:07Z</time>
      </trkpt>
      <trkpt lat="47.40355" lon="-0.63847">
        <ele>58.4</ele>
        <time>2021-07-04T07:03:09Z</time>
      </trkpt>
      <trkpt lat="47.40344" lon="-0.63842">
        <ele>58.2</ele>
        <time>2021-07-04T07:03:11Z</time>
      </trkpt>
      <trkpt lat="47.40332" lon="-0.63837">
        <ele>58.4</ele>
        <time>2021-07-04T07:03:13Z</time>
      </trkpt>
      <trkpt lat="47.40319" lon="-0.63832">
        <ele>58.4</ele>
        <time>2021-07-04T07:03:15Z</time>
      </trkpt>
      <trkpt lat="47.40307" lon="-0.6383">
        <ele>58.4</ele>
        <time>2021-07-04T07:03:17Z</time>
      </trkpt>
      <trkpt lat="47.40297" lon="-0.63837">
        <ele>58.8</ele>
        <time>2021-07-04T07:03:19Z</time>
      </trkpt>
      <trkpt lat="47.40293" lon="-0.63842">
        <ele>58.8</ele>
        <time>2021-07-04T07:03:20Z</time>
      </trkpt>
      <trkpt lat="47.40289" lon="-0.63845">
        <ele>59.2</ele>
        <time>2021-07-04T07:03:21Z</time>
      </trkpt>
      <trkpt lat="47.40281" lon="-0.63854">
        <ele>58.8</ele>
        <time>2021-07-04T07:03:23Z</time>
      </trkpt>
      <trkpt lat="47.40272" lon="-0.63861">
        <ele>58.8</ele>
        <time>2021-07-04T07:03:25Z</time>
      </trkpt>
      <trkpt lat="47.40264" lon="-0.63868">
        <ele>59.2</ele>
        <time>2021-07-04T07:03:27Z</time>
      </trkpt>
      <trkpt lat="47.40261" lon="-0.63871">
        <ele>59</ele>
        <time>2021-07-04T07:03:28Z</time>
      </trkpt>
      <trkpt lat="47.40259" lon="-0.63874">
        <ele>59</ele>
        <time>2021-07-04T07:03:29Z</time>
      </trkpt>
      <trkpt lat="47.40257" lon="-0.63878">
        <ele>59.2</ele>
        <time>2021-07-04T07:03:30Z</time>
      </trkpt>
      <trkpt lat="47.40256" lon="-0.63882">
        <ele>59.6</ele>
        <time>2021-07-04T07:03:31Z</time>
      </trkpt>
      <trkpt lat="47.40256" lon="-0.63887">
        <ele>60</ele>
        <time>2021-07-04T07:03:32Z</time>
      </trkpt>
      <trkpt lat="47.40257" lon="-0.63891">
        <ele>60.4</ele>
        <time>2021-07-04T07:03:33Z</time>
      </trkpt>
      <trkpt lat="47.40259" lon="-0.63898">
        <ele>60.8</ele>
        <time>2021-07-04T07:03:35Z</time>
      </trkpt>
      <trkpt lat="47.4026" lon="-0.63903">
        <ele>61</ele>
        <time>2021-07-04T07:03:36Z</time>
      </trkpt>
      <trkpt lat="47.40262" lon="-0.63907">
        <ele>61</ele>
        <time>2021-07-04T07:03:37Z</time>
      </trkpt>
      <trkpt lat="47.40267" lon="-0.63916">
        <ele>61.4</ele>
        <time>2021-07-04T07:03:39Z</time>
      </trkpt>
      <trkpt lat="47.40272" lon="-0.63924">
        <ele>62</ele>
        <time>2021-07-04T07:03:41Z</time>
      </trkpt>
      <trkpt lat="47.40276" lon="-0.63933">
        <ele>62.8</ele>
        <time>2021-07-04T07:03:43Z</time>
      </trkpt>
      <trkpt lat="47.40277" lon="-0.63938">
        <ele>63.2</ele>
        <time>2021-07-04T07:03:44Z</time>
      </trkpt>
      <trkpt lat="47.40279" lon="-0.63943">
        <ele>63.4</ele>
        <time>2021-07-04T07:03:45Z</time>
      </trkpt>
      <trkpt lat="47.40284" lon="-0.63954">
        <ele>63.8</ele>
        <time>2021-07-04T07:03:47Z</time>
      </trkpt>
      <trkpt lat="47.40288" lon="-0.63964">
        <ele>64.2</ele>
        <time>2021-07-04T07:03:49Z</time>
      </trkpt>
      <trkpt lat="47.40292" lon="-0.63974">
        <ele>64.4</ele>
        <time>2021-07-04T07:03:51Z</time>
      </trkpt>
      <trkpt lat="47.40297" lon="-0.63985">
        <ele>64.6</ele>
        <time>2021-07-04T07:03:53Z</time>
      </trkpt>
      <trkpt lat="47.40303" lon="-0.63997">
        <ele>64.8</ele>
        <time>2021-07-04T07:03:55Z</time>
      </trkpt>
      <trkpt lat="47.40309" lon="-0.64008">
        <ele>64.8</ele>
        <time>2021-07-04T07:03:57Z</time>
      </trkpt>
      <trkpt lat="47.40314" lon="-0.6402">
        <ele>65</ele>
        <time>2021-07-04T07:03:59Z</time>
      </trkpt>
      <trkpt lat="47.40317" lon="-0.64025">
        <ele>65</ele>
        <time>2021-07-04T07:04:00Z</time>
      </trkpt>
      <trkpt lat="47.40319" lon="-0.64031">
        <ele>65</ele>
        <time>2021-07-04T07:04:01Z</time>
      </trkpt>
      <trkpt lat="47.40323" lon="-0.64043">
        <ele>65</ele>
        <time>2021-07-04T07:04:03Z</time>
      </trkpt>
      <trkpt lat="47.40328" lon="-0.64056">
        <ele>65.2</ele>
        <time>2021-07-04T07:04:05Z</time>
      </trkpt>
      <trkpt lat="47.40329" lon="-0.64063">
        <ele>65.2</ele>
        <time>2021-07-04T07:04:06Z</time>
      </trkpt>
      <trkpt lat="47.40332" lon="-0.64071">
        <ele>65.2</ele>
        <time>2021-07-04T07:04:07Z</time>
      </trkpt>
      <trkpt lat="47.40339" lon="-0.64085">
        <ele>65</ele>
        <time>2021-07-04T07:04:09Z</time>
      </trkpt>
      <trkpt lat="47.40345" lon="-0.64102">
        <ele>64.8</ele>
        <time>2021-07-04T07:04:11Z</time>
      </trkpt>
      <trkpt lat="47.40352" lon="-0.64117">
        <ele>64.6</ele>
        <time>2021-07-04T07:04:13Z</time>
      </trkpt>
      <trkpt lat="47.40359" lon="-0.64132">
        <ele>64.8</ele>
        <time>2021-07-04T07:04:15Z</time>
      </trkpt>
      <trkpt lat="47.40367" lon="-0.64148">
        <ele>64.8</ele>
        <time>2021-07-04T07:04:17Z</time>
      </trkpt>
      <trkpt lat="47.4037" lon="-0.64156">
        <ele>65</ele>
        <time>2021-07-04T07:04:18Z</time>
      </trkpt>
      <trkpt lat="47.40373" lon="-0.64163">
        <ele>65.2</ele>
        <time>2021-07-04T07:04:19Z</time>
      </trkpt>
      <trkpt lat="47.4038" lon="-0.64177">
        <ele>65.2</ele>
        <time>2021-07-04T07:04:21Z</time>
      </trkpt>
      <trkpt lat="47.40386" lon="-0.64191">
        <ele>65.2</ele>
        <time>2021-07-04T07:04:23Z</time>
      </trkpt>
      <trkpt lat="47.40391" lon="-0.64206">
        <ele>65.2</ele>
        <time>2021-07-04T07:04:25Z</time>
      </trkpt>
      <trkpt lat="47.40396" lon="-0.64221">
        <ele>65.4</ele>
        <time>2021-07-04T07:04:27Z</time>
      </trkpt>
      <trkpt lat="47.40401" lon="-0.64236">
        <ele>65.6</ele>
        <time>2021-07-04T07:04:29Z</time>
      </trkpt>
      <trkpt lat="47.40406" lon="-0.64251">
        <ele>65.2</ele>
        <time>2021-07-04T07:04:31Z</time>
      </trkpt>
      <trkpt lat="47.40411" lon="-0.64265">
        <ele>65.2</ele>
        <time>2021-07-04T07:04:33Z</time>
      </trkpt>
      <trkpt lat="47.40413" lon="-0.64272">
        <ele>65.2</ele>
        <time>2021-07-04T07:04:34Z</time>
      </trkpt>
      <trkpt lat="47.40415" lon="-0.6428">
        <ele>64.8</ele>
        <time>2021-07-04T07:04:35Z</time>
      </trkpt>
      <trkpt lat="47.40421" lon="-0.64293">
        <ele>64.4</ele>
        <time>2021-07-04T07:04:37Z</time>
      </trkpt>
      <trkpt lat="47.40426" lon="-0.64307">
        <ele>64</ele>
        <time>2021-07-04T07:04:39Z</time>
      </trkpt>
      <trkpt lat="47.40431" lon="-0.6432">
        <ele>63.8</ele>
        <time>2021-07-04T07:04:41Z</time>
      </trkpt>
      <trkpt lat="47.40434" lon="-0.64327">
        <ele>63.8</ele>
        <time>2021-07-04T07:04:42Z</time>
      </trkpt>
      <trkpt lat="47.40436" lon="-0.64333">
        <ele>64</ele>
        <time>2021-07-04T07:04:43Z</time>
      </trkpt>
      <trkpt lat="47.40441" lon="-0.64346">
        <ele>64</ele>
        <time>2021-07-04T07:04:45Z</time>
      </trkpt>
      <trkpt lat="47.40446" lon="-0.6436">
        <ele>63.8</ele>
        <time>2021-07-04T07:04:47Z</time>
      </trkpt>
      <trkpt lat="47.40449" lon="-0.64367">
        <ele>63.6</ele>
        <time>2021-07-04T07:04:48Z</time>
      </trkpt>
      <trkpt lat="47.40453" lon="-0.64375">
        <ele>63.4</ele>
        <time>2021-07-04T07:04:49Z</time>
      </trkpt>
      <trkpt lat="47.40456" lon="-0.64382">
        <ele>63.4</ele>
        <time>2021-07-04T07:04:50Z</time>
      </trkpt>
      <trkpt lat="47.40459" lon="-0.64389">
        <ele>63.2</ele>
        <time>2021-07-04T07:04:51Z</time>
      </trkpt>
      <trkpt lat="47.40464" lon="-0.64403">
        <ele>63.4</ele>
        <time>2021-07-04T07:04:53Z</time>
      </trkpt>
      <trkpt lat="47.4047" lon="-0.64416">
        <ele>63.6</ele>
        <time>2021-07-04T07:04:55Z</time>
      </trkpt>
      <trkpt lat="47.40473" lon="-0.64422">
        <ele>63.6</ele>
        <time>2021-07-04T07:04:56Z</time>
      </trkpt>
      <trkpt lat="47.40472" lon="-0.6443">
        <ele>63.8</ele>
        <time>2021-07-04T07:04:57Z</time>
      </trkpt>
      <trkpt lat="47.40464" lon="-0.64441">
        <ele>63.6</ele>
        <time>2021-07-04T07:04:59Z</time>
      </trkpt>
      <trkpt lat="47.40454" lon="-0.64445">
        <ele>63.8</ele>
        <time>2021-07-04T07:05:01Z</time>
      </trkpt>
      <trkpt lat="47.40448" lon="-0.64446">
        <ele>64</ele>
        <time>2021-07-04T07:05:02Z</time>
      </trkpt>
      <trkpt lat="47.40443" lon="-0.64449">
        <ele>64</ele>
        <time>2021-07-04T07:05:03Z</time>
      </trkpt>
      <trkpt lat="47.40438" lon="-0.64452">
        <ele>64</ele>
        <time>2021-07-04T07:05:04Z</time>
      </trkpt>
      <trkpt lat="47.40433" lon="-0.64454">
        <ele>64</ele>
        <time>2021-07-04T07:05:05Z</time>
      </trkpt>
      <trkpt lat="47.40423" lon="-0.64458">
        <ele>64.2</ele>
        <time>2021-07-04T07:05:07Z</time>
      </trkpt>
      <trkpt lat="47.40418" lon="-0.64461">
        <ele>64.4</ele>
        <time>2021-07-04T07:05:08Z</time>
      </trkpt>
      <trkpt lat="47.40412" lon="-0.64463">
        <ele>64.6</ele>
        <time>2021-07-04T07:05:09Z</time>
      </trkpt>
      <trkpt lat="47.40402" lon="-0.64468">
        <ele>64.8</ele>
        <time>2021-07-04T07:05:11Z</time>
      </trkpt>
      <trkpt lat="47.40391" lon="-0.64473">
        <ele>65</ele>
        <time>2021-07-04T07:05:13Z</time>
      </trkpt>
      <trkpt lat="47.4038" lon="-0.64478">
        <ele>65</ele>
        <time>2021-07-04T07:05:15Z</time>
      </trkpt>
      <trkpt lat="47.4037" lon="-0.64482">
        <ele>65</ele>
        <time>2021-07-04T07:05:17Z</time>
      </trkpt>
      <trkpt lat="47.40365" lon="-0.64485">
        <ele>65</ele>
        <time>2021-07-04T07:05:18Z</time>
      </trkpt>
      <trkpt lat="47.4036" lon="-0.64487">
        <ele>65</ele>
        <time>2021-07-04T07:05:19Z</time>
      </trkpt>
      <trkpt lat="47.4035" lon="-0.64492">
        <ele>65.2</ele>
        <time>2021-07-04T07:05:21Z</time>
      </trkpt>
      <trkpt lat="47.40345" lon="-0.64495">
        <ele>65.6</ele>
        <time>2021-07-04T07:05:22Z</time>
      </trkpt>
      <trkpt lat="47.40341" lon="-0.64498">
        <ele>65.8</ele>
        <time>2021-07-04T07:05:23Z</time>
      </trkpt>
      <trkpt lat="47.40332" lon="-0.64503">
        <ele>66.2</ele>
        <time>2021-07-04T07:05:25Z</time>
      </trkpt>
      <trkpt lat="47.40327" lon="-0.64506">
        <ele>66.4</ele>
        <time>2021-07-04T07:05:26Z</time>
      </trkpt>
      <trkpt lat="47.40322" lon="-0.64509">
        <ele>66.6</ele>
        <time>2021-07-04T07:05:27Z</time>
      </trkpt>
      <trkpt lat="47.40313" lon="-0.64515">
        <ele>66.8</ele>
        <time>2021-07-04T07:05:29Z</time>
      </trkpt>
      <trkpt lat="47.40304" lon="-0.64522">
        <ele>67</ele>
        <time>2021-07-04T07:05:31Z</time>
      </trkpt>
      <trkpt lat="47.40295" lon="-0.64528">
        <ele>67.6</ele>
        <time>2021-07-04T07:05:33Z</time>
      </trkpt>
      <trkpt lat="47.40285" lon="-0.64535">
        <ele>67</ele>
        <time>2021-07-04T07:05:35Z</time>
      </trkpt>
      <trkpt lat="47.40276" lon="-0.6454">
        <ele>67.4</ele>
        <time>2021-07-04T07:05:37Z</time>
      </trkpt>
      <trkpt lat="47.40271" lon="-0.64543">
        <ele>67.8</ele>
        <time>2021-07-04T07:05:38Z</time>
      </trkpt>
      <trkpt lat="47.40266" lon="-0.64545">
        <ele>68.2</ele>
        <time>2021-07-04T07:05:39Z</time>
      </trkpt>
      <trkpt lat="47.40257" lon="-0.64551">
        <ele>68.2</ele>
        <time>2021-07-04T07:05:41Z</time>
      </trkpt>
      <trkpt lat="47.40248" lon="-0.64557">
        <ele>68.4</ele>
        <time>2021-07-04T07:05:43Z</time>
      </trkpt>
      <trkpt lat="47.40238" lon="-0.64562">
        <ele>68.8</ele>
        <time>2021-07-04T07:05:45Z</time>
      </trkpt>
      <trkpt lat="47.40234" lon="-0.64566">
        <ele>69.2</ele>
        <time>2021-07-04T07:05:46Z</time>
      </trkpt>
      <trkpt lat="47.40229" lon="-0.64568">
        <ele>69.4</ele>
        <time>2021-07-04T07:05:47Z</time>
      </trkpt>
      <trkpt lat="47.40219" lon="-0.64573">
        <ele>69.4</ele>
        <time>2021-07-04T07:05:49Z</time>
      </trkpt>
      <trkpt lat="47.40209" lon="-0.64578">
        <ele>69.8</ele>
        <time>2021-07-04T07:05:51Z</time>
      </trkpt>
      <trkpt lat="47.40199" lon="-0.64582">
        <ele>70</ele>
        <time>2021-07-04T07:05:53Z</time>
      </trkpt>
      <trkpt lat="47.40194" lon="-0.64584">
        <ele>70.2</ele>
        <time>2021-07-04T07:05:54Z</time>
      </trkpt>
      <trkpt lat="47.40189" lon="-0.64586">
        <ele>70.8</ele>
        <time>2021-07-04T07:05:55Z</time>
      </trkpt>
      <trkpt lat="47.40178" lon="-0.64589">
        <ele>71</ele>
        <time>2021-07-04T07:05:57Z</time>
      </trkpt>
      <trkpt lat="47.40168" lon="-0.64592">
        <ele>71</ele>
        <time>2021-07-04T07:05:59Z</time>
      </trkpt>
      <trkpt lat="47.40158" lon="-0.64595">
        <ele>71.2</ele>
        <time>2021-07-04T07:06:01Z</time>
      </trkpt>
      <trkpt lat="47.40152" lon="-0.64597">
        <ele>71.2</ele>
        <time>2021-07-04T07:06:02Z</time>
      </trkpt>
      <trkpt lat="47.40147" lon="-0.64599">
        <ele>71.4</ele>
        <time>2021-07-04T07:06:03Z</time>
      </trkpt>
      <trkpt lat="47.40137" lon="-0.64603">
        <ele>71.2</ele>
        <time>2021-07-04T07:06:05Z</time>
      </trkpt>
      <trkpt lat="47.40126" lon="-0.64607">
        <ele>70.6</ele>
        <time>2021-07-04T07:06:07Z</time>
      </trkpt>
      <trkpt lat="47.40121" lon="-0.64608">
        <ele>70.4</ele>
        <time>2021-07-04T07:06:08Z</time>
      </trkpt>
      <trkpt lat="47.40115" lon="-0.6461">
        <ele>70.4</ele>
        <time>2021-07-04T07:06:09Z</time>
      </trkpt>
      <trkpt lat="47.4011" lon="-0.64611">
        <ele>70.6</ele>
        <time>2021-07-04T07:06:10Z</time>
      </trkpt>
      <trkpt lat="47.40105" lon="-0.64611">
        <ele>70.6</ele>
        <time>2021-07-04T07:06:11Z</time>
      </trkpt>
      <trkpt lat="47.40095" lon="-0.64611">
        <ele>70.8</ele>
        <time>2021-07-04T07:06:13Z</time>
      </trkpt>
      <trkpt lat="47.40085" lon="-0.64613">
        <ele>70.8</ele>
        <time>2021-07-04T07:06:15Z</time>
      </trkpt>
      <trkpt lat="47.40074" lon="-0.64614">
        <ele>70.6</ele>
        <time>2021-07-04T07:06:17Z</time>
      </trkpt>
      <trkpt lat="47.40069" lon="-0.64616">
        <ele>70.6</ele>
        <time>2021-07-04T07:06:18Z</time>
      </trkpt>
      <trkpt lat="47.40064" lon="-0.64618">
        <ele>70.6</ele>
        <time>2021-07-04T07:06:19Z</time>
      </trkpt>
      <trkpt lat="47.40056" lon="-0.6462">
        <ele>70.8</ele>
        <time>2021-07-04T07:06:21Z</time>
      </trkpt>
      <trkpt lat="47.40052" lon="-0.64621">
        <ele>70.8</ele>
        <time>2021-07-04T07:06:22Z</time>
      </trkpt>
      <trkpt lat="47.40047" lon="-0.64622">
        <ele>71</ele>
        <time>2021-07-04T07:06:23Z</time>
      </trkpt>
      <trkpt lat="47.40036" lon="-0.64625">
        <ele>70.8</ele>
        <time>2021-07-04T07:06:25Z</time>
      </trkpt>
      <trkpt lat="47.40026" lon="-0.64627">
        <ele>71</ele>
        <time>2021-07-04T07:06:27Z</time>
      </trkpt>
      <trkpt lat="47.40016" lon="-0.64631">
        <ele>71.4</ele>
        <time>2021-07-04T07:06:29Z</time>
      </trkpt>
      <trkpt lat="47.40007" lon="-0.64634">
        <ele>71.4</ele>
        <time>2021-07-04T07:06:31Z</time>
      </trkpt>
      <trkpt lat="47.39999" lon="-0.64638">
        <ele>71.6</ele>
        <time>2021-07-04T07:06:33Z</time>
      </trkpt>
      <trkpt lat="47.3999" lon="-0.64641">
        <ele>72</ele>
        <time>2021-07-04T07:06:35Z</time>
      </trkpt>
      <trkpt lat="47.39984" lon="-0.64642">
        <ele>72.8</ele>
        <time>2021-07-04T07:06:37Z</time>
      </trkpt>
      <trkpt lat="47.39979" lon="-0.64645">
        <ele>73.4</ele>
        <time>2021-07-04T07:06:39Z</time>
      </trkpt>
      <trkpt lat="47.39972" lon="-0.64647">
        <ele>73.4</ele>
        <time>2021-07-04T07:06:41Z</time>
      </trkpt>
      <trkpt lat="47.39965" lon="-0.64649">
        <ele>73.2</ele>
        <time>2021-07-04T07:06:43Z</time>
      </trkpt>
      <trkpt lat="47.39957" lon="-0.64654">
        <ele>73</ele>
        <time>2021-07-04T07:06:45Z</time>
      </trkpt>
      <trkpt lat="47.39948" lon="-0.64657">
        <ele>73.2</ele>
        <time>2021-07-04T07:06:47Z</time>
      </trkpt>
      <trkpt lat="47.39944" lon="-0.6466">
        <ele>73.4</ele>
        <time>2021-07-04T07:06:48Z</time>
      </trkpt>
      <trkpt lat="47.39939" lon="-0.64661">
        <ele>73.6</ele>
        <time>2021-07-04T07:06:49Z</time>
      </trkpt>
      <trkpt lat="47.39935" lon="-0.64663">
        <ele>74</ele>
        <time>2021-07-04T07:06:50Z</time>
      </trkpt>
      <trkpt lat="47.39931" lon="-0.64664">
        <ele>74.2</ele>
        <time>2021-07-04T07:06:51Z</time>
      </trkpt>
      <trkpt lat="47.39922" lon="-0.64668">
        <ele>74.6</ele>
        <time>2021-07-04T07:06:53Z</time>
      </trkpt>
      <trkpt lat="47.39917" lon="-0.6467">
        <ele>74.6</ele>
        <time>2021-07-04T07:06:54Z</time>
      </trkpt>
      <trkpt lat="47.39912" lon="-0.64673">
        <ele>74.8</ele>
        <time>2021-07-04T07:06:55Z</time>
      </trkpt>
      <trkpt lat="47.39903" lon="-0.64677">
        <ele>74.8</ele>
        <time>2021-07-04T07:06:57Z</time>
      </trkpt>
      <trkpt lat="47.39897" lon="-0.64679">
        <ele>74.6</ele>
        <time>2021-07-04T07:06:58Z</time>
      </trkpt>
      <trkpt lat="47.39893" lon="-0.6468">
        <ele>74.6</ele>
        <time>2021-07-04T07:06:59Z</time>
      </trkpt>
      <trkpt lat="47.39887" lon="-0.64682">
        <ele>74.8</ele>
        <time>2021-07-04T07:07:00Z</time>
      </trkpt>
      <trkpt lat="47.39882" lon="-0.64683">
        <ele>75</ele>
        <time>2021-07-04T07:07:01Z</time>
      </trkpt>
      <trkpt lat="47.3987" lon="-0.64687">
        <ele>75.2</ele>
        <time>2021-07-04T07:07:03Z</time>
      </trkpt>
      <trkpt lat="47.39865" lon="-0.64686">
        <ele>75</ele>
        <time>2021-07-04T07:07:04Z</time>
      </trkpt>
      <trkpt lat="47.39858" lon="-0.64684">
        <ele>74.6</ele>
        <time>2021-07-04T07:07:05Z</time>
      </trkpt>
      <trkpt lat="47.39841" lon="-0.64688">
        <ele>74</ele>
        <time>2021-07-04T07:07:07Z</time>
      </trkpt>
      <trkpt lat="47.39826" lon="-0.64693">
        <ele>74</ele>
        <time>2021-07-04T07:07:09Z</time>
      </trkpt>
      <trkpt lat="47.39812" lon="-0.64696">
        <ele>73.2</ele>
        <time>2021-07-04T07:07:11Z</time>
      </trkpt>
      <trkpt lat="47.39805" lon="-0.64697">
        <ele>72.8</ele>
        <time>2021-07-04T07:07:12Z</time>
      </trkpt>
      <trkpt lat="47.39797" lon="-0.64698">
        <ele>72.8</ele>
        <time>2021-07-04T07:07:13Z</time>
      </trkpt>
      <trkpt lat="47.3979" lon="-0.64698">
        <ele>72.2</ele>
        <time>2021-07-04T07:07:14Z</time>
      </trkpt>
      <trkpt lat="47.39783" lon="-0.64698">
        <ele>71.6</ele>
        <time>2021-07-04T07:07:15Z</time>
      </trkpt>
      <trkpt lat="47.39768" lon="-0.64698">
        <ele>70.6</ele>
        <time>2021-07-04T07:07:17Z</time>
      </trkpt>
      <trkpt lat="47.3976" lon="-0.64698">
        <ele>70.4</ele>
        <time>2021-07-04T07:07:18Z</time>
      </trkpt>
      <trkpt lat="47.39752" lon="-0.64699">
        <ele>70.6</ele>
        <time>2021-07-04T07:07:19Z</time>
      </trkpt>
      <trkpt lat="47.39737" lon="-0.64699">
        <ele>70.6</ele>
        <time>2021-07-04T07:07:21Z</time>
      </trkpt>
      <trkpt lat="47.3973" lon="-0.64699">
        <ele>70.2</ele>
        <time>2021-07-04T07:07:22Z</time>
      </trkpt>
      <trkpt lat="47.39722" lon="-0.64698">
        <ele>70.4</ele>
        <time>2021-07-04T07:07:23Z</time>
      </trkpt>
      <trkpt lat="47.39708" lon="-0.64698">
        <ele>70.6</ele>
        <time>2021-07-04T07:07:25Z</time>
      </trkpt>
      <trkpt lat="47.39696" lon="-0.64701">
        <ele>70</ele>
        <time>2021-07-04T07:07:27Z</time>
      </trkpt>
      <trkpt lat="47.39688" lon="-0.64707">
        <ele>71</ele>
        <time>2021-07-04T07:07:29Z</time>
      </trkpt>
      <trkpt lat="47.39686" lon="-0.6471">
        <ele>71.6</ele>
        <time>2021-07-04T07:07:30Z</time>
      </trkpt>
      <trkpt lat="47.39685" lon="-0.64713">
        <ele>71.8</ele>
        <time>2021-07-04T07:07:31Z</time>
      </trkpt>
      <trkpt lat="47.39687" lon="-0.64714">
        <ele>71.8</ele>
        <time>2021-07-04T07:07:32Z</time>
      </trkpt>
      <trkpt lat="47.3969" lon="-0.64715">
        <ele>71.8</ele>
        <time>2021-07-04T07:07:33Z</time>
      </trkpt>
      <trkpt lat="47.39698" lon="-0.64719">
        <ele>71.8</ele>
        <time>2021-07-04T07:07:35Z</time>
      </trkpt>
      <trkpt lat="47.39702" lon="-0.64721">
        <ele>72</ele>
        <time>2021-07-04T07:07:36Z</time>
      </trkpt>
      <trkpt lat="47.39706" lon="-0.64723">
        <ele>72</ele>
        <time>2021-07-04T07:07:37Z</time>
      </trkpt>
      <trkpt lat="47.39714" lon="-0.6473">
        <ele>72.2</ele>
        <time>2021-07-04T07:07:39Z</time>
      </trkpt>
      <trkpt lat="47.39722" lon="-0.64736">
        <ele>72.6</ele>
        <time>2021-07-04T07:07:41Z</time>
      </trkpt>
      <trkpt lat="47.39725" lon="-0.6474">
        <ele>72.6</ele>
        <time>2021-07-04T07:07:42Z</time>
      </trkpt>
      <trkpt lat="47.39729" lon="-0.64744">
        <ele>72.8</ele>
        <time>2021-07-04T07:07:43Z</time>
      </trkpt>
      <trkpt lat="47.39736" lon="-0.64753">
        <ele>73</ele>
        <time>2021-07-04T07:07:45Z</time>
      </trkpt>
      <trkpt lat="47.39742" lon="-0.64764">
        <ele>73.4</ele>
        <time>2021-07-04T07:07:47Z</time>
      </trkpt>
      <trkpt lat="47.39745" lon="-0.64769">
        <ele>73.4</ele>
        <time>2021-07-04T07:07:48Z</time>
      </trkpt>
      <trkpt lat="47.39748" lon="-0.64775">
        <ele>73.4</ele>
        <time>2021-07-04T07:07:49Z</time>
      </trkpt>
      <trkpt lat="47.39752" lon="-0.64787">
        <ele>73.6</ele>
        <time>2021-07-04T07:07:51Z</time>
      </trkpt>
      <trkpt lat="47.39757" lon="-0.64798">
        <ele>74</ele>
        <time>2021-07-04T07:07:53Z</time>
      </trkpt>
      <trkpt lat="47.39758" lon="-0.64804">
        <ele>74</ele>
        <time>2021-07-04T07:07:54Z</time>
      </trkpt>
      <trkpt lat="47.39759" lon="-0.6481">
        <ele>74</ele>
        <time>2021-07-04T07:07:55Z</time>
      </trkpt>
      <trkpt lat="47.39753" lon="-0.6482">
        <ele>73.8</ele>
        <time>2021-07-04T07:07:57Z</time>
      </trkpt>
      <trkpt lat="47.39747" lon="-0.6483">
        <ele>73.8</ele>
        <time>2021-07-04T07:07:59Z</time>
      </trkpt>
      <trkpt lat="47.3974" lon="-0.64841">
        <ele>73.4</ele>
        <time>2021-07-04T07:08:01Z</time>
      </trkpt>
      <trkpt lat="47.39736" lon="-0.64847">
        <ele>73</ele>
        <time>2021-07-04T07:08:02Z</time>
      </trkpt>
      <trkpt lat="47.39732" lon="-0.64852">
        <ele>72.6</ele>
        <time>2021-07-04T07:08:03Z</time>
      </trkpt>
      <trkpt lat="47.39724" lon="-0.64863">
        <ele>72.4</ele>
        <time>2021-07-04T07:08:05Z</time>
      </trkpt>
      <trkpt lat="47.3972" lon="-0.6487">
        <ele>72.2</ele>
        <time>2021-07-04T07:08:06Z</time>
      </trkpt>
      <trkpt lat="47.39716" lon="-0.64877">
        <ele>71.8</ele>
        <time>2021-07-04T07:08:07Z</time>
      </trkpt>
      <trkpt lat="47.39708" lon="-0.6489">
        <ele>71.2</ele>
        <time>2021-07-04T07:08:09Z</time>
      </trkpt>
      <trkpt lat="47.39704" lon="-0.64897">
        <ele>71</ele>
        <time>2021-07-04T07:08:10Z</time>
      </trkpt>
      <trkpt lat="47.397" lon="-0.64903">
        <ele>71.2</ele>
        <time>2021-07-04T07:08:11Z</time>
      </trkpt>
      <trkpt lat="47.39696" lon="-0.6491">
        <ele>70.8</ele>
        <time>2021-07-04T07:08:12Z</time>
      </trkpt>
      <trkpt lat="47.39692" lon="-0.64917">
        <ele>70.8</ele>
        <time>2021-07-04T07:08:13Z</time>
      </trkpt>
      <trkpt lat="47.39688" lon="-0.64923">
        <ele>70.2</ele>
        <time>2021-07-04T07:08:14Z</time>
      </trkpt>
      <trkpt lat="47.39685" lon="-0.64929">
        <ele>70.2</ele>
        <time>2021-07-04T07:08:15Z</time>
      </trkpt>
      <trkpt lat="47.39678" lon="-0.64941">
        <ele>70</ele>
        <time>2021-07-04T07:08:17Z</time>
      </trkpt>
      <trkpt lat="47.39675" lon="-0.64948">
        <ele>69.6</ele>
        <time>2021-07-04T07:08:18Z</time>
      </trkpt>
      <trkpt lat="47.39672" lon="-0.64954">
        <ele>69.4</ele>
        <time>2021-07-04T07:08:19Z</time>
      </trkpt>
      <trkpt lat="47.39669" lon="-0.64961">
        <ele>69.2</ele>
        <time>2021-07-04T07:08:20Z</time>
      </trkpt>
      <trkpt lat="47.39665" lon="-0.64968">
        <ele>68.8</ele>
        <time>2021-07-04T07:08:21Z</time>
      </trkpt>
      <trkpt lat="47.39662" lon="-0.64974">
        <ele>69</ele>
        <time>2021-07-04T07:08:22Z</time>
      </trkpt>
      <trkpt lat="47.39658" lon="-0.64981">
        <ele>69.2</ele>
        <time>2021-07-04T07:08:23Z</time>
      </trkpt>
      <trkpt lat="47.39652" lon="-0.64993">
        <ele>69.4</ele>
        <time>2021-07-04T07:08:25Z</time>
      </trkpt>
      <trkpt lat="47.39646" lon="-0.65004">
        <ele>68.6</ele>
        <time>2021-07-04T07:08:27Z</time>
      </trkpt>
      <trkpt lat="47.39642" lon="-0.65011">
        <ele>67.6</ele>
        <time>2021-07-04T07:08:28Z</time>
      </trkpt>
      <trkpt lat="47.39638" lon="-0.65017">
        <ele>66.8</ele>
        <time>2021-07-04T07:08:29Z</time>
      </trkpt>
      <trkpt lat="47.39634" lon="-0.65023">
        <ele>66.2</ele>
        <time>2021-07-04T07:08:30Z</time>
      </trkpt>
      <trkpt lat="47.3963" lon="-0.65029">
        <ele>66.2</ele>
        <time>2021-07-04T07:08:31Z</time>
      </trkpt>
      <trkpt lat="47.39625" lon="-0.65036">
        <ele>66.4</ele>
        <time>2021-07-04T07:08:33Z</time>
      </trkpt>
      <trkpt lat="47.39619" lon="-0.65044">
        <ele>66.4</ele>
        <time>2021-07-04T07:08:35Z</time>
      </trkpt>
      <trkpt lat="47.39615" lon="-0.65051">
        <ele>65.8</ele>
        <time>2021-07-04T07:08:37Z</time>
      </trkpt>
      <trkpt lat="47.39613" lon="-0.65054">
        <ele>64.6</ele>
        <time>2021-07-04T07:08:38Z</time>
      </trkpt>
      <trkpt lat="47.39611" lon="-0.65057">
        <ele>64.4</ele>
        <time>2021-07-04T07:08:39Z</time>
      </trkpt>
      <trkpt lat="47.39608" lon="-0.65062">
        <ele>64.6</ele>
        <time>2021-07-04T07:08:41Z</time>
      </trkpt>
      <trkpt lat="47.39604" lon="-0.65067">
        <ele>63.6</ele>
        <time>2021-07-04T07:08:43Z</time>
      </trkpt>
      <trkpt lat="47.396" lon="-0.6507">
        <ele>63.4</ele>
        <time>2021-07-04T07:08:45Z</time>
      </trkpt>
      <trkpt lat="47.39596" lon="-0.65075">
        <ele>62.8</ele>
        <time>2021-07-04T07:08:47Z</time>
      </trkpt>
      <trkpt lat="47.39592" lon="-0.65078">
        <ele>62.2</ele>
        <time>2021-07-04T07:08:48Z</time>
      </trkpt>
      <trkpt lat="47.3959" lon="-0.65081">
        <ele>61.8</ele>
        <time>2021-07-04T07:08:49Z</time>
      </trkpt>
      <trkpt lat="47.39588" lon="-0.65084">
        <ele>60.8</ele>
        <time>2021-07-04T07:08:50Z</time>
      </trkpt>
      <trkpt lat="47.39585" lon="-0.65086">
        <ele>60.4</ele>
        <time>2021-07-04T07:08:51Z</time>
      </trkpt>
      <trkpt lat="47.39579" lon="-0.6509">
        <ele>60</ele>
        <time>2021-07-04T07:08:53Z</time>
      </trkpt>
      <trkpt lat="47.39576" lon="-0.65091">
        <ele>60</ele>
        <time>2021-07-04T07:08:54Z</time>
      </trkpt>
      <trkpt lat="47.39573" lon="-0.65092">
        <ele>60.2</ele>
        <time>2021-07-04T07:08:55Z</time>
      </trkpt>
      <trkpt lat="47.39569" lon="-0.65094">
        <ele>60</ele>
        <time>2021-07-04T07:08:57Z</time>
      </trkpt>
      <trkpt lat="47.39567" lon="-0.65095">
        <ele>59.6</ele>
        <time>2021-07-04T07:08:58Z</time>
      </trkpt>
      <trkpt lat="47.39564" lon="-0.65097">
        <ele>59.2</ele>
        <time>2021-07-04T07:08:59Z</time>
      </trkpt>
      <trkpt lat="47.39559" lon="-0.65102">
        <ele>58.8</ele>
        <time>2021-07-04T07:09:01Z</time>
      </trkpt>
      <trkpt lat="47.39557" lon="-0.65104">
        <ele>58.4</ele>
        <time>2021-07-04T07:09:02Z</time>
      </trkpt>
      <trkpt lat="47.39554" lon="-0.65106">
        <ele>58.2</ele>
        <time>2021-07-04T07:09:03Z</time>
      </trkpt>
      <trkpt lat="47.39547" lon="-0.65111">
        <ele>57.4</ele>
        <time>2021-07-04T07:09:05Z</time>
      </trkpt>
      <trkpt lat="47.39544" lon="-0.65113">
        <ele>56.8</ele>
        <time>2021-07-04T07:09:06Z</time>
      </trkpt>
      <trkpt lat="47.39541" lon="-0.65116">
        <ele>56.6</ele>
        <time>2021-07-04T07:09:07Z</time>
      </trkpt>
      <trkpt lat="47.39538" lon="-0.65119">
        <ele>55.8</ele>
        <time>2021-07-04T07:09:08Z</time>
      </trkpt>
      <trkpt lat="47.39534" lon="-0.65123">
        <ele>55.4</ele>
        <time>2021-07-04T07:09:09Z</time>
      </trkpt>
      <trkpt lat="47.3953" lon="-0.65126">
        <ele>54.6</ele>
        <time>2021-07-04T07:09:10Z</time>
      </trkpt>
      <trkpt lat="47.39525" lon="-0.65129">
        <ele>54.2</ele>
        <time>2021-07-04T07:09:11Z</time>
      </trkpt>
      <trkpt lat="47.39521" lon="-0.65132">
        <ele>53.4</ele>
        <time>2021-07-04T07:09:12Z</time>
      </trkpt>
      <trkpt lat="47.39517" lon="-0.65136">
        <ele>53.2</ele>
        <time>2021-07-04T07:09:13Z</time>
      </trkpt>
      <trkpt lat="47.3951" lon="-0.65143">
        <ele>52.8</ele>
        <time>2021-07-04T07:09:15Z</time>
      </trkpt>
      <trkpt lat="47.39508" lon="-0.65145">
        <ele>52.8</ele>
        <time>2021-07-04T07:09:16Z</time>
      </trkpt>
      <trkpt lat="47.39505" lon="-0.65147">
        <ele>53.2</ele>
        <time>2021-07-04T07:09:17Z</time>
      </trkpt>
      <trkpt lat="47.395" lon="-0.65149">
        <ele>53.4</ele>
        <time>2021-07-04T07:09:19Z</time>
      </trkpt>
      <trkpt lat="47.39494" lon="-0.65152">
        <ele>53</ele>
        <time>2021-07-04T07:09:21Z</time>
      </trkpt>
      <trkpt lat="47.39488" lon="-0.65153">
        <ele>53</ele>
        <time>2021-07-04T07:09:23Z</time>
      </trkpt>
      <trkpt lat="47.39485" lon="-0.65152">
        <ele>53.8</ele>
        <time>2021-07-04T07:09:24Z</time>
      </trkpt>
      <trkpt lat="47.39483" lon="-0.65152">
        <ele>54.2</ele>
        <time>2021-07-04T07:09:25Z</time>
      </trkpt>
      <trkpt lat="47.3948" lon="-0.65153">
        <ele>54.4</ele>
        <time>2021-07-04T07:09:26Z</time>
      </trkpt>
      <trkpt lat="47.39477" lon="-0.65154">
        <ele>54.4</ele>
        <time>2021-07-04T07:09:27Z</time>
      </trkpt>
      <trkpt lat="47.39472" lon="-0.65156">
        <ele>56</ele>
        <time>2021-07-04T07:09:29Z</time>
      </trkpt>
      <trkpt lat="47.39466" lon="-0.6516">
        <ele>56.4</ele>
        <time>2021-07-04T07:09:31Z</time>
      </trkpt>
      <trkpt lat="47.3946" lon="-0.65166">
        <ele>57.2</ele>
        <time>2021-07-04T07:09:33Z</time>
      </trkpt>
      <trkpt lat="47.39457" lon="-0.65169">
        <ele>57.6</ele>
        <time>2021-07-04T07:09:34Z</time>
      </trkpt>
      <trkpt lat="47.39453" lon="-0.65172">
        <ele>57.8</ele>
        <time>2021-07-04T07:09:35Z</time>
      </trkpt>
      <trkpt lat="47.39446" lon="-0.65179">
        <ele>58</ele>
        <time>2021-07-04T07:09:37Z</time>
      </trkpt>
      <trkpt lat="47.39438" lon="-0.65186">
        <ele>58.4</ele>
        <time>2021-07-04T07:09:39Z</time>
      </trkpt>
      <trkpt lat="47.39435" lon="-0.65189">
        <ele>58.4</ele>
        <time>2021-07-04T07:09:40Z</time>
      </trkpt>
      <trkpt lat="47.39432" lon="-0.65191">
        <ele>58.6</ele>
        <time>2021-07-04T07:09:41Z</time>
      </trkpt>
      <trkpt lat="47.39427" lon="-0.65197">
        <ele>59</ele>
        <time>2021-07-04T07:09:43Z</time>
      </trkpt>
      <trkpt lat="47.39421" lon="-0.65201">
        <ele>59.2</ele>
        <time>2021-07-04T07:09:45Z</time>
      </trkpt>
      <trkpt lat="47.39415" lon="-0.65206">
        <ele>59.2</ele>
        <time>2021-07-04T07:09:47Z</time>
      </trkpt>
      <trkpt lat="47.39409" lon="-0.65212">
        <ele>59.2</ele>
        <time>2021-07-04T07:09:49Z</time>
      </trkpt>
      <trkpt lat="47.39405" lon="-0.65215">
        <ele>59.4</ele>
        <time>2021-07-04T07:09:50Z</time>
      </trkpt>
      <trkpt lat="47.39401" lon="-0.65218">
        <ele>59.4</ele>
        <time>2021-07-04T07:09:51Z</time>
      </trkpt>
      <trkpt lat="47.39393" lon="-0.65223">
        <ele>59.6</ele>
        <time>2021-07-04T07:09:53Z</time>
      </trkpt>
      <trkpt lat="47.39385" lon="-0.65229">
        <ele>60</ele>
        <time>2021-07-04T07:09:55Z</time>
      </trkpt>
      <trkpt lat="47.39377" lon="-0.65234">
        <ele>60</ele>
        <time>2021-07-04T07:09:57Z</time>
      </trkpt>
      <trkpt lat="47.39373" lon="-0.65237">
        <ele>60.4</ele>
        <time>2021-07-04T07:09:58Z</time>
      </trkpt>
      <trkpt lat="47.39369" lon="-0.65239">
        <ele>60.4</ele>
        <time>2021-07-04T07:09:59Z</time>
      </trkpt>
      <trkpt lat="47.39361" lon="-0.65243">
        <ele>60.4</ele>
        <time>2021-07-04T07:10:01Z</time>
      </trkpt>
      <trkpt lat="47.39353" lon="-0.65246">
        <ele>60.8</ele>
        <time>2021-07-04T07:10:03Z</time>
      </trkpt>
      <trkpt lat="47.39349" lon="-0.65247">
        <ele>61</ele>
        <time>2021-07-04T07:10:04Z</time>
      </trkpt>
      <trkpt lat="47.39344" lon="-0.65248">
        <ele>61.2</ele>
        <time>2021-07-04T07:10:05Z</time>
      </trkpt>
      <trkpt lat="47.3934" lon="-0.65248">
        <ele>61.6</ele>
        <time>2021-07-04T07:10:06Z</time>
      </trkpt>
      <trkpt lat="47.39335" lon="-0.65248">
        <ele>61.8</ele>
        <time>2021-07-04T07:10:07Z</time>
      </trkpt>
      <trkpt lat="47.39325" lon="-0.65249">
        <ele>62</ele>
        <time>2021-07-04T07:10:09Z</time>
      </trkpt>
      <trkpt lat="47.39318" lon="-0.6525">
        <ele>61.8</ele>
        <time>2021-07-04T07:10:10Z</time>
      </trkpt>
      <trkpt lat="47.39312" lon="-0.65251">
        <ele>61.2</ele>
        <time>2021-07-04T07:10:11Z</time>
      </trkpt>
      <trkpt lat="47.39305" lon="-0.65252">
        <ele>60.6</ele>
        <time>2021-07-04T07:10:12Z</time>
      </trkpt>
      <trkpt lat="47.39299" lon="-0.65253">
        <ele>60</ele>
        <time>2021-07-04T07:10:13Z</time>
      </trkpt>
      <trkpt lat="47.39287" lon="-0.65258">
        <ele>59.2</ele>
        <time>2021-07-04T07:10:15Z</time>
      </trkpt>
      <trkpt lat="47.39277" lon="-0.65264">
        <ele>59</ele>
        <time>2021-07-04T07:10:17Z</time>
      </trkpt>
      <trkpt lat="47.39272" lon="-0.65267">
        <ele>59.2</ele>
        <time>2021-07-04T07:10:18Z</time>
      </trkpt>
      <trkpt lat="47.39268" lon="-0.6527">
        <ele>59.4</ele>
        <time>2021-07-04T07:10:19Z</time>
      </trkpt>
      <trkpt lat="47.39259" lon="-0.65278">
        <ele>60.4</ele>
        <time>2021-07-04T07:10:21Z</time>
      </trkpt>
      <trkpt lat="47.3925" lon="-0.65285">
        <ele>60.8</ele>
        <time>2021-07-04T07:10:23Z</time>
      </trkpt>
      <trkpt lat="47.39242" lon="-0.65292">
        <ele>61.2</ele>
        <time>2021-07-04T07:10:25Z</time>
      </trkpt>
      <trkpt lat="47.39238" lon="-0.65295">
        <ele>61.6</ele>
        <time>2021-07-04T07:10:26Z</time>
      </trkpt>
      <trkpt lat="47.39233" lon="-0.65299">
        <ele>61.6</ele>
        <time>2021-07-04T07:10:27Z</time>
      </trkpt>
      <trkpt lat="47.39225" lon="-0.65305">
        <ele>61.8</ele>
        <time>2021-07-04T07:10:29Z</time>
      </trkpt>
      <trkpt lat="47.39218" lon="-0.65313">
        <ele>62.2</ele>
        <time>2021-07-04T07:10:31Z</time>
      </trkpt>
      <trkpt lat="47.3921" lon="-0.65322">
        <ele>62.8</ele>
        <time>2021-07-04T07:10:33Z</time>
      </trkpt>
      <trkpt lat="47.39207" lon="-0.65327">
        <ele>62.8</ele>
        <time>2021-07-04T07:10:34Z</time>
      </trkpt>
      <trkpt lat="47.39204" lon="-0.65332">
        <ele>63.2</ele>
        <time>2021-07-04T07:10:35Z</time>
      </trkpt>
      <trkpt lat="47.39197" lon="-0.65342">
        <ele>63.8</ele>
        <time>2021-07-04T07:10:37Z</time>
      </trkpt>
      <trkpt lat="47.39191" lon="-0.65352">
        <ele>64.4</ele>
        <time>2021-07-04T07:10:39Z</time>
      </trkpt>
      <trkpt lat="47.39185" lon="-0.65362">
        <ele>64.8</ele>
        <time>2021-07-04T07:10:41Z</time>
      </trkpt>
      <trkpt lat="47.39179" lon="-0.65373">
        <ele>64.4</ele>
        <time>2021-07-04T07:10:43Z</time>
      </trkpt>
      <trkpt lat="47.39173" lon="-0.65384">
        <ele>64.8</ele>
        <time>2021-07-04T07:10:45Z</time>
      </trkpt>
      <trkpt lat="47.39167" lon="-0.65393">
        <ele>65.8</ele>
        <time>2021-07-04T07:10:47Z</time>
      </trkpt>
      <trkpt lat="47.39165" lon="-0.65398">
        <ele>66</ele>
        <time>2021-07-04T07:10:48Z</time>
      </trkpt>
      <trkpt lat="47.39162" lon="-0.65402">
        <ele>66.2</ele>
        <time>2021-07-04T07:10:49Z</time>
      </trkpt>
      <trkpt lat="47.39156" lon="-0.65412">
        <ele>66.6</ele>
        <time>2021-07-04T07:10:51Z</time>
      </trkpt>
      <trkpt lat="47.39151" lon="-0.65421">
        <ele>67</ele>
        <time>2021-07-04T07:10:53Z</time>
      </trkpt>
      <trkpt lat="47.39148" lon="-0.65426">
        <ele>67.4</ele>
        <time>2021-07-04T07:10:54Z</time>
      </trkpt>
      <trkpt lat="47.39145" lon="-0.6543">
        <ele>68</ele>
        <time>2021-07-04T07:10:55Z</time>
      </trkpt>
      <trkpt lat="47.39142" lon="-0.65435">
        <ele>68.4</ele>
        <time>2021-07-04T07:10:56Z</time>
      </trkpt>
      <trkpt lat="47.3914" lon="-0.65441">
        <ele>68.4</ele>
        <time>2021-07-04T07:10:57Z</time>
      </trkpt>
      <trkpt lat="47.39134" lon="-0.65451">
        <ele>68.6</ele>
        <time>2021-07-04T07:10:59Z</time>
      </trkpt>
      <trkpt lat="47.39132" lon="-0.65456">
        <ele>68.8</ele>
        <time>2021-07-04T07:11:00Z</time>
      </trkpt>
      <trkpt lat="47.39129" lon="-0.65461">
        <ele>69</ele>
        <time>2021-07-04T07:11:01Z</time>
      </trkpt>
      <trkpt lat="47.39127" lon="-0.65465">
        <ele>69.4</ele>
        <time>2021-07-04T07:11:02Z</time>
      </trkpt>
      <trkpt lat="47.39125" lon="-0.65469">
        <ele>69.6</ele>
        <time>2021-07-04T07:11:03Z</time>
      </trkpt>
      <trkpt lat="47.3912" lon="-0.65479">
        <ele>69.6</ele>
        <time>2021-07-04T07:11:05Z</time>
      </trkpt>
      <trkpt lat="47.39118" lon="-0.65484">
        <ele>69.4</ele>
        <time>2021-07-04T07:11:06Z</time>
      </trkpt>
      <trkpt lat="47.39116" lon="-0.6549">
        <ele>69.2</ele>
        <time>2021-07-04T07:11:07Z</time>
      </trkpt>
      <trkpt lat="47.39111" lon="-0.65502">
        <ele>69</ele>
        <time>2021-07-04T07:11:09Z</time>
      </trkpt>
      <trkpt lat="47.39106" lon="-0.65515">
        <ele>68.6</ele>
        <time>2021-07-04T07:11:11Z</time>
      </trkpt>
      <trkpt lat="47.391" lon="-0.6553">
        <ele>68.4</ele>
        <time>2021-07-04T07:11:13Z</time>
      </trkpt>
      <trkpt lat="47.39097" lon="-0.65538">
        <ele>67.8</ele>
        <time>2021-07-04T07:11:14Z</time>
      </trkpt>
      <trkpt lat="47.39095" lon="-0.65546">
        <ele>67.6</ele>
        <time>2021-07-04T07:11:15Z</time>
      </trkpt>
      <trkpt lat="47.3909" lon="-0.65561">
        <ele>67.2</ele>
        <time>2021-07-04T07:11:17Z</time>
      </trkpt>
      <trkpt lat="47.39084" lon="-0.65576">
        <ele>67.6</ele>
        <time>2021-07-04T07:11:19Z</time>
      </trkpt>
      <trkpt lat="47.39079" lon="-0.65591">
        <ele>67.4</ele>
        <time>2021-07-04T07:11:21Z</time>
      </trkpt>
      <trkpt lat="47.39074" lon="-0.65606">
        <ele>67.2</ele>
        <time>2021-07-04T07:11:23Z</time>
      </trkpt>
      <trkpt lat="47.39068" lon="-0.65621">
        <ele>67.8</ele>
        <time>2021-07-04T07:11:25Z</time>
      </trkpt>
      <trkpt lat="47.39063" lon="-0.65636">
        <ele>67.8</ele>
        <time>2021-07-04T07:11:27Z</time>
      </trkpt>
      <trkpt lat="47.39061" lon="-0.65643">
        <ele>68</ele>
        <time>2021-07-04T07:11:28Z</time>
      </trkpt>
      <trkpt lat="47.39058" lon="-0.6565">
        <ele>68.2</ele>
        <time>2021-07-04T07:11:29Z</time>
      </trkpt>
      <trkpt lat="47.39056" lon="-0.65657">
        <ele>68.4</ele>
        <time>2021-07-04T07:11:30Z</time>
      </trkpt>
      <trkpt lat="47.39054" lon="-0.65665">
        <ele>68.4</ele>
        <time>2021-07-04T07:11:31Z</time>
      </trkpt>
      <trkpt lat="47.39051" lon="-0.65678">
        <ele>68.8</ele>
        <time>2021-07-04T07:11:33Z</time>
      </trkpt>
      <trkpt lat="47.3905" lon="-0.65684">
        <ele>69.2</ele>
        <time>2021-07-04T07:11:34Z</time>
      </trkpt>
      <trkpt lat="47.39049" lon="-0.65691">
        <ele>69.4</ele>
        <time>2021-07-04T07:11:35Z</time>
      </trkpt>
      <trkpt lat="47.39045" lon="-0.65702">
        <ele>69.6</ele>
        <time>2021-07-04T07:11:37Z</time>
      </trkpt>
      <trkpt lat="47.39043" lon="-0.65709">
        <ele>70</ele>
        <time>2021-07-04T07:11:38Z</time>
      </trkpt>
      <trkpt lat="47.39041" lon="-0.65715">
        <ele>70.4</ele>
        <time>2021-07-04T07:11:39Z</time>
      </trkpt>
      <trkpt lat="47.39039" lon="-0.65722">
        <ele>70.6</ele>
        <time>2021-07-04T07:11:40Z</time>
      </trkpt>
      <trkpt lat="47.39037" lon="-0.65728">
        <ele>70.6</ele>
        <time>2021-07-04T07:11:41Z</time>
      </trkpt>
      <trkpt lat="47.39034" lon="-0.6574">
        <ele>70.4</ele>
        <time>2021-07-04T07:11:43Z</time>
      </trkpt>
      <trkpt lat="47.39029" lon="-0.65753">
        <ele>70.6</ele>
        <time>2021-07-04T07:11:45Z</time>
      </trkpt>
      <trkpt lat="47.39027" lon="-0.6576">
        <ele>70.8</ele>
        <time>2021-07-04T07:11:46Z</time>
      </trkpt>
      <trkpt lat="47.39024" lon="-0.65766">
        <ele>71.2</ele>
        <time>2021-07-04T07:11:47Z</time>
      </trkpt>
      <trkpt lat="47.39019" lon="-0.65779">
        <ele>71</ele>
        <time>2021-07-04T07:11:49Z</time>
      </trkpt>
      <trkpt lat="47.39014" lon="-0.6579">
        <ele>70.8</ele>
        <time>2021-07-04T07:11:51Z</time>
      </trkpt>
      <trkpt lat="47.39011" lon="-0.65796">
        <ele>70.6</ele>
        <time>2021-07-04T07:11:52Z</time>
      </trkpt>
      <trkpt lat="47.39008" lon="-0.65803">
        <ele>70.8</ele>
        <time>2021-07-04T07:11:53Z</time>
      </trkpt>
      <trkpt lat="47.39002" lon="-0.65816">
        <ele>71</ele>
        <time>2021-07-04T07:11:55Z</time>
      </trkpt>
      <trkpt lat="47.38996" lon="-0.65828">
        <ele>70.4</ele>
        <time>2021-07-04T07:11:57Z</time>
      </trkpt>
      <trkpt lat="47.38989" lon="-0.6584">
        <ele>70.4</ele>
        <time>2021-07-04T07:11:59Z</time>
      </trkpt>
      <trkpt lat="47.38982" lon="-0.65849">
        <ele>70.4</ele>
        <time>2021-07-04T07:12:01Z</time>
      </trkpt>
      <trkpt lat="47.38975" lon="-0.65859">
        <ele>70.6</ele>
        <time>2021-07-04T07:12:03Z</time>
      </trkpt>
      <trkpt lat="47.38971" lon="-0.65862">
        <ele>71</ele>
        <time>2021-07-04T07:12:04Z</time>
      </trkpt>
      <trkpt lat="47.38967" lon="-0.65865">
        <ele>71</ele>
        <time>2021-07-04T07:12:05Z</time>
      </trkpt>
      <trkpt lat="47.38958" lon="-0.65868">
        <ele>70</ele>
        <time>2021-07-04T07:12:07Z</time>
      </trkpt>
      <trkpt lat="47.38953" lon="-0.65869">
        <ele>69.8</ele>
        <time>2021-07-04T07:12:08Z</time>
      </trkpt>
      <trkpt lat="47.38947" lon="-0.65869">
        <ele>69.4</ele>
        <time>2021-07-04T07:12:09Z</time>
      </trkpt>
      <trkpt lat="47.38942" lon="-0.65868">
        <ele>69.4</ele>
        <time>2021-07-04T07:12:10Z</time>
      </trkpt>
      <trkpt lat="47.38937" lon="-0.65866">
        <ele>68.4</ele>
        <time>2021-07-04T07:12:11Z</time>
      </trkpt>
      <trkpt lat="47.38932" lon="-0.65864">
        <ele>68</ele>
        <time>2021-07-04T07:12:12Z</time>
      </trkpt>
      <trkpt lat="47.38927" lon="-0.65862">
        <ele>68</ele>
        <time>2021-07-04T07:12:13Z</time>
      </trkpt>
      <trkpt lat="47.38918" lon="-0.65857">
        <ele>67.6</ele>
        <time>2021-07-04T07:12:15Z</time>
      </trkpt>
      <trkpt lat="47.38913" lon="-0.65855">
        <ele>67.4</ele>
        <time>2021-07-04T07:12:16Z</time>
      </trkpt>
      <trkpt lat="47.38908" lon="-0.65853">
        <ele>67.4</ele>
        <time>2021-07-04T07:12:17Z</time>
      </trkpt>
      <trkpt lat="47.38897" lon="-0.65851">
        <ele>67.4</ele>
        <time>2021-07-04T07:12:19Z</time>
      </trkpt>
      <trkpt lat="47.38886" lon="-0.6585">
        <ele>67.4</ele>
        <time>2021-07-04T07:12:21Z</time>
      </trkpt>
      <trkpt lat="47.38881" lon="-0.65849">
        <ele>66.8</ele>
        <time>2021-07-04T07:12:22Z</time>
      </trkpt>
      <trkpt lat="47.38876" lon="-0.65848">
        <ele>66.6</ele>
        <time>2021-07-04T07:12:23Z</time>
      </trkpt>
      <trkpt lat="47.38865" lon="-0.65845">
        <ele>66.8</ele>
        <time>2021-07-04T07:12:25Z</time>
      </trkpt>
      <trkpt lat="47.38853" lon="-0.65842">
        <ele>65.2</ele>
        <time>2021-07-04T07:12:27Z</time>
      </trkpt>
      <trkpt lat="47.38841" lon="-0.6584">
        <ele>64.8</ele>
        <time>2021-07-04T07:12:29Z</time>
      </trkpt>
      <trkpt lat="47.38835" lon="-0.65839">
        <ele>65</ele>
        <time>2021-07-04T07:12:30Z</time>
      </trkpt>
      <trkpt lat="47.38829" lon="-0.65839">
        <ele>64.6</ele>
        <time>2021-07-04T07:12:31Z</time>
      </trkpt>
      <trkpt lat="47.38822" lon="-0.65838">
        <ele>64.2</ele>
        <time>2021-07-04T07:12:32Z</time>
      </trkpt>
      <trkpt lat="47.38816" lon="-0.65837">
        <ele>63.6</ele>
        <time>2021-07-04T07:12:33Z</time>
      </trkpt>
      <trkpt lat="47.38804" lon="-0.65837">
        <ele>61.6</ele>
        <time>2021-07-04T07:12:35Z</time>
      </trkpt>
      <trkpt lat="47.38797" lon="-0.65837">
        <ele>60.2</ele>
        <time>2021-07-04T07:12:36Z</time>
      </trkpt>
      <trkpt lat="47.38791" lon="-0.65837">
        <ele>59.6</ele>
        <time>2021-07-04T07:12:37Z</time>
      </trkpt>
      <trkpt lat="47.38784" lon="-0.65837">
        <ele>58.8</ele>
        <time>2021-07-04T07:12:38Z</time>
      </trkpt>
      <trkpt lat="47.38778" lon="-0.65836">
        <ele>58.4</ele>
        <time>2021-07-04T07:12:39Z</time>
      </trkpt>
      <trkpt lat="47.38771" lon="-0.65835">
        <ele>56.4</ele>
        <time>2021-07-04T07:12:40Z</time>
      </trkpt>
      <trkpt lat="47.38765" lon="-0.65834">
        <ele>56</ele>
        <time>2021-07-04T07:12:41Z</time>
      </trkpt>
      <trkpt lat="47.38759" lon="-0.65834">
        <ele>55</ele>
        <time>2021-07-04T07:12:42Z</time>
      </trkpt>
      <trkpt lat="47.38753" lon="-0.65832">
        <ele>55.4</ele>
        <time>2021-07-04T07:12:43Z</time>
      </trkpt>
      <trkpt lat="47.38746" lon="-0.6583">
        <ele>54.8</ele>
        <time>2021-07-04T07:12:44Z</time>
      </trkpt>
      <trkpt lat="47.3874" lon="-0.65827">
        <ele>53.8</ele>
        <time>2021-07-04T07:12:45Z</time>
      </trkpt>
      <trkpt lat="47.38728" lon="-0.65821">
        <ele>52.4</ele>
        <time>2021-07-04T07:12:47Z</time>
      </trkpt>
      <trkpt lat="47.38717" lon="-0.65813">
        <ele>50</ele>
        <time>2021-07-04T07:12:49Z</time>
      </trkpt>
      <trkpt lat="47.38712" lon="-0.65808">
        <ele>48.6</ele>
        <time>2021-07-04T07:12:50Z</time>
      </trkpt>
      <trkpt lat="47.38707" lon="-0.65803">
        <ele>46.8</ele>
        <time>2021-07-04T07:12:51Z</time>
      </trkpt>
      <trkpt lat="47.38703" lon="-0.65798">
        <ele>45.6</ele>
        <time>2021-07-04T07:12:52Z</time>
      </trkpt>
      <trkpt lat="47.38698" lon="-0.65792">
        <ele>45.2</ele>
        <time>2021-07-04T07:12:53Z</time>
      </trkpt>
      <trkpt lat="47.38693" lon="-0.65787">
        <ele>44.8</ele>
        <time>2021-07-04T07:12:54Z</time>
      </trkpt>
      <trkpt lat="47.38689" lon="-0.65783">
        <ele>44.4</ele>
        <time>2021-07-04T07:12:55Z</time>
      </trkpt>
      <trkpt lat="47.38684" lon="-0.65779">
        <ele>43.2</ele>
        <time>2021-07-04T07:12:56Z</time>
      </trkpt>
      <trkpt lat="47.3868" lon="-0.65775">
        <ele>42.8</ele>
        <time>2021-07-04T07:12:57Z</time>
      </trkpt>
      <trkpt lat="47.38674" lon="-0.65772">
        <ele>41.8</ele>
        <time>2021-07-04T07:12:58Z</time>
      </trkpt>
      <trkpt lat="47.38669" lon="-0.65768">
        <ele>39.4</ele>
        <time>2021-07-04T07:12:59Z</time>
      </trkpt>
      <trkpt lat="47.38659" lon="-0.65764">
        <ele>37.8</ele>
        <time>2021-07-04T07:13:01Z</time>
      </trkpt>
      <trkpt lat="47.38656" lon="-0.65764">
        <ele>37.6</ele>
        <time>2021-07-04T07:13:02Z</time>
      </trkpt>
      <trkpt lat="47.38653" lon="-0.65767">
        <ele>37.8</ele>
        <time>2021-07-04T07:13:03Z</time>
      </trkpt>
      <trkpt lat="47.38648" lon="-0.65769">
        <ele>37.8</ele>
        <time>2021-07-04T07:13:05Z</time>
      </trkpt>
      <trkpt lat="47.38646" lon="-0.6577">
        <ele>37.8</ele>
        <time>2021-07-04T07:13:06Z</time>
      </trkpt>
      <trkpt lat="47.38645" lon="-0.6577">
        <ele>37.8</ele>
        <time>2021-07-04T07:13:07Z</time>
      </trkpt>
      <trkpt lat="47.38641" lon="-0.6577">
        <ele>38</ele>
        <time>2021-07-04T07:13:09Z</time>
      </trkpt>
      <trkpt lat="47.38636" lon="-0.65772">
        <ele>37.8</ele>
        <time>2021-07-04T07:13:11Z</time>
      </trkpt>
      <trkpt lat="47.38632" lon="-0.65774">
        <ele>37.4</ele>
        <time>2021-07-04T07:13:12Z</time>
      </trkpt>
      <trkpt lat="47.38628" lon="-0.65776">
        <ele>36.8</ele>
        <time>2021-07-04T07:13:13Z</time>
      </trkpt>
      <trkpt lat="47.38617" lon="-0.65779">
        <ele>35.6</ele>
        <time>2021-07-04T07:13:15Z</time>
      </trkpt>
      <trkpt lat="47.38611" lon="-0.6578">
        <ele>35.2</ele>
        <time>2021-07-04T07:13:16Z</time>
      </trkpt>
      <trkpt lat="47.38605" lon="-0.65781">
        <ele>34.4</ele>
        <time>2021-07-04T07:13:17Z</time>
      </trkpt>
      <trkpt lat="47.38593" lon="-0.65782">
        <ele>33.6</ele>
        <time>2021-07-04T07:13:19Z</time>
      </trkpt>
      <trkpt lat="47.38582" lon="-0.65785">
        <ele>34.4</ele>
        <time>2021-07-04T07:13:21Z</time>
      </trkpt>
      <trkpt lat="47.38571" lon="-0.65789">
        <ele>35.4</ele>
        <time>2021-07-04T07:13:23Z</time>
      </trkpt>
      <trkpt lat="47.38567" lon="-0.65791">
        <ele>36.4</ele>
        <time>2021-07-04T07:13:24Z</time>
      </trkpt>
      <trkpt lat="47.38562" lon="-0.65794">
        <ele>37.2</ele>
        <time>2021-07-04T07:13:25Z</time>
      </trkpt>
      <trkpt lat="47.38558" lon="-0.65796">
        <ele>38</ele>
        <time>2021-07-04T07:13:26Z</time>
      </trkpt>
      <trkpt lat="47.38554" lon="-0.65799">
        <ele>38</ele>
        <time>2021-07-04T07:13:27Z</time>
      </trkpt>
      <trkpt lat="47.38546" lon="-0.65803">
        <ele>37.8</ele>
        <time>2021-07-04T07:13:29Z</time>
      </trkpt>
      <trkpt lat="47.38538" lon="-0.65807">
        <ele>38.4</ele>
        <time>2021-07-04T07:13:31Z</time>
      </trkpt>
      <trkpt lat="47.3853" lon="-0.6581">
        <ele>39.2</ele>
        <time>2021-07-04T07:13:33Z</time>
      </trkpt>
      <trkpt lat="47.38526" lon="-0.65812">
        <ele>39.4</ele>
        <time>2021-07-04T07:13:34Z</time>
      </trkpt>
      <trkpt lat="47.38521" lon="-0.65813">
        <ele>39.8</ele>
        <time>2021-07-04T07:13:35Z</time>
      </trkpt>
      <trkpt lat="47.38512" lon="-0.65816">
        <ele>40</ele>
        <time>2021-07-04T07:13:37Z</time>
      </trkpt>
      <trkpt lat="47.38502" lon="-0.65819">
        <ele>40</ele>
        <time>2021-07-04T07:13:39Z</time>
      </trkpt>
      <trkpt lat="47.38498" lon="-0.6582">
        <ele>40</ele>
        <time>2021-07-04T07:13:40Z</time>
      </trkpt>
      <trkpt lat="47.38492" lon="-0.65821">
        <ele>39.8</ele>
        <time>2021-07-04T07:13:41Z</time>
      </trkpt>
      <trkpt lat="47.38482" lon="-0.65824">
        <ele>39.6</ele>
        <time>2021-07-04T07:13:43Z</time>
      </trkpt>
      <trkpt lat="47.38472" lon="-0.65826">
        <ele>39.8</ele>
        <time>2021-07-04T07:13:45Z</time>
      </trkpt>
      <trkpt lat="47.38462" lon="-0.65828">
        <ele>39.8</ele>
        <time>2021-07-04T07:13:47Z</time>
      </trkpt>
      <trkpt lat="47.38453" lon="-0.65832">
        <ele>39.8</ele>
        <time>2021-07-04T07:13:49Z</time>
      </trkpt>
      <trkpt lat="47.38444" lon="-0.65835">
        <ele>39.8</ele>
        <time>2021-07-04T07:13:51Z</time>
      </trkpt>
      <trkpt lat="47.38436" lon="-0.65839">
        <ele>40</ele>
        <time>2021-07-04T07:13:53Z</time>
      </trkpt>
      <trkpt lat="47.38428" lon="-0.65844">
        <ele>40.2</ele>
        <time>2021-07-04T07:13:55Z</time>
      </trkpt>
      <trkpt lat="47.38424" lon="-0.65848">
        <ele>40.2</ele>
        <time>2021-07-04T07:13:56Z</time>
      </trkpt>
      <trkpt lat="47.38421" lon="-0.65853">
        <ele>40.4</ele>
        <time>2021-07-04T07:13:57Z</time>
      </trkpt>
      <trkpt lat="47.38419" lon="-0.65858">
        <ele>40.4</ele>
        <time>2021-07-04T07:13:58Z</time>
      </trkpt>
      <trkpt lat="47.38416" lon="-0.65863">
        <ele>40.4</ele>
        <time>2021-07-04T07:13:59Z</time>
      </trkpt>
      <trkpt lat="47.38413" lon="-0.65873">
        <ele>40.6</ele>
        <time>2021-07-04T07:14:01Z</time>
      </trkpt>
      <trkpt lat="47.38408" lon="-0.65876">
        <ele>41</ele>
        <time>2021-07-04T07:14:03Z</time>
      </trkpt>
      <trkpt lat="47.38401" lon="-0.65873">
        <ele>40.8</ele>
        <time>2021-07-04T07:14:05Z</time>
      </trkpt>
      <trkpt lat="47.38394" lon="-0.65867">
        <ele>40.4</ele>
        <time>2021-07-04T07:14:07Z</time>
      </trkpt>
      <trkpt lat="47.38386" lon="-0.65861">
        <ele>40</ele>
        <time>2021-07-04T07:14:09Z</time>
      </trkpt>
      <trkpt lat="47.38379" lon="-0.65855">
        <ele>40.6</ele>
        <time>2021-07-04T07:14:11Z</time>
      </trkpt>
      <trkpt lat="47.38376" lon="-0.65852">
        <ele>40.8</ele>
        <time>2021-07-04T07:14:12Z</time>
      </trkpt>
      <trkpt lat="47.38372" lon="-0.65849">
        <ele>40.6</ele>
        <time>2021-07-04T07:14:13Z</time>
      </trkpt>
      <trkpt lat="47.38368" lon="-0.65847">
        <ele>40.4</ele>
        <time>2021-07-04T07:14:14Z</time>
      </trkpt>
      <trkpt lat="47.38365" lon="-0.65844">
        <ele>40.2</ele>
        <time>2021-07-04T07:14:15Z</time>
      </trkpt>
      <trkpt lat="47.38357" lon="-0.65839">
        <ele>39.6</ele>
        <time>2021-07-04T07:14:17Z</time>
      </trkpt>
      <trkpt lat="47.38354" lon="-0.65836">
        <ele>39.6</ele>
        <time>2021-07-04T07:14:18Z</time>
      </trkpt>
      <trkpt lat="47.3835" lon="-0.65833">
        <ele>39.6</ele>
        <time>2021-07-04T07:14:19Z</time>
      </trkpt>
      <trkpt lat="47.38342" lon="-0.65827">
        <ele>39.6</ele>
        <time>2021-07-04T07:14:21Z</time>
      </trkpt>
      <trkpt lat="47.38336" lon="-0.65821">
        <ele>39.4</ele>
        <time>2021-07-04T07:14:23Z</time>
      </trkpt>
      <trkpt lat="47.38335" lon="-0.65816">
        <ele>39.4</ele>
        <time>2021-07-04T07:14:24Z</time>
      </trkpt>
      <trkpt lat="47.38335" lon="-0.65812">
        <ele>39.2</ele>
        <time>2021-07-04T07:14:25Z</time>
      </trkpt>
      <trkpt lat="47.38336" lon="-0.65807">
        <ele>39.2</ele>
        <time>2021-07-04T07:14:26Z</time>
      </trkpt>
      <trkpt lat="47.38337" lon="-0.65802">
        <ele>39.2</ele>
        <time>2021-07-04T07:14:27Z</time>
      </trkpt>
      <trkpt lat="47.38338" lon="-0.65796">
        <ele>39</ele>
        <time>2021-07-04T07:14:28Z</time>
      </trkpt>
      <trkpt lat="47.3834" lon="-0.65791">
        <ele>38.8</ele>
        <time>2021-07-04T07:14:29Z</time>
      </trkpt>
      <trkpt lat="47.38343" lon="-0.65779">
        <ele>38.4</ele>
        <time>2021-07-04T07:14:31Z</time>
      </trkpt>
      <trkpt lat="47.38345" lon="-0.65774">
        <ele>38.2</ele>
        <time>2021-07-04T07:14:32Z</time>
      </trkpt>
      <trkpt lat="47.38347" lon="-0.65769">
        <ele>38</ele>
        <time>2021-07-04T07:14:33Z</time>
      </trkpt>
      <trkpt lat="47.38349" lon="-0.65764">
        <ele>38</ele>
        <time>2021-07-04T07:14:34Z</time>
      </trkpt>
      <trkpt lat="47.3835" lon="-0.6576">
        <ele>38</ele>
        <time>2021-07-04T07:14:35Z</time>
      </trkpt>
      <trkpt lat="47.3835" lon="-0.65755">
        <ele>38</ele>
        <time>2021-07-04T07:14:36Z</time>
      </trkpt>
      <trkpt lat="47.38349" lon="-0.65751">
        <ele>38</ele>
        <time>2021-07-04T07:14:37Z</time>
      </trkpt>
      <trkpt lat="47.38348" lon="-0.65747">
        <ele>37.8</ele>
        <time>2021-07-04T07:14:38Z</time>
      </trkpt>
      <trkpt lat="47.38346" lon="-0.65743">
        <ele>37.6</ele>
        <time>2021-07-04T07:14:39Z</time>
      </trkpt>
      <trkpt lat="47.3834" lon="-0.65737">
        <ele>37.2</ele>
        <time>2021-07-04T07:14:41Z</time>
      </trkpt>
      <trkpt lat="47.38334" lon="-0.65733">
        <ele>37.2</ele>
        <time>2021-07-04T07:14:43Z</time>
      </trkpt>
      <trkpt lat="47.3833" lon="-0.65731">
        <ele>37.2</ele>
        <time>2021-07-04T07:14:44Z</time>
      </trkpt>
      <trkpt lat="47.38327" lon="-0.6573">
        <ele>37.2</ele>
        <time>2021-07-04T07:14:45Z</time>
      </trkpt>
      <trkpt lat="47.38319" lon="-0.65726">
        <ele>37</ele>
        <time>2021-07-04T07:14:47Z</time>
      </trkpt>
      <trkpt lat="47.38312" lon="-0.65721">
        <ele>36.4</ele>
        <time>2021-07-04T07:14:49Z</time>
      </trkpt>
      <trkpt lat="47.38308" lon="-0.65718">
        <ele>36.4</ele>
        <time>2021-07-04T07:14:50Z</time>
      </trkpt>
      <trkpt lat="47.38306" lon="-0.65716">
        <ele>36.4</ele>
        <time>2021-07-04T07:14:51Z</time>
      </trkpt>
      <trkpt lat="47.38304" lon="-0.65713">
        <ele>36.6</ele>
        <time>2021-07-04T07:14:52Z</time>
      </trkpt>
      <trkpt lat="47.38302" lon="-0.6571">
        <ele>36.6</ele>
        <time>2021-07-04T07:14:53Z</time>
      </trkpt>
      <trkpt lat="47.38299" lon="-0.65709">
        <ele>36.4</ele>
        <time>2021-07-04T07:14:54Z</time>
      </trkpt>
      <trkpt lat="47.38297" lon="-0.65708">
        <ele>36.4</ele>
        <time>2021-07-04T07:14:55Z</time>
      </trkpt>
      <trkpt lat="47.38294" lon="-0.65708">
        <ele>36.2</ele>
        <time>2021-07-04T07:14:56Z</time>
      </trkpt>
      <trkpt lat="47.38291" lon="-0.65707">
        <ele>36</ele>
        <time>2021-07-04T07:14:57Z</time>
      </trkpt>
      <trkpt lat="47.38288" lon="-0.65705">
        <ele>36.2</ele>
        <time>2021-07-04T07:14:59Z</time>
      </trkpt>
      <trkpt lat="47.38281" lon="-0.65701">
        <ele>36.2</ele>
        <time>2021-07-04T07:15:01Z</time>
      </trkpt>
      <trkpt lat="47.38276" lon="-0.65696">
        <ele>35.8</ele>
        <time>2021-07-04T07:15:03Z</time>
      </trkpt>
      <trkpt lat="47.3827" lon="-0.65689">
        <ele>35</ele>
        <time>2021-07-04T07:15:05Z</time>
      </trkpt>
      <trkpt lat="47.38263" lon="-0.6568">
        <ele>33.8</ele>
        <time>2021-07-04T07:15:07Z</time>
      </trkpt>
      <trkpt lat="47.38254" lon="-0.6567">
        <ele>32.8</ele>
        <time>2021-07-04T07:15:09Z</time>
      </trkpt>
      <trkpt lat="47.38245" lon="-0.65659">
        <ele>32.4</ele>
        <time>2021-07-04T07:15:11Z</time>
      </trkpt>
      <trkpt lat="47.3824" lon="-0.65654">
        <ele>32</ele>
        <time>2021-07-04T07:15:12Z</time>
      </trkpt>
      <trkpt lat="47.38236" lon="-0.6565">
        <ele>31.2</ele>
        <time>2021-07-04T07:15:13Z</time>
      </trkpt>
      <trkpt lat="47.38227" lon="-0.65639">
        <ele>29.8</ele>
        <time>2021-07-04T07:15:15Z</time>
      </trkpt>
      <trkpt lat="47.38217" lon="-0.65627">
        <ele>28.6</ele>
        <time>2021-07-04T07:15:17Z</time>
      </trkpt>
      <trkpt lat="47.38207" lon="-0.65615">
        <ele>28</ele>
        <time>2021-07-04T07:15:19Z</time>
      </trkpt>
      <trkpt lat="47.38197" lon="-0.65606">
        <ele>27.6</ele>
        <time>2021-07-04T07:15:21Z</time>
      </trkpt>
      <trkpt lat="47.38193" lon="-0.65602">
        <ele>27.4</ele>
        <time>2021-07-04T07:15:22Z</time>
      </trkpt>
      <trkpt lat="47.38188" lon="-0.65597">
        <ele>27</ele>
        <time>2021-07-04T07:15:23Z</time>
      </trkpt>
      <trkpt lat="47.38177" lon="-0.65587">
        <ele>26.6</ele>
        <time>2021-07-04T07:15:25Z</time>
      </trkpt>
      <trkpt lat="47.38171" lon="-0.65581">
        <ele>25.8</ele>
        <time>2021-07-04T07:15:26Z</time>
      </trkpt>
      <trkpt lat="47.38165" lon="-0.65575">
        <ele>25</ele>
        <time>2021-07-04T07:15:27Z</time>
      </trkpt>
      <trkpt lat="47.38158" lon="-0.65569">
        <ele>23.8</ele>
        <time>2021-07-04T07:15:28Z</time>
      </trkpt>
      <trkpt lat="47.38151" lon="-0.65563">
        <ele>22.8</ele>
        <time>2021-07-04T07:15:29Z</time>
      </trkpt>
      <trkpt lat="47.38144" lon="-0.65558">
        <ele>22.2</ele>
        <time>2021-07-04T07:15:30Z</time>
      </trkpt>
      <trkpt lat="47.38137" lon="-0.65552">
        <ele>21.8</ele>
        <time>2021-07-04T07:15:31Z</time>
      </trkpt>
      <trkpt lat="47.38123" lon="-0.65542">
        <ele>21.2</ele>
        <time>2021-07-04T07:15:33Z</time>
      </trkpt>
      <trkpt lat="47.3811" lon="-0.65533">
        <ele>20.8</ele>
        <time>2021-07-04T07:15:35Z</time>
      </trkpt>
      <trkpt lat="47.38097" lon="-0.65523">
        <ele>21.2</ele>
        <time>2021-07-04T07:15:37Z</time>
      </trkpt>
      <trkpt lat="47.38091" lon="-0.65519">
        <ele>21.8</ele>
        <time>2021-07-04T07:15:38Z</time>
      </trkpt>
      <trkpt lat="47.38086" lon="-0.65514">
        <ele>22.2</ele>
        <time>2021-07-04T07:15:39Z</time>
      </trkpt>
      <trkpt lat="47.38076" lon="-0.65506">
        <ele>23</ele>
        <time>2021-07-04T07:15:41Z</time>
      </trkpt>
      <trkpt lat="47.38072" lon="-0.65501">
        <ele>23.4</ele>
        <time>2021-07-04T07:15:42Z</time>
      </trkpt>
      <trkpt lat="47.38068" lon="-0.65497">
        <ele>24</ele>
        <time>2021-07-04T07:15:43Z</time>
      </trkpt>
      <trkpt lat="47.38064" lon="-0.65493">
        <ele>24.6</ele>
        <time>2021-07-04T07:15:44Z</time>
      </trkpt>
      <trkpt lat="47.3806" lon="-0.65489">
        <ele>25</ele>
        <time>2021-07-04T07:15:45Z</time>
      </trkpt>
      <trkpt lat="47.38052" lon="-0.65479">
        <ele>26.2</ele>
        <time>2021-07-04T07:15:47Z</time>
      </trkpt>
      <trkpt lat="47.38044" lon="-0.6547">
        <ele>26.6</ele>
        <time>2021-07-04T07:15:49Z</time>
      </trkpt>
      <trkpt lat="47.38034" lon="-0.65461">
        <ele>27.2</ele>
        <time>2021-07-04T07:15:51Z</time>
      </trkpt>
      <trkpt lat="47.3803" lon="-0.65456">
        <ele>27.6</ele>
        <time>2021-07-04T07:15:52Z</time>
      </trkpt>
      <trkpt lat="47.38024" lon="-0.65451">
        <ele>27.6</ele>
        <time>2021-07-04T07:15:53Z</time>
      </trkpt>
      <trkpt lat="47.38014" lon="-0.6544">
        <ele>27.2</ele>
        <time>2021-07-04T07:15:55Z</time>
      </trkpt>
      <trkpt lat="47.38002" lon="-0.6543">
        <ele>27.4</ele>
        <time>2021-07-04T07:15:57Z</time>
      </trkpt>
      <trkpt lat="47.37991" lon="-0.6542">
        <ele>26.8</ele>
        <time>2021-07-04T07:15:59Z</time>
      </trkpt>
      <trkpt lat="47.37979" lon="-0.6541">
        <ele>26</ele>
        <time>2021-07-04T07:16:01Z</time>
      </trkpt>
      <trkpt lat="47.37967" lon="-0.65401">
        <ele>26</ele>
        <time>2021-07-04T07:16:03Z</time>
      </trkpt>
      <trkpt lat="47.37954" lon="-0.65393">
        <ele>26.4</ele>
        <time>2021-07-04T07:16:05Z</time>
      </trkpt>
      <trkpt lat="47.37948" lon="-0.65388">
        <ele>26.4</ele>
        <time>2021-07-04T07:16:06Z</time>
      </trkpt>
      <trkpt lat="47.37941" lon="-0.65384">
        <ele>26.2</ele>
        <time>2021-07-04T07:16:07Z</time>
      </trkpt>
      <trkpt lat="47.37929" lon="-0.65374">
        <ele>25.6</ele>
        <time>2021-07-04T07:16:09Z</time>
      </trkpt>
      <trkpt lat="47.37917" lon="-0.65365">
        <ele>25.6</ele>
        <time>2021-07-04T07:16:11Z</time>
      </trkpt>
      <trkpt lat="47.37907" lon="-0.65356">
        <ele>25</ele>
        <time>2021-07-04T07:16:13Z</time>
      </trkpt>
      <trkpt lat="47.37901" lon="-0.65351">
        <ele>24.8</ele>
        <time>2021-07-04T07:16:14Z</time>
      </trkpt>
      <trkpt lat="47.37896" lon="-0.65347">
        <ele>25</ele>
        <time>2021-07-04T07:16:15Z</time>
      </trkpt>
      <trkpt lat="47.37885" lon="-0.65338">
        <ele>25.4</ele>
        <time>2021-07-04T07:16:17Z</time>
      </trkpt>
      <trkpt lat="47.37874" lon="-0.65329">
        <ele>25.4</ele>
        <time>2021-07-04T07:16:19Z</time>
      </trkpt>
      <trkpt lat="47.37863" lon="-0.65319">
        <ele>25.4</ele>
        <time>2021-07-04T07:16:21Z</time>
      </trkpt>
      <trkpt lat="47.37852" lon="-0.6531">
        <ele>25.8</ele>
        <time>2021-07-04T07:16:23Z</time>
      </trkpt>
      <trkpt lat="47.37841" lon="-0.65301">
        <ele>25.8</ele>
        <time>2021-07-04T07:16:25Z</time>
      </trkpt>
      <trkpt lat="47.3783" lon="-0.65291">
        <ele>25.6</ele>
        <time>2021-07-04T07:16:27Z</time>
      </trkpt>
      <trkpt lat="47.37819" lon="-0.65282">
        <ele>25.4</ele>
        <time>2021-07-04T07:16:29Z</time>
      </trkpt>
      <trkpt lat="47.37808" lon="-0.65273">
        <ele>25.6</ele>
        <time>2021-07-04T07:16:31Z</time>
      </trkpt>
      <trkpt lat="47.37797" lon="-0.65263">
        <ele>25.6</ele>
        <time>2021-07-04T07:16:33Z</time>
      </trkpt>
      <trkpt lat="47.37785" lon="-0.65255">
        <ele>26.4</ele>
        <time>2021-07-04T07:16:35Z</time>
      </trkpt>
      <trkpt lat="47.37775" lon="-0.65245">
        <ele>26.6</ele>
        <time>2021-07-04T07:16:37Z</time>
      </trkpt>
      <trkpt lat="47.37764" lon="-0.65236">
        <ele>26.6</ele>
        <time>2021-07-04T07:16:39Z</time>
      </trkpt>
      <trkpt lat="47.37754" lon="-0.65227">
        <ele>27</ele>
        <time>2021-07-04T07:16:41Z</time>
      </trkpt>
      <trkpt lat="47.37743" lon="-0.65219">
        <ele>27.4</ele>
        <time>2021-07-04T07:16:43Z</time>
      </trkpt>
      <trkpt lat="47.37731" lon="-0.65211">
        <ele>27.6</ele>
        <time>2021-07-04T07:16:45Z</time>
      </trkpt>
      <trkpt lat="47.3772" lon="-0.65202">
        <ele>28</ele>
        <time>2021-07-04T07:16:47Z</time>
      </trkpt>
      <trkpt lat="47.37714" lon="-0.65197">
        <ele>28.6</ele>
        <time>2021-07-04T07:16:48Z</time>
      </trkpt>
      <trkpt lat="47.37709" lon="-0.65193">
        <ele>28.8</ele>
        <time>2021-07-04T07:16:49Z</time>
      </trkpt>
      <trkpt lat="47.377" lon="-0.65186">
        <ele>29.4</ele>
        <time>2021-07-04T07:16:51Z</time>
      </trkpt>
      <trkpt lat="47.37695" lon="-0.65183">
        <ele>29.6</ele>
        <time>2021-07-04T07:16:52Z</time>
      </trkpt>
      <trkpt lat="47.37691" lon="-0.65179">
        <ele>30</ele>
        <time>2021-07-04T07:16:53Z</time>
      </trkpt>
      <trkpt lat="47.37682" lon="-0.65171">
        <ele>30.4</ele>
        <time>2021-07-04T07:16:55Z</time>
      </trkpt>
      <trkpt lat="47.37672" lon="-0.65163">
        <ele>30.4</ele>
        <time>2021-07-04T07:16:57Z</time>
      </trkpt>
      <trkpt lat="47.37667" lon="-0.65159">
        <ele>30.2</ele>
        <time>2021-07-04T07:16:58Z</time>
      </trkpt>
      <trkpt lat="47.37662" lon="-0.65155">
        <ele>29.2</ele>
        <time>2021-07-04T07:16:59Z</time>
      </trkpt>
      <trkpt lat="47.37652" lon="-0.65146">
        <ele>28.8</ele>
        <time>2021-07-04T07:17:01Z</time>
      </trkpt>
      <trkpt lat="47.37647" lon="-0.65141">
        <ele>28.4</ele>
        <time>2021-07-04T07:17:02Z</time>
      </trkpt>
      <trkpt lat="47.37641" lon="-0.65136">
        <ele>28.2</ele>
        <time>2021-07-04T07:17:03Z</time>
      </trkpt>
      <trkpt lat="47.37635" lon="-0.65131">
        <ele>28</ele>
        <time>2021-07-04T07:17:04Z</time>
      </trkpt>
      <trkpt lat="47.37629" lon="-0.65127">
        <ele>27.6</ele>
        <time>2021-07-04T07:17:05Z</time>
      </trkpt>
      <trkpt lat="47.37617" lon="-0.65117">
        <ele>27.2</ele>
        <time>2021-07-04T07:17:07Z</time>
      </trkpt>
      <trkpt lat="47.37605" lon="-0.65108">
        <ele>26.4</ele>
        <time>2021-07-04T07:17:09Z</time>
      </trkpt>
      <trkpt lat="47.37594" lon="-0.65098">
        <ele>26.6</ele>
        <time>2021-07-04T07:17:11Z</time>
      </trkpt>
      <trkpt lat="47.37583" lon="-0.65088">
        <ele>26.8</ele>
        <time>2021-07-04T07:17:13Z</time>
      </trkpt>
      <trkpt lat="47.37572" lon="-0.65077">
        <ele>26.8</ele>
        <time>2021-07-04T07:17:15Z</time>
      </trkpt>
      <trkpt lat="47.37561" lon="-0.65067">
        <ele>27</ele>
        <time>2021-07-04T07:17:17Z</time>
      </trkpt>
      <trkpt lat="47.3755" lon="-0.65058">
        <ele>27.2</ele>
        <time>2021-07-04T07:17:19Z</time>
      </trkpt>
      <trkpt lat="47.37544" lon="-0.65053">
        <ele>27.6</ele>
        <time>2021-07-04T07:17:20Z</time>
      </trkpt>
      <trkpt lat="47.37539" lon="-0.65049">
        <ele>27.6</ele>
        <time>2021-07-04T07:17:21Z</time>
      </trkpt>
      <trkpt lat="47.37528" lon="-0.6504">
        <ele>26.8</ele>
        <time>2021-07-04T07:17:23Z</time>
      </trkpt>
      <trkpt lat="47.37517" lon="-0.65031">
        <ele>27.4</ele>
        <time>2021-07-04T07:17:25Z</time>
      </trkpt>
      <trkpt lat="47.37507" lon="-0.65022">
        <ele>28.6</ele>
        <time>2021-07-04T07:17:27Z</time>
      </trkpt>
      <trkpt lat="47.37497" lon="-0.65014">
        <ele>28.8</ele>
        <time>2021-07-04T07:17:29Z</time>
      </trkpt>
      <trkpt lat="47.37487" lon="-0.65006">
        <ele>28.6</ele>
        <time>2021-07-04T07:17:31Z</time>
      </trkpt>
      <trkpt lat="47.37478" lon="-0.64999">
        <ele>28.4</ele>
        <time>2021-07-04T07:17:33Z</time>
      </trkpt>
      <trkpt lat="47.37468" lon="-0.64992">
        <ele>28.4</ele>
        <time>2021-07-04T07:17:35Z</time>
      </trkpt>
      <trkpt lat="47.37464" lon="-0.64988">
        <ele>28.4</ele>
        <time>2021-07-04T07:17:36Z</time>
      </trkpt>
      <trkpt lat="47.37459" lon="-0.64984">
        <ele>28.4</ele>
        <time>2021-07-04T07:17:37Z</time>
      </trkpt>
      <trkpt lat="47.37449" lon="-0.64977">
        <ele>28.6</ele>
        <time>2021-07-04T07:17:39Z</time>
      </trkpt>
      <trkpt lat="47.3744" lon="-0.64971">
        <ele>29</ele>
        <time>2021-07-04T07:17:41Z</time>
      </trkpt>
      <trkpt lat="47.37435" lon="-0.64967">
        <ele>29.2</ele>
        <time>2021-07-04T07:17:42Z</time>
      </trkpt>
      <trkpt lat="47.3743" lon="-0.64963">
        <ele>29.4</ele>
        <time>2021-07-04T07:17:43Z</time>
      </trkpt>
      <trkpt lat="47.3742" lon="-0.64955">
        <ele>29.4</ele>
        <time>2021-07-04T07:17:45Z</time>
      </trkpt>
      <trkpt lat="47.3741" lon="-0.64947">
        <ele>29.4</ele>
        <time>2021-07-04T07:17:47Z</time>
      </trkpt>
      <trkpt lat="47.374" lon="-0.64938">
        <ele>29.2</ele>
        <time>2021-07-04T07:17:49Z</time>
      </trkpt>
      <trkpt lat="47.3739" lon="-0.64929">
        <ele>29.2</ele>
        <time>2021-07-04T07:17:51Z</time>
      </trkpt>
      <trkpt lat="47.3738" lon="-0.64921">
        <ele>29.4</ele>
        <time>2021-07-04T07:17:53Z</time>
      </trkpt>
      <trkpt lat="47.37375" lon="-0.64917">
        <ele>29.6</ele>
        <time>2021-07-04T07:17:54Z</time>
      </trkpt>
      <trkpt lat="47.3737" lon="-0.64913">
        <ele>29.6</ele>
        <time>2021-07-04T07:17:55Z</time>
      </trkpt>
      <trkpt lat="47.37359" lon="-0.64904">
        <ele>29.4</ele>
        <time>2021-07-04T07:17:57Z</time>
      </trkpt>
      <trkpt lat="47.37349" lon="-0.64896">
        <ele>29.4</ele>
        <time>2021-07-04T07:17:59Z</time>
      </trkpt>
      <trkpt lat="47.37339" lon="-0.64888">
        <ele>29.6</ele>
        <time>2021-07-04T07:18:01Z</time>
      </trkpt>
      <trkpt lat="47.37329" lon="-0.64878">
        <ele>29.4</ele>
        <time>2021-07-04T07:18:03Z</time>
      </trkpt>
      <trkpt lat="47.37317" lon="-0.6487">
        <ele>29.4</ele>
        <time>2021-07-04T07:18:05Z</time>
      </trkpt>
      <trkpt lat="47.37306" lon="-0.64861">
        <ele>30</ele>
        <time>2021-07-04T07:18:07Z</time>
      </trkpt>
      <trkpt lat="47.37295" lon="-0.64852">
        <ele>30.2</ele>
        <time>2021-07-04T07:18:09Z</time>
      </trkpt>
      <trkpt lat="47.37283" lon="-0.64843">
        <ele>29.4</ele>
        <time>2021-07-04T07:18:11Z</time>
      </trkpt>
      <trkpt lat="47.37272" lon="-0.64833">
        <ele>28.6</ele>
        <time>2021-07-04T07:18:13Z</time>
      </trkpt>
      <trkpt lat="47.37266" lon="-0.64828">
        <ele>28.4</ele>
        <time>2021-07-04T07:18:14Z</time>
      </trkpt>
      <trkpt lat="47.37261" lon="-0.64823">
        <ele>28.4</ele>
        <time>2021-07-04T07:18:15Z</time>
      </trkpt>
      <trkpt lat="47.37249" lon="-0.64815">
        <ele>28.4</ele>
        <time>2021-07-04T07:18:17Z</time>
      </trkpt>
      <trkpt lat="47.37243" lon="-0.64811">
        <ele>28.2</ele>
        <time>2021-07-04T07:18:18Z</time>
      </trkpt>
      <trkpt lat="47.37237" lon="-0.64809">
        <ele>28</ele>
        <time>2021-07-04T07:18:19Z</time>
      </trkpt>
      <trkpt lat="47.3723" lon="-0.64807">
        <ele>28</ele>
        <time>2021-07-04T07:18:20Z</time>
      </trkpt>
      <trkpt lat="47.37224" lon="-0.64806">
        <ele>28</ele>
        <time>2021-07-04T07:18:21Z</time>
      </trkpt>
      <trkpt lat="47.37211" lon="-0.64801">
        <ele>27.6</ele>
        <time>2021-07-04T07:18:23Z</time>
      </trkpt>
      <trkpt lat="47.37204" lon="-0.64786">
        <ele>27.4</ele>
        <time>2021-07-04T07:18:25Z</time>
      </trkpt>
      <trkpt lat="47.37205" lon="-0.64765">
        <ele>27.2</ele>
        <time>2021-07-04T07:18:27Z</time>
      </trkpt>
      <trkpt lat="47.37205" lon="-0.64753">
        <ele>26.4</ele>
        <time>2021-07-04T07:18:28Z</time>
      </trkpt>
      <trkpt lat="47.37207" lon="-0.64742">
        <ele>25.2</ele>
        <time>2021-07-04T07:18:29Z</time>
      </trkpt>
      <trkpt lat="47.37213" lon="-0.64723">
        <ele>24.2</ele>
        <time>2021-07-04T07:18:31Z</time>
      </trkpt>
      <trkpt lat="47.37217" lon="-0.64714">
        <ele>24.2</ele>
        <time>2021-07-04T07:18:32Z</time>
      </trkpt>
      <trkpt lat="47.37221" lon="-0.64705">
        <ele>24.6</ele>
        <time>2021-07-04T07:18:33Z</time>
      </trkpt>
      <trkpt lat="47.37228" lon="-0.64688">
        <ele>24.6</ele>
        <time>2021-07-04T07:18:35Z</time>
      </trkpt>
      <trkpt lat="47.37234" lon="-0.6467">
        <ele>24.8</ele>
        <time>2021-07-04T07:18:37Z</time>
      </trkpt>
      <trkpt lat="47.3724" lon="-0.64653">
        <ele>24.8</ele>
        <time>2021-07-04T07:18:39Z</time>
      </trkpt>
      <trkpt lat="47.37247" lon="-0.64635">
        <ele>24.6</ele>
        <time>2021-07-04T07:18:41Z</time>
      </trkpt>
      <trkpt lat="47.37253" lon="-0.64618">
        <ele>25.2</ele>
        <time>2021-07-04T07:18:43Z</time>
      </trkpt>
      <trkpt lat="47.37259" lon="-0.646">
        <ele>25.6</ele>
        <time>2021-07-04T07:18:45Z</time>
      </trkpt>
      <trkpt lat="47.37265" lon="-0.64582">
        <ele>25.4</ele>
        <time>2021-07-04T07:18:47Z</time>
      </trkpt>
      <trkpt lat="47.37271" lon="-0.64565">
        <ele>25.2</ele>
        <time>2021-07-04T07:18:49Z</time>
      </trkpt>
      <trkpt lat="47.37276" lon="-0.64548">
        <ele>24.4</ele>
        <time>2021-07-04T07:18:51Z</time>
      </trkpt>
      <trkpt lat="47.37278" lon="-0.6454">
        <ele>24</ele>
        <time>2021-07-04T07:18:52Z</time>
      </trkpt>
      <trkpt lat="47.37281" lon="-0.64532">
        <ele>24</ele>
        <time>2021-07-04T07:18:53Z</time>
      </trkpt>
      <trkpt lat="47.37283" lon="-0.64525">
        <ele>24.4</ele>
        <time>2021-07-04T07:18:54Z</time>
      </trkpt>
      <trkpt lat="47.37286" lon="-0.64518">
        <ele>24.8</ele>
        <time>2021-07-04T07:18:55Z</time>
      </trkpt>
      <trkpt lat="47.37287" lon="-0.6451">
        <ele>25</ele>
        <time>2021-07-04T07:18:56Z</time>
      </trkpt>
      <trkpt lat="47.37286" lon="-0.64503">
        <ele>25.4</ele>
        <time>2021-07-04T07:18:57Z</time>
      </trkpt>
      <trkpt lat="47.37277" lon="-0.64494">
        <ele>25.4</ele>
        <time>2021-07-04T07:18:59Z</time>
      </trkpt>
      <trkpt lat="47.37272" lon="-0.64491">
        <ele>24</ele>
        <time>2021-07-04T07:19:00Z</time>
      </trkpt>
      <trkpt lat="47.37266" lon="-0.64489">
        <ele>23.6</ele>
        <time>2021-07-04T07:19:01Z</time>
      </trkpt>
      <trkpt lat="47.37256" lon="-0.64483">
        <ele>23.4</ele>
        <time>2021-07-04T07:19:03Z</time>
      </trkpt>
      <trkpt lat="47.37243" lon="-0.64477">
        <ele>23.4</ele>
        <time>2021-07-04T07:19:05Z</time>
      </trkpt>
      <trkpt lat="47.37237" lon="-0.64474">
        <ele>23.4</ele>
        <time>2021-07-04T07:19:06Z</time>
      </trkpt>
      <trkpt lat="47.37231" lon="-0.64471">
        <ele>23.4</ele>
        <time>2021-07-04T07:19:07Z</time>
      </trkpt>
      <trkpt lat="47.37219" lon="-0.64466">
        <ele>23.4</ele>
        <time>2021-07-04T07:19:09Z</time>
      </trkpt>
      <trkpt lat="47.37207" lon="-0.6446">
        <ele>23.8</ele>
        <time>2021-07-04T07:19:11Z</time>
      </trkpt>
      <trkpt lat="47.37196" lon="-0.64454">
        <ele>23.4</ele>
        <time>2021-07-04T07:19:13Z</time>
      </trkpt>
      <trkpt lat="47.3719" lon="-0.64451">
        <ele>23</ele>
        <time>2021-07-04T07:19:14Z</time>
      </trkpt>
      <trkpt lat="47.37184" lon="-0.64447">
        <ele>22.6</ele>
        <time>2021-07-04T07:19:15Z</time>
      </trkpt>
      <trkpt lat="47.37172" lon="-0.64441">
        <ele>22.8</ele>
        <time>2021-07-04T07:19:17Z</time>
      </trkpt>
      <trkpt lat="47.3716" lon="-0.64435">
        <ele>23.2</ele>
        <time>2021-07-04T07:19:19Z</time>
      </trkpt>
      <trkpt lat="47.37154" lon="-0.64431">
        <ele>23.2</ele>
        <time>2021-07-04T07:19:20Z</time>
      </trkpt>
      <trkpt lat="47.37148" lon="-0.64428">
        <ele>23.6</ele>
        <time>2021-07-04T07:19:21Z</time>
      </trkpt>
      <trkpt lat="47.37136" lon="-0.64423">
        <ele>23.6</ele>
        <time>2021-07-04T07:19:23Z</time>
      </trkpt>
      <trkpt lat="47.37123" lon="-0.64418">
        <ele>23.2</ele>
        <time>2021-07-04T07:19:25Z</time>
      </trkpt>
      <trkpt lat="47.37117" lon="-0.64415">
        <ele>23.2</ele>
        <time>2021-07-04T07:19:26Z</time>
      </trkpt>
      <trkpt lat="47.37111" lon="-0.64412">
        <ele>23</ele>
        <time>2021-07-04T07:19:27Z</time>
      </trkpt>
      <trkpt lat="47.37099" lon="-0.64406">
        <ele>23</ele>
        <time>2021-07-04T07:19:29Z</time>
      </trkpt>
      <trkpt lat="47.37087" lon="-0.64398">
        <ele>23.4</ele>
        <time>2021-07-04T07:19:31Z</time>
      </trkpt>
      <trkpt lat="47.37081" lon="-0.64395">
        <ele>23.4</ele>
        <time>2021-07-04T07:19:32Z</time>
      </trkpt>
      <trkpt lat="47.37076" lon="-0.64391">
        <ele>23.2</ele>
        <time>2021-07-04T07:19:33Z</time>
      </trkpt>
      <trkpt lat="47.37071" lon="-0.64385">
        <ele>23</ele>
        <time>2021-07-04T07:19:34Z</time>
      </trkpt>
      <trkpt lat="47.37066" lon="-0.64379">
        <ele>23</ele>
        <time>2021-07-04T07:19:35Z</time>
      </trkpt>
      <trkpt lat="47.37062" lon="-0.64373">
        <ele>22.8</ele>
        <time>2021-07-04T07:19:36Z</time>
      </trkpt>
      <trkpt lat="47.37058" lon="-0.64367">
        <ele>22.8</ele>
        <time>2021-07-04T07:19:37Z</time>
      </trkpt>
      <trkpt lat="47.37051" lon="-0.64353">
        <ele>23.2</ele>
        <time>2021-07-04T07:19:39Z</time>
      </trkpt>
      <trkpt lat="47.37048" lon="-0.64345">
        <ele>23</ele>
        <time>2021-07-04T07:19:40Z</time>
      </trkpt>
      <trkpt lat="47.37045" lon="-0.64337">
        <ele>23.2</ele>
        <time>2021-07-04T07:19:41Z</time>
      </trkpt>
      <trkpt lat="47.37039" lon="-0.64322">
        <ele>23.4</ele>
        <time>2021-07-04T07:19:43Z</time>
      </trkpt>
      <trkpt lat="47.37034" lon="-0.64306">
        <ele>23</ele>
        <time>2021-07-04T07:19:45Z</time>
      </trkpt>
      <trkpt lat="47.37028" lon="-0.6429">
        <ele>23</ele>
        <time>2021-07-04T07:19:47Z</time>
      </trkpt>
      <trkpt lat="47.37022" lon="-0.64275">
        <ele>23.8</ele>
        <time>2021-07-04T07:19:49Z</time>
      </trkpt>
      <trkpt lat="47.37016" lon="-0.6426">
        <ele>23.8</ele>
        <time>2021-07-04T07:19:51Z</time>
      </trkpt>
      <trkpt lat="47.37012" lon="-0.64254">
        <ele>24</ele>
        <time>2021-07-04T07:19:52Z</time>
      </trkpt>
      <trkpt lat="47.37007" lon="-0.64248">
        <ele>24</ele>
        <time>2021-07-04T07:19:53Z</time>
      </trkpt>
      <trkpt lat="47.37001" lon="-0.64245">
        <ele>24</ele>
        <time>2021-07-04T07:19:54Z</time>
      </trkpt>
      <trkpt lat="47.36996" lon="-0.64244">
        <ele>23.6</ele>
        <time>2021-07-04T07:19:55Z</time>
      </trkpt>
      <trkpt lat="47.36984" lon="-0.64245">
        <ele>23.4</ele>
        <time>2021-07-04T07:19:57Z</time>
      </trkpt>
      <trkpt lat="47.36978" lon="-0.64246">
        <ele>23.4</ele>
        <time>2021-07-04T07:19:58Z</time>
      </trkpt>
      <trkpt lat="47.36972" lon="-0.64249">
        <ele>23.6</ele>
        <time>2021-07-04T07:19:59Z</time>
      </trkpt>
      <trkpt lat="47.3696" lon="-0.64253">
        <ele>23.6</ele>
        <time>2021-07-04T07:20:01Z</time>
      </trkpt>
      <trkpt lat="47.36954" lon="-0.64254">
        <ele>23.4</ele>
        <time>2021-07-04T07:20:02Z</time>
      </trkpt>
      <trkpt lat="47.36948" lon="-0.64256">
        <ele>23.4</ele>
        <time>2021-07-04T07:20:03Z</time>
      </trkpt>
      <trkpt lat="47.36936" lon="-0.64259">
        <ele>23.6</ele>
        <time>2021-07-04T07:20:05Z</time>
      </trkpt>
      <trkpt lat="47.36923" lon="-0.64264">
        <ele>23.8</ele>
        <time>2021-07-04T07:20:07Z</time>
      </trkpt>
      <trkpt lat="47.36911" lon="-0.64267">
        <ele>24</ele>
        <time>2021-07-04T07:20:09Z</time>
      </trkpt>
      <trkpt lat="47.36899" lon="-0.64271">
        <ele>24.2</ele>
        <time>2021-07-04T07:20:11Z</time>
      </trkpt>
      <trkpt lat="47.36886" lon="-0.64275">
        <ele>23.4</ele>
        <time>2021-07-04T07:20:13Z</time>
      </trkpt>
      <trkpt lat="47.36873" lon="-0.64278">
        <ele>23.6</ele>
        <time>2021-07-04T07:20:15Z</time>
      </trkpt>
      <trkpt lat="47.3686" lon="-0.64282">
        <ele>23.2</ele>
        <time>2021-07-04T07:20:17Z</time>
      </trkpt>
      <trkpt lat="47.36854" lon="-0.64284">
        <ele>22.8</ele>
        <time>2021-07-04T07:20:18Z</time>
      </trkpt>
      <trkpt lat="47.36847" lon="-0.64286">
        <ele>23</ele>
        <time>2021-07-04T07:20:19Z</time>
      </trkpt>
      <trkpt lat="47.36836" lon="-0.64291">
        <ele>23.4</ele>
        <time>2021-07-04T07:20:21Z</time>
      </trkpt>
      <trkpt lat="47.36826" lon="-0.64296">
        <ele>23.6</ele>
        <time>2021-07-04T07:20:23Z</time>
      </trkpt>
      <trkpt lat="47.36815" lon="-0.643">
        <ele>23.8</ele>
        <time>2021-07-04T07:20:25Z</time>
      </trkpt>
      <trkpt lat="47.36803" lon="-0.64302">
        <ele>23.6</ele>
        <time>2021-07-04T07:20:27Z</time>
      </trkpt>
      <trkpt lat="47.36791" lon="-0.64304">
        <ele>22.8</ele>
        <time>2021-07-04T07:20:29Z</time>
      </trkpt>
      <trkpt lat="47.36779" lon="-0.64308">
        <ele>22.6</ele>
        <time>2021-07-04T07:20:31Z</time>
      </trkpt>
      <trkpt lat="47.36766" lon="-0.64312">
        <ele>23.2</ele>
        <time>2021-07-04T07:20:33Z</time>
      </trkpt>
      <trkpt lat="47.36753" lon="-0.64316">
        <ele>23.8</ele>
        <time>2021-07-04T07:20:35Z</time>
      </trkpt>
      <trkpt lat="47.36747" lon="-0.64318">
        <ele>24</ele>
        <time>2021-07-04T07:20:36Z</time>
      </trkpt>
      <trkpt lat="47.36741" lon="-0.6432">
        <ele>24.2</ele>
        <time>2021-07-04T07:20:37Z</time>
      </trkpt>
      <trkpt lat="47.36728" lon="-0.64325">
        <ele>24</ele>
        <time>2021-07-04T07:20:39Z</time>
      </trkpt>
      <trkpt lat="47.36716" lon="-0.6433">
        <ele>24.2</ele>
        <time>2021-07-04T07:20:41Z</time>
      </trkpt>
      <trkpt lat="47.36704" lon="-0.64333">
        <ele>24.4</ele>
        <time>2021-07-04T07:20:43Z</time>
      </trkpt>
      <trkpt lat="47.36698" lon="-0.64336">
        <ele>24.4</ele>
        <time>2021-07-04T07:20:44Z</time>
      </trkpt>
      <trkpt lat="47.36692" lon="-0.64338">
        <ele>24.2</ele>
        <time>2021-07-04T07:20:45Z</time>
      </trkpt>
      <trkpt lat="47.36679" lon="-0.64343">
        <ele>24.2</ele>
        <time>2021-07-04T07:20:47Z</time>
      </trkpt>
      <trkpt lat="47.36668" lon="-0.64347">
        <ele>24</ele>
        <time>2021-07-04T07:20:49Z</time>
      </trkpt>
      <trkpt lat="47.36662" lon="-0.6435">
        <ele>23.8</ele>
        <time>2021-07-04T07:20:50Z</time>
      </trkpt>
      <trkpt lat="47.36656" lon="-0.64354">
        <ele>23.8</ele>
        <time>2021-07-04T07:20:51Z</time>
      </trkpt>
      <trkpt lat="47.36645" lon="-0.64362">
        <ele>24</ele>
        <time>2021-07-04T07:20:53Z</time>
      </trkpt>
      <trkpt lat="47.36635" lon="-0.64374">
        <ele>24.2</ele>
        <time>2021-07-04T07:20:55Z</time>
      </trkpt>
      <trkpt lat="47.36626" lon="-0.64388">
        <ele>24.2</ele>
        <time>2021-07-04T07:20:57Z</time>
      </trkpt>
      <trkpt lat="47.36617" lon="-0.64401">
        <ele>24.4</ele>
        <time>2021-07-04T07:20:59Z</time>
      </trkpt>
      <trkpt lat="47.36607" lon="-0.64414">
        <ele>24.4</ele>
        <time>2021-07-04T07:21:01Z</time>
      </trkpt>
      <trkpt lat="47.36602" lon="-0.64421">
        <ele>23.8</ele>
        <time>2021-07-04T07:21:02Z</time>
      </trkpt>
      <trkpt lat="47.36597" lon="-0.64428">
        <ele>23.8</ele>
        <time>2021-07-04T07:21:03Z</time>
      </trkpt>
      <trkpt lat="47.36588" lon="-0.64442">
        <ele>23.6</ele>
        <time>2021-07-04T07:21:05Z</time>
      </trkpt>
      <trkpt lat="47.36579" lon="-0.64456">
        <ele>23.2</ele>
        <time>2021-07-04T07:21:07Z</time>
      </trkpt>
      <trkpt lat="47.3657" lon="-0.64469">
        <ele>23.6</ele>
        <time>2021-07-04T07:21:09Z</time>
      </trkpt>
      <trkpt lat="47.36561" lon="-0.64483">
        <ele>23.6</ele>
        <time>2021-07-04T07:21:11Z</time>
      </trkpt>
      <trkpt lat="47.36552" lon="-0.64497">
        <ele>23.8</ele>
        <time>2021-07-04T07:21:13Z</time>
      </trkpt>
      <trkpt lat="47.36542" lon="-0.64511">
        <ele>23.8</ele>
        <time>2021-07-04T07:21:15Z</time>
      </trkpt>
      <trkpt lat="47.36533" lon="-0.64524">
        <ele>23.6</ele>
        <time>2021-07-04T07:21:17Z</time>
      </trkpt>
      <trkpt lat="47.36524" lon="-0.64537">
        <ele>24</ele>
        <time>2021-07-04T07:21:19Z</time>
      </trkpt>
      <trkpt lat="47.36515" lon="-0.6455">
        <ele>23.8</ele>
        <time>2021-07-04T07:21:21Z</time>
      </trkpt>
      <trkpt lat="47.36505" lon="-0.64562">
        <ele>24.2</ele>
        <time>2021-07-04T07:21:23Z</time>
      </trkpt>
      <trkpt lat="47.36497" lon="-0.64575">
        <ele>24.6</ele>
        <time>2021-07-04T07:21:25Z</time>
      </trkpt>
      <trkpt lat="47.36492" lon="-0.64582">
        <ele>24.4</ele>
        <time>2021-07-04T07:21:26Z</time>
      </trkpt>
      <trkpt lat="47.36487" lon="-0.64588">
        <ele>24.4</ele>
        <time>2021-07-04T07:21:27Z</time>
      </trkpt>
      <trkpt lat="47.36477" lon="-0.64601">
        <ele>23.8</ele>
        <time>2021-07-04T07:21:29Z</time>
      </trkpt>
      <trkpt lat="47.36473" lon="-0.64608">
        <ele>23.4</ele>
        <time>2021-07-04T07:21:30Z</time>
      </trkpt>
      <trkpt lat="47.36468" lon="-0.64614">
        <ele>23.6</ele>
        <time>2021-07-04T07:21:31Z</time>
      </trkpt>
      <trkpt lat="47.36459" lon="-0.64626">
        <ele>23.8</ele>
        <time>2021-07-04T07:21:33Z</time>
      </trkpt>
      <trkpt lat="47.3645" lon="-0.64639">
        <ele>23.6</ele>
        <time>2021-07-04T07:21:35Z</time>
      </trkpt>
      <trkpt lat="47.36441" lon="-0.64652">
        <ele>23.2</ele>
        <time>2021-07-04T07:21:37Z</time>
      </trkpt>
      <trkpt lat="47.36432" lon="-0.64664">
        <ele>23.4</ele>
        <time>2021-07-04T07:21:39Z</time>
      </trkpt>
      <trkpt lat="47.36424" lon="-0.64677">
        <ele>24</ele>
        <time>2021-07-04T07:21:41Z</time>
      </trkpt>
      <trkpt lat="47.36415" lon="-0.64689">
        <ele>23.4</ele>
        <time>2021-07-04T07:21:43Z</time>
      </trkpt>
      <trkpt lat="47.36407" lon="-0.647">
        <ele>23.2</ele>
        <time>2021-07-04T07:21:45Z</time>
      </trkpt>
      <trkpt lat="47.36398" lon="-0.64713">
        <ele>24</ele>
        <time>2021-07-04T07:21:47Z</time>
      </trkpt>
      <trkpt lat="47.36394" lon="-0.64719">
        <ele>23.8</ele>
        <time>2021-07-04T07:21:48Z</time>
      </trkpt>
      <trkpt lat="47.3639" lon="-0.64725">
        <ele>23.6</ele>
        <time>2021-07-04T07:21:49Z</time>
      </trkpt>
      <trkpt lat="47.36382" lon="-0.64736">
        <ele>24</ele>
        <time>2021-07-04T07:21:51Z</time>
      </trkpt>
      <trkpt lat="47.36373" lon="-0.64748">
        <ele>24.2</ele>
        <time>2021-07-04T07:21:53Z</time>
      </trkpt>
      <trkpt lat="47.36365" lon="-0.6476">
        <ele>23.6</ele>
        <time>2021-07-04T07:21:55Z</time>
      </trkpt>
      <trkpt lat="47.36356" lon="-0.64773">
        <ele>24</ele>
        <time>2021-07-04T07:21:57Z</time>
      </trkpt>
      <trkpt lat="47.36347" lon="-0.64785">
        <ele>24.4</ele>
        <time>2021-07-04T07:21:59Z</time>
      </trkpt>
      <trkpt lat="47.36339" lon="-0.64797">
        <ele>24.2</ele>
        <time>2021-07-04T07:22:01Z</time>
      </trkpt>
      <trkpt lat="47.3633" lon="-0.6481">
        <ele>24</ele>
        <time>2021-07-04T07:22:03Z</time>
      </trkpt>
      <trkpt lat="47.36321" lon="-0.64822">
        <ele>23.8</ele>
        <time>2021-07-04T07:22:05Z</time>
      </trkpt>
      <trkpt lat="47.36312" lon="-0.64835">
        <ele>24.2</ele>
        <time>2021-07-04T07:22:07Z</time>
      </trkpt>
      <trkpt lat="47.36308" lon="-0.64841">
        <ele>24</ele>
        <time>2021-07-04T07:22:08Z</time>
      </trkpt>
      <trkpt lat="47.36304" lon="-0.64847">
        <ele>24.2</ele>
        <time>2021-07-04T07:22:09Z</time>
      </trkpt>
      <trkpt lat="47.36295" lon="-0.64859">
        <ele>24.8</ele>
        <time>2021-07-04T07:22:11Z</time>
      </trkpt>
      <trkpt lat="47.36286" lon="-0.64872">
        <ele>24.4</ele>
        <time>2021-07-04T07:22:13Z</time>
      </trkpt>
      <trkpt lat="47.36277" lon="-0.64884">
        <ele>24.6</ele>
        <time>2021-07-04T07:22:15Z</time>
      </trkpt>
      <trkpt lat="47.36268" lon="-0.64898">
        <ele>24.8</ele>
        <time>2021-07-04T07:22:17Z</time>
      </trkpt>
      <trkpt lat="47.36264" lon="-0.64904">
        <ele>24.6</ele>
        <time>2021-07-04T07:22:18Z</time>
      </trkpt>
      <trkpt lat="47.36259" lon="-0.64911">
        <ele>24.6</ele>
        <time>2021-07-04T07:22:19Z</time>
      </trkpt>
      <trkpt lat="47.3625" lon="-0.64925">
        <ele>24.6</ele>
        <time>2021-07-04T07:22:21Z</time>
      </trkpt>
      <trkpt lat="47.36242" lon="-0.64939">
        <ele>25.2</ele>
        <time>2021-07-04T07:22:23Z</time>
      </trkpt>
      <trkpt lat="47.36234" lon="-0.64953">
        <ele>25.2</ele>
        <time>2021-07-04T07:22:25Z</time>
      </trkpt>
      <trkpt lat="47.3623" lon="-0.6496">
        <ele>25.2</ele>
        <time>2021-07-04T07:22:26Z</time>
      </trkpt>
      <trkpt lat="47.36226" lon="-0.64968">
        <ele>25.2</ele>
        <time>2021-07-04T07:22:27Z</time>
      </trkpt>
      <trkpt lat="47.36219" lon="-0.64982">
        <ele>25.2</ele>
        <time>2021-07-04T07:22:29Z</time>
      </trkpt>
      <trkpt lat="47.36212" lon="-0.64996">
        <ele>24.8</ele>
        <time>2021-07-04T07:22:31Z</time>
      </trkpt>
      <trkpt lat="47.36204" lon="-0.6501">
        <ele>25</ele>
        <time>2021-07-04T07:22:33Z</time>
      </trkpt>
      <trkpt lat="47.362" lon="-0.65017">
        <ele>25</ele>
        <time>2021-07-04T07:22:34Z</time>
      </trkpt>
      <trkpt lat="47.36196" lon="-0.65024">
        <ele>24.8</ele>
        <time>2021-07-04T07:22:35Z</time>
      </trkpt>
      <trkpt lat="47.36188" lon="-0.65037">
        <ele>24.6</ele>
        <time>2021-07-04T07:22:37Z</time>
      </trkpt>
      <trkpt lat="47.3618" lon="-0.65051">
        <ele>24</ele>
        <time>2021-07-04T07:22:39Z</time>
      </trkpt>
      <trkpt lat="47.36171" lon="-0.65063">
        <ele>24.6</ele>
        <time>2021-07-04T07:22:41Z</time>
      </trkpt>
      <trkpt lat="47.36167" lon="-0.65069">
        <ele>25</ele>
        <time>2021-07-04T07:22:42Z</time>
      </trkpt>
      <trkpt lat="47.36162" lon="-0.65075">
        <ele>25.2</ele>
        <time>2021-07-04T07:22:43Z</time>
      </trkpt>
      <trkpt lat="47.36153" lon="-0.65087">
        <ele>24.8</ele>
        <time>2021-07-04T07:22:45Z</time>
      </trkpt>
      <trkpt lat="47.36143" lon="-0.65098">
        <ele>25.2</ele>
        <time>2021-07-04T07:22:47Z</time>
      </trkpt>
      <trkpt lat="47.36134" lon="-0.65109">
        <ele>25.2</ele>
        <time>2021-07-04T07:22:49Z</time>
      </trkpt>
      <trkpt lat="47.36129" lon="-0.65115">
        <ele>25</ele>
        <time>2021-07-04T07:22:50Z</time>
      </trkpt>
      <trkpt lat="47.36125" lon="-0.65121">
        <ele>25</ele>
        <time>2021-07-04T07:22:51Z</time>
      </trkpt>
      <trkpt lat="47.36121" lon="-0.65128">
        <ele>24.8</ele>
        <time>2021-07-04T07:22:52Z</time>
      </trkpt>
      <trkpt lat="47.36117" lon="-0.65135">
        <ele>25</ele>
        <time>2021-07-04T07:22:53Z</time>
      </trkpt>
      <trkpt lat="47.36111" lon="-0.65152">
        <ele>25.2</ele>
        <time>2021-07-04T07:22:55Z</time>
      </trkpt>
      <trkpt lat="47.36106" lon="-0.65169">
        <ele>25</ele>
        <time>2021-07-04T07:22:57Z</time>
      </trkpt>
      <trkpt lat="47.36101" lon="-0.65187">
        <ele>25.2</ele>
        <time>2021-07-04T07:22:59Z</time>
      </trkpt>
      <trkpt lat="47.36097" lon="-0.65205">
        <ele>25.2</ele>
        <time>2021-07-04T07:23:01Z</time>
      </trkpt>
      <trkpt lat="47.36093" lon="-0.65223">
        <ele>25</ele>
        <time>2021-07-04T07:23:03Z</time>
      </trkpt>
      <trkpt lat="47.36089" lon="-0.65242">
        <ele>25</ele>
        <time>2021-07-04T07:23:05Z</time>
      </trkpt>
      <trkpt lat="47.36085" lon="-0.6526">
        <ele>25</ele>
        <time>2021-07-04T07:23:07Z</time>
      </trkpt>
      <trkpt lat="47.36082" lon="-0.65279">
        <ele>24.6</ele>
        <time>2021-07-04T07:23:09Z</time>
      </trkpt>
      <trkpt lat="47.36077" lon="-0.65297">
        <ele>24.6</ele>
        <time>2021-07-04T07:23:11Z</time>
      </trkpt>
      <trkpt lat="47.36073" lon="-0.65316">
        <ele>25.2</ele>
        <time>2021-07-04T07:23:13Z</time>
      </trkpt>
      <trkpt lat="47.36069" lon="-0.65334">
        <ele>24.8</ele>
        <time>2021-07-04T07:23:15Z</time>
      </trkpt>
      <trkpt lat="47.36065" lon="-0.65352">
        <ele>24.8</ele>
        <time>2021-07-04T07:23:17Z</time>
      </trkpt>
      <trkpt lat="47.36063" lon="-0.65361">
        <ele>24.8</ele>
        <time>2021-07-04T07:23:18Z</time>
      </trkpt>
      <trkpt lat="47.36062" lon="-0.6537">
        <ele>24.8</ele>
        <time>2021-07-04T07:23:19Z</time>
      </trkpt>
      <trkpt lat="47.36059" lon="-0.65388">
        <ele>24.4</ele>
        <time>2021-07-04T07:23:21Z</time>
      </trkpt>
      <trkpt lat="47.36056" lon="-0.65406">
        <ele>24.2</ele>
        <time>2021-07-04T07:23:23Z</time>
      </trkpt>
      <trkpt lat="47.36054" lon="-0.65422">
        <ele>25</ele>
        <time>2021-07-04T07:23:25Z</time>
      </trkpt>
      <trkpt lat="47.36053" lon="-0.65437">
        <ele>26</ele>
        <time>2021-07-04T07:23:27Z</time>
      </trkpt>
      <trkpt lat="47.36052" lon="-0.65453">
        <ele>26.2</ele>
        <time>2021-07-04T07:23:29Z</time>
      </trkpt>
      <trkpt lat="47.36051" lon="-0.65468">
        <ele>26.2</ele>
        <time>2021-07-04T07:23:31Z</time>
      </trkpt>
      <trkpt lat="47.36049" lon="-0.65481">
        <ele>26.4</ele>
        <time>2021-07-04T07:23:33Z</time>
      </trkpt>
      <trkpt lat="47.36043" lon="-0.6549">
        <ele>26.4</ele>
        <time>2021-07-04T07:23:35Z</time>
      </trkpt>
      <trkpt lat="47.36041" lon="-0.65493">
        <ele>26.8</ele>
        <time>2021-07-04T07:23:36Z</time>
      </trkpt>
      <trkpt lat="47.36038" lon="-0.65497">
        <ele>27.6</ele>
        <time>2021-07-04T07:23:37Z</time>
      </trkpt>
      <trkpt lat="47.36033" lon="-0.65506">
        <ele>28</ele>
        <time>2021-07-04T07:23:39Z</time>
      </trkpt>
      <trkpt lat="47.36029" lon="-0.65511">
        <ele>27.8</ele>
        <time>2021-07-04T07:23:40Z</time>
      </trkpt>
      <trkpt lat="47.36025" lon="-0.65515">
        <ele>27.6</ele>
        <time>2021-07-04T07:23:41Z</time>
      </trkpt>
      <trkpt lat="47.36016" lon="-0.65517">
        <ele>27.6</ele>
        <time>2021-07-04T07:23:43Z</time>
      </trkpt>
      <trkpt lat="47.36012" lon="-0.65518">
        <ele>27.4</ele>
        <time>2021-07-04T07:23:44Z</time>
      </trkpt>
      <trkpt lat="47.36008" lon="-0.65518">
        <ele>27.2</ele>
        <time>2021-07-04T07:23:45Z</time>
      </trkpt>
      <trkpt lat="47.35999" lon="-0.65517">
        <ele>27.4</ele>
        <time>2021-07-04T07:23:47Z</time>
      </trkpt>
      <trkpt lat="47.35995" lon="-0.65518">
        <ele>26.4</ele>
        <time>2021-07-04T07:23:48Z</time>
      </trkpt>
      <trkpt lat="47.35991" lon="-0.65518">
        <ele>26.4</ele>
        <time>2021-07-04T07:23:49Z</time>
      </trkpt>
      <trkpt lat="47.35982" lon="-0.6552">
        <ele>26.6</ele>
        <time>2021-07-04T07:23:51Z</time>
      </trkpt>
      <trkpt lat="47.35978" lon="-0.65522">
        <ele>27</ele>
        <time>2021-07-04T07:23:52Z</time>
      </trkpt>
      <trkpt lat="47.35974" lon="-0.65524">
        <ele>27.4</ele>
        <time>2021-07-04T07:23:53Z</time>
      </trkpt>
      <trkpt lat="47.35972" lon="-0.65526">
        <ele>27.8</ele>
        <time>2021-07-04T07:23:54Z</time>
      </trkpt>
      <trkpt lat="47.35969" lon="-0.65527">
        <ele>28.2</ele>
        <time>2021-07-04T07:23:55Z</time>
      </trkpt>
      <trkpt lat="47.35966" lon="-0.65527">
        <ele>28.6</ele>
        <time>2021-07-04T07:23:56Z</time>
      </trkpt>
      <trkpt lat="47.35962" lon="-0.65527">
        <ele>29</ele>
        <time>2021-07-04T07:23:57Z</time>
      </trkpt>
      <trkpt lat="47.35959" lon="-0.65527">
        <ele>29</ele>
        <time>2021-07-04T07:23:58Z</time>
      </trkpt>
      <trkpt lat="47.35955" lon="-0.65528">
        <ele>29</ele>
        <time>2021-07-04T07:23:59Z</time>
      </trkpt>
      <trkpt lat="47.35947" lon="-0.65525">
        <ele>29.2</ele>
        <time>2021-07-04T07:24:01Z</time>
      </trkpt>
      <trkpt lat="47.35939" lon="-0.65523">
        <ele>29.4</ele>
        <time>2021-07-04T07:24:03Z</time>
      </trkpt>
      <trkpt lat="47.35931" lon="-0.6552">
        <ele>29.4</ele>
        <time>2021-07-04T07:24:05Z</time>
      </trkpt>
      <trkpt lat="47.35923" lon="-0.65517">
        <ele>30.2</ele>
        <time>2021-07-04T07:24:07Z</time>
      </trkpt>
      <trkpt lat="47.35914" lon="-0.65514">
        <ele>30.2</ele>
        <time>2021-07-04T07:24:09Z</time>
      </trkpt>
      <trkpt lat="47.35905" lon="-0.6551">
        <ele>29.4</ele>
        <time>2021-07-04T07:24:11Z</time>
      </trkpt>
      <trkpt lat="47.35901" lon="-0.65507">
        <ele>29</ele>
        <time>2021-07-04T07:24:12Z</time>
      </trkpt>
      <trkpt lat="47.35896" lon="-0.65506">
        <ele>28.8</ele>
        <time>2021-07-04T07:24:13Z</time>
      </trkpt>
      <trkpt lat="47.35891" lon="-0.65505">
        <ele>28.6</ele>
        <time>2021-07-04T07:24:14Z</time>
      </trkpt>
      <trkpt lat="47.35886" lon="-0.65507">
        <ele>28.4</ele>
        <time>2021-07-04T07:24:15Z</time>
      </trkpt>
      <trkpt lat="47.35882" lon="-0.65511">
        <ele>28.2</ele>
        <time>2021-07-04T07:24:16Z</time>
      </trkpt>
      <trkpt lat="47.3588" lon="-0.65518">
        <ele>28</ele>
        <time>2021-07-04T07:24:17Z</time>
      </trkpt>
      <trkpt lat="47.35878" lon="-0.65527">
        <ele>27.8</ele>
        <time>2021-07-04T07:24:18Z</time>
      </trkpt>
      <trkpt lat="47.35878" lon="-0.65535">
        <ele>27.6</ele>
        <time>2021-07-04T07:24:19Z</time>
      </trkpt>
      <trkpt lat="47.35878" lon="-0.65543">
        <ele>27.2</ele>
        <time>2021-07-04T07:24:20Z</time>
      </trkpt>
      <trkpt lat="47.35878" lon="-0.65551">
        <ele>27</ele>
        <time>2021-07-04T07:24:21Z</time>
      </trkpt>
      <trkpt lat="47.35877" lon="-0.65559">
        <ele>27</ele>
        <time>2021-07-04T07:24:22Z</time>
      </trkpt>
      <trkpt lat="47.35875" lon="-0.65567">
        <ele>26.8</ele>
        <time>2021-07-04T07:24:23Z</time>
      </trkpt>
      <trkpt lat="47.35873" lon="-0.65573">
        <ele>26.2</ele>
        <time>2021-07-04T07:24:24Z</time>
      </trkpt>
      <trkpt lat="47.35872" lon="-0.6558">
        <ele>25.6</ele>
        <time>2021-07-04T07:24:25Z</time>
      </trkpt>
      <trkpt lat="47.35868" lon="-0.65592">
        <ele>26.2</ele>
        <time>2021-07-04T07:24:27Z</time>
      </trkpt>
      <trkpt lat="47.35866" lon="-0.65599">
        <ele>26.8</ele>
        <time>2021-07-04T07:24:28Z</time>
      </trkpt>
      <trkpt lat="47.35864" lon="-0.65605">
        <ele>27</ele>
        <time>2021-07-04T07:24:29Z</time>
      </trkpt>
      <trkpt lat="47.3586" lon="-0.65618">
        <ele>26.4</ele>
        <time>2021-07-04T07:24:31Z</time>
      </trkpt>
      <trkpt lat="47.35859" lon="-0.65625">
        <ele>26.2</ele>
        <time>2021-07-04T07:24:32Z</time>
      </trkpt>
      <trkpt lat="47.35857" lon="-0.65632">
        <ele>26.4</ele>
        <time>2021-07-04T07:24:33Z</time>
      </trkpt>
      <trkpt lat="47.35856" lon="-0.65638">
        <ele>26.6</ele>
        <time>2021-07-04T07:24:34Z</time>
      </trkpt>
      <trkpt lat="47.35854" lon="-0.65646">
        <ele>26.6</ele>
        <time>2021-07-04T07:24:35Z</time>
      </trkpt>
      <trkpt lat="47.35851" lon="-0.6566">
        <ele>26.2</ele>
        <time>2021-07-04T07:24:37Z</time>
      </trkpt>
      <trkpt lat="47.35848" lon="-0.65673">
        <ele>26.8</ele>
        <time>2021-07-04T07:24:39Z</time>
      </trkpt>
      <trkpt lat="47.35847" lon="-0.6568">
        <ele>27</ele>
        <time>2021-07-04T07:24:40Z</time>
      </trkpt>
      <trkpt lat="47.35846" lon="-0.65686">
        <ele>27</ele>
        <time>2021-07-04T07:24:41Z</time>
      </trkpt>
      <trkpt lat="47.35844" lon="-0.65698">
        <ele>27.2</ele>
        <time>2021-07-04T07:24:43Z</time>
      </trkpt>
      <trkpt lat="47.3584" lon="-0.65711">
        <ele>27.4</ele>
        <time>2021-07-04T07:24:45Z</time>
      </trkpt>
      <trkpt lat="47.35837" lon="-0.65724">
        <ele>27</ele>
        <time>2021-07-04T07:24:47Z</time>
      </trkpt>
      <trkpt lat="47.35835" lon="-0.65731">
        <ele>26.8</ele>
        <time>2021-07-04T07:24:48Z</time>
      </trkpt>
      <trkpt lat="47.35832" lon="-0.65737">
        <ele>26.6</ele>
        <time>2021-07-04T07:24:49Z</time>
      </trkpt>
      <trkpt lat="47.35827" lon="-0.65752">
        <ele>26.8</ele>
        <time>2021-07-04T07:24:51Z</time>
      </trkpt>
      <trkpt lat="47.35825" lon="-0.6576">
        <ele>26.8</ele>
        <time>2021-07-04T07:24:52Z</time>
      </trkpt>
      <trkpt lat="47.35823" lon="-0.65768">
        <ele>26.8</ele>
        <time>2021-07-04T07:24:53Z</time>
      </trkpt>
      <trkpt lat="47.3582" lon="-0.65783">
        <ele>27</ele>
        <time>2021-07-04T07:24:55Z</time>
      </trkpt>
      <trkpt lat="47.35816" lon="-0.65797">
        <ele>27</ele>
        <time>2021-07-04T07:24:57Z</time>
      </trkpt>
      <trkpt lat="47.35813" lon="-0.65804">
        <ele>27</ele>
        <time>2021-07-04T07:24:58Z</time>
      </trkpt>
      <trkpt lat="47.3581" lon="-0.65811">
        <ele>27.2</ele>
        <time>2021-07-04T07:24:59Z</time>
      </trkpt>
      <trkpt lat="47.35805" lon="-0.65825">
        <ele>27.6</ele>
        <time>2021-07-04T07:25:01Z</time>
      </trkpt>
      <trkpt lat="47.35803" lon="-0.65832">
        <ele>27.8</ele>
        <time>2021-07-04T07:25:02Z</time>
      </trkpt>
      <trkpt lat="47.35801" lon="-0.6584">
        <ele>27.8</ele>
        <time>2021-07-04T07:25:03Z</time>
      </trkpt>
      <trkpt lat="47.35797" lon="-0.65855">
        <ele>27.8</ele>
        <time>2021-07-04T07:25:05Z</time>
      </trkpt>
      <trkpt lat="47.35794" lon="-0.65869">
        <ele>28.2</ele>
        <time>2021-07-04T07:25:07Z</time>
      </trkpt>
      <trkpt lat="47.35791" lon="-0.65882">
        <ele>27.8</ele>
        <time>2021-07-04T07:25:09Z</time>
      </trkpt>
      <trkpt lat="47.35789" lon="-0.65892">
        <ele>27</ele>
        <time>2021-07-04T07:25:11Z</time>
      </trkpt>
      <trkpt lat="47.35785" lon="-0.65892">
        <ele>27</ele>
        <time>2021-07-04T07:25:12Z</time>
      </trkpt>
      <trkpt lat="47.35781" lon="-0.65892">
        <ele>27</ele>
        <time>2021-07-04T07:25:13Z</time>
      </trkpt>
      <trkpt lat="47.35772" lon="-0.65891">
        <ele>27.2</ele>
        <time>2021-07-04T07:25:15Z</time>
      </trkpt>
      <trkpt lat="47.35765" lon="-0.65893">
        <ele>27.6</ele>
        <time>2021-07-04T07:25:17Z</time>
      </trkpt>
      <trkpt lat="47.35758" lon="-0.65894">
        <ele>28.6</ele>
        <time>2021-07-04T07:25:19Z</time>
      </trkpt>
      <trkpt lat="47.35755" lon="-0.65894">
        <ele>29.6</ele>
        <time>2021-07-04T07:25:20Z</time>
      </trkpt>
      <trkpt lat="47.35751" lon="-0.65893">
        <ele>30</ele>
        <time>2021-07-04T07:25:21Z</time>
      </trkpt>
      <trkpt lat="47.35744" lon="-0.6589">
        <ele>30.4</ele>
        <time>2021-07-04T07:25:23Z</time>
      </trkpt>
      <trkpt lat="47.3574" lon="-0.65889">
        <ele>30.8</ele>
        <time>2021-07-04T07:25:24Z</time>
      </trkpt>
      <trkpt lat="47.35737" lon="-0.65887">
        <ele>31.2</ele>
        <time>2021-07-04T07:25:25Z</time>
      </trkpt>
      <trkpt lat="47.35734" lon="-0.65888">
        <ele>31.2</ele>
        <time>2021-07-04T07:25:26Z</time>
      </trkpt>
      <trkpt lat="47.35731" lon="-0.65891">
        <ele>31.2</ele>
        <time>2021-07-04T07:25:27Z</time>
      </trkpt>
      <trkpt lat="47.3573" lon="-0.65896">
        <ele>30.8</ele>
        <time>2021-07-04T07:25:28Z</time>
      </trkpt>
      <trkpt lat="47.35728" lon="-0.65902">
        <ele>30.4</ele>
        <time>2021-07-04T07:25:29Z</time>
      </trkpt>
      <trkpt lat="47.35725" lon="-0.65914">
        <ele>29.8</ele>
        <time>2021-07-04T07:25:31Z</time>
      </trkpt>
      <trkpt lat="47.35722" lon="-0.65927">
        <ele>30</ele>
        <time>2021-07-04T07:25:33Z</time>
      </trkpt>
      <trkpt lat="47.35719" lon="-0.65942">
        <ele>30</ele>
        <time>2021-07-04T07:25:35Z</time>
      </trkpt>
      <trkpt lat="47.35715" lon="-0.65956">
        <ele>29.4</ele>
        <time>2021-07-04T07:25:37Z</time>
      </trkpt>
      <trkpt lat="47.35711" lon="-0.65971">
        <ele>28.6</ele>
        <time>2021-07-04T07:25:39Z</time>
      </trkpt>
      <trkpt lat="47.35707" lon="-0.65986">
        <ele>29.4</ele>
        <time>2021-07-04T07:25:41Z</time>
      </trkpt>
      <trkpt lat="47.35707" lon="-0.65994">
        <ele>29.2</ele>
        <time>2021-07-04T07:25:42Z</time>
      </trkpt>
      <trkpt lat="47.35705" lon="-0.66002">
        <ele>28.6</ele>
        <time>2021-07-04T07:25:43Z</time>
      </trkpt>
      <trkpt lat="47.35703" lon="-0.6601">
        <ele>28.4</ele>
        <time>2021-07-04T07:25:44Z</time>
      </trkpt>
      <trkpt lat="47.35701" lon="-0.66018">
        <ele>28.6</ele>
        <time>2021-07-04T07:25:45Z</time>
      </trkpt>
      <trkpt lat="47.35696" lon="-0.66036">
        <ele>29.2</ele>
        <time>2021-07-04T07:25:47Z</time>
      </trkpt>
      <trkpt lat="47.35692" lon="-0.66054">
        <ele>27.2</ele>
        <time>2021-07-04T07:25:49Z</time>
      </trkpt>
      <trkpt lat="47.35688" lon="-0.66073">
        <ele>26.2</ele>
        <time>2021-07-04T07:25:51Z</time>
      </trkpt>
      <trkpt lat="47.35685" lon="-0.66092">
        <ele>25.6</ele>
        <time>2021-07-04T07:25:53Z</time>
      </trkpt>
      <trkpt lat="47.35682" lon="-0.6611">
        <ele>25.6</ele>
        <time>2021-07-04T07:25:55Z</time>
      </trkpt>
      <trkpt lat="47.35678" lon="-0.66126">
        <ele>25.8</ele>
        <time>2021-07-04T07:25:57Z</time>
      </trkpt>
      <trkpt lat="47.35674" lon="-0.66143">
        <ele>26.4</ele>
        <time>2021-07-04T07:25:59Z</time>
      </trkpt>
      <trkpt lat="47.35672" lon="-0.66151">
        <ele>26.6</ele>
        <time>2021-07-04T07:26:00Z</time>
      </trkpt>
      <trkpt lat="47.3567" lon="-0.66159">
        <ele>26.8</ele>
        <time>2021-07-04T07:26:01Z</time>
      </trkpt>
      <trkpt lat="47.35667" lon="-0.66176">
        <ele>26.2</ele>
        <time>2021-07-04T07:26:03Z</time>
      </trkpt>
      <trkpt lat="47.35664" lon="-0.66193">
        <ele>25.8</ele>
        <time>2021-07-04T07:26:05Z</time>
      </trkpt>
      <trkpt lat="47.35661" lon="-0.6621">
        <ele>25.8</ele>
        <time>2021-07-04T07:26:07Z</time>
      </trkpt>
      <trkpt lat="47.35657" lon="-0.66227">
        <ele>26</ele>
        <time>2021-07-04T07:26:09Z</time>
      </trkpt>
      <trkpt lat="47.35655" lon="-0.66235">
        <ele>26.4</ele>
        <time>2021-07-04T07:26:10Z</time>
      </trkpt>
      <trkpt lat="47.35653" lon="-0.66242">
        <ele>26.6</ele>
        <time>2021-07-04T07:26:11Z</time>
      </trkpt>
      <trkpt lat="47.35652" lon="-0.66247">
        <ele>27</ele>
        <time>2021-07-04T07:26:12Z</time>
      </trkpt>
      <trkpt lat="47.35651" lon="-0.6625">
        <ele>27.4</ele>
        <time>2021-07-04T07:26:13Z</time>
      </trkpt>
      <trkpt lat="47.3565" lon="-0.66256">
        <ele>27.8</ele>
        <time>2021-07-04T07:26:15Z</time>
      </trkpt>
      <trkpt lat="47.35649" lon="-0.66259">
        <ele>27.8</ele>
        <time>2021-07-04T07:26:16Z</time>
      </trkpt>
      <trkpt lat="47.35648" lon="-0.66263">
        <ele>27.6</ele>
        <time>2021-07-04T07:26:17Z</time>
      </trkpt>
      <trkpt lat="47.35645" lon="-0.66273">
        <ele>26.8</ele>
        <time>2021-07-04T07:26:19Z</time>
      </trkpt>
      <trkpt lat="47.35643" lon="-0.6628">
        <ele>26.6</ele>
        <time>2021-07-04T07:26:20Z</time>
      </trkpt>
      <trkpt lat="47.35642" lon="-0.66287">
        <ele>26</ele>
        <time>2021-07-04T07:26:21Z</time>
      </trkpt>
      <trkpt lat="47.35639" lon="-0.66303">
        <ele>25.6</ele>
        <time>2021-07-04T07:26:23Z</time>
      </trkpt>
      <trkpt lat="47.35636" lon="-0.6632">
        <ele>25.2</ele>
        <time>2021-07-04T07:26:25Z</time>
      </trkpt>
      <trkpt lat="47.35634" lon="-0.66329">
        <ele>25</ele>
        <time>2021-07-04T07:26:26Z</time>
      </trkpt>
      <trkpt lat="47.35632" lon="-0.66338">
        <ele>25</ele>
        <time>2021-07-04T07:26:27Z</time>
      </trkpt>
      <trkpt lat="47.35628" lon="-0.66355">
        <ele>25</ele>
        <time>2021-07-04T07:26:29Z</time>
      </trkpt>
      <trkpt lat="47.35625" lon="-0.66373">
        <ele>24.8</ele>
        <time>2021-07-04T07:26:31Z</time>
      </trkpt>
      <trkpt lat="47.3562" lon="-0.6639">
        <ele>24.8</ele>
        <time>2021-07-04T07:26:33Z</time>
      </trkpt>
      <trkpt lat="47.35616" lon="-0.66407">
        <ele>24.4</ele>
        <time>2021-07-04T07:26:35Z</time>
      </trkpt>
      <trkpt lat="47.35612" lon="-0.66423">
        <ele>24.6</ele>
        <time>2021-07-04T07:26:37Z</time>
      </trkpt>
      <trkpt lat="47.35608" lon="-0.66439">
        <ele>24.8</ele>
        <time>2021-07-04T07:26:39Z</time>
      </trkpt>
      <trkpt lat="47.35605" lon="-0.66447">
        <ele>25.6</ele>
        <time>2021-07-04T07:26:41Z</time>
      </trkpt>
      <trkpt lat="47.35604" lon="-0.66445">
        <ele>26.2</ele>
        <time>2021-07-04T07:26:42Z</time>
      </trkpt>
      <trkpt lat="47.35604" lon="-0.66442">
        <ele>26.6</ele>
        <time>2021-07-04T07:26:43Z</time>
      </trkpt>
      <trkpt lat="47.35607" lon="-0.66435">
        <ele>27</ele>
        <time>2021-07-04T07:26:45Z</time>
      </trkpt>
      <trkpt lat="47.35608" lon="-0.6643">
        <ele>26.8</ele>
        <time>2021-07-04T07:26:46Z</time>
      </trkpt>
      <trkpt lat="47.35609" lon="-0.66425">
        <ele>26.8</ele>
        <time>2021-07-04T07:26:47Z</time>
      </trkpt>
      <trkpt lat="47.35612" lon="-0.66415">
        <ele>26.8</ele>
        <time>2021-07-04T07:26:49Z</time>
      </trkpt>
      <trkpt lat="47.35615" lon="-0.66406">
        <ele>26.4</ele>
        <time>2021-07-04T07:26:51Z</time>
      </trkpt>
      <trkpt lat="47.35616" lon="-0.66396">
        <ele>26.4</ele>
        <time>2021-07-04T07:26:53Z</time>
      </trkpt>
      <trkpt lat="47.35618" lon="-0.66393">
        <ele>26.2</ele>
        <time>2021-07-04T07:26:54Z</time>
      </trkpt>
      <trkpt lat="47.3562" lon="-0.66393">
        <ele>26.4</ele>
        <time>2021-07-04T07:26:55Z</time>
      </trkpt>
      <trkpt lat="47.35621" lon="-0.66393">
        <ele>26.8</ele>
        <time>2021-07-04T07:26:57Z</time>
      </trkpt>
      <trkpt lat="47.35578" lon="-0.66552">
        <ele>17.1</ele>
      </trkpt>
      <trkpt lat="47.35491" lon="-0.666">
        <ele>19.1</ele>
      </trkpt>
      <trkpt lat="47.35456" lon="-0.66768">
        <ele>18.1</ele>
      </trkpt>
      <trkpt lat="47.35133" lon="-0.67317">
        <ele>14.7</ele>
      </trkpt>
      <trkpt lat="47.35073" lon="-0.67353">
        <ele>15</ele>
      </trkpt>
      <trkpt lat="47.35033" lon="-0.67485">
        <ele>13.8</ele>
      </trkpt>
      <trkpt lat="47.34867" lon="-0.67569">
        <ele>18.6</ele>
      </trkpt>
      <trkpt lat="47.34835" lon="-0.67561">
        <ele>19.8</ele>
      </trkpt>
      <trkpt lat="47.34821" lon="-0.67653">
        <ele>19.4</ele>
      </trkpt>
      <trkpt lat="47.34802" lon="-0.67529">
        <ele>22.6</ele>
      </trkpt>
      <trkpt lat="47.34829" lon="-0.67389">
        <ele>19.6</ele>
      </trkpt>
      <trkpt lat="47.34783" lon="-0.67341">
        <ele>23.8</ele>
      </trkpt>
      <trkpt lat="47.34713" lon="-0.67481">
        <ele>26.5</ele>
      </trkpt>
      <trkpt lat="47.34615" lon="-0.67573">
        <ele>38.2</ele>
      </trkpt>
      <trkpt lat="47.34533" lon="-0.67573">
        <ele>47.8</ele>
      </trkpt>
      <trkpt lat="47.34414" lon="-0.67517">
        <ele>54.8</ele>
      </trkpt>
      <trkpt lat="47.34338" lon="-0.67557">
        <ele>61.8</ele>
      </trkpt>
      <trkpt lat="47.34178" lon="-0.67517">
        <ele>70</ele>
      </trkpt>
      <trkpt lat="47.34059" lon="-0.67541">
        <ele>78.1</ele>
      </trkpt>
      <trkpt lat="47.3395" lon="-0.67441">
        <ele>82.3</ele>
      </trkpt>
      <trkpt lat="47.33912" lon="-0.67429">
        <ele>81.9</ele>
      </trkpt>
      <trkpt lat="47.33966" lon="-0.67665">
        <ele>82.8</ele>
      </trkpt>
      <trkpt lat="47.3389" lon="-0.67709">
        <ele>86</ele>
      </trkpt>
      <trkpt lat="47.33831" lon="-0.67745">
        <ele>88.9</ele>
      </trkpt>
      <trkpt lat="47.33766" lon="-0.67737">
        <ele>90.4</ele>
      </trkpt>
      <trkpt lat="47.33738" lon="-0.67777">
        <ele>89.8</ele>
      </trkpt>
      <trkpt lat="47.33871" lon="-0.68089">
        <ele>88.4</ele>
      </trkpt>
      <trkpt lat="47.33842" lon="-0.68117">
        <ele>87.4</ele>
      </trkpt>
      <trkpt lat="47.33877" lon="-0.68185">
        <ele>87.2</ele>
      </trkpt>
      <trkpt lat="47.33603" lon="-0.68414">
        <ele>72.7</ele>
      </trkpt>
      <trkpt lat="47.33627" lon="-0.68458">
        <ele>71.4</ele>
      </trkpt>
      <trkpt lat="47.33489" lon="-0.68594">
        <ele>59.5</ele>
      </trkpt>
      <trkpt lat="47.33378" lon="-0.68658">
        <ele>47.8</ele>
      </trkpt>
      <trkpt lat="47.33169" lon="-0.68894">
        <ele>21.2</ele>
      </trkpt>
      <trkpt lat="47.32951" lon="-0.68762">
        <ele>25.1</ele>
      </trkpt>
      <trkpt lat="47.32894" lon="-0.68702">
        <ele>25.5</ele>
      </trkpt>
      <trkpt lat="47.32968" lon="-0.68626">
        <ele>36.5</ele>
      </trkpt>
      <trkpt lat="47.33003" lon="-0.68594">
        <ele>42.3</ele>
      </trkpt>
      <trkpt lat="47.32951" lon="-0.68374">
        <ele>50.3</ele>
      </trkpt>
      <trkpt lat="47.32894" lon="-0.68422">
        <ele>42.5</ele>
      </trkpt>
      <trkpt lat="47.32889" lon="-0.68318">
        <ele>45.1</ele>
      </trkpt>
      <trkpt lat="47.32856" lon="-0.68226">
        <ele>43.8</ele>
      </trkpt>
      <trkpt lat="47.32835" lon="-0.68181">
        <ele>42</ele>
      </trkpt>
      <trkpt lat="47.32805" lon="-0.67993">
        <ele>38.7</ele>
      </trkpt>
      <trkpt lat="47.3278" lon="-0.67973">
        <ele>35.7</ele>
      </trkpt>
      <trkpt lat="47.32791" lon="-0.67857">
        <ele>30.4</ele>
      </trkpt>
      <trkpt lat="47.32808" lon="-0.67801">
        <ele>29.7</ele>
      </trkpt>
      <trkpt lat="47.32827" lon="-0.67701">
        <ele>29.2</ele>
      </trkpt>
      <trkpt lat="47.32865" lon="-0.67473">
        <ele>35.7</ele>
      </trkpt>
      <trkpt lat="47.32851" lon="-0.67321">
        <ele>27.8</ele>
      </trkpt>
      <trkpt lat="47.32821" lon="-0.6716">
        <ele>19.4</ele>
      </trkpt>
      <trkpt lat="47.32745" lon="-0.67112">
        <ele>16</ele>
      </trkpt>
      <trkpt lat="47.32721" lon="-0.67096">
        <ele>16.3</ele>
      </trkpt>
      <trkpt lat="47.32634" lon="-0.6704">
        <ele>18.6</ele>
      </trkpt>
      <trkpt lat="47.32558" lon="-0.66916">
        <ele>21.1</ele>
      </trkpt>
      <trkpt lat="47.32509" lon="-0.66856">
        <ele>20.5</ele>
      </trkpt>
      <trkpt lat="47.32458" lon="-0.66768">
        <ele>22.9</ele>
      </trkpt>
      <trkpt lat="47.32422" lon="-0.66688">
        <ele>20.5</ele>
      </trkpt>
      <trkpt lat="47.32403" lon="-0.66636">
        <ele>21</ele>
      </trkpt>
      <trkpt lat="47.32485" lon="-0.66524">
        <ele>19.5</ele>
      </trkpt>
      <trkpt lat="47.3246" lon="-0.66404">
        <ele>19.2</ele>
      </trkpt>
      <trkpt lat="47.32525" lon="-0.66404">
        <ele>20.8</ele>
      </trkpt>
      <trkpt lat="47.32433" lon="-0.66187">
        <ele>19.9</ele>
      </trkpt>
      <trkpt lat="47.32449" lon="-0.65939">
        <ele>23.7</ele>
      </trkpt>
      <trkpt lat="47.32414" lon="-0.65731">
        <ele>20.5</ele>
      </trkpt>
      <trkpt lat="47.3236" lon="-0.65611">
        <ele>26.1</ele>
      </trkpt>
      <trkpt lat="47.32045" lon="-0.65202">
        <ele>24.1</ele>
      </trkpt>
      <trkpt lat="47.32069" lon="-0.65094">
        <ele>30.4</ele>
      </trkpt>
      <trkpt lat="47.32078" lon="-0.65034">
        <ele>34</ele>
      </trkpt>
      <trkpt lat="47.32053" lon="-0.64942">
        <ele>40.7</ele>
      </trkpt>
      <trkpt lat="47.32048" lon="-0.64882">
        <ele>42.7</ele>
      </trkpt>
      <trkpt lat="47.3204" lon="-0.64786">
        <ele>44.3</ele>
      </trkpt>
      <trkpt lat="47.32088" lon="-0.6475">
        <ele>48.4</ele>
      </trkpt>
      <trkpt lat="47.32148" lon="-0.64702">
        <ele>54.9</ele>
      </trkpt>
      <trkpt lat="47.32143" lon="-0.64654">
        <ele>55.4</ele>
      </trkpt>
      <trkpt lat="47.32135" lon="-0.64622">
        <ele>54.3</ele>
      </trkpt>
      <trkpt lat="47.32156" lon="-0.64566">
        <ele>56.7</ele>
      </trkpt>
      <trkpt lat="47.32202" lon="-0.64518">
        <ele>59.8</ele>
      </trkpt>
      <trkpt lat="47.32132" lon="-0.64462">
        <ele>57.9</ele>
      </trkpt>
      <trkpt lat="47.32072" lon="-0.64458">
        <ele>57.8</ele>
      </trkpt>
      <trkpt lat="47.32042" lon="-0.64398">
        <ele>60.2</ele>
      </trkpt>
      <trkpt lat="47.32042" lon="-0.64378">
        <ele>60.5</ele>
      </trkpt>
      <trkpt lat="47.32059" lon="-0.64329">
        <ele>62.2</ele>
      </trkpt>
      <trkpt lat="47.3208" lon="-0.64281">
        <ele>63.7</ele>
      </trkpt>
      <trkpt lat="47.32474" lon="-0.64017">
        <ele>78.6</ele>
      </trkpt>
      <trkpt lat="47.32501" lon="-0.63969">
        <ele>79.7</ele>
      </trkpt>
      <trkpt lat="47.3249" lon="-0.63889">
        <ele>77.3</ele>
      </trkpt>
      <trkpt lat="47.3252" lon="-0.63813">
        <ele>75.4</ele>
      </trkpt>
      <trkpt lat="47.32729" lon="-0.63661">
        <ele>79.4</ele>
      </trkpt>
      <trkpt lat="47.32794" lon="-0.63625">
        <ele>80.8</ele>
      </trkpt>
      <trkpt lat="47.32786" lon="-0.63529">
        <ele>81.6</ele>
      </trkpt>
      <trkpt lat="47.3274" lon="-0.63336">
        <ele>84.5</ele>
      </trkpt>
      <trkpt lat="47.3274" lon="-0.6326">
        <ele>87.9</ele>
      </trkpt>
      <trkpt lat="47.32778" lon="-0.63256">
        <ele>90.4</ele>
      </trkpt>
      <trkpt lat="47.32642" lon="-0.63168">
        <ele>85.1</ele>
      </trkpt>
      <trkpt lat="47.32338" lon="-0.63168">
        <ele>73.2</ele>
      </trkpt>
      <trkpt lat="47.32249" lon="-0.63112">
        <ele>70.3</ele>
      </trkpt>
      <trkpt lat="47.32151" lon="-0.63096">
        <ele>68.8</ele>
      </trkpt>
      <trkpt lat="47.32075" lon="-0.63112">
        <ele>67.1</ele>
      </trkpt>
      <trkpt lat="47.32004" lon="-0.6314">
        <ele>59.5</ele>
      </trkpt>
      <trkpt lat="47.31945" lon="-0.6312">
        <ele>50.4</ele>
      </trkpt>
      <trkpt lat="47.31817" lon="-0.63204">
        <ele>29.7</ele>
      </trkpt>
      <trkpt lat="47.31727" lon="-0.63204">
        <ele>21.1</ele>
      </trkpt>
      <trkpt lat="47.31708" lon="-0.62836">
        <ele>25.4</ele>
      </trkpt>
      <trkpt lat="47.3167" lon="-0.62668">
        <ele>21.6</ele>
      </trkpt>
      <trkpt lat="47.3173" lon="-0.62548">
        <ele>29.3</ele>
      </trkpt>
      <trkpt lat="47.31695" lon="-0.62391">
        <ele>24.5</ele>
      </trkpt>
      <trkpt lat="47.31708" lon="-0.62315">
        <ele>27.1</ele>
      </trkpt>
      <trkpt lat="47.31692" lon="-0.62183">
        <ele>28.5</ele>
      </trkpt>
      <trkpt lat="47.31643" lon="-0.62039">
        <ele>23.7</ele>
      </trkpt>
      <trkpt lat="47.31632" lon="-0.61871">
        <ele>29.9</ele>
      </trkpt>
      <trkpt lat="47.31608" lon="-0.61815">
        <ele>28</ele>
      </trkpt>
      <trkpt lat="47.31583" lon="-0.61655">
        <ele>25.6</ele>
      </trkpt>
      <trkpt lat="47.31564" lon="-0.61559">
        <ele>29.2</ele>
      </trkpt>
      <trkpt lat="47.31554" lon="-0.61475">
        <ele>32.3</ele>
      </trkpt>
      <trkpt lat="47.31388" lon="-0.61278">
        <ele>22</ele>
      </trkpt>
      <trkpt lat="47.31263" lon="-0.61102">
        <ele>22.2</ele>
      </trkpt>
      <trkpt lat="47.31241" lon="-0.60994">
        <ele>26.7</ele>
      </trkpt>
      <trkpt lat="47.31176" lon="-0.60902">
        <ele>25.4</ele>
      </trkpt>
      <trkpt lat="47.31146" lon="-0.6079">
        <ele>29.5</ele>
      </trkpt>
      <trkpt lat="47.31136" lon="-0.60626">
        <ele>31.8</ele>
      </trkpt>
      <trkpt lat="47.31165" lon="-0.60502">
        <ele>29.9</ele>
      </trkpt>
      <trkpt lat="47.31195" lon="-0.60413">
        <ele>37.4</ele>
      </trkpt>
      <trkpt lat="47.31187" lon="-0.60317">
        <ele>45.9</ele>
      </trkpt>
      <trkpt lat="47.31201" lon="-0.60261">
        <ele>53.2</ele>
      </trkpt>
      <trkpt lat="47.31239" lon="-0.60141">
        <ele>57.1</ele>
      </trkpt>
      <trkpt lat="47.31263" lon="-0.60105">
        <ele>59</ele>
      </trkpt>
      <trkpt lat="47.31193" lon="-0.59913">
        <ele>67.7</ele>
      </trkpt>
      <trkpt lat="47.31144" lon="-0.59805">
        <ele>71.1</ele>
      </trkpt>
      <trkpt lat="47.31073" lon="-0.5942">
        <ele>82.8</ele>
      </trkpt>
      <trkpt lat="47.31111" lon="-0.5926">
        <ele>83.9</ele>
      </trkpt>
      <trkpt lat="47.3116" lon="-0.59264">
        <ele>84</ele>
      </trkpt>
      <trkpt lat="47.31315" lon="-0.59092">
        <ele>85.7</ele>
      </trkpt>
      <trkpt lat="47.31453" lon="-0.58896">
        <ele>89.7</ele>
      </trkpt>
      <trkpt lat="47.31597" lon="-0.58692">
        <ele>100.5</ele>
      </trkpt>
      <trkpt lat="47.31594" lon="-0.58648">
        <ele>101.3</ele>
      </trkpt>
      <trkpt lat="47.31727" lon="-0.58624">
        <ele>106.1</ele>
      </trkpt>
      <trkpt lat="47.31798" lon="-0.58588">
        <ele>109.3</ele>
      </trkpt>
    </trkseg>
  </trk>
  <trk>
    <name><![CDATA[Manque 18kil. Le gps n’a pas redémarré 🙄. ]]></name>
    <extensions>
      <line xmlns="http://www.topografix.com/GPX/gpx_style/0/2">
        <color>FFFF00</color>
        <width>4</width>
      </line>
    </extensions>
    <trkseg>
      <trkpt lat="47.31705" lon="-0.58632">
        <ele>103.4</ele>
        <time>2021-07-04T08:26:10Z</time>
      </trkpt>
      <trkpt lat="47.3172" lon="-0.58627">
        <ele>103.6</ele>
        <time>2021-07-04T08:26:16Z</time>
      </trkpt>
      <trkpt lat="47.31727" lon="-0.58625">
        <ele>103.4</ele>
        <time>2021-07-04T08:26:18Z</time>
      </trkpt>
      <trkpt lat="47.3173" lon="-0.58624">
        <ele>98.8</ele>
        <time>2021-07-04T08:26:19Z</time>
      </trkpt>
      <trkpt lat="47.31733" lon="-0.58623">
        <ele>100.8</ele>
        <time>2021-07-04T08:26:20Z</time>
      </trkpt>
      <trkpt lat="47.31737" lon="-0.58622">
        <ele>104.2</ele>
        <time>2021-07-04T08:26:21Z</time>
      </trkpt>
      <trkpt lat="47.3174" lon="-0.58621">
        <ele>106.2</ele>
        <time>2021-07-04T08:26:22Z</time>
      </trkpt>
      <trkpt lat="47.31743" lon="-0.58619">
        <ele>104.4</ele>
        <time>2021-07-04T08:26:23Z</time>
      </trkpt>
      <trkpt lat="47.31747" lon="-0.58618">
        <ele>103.8</ele>
        <time>2021-07-04T08:26:24Z</time>
      </trkpt>
      <trkpt lat="47.31756" lon="-0.58614">
        <ele>103.4</ele>
        <time>2021-07-04T08:26:26Z</time>
      </trkpt>
      <trkpt lat="47.3176" lon="-0.58612">
        <ele>103.2</ele>
        <time>2021-07-04T08:26:27Z</time>
      </trkpt>
      <trkpt lat="47.31765" lon="-0.58609">
        <ele>103.2</ele>
        <time>2021-07-04T08:26:28Z</time>
      </trkpt>
      <trkpt lat="47.31769" lon="-0.58606">
        <ele>103</ele>
        <time>2021-07-04T08:26:29Z</time>
      </trkpt>
      <trkpt lat="47.31773" lon="-0.58603">
        <ele>102.8</ele>
        <time>2021-07-04T08:26:30Z</time>
      </trkpt>
      <trkpt lat="47.31778" lon="-0.58596">
        <ele>103</ele>
        <time>2021-07-04T08:26:32Z</time>
      </trkpt>
      <trkpt lat="47.31781" lon="-0.58593">
        <ele>103</ele>
        <time>2021-07-04T08:26:33Z</time>
      </trkpt>
      <trkpt lat="47.31784" lon="-0.58591">
        <ele>103.2</ele>
        <time>2021-07-04T08:26:34Z</time>
      </trkpt>
      <trkpt lat="47.31788" lon="-0.58591">
        <ele>103</ele>
        <time>2021-07-04T08:26:35Z</time>
      </trkpt>
      <trkpt lat="47.31791" lon="-0.58593">
        <ele>102.8</ele>
        <time>2021-07-04T08:26:36Z</time>
      </trkpt>
      <trkpt lat="47.318" lon="-0.58598">
        <ele>102</ele>
        <time>2021-07-04T08:26:38Z</time>
      </trkpt>
      <trkpt lat="47.31805" lon="-0.58599">
        <ele>102</ele>
        <time>2021-07-04T08:26:39Z</time>
      </trkpt>
      <trkpt lat="47.31809" lon="-0.58598">
        <ele>101.8</ele>
        <time>2021-07-04T08:26:40Z</time>
      </trkpt>
      <trkpt lat="47.31816" lon="-0.58594">
        <ele>102</ele>
        <time>2021-07-04T08:26:42Z</time>
      </trkpt>
      <trkpt lat="47.31823" lon="-0.58591">
        <ele>103</ele>
        <time>2021-07-04T08:26:44Z</time>
      </trkpt>
      <trkpt lat="47.3183" lon="-0.58587">
        <ele>102.6</ele>
        <time>2021-07-04T08:26:46Z</time>
      </trkpt>
      <trkpt lat="47.31833" lon="-0.58585">
        <ele>101</ele>
        <time>2021-07-04T08:26:47Z</time>
      </trkpt>
      <trkpt lat="47.31837" lon="-0.58584">
        <ele>101.2</ele>
        <time>2021-07-04T08:26:48Z</time>
      </trkpt>
      <trkpt lat="47.31846" lon="-0.58581">
        <ele>101.2</ele>
        <time>2021-07-04T08:26:50Z</time>
      </trkpt>
      <trkpt lat="47.31853" lon="-0.58578">
        <ele>100.8</ele>
        <time>2021-07-04T08:26:52Z</time>
      </trkpt>
      <trkpt lat="47.31858" lon="-0.58576">
        <ele>100.4</ele>
        <time>2021-07-04T08:26:53Z</time>
      </trkpt>
      <trkpt lat="47.31863" lon="-0.58574">
        <ele>100.4</ele>
        <time>2021-07-04T08:26:54Z</time>
      </trkpt>
      <trkpt lat="47.31873" lon="-0.58571">
        <ele>99.8</ele>
        <time>2021-07-04T08:26:56Z</time>
      </trkpt>
      <trkpt lat="47.31886" lon="-0.58565">
        <ele>98.8</ele>
        <time>2021-07-04T08:26:58Z</time>
      </trkpt>
      <trkpt lat="47.31891" lon="-0.58562">
        <ele>98.2</ele>
        <time>2021-07-04T08:26:59Z</time>
      </trkpt>
      <trkpt lat="47.31896" lon="-0.5856">
        <ele>97.8</ele>
        <time>2021-07-04T08:27:00Z</time>
      </trkpt>
      <trkpt lat="47.31908" lon="-0.58555">
        <ele>97.2</ele>
        <time>2021-07-04T08:27:02Z</time>
      </trkpt>
      <trkpt lat="47.31921" lon="-0.58551">
        <ele>96.6</ele>
        <time>2021-07-04T08:27:04Z</time>
      </trkpt>
      <trkpt lat="47.31935" lon="-0.58547">
        <ele>96.8</ele>
        <time>2021-07-04T08:27:06Z</time>
      </trkpt>
      <trkpt lat="47.31948" lon="-0.58543">
        <ele>96</ele>
        <time>2021-07-04T08:27:08Z</time>
      </trkpt>
      <trkpt lat="47.31961" lon="-0.58539">
        <ele>94.8</ele>
        <time>2021-07-04T08:27:10Z</time>
      </trkpt>
      <trkpt lat="47.31975" lon="-0.58534">
        <ele>94</ele>
        <time>2021-07-04T08:27:12Z</time>
      </trkpt>
      <trkpt lat="47.31991" lon="-0.5853">
        <ele>94.2</ele>
        <time>2021-07-04T08:27:14Z</time>
      </trkpt>
      <trkpt lat="47.31999" lon="-0.58528">
        <ele>93.6</ele>
        <time>2021-07-04T08:27:15Z</time>
      </trkpt>
      <trkpt lat="47.32007" lon="-0.58525">
        <ele>93.4</ele>
        <time>2021-07-04T08:27:16Z</time>
      </trkpt>
      <trkpt lat="47.32024" lon="-0.58521">
        <ele>93</ele>
        <time>2021-07-04T08:27:18Z</time>
      </trkpt>
      <trkpt lat="47.3204" lon="-0.58517">
        <ele>92.8</ele>
        <time>2021-07-04T08:27:20Z</time>
      </trkpt>
      <trkpt lat="47.32056" lon="-0.58512">
        <ele>92.6</ele>
        <time>2021-07-04T08:27:22Z</time>
      </trkpt>
      <trkpt lat="47.32064" lon="-0.5851">
        <ele>92.6</ele>
        <time>2021-07-04T08:27:23Z</time>
      </trkpt>
      <trkpt lat="47.32071" lon="-0.58507">
        <ele>92</ele>
        <time>2021-07-04T08:27:24Z</time>
      </trkpt>
      <trkpt lat="47.32077" lon="-0.58505">
        <ele>91.6</ele>
        <time>2021-07-04T08:27:25Z</time>
      </trkpt>
      <trkpt lat="47.32085" lon="-0.58502">
        <ele>91.4</ele>
        <time>2021-07-04T08:27:26Z</time>
      </trkpt>
      <trkpt lat="47.32099" lon="-0.58498">
        <ele>91.6</ele>
        <time>2021-07-04T08:27:28Z</time>
      </trkpt>
      <trkpt lat="47.32113" lon="-0.58493">
        <ele>90.6</ele>
        <time>2021-07-04T08:27:30Z</time>
      </trkpt>
      <trkpt lat="47.32126" lon="-0.58489">
        <ele>90.6</ele>
        <time>2021-07-04T08:27:32Z</time>
      </trkpt>
      <trkpt lat="47.32133" lon="-0.58487">
        <ele>90.4</ele>
        <time>2021-07-04T08:27:33Z</time>
      </trkpt>
      <trkpt lat="47.3214" lon="-0.58485">
        <ele>90</ele>
        <time>2021-07-04T08:27:34Z</time>
      </trkpt>
      <trkpt lat="47.32152" lon="-0.58481">
        <ele>90</ele>
        <time>2021-07-04T08:27:36Z</time>
      </trkpt>
      <trkpt lat="47.32165" lon="-0.58476">
        <ele>89.8</ele>
        <time>2021-07-04T08:27:38Z</time>
      </trkpt>
      <trkpt lat="47.32171" lon="-0.58473">
        <ele>89.4</ele>
        <time>2021-07-04T08:27:39Z</time>
      </trkpt>
      <trkpt lat="47.32176" lon="-0.58471">
        <ele>89.6</ele>
        <time>2021-07-04T08:27:40Z</time>
      </trkpt>
      <trkpt lat="47.32189" lon="-0.58465">
        <ele>89.2</ele>
        <time>2021-07-04T08:27:42Z</time>
      </trkpt>
      <trkpt lat="47.32202" lon="-0.5846">
        <ele>88.2</ele>
        <time>2021-07-04T08:27:44Z</time>
      </trkpt>
      <trkpt lat="47.32208" lon="-0.58458">
        <ele>88.2</ele>
        <time>2021-07-04T08:27:45Z</time>
      </trkpt>
      <trkpt lat="47.32214" lon="-0.58456">
        <ele>88.2</ele>
        <time>2021-07-04T08:27:46Z</time>
      </trkpt>
      <trkpt lat="47.32227" lon="-0.58451">
        <ele>87.6</ele>
        <time>2021-07-04T08:27:48Z</time>
      </trkpt>
      <trkpt lat="47.32239" lon="-0.58447">
        <ele>88.2</ele>
        <time>2021-07-04T08:27:50Z</time>
      </trkpt>
      <trkpt lat="47.32246" lon="-0.58445">
        <ele>88</ele>
        <time>2021-07-04T08:27:51Z</time>
      </trkpt>
      <trkpt lat="47.32253" lon="-0.58442">
        <ele>87.6</ele>
        <time>2021-07-04T08:27:52Z</time>
      </trkpt>
      <trkpt lat="47.32267" lon="-0.58438">
        <ele>87.2</ele>
        <time>2021-07-04T08:27:54Z</time>
      </trkpt>
      <trkpt lat="47.32282" lon="-0.58433">
        <ele>86.8</ele>
        <time>2021-07-04T08:27:56Z</time>
      </trkpt>
      <trkpt lat="47.32296" lon="-0.58429">
        <ele>86.2</ele>
        <time>2021-07-04T08:27:58Z</time>
      </trkpt>
      <trkpt lat="47.32311" lon="-0.58426">
        <ele>85.6</ele>
        <time>2021-07-04T08:28:00Z</time>
      </trkpt>
      <trkpt lat="47.32318" lon="-0.58423">
        <ele>85.2</ele>
        <time>2021-07-04T08:28:01Z</time>
      </trkpt>
      <trkpt lat="47.32326" lon="-0.5842">
        <ele>85.4</ele>
        <time>2021-07-04T08:28:02Z</time>
      </trkpt>
      <trkpt lat="47.32333" lon="-0.58418">
        <ele>85.2</ele>
        <time>2021-07-04T08:28:03Z</time>
      </trkpt>
      <trkpt lat="47.32341" lon="-0.58415">
        <ele>85</ele>
        <time>2021-07-04T08:28:04Z</time>
      </trkpt>
      <trkpt lat="47.32355" lon="-0.58411">
        <ele>84.8</ele>
        <time>2021-07-04T08:28:06Z</time>
      </trkpt>
      <trkpt lat="47.32361" lon="-0.58408">
        <ele>84.8</ele>
        <time>2021-07-04T08:28:07Z</time>
      </trkpt>
      <trkpt lat="47.32368" lon="-0.58405">
        <ele>84.8</ele>
        <time>2021-07-04T08:28:08Z</time>
      </trkpt>
      <trkpt lat="47.3238" lon="-0.58401">
        <ele>85</ele>
        <time>2021-07-04T08:28:10Z</time>
      </trkpt>
      <trkpt lat="47.32392" lon="-0.58398">
        <ele>85.2</ele>
        <time>2021-07-04T08:28:12Z</time>
      </trkpt>
      <trkpt lat="47.32398" lon="-0.58395">
        <ele>85.2</ele>
        <time>2021-07-04T08:28:13Z</time>
      </trkpt>
      <trkpt lat="47.32403" lon="-0.58394">
        <ele>85.2</ele>
        <time>2021-07-04T08:28:14Z</time>
      </trkpt>
      <trkpt lat="47.32414" lon="-0.58389">
        <ele>85</ele>
        <time>2021-07-04T08:28:16Z</time>
      </trkpt>
      <trkpt lat="47.32425" lon="-0.58383">
        <ele>85</ele>
        <time>2021-07-04T08:28:18Z</time>
      </trkpt>
      <trkpt lat="47.32437" lon="-0.58378">
        <ele>85.4</ele>
        <time>2021-07-04T08:28:20Z</time>
      </trkpt>
      <trkpt lat="47.3245" lon="-0.58374">
        <ele>86</ele>
        <time>2021-07-04T08:28:22Z</time>
      </trkpt>
      <trkpt lat="47.32464" lon="-0.58369">
        <ele>85.8</ele>
        <time>2021-07-04T08:28:24Z</time>
      </trkpt>
      <trkpt lat="47.3248" lon="-0.58366">
        <ele>85.8</ele>
        <time>2021-07-04T08:28:26Z</time>
      </trkpt>
      <trkpt lat="47.32496" lon="-0.58362">
        <ele>85.8</ele>
        <time>2021-07-04T08:28:28Z</time>
      </trkpt>
      <trkpt lat="47.32503" lon="-0.5836">
        <ele>86.2</ele>
        <time>2021-07-04T08:28:29Z</time>
      </trkpt>
      <trkpt lat="47.3251" lon="-0.58359">
        <ele>86.2</ele>
        <time>2021-07-04T08:28:30Z</time>
      </trkpt>
      <trkpt lat="47.32523" lon="-0.58356">
        <ele>86.6</ele>
        <time>2021-07-04T08:28:32Z</time>
      </trkpt>
      <trkpt lat="47.32536" lon="-0.58351">
        <ele>87.2</ele>
        <time>2021-07-04T08:28:34Z</time>
      </trkpt>
      <trkpt lat="47.32542" lon="-0.58348">
        <ele>87.2</ele>
        <time>2021-07-04T08:28:35Z</time>
      </trkpt>
      <trkpt lat="47.32548" lon="-0.58347">
        <ele>87.2</ele>
        <time>2021-07-04T08:28:36Z</time>
      </trkpt>
      <trkpt lat="47.32559" lon="-0.58343">
        <ele>87.4</ele>
        <time>2021-07-04T08:28:38Z</time>
      </trkpt>
      <trkpt lat="47.32571" lon="-0.58339">
        <ele>87.2</ele>
        <time>2021-07-04T08:28:40Z</time>
      </trkpt>
      <trkpt lat="47.32584" lon="-0.58334">
        <ele>87</ele>
        <time>2021-07-04T08:28:42Z</time>
      </trkpt>
      <trkpt lat="47.32598" lon="-0.5833">
        <ele>86.8</ele>
        <time>2021-07-04T08:28:44Z</time>
      </trkpt>
      <trkpt lat="47.32604" lon="-0.58328">
        <ele>86.6</ele>
        <time>2021-07-04T08:28:45Z</time>
      </trkpt>
      <trkpt lat="47.32611" lon="-0.58327">
        <ele>86.4</ele>
        <time>2021-07-04T08:28:46Z</time>
      </trkpt>
      <trkpt lat="47.32617" lon="-0.58325">
        <ele>86.2</ele>
        <time>2021-07-04T08:28:47Z</time>
      </trkpt>
      <trkpt lat="47.32624" lon="-0.58322">
        <ele>85.6</ele>
        <time>2021-07-04T08:28:48Z</time>
      </trkpt>
      <trkpt lat="47.32636" lon="-0.58317">
        <ele>85.8</ele>
        <time>2021-07-04T08:28:50Z</time>
      </trkpt>
      <trkpt lat="47.32642" lon="-0.58314">
        <ele>86.2</ele>
        <time>2021-07-04T08:28:51Z</time>
      </trkpt>
      <trkpt lat="47.32648" lon="-0.58312">
        <ele>86.4</ele>
        <time>2021-07-04T08:28:52Z</time>
      </trkpt>
      <trkpt lat="47.32657" lon="-0.58309">
        <ele>86.6</ele>
        <time>2021-07-04T08:28:54Z</time>
      </trkpt>
      <trkpt lat="47.32662" lon="-0.58307">
        <ele>86.8</ele>
        <time>2021-07-04T08:28:55Z</time>
      </trkpt>
      <trkpt lat="47.32667" lon="-0.58305">
        <ele>86.8</ele>
        <time>2021-07-04T08:28:56Z</time>
      </trkpt>
      <trkpt lat="47.32677" lon="-0.58301">
        <ele>86.2</ele>
        <time>2021-07-04T08:28:58Z</time>
      </trkpt>
      <trkpt lat="47.32687" lon="-0.58297">
        <ele>86.4</ele>
        <time>2021-07-04T08:29:00Z</time>
      </trkpt>
      <trkpt lat="47.32698" lon="-0.58292">
        <ele>86.8</ele>
        <time>2021-07-04T08:29:02Z</time>
      </trkpt>
      <trkpt lat="47.32709" lon="-0.58288">
        <ele>86.4</ele>
        <time>2021-07-04T08:29:04Z</time>
      </trkpt>
      <trkpt lat="47.32719" lon="-0.58284">
        <ele>86.2</ele>
        <time>2021-07-04T08:29:06Z</time>
      </trkpt>
      <trkpt lat="47.32731" lon="-0.58279">
        <ele>86</ele>
        <time>2021-07-04T08:29:08Z</time>
      </trkpt>
      <trkpt lat="47.32744" lon="-0.58275">
        <ele>85.8</ele>
        <time>2021-07-04T08:29:10Z</time>
      </trkpt>
      <trkpt lat="47.3275" lon="-0.58273">
        <ele>85.6</ele>
        <time>2021-07-04T08:29:11Z</time>
      </trkpt>
      <trkpt lat="47.32757" lon="-0.58271">
        <ele>85.6</ele>
        <time>2021-07-04T08:29:12Z</time>
      </trkpt>
      <trkpt lat="47.3277" lon="-0.58267">
        <ele>85.4</ele>
        <time>2021-07-04T08:29:14Z</time>
      </trkpt>
      <trkpt lat="47.32783" lon="-0.58263">
        <ele>85.4</ele>
        <time>2021-07-04T08:29:16Z</time>
      </trkpt>
      <trkpt lat="47.3279" lon="-0.58261">
        <ele>85</ele>
        <time>2021-07-04T08:29:17Z</time>
      </trkpt>
      <trkpt lat="47.32796" lon="-0.58259">
        <ele>85</ele>
        <time>2021-07-04T08:29:18Z</time>
      </trkpt>
      <trkpt lat="47.3281" lon="-0.58253">
        <ele>84.6</ele>
        <time>2021-07-04T08:29:20Z</time>
      </trkpt>
      <trkpt lat="47.32822" lon="-0.58249">
        <ele>84.8</ele>
        <time>2021-07-04T08:29:22Z</time>
      </trkpt>
      <trkpt lat="47.32828" lon="-0.58246">
        <ele>86</ele>
        <time>2021-07-04T08:29:24Z</time>
      </trkpt>
      <trkpt lat="47.32829" lon="-0.58247">
        <ele>86.4</ele>
        <time>2021-07-04T08:29:25Z</time>
      </trkpt>
      <trkpt lat="47.32828" lon="-0.58247">
        <ele>86.6</ele>
        <time>2021-07-04T08:29:26Z</time>
      </trkpt>
      <trkpt lat="47.32841" lon="-0.58239">
        <ele>87</ele>
        <time>2021-07-04T08:31:02Z</time>
      </trkpt>
      <trkpt lat="47.32842" lon="-0.58236">
        <ele>87</ele>
        <time>2021-07-04T08:31:03Z</time>
      </trkpt>
      <trkpt lat="47.32843" lon="-0.58232">
        <ele>87</ele>
        <time>2021-07-04T08:31:04Z</time>
      </trkpt>
      <trkpt lat="47.32841" lon="-0.58223">
        <ele>86.8</ele>
        <time>2021-07-04T08:31:06Z</time>
      </trkpt>
      <trkpt lat="47.32839" lon="-0.58212">
        <ele>85.8</ele>
        <time>2021-07-04T08:31:08Z</time>
      </trkpt>
      <trkpt lat="47.32838" lon="-0.58201">
        <ele>85</ele>
        <time>2021-07-04T08:31:10Z</time>
      </trkpt>
      <trkpt lat="47.32837" lon="-0.58189">
        <ele>84</ele>
        <time>2021-07-04T08:31:12Z</time>
      </trkpt>
      <trkpt lat="47.32836" lon="-0.58182">
        <ele>84.2</ele>
        <time>2021-07-04T08:31:13Z</time>
      </trkpt>
      <trkpt lat="47.32835" lon="-0.58175">
        <ele>84.2</ele>
        <time>2021-07-04T08:31:14Z</time>
      </trkpt>
      <trkpt lat="47.32832" lon="-0.58157">
        <ele>83.6</ele>
        <time>2021-07-04T08:31:16Z</time>
      </trkpt>
      <trkpt lat="47.32827" lon="-0.58138">
        <ele>83.6</ele>
        <time>2021-07-04T08:31:18Z</time>
      </trkpt>
      <trkpt lat="47.32825" lon="-0.5813">
        <ele>83.4</ele>
        <time>2021-07-04T08:31:19Z</time>
      </trkpt>
      <trkpt lat="47.32823" lon="-0.5812">
        <ele>83.2</ele>
        <time>2021-07-04T08:31:20Z</time>
      </trkpt>
      <trkpt lat="47.32819" lon="-0.58101">
        <ele>82.6</ele>
        <time>2021-07-04T08:31:22Z</time>
      </trkpt>
      <trkpt lat="47.32818" lon="-0.58092">
        <ele>82.2</ele>
        <time>2021-07-04T08:31:23Z</time>
      </trkpt>
      <trkpt lat="47.32816" lon="-0.58083">
        <ele>81.8</ele>
        <time>2021-07-04T08:31:24Z</time>
      </trkpt>
      <trkpt lat="47.32813" lon="-0.58064">
        <ele>81.6</ele>
        <time>2021-07-04T08:31:26Z</time>
      </trkpt>
      <trkpt lat="47.32811" lon="-0.58054">
        <ele>81</ele>
        <time>2021-07-04T08:31:27Z</time>
      </trkpt>
      <trkpt lat="47.3281" lon="-0.58044">
        <ele>80.8</ele>
        <time>2021-07-04T08:31:28Z</time>
      </trkpt>
      <trkpt lat="47.32808" lon="-0.58024">
        <ele>80</ele>
        <time>2021-07-04T08:31:30Z</time>
      </trkpt>
      <trkpt lat="47.32807" lon="-0.58004">
        <ele>79</ele>
        <time>2021-07-04T08:31:32Z</time>
      </trkpt>
      <trkpt lat="47.32808" lon="-0.57994">
        <ele>78.6</ele>
        <time>2021-07-04T08:31:33Z</time>
      </trkpt>
      <trkpt lat="47.32809" lon="-0.57983">
        <ele>78</ele>
        <time>2021-07-04T08:31:34Z</time>
      </trkpt>
      <trkpt lat="47.32809" lon="-0.57972">
        <ele>77.6</ele>
        <time>2021-07-04T08:31:35Z</time>
      </trkpt>
      <trkpt lat="47.32811" lon="-0.5796">
        <ele>77.2</ele>
        <time>2021-07-04T08:31:36Z</time>
      </trkpt>
      <trkpt lat="47.32812" lon="-0.57948">
        <ele>76.8</ele>
        <time>2021-07-04T08:31:37Z</time>
      </trkpt>
      <trkpt lat="47.32813" lon="-0.57937">
        <ele>76</ele>
        <time>2021-07-04T08:31:38Z</time>
      </trkpt>
      <trkpt lat="47.32816" lon="-0.57915">
        <ele>75.4</ele>
        <time>2021-07-04T08:31:40Z</time>
      </trkpt>
      <trkpt lat="47.32818" lon="-0.57893">
        <ele>75</ele>
        <time>2021-07-04T08:31:42Z</time>
      </trkpt>
      <trkpt lat="47.32821" lon="-0.5787">
        <ele>75</ele>
        <time>2021-07-04T08:31:44Z</time>
      </trkpt>
      <trkpt lat="47.32822" lon="-0.5786">
        <ele>74.8</ele>
        <time>2021-07-04T08:31:45Z</time>
      </trkpt>
      <trkpt lat="47.32823" lon="-0.57849">
        <ele>74.2</ele>
        <time>2021-07-04T08:31:46Z</time>
      </trkpt>
      <trkpt lat="47.32829" lon="-0.57831">
        <ele>73.6</ele>
        <time>2021-07-04T08:31:48Z</time>
      </trkpt>
      <trkpt lat="47.32833" lon="-0.57823">
        <ele>73.8</ele>
        <time>2021-07-04T08:31:49Z</time>
      </trkpt>
      <trkpt lat="47.32837" lon="-0.57814">
        <ele>74</ele>
        <time>2021-07-04T08:31:50Z</time>
      </trkpt>
      <trkpt lat="47.32845" lon="-0.57799">
        <ele>74.2</ele>
        <time>2021-07-04T08:31:52Z</time>
      </trkpt>
      <trkpt lat="47.32849" lon="-0.57791">
        <ele>74</ele>
        <time>2021-07-04T08:31:53Z</time>
      </trkpt>
      <trkpt lat="47.32852" lon="-0.57783">
        <ele>73.8</ele>
        <time>2021-07-04T08:31:54Z</time>
      </trkpt>
      <trkpt lat="47.3286" lon="-0.57767">
        <ele>73.8</ele>
        <time>2021-07-04T08:31:56Z</time>
      </trkpt>
      <trkpt lat="47.32867" lon="-0.57751">
        <ele>74</ele>
        <time>2021-07-04T08:31:58Z</time>
      </trkpt>
      <trkpt lat="47.32873" lon="-0.57735">
        <ele>74</ele>
        <time>2021-07-04T08:32:00Z</time>
      </trkpt>
      <trkpt lat="47.32875" lon="-0.57727">
        <ele>74</ele>
        <time>2021-07-04T08:32:01Z</time>
      </trkpt>
      <trkpt lat="47.32876" lon="-0.57718">
        <ele>74.2</ele>
        <time>2021-07-04T08:32:02Z</time>
      </trkpt>
      <trkpt lat="47.32874" lon="-0.57709">
        <ele>74.4</ele>
        <time>2021-07-04T08:32:03Z</time>
      </trkpt>
      <trkpt lat="47.3287" lon="-0.57703">
        <ele>74.8</ele>
        <time>2021-07-04T08:32:04Z</time>
      </trkpt>
      <trkpt lat="47.32862" lon="-0.57694">
        <ele>75.6</ele>
        <time>2021-07-04T08:32:06Z</time>
      </trkpt>
      <trkpt lat="47.32858" lon="-0.5769">
        <ele>75.8</ele>
        <time>2021-07-04T08:32:07Z</time>
      </trkpt>
      <trkpt lat="47.32854" lon="-0.57686">
        <ele>76.4</ele>
        <time>2021-07-04T08:32:08Z</time>
      </trkpt>
      <trkpt lat="47.32845" lon="-0.57678">
        <ele>77.2</ele>
        <time>2021-07-04T08:32:10Z</time>
      </trkpt>
      <trkpt lat="47.32841" lon="-0.57674">
        <ele>77.2</ele>
        <time>2021-07-04T08:32:11Z</time>
      </trkpt>
      <trkpt lat="47.32837" lon="-0.5767">
        <ele>77.2</ele>
        <time>2021-07-04T08:32:12Z</time>
      </trkpt>
      <trkpt lat="47.32829" lon="-0.57662">
        <ele>77.6</ele>
        <time>2021-07-04T08:32:14Z</time>
      </trkpt>
      <trkpt lat="47.32821" lon="-0.57651">
        <ele>78</ele>
        <time>2021-07-04T08:32:16Z</time>
      </trkpt>
      <trkpt lat="47.32818" lon="-0.57645">
        <ele>78.2</ele>
        <time>2021-07-04T08:32:17Z</time>
      </trkpt>
      <trkpt lat="47.32816" lon="-0.57639">
        <ele>78.4</ele>
        <time>2021-07-04T08:32:18Z</time>
      </trkpt>
      <trkpt lat="47.32813" lon="-0.57624">
        <ele>78</ele>
        <time>2021-07-04T08:32:20Z</time>
      </trkpt>
      <trkpt lat="47.32813" lon="-0.57608">
        <ele>77.6</ele>
        <time>2021-07-04T08:32:22Z</time>
      </trkpt>
      <trkpt lat="47.32811" lon="-0.5759">
        <ele>77.2</ele>
        <time>2021-07-04T08:32:24Z</time>
      </trkpt>
      <trkpt lat="47.3281" lon="-0.57582">
        <ele>76.8</ele>
        <time>2021-07-04T08:32:25Z</time>
      </trkpt>
      <trkpt lat="47.32809" lon="-0.57573">
        <ele>76.8</ele>
        <time>2021-07-04T08:32:26Z</time>
      </trkpt>
      <trkpt lat="47.32805" lon="-0.57555">
        <ele>77</ele>
        <time>2021-07-04T08:32:28Z</time>
      </trkpt>
      <trkpt lat="47.32802" lon="-0.57538">
        <ele>76.2</ele>
        <time>2021-07-04T08:32:30Z</time>
      </trkpt>
      <trkpt lat="47.32799" lon="-0.57521">
        <ele>76.6</ele>
        <time>2021-07-04T08:32:32Z</time>
      </trkpt>
      <trkpt lat="47.32795" lon="-0.57504">
        <ele>77</ele>
        <time>2021-07-04T08:32:34Z</time>
      </trkpt>
      <trkpt lat="47.32791" lon="-0.57488">
        <ele>77.4</ele>
        <time>2021-07-04T08:32:36Z</time>
      </trkpt>
      <trkpt lat="47.32788" lon="-0.57474">
        <ele>77.8</ele>
        <time>2021-07-04T08:32:38Z</time>
      </trkpt>
      <trkpt lat="47.32786" lon="-0.57467">
        <ele>77.8</ele>
        <time>2021-07-04T08:32:39Z</time>
      </trkpt>
      <trkpt lat="47.32786" lon="-0.57459">
        <ele>78</ele>
        <time>2021-07-04T08:32:40Z</time>
      </trkpt>
      <trkpt lat="47.32783" lon="-0.57446">
        <ele>79.2</ele>
        <time>2021-07-04T08:32:42Z</time>
      </trkpt>
      <trkpt lat="47.32782" lon="-0.57432">
        <ele>80.8</ele>
        <time>2021-07-04T08:32:44Z</time>
      </trkpt>
      <trkpt lat="47.32781" lon="-0.57419">
        <ele>81</ele>
        <time>2021-07-04T08:32:46Z</time>
      </trkpt>
      <trkpt lat="47.32779" lon="-0.57405">
        <ele>81.8</ele>
        <time>2021-07-04T08:32:48Z</time>
      </trkpt>
      <trkpt lat="47.32779" lon="-0.57398">
        <ele>82.4</ele>
        <time>2021-07-04T08:32:49Z</time>
      </trkpt>
      <trkpt lat="47.32779" lon="-0.57392">
        <ele>82.2</ele>
        <time>2021-07-04T08:32:50Z</time>
      </trkpt>
      <trkpt lat="47.32777" lon="-0.5738">
        <ele>82.6</ele>
        <time>2021-07-04T08:32:52Z</time>
      </trkpt>
      <trkpt lat="47.32777" lon="-0.57375">
        <ele>83.2</ele>
        <time>2021-07-04T08:32:53Z</time>
      </trkpt>
      <trkpt lat="47.32775" lon="-0.57369">
        <ele>83.4</ele>
        <time>2021-07-04T08:32:54Z</time>
      </trkpt>
      <trkpt lat="47.32774" lon="-0.57364">
        <ele>83.4</ele>
        <time>2021-07-04T08:32:55Z</time>
      </trkpt>
      <trkpt lat="47.32771" lon="-0.57361">
        <ele>83.6</ele>
        <time>2021-07-04T08:32:56Z</time>
      </trkpt>
      <trkpt lat="47.32766" lon="-0.57356">
        <ele>84.2</ele>
        <time>2021-07-04T08:32:58Z</time>
      </trkpt>
      <trkpt lat="47.32762" lon="-0.57355">
        <ele>84.2</ele>
        <time>2021-07-04T08:32:59Z</time>
      </trkpt>
      <trkpt lat="47.32758" lon="-0.57352">
        <ele>84.2</ele>
        <time>2021-07-04T08:33:00Z</time>
      </trkpt>
      <trkpt lat="47.32751" lon="-0.57348">
        <ele>84.4</ele>
        <time>2021-07-04T08:33:02Z</time>
      </trkpt>
      <trkpt lat="47.32743" lon="-0.57345">
        <ele>84.6</ele>
        <time>2021-07-04T08:33:04Z</time>
      </trkpt>
      <trkpt lat="47.32735" lon="-0.57342">
        <ele>84.6</ele>
        <time>2021-07-04T08:33:06Z</time>
      </trkpt>
      <trkpt lat="47.32727" lon="-0.57339">
        <ele>85.4</ele>
        <time>2021-07-04T08:33:08Z</time>
      </trkpt>
      <trkpt lat="47.32718" lon="-0.57335">
        <ele>85.6</ele>
        <time>2021-07-04T08:33:10Z</time>
      </trkpt>
      <trkpt lat="47.32709" lon="-0.5733">
        <ele>85.6</ele>
        <time>2021-07-04T08:33:12Z</time>
      </trkpt>
      <trkpt lat="47.32705" lon="-0.57328">
        <ele>85.8</ele>
        <time>2021-07-04T08:33:13Z</time>
      </trkpt>
      <trkpt lat="47.32701" lon="-0.57326">
        <ele>85.6</ele>
        <time>2021-07-04T08:33:14Z</time>
      </trkpt>
      <trkpt lat="47.32697" lon="-0.57323">
        <ele>86</ele>
        <time>2021-07-04T08:33:15Z</time>
      </trkpt>
      <trkpt lat="47.32693" lon="-0.5732">
        <ele>86</ele>
        <time>2021-07-04T08:33:16Z</time>
      </trkpt>
      <trkpt lat="47.3269" lon="-0.57316">
        <ele>86.4</ele>
        <time>2021-07-04T08:33:17Z</time>
      </trkpt>
      <trkpt lat="47.32686" lon="-0.57312">
        <ele>86.6</ele>
        <time>2021-07-04T08:33:18Z</time>
      </trkpt>
      <trkpt lat="47.32683" lon="-0.57306">
        <ele>87</ele>
        <time>2021-07-04T08:33:19Z</time>
      </trkpt>
      <trkpt lat="47.3268" lon="-0.57301">
        <ele>87</ele>
        <time>2021-07-04T08:33:20Z</time>
      </trkpt>
      <trkpt lat="47.32676" lon="-0.5729">
        <ele>87.4</ele>
        <time>2021-07-04T08:33:22Z</time>
      </trkpt>
      <trkpt lat="47.32674" lon="-0.57284">
        <ele>87.6</ele>
        <time>2021-07-04T08:33:23Z</time>
      </trkpt>
      <trkpt lat="47.32671" lon="-0.57279">
        <ele>87.4</ele>
        <time>2021-07-04T08:33:24Z</time>
      </trkpt>
      <trkpt lat="47.32666" lon="-0.57268">
        <ele>87.6</ele>
        <time>2021-07-04T08:33:26Z</time>
      </trkpt>
      <trkpt lat="47.32662" lon="-0.57257">
        <ele>88</ele>
        <time>2021-07-04T08:33:28Z</time>
      </trkpt>
      <trkpt lat="47.3266" lon="-0.57252">
        <ele>88</ele>
        <time>2021-07-04T08:33:29Z</time>
      </trkpt>
      <trkpt lat="47.32657" lon="-0.57247">
        <ele>88.2</ele>
        <time>2021-07-04T08:33:30Z</time>
      </trkpt>
      <trkpt lat="47.32653" lon="-0.57236">
        <ele>88.2</ele>
        <time>2021-07-04T08:33:32Z</time>
      </trkpt>
      <trkpt lat="47.32649" lon="-0.57226">
        <ele>88.4</ele>
        <time>2021-07-04T08:33:34Z</time>
      </trkpt>
      <trkpt lat="47.32644" lon="-0.57215">
        <ele>88.6</ele>
        <time>2021-07-04T08:33:36Z</time>
      </trkpt>
      <trkpt lat="47.32642" lon="-0.5721">
        <ele>88.6</ele>
        <time>2021-07-04T08:33:37Z</time>
      </trkpt>
      <trkpt lat="47.3264" lon="-0.57204">
        <ele>88.6</ele>
        <time>2021-07-04T08:33:38Z</time>
      </trkpt>
      <trkpt lat="47.32638" lon="-0.57199">
        <ele>88.8</ele>
        <time>2021-07-04T08:33:39Z</time>
      </trkpt>
      <trkpt lat="47.32635" lon="-0.57193">
        <ele>88.8</ele>
        <time>2021-07-04T08:33:40Z</time>
      </trkpt>
      <trkpt lat="47.32631" lon="-0.57181">
        <ele>89</ele>
        <time>2021-07-04T08:33:42Z</time>
      </trkpt>
      <trkpt lat="47.32626" lon="-0.57169">
        <ele>89.2</ele>
        <time>2021-07-04T08:33:44Z</time>
      </trkpt>
      <trkpt lat="47.32624" lon="-0.57162">
        <ele>89.4</ele>
        <time>2021-07-04T08:33:45Z</time>
      </trkpt>
      <trkpt lat="47.32622" lon="-0.57156">
        <ele>89.4</ele>
        <time>2021-07-04T08:33:46Z</time>
      </trkpt>
      <trkpt lat="47.3262" lon="-0.57141">
        <ele>89.2</ele>
        <time>2021-07-04T08:33:48Z</time>
      </trkpt>
      <trkpt lat="47.32619" lon="-0.57133">
        <ele>89.2</ele>
        <time>2021-07-04T08:33:49Z</time>
      </trkpt>
      <trkpt lat="47.32618" lon="-0.57126">
        <ele>88.8</ele>
        <time>2021-07-04T08:33:50Z</time>
      </trkpt>
      <trkpt lat="47.32616" lon="-0.57111">
        <ele>88.6</ele>
        <time>2021-07-04T08:33:52Z</time>
      </trkpt>
      <trkpt lat="47.32614" lon="-0.57103">
        <ele>88.6</ele>
        <time>2021-07-04T08:33:53Z</time>
      </trkpt>
      <trkpt lat="47.32613" lon="-0.57096">
        <ele>88.4</ele>
        <time>2021-07-04T08:33:54Z</time>
      </trkpt>
      <trkpt lat="47.32611" lon="-0.57088">
        <ele>88.4</ele>
        <time>2021-07-04T08:33:55Z</time>
      </trkpt>
      <trkpt lat="47.32609" lon="-0.57081">
        <ele>88.2</ele>
        <time>2021-07-04T08:33:56Z</time>
      </trkpt>
      <trkpt lat="47.32605" lon="-0.57066">
        <ele>87.8</ele>
        <time>2021-07-04T08:33:58Z</time>
      </trkpt>
      <trkpt lat="47.32602" lon="-0.57059">
        <ele>87.8</ele>
        <time>2021-07-04T08:33:59Z</time>
      </trkpt>
      <trkpt lat="47.326" lon="-0.57053">
        <ele>87.6</ele>
        <time>2021-07-04T08:34:00Z</time>
      </trkpt>
      <trkpt lat="47.32596" lon="-0.57045">
        <ele>87.8</ele>
        <time>2021-07-04T08:34:02Z</time>
      </trkpt>
      <trkpt lat="47.32593" lon="-0.57045">
        <ele>87.8</ele>
        <time>2021-07-04T08:34:03Z</time>
      </trkpt>
      <trkpt lat="47.3259" lon="-0.57046">
        <ele>88</ele>
        <time>2021-07-04T08:34:04Z</time>
      </trkpt>
      <trkpt lat="47.32587" lon="-0.57047">
        <ele>87.8</ele>
        <time>2021-07-04T08:34:05Z</time>
      </trkpt>
      <trkpt lat="47.32585" lon="-0.57051">
        <ele>87.8</ele>
        <time>2021-07-04T08:34:06Z</time>
      </trkpt>
      <trkpt lat="47.32577" lon="-0.5705">
        <ele>87.8</ele>
        <time>2021-07-04T08:34:08Z</time>
      </trkpt>
      <trkpt lat="47.32568" lon="-0.57049">
        <ele>87.4</ele>
        <time>2021-07-04T08:34:10Z</time>
      </trkpt>
      <trkpt lat="47.3256" lon="-0.57052">
        <ele>87.6</ele>
        <time>2021-07-04T08:34:12Z</time>
      </trkpt>
      <trkpt lat="47.32555" lon="-0.57054">
        <ele>88</ele>
        <time>2021-07-04T08:34:13Z</time>
      </trkpt>
      <trkpt lat="47.32551" lon="-0.57056">
        <ele>88.2</ele>
        <time>2021-07-04T08:34:14Z</time>
      </trkpt>
      <trkpt lat="47.32543" lon="-0.57061">
        <ele>88.8</ele>
        <time>2021-07-04T08:34:16Z</time>
      </trkpt>
      <trkpt lat="47.32535" lon="-0.57065">
        <ele>88.6</ele>
        <time>2021-07-04T08:34:18Z</time>
      </trkpt>
      <trkpt lat="47.32531" lon="-0.57067">
        <ele>88.6</ele>
        <time>2021-07-04T08:34:19Z</time>
      </trkpt>
      <trkpt lat="47.32526" lon="-0.57069">
        <ele>88.6</ele>
        <time>2021-07-04T08:34:20Z</time>
      </trkpt>
      <trkpt lat="47.32518" lon="-0.57075">
        <ele>88.8</ele>
        <time>2021-07-04T08:34:22Z</time>
      </trkpt>
      <trkpt lat="47.32509" lon="-0.57079">
        <ele>89.2</ele>
        <time>2021-07-04T08:34:24Z</time>
      </trkpt>
      <trkpt lat="47.32501" lon="-0.57083">
        <ele>89.6</ele>
        <time>2021-07-04T08:34:26Z</time>
      </trkpt>
      <trkpt lat="47.32492" lon="-0.57089">
        <ele>89.6</ele>
        <time>2021-07-04T08:34:28Z</time>
      </trkpt>
      <trkpt lat="47.32483" lon="-0.57094">
        <ele>89.6</ele>
        <time>2021-07-04T08:34:30Z</time>
      </trkpt>
      <trkpt lat="47.32474" lon="-0.57099">
        <ele>89.4</ele>
        <time>2021-07-04T08:34:32Z</time>
      </trkpt>
      <trkpt lat="47.32465" lon="-0.57105">
        <ele>89.6</ele>
        <time>2021-07-04T08:34:34Z</time>
      </trkpt>
      <trkpt lat="47.32456" lon="-0.5711">
        <ele>89.8</ele>
        <time>2021-07-04T08:34:36Z</time>
      </trkpt>
      <trkpt lat="47.32446" lon="-0.57114">
        <ele>89.6</ele>
        <time>2021-07-04T08:34:38Z</time>
      </trkpt>
      <trkpt lat="47.32435" lon="-0.57117">
        <ele>89.6</ele>
        <time>2021-07-04T08:34:40Z</time>
      </trkpt>
      <trkpt lat="47.32433" lon="-0.57116">
        <ele>89.6</ele>
        <time>2021-07-04T08:34:41Z</time>
      </trkpt>
      <trkpt lat="47.32427" lon="-0.57116">
        <ele>89.8</ele>
        <time>2021-07-04T08:34:42Z</time>
      </trkpt>
      <trkpt lat="47.32418" lon="-0.57114">
        <ele>89.4</ele>
        <time>2021-07-04T08:34:44Z</time>
      </trkpt>
      <trkpt lat="47.32412" lon="-0.57113">
        <ele>89.4</ele>
        <time>2021-07-04T08:34:45Z</time>
      </trkpt>
      <trkpt lat="47.32407" lon="-0.5711">
        <ele>89.2</ele>
        <time>2021-07-04T08:34:46Z</time>
      </trkpt>
      <trkpt lat="47.32395" lon="-0.57106">
        <ele>88.8</ele>
        <time>2021-07-04T08:34:48Z</time>
      </trkpt>
      <trkpt lat="47.32383" lon="-0.571">
        <ele>88.2</ele>
        <time>2021-07-04T08:34:50Z</time>
      </trkpt>
      <trkpt lat="47.32378" lon="-0.57095">
        <ele>87.6</ele>
        <time>2021-07-04T08:34:51Z</time>
      </trkpt>
      <trkpt lat="47.32373" lon="-0.57089">
        <ele>87.4</ele>
        <time>2021-07-04T08:34:52Z</time>
      </trkpt>
      <trkpt lat="47.32367" lon="-0.57084">
        <ele>87.4</ele>
        <time>2021-07-04T08:34:53Z</time>
      </trkpt>
      <trkpt lat="47.32362" lon="-0.5708">
        <ele>87.4</ele>
        <time>2021-07-04T08:34:54Z</time>
      </trkpt>
      <trkpt lat="47.32351" lon="-0.57071">
        <ele>87.6</ele>
        <time>2021-07-04T08:34:56Z</time>
      </trkpt>
      <trkpt lat="47.32342" lon="-0.57061">
        <ele>87.4</ele>
        <time>2021-07-04T08:34:58Z</time>
      </trkpt>
      <trkpt lat="47.32336" lon="-0.57057">
        <ele>87.6</ele>
        <time>2021-07-04T08:34:59Z</time>
      </trkpt>
      <trkpt lat="47.32331" lon="-0.57053">
        <ele>88</ele>
        <time>2021-07-04T08:35:00Z</time>
      </trkpt>
      <trkpt lat="47.32321" lon="-0.57044">
        <ele>88.2</ele>
        <time>2021-07-04T08:35:02Z</time>
      </trkpt>
      <trkpt lat="47.3231" lon="-0.57035">
        <ele>88</ele>
        <time>2021-07-04T08:35:04Z</time>
      </trkpt>
      <trkpt lat="47.323" lon="-0.57025">
        <ele>88</ele>
        <time>2021-07-04T08:35:06Z</time>
      </trkpt>
      <trkpt lat="47.3229" lon="-0.57015">
        <ele>88.2</ele>
        <time>2021-07-04T08:35:08Z</time>
      </trkpt>
      <trkpt lat="47.32281" lon="-0.57004">
        <ele>88.2</ele>
        <time>2021-07-04T08:35:10Z</time>
      </trkpt>
      <trkpt lat="47.32275" lon="-0.57">
        <ele>88</ele>
        <time>2021-07-04T08:35:11Z</time>
      </trkpt>
      <trkpt lat="47.3227" lon="-0.56995">
        <ele>87.6</ele>
        <time>2021-07-04T08:35:12Z</time>
      </trkpt>
      <trkpt lat="47.32259" lon="-0.56985">
        <ele>87.2</ele>
        <time>2021-07-04T08:35:14Z</time>
      </trkpt>
      <trkpt lat="47.32249" lon="-0.56976">
        <ele>87.6</ele>
        <time>2021-07-04T08:35:16Z</time>
      </trkpt>
      <trkpt lat="47.3224" lon="-0.56967">
        <ele>87.6</ele>
        <time>2021-07-04T08:35:18Z</time>
      </trkpt>
      <trkpt lat="47.3223" lon="-0.56958">
        <ele>87.4</ele>
        <time>2021-07-04T08:35:20Z</time>
      </trkpt>
      <trkpt lat="47.32219" lon="-0.5695">
        <ele>87</ele>
        <time>2021-07-04T08:35:22Z</time>
      </trkpt>
      <trkpt lat="47.32213" lon="-0.56947">
        <ele>86.8</ele>
        <time>2021-07-04T08:35:23Z</time>
      </trkpt>
      <trkpt lat="47.32207" lon="-0.56945">
        <ele>86.2</ele>
        <time>2021-07-04T08:35:24Z</time>
      </trkpt>
      <trkpt lat="47.32195" lon="-0.56936">
        <ele>85.4</ele>
        <time>2021-07-04T08:35:26Z</time>
      </trkpt>
      <trkpt lat="47.3219" lon="-0.56932">
        <ele>85.4</ele>
        <time>2021-07-04T08:35:27Z</time>
      </trkpt>
      <trkpt lat="47.32185" lon="-0.56927">
        <ele>85.8</ele>
        <time>2021-07-04T08:35:28Z</time>
      </trkpt>
      <trkpt lat="47.32177" lon="-0.56918">
        <ele>86</ele>
        <time>2021-07-04T08:35:30Z</time>
      </trkpt>
      <trkpt lat="47.32173" lon="-0.56914">
        <ele>85.8</ele>
        <time>2021-07-04T08:35:31Z</time>
      </trkpt>
      <trkpt lat="47.32168" lon="-0.56911">
        <ele>86.2</ele>
        <time>2021-07-04T08:35:32Z</time>
      </trkpt>
      <trkpt lat="47.32164" lon="-0.56907">
        <ele>86.4</ele>
        <time>2021-07-04T08:35:33Z</time>
      </trkpt>
      <trkpt lat="47.32161" lon="-0.56902">
        <ele>86.4</ele>
        <time>2021-07-04T08:35:34Z</time>
      </trkpt>
      <trkpt lat="47.32154" lon="-0.56895">
        <ele>87</ele>
        <time>2021-07-04T08:35:36Z</time>
      </trkpt>
      <trkpt lat="47.3215" lon="-0.56892">
        <ele>87.2</ele>
        <time>2021-07-04T08:35:37Z</time>
      </trkpt>
      <trkpt lat="47.32147" lon="-0.56891">
        <ele>87.4</ele>
        <time>2021-07-04T08:35:38Z</time>
      </trkpt>
      <trkpt lat="47.3214" lon="-0.56886">
        <ele>87.8</ele>
        <time>2021-07-04T08:35:40Z</time>
      </trkpt>
      <trkpt lat="47.32133" lon="-0.56882">
        <ele>88.2</ele>
        <time>2021-07-04T08:35:42Z</time>
      </trkpt>
      <trkpt lat="47.32129" lon="-0.56878">
        <ele>88.4</ele>
        <time>2021-07-04T08:35:43Z</time>
      </trkpt>
      <trkpt lat="47.32125" lon="-0.56874">
        <ele>88.6</ele>
        <time>2021-07-04T08:35:44Z</time>
      </trkpt>
      <trkpt lat="47.32117" lon="-0.56866">
        <ele>88.8</ele>
        <time>2021-07-04T08:35:46Z</time>
      </trkpt>
      <trkpt lat="47.32114" lon="-0.56863">
        <ele>89.2</ele>
        <time>2021-07-04T08:35:47Z</time>
      </trkpt>
      <trkpt lat="47.3211" lon="-0.56858">
        <ele>89.6</ele>
        <time>2021-07-04T08:35:48Z</time>
      </trkpt>
      <trkpt lat="47.32102" lon="-0.5685">
        <ele>90.4</ele>
        <time>2021-07-04T08:35:50Z</time>
      </trkpt>
      <trkpt lat="47.32098" lon="-0.56847">
        <ele>90.6</ele>
        <time>2021-07-04T08:35:51Z</time>
      </trkpt>
      <trkpt lat="47.32094" lon="-0.56844">
        <ele>91.2</ele>
        <time>2021-07-04T08:35:52Z</time>
      </trkpt>
      <trkpt lat="47.32086" lon="-0.56838">
        <ele>91.8</ele>
        <time>2021-07-04T08:35:54Z</time>
      </trkpt>
      <trkpt lat="47.32079" lon="-0.56831">
        <ele>92.2</ele>
        <time>2021-07-04T08:35:56Z</time>
      </trkpt>
      <trkpt lat="47.32074" lon="-0.56825">
        <ele>93</ele>
        <time>2021-07-04T08:35:58Z</time>
      </trkpt>
      <trkpt lat="47.32071" lon="-0.56823">
        <ele>93.2</ele>
        <time>2021-07-04T08:35:59Z</time>
      </trkpt>
      <trkpt lat="47.32068" lon="-0.5682">
        <ele>93.4</ele>
        <time>2021-07-04T08:36:00Z</time>
      </trkpt>
      <trkpt lat="47.32061" lon="-0.56814">
        <ele>93.8</ele>
        <time>2021-07-04T08:36:02Z</time>
      </trkpt>
      <trkpt lat="47.32058" lon="-0.56811">
        <ele>94</ele>
        <time>2021-07-04T08:36:03Z</time>
      </trkpt>
      <trkpt lat="47.32055" lon="-0.56807">
        <ele>94.4</ele>
        <time>2021-07-04T08:36:04Z</time>
      </trkpt>
      <trkpt lat="47.32049" lon="-0.56799">
        <ele>94.8</ele>
        <time>2021-07-04T08:36:06Z</time>
      </trkpt>
      <trkpt lat="47.32044" lon="-0.56793">
        <ele>95.2</ele>
        <time>2021-07-04T08:36:08Z</time>
      </trkpt>
      <trkpt lat="47.3204" lon="-0.56788">
        <ele>95.8</ele>
        <time>2021-07-04T08:36:10Z</time>
      </trkpt>
      <trkpt lat="47.32038" lon="-0.56784">
        <ele>96</ele>
        <time>2021-07-04T08:36:11Z</time>
      </trkpt>
      <trkpt lat="47.32037" lon="-0.56781">
        <ele>96.2</ele>
        <time>2021-07-04T08:36:12Z</time>
      </trkpt>
      <trkpt lat="47.32037" lon="-0.56775">
        <ele>96.4</ele>
        <time>2021-07-04T08:36:14Z</time>
      </trkpt>
      <trkpt lat="47.32038" lon="-0.56769">
        <ele>96.2</ele>
        <time>2021-07-04T08:36:16Z</time>
      </trkpt>
      <trkpt lat="47.32039" lon="-0.56762">
        <ele>96.2</ele>
        <time>2021-07-04T08:36:18Z</time>
      </trkpt>
      <trkpt lat="47.32039" lon="-0.56755">
        <ele>96</ele>
        <time>2021-07-04T08:36:20Z</time>
      </trkpt>
      <trkpt lat="47.3204" lon="-0.56751">
        <ele>96.2</ele>
        <time>2021-07-04T08:36:21Z</time>
      </trkpt>
      <trkpt lat="47.32041" lon="-0.56747">
        <ele>96.2</ele>
        <time>2021-07-04T08:36:22Z</time>
      </trkpt>
      <trkpt lat="47.32045" lon="-0.56738">
        <ele>96</ele>
        <time>2021-07-04T08:36:24Z</time>
      </trkpt>
      <trkpt lat="47.32048" lon="-0.56735">
        <ele>96</ele>
        <time>2021-07-04T08:36:25Z</time>
      </trkpt>
      <trkpt lat="47.3205" lon="-0.56731">
        <ele>95.8</ele>
        <time>2021-07-04T08:36:26Z</time>
      </trkpt>
      <trkpt lat="47.32053" lon="-0.56723">
        <ele>95.6</ele>
        <time>2021-07-04T08:36:28Z</time>
      </trkpt>
      <trkpt lat="47.32055" lon="-0.56719">
        <ele>95.4</ele>
        <time>2021-07-04T08:36:29Z</time>
      </trkpt>
      <trkpt lat="47.32057" lon="-0.56717">
        <ele>95.4</ele>
        <time>2021-07-04T08:36:30Z</time>
      </trkpt>
      <trkpt lat="47.32059" lon="-0.56714">
        <ele>95.2</ele>
        <time>2021-07-04T08:36:31Z</time>
      </trkpt>
      <trkpt lat="47.32059" lon="-0.5671">
        <ele>95.4</ele>
        <time>2021-07-04T08:36:32Z</time>
      </trkpt>
      <trkpt lat="47.32063" lon="-0.56703">
        <ele>95.2</ele>
        <time>2021-07-04T08:36:34Z</time>
      </trkpt>
      <trkpt lat="47.32065" lon="-0.56699">
        <ele>95</ele>
        <time>2021-07-04T08:36:35Z</time>
      </trkpt>
      <trkpt lat="47.32066" lon="-0.56696">
        <ele>95</ele>
        <time>2021-07-04T08:36:36Z</time>
      </trkpt>
      <trkpt lat="47.32069" lon="-0.56687">
        <ele>95</ele>
        <time>2021-07-04T08:36:38Z</time>
      </trkpt>
      <trkpt lat="47.3207" lon="-0.56684">
        <ele>95</ele>
        <time>2021-07-04T08:36:39Z</time>
      </trkpt>
      <trkpt lat="47.32072" lon="-0.56681">
        <ele>95</ele>
        <time>2021-07-04T08:36:40Z</time>
      </trkpt>
      <trkpt lat="47.32078" lon="-0.56674">
        <ele>95.4</ele>
        <time>2021-07-04T08:36:42Z</time>
      </trkpt>
      <trkpt lat="47.32078" lon="-0.56659">
        <ele>95.4</ele>
        <time>2021-07-04T08:36:44Z</time>
      </trkpt>
      <trkpt lat="47.32077" lon="-0.56637">
        <ele>95.2</ele>
        <time>2021-07-04T08:36:46Z</time>
      </trkpt>
      <trkpt lat="47.32075" lon="-0.56619">
        <ele>95.6</ele>
        <time>2021-07-04T08:36:48Z</time>
      </trkpt>
      <trkpt lat="47.32073" lon="-0.5661">
        <ele>96</ele>
        <time>2021-07-04T08:36:49Z</time>
      </trkpt>
      <trkpt lat="47.3207" lon="-0.56591">
        <ele>96.2</ele>
        <time>2021-07-04T08:36:50Z</time>
      </trkpt>
      <trkpt lat="47.32067" lon="-0.56571">
        <ele>95.4</ele>
        <time>2021-07-04T08:37:09Z</time>
      </trkpt>
      <trkpt lat="47.32065" lon="-0.56551">
        <ele>95</ele>
        <time>2021-07-04T08:37:11Z</time>
      </trkpt>
      <trkpt lat="47.32064" lon="-0.56531">
        <ele>94.8</ele>
        <time>2021-07-04T08:37:13Z</time>
      </trkpt>
      <trkpt lat="47.32064" lon="-0.56519">
        <ele>95.2</ele>
        <time>2021-07-04T08:37:14Z</time>
      </trkpt>
      <trkpt lat="47.32064" lon="-0.56508">
        <ele>95.4</ele>
        <time>2021-07-04T08:37:15Z</time>
      </trkpt>
      <trkpt lat="47.32065" lon="-0.56489">
        <ele>95</ele>
        <time>2021-07-04T08:37:17Z</time>
      </trkpt>
      <trkpt lat="47.32067" lon="-0.56473">
        <ele>94.8</ele>
        <time>2021-07-04T08:37:19Z</time>
      </trkpt>
      <trkpt lat="47.32067" lon="-0.56466">
        <ele>94.6</ele>
        <time>2021-07-04T08:37:20Z</time>
      </trkpt>
      <trkpt lat="47.32068" lon="-0.5646">
        <ele>94.6</ele>
        <time>2021-07-04T08:37:21Z</time>
      </trkpt>
      <trkpt lat="47.32067" lon="-0.56447">
        <ele>94.6</ele>
        <time>2021-07-04T08:37:23Z</time>
      </trkpt>
      <trkpt lat="47.32068" lon="-0.56441">
        <ele>95.2</ele>
        <time>2021-07-04T08:37:25Z</time>
      </trkpt>
      <trkpt lat="47.32069" lon="-0.56438">
        <ele>95.2</ele>
        <time>2021-07-04T08:37:26Z</time>
      </trkpt>
      <trkpt lat="47.32069" lon="-0.56434">
        <ele>95.2</ele>
        <time>2021-07-04T08:37:27Z</time>
      </trkpt>
      <trkpt lat="47.32069" lon="-0.56422">
        <ele>94.6</ele>
        <time>2021-07-04T08:37:29Z</time>
      </trkpt>
      <trkpt lat="47.3207" lon="-0.56415">
        <ele>94.2</ele>
        <time>2021-07-04T08:37:30Z</time>
      </trkpt>
      <trkpt lat="47.32069" lon="-0.56407">
        <ele>93.8</ele>
        <time>2021-07-04T08:37:31Z</time>
      </trkpt>
      <trkpt lat="47.3207" lon="-0.56398">
        <ele>93</ele>
        <time>2021-07-04T08:37:32Z</time>
      </trkpt>
      <trkpt lat="47.32071" lon="-0.56388">
        <ele>92.4</ele>
        <time>2021-07-04T08:37:33Z</time>
      </trkpt>
      <trkpt lat="47.32071" lon="-0.56378">
        <ele>92.2</ele>
        <time>2021-07-04T08:37:34Z</time>
      </trkpt>
      <trkpt lat="47.32071" lon="-0.56369">
        <ele>91.6</ele>
        <time>2021-07-04T08:37:35Z</time>
      </trkpt>
      <trkpt lat="47.32072" lon="-0.56349">
        <ele>90.4</ele>
        <time>2021-07-04T08:37:37Z</time>
      </trkpt>
      <trkpt lat="47.32073" lon="-0.56338">
        <ele>89.8</ele>
        <time>2021-07-04T08:37:38Z</time>
      </trkpt>
      <trkpt lat="47.32074" lon="-0.56327">
        <ele>89.2</ele>
        <time>2021-07-04T08:37:39Z</time>
      </trkpt>
      <trkpt lat="47.32074" lon="-0.56308">
        <ele>88.6</ele>
        <time>2021-07-04T08:37:41Z</time>
      </trkpt>
      <trkpt lat="47.32076" lon="-0.56288">
        <ele>88</ele>
        <time>2021-07-04T08:37:43Z</time>
      </trkpt>
      <trkpt lat="47.32078" lon="-0.5627">
        <ele>88.2</ele>
        <time>2021-07-04T08:37:45Z</time>
      </trkpt>
      <trkpt lat="47.3208" lon="-0.56252">
        <ele>87.8</ele>
        <time>2021-07-04T08:37:47Z</time>
      </trkpt>
      <trkpt lat="47.3208" lon="-0.56243">
        <ele>87.8</ele>
        <time>2021-07-04T08:37:48Z</time>
      </trkpt>
      <trkpt lat="47.32081" lon="-0.56234">
        <ele>87.8</ele>
        <time>2021-07-04T08:37:49Z</time>
      </trkpt>
      <trkpt lat="47.32083" lon="-0.56216">
        <ele>88</ele>
        <time>2021-07-04T08:37:51Z</time>
      </trkpt>
      <trkpt lat="47.32084" lon="-0.56201">
        <ele>88.2</ele>
        <time>2021-07-04T08:37:53Z</time>
      </trkpt>
      <trkpt lat="47.32086" lon="-0.56195">
        <ele>88.2</ele>
        <time>2021-07-04T08:37:54Z</time>
      </trkpt>
      <trkpt lat="47.32087" lon="-0.5619">
        <ele>88.4</ele>
        <time>2021-07-04T08:37:55Z</time>
      </trkpt>
      <trkpt lat="47.32087" lon="-0.56188">
        <ele>89.6</ele>
        <time>2021-07-04T08:37:56Z</time>
      </trkpt>
      <trkpt lat="47.32086" lon="-0.5619">
        <ele>89.8</ele>
        <time>2021-07-04T08:37:57Z</time>
      </trkpt>
      <trkpt lat="47.3209" lon="-0.56169">
        <ele>89.6</ele>
        <time>2021-07-04T08:38:04Z</time>
      </trkpt>
      <trkpt lat="47.32091" lon="-0.56163">
        <ele>89.8</ele>
        <time>2021-07-04T08:38:06Z</time>
      </trkpt>
      <trkpt lat="47.32092" lon="-0.56153">
        <ele>89.4</ele>
        <time>2021-07-04T08:38:10Z</time>
      </trkpt>
      <trkpt lat="47.32093" lon="-0.56149">
        <ele>89.4</ele>
        <time>2021-07-04T08:38:11Z</time>
      </trkpt>
      <trkpt lat="47.32094" lon="-0.56146">
        <ele>89.2</ele>
        <time>2021-07-04T08:38:12Z</time>
      </trkpt>
      <trkpt lat="47.32097" lon="-0.56142">
        <ele>89.4</ele>
        <time>2021-07-04T08:38:14Z</time>
      </trkpt>
      <trkpt lat="47.321" lon="-0.56136">
        <ele>89.6</ele>
        <time>2021-07-04T08:38:16Z</time>
      </trkpt>
      <trkpt lat="47.32104" lon="-0.56131">
        <ele>89.2</ele>
        <time>2021-07-04T08:38:18Z</time>
      </trkpt>
      <trkpt lat="47.32107" lon="-0.56125">
        <ele>89.6</ele>
        <time>2021-07-04T08:38:20Z</time>
      </trkpt>
      <trkpt lat="47.32112" lon="-0.56117">
        <ele>89.4</ele>
        <time>2021-07-04T08:38:22Z</time>
      </trkpt>
      <trkpt lat="47.32116" lon="-0.56109">
        <ele>89.6</ele>
        <time>2021-07-04T08:38:24Z</time>
      </trkpt>
      <trkpt lat="47.32118" lon="-0.56105">
        <ele>89.6</ele>
        <time>2021-07-04T08:38:25Z</time>
      </trkpt>
      <trkpt lat="47.32121" lon="-0.56101">
        <ele>89.6</ele>
        <time>2021-07-04T08:38:26Z</time>
      </trkpt>
      <trkpt lat="47.32125" lon="-0.56094">
        <ele>89.6</ele>
        <time>2021-07-04T08:38:28Z</time>
      </trkpt>
      <trkpt lat="47.32128" lon="-0.5608">
        <ele>89.6</ele>
        <time>2021-07-04T08:38:30Z</time>
      </trkpt>
      <trkpt lat="47.32131" lon="-0.56071">
        <ele>89.4</ele>
        <time>2021-07-04T08:38:32Z</time>
      </trkpt>
      <trkpt lat="47.32134" lon="-0.56063">
        <ele>89.6</ele>
        <time>2021-07-04T08:38:34Z</time>
      </trkpt>
      <trkpt lat="47.32137" lon="-0.56056">
        <ele>89.8</ele>
        <time>2021-07-04T08:38:36Z</time>
      </trkpt>
      <trkpt lat="47.32141" lon="-0.56043">
        <ele>90</ele>
        <time>2021-07-04T08:38:38Z</time>
      </trkpt>
      <trkpt lat="47.32142" lon="-0.56037">
        <ele>90</ele>
        <time>2021-07-04T08:38:39Z</time>
      </trkpt>
      <trkpt lat="47.32143" lon="-0.56029">
        <ele>90.2</ele>
        <time>2021-07-04T08:38:40Z</time>
      </trkpt>
      <trkpt lat="47.32144" lon="-0.56015">
        <ele>90.4</ele>
        <time>2021-07-04T08:38:42Z</time>
      </trkpt>
      <trkpt lat="47.32145" lon="-0.56">
        <ele>90.8</ele>
        <time>2021-07-04T08:38:44Z</time>
      </trkpt>
      <trkpt lat="47.32145" lon="-0.55988">
        <ele>90.8</ele>
        <time>2021-07-04T08:38:46Z</time>
      </trkpt>
      <trkpt lat="47.32145" lon="-0.55974">
        <ele>90.6</ele>
        <time>2021-07-04T08:38:48Z</time>
      </trkpt>
      <trkpt lat="47.32144" lon="-0.55958">
        <ele>90.2</ele>
        <time>2021-07-04T08:38:50Z</time>
      </trkpt>
      <trkpt lat="47.32143" lon="-0.55943">
        <ele>89.8</ele>
        <time>2021-07-04T08:38:52Z</time>
      </trkpt>
      <trkpt lat="47.32143" lon="-0.55928">
        <ele>89.8</ele>
        <time>2021-07-04T08:38:54Z</time>
      </trkpt>
      <trkpt lat="47.3214" lon="-0.55906">
        <ele>89.6</ele>
        <time>2021-07-04T08:38:56Z</time>
      </trkpt>
      <trkpt lat="47.32136" lon="-0.5588">
        <ele>89.4</ele>
        <time>2021-07-04T08:38:58Z</time>
      </trkpt>
      <trkpt lat="47.32133" lon="-0.55854">
        <ele>88.8</ele>
        <time>2021-07-04T08:39:00Z</time>
      </trkpt>
      <trkpt lat="47.32131" lon="-0.55842">
        <ele>88.6</ele>
        <time>2021-07-04T08:39:01Z</time>
      </trkpt>
      <trkpt lat="47.32129" lon="-0.55831">
        <ele>88.4</ele>
        <time>2021-07-04T08:39:02Z</time>
      </trkpt>
      <trkpt lat="47.32128" lon="-0.55821">
        <ele>88.4</ele>
        <time>2021-07-04T08:39:03Z</time>
      </trkpt>
      <trkpt lat="47.32128" lon="-0.55813">
        <ele>88.2</ele>
        <time>2021-07-04T08:39:04Z</time>
      </trkpt>
      <trkpt lat="47.32127" lon="-0.55795">
        <ele>88.2</ele>
        <time>2021-07-04T08:39:06Z</time>
      </trkpt>
      <trkpt lat="47.32129" lon="-0.55783">
        <ele>87.4</ele>
        <time>2021-07-04T08:39:08Z</time>
      </trkpt>
      <trkpt lat="47.32129" lon="-0.55773">
        <ele>87</ele>
        <time>2021-07-04T08:39:09Z</time>
      </trkpt>
      <trkpt lat="47.3213" lon="-0.55764">
        <ele>87</ele>
        <time>2021-07-04T08:39:10Z</time>
      </trkpt>
      <trkpt lat="47.32128" lon="-0.55744">
        <ele>86.6</ele>
        <time>2021-07-04T08:39:12Z</time>
      </trkpt>
      <trkpt lat="47.32129" lon="-0.55741">
        <ele>85.8</ele>
        <time>2021-07-04T08:39:13Z</time>
      </trkpt>
      <trkpt lat="47.3213" lon="-0.55738">
        <ele>85.6</ele>
        <time>2021-07-04T08:39:14Z</time>
      </trkpt>
      <trkpt lat="47.32132" lon="-0.55725">
        <ele>85.4</ele>
        <time>2021-07-04T08:39:16Z</time>
      </trkpt>
      <trkpt lat="47.32136" lon="-0.55712">
        <ele>85</ele>
        <time>2021-07-04T08:39:18Z</time>
      </trkpt>
      <trkpt lat="47.32137" lon="-0.55705">
        <ele>85</ele>
        <time>2021-07-04T08:39:19Z</time>
      </trkpt>
      <trkpt lat="47.32137" lon="-0.55695">
        <ele>84.8</ele>
        <time>2021-07-04T08:39:20Z</time>
      </trkpt>
      <trkpt lat="47.32136" lon="-0.55677">
        <ele>85</ele>
        <time>2021-07-04T08:39:22Z</time>
      </trkpt>
      <trkpt lat="47.32135" lon="-0.55663">
        <ele>85.4</ele>
        <time>2021-07-04T08:39:24Z</time>
      </trkpt>
      <trkpt lat="47.32135" lon="-0.55649">
        <ele>84.8</ele>
        <time>2021-07-04T08:39:26Z</time>
      </trkpt>
      <trkpt lat="47.32136" lon="-0.55635">
        <ele>84.8</ele>
        <time>2021-07-04T08:39:28Z</time>
      </trkpt>
      <trkpt lat="47.32104" lon="-0.55552">
        <ele>84.8</ele>
        <time>2021-07-04T08:39:29Z</time>
      </trkpt>
      <trkpt lat="47.32072" lon="-0.55469">
        <ele>85.2</ele>
        <time>2021-07-04T08:39:30Z</time>
      </trkpt>
      <trkpt lat="47.32071" lon="-0.5546">
        <ele>85.4</ele>
        <time>2021-07-04T08:39:31Z</time>
      </trkpt>
      <trkpt lat="47.3207" lon="-0.55452">
        <ele>85.6</ele>
        <time>2021-07-04T08:39:32Z</time>
      </trkpt>
      <trkpt lat="47.32071" lon="-0.55438">
        <ele>85.4</ele>
        <time>2021-07-04T08:39:34Z</time>
      </trkpt>
      <trkpt lat="47.32071" lon="-0.55424">
        <ele>85.8</ele>
        <time>2021-07-04T08:39:36Z</time>
      </trkpt>
      <trkpt lat="47.3207" lon="-0.55409">
        <ele>86</ele>
        <time>2021-07-04T08:39:38Z</time>
      </trkpt>
      <trkpt lat="47.32069" lon="-0.55393">
        <ele>86.2</ele>
        <time>2021-07-04T08:39:40Z</time>
      </trkpt>
      <trkpt lat="47.3207" lon="-0.55378">
        <ele>86.2</ele>
        <time>2021-07-04T08:39:42Z</time>
      </trkpt>
      <trkpt lat="47.3207" lon="-0.5537">
        <ele>86.4</ele>
        <time>2021-07-04T08:39:43Z</time>
      </trkpt>
      <trkpt lat="47.3207" lon="-0.55364">
        <ele>86.8</ele>
        <time>2021-07-04T08:39:44Z</time>
      </trkpt>
      <trkpt lat="47.3207" lon="-0.55357">
        <ele>87.2</ele>
        <time>2021-07-04T08:39:45Z</time>
      </trkpt>
      <trkpt lat="47.32069" lon="-0.5535">
        <ele>87.6</ele>
        <time>2021-07-04T08:39:46Z</time>
      </trkpt>
      <trkpt lat="47.32069" lon="-0.55336">
        <ele>88.2</ele>
        <time>2021-07-04T08:39:48Z</time>
      </trkpt>
      <trkpt lat="47.32069" lon="-0.55329">
        <ele>88.2</ele>
        <time>2021-07-04T08:39:49Z</time>
      </trkpt>
      <trkpt lat="47.32069" lon="-0.55323">
        <ele>88.6</ele>
        <time>2021-07-04T08:39:50Z</time>
      </trkpt>
      <trkpt lat="47.32069" lon="-0.55316">
        <ele>89.2</ele>
        <time>2021-07-04T08:39:51Z</time>
      </trkpt>
      <trkpt lat="47.32069" lon="-0.5531">
        <ele>89.6</ele>
        <time>2021-07-04T08:39:52Z</time>
      </trkpt>
      <trkpt lat="47.32069" lon="-0.55296">
        <ele>89.8</ele>
        <time>2021-07-04T08:39:54Z</time>
      </trkpt>
      <trkpt lat="47.32068" lon="-0.55282">
        <ele>90</ele>
        <time>2021-07-04T08:39:56Z</time>
      </trkpt>
      <trkpt lat="47.32068" lon="-0.55274">
        <ele>90.2</ele>
        <time>2021-07-04T08:39:57Z</time>
      </trkpt>
      <trkpt lat="47.32067" lon="-0.55267">
        <ele>90.2</ele>
        <time>2021-07-04T08:39:58Z</time>
      </trkpt>
      <trkpt lat="47.32067" lon="-0.5526">
        <ele>90.8</ele>
        <time>2021-07-04T08:39:59Z</time>
      </trkpt>
      <trkpt lat="47.32066" lon="-0.55253">
        <ele>91</ele>
        <time>2021-07-04T08:40:00Z</time>
      </trkpt>
      <trkpt lat="47.32065" lon="-0.55239">
        <ele>91</ele>
        <time>2021-07-04T08:40:02Z</time>
      </trkpt>
      <trkpt lat="47.32065" lon="-0.55232">
        <ele>91.2</ele>
        <time>2021-07-04T08:40:03Z</time>
      </trkpt>
      <trkpt lat="47.32065" lon="-0.55226">
        <ele>91</ele>
        <time>2021-07-04T08:40:04Z</time>
      </trkpt>
      <trkpt lat="47.32065" lon="-0.55211">
        <ele>91.2</ele>
        <time>2021-07-04T08:40:06Z</time>
      </trkpt>
      <trkpt lat="47.32065" lon="-0.55197">
        <ele>91.4</ele>
        <time>2021-07-04T08:40:08Z</time>
      </trkpt>
      <trkpt lat="47.32065" lon="-0.55183">
        <ele>91.8</ele>
        <time>2021-07-04T08:40:10Z</time>
      </trkpt>
      <trkpt lat="47.32066" lon="-0.55169">
        <ele>92</ele>
        <time>2021-07-04T08:40:12Z</time>
      </trkpt>
      <trkpt lat="47.32066" lon="-0.55155">
        <ele>92.2</ele>
        <time>2021-07-04T08:40:14Z</time>
      </trkpt>
      <trkpt lat="47.32066" lon="-0.55142">
        <ele>92.6</ele>
        <time>2021-07-04T08:40:16Z</time>
      </trkpt>
      <trkpt lat="47.32066" lon="-0.55135">
        <ele>93</ele>
        <time>2021-07-04T08:40:17Z</time>
      </trkpt>
      <trkpt lat="47.32065" lon="-0.55129">
        <ele>93</ele>
        <time>2021-07-04T08:40:18Z</time>
      </trkpt>
      <trkpt lat="47.32065" lon="-0.55115">
        <ele>93.2</ele>
        <time>2021-07-04T08:40:20Z</time>
      </trkpt>
      <trkpt lat="47.32066" lon="-0.55102">
        <ele>93.4</ele>
        <time>2021-07-04T08:40:22Z</time>
      </trkpt>
      <trkpt lat="47.32065" lon="-0.55095">
        <ele>93.6</ele>
        <time>2021-07-04T08:40:23Z</time>
      </trkpt>
      <trkpt lat="47.32065" lon="-0.55088">
        <ele>93.8</ele>
        <time>2021-07-04T08:40:24Z</time>
      </trkpt>
      <trkpt lat="47.32066" lon="-0.55081">
        <ele>94.2</ele>
        <time>2021-07-04T08:40:25Z</time>
      </trkpt>
      <trkpt lat="47.32067" lon="-0.55075">
        <ele>94.2</ele>
        <time>2021-07-04T08:40:26Z</time>
      </trkpt>
      <trkpt lat="47.32066" lon="-0.55067">
        <ele>94.4</ele>
        <time>2021-07-04T08:40:27Z</time>
      </trkpt>
      <trkpt lat="47.32065" lon="-0.55061">
        <ele>94.2</ele>
        <time>2021-07-04T08:40:28Z</time>
      </trkpt>
      <trkpt lat="47.32065" lon="-0.55054">
        <ele>94.4</ele>
        <time>2021-07-04T08:40:29Z</time>
      </trkpt>
      <trkpt lat="47.32064" lon="-0.55048">
        <ele>94.4</ele>
        <time>2021-07-04T08:40:30Z</time>
      </trkpt>
      <trkpt lat="47.32063" lon="-0.55035">
        <ele>94.8</ele>
        <time>2021-07-04T08:40:32Z</time>
      </trkpt>
      <trkpt lat="47.32062" lon="-0.55021">
        <ele>94.8</ele>
        <time>2021-07-04T08:40:34Z</time>
      </trkpt>
      <trkpt lat="47.32062" lon="-0.55013">
        <ele>95</ele>
        <time>2021-07-04T08:40:35Z</time>
      </trkpt>
      <trkpt lat="47.32063" lon="-0.55007">
        <ele>95.2</ele>
        <time>2021-07-04T08:40:36Z</time>
      </trkpt>
      <trkpt lat="47.32062" lon="-0.54999">
        <ele>95.2</ele>
        <time>2021-07-04T08:40:37Z</time>
      </trkpt>
      <trkpt lat="47.32063" lon="-0.54992">
        <ele>95.4</ele>
        <time>2021-07-04T08:40:38Z</time>
      </trkpt>
      <trkpt lat="47.32064" lon="-0.54978">
        <ele>95.6</ele>
        <time>2021-07-04T08:40:40Z</time>
      </trkpt>
      <trkpt lat="47.32065" lon="-0.54965">
        <ele>95.4</ele>
        <time>2021-07-04T08:40:42Z</time>
      </trkpt>
      <trkpt lat="47.32068" lon="-0.54955">
        <ele>95.6</ele>
        <time>2021-07-04T08:40:44Z</time>
      </trkpt>
      <trkpt lat="47.32069" lon="-0.54949">
        <ele>95.8</ele>
        <time>2021-07-04T08:40:45Z</time>
      </trkpt>
      <trkpt lat="47.3207" lon="-0.54944">
        <ele>96</ele>
        <time>2021-07-04T08:40:46Z</time>
      </trkpt>
      <trkpt lat="47.3207" lon="-0.54935">
        <ele>95.8</ele>
        <time>2021-07-04T08:40:48Z</time>
      </trkpt>
      <trkpt lat="47.32069" lon="-0.54922">
        <ele>95.8</ele>
        <time>2021-07-04T08:40:50Z</time>
      </trkpt>
      <trkpt lat="47.32069" lon="-0.54915">
        <ele>96</ele>
        <time>2021-07-04T08:40:51Z</time>
      </trkpt>
      <trkpt lat="47.3207" lon="-0.54907">
        <ele>96</ele>
        <time>2021-07-04T08:40:52Z</time>
      </trkpt>
      <trkpt lat="47.3207" lon="-0.54892">
        <ele>95.6</ele>
        <time>2021-07-04T08:40:54Z</time>
      </trkpt>
      <trkpt lat="47.3207" lon="-0.54877">
        <ele>95</ele>
        <time>2021-07-04T08:40:56Z</time>
      </trkpt>
      <trkpt lat="47.32072" lon="-0.54861">
        <ele>94.6</ele>
        <time>2021-07-04T08:40:58Z</time>
      </trkpt>
      <trkpt lat="47.32073" lon="-0.54853">
        <ele>95</ele>
        <time>2021-07-04T08:40:59Z</time>
      </trkpt>
      <trkpt lat="47.32074" lon="-0.54845">
        <ele>94.8</ele>
        <time>2021-07-04T08:41:00Z</time>
      </trkpt>
      <trkpt lat="47.32075" lon="-0.54829">
        <ele>94.4</ele>
        <time>2021-07-04T08:41:02Z</time>
      </trkpt>
      <trkpt lat="47.32075" lon="-0.54814">
        <ele>94</ele>
        <time>2021-07-04T08:41:04Z</time>
      </trkpt>
      <trkpt lat="47.32076" lon="-0.54807">
        <ele>94</ele>
        <time>2021-07-04T08:41:05Z</time>
      </trkpt>
      <trkpt lat="47.32076" lon="-0.548">
        <ele>94</ele>
        <time>2021-07-04T08:41:06Z</time>
      </trkpt>
      <trkpt lat="47.32077" lon="-0.54794">
        <ele>93.8</ele>
        <time>2021-07-04T08:41:07Z</time>
      </trkpt>
      <trkpt lat="47.32077" lon="-0.54785">
        <ele>93.6</ele>
        <time>2021-07-04T08:41:08Z</time>
      </trkpt>
      <trkpt lat="47.32076" lon="-0.54771">
        <ele>92.6</ele>
        <time>2021-07-04T08:41:10Z</time>
      </trkpt>
      <trkpt lat="47.32076" lon="-0.54762">
        <ele>92.4</ele>
        <time>2021-07-04T08:41:11Z</time>
      </trkpt>
      <trkpt lat="47.32077" lon="-0.54753">
        <ele>92.2</ele>
        <time>2021-07-04T08:41:12Z</time>
      </trkpt>
      <trkpt lat="47.32078" lon="-0.54735">
        <ele>91.6</ele>
        <time>2021-07-04T08:41:14Z</time>
      </trkpt>
      <trkpt lat="47.32079" lon="-0.54718">
        <ele>91.2</ele>
        <time>2021-07-04T08:41:16Z</time>
      </trkpt>
      <trkpt lat="47.3208" lon="-0.54701">
        <ele>90.8</ele>
        <time>2021-07-04T08:41:18Z</time>
      </trkpt>
      <trkpt lat="47.3208" lon="-0.54685">
        <ele>90.6</ele>
        <time>2021-07-04T08:41:20Z</time>
      </trkpt>
      <trkpt lat="47.32082" lon="-0.54668">
        <ele>90.2</ele>
        <time>2021-07-04T08:41:22Z</time>
      </trkpt>
      <trkpt lat="47.32084" lon="-0.5466">
        <ele>89.8</ele>
        <time>2021-07-04T08:41:23Z</time>
      </trkpt>
      <trkpt lat="47.32086" lon="-0.54652">
        <ele>89.6</ele>
        <time>2021-07-04T08:41:24Z</time>
      </trkpt>
      <trkpt lat="47.32086" lon="-0.54643">
        <ele>89</ele>
        <time>2021-07-04T08:41:25Z</time>
      </trkpt>
      <trkpt lat="47.32087" lon="-0.54634">
        <ele>88.6</ele>
        <time>2021-07-04T08:41:26Z</time>
      </trkpt>
      <trkpt lat="47.3209" lon="-0.54617">
        <ele>88.2</ele>
        <time>2021-07-04T08:41:28Z</time>
      </trkpt>
      <trkpt lat="47.32092" lon="-0.5461">
        <ele>88.8</ele>
        <time>2021-07-04T08:41:30Z</time>
      </trkpt>
      <trkpt lat="47.32089" lon="-0.54605">
        <ele>89.6</ele>
        <time>2021-07-04T08:41:32Z</time>
      </trkpt>
      <trkpt lat="47.3209" lon="-0.54599">
        <ele>89.6</ele>
        <time>2021-07-04T08:41:34Z</time>
      </trkpt>
      <trkpt lat="47.32094" lon="-0.54585">
        <ele>89.2</ele>
        <time>2021-07-04T08:41:58Z</time>
      </trkpt>
      <trkpt lat="47.32095" lon="-0.54568">
        <ele>88.2</ele>
        <time>2021-07-04T08:42:00Z</time>
      </trkpt>
      <trkpt lat="47.32097" lon="-0.5455">
        <ele>87.8</ele>
        <time>2021-07-04T08:42:02Z</time>
      </trkpt>
      <trkpt lat="47.32098" lon="-0.54533">
        <ele>87.6</ele>
        <time>2021-07-04T08:42:04Z</time>
      </trkpt>
      <trkpt lat="47.321" lon="-0.54525">
        <ele>87.4</ele>
        <time>2021-07-04T08:42:05Z</time>
      </trkpt>
      <trkpt lat="47.321" lon="-0.54516">
        <ele>87.2</ele>
        <time>2021-07-04T08:42:06Z</time>
      </trkpt>
      <trkpt lat="47.321" lon="-0.54503">
        <ele>87.2</ele>
        <time>2021-07-04T08:42:08Z</time>
      </trkpt>
      <trkpt lat="47.321" lon="-0.54497">
        <ele>86.6</ele>
        <time>2021-07-04T08:42:09Z</time>
      </trkpt>
      <trkpt lat="47.321" lon="-0.5449">
        <ele>86.4</ele>
        <time>2021-07-04T08:42:10Z</time>
      </trkpt>
      <trkpt lat="47.32098" lon="-0.5448">
        <ele>86.4</ele>
        <time>2021-07-04T08:42:12Z</time>
      </trkpt>
      <trkpt lat="47.321" lon="-0.54469">
        <ele>86.4</ele>
        <time>2021-07-04T08:42:14Z</time>
      </trkpt>
      <trkpt lat="47.32101" lon="-0.54463">
        <ele>87</ele>
        <time>2021-07-04T08:42:16Z</time>
      </trkpt>
      <trkpt lat="47.32101" lon="-0.5446">
        <ele>87.4</ele>
        <time>2021-07-04T08:42:17Z</time>
      </trkpt>
      <trkpt lat="47.32101" lon="-0.54455">
        <ele>87.4</ele>
        <time>2021-07-04T08:42:18Z</time>
      </trkpt>
      <trkpt lat="47.32102" lon="-0.54442">
        <ele>87</ele>
        <time>2021-07-04T08:42:20Z</time>
      </trkpt>
      <trkpt lat="47.32103" lon="-0.54435">
        <ele>87</ele>
        <time>2021-07-04T08:42:21Z</time>
      </trkpt>
      <trkpt lat="47.32104" lon="-0.54429">
        <ele>86.8</ele>
        <time>2021-07-04T08:42:22Z</time>
      </trkpt>
      <trkpt lat="47.32105" lon="-0.54417">
        <ele>86.8</ele>
        <time>2021-07-04T08:42:24Z</time>
      </trkpt>
      <trkpt lat="47.32106" lon="-0.54403">
        <ele>86.8</ele>
        <time>2021-07-04T08:42:26Z</time>
      </trkpt>
      <trkpt lat="47.32105" lon="-0.54396">
        <ele>86.8</ele>
        <time>2021-07-04T08:42:27Z</time>
      </trkpt>
      <trkpt lat="47.32106" lon="-0.5439">
        <ele>87</ele>
        <time>2021-07-04T08:42:28Z</time>
      </trkpt>
      <trkpt lat="47.32106" lon="-0.54377">
        <ele>87</ele>
        <time>2021-07-04T08:42:30Z</time>
      </trkpt>
      <trkpt lat="47.32108" lon="-0.54372">
        <ele>87</ele>
        <time>2021-07-04T08:42:31Z</time>
      </trkpt>
      <trkpt lat="47.32108" lon="-0.54366">
        <ele>87.4</ele>
        <time>2021-07-04T08:42:32Z</time>
      </trkpt>
      <trkpt lat="47.32111" lon="-0.54355">
        <ele>87.4</ele>
        <time>2021-07-04T08:42:34Z</time>
      </trkpt>
      <trkpt lat="47.32112" lon="-0.54352">
        <ele>87.4</ele>
        <time>2021-07-04T08:42:35Z</time>
      </trkpt>
      <trkpt lat="47.32111" lon="-0.5435">
        <ele>87.6</ele>
        <time>2021-07-04T08:42:36Z</time>
      </trkpt>
      <trkpt lat="47.32111" lon="-0.54345">
        <ele>87.6</ele>
        <time>2021-07-04T08:42:38Z</time>
      </trkpt>
      <trkpt lat="47.32111" lon="-0.54343">
        <ele>87.6</ele>
        <time>2021-07-04T08:42:39Z</time>
      </trkpt>
      <trkpt lat="47.3211" lon="-0.54339">
        <ele>87.8</ele>
        <time>2021-07-04T08:42:40Z</time>
      </trkpt>
      <trkpt lat="47.3211" lon="-0.54331">
        <ele>87.4</ele>
        <time>2021-07-04T08:42:42Z</time>
      </trkpt>
      <trkpt lat="47.3211" lon="-0.54326">
        <ele>87.4</ele>
        <time>2021-07-04T08:42:43Z</time>
      </trkpt>
      <trkpt lat="47.32109" lon="-0.54322">
        <ele>87.6</ele>
        <time>2021-07-04T08:42:44Z</time>
      </trkpt>
      <trkpt lat="47.32109" lon="-0.54314">
        <ele>87.8</ele>
        <time>2021-07-04T08:42:46Z</time>
      </trkpt>
      <trkpt lat="47.32108" lon="-0.54305">
        <ele>88</ele>
        <time>2021-07-04T08:42:48Z</time>
      </trkpt>
      <trkpt lat="47.32108" lon="-0.54295">
        <ele>88.2</ele>
        <time>2021-07-04T08:42:50Z</time>
      </trkpt>
      <trkpt lat="47.32108" lon="-0.54287">
        <ele>88.6</ele>
        <time>2021-07-04T08:42:52Z</time>
      </trkpt>
      <trkpt lat="47.32107" lon="-0.54278">
        <ele>89</ele>
        <time>2021-07-04T08:42:54Z</time>
      </trkpt>
      <trkpt lat="47.32107" lon="-0.54273">
        <ele>89.2</ele>
        <time>2021-07-04T08:42:55Z</time>
      </trkpt>
      <trkpt lat="47.32107" lon="-0.54267">
        <ele>89.2</ele>
        <time>2021-07-04T08:42:56Z</time>
      </trkpt>
      <trkpt lat="47.32111" lon="-0.54252">
        <ele>89.4</ele>
        <time>2021-07-04T08:42:58Z</time>
      </trkpt>
      <trkpt lat="47.32113" lon="-0.54239">
        <ele>90</ele>
        <time>2021-07-04T08:43:00Z</time>
      </trkpt>
      <trkpt lat="47.32114" lon="-0.54228">
        <ele>90.2</ele>
        <time>2021-07-04T08:43:02Z</time>
      </trkpt>
      <trkpt lat="47.32118" lon="-0.54215">
        <ele>90.2</ele>
        <time>2021-07-04T08:43:04Z</time>
      </trkpt>
      <trkpt lat="47.32119" lon="-0.54207">
        <ele>90.2</ele>
        <time>2021-07-04T08:43:05Z</time>
      </trkpt>
      <trkpt lat="47.3212" lon="-0.542">
        <ele>90.2</ele>
        <time>2021-07-04T08:43:06Z</time>
      </trkpt>
      <trkpt lat="47.32122" lon="-0.54186">
        <ele>90.2</ele>
        <time>2021-07-04T08:43:08Z</time>
      </trkpt>
      <trkpt lat="47.32123" lon="-0.54181">
        <ele>90.4</ele>
        <time>2021-07-04T08:43:09Z</time>
      </trkpt>
      <trkpt lat="47.32122" lon="-0.54176">
        <ele>90.6</ele>
        <time>2021-07-04T08:43:10Z</time>
      </trkpt>
      <trkpt lat="47.32122" lon="-0.54167">
        <ele>91</ele>
        <time>2021-07-04T08:43:12Z</time>
      </trkpt>
      <trkpt lat="47.32121" lon="-0.54157">
        <ele>91</ele>
        <time>2021-07-04T08:43:14Z</time>
      </trkpt>
      <trkpt lat="47.3212" lon="-0.54152">
        <ele>91</ele>
        <time>2021-07-04T08:43:15Z</time>
      </trkpt>
      <trkpt lat="47.3212" lon="-0.54147">
        <ele>90.8</ele>
        <time>2021-07-04T08:43:16Z</time>
      </trkpt>
      <trkpt lat="47.32121" lon="-0.54136">
        <ele>91</ele>
        <time>2021-07-04T08:43:18Z</time>
      </trkpt>
      <trkpt lat="47.32121" lon="-0.54126">
        <ele>91.4</ele>
        <time>2021-07-04T08:43:20Z</time>
      </trkpt>
      <trkpt lat="47.32121" lon="-0.54114">
        <ele>91.2</ele>
        <time>2021-07-04T08:43:22Z</time>
      </trkpt>
      <trkpt lat="47.32122" lon="-0.54101">
        <ele>91.4</ele>
        <time>2021-07-04T08:43:24Z</time>
      </trkpt>
      <trkpt lat="47.32123" lon="-0.5409">
        <ele>91.4</ele>
        <time>2021-07-04T08:43:26Z</time>
      </trkpt>
      <trkpt lat="47.32124" lon="-0.54084">
        <ele>91.6</ele>
        <time>2021-07-04T08:43:27Z</time>
      </trkpt>
      <trkpt lat="47.32124" lon="-0.54078">
        <ele>91.4</ele>
        <time>2021-07-04T08:43:28Z</time>
      </trkpt>
      <trkpt lat="47.32125" lon="-0.54065">
        <ele>91.4</ele>
        <time>2021-07-04T08:43:30Z</time>
      </trkpt>
      <trkpt lat="47.32126" lon="-0.54059">
        <ele>91.4</ele>
        <time>2021-07-04T08:43:31Z</time>
      </trkpt>
      <trkpt lat="47.32126" lon="-0.54052">
        <ele>91.4</ele>
        <time>2021-07-04T08:43:32Z</time>
      </trkpt>
      <trkpt lat="47.32125" lon="-0.54039">
        <ele>91.4</ele>
        <time>2021-07-04T08:43:34Z</time>
      </trkpt>
      <trkpt lat="47.32125" lon="-0.54026">
        <ele>91.8</ele>
        <time>2021-07-04T08:43:36Z</time>
      </trkpt>
      <trkpt lat="47.32126" lon="-0.5402">
        <ele>92.2</ele>
        <time>2021-07-04T08:43:37Z</time>
      </trkpt>
      <trkpt lat="47.32127" lon="-0.54012">
        <ele>92.2</ele>
        <time>2021-07-04T08:43:38Z</time>
      </trkpt>
      <trkpt lat="47.32128" lon="-0.54005">
        <ele>92.6</ele>
        <time>2021-07-04T08:43:39Z</time>
      </trkpt>
      <trkpt lat="47.32129" lon="-0.53998">
        <ele>92.4</ele>
        <time>2021-07-04T08:43:40Z</time>
      </trkpt>
      <trkpt lat="47.3213" lon="-0.53985">
        <ele>92.2</ele>
        <time>2021-07-04T08:43:42Z</time>
      </trkpt>
      <trkpt lat="47.32131" lon="-0.53973">
        <ele>92.4</ele>
        <time>2021-07-04T08:43:44Z</time>
      </trkpt>
      <trkpt lat="47.32133" lon="-0.53963">
        <ele>92.8</ele>
        <time>2021-07-04T08:43:46Z</time>
      </trkpt>
      <trkpt lat="47.32134" lon="-0.5395">
        <ele>92.6</ele>
        <time>2021-07-04T08:43:48Z</time>
      </trkpt>
      <trkpt lat="47.32135" lon="-0.53943">
        <ele>92.6</ele>
        <time>2021-07-04T08:43:49Z</time>
      </trkpt>
      <trkpt lat="47.32136" lon="-0.53936">
        <ele>92.6</ele>
        <time>2021-07-04T08:43:50Z</time>
      </trkpt>
      <trkpt lat="47.32137" lon="-0.5393">
        <ele>92.8</ele>
        <time>2021-07-04T08:43:51Z</time>
      </trkpt>
      <trkpt lat="47.32138" lon="-0.53923">
        <ele>92.8</ele>
        <time>2021-07-04T08:43:52Z</time>
      </trkpt>
      <trkpt lat="47.3214" lon="-0.53908">
        <ele>92.6</ele>
        <time>2021-07-04T08:43:54Z</time>
      </trkpt>
      <trkpt lat="47.32142" lon="-0.53894">
        <ele>92.8</ele>
        <time>2021-07-04T08:43:56Z</time>
      </trkpt>
      <trkpt lat="47.32143" lon="-0.53887">
        <ele>93</ele>
        <time>2021-07-04T08:43:57Z</time>
      </trkpt>
      <trkpt lat="47.32144" lon="-0.5388">
        <ele>93</ele>
        <time>2021-07-04T08:43:58Z</time>
      </trkpt>
      <trkpt lat="47.32145" lon="-0.53872">
        <ele>93.2</ele>
        <time>2021-07-04T08:43:59Z</time>
      </trkpt>
      <trkpt lat="47.32147" lon="-0.53865">
        <ele>93.2</ele>
        <time>2021-07-04T08:44:00Z</time>
      </trkpt>
      <trkpt lat="47.32149" lon="-0.5385">
        <ele>93.4</ele>
        <time>2021-07-04T08:44:02Z</time>
      </trkpt>
      <trkpt lat="47.32152" lon="-0.53836">
        <ele>93.2</ele>
        <time>2021-07-04T08:44:04Z</time>
      </trkpt>
      <trkpt lat="47.32155" lon="-0.53822">
        <ele>93.4</ele>
        <time>2021-07-04T08:44:06Z</time>
      </trkpt>
      <trkpt lat="47.32155" lon="-0.53809">
        <ele>93.8</ele>
        <time>2021-07-04T08:44:08Z</time>
      </trkpt>
      <trkpt lat="47.32157" lon="-0.53797">
        <ele>93.8</ele>
        <time>2021-07-04T08:44:10Z</time>
      </trkpt>
      <trkpt lat="47.32159" lon="-0.53784">
        <ele>94.2</ele>
        <time>2021-07-04T08:44:12Z</time>
      </trkpt>
      <trkpt lat="47.3216" lon="-0.53778">
        <ele>94.4</ele>
        <time>2021-07-04T08:44:13Z</time>
      </trkpt>
      <trkpt lat="47.3216" lon="-0.53771">
        <ele>94.4</ele>
        <time>2021-07-04T08:44:14Z</time>
      </trkpt>
      <trkpt lat="47.32162" lon="-0.53759">
        <ele>94.8</ele>
        <time>2021-07-04T08:44:16Z</time>
      </trkpt>
      <trkpt lat="47.32163" lon="-0.53749">
        <ele>95.2</ele>
        <time>2021-07-04T08:44:18Z</time>
      </trkpt>
      <trkpt lat="47.32165" lon="-0.53737">
        <ele>95.2</ele>
        <time>2021-07-04T08:44:20Z</time>
      </trkpt>
      <trkpt lat="47.32166" lon="-0.53731">
        <ele>95</ele>
        <time>2021-07-04T08:44:21Z</time>
      </trkpt>
      <trkpt lat="47.32167" lon="-0.53725">
        <ele>95</ele>
        <time>2021-07-04T08:44:22Z</time>
      </trkpt>
      <trkpt lat="47.32168" lon="-0.53713">
        <ele>95</ele>
        <time>2021-07-04T08:44:24Z</time>
      </trkpt>
      <trkpt lat="47.32169" lon="-0.53704">
        <ele>94.8</ele>
        <time>2021-07-04T08:44:26Z</time>
      </trkpt>
      <trkpt lat="47.32169" lon="-0.53699">
        <ele>95</ele>
        <time>2021-07-04T08:44:27Z</time>
      </trkpt>
      <trkpt lat="47.32171" lon="-0.53693">
        <ele>95.2</ele>
        <time>2021-07-04T08:44:28Z</time>
      </trkpt>
      <trkpt lat="47.32174" lon="-0.5368">
        <ele>95</ele>
        <time>2021-07-04T08:44:30Z</time>
      </trkpt>
      <trkpt lat="47.32175" lon="-0.53674">
        <ele>95</ele>
        <time>2021-07-04T08:44:31Z</time>
      </trkpt>
      <trkpt lat="47.32178" lon="-0.53668">
        <ele>94.8</ele>
        <time>2021-07-04T08:44:32Z</time>
      </trkpt>
      <trkpt lat="47.32184" lon="-0.53655">
        <ele>94.4</ele>
        <time>2021-07-04T08:44:34Z</time>
      </trkpt>
      <trkpt lat="47.32189" lon="-0.53644">
        <ele>94.4</ele>
        <time>2021-07-04T08:44:36Z</time>
      </trkpt>
      <trkpt lat="47.32192" lon="-0.53638">
        <ele>94.6</ele>
        <time>2021-07-04T08:44:37Z</time>
      </trkpt>
      <trkpt lat="47.32194" lon="-0.53632">
        <ele>94.8</ele>
        <time>2021-07-04T08:44:38Z</time>
      </trkpt>
      <trkpt lat="47.32198" lon="-0.53622">
        <ele>94.8</ele>
        <time>2021-07-04T08:44:40Z</time>
      </trkpt>
      <trkpt lat="47.32202" lon="-0.5361">
        <ele>94.6</ele>
        <time>2021-07-04T08:44:42Z</time>
      </trkpt>
      <trkpt lat="47.32207" lon="-0.53597">
        <ele>95</ele>
        <time>2021-07-04T08:44:44Z</time>
      </trkpt>
      <trkpt lat="47.3221" lon="-0.53588">
        <ele>95.6</ele>
        <time>2021-07-04T08:44:46Z</time>
      </trkpt>
      <trkpt lat="47.32214" lon="-0.53576">
        <ele>95.6</ele>
        <time>2021-07-04T08:44:48Z</time>
      </trkpt>
      <trkpt lat="47.32217" lon="-0.5357">
        <ele>95.4</ele>
        <time>2021-07-04T08:44:49Z</time>
      </trkpt>
      <trkpt lat="47.32219" lon="-0.53564">
        <ele>95.2</ele>
        <time>2021-07-04T08:44:50Z</time>
      </trkpt>
      <trkpt lat="47.32223" lon="-0.5355">
        <ele>95.2</ele>
        <time>2021-07-04T08:44:52Z</time>
      </trkpt>
      <trkpt lat="47.32224" lon="-0.53542">
        <ele>95.4</ele>
        <time>2021-07-04T08:44:53Z</time>
      </trkpt>
      <trkpt lat="47.32226" lon="-0.53533">
        <ele>95.2</ele>
        <time>2021-07-04T08:44:54Z</time>
      </trkpt>
      <trkpt lat="47.32229" lon="-0.53518">
        <ele>95.2</ele>
        <time>2021-07-04T08:44:56Z</time>
      </trkpt>
      <trkpt lat="47.32232" lon="-0.53508">
        <ele>95.4</ele>
        <time>2021-07-04T08:44:58Z</time>
      </trkpt>
      <trkpt lat="47.32233" lon="-0.53505">
        <ele>95.8</ele>
        <time>2021-07-04T08:44:59Z</time>
      </trkpt>
      <trkpt lat="47.32234" lon="-0.53501">
        <ele>96</ele>
        <time>2021-07-04T08:45:00Z</time>
      </trkpt>
      <trkpt lat="47.32235" lon="-0.53491">
        <ele>96</ele>
        <time>2021-07-04T08:45:02Z</time>
      </trkpt>
      <trkpt lat="47.32236" lon="-0.53484">
        <ele>95.8</ele>
        <time>2021-07-04T08:45:03Z</time>
      </trkpt>
      <trkpt lat="47.32238" lon="-0.53477">
        <ele>95.6</ele>
        <time>2021-07-04T08:45:04Z</time>
      </trkpt>
      <trkpt lat="47.32241" lon="-0.53464">
        <ele>95.6</ele>
        <time>2021-07-04T08:45:06Z</time>
      </trkpt>
      <trkpt lat="47.32245" lon="-0.5345">
        <ele>95.6</ele>
        <time>2021-07-04T08:45:08Z</time>
      </trkpt>
      <trkpt lat="47.32247" lon="-0.53442">
        <ele>95.6</ele>
        <time>2021-07-04T08:45:09Z</time>
      </trkpt>
      <trkpt lat="47.3225" lon="-0.53436">
        <ele>95.6</ele>
        <time>2021-07-04T08:45:10Z</time>
      </trkpt>
      <trkpt lat="47.32252" lon="-0.53429">
        <ele>95.6</ele>
        <time>2021-07-04T08:45:11Z</time>
      </trkpt>
      <trkpt lat="47.32254" lon="-0.53422">
        <ele>95.6</ele>
        <time>2021-07-04T08:45:12Z</time>
      </trkpt>
      <trkpt lat="47.32257" lon="-0.53408">
        <ele>95.6</ele>
        <time>2021-07-04T08:45:14Z</time>
      </trkpt>
      <trkpt lat="47.3226" lon="-0.53395">
        <ele>95.6</ele>
        <time>2021-07-04T08:45:16Z</time>
      </trkpt>
      <trkpt lat="47.32263" lon="-0.53388">
        <ele>95.6</ele>
        <time>2021-07-04T08:45:17Z</time>
      </trkpt>
      <trkpt lat="47.32265" lon="-0.53381">
        <ele>95.4</ele>
        <time>2021-07-04T08:45:18Z</time>
      </trkpt>
      <trkpt lat="47.3227" lon="-0.53366">
        <ele>95.6</ele>
        <time>2021-07-04T08:45:20Z</time>
      </trkpt>
      <trkpt lat="47.32275" lon="-0.5335">
        <ele>95.6</ele>
        <time>2021-07-04T08:45:22Z</time>
      </trkpt>
      <trkpt lat="47.32277" lon="-0.53342">
        <ele>95.6</ele>
        <time>2021-07-04T08:45:23Z</time>
      </trkpt>
      <trkpt lat="47.32279" lon="-0.53334">
        <ele>95.6</ele>
        <time>2021-07-04T08:45:24Z</time>
      </trkpt>
      <trkpt lat="47.32281" lon="-0.53325">
        <ele>95.6</ele>
        <time>2021-07-04T08:45:25Z</time>
      </trkpt>
      <trkpt lat="47.32283" lon="-0.53317">
        <ele>95.6</ele>
        <time>2021-07-04T08:45:26Z</time>
      </trkpt>
      <trkpt lat="47.32286" lon="-0.53303">
        <ele>95.8</ele>
        <time>2021-07-04T08:45:28Z</time>
      </trkpt>
      <trkpt lat="47.32288" lon="-0.53292">
        <ele>96.2</ele>
        <time>2021-07-04T08:45:30Z</time>
      </trkpt>
      <trkpt lat="47.32289" lon="-0.53288">
        <ele>96.4</ele>
        <time>2021-07-04T08:45:31Z</time>
      </trkpt>
      <trkpt lat="47.32289" lon="-0.53283">
        <ele>96.2</ele>
        <time>2021-07-04T08:45:32Z</time>
      </trkpt>
      <trkpt lat="47.32291" lon="-0.53278">
        <ele>96</ele>
        <time>2021-07-04T08:45:33Z</time>
      </trkpt>
      <trkpt lat="47.32292" lon="-0.53272">
        <ele>96.2</ele>
        <time>2021-07-04T08:45:34Z</time>
      </trkpt>
      <trkpt lat="47.32295" lon="-0.53262">
        <ele>96.4</ele>
        <time>2021-07-04T08:45:36Z</time>
      </trkpt>
      <trkpt lat="47.32298" lon="-0.53247">
        <ele>95.8</ele>
        <time>2021-07-04T08:45:38Z</time>
      </trkpt>
      <trkpt lat="47.32301" lon="-0.5324">
        <ele>95.6</ele>
        <time>2021-07-04T08:45:39Z</time>
      </trkpt>
      <trkpt lat="47.32303" lon="-0.53232">
        <ele>95.6</ele>
        <time>2021-07-04T08:45:40Z</time>
      </trkpt>
      <trkpt lat="47.32306" lon="-0.53226">
        <ele>95.8</ele>
        <time>2021-07-04T08:45:41Z</time>
      </trkpt>
      <trkpt lat="47.32308" lon="-0.5322">
        <ele>96</ele>
        <time>2021-07-04T08:45:42Z</time>
      </trkpt>
      <trkpt lat="47.3231" lon="-0.53213">
        <ele>96</ele>
        <time>2021-07-04T08:45:43Z</time>
      </trkpt>
      <trkpt lat="47.32312" lon="-0.53207">
        <ele>96</ele>
        <time>2021-07-04T08:45:44Z</time>
      </trkpt>
      <trkpt lat="47.32316" lon="-0.53195">
        <ele>96.2</ele>
        <time>2021-07-04T08:45:46Z</time>
      </trkpt>
      <trkpt lat="47.3232" lon="-0.53185">
        <ele>96.4</ele>
        <time>2021-07-04T08:45:48Z</time>
      </trkpt>
      <trkpt lat="47.32322" lon="-0.53174">
        <ele>96.4</ele>
        <time>2021-07-04T08:45:50Z</time>
      </trkpt>
      <trkpt lat="47.32322" lon="-0.53166">
        <ele>96.4</ele>
        <time>2021-07-04T08:45:52Z</time>
      </trkpt>
      <trkpt lat="47.32323" lon="-0.5316">
        <ele>96.8</ele>
        <time>2021-07-04T08:45:54Z</time>
      </trkpt>
      <trkpt lat="47.32324" lon="-0.53153">
        <ele>96.8</ele>
        <time>2021-07-04T08:45:56Z</time>
      </trkpt>
      <trkpt lat="47.32325" lon="-0.53149">
        <ele>97.2</ele>
        <time>2021-07-04T08:45:57Z</time>
      </trkpt>
      <trkpt lat="47.32326" lon="-0.53145">
        <ele>97</ele>
        <time>2021-07-04T08:45:58Z</time>
      </trkpt>
      <trkpt lat="47.32328" lon="-0.5314">
        <ele>96.8</ele>
        <time>2021-07-04T08:45:59Z</time>
      </trkpt>
      <trkpt lat="47.32328" lon="-0.53135">
        <ele>96.6</ele>
        <time>2021-07-04T08:46:00Z</time>
      </trkpt>
      <trkpt lat="47.32329" lon="-0.53123">
        <ele>96.2</ele>
        <time>2021-07-04T08:46:02Z</time>
      </trkpt>
      <trkpt lat="47.32331" lon="-0.53114">
        <ele>96.2</ele>
        <time>2021-07-04T08:46:03Z</time>
      </trkpt>
      <trkpt lat="47.32333" lon="-0.53107">
        <ele>96</ele>
        <time>2021-07-04T08:46:04Z</time>
      </trkpt>
      <trkpt lat="47.32339" lon="-0.5309">
        <ele>95.8</ele>
        <time>2021-07-04T08:46:06Z</time>
      </trkpt>
      <trkpt lat="47.32341" lon="-0.53081">
        <ele>95.8</ele>
        <time>2021-07-04T08:46:07Z</time>
      </trkpt>
      <trkpt lat="47.32344" lon="-0.53074">
        <ele>95.6</ele>
        <time>2021-07-04T08:46:08Z</time>
      </trkpt>
      <trkpt lat="47.32345" lon="-0.53066">
        <ele>95.4</ele>
        <time>2021-07-04T08:46:09Z</time>
      </trkpt>
      <trkpt lat="47.32347" lon="-0.53059">
        <ele>95.2</ele>
        <time>2021-07-04T08:46:10Z</time>
      </trkpt>
      <trkpt lat="47.32348" lon="-0.53052">
        <ele>95</ele>
        <time>2021-07-04T08:46:11Z</time>
      </trkpt>
      <trkpt lat="47.32349" lon="-0.53045">
        <ele>95</ele>
        <time>2021-07-04T08:46:12Z</time>
      </trkpt>
      <trkpt lat="47.32352" lon="-0.5303">
        <ele>94.8</ele>
        <time>2021-07-04T08:46:14Z</time>
      </trkpt>
      <trkpt lat="47.32356" lon="-0.53016">
        <ele>94.4</ele>
        <time>2021-07-04T08:46:16Z</time>
      </trkpt>
      <trkpt lat="47.32357" lon="-0.53004">
        <ele>94.4</ele>
        <time>2021-07-04T08:46:18Z</time>
      </trkpt>
      <trkpt lat="47.32357" lon="-0.52996">
        <ele>95</ele>
        <time>2021-07-04T08:46:20Z</time>
      </trkpt>
      <trkpt lat="47.32355" lon="-0.52992">
        <ele>95.4</ele>
        <time>2021-07-04T08:46:21Z</time>
      </trkpt>
      <trkpt lat="47.32354" lon="-0.52988">
        <ele>95.2</ele>
        <time>2021-07-04T08:46:22Z</time>
      </trkpt>
      <trkpt lat="47.32353" lon="-0.52978">
        <ele>94.6</ele>
        <time>2021-07-04T08:46:24Z</time>
      </trkpt>
      <trkpt lat="47.32351" lon="-0.52965">
        <ele>94.6</ele>
        <time>2021-07-04T08:46:26Z</time>
      </trkpt>
      <trkpt lat="47.3235" lon="-0.52958">
        <ele>94.4</ele>
        <time>2021-07-04T08:46:27Z</time>
      </trkpt>
      <trkpt lat="47.32349" lon="-0.5295">
        <ele>94.2</ele>
        <time>2021-07-04T08:46:28Z</time>
      </trkpt>
      <trkpt lat="47.32346" lon="-0.52935">
        <ele>93.8</ele>
        <time>2021-07-04T08:46:30Z</time>
      </trkpt>
      <trkpt lat="47.32343" lon="-0.52919">
        <ele>93.4</ele>
        <time>2021-07-04T08:46:32Z</time>
      </trkpt>
      <trkpt lat="47.32342" lon="-0.52911">
        <ele>93</ele>
        <time>2021-07-04T08:46:33Z</time>
      </trkpt>
      <trkpt lat="47.32341" lon="-0.52903">
        <ele>93</ele>
        <time>2021-07-04T08:46:34Z</time>
      </trkpt>
      <trkpt lat="47.32339" lon="-0.52895">
        <ele>93</ele>
        <time>2021-07-04T08:46:35Z</time>
      </trkpt>
      <trkpt lat="47.32338" lon="-0.52888">
        <ele>92.8</ele>
        <time>2021-07-04T08:46:36Z</time>
      </trkpt>
      <trkpt lat="47.32337" lon="-0.5287">
        <ele>92.6</ele>
        <time>2021-07-04T08:46:38Z</time>
      </trkpt>
      <trkpt lat="47.32334" lon="-0.52853">
        <ele>92.4</ele>
        <time>2021-07-04T08:46:40Z</time>
      </trkpt>
      <trkpt lat="47.32331" lon="-0.52838">
        <ele>92.2</ele>
        <time>2021-07-04T08:46:42Z</time>
      </trkpt>
      <trkpt lat="47.32331" lon="-0.52831">
        <ele>92.2</ele>
        <time>2021-07-04T08:46:43Z</time>
      </trkpt>
      <trkpt lat="47.32331" lon="-0.52825">
        <ele>92.6</ele>
        <time>2021-07-04T08:46:44Z</time>
      </trkpt>
      <trkpt lat="47.32331" lon="-0.52817">
        <ele>93.4</ele>
        <time>2021-07-04T08:46:46Z</time>
      </trkpt>
      <trkpt lat="47.32331" lon="-0.52812">
        <ele>93.6</ele>
        <time>2021-07-04T08:46:47Z</time>
      </trkpt>
      <trkpt lat="47.32331" lon="-0.52807">
        <ele>93.6</ele>
        <time>2021-07-04T08:46:48Z</time>
      </trkpt>
      <trkpt lat="47.32332" lon="-0.528">
        <ele>93.6</ele>
        <time>2021-07-04T08:46:50Z</time>
      </trkpt>
      <trkpt lat="47.32334" lon="-0.52793">
        <ele>94</ele>
        <time>2021-07-04T08:46:52Z</time>
      </trkpt>
      <trkpt lat="47.32335" lon="-0.5279">
        <ele>94.2</ele>
        <time>2021-07-04T08:46:53Z</time>
      </trkpt>
      <trkpt lat="47.32335" lon="-0.52786">
        <ele>94.2</ele>
        <time>2021-07-04T08:46:54Z</time>
      </trkpt>
      <trkpt lat="47.32336" lon="-0.5275">
        <ele>94.2</ele>
        <time>2021-07-04T08:47:03Z</time>
      </trkpt>
      <trkpt lat="47.32334" lon="-0.52745">
        <ele>94.4</ele>
        <time>2021-07-04T08:47:05Z</time>
      </trkpt>
      <trkpt lat="47.3233" lon="-0.52718">
        <ele>94.8</ele>
        <time>2021-07-04T08:47:20Z</time>
      </trkpt>
      <trkpt lat="47.32329" lon="-0.52705">
        <ele>94.8</ele>
        <time>2021-07-04T08:47:22Z</time>
      </trkpt>
      <trkpt lat="47.32329" lon="-0.52633">
        <ele>94.6</ele>
        <time>2021-07-04T08:47:52Z</time>
      </trkpt>
      <trkpt lat="47.32332" lon="-0.52623">
        <ele>94.6</ele>
        <time>2021-07-04T08:47:54Z</time>
      </trkpt>
      <trkpt lat="47.32332" lon="-0.52612">
        <ele>94.6</ele>
        <time>2021-07-04T08:47:56Z</time>
      </trkpt>
      <trkpt lat="47.32332" lon="-0.52601">
        <ele>94.4</ele>
        <time>2021-07-04T08:47:58Z</time>
      </trkpt>
      <trkpt lat="47.32331" lon="-0.52595">
        <ele>94.4</ele>
        <time>2021-07-04T08:47:59Z</time>
      </trkpt>
      <trkpt lat="47.32331" lon="-0.52591">
        <ele>94.6</ele>
        <time>2021-07-04T08:48:00Z</time>
      </trkpt>
      <trkpt lat="47.32329" lon="-0.52581">
        <ele>94.8</ele>
        <time>2021-07-04T08:48:02Z</time>
      </trkpt>
      <trkpt lat="47.32327" lon="-0.52569">
        <ele>95</ele>
        <time>2021-07-04T08:48:04Z</time>
      </trkpt>
      <trkpt lat="47.32326" lon="-0.52563">
        <ele>95</ele>
        <time>2021-07-04T08:48:05Z</time>
      </trkpt>
      <trkpt lat="47.32325" lon="-0.52557">
        <ele>95</ele>
        <time>2021-07-04T08:48:06Z</time>
      </trkpt>
      <trkpt lat="47.32324" lon="-0.52551">
        <ele>95</ele>
        <time>2021-07-04T08:48:07Z</time>
      </trkpt>
      <trkpt lat="47.32323" lon="-0.52545">
        <ele>95</ele>
        <time>2021-07-04T08:48:08Z</time>
      </trkpt>
      <trkpt lat="47.32321" lon="-0.52534">
        <ele>95</ele>
        <time>2021-07-04T08:48:10Z</time>
      </trkpt>
      <trkpt lat="47.3232" lon="-0.52523">
        <ele>94.8</ele>
        <time>2021-07-04T08:48:12Z</time>
      </trkpt>
      <trkpt lat="47.32318" lon="-0.52509">
        <ele>94.8</ele>
        <time>2021-07-04T08:48:14Z</time>
      </trkpt>
      <trkpt lat="47.32317" lon="-0.52501">
        <ele>94.8</ele>
        <time>2021-07-04T08:48:15Z</time>
      </trkpt>
      <trkpt lat="47.32315" lon="-0.52494">
        <ele>95</ele>
        <time>2021-07-04T08:48:16Z</time>
      </trkpt>
      <trkpt lat="47.32313" lon="-0.52485">
        <ele>94.8</ele>
        <time>2021-07-04T08:48:17Z</time>
      </trkpt>
      <trkpt lat="47.32312" lon="-0.52477">
        <ele>94.8</ele>
        <time>2021-07-04T08:48:18Z</time>
      </trkpt>
      <trkpt lat="47.32309" lon="-0.52462">
        <ele>94.4</ele>
        <time>2021-07-04T08:48:20Z</time>
      </trkpt>
      <trkpt lat="47.32307" lon="-0.52454">
        <ele>94.4</ele>
        <time>2021-07-04T08:48:21Z</time>
      </trkpt>
      <trkpt lat="47.32305" lon="-0.52447">
        <ele>94.4</ele>
        <time>2021-07-04T08:48:22Z</time>
      </trkpt>
      <trkpt lat="47.32304" lon="-0.52437">
        <ele>94.6</ele>
        <time>2021-07-04T08:48:24Z</time>
      </trkpt>
      <trkpt lat="47.32302" lon="-0.52432">
        <ele>95</ele>
        <time>2021-07-04T08:48:26Z</time>
      </trkpt>
      <trkpt lat="47.32301" lon="-0.5243">
        <ele>95.2</ele>
        <time>2021-07-04T08:48:27Z</time>
      </trkpt>
      <trkpt lat="47.32301" lon="-0.52427">
        <ele>95.4</ele>
        <time>2021-07-04T08:48:28Z</time>
      </trkpt>
      <trkpt lat="47.323" lon="-0.52424">
        <ele>95.4</ele>
        <time>2021-07-04T08:48:29Z</time>
      </trkpt>
      <trkpt lat="47.323" lon="-0.52422">
        <ele>95.2</ele>
        <time>2021-07-04T08:48:30Z</time>
      </trkpt>
      <trkpt lat="47.32299" lon="-0.52417">
        <ele>94.8</ele>
        <time>2021-07-04T08:48:32Z</time>
      </trkpt>
      <trkpt lat="47.32298" lon="-0.52414">
        <ele>94.8</ele>
        <time>2021-07-04T08:48:33Z</time>
      </trkpt>
      <trkpt lat="47.32297" lon="-0.52411">
        <ele>94.8</ele>
        <time>2021-07-04T08:48:34Z</time>
      </trkpt>
      <trkpt lat="47.32296" lon="-0.52407">
        <ele>94.8</ele>
        <time>2021-07-04T08:48:36Z</time>
      </trkpt>
      <trkpt lat="47.32295" lon="-0.52405">
        <ele>94.8</ele>
        <time>2021-07-04T08:48:38Z</time>
      </trkpt>
      <trkpt lat="47.32295" lon="-0.52399">
        <ele>94.8</ele>
        <time>2021-07-04T08:48:40Z</time>
      </trkpt>
      <trkpt lat="47.32297" lon="-0.52393">
        <ele>94.6</ele>
        <time>2021-07-04T08:48:42Z</time>
      </trkpt>
      <trkpt lat="47.32299" lon="-0.52387">
        <ele>94.4</ele>
        <time>2021-07-04T08:48:44Z</time>
      </trkpt>
      <trkpt lat="47.32301" lon="-0.52382">
        <ele>94.4</ele>
        <time>2021-07-04T08:48:46Z</time>
      </trkpt>
      <trkpt lat="47.32304" lon="-0.52377">
        <ele>94.6</ele>
        <time>2021-07-04T08:48:48Z</time>
      </trkpt>
      <trkpt lat="47.32302" lon="-0.52371">
        <ele>95</ele>
        <time>2021-07-04T08:49:07Z</time>
      </trkpt>
      <trkpt lat="47.32301" lon="-0.52371">
        <ele>94.8</ele>
        <time>2021-07-04T08:49:08Z</time>
      </trkpt>
      <trkpt lat="47.32297" lon="-0.52366">
        <ele>94.4</ele>
        <time>2021-07-04T08:49:09Z</time>
      </trkpt>
      <trkpt lat="47.32292" lon="-0.52361">
        <ele>94.4</ele>
        <time>2021-07-04T08:49:10Z</time>
      </trkpt>
      <trkpt lat="47.32286" lon="-0.52354">
        <ele>94</ele>
        <time>2021-07-04T08:49:11Z</time>
      </trkpt>
      <trkpt lat="47.32281" lon="-0.52348">
        <ele>93.8</ele>
        <time>2021-07-04T08:49:12Z</time>
      </trkpt>
      <trkpt lat="47.32276" lon="-0.52343">
        <ele>93.6</ele>
        <time>2021-07-04T08:49:13Z</time>
      </trkpt>
      <trkpt lat="47.3227" lon="-0.52336">
        <ele>93.6</ele>
        <time>2021-07-04T08:49:14Z</time>
      </trkpt>
      <trkpt lat="47.32257" lon="-0.52325">
        <ele>93.2</ele>
        <time>2021-07-04T08:49:16Z</time>
      </trkpt>
      <trkpt lat="47.32251" lon="-0.52319">
        <ele>93.2</ele>
        <time>2021-07-04T08:49:17Z</time>
      </trkpt>
      <trkpt lat="47.32244" lon="-0.52314">
        <ele>93</ele>
        <time>2021-07-04T08:49:18Z</time>
      </trkpt>
      <trkpt lat="47.32231" lon="-0.52303">
        <ele>92.4</ele>
        <time>2021-07-04T08:49:20Z</time>
      </trkpt>
      <trkpt lat="47.32224" lon="-0.52298">
        <ele>92</ele>
        <time>2021-07-04T08:49:21Z</time>
      </trkpt>
      <trkpt lat="47.32217" lon="-0.52293">
        <ele>91.6</ele>
        <time>2021-07-04T08:49:22Z</time>
      </trkpt>
      <trkpt lat="47.32203" lon="-0.52284">
        <ele>91.4</ele>
        <time>2021-07-04T08:49:24Z</time>
      </trkpt>
      <trkpt lat="47.32189" lon="-0.52276">
        <ele>91.4</ele>
        <time>2021-07-04T08:49:26Z</time>
      </trkpt>
      <trkpt lat="47.32182" lon="-0.5227">
        <ele>91.6</ele>
        <time>2021-07-04T08:49:27Z</time>
      </trkpt>
      <trkpt lat="47.32174" lon="-0.52263">
        <ele>91.8</ele>
        <time>2021-07-04T08:49:28Z</time>
      </trkpt>
      <trkpt lat="47.32161" lon="-0.52251">
        <ele>92</ele>
        <time>2021-07-04T08:49:30Z</time>
      </trkpt>
      <trkpt lat="47.32147" lon="-0.52241">
        <ele>92</ele>
        <time>2021-07-04T08:49:32Z</time>
      </trkpt>
      <trkpt lat="47.32133" lon="-0.52231">
        <ele>91.6</ele>
        <time>2021-07-04T08:49:34Z</time>
      </trkpt>
      <trkpt lat="47.32119" lon="-0.52221">
        <ele>91.4</ele>
        <time>2021-07-04T08:49:36Z</time>
      </trkpt>
      <trkpt lat="47.32113" lon="-0.52216">
        <ele>91.4</ele>
        <time>2021-07-04T08:49:37Z</time>
      </trkpt>
      <trkpt lat="47.32106" lon="-0.52212">
        <ele>91.4</ele>
        <time>2021-07-04T08:49:38Z</time>
      </trkpt>
      <trkpt lat="47.32094" lon="-0.52205">
        <ele>90.8</ele>
        <time>2021-07-04T08:49:40Z</time>
      </trkpt>
      <trkpt lat="47.32082" lon="-0.52199">
        <ele>90.4</ele>
        <time>2021-07-04T08:49:42Z</time>
      </trkpt>
      <trkpt lat="47.32072" lon="-0.52193">
        <ele>90.8</ele>
        <time>2021-07-04T08:49:44Z</time>
      </trkpt>
      <trkpt lat="47.32063" lon="-0.5219">
        <ele>91.2</ele>
        <time>2021-07-04T08:49:46Z</time>
      </trkpt>
      <trkpt lat="47.32056" lon="-0.52187">
        <ele>91.4</ele>
        <time>2021-07-04T08:49:48Z</time>
      </trkpt>
      <trkpt lat="47.32049" lon="-0.52183">
        <ele>91.2</ele>
        <time>2021-07-04T08:49:50Z</time>
      </trkpt>
      <trkpt lat="47.32042" lon="-0.5218">
        <ele>91.4</ele>
        <time>2021-07-04T08:49:52Z</time>
      </trkpt>
      <trkpt lat="47.32034" lon="-0.52176">
        <ele>91.4</ele>
        <time>2021-07-04T08:49:54Z</time>
      </trkpt>
      <trkpt lat="47.32025" lon="-0.52173">
        <ele>91</ele>
        <time>2021-07-04T08:49:56Z</time>
      </trkpt>
      <trkpt lat="47.32017" lon="-0.52169">
        <ele>90.6</ele>
        <time>2021-07-04T08:49:58Z</time>
      </trkpt>
      <trkpt lat="47.32008" lon="-0.52166">
        <ele>90.2</ele>
        <time>2021-07-04T08:50:00Z</time>
      </trkpt>
      <trkpt lat="47.32005" lon="-0.52165">
        <ele>90.2</ele>
        <time>2021-07-04T08:50:01Z</time>
      </trkpt>
      <trkpt lat="47.32001" lon="-0.52165">
        <ele>90.4</ele>
        <time>2021-07-04T08:50:02Z</time>
      </trkpt>
      <trkpt lat="47.31992" lon="-0.5216">
        <ele>90.6</ele>
        <time>2021-07-04T08:50:04Z</time>
      </trkpt>
      <trkpt lat="47.31987" lon="-0.52157">
        <ele>90.6</ele>
        <time>2021-07-04T08:50:05Z</time>
      </trkpt>
      <trkpt lat="47.31981" lon="-0.52154">
        <ele>90.8</ele>
        <time>2021-07-04T08:50:06Z</time>
      </trkpt>
      <trkpt lat="47.3197" lon="-0.5215">
        <ele>91</ele>
        <time>2021-07-04T08:50:08Z</time>
      </trkpt>
      <trkpt lat="47.31959" lon="-0.52145">
        <ele>91.2</ele>
        <time>2021-07-04T08:50:10Z</time>
      </trkpt>
      <trkpt lat="47.31954" lon="-0.52143">
        <ele>91.2</ele>
        <time>2021-07-04T08:50:11Z</time>
      </trkpt>
      <trkpt lat="47.31948" lon="-0.5214">
        <ele>91.2</ele>
        <time>2021-07-04T08:50:12Z</time>
      </trkpt>
      <trkpt lat="47.31938" lon="-0.52134">
        <ele>91.2</ele>
        <time>2021-07-04T08:50:14Z</time>
      </trkpt>
      <trkpt lat="47.31927" lon="-0.5213">
        <ele>91.6</ele>
        <time>2021-07-04T08:50:16Z</time>
      </trkpt>
      <trkpt lat="47.31922" lon="-0.52128">
        <ele>91.8</ele>
        <time>2021-07-04T08:50:17Z</time>
      </trkpt>
      <trkpt lat="47.31917" lon="-0.52126">
        <ele>91.8</ele>
        <time>2021-07-04T08:50:18Z</time>
      </trkpt>
      <trkpt lat="47.31912" lon="-0.52124">
        <ele>91.8</ele>
        <time>2021-07-04T08:50:19Z</time>
      </trkpt>
      <trkpt lat="47.31907" lon="-0.52122">
        <ele>92</ele>
        <time>2021-07-04T08:50:20Z</time>
      </trkpt>
      <trkpt lat="47.31902" lon="-0.5212">
        <ele>92.2</ele>
        <time>2021-07-04T08:50:21Z</time>
      </trkpt>
      <trkpt lat="47.31897" lon="-0.52118">
        <ele>92</ele>
        <time>2021-07-04T08:50:22Z</time>
      </trkpt>
      <trkpt lat="47.31886" lon="-0.52115">
        <ele>91.8</ele>
        <time>2021-07-04T08:50:24Z</time>
      </trkpt>
      <trkpt lat="47.31876" lon="-0.52112">
        <ele>92.2</ele>
        <time>2021-07-04T08:50:26Z</time>
      </trkpt>
      <trkpt lat="47.31871" lon="-0.52111">
        <ele>92.4</ele>
        <time>2021-07-04T08:50:27Z</time>
      </trkpt>
      <trkpt lat="47.31867" lon="-0.52109">
        <ele>92.6</ele>
        <time>2021-07-04T08:50:28Z</time>
      </trkpt>
      <trkpt lat="47.31862" lon="-0.52107">
        <ele>92.8</ele>
        <time>2021-07-04T08:50:29Z</time>
      </trkpt>
      <trkpt lat="47.31856" lon="-0.52105">
        <ele>93.2</ele>
        <time>2021-07-04T08:50:30Z</time>
      </trkpt>
      <trkpt lat="47.31846" lon="-0.52098">
        <ele>93.8</ele>
        <time>2021-07-04T08:50:32Z</time>
      </trkpt>
      <trkpt lat="47.31842" lon="-0.52096">
        <ele>94</ele>
        <time>2021-07-04T08:50:33Z</time>
      </trkpt>
      <trkpt lat="47.31838" lon="-0.52093">
        <ele>94.2</ele>
        <time>2021-07-04T08:50:34Z</time>
      </trkpt>
      <trkpt lat="47.31827" lon="-0.52087">
        <ele>94.2</ele>
        <time>2021-07-04T08:50:36Z</time>
      </trkpt>
      <trkpt lat="47.31817" lon="-0.52081">
        <ele>94.4</ele>
        <time>2021-07-04T08:50:38Z</time>
      </trkpt>
      <trkpt lat="47.31807" lon="-0.52075">
        <ele>94.8</ele>
        <time>2021-07-04T08:50:40Z</time>
      </trkpt>
      <trkpt lat="47.31797" lon="-0.52069">
        <ele>94.6</ele>
        <time>2021-07-04T08:50:42Z</time>
      </trkpt>
      <trkpt lat="47.31787" lon="-0.52064">
        <ele>94.6</ele>
        <time>2021-07-04T08:50:44Z</time>
      </trkpt>
      <trkpt lat="47.31778" lon="-0.52057">
        <ele>94.8</ele>
        <time>2021-07-04T08:50:46Z</time>
      </trkpt>
      <trkpt lat="47.31773" lon="-0.52054">
        <ele>95.2</ele>
        <time>2021-07-04T08:50:47Z</time>
      </trkpt>
      <trkpt lat="47.31768" lon="-0.52051">
        <ele>95.8</ele>
        <time>2021-07-04T08:50:48Z</time>
      </trkpt>
      <trkpt lat="47.31758" lon="-0.52044">
        <ele>96.2</ele>
        <time>2021-07-04T08:50:50Z</time>
      </trkpt>
      <trkpt lat="47.31749" lon="-0.52035">
        <ele>95.8</ele>
        <time>2021-07-04T08:50:52Z</time>
      </trkpt>
      <trkpt lat="47.31739" lon="-0.52027">
        <ele>95.4</ele>
        <time>2021-07-04T08:50:54Z</time>
      </trkpt>
      <trkpt lat="47.3173" lon="-0.52019">
        <ele>95.4</ele>
        <time>2021-07-04T08:50:56Z</time>
      </trkpt>
      <trkpt lat="47.3172" lon="-0.52013">
        <ele>95.6</ele>
        <time>2021-07-04T08:50:58Z</time>
      </trkpt>
      <trkpt lat="47.31711" lon="-0.52007">
        <ele>95.6</ele>
        <time>2021-07-04T08:51:00Z</time>
      </trkpt>
      <trkpt lat="47.31702" lon="-0.52003">
        <ele>96</ele>
        <time>2021-07-04T08:51:02Z</time>
      </trkpt>
      <trkpt lat="47.31698" lon="-0.52001">
        <ele>96.4</ele>
        <time>2021-07-04T08:51:03Z</time>
      </trkpt>
      <trkpt lat="47.31693" lon="-0.51997">
        <ele>96.4</ele>
        <time>2021-07-04T08:51:04Z</time>
      </trkpt>
      <trkpt lat="47.31685" lon="-0.51991">
        <ele>96.4</ele>
        <time>2021-07-04T08:51:06Z</time>
      </trkpt>
      <trkpt lat="47.31676" lon="-0.51985">
        <ele>96.2</ele>
        <time>2021-07-04T08:51:08Z</time>
      </trkpt>
      <trkpt lat="47.31671" lon="-0.51982">
        <ele>96</ele>
        <time>2021-07-04T08:51:09Z</time>
      </trkpt>
      <trkpt lat="47.31666" lon="-0.51978">
        <ele>96.2</ele>
        <time>2021-07-04T08:51:10Z</time>
      </trkpt>
      <trkpt lat="47.31659" lon="-0.51971">
        <ele>97</ele>
        <time>2021-07-04T08:51:12Z</time>
      </trkpt>
      <trkpt lat="47.31657" lon="-0.51966">
        <ele>97</ele>
        <time>2021-07-04T08:51:13Z</time>
      </trkpt>
      <trkpt lat="47.31656" lon="-0.51963">
        <ele>96.8</ele>
        <time>2021-07-04T08:51:14Z</time>
      </trkpt>
      <trkpt lat="47.31659" lon="-0.51955">
        <ele>96.8</ele>
        <time>2021-07-04T08:51:16Z</time>
      </trkpt>
      <trkpt lat="47.3166" lon="-0.51945">
        <ele>96.8</ele>
        <time>2021-07-04T08:51:18Z</time>
      </trkpt>
      <trkpt lat="47.31665" lon="-0.51933">
        <ele>96.8</ele>
        <time>2021-07-04T08:51:20Z</time>
      </trkpt>
      <trkpt lat="47.31671" lon="-0.51921">
        <ele>97</ele>
        <time>2021-07-04T08:51:22Z</time>
      </trkpt>
      <trkpt lat="47.31674" lon="-0.51915">
        <ele>97.2</ele>
        <time>2021-07-04T08:51:23Z</time>
      </trkpt>
      <trkpt lat="47.31678" lon="-0.51909">
        <ele>97</ele>
        <time>2021-07-04T08:51:24Z</time>
      </trkpt>
      <trkpt lat="47.31685" lon="-0.51896">
        <ele>96.6</ele>
        <time>2021-07-04T08:51:26Z</time>
      </trkpt>
      <trkpt lat="47.31692" lon="-0.51884">
        <ele>96.6</ele>
        <time>2021-07-04T08:51:28Z</time>
      </trkpt>
      <trkpt lat="47.317" lon="-0.51872">
        <ele>96.6</ele>
        <time>2021-07-04T08:51:30Z</time>
      </trkpt>
      <trkpt lat="47.31709" lon="-0.51859">
        <ele>96.2</ele>
        <time>2021-07-04T08:51:32Z</time>
      </trkpt>
      <trkpt lat="47.31717" lon="-0.51847">
        <ele>95.4</ele>
        <time>2021-07-04T08:51:34Z</time>
      </trkpt>
      <trkpt lat="47.31725" lon="-0.51835">
        <ele>95.6</ele>
        <time>2021-07-04T08:51:36Z</time>
      </trkpt>
      <trkpt lat="47.31733" lon="-0.51824">
        <ele>96.2</ele>
        <time>2021-07-04T08:51:38Z</time>
      </trkpt>
      <trkpt lat="47.31741" lon="-0.51814">
        <ele>96.8</ele>
        <time>2021-07-04T08:51:40Z</time>
      </trkpt>
      <trkpt lat="47.31746" lon="-0.5181">
        <ele>96.8</ele>
        <time>2021-07-04T08:51:41Z</time>
      </trkpt>
      <trkpt lat="47.31751" lon="-0.51806">
        <ele>96.8</ele>
        <time>2021-07-04T08:51:42Z</time>
      </trkpt>
      <trkpt lat="47.3176" lon="-0.51799">
        <ele>97.2</ele>
        <time>2021-07-04T08:51:44Z</time>
      </trkpt>
      <trkpt lat="47.3177" lon="-0.51792">
        <ele>96.8</ele>
        <time>2021-07-04T08:51:46Z</time>
      </trkpt>
      <trkpt lat="47.31776" lon="-0.51788">
        <ele>96.6</ele>
        <time>2021-07-04T08:51:47Z</time>
      </trkpt>
      <trkpt lat="47.31781" lon="-0.51784">
        <ele>96.2</ele>
        <time>2021-07-04T08:51:48Z</time>
      </trkpt>
      <trkpt lat="47.31793" lon="-0.51776">
        <ele>95.4</ele>
        <time>2021-07-04T08:51:50Z</time>
      </trkpt>
      <trkpt lat="47.31798" lon="-0.51772">
        <ele>95</ele>
        <time>2021-07-04T08:51:51Z</time>
      </trkpt>
      <trkpt lat="47.31804" lon="-0.51769">
        <ele>94.6</ele>
        <time>2021-07-04T08:51:52Z</time>
      </trkpt>
      <trkpt lat="47.31816" lon="-0.51763">
        <ele>94.4</ele>
        <time>2021-07-04T08:51:54Z</time>
      </trkpt>
      <trkpt lat="47.31822" lon="-0.51759">
        <ele>94.6</ele>
        <time>2021-07-04T08:51:55Z</time>
      </trkpt>
      <trkpt lat="47.31828" lon="-0.51756">
        <ele>94.6</ele>
        <time>2021-07-04T08:51:56Z</time>
      </trkpt>
      <trkpt lat="47.31841" lon="-0.51748">
        <ele>94.2</ele>
        <time>2021-07-04T08:51:58Z</time>
      </trkpt>
      <trkpt lat="47.31855" lon="-0.5174">
        <ele>94.2</ele>
        <time>2021-07-04T08:52:00Z</time>
      </trkpt>
      <trkpt lat="47.31863" lon="-0.51736">
        <ele>93.8</ele>
        <time>2021-07-04T08:52:01Z</time>
      </trkpt>
      <trkpt lat="47.31869" lon="-0.51732">
        <ele>93.4</ele>
        <time>2021-07-04T08:52:02Z</time>
      </trkpt>
      <trkpt lat="47.31876" lon="-0.51727">
        <ele>93.2</ele>
        <time>2021-07-04T08:52:03Z</time>
      </trkpt>
      <trkpt lat="47.31883" lon="-0.51721">
        <ele>93.2</ele>
        <time>2021-07-04T08:52:04Z</time>
      </trkpt>
      <trkpt lat="47.31888" lon="-0.51713">
        <ele>93.4</ele>
        <time>2021-07-04T08:52:05Z</time>
      </trkpt>
      <trkpt lat="47.31893" lon="-0.51705">
        <ele>93.4</ele>
        <time>2021-07-04T08:52:06Z</time>
      </trkpt>
      <trkpt lat="47.31897" lon="-0.51696">
        <ele>94</ele>
        <time>2021-07-04T08:52:07Z</time>
      </trkpt>
      <trkpt lat="47.319" lon="-0.51687">
        <ele>94</ele>
        <time>2021-07-04T08:52:08Z</time>
      </trkpt>
      <trkpt lat="47.31902" lon="-0.51678">
        <ele>93.8</ele>
        <time>2021-07-04T08:52:09Z</time>
      </trkpt>
      <trkpt lat="47.31904" lon="-0.51668">
        <ele>93.2</ele>
        <time>2021-07-04T08:52:10Z</time>
      </trkpt>
      <trkpt lat="47.31907" lon="-0.51648">
        <ele>93.6</ele>
        <time>2021-07-04T08:52:12Z</time>
      </trkpt>
      <trkpt lat="47.31907" lon="-0.51628">
        <ele>93.6</ele>
        <time>2021-07-04T08:52:14Z</time>
      </trkpt>
      <trkpt lat="47.31906" lon="-0.51619">
        <ele>93.4</ele>
        <time>2021-07-04T08:52:15Z</time>
      </trkpt>
      <trkpt lat="47.31904" lon="-0.51609">
        <ele>93.2</ele>
        <time>2021-07-04T08:52:16Z</time>
      </trkpt>
      <trkpt lat="47.31901" lon="-0.51591">
        <ele>93.4</ele>
        <time>2021-07-04T08:52:18Z</time>
      </trkpt>
      <trkpt lat="47.31897" lon="-0.51573">
        <ele>93.2</ele>
        <time>2021-07-04T08:52:20Z</time>
      </trkpt>
      <trkpt lat="47.31895" lon="-0.51564">
        <ele>92.6</ele>
        <time>2021-07-04T08:52:21Z</time>
      </trkpt>
      <trkpt lat="47.31892" lon="-0.51556">
        <ele>92.6</ele>
        <time>2021-07-04T08:52:22Z</time>
      </trkpt>
      <trkpt lat="47.31888" lon="-0.51538">
        <ele>93</ele>
        <time>2021-07-04T08:52:24Z</time>
      </trkpt>
      <trkpt lat="47.31885" lon="-0.51519">
        <ele>93.6</ele>
        <time>2021-07-04T08:52:26Z</time>
      </trkpt>
      <trkpt lat="47.31882" lon="-0.51501">
        <ele>93.4</ele>
        <time>2021-07-04T08:52:28Z</time>
      </trkpt>
      <trkpt lat="47.3188" lon="-0.51491">
        <ele>93.2</ele>
        <time>2021-07-04T08:52:29Z</time>
      </trkpt>
      <trkpt lat="47.31879" lon="-0.51481">
        <ele>93.2</ele>
        <time>2021-07-04T08:52:30Z</time>
      </trkpt>
      <trkpt lat="47.31877" lon="-0.51461">
        <ele>93.4</ele>
        <time>2021-07-04T08:52:32Z</time>
      </trkpt>
      <trkpt lat="47.31875" lon="-0.51441">
        <ele>93.4</ele>
        <time>2021-07-04T08:52:34Z</time>
      </trkpt>
      <trkpt lat="47.31874" lon="-0.51431">
        <ele>93.2</ele>
        <time>2021-07-04T08:52:35Z</time>
      </trkpt>
      <trkpt lat="47.31873" lon="-0.5142">
        <ele>92.8</ele>
        <time>2021-07-04T08:52:36Z</time>
      </trkpt>
      <trkpt lat="47.31871" lon="-0.51399">
        <ele>92.6</ele>
        <time>2021-07-04T08:52:38Z</time>
      </trkpt>
      <trkpt lat="47.31868" lon="-0.51379">
        <ele>92</ele>
        <time>2021-07-04T08:52:40Z</time>
      </trkpt>
      <trkpt lat="47.31865" lon="-0.51359">
        <ele>92</ele>
        <time>2021-07-04T08:52:42Z</time>
      </trkpt>
      <trkpt lat="47.31865" lon="-0.5135">
        <ele>92.2</ele>
        <time>2021-07-04T08:52:43Z</time>
      </trkpt>
      <trkpt lat="47.31865" lon="-0.5134">
        <ele>92.4</ele>
        <time>2021-07-04T08:52:44Z</time>
      </trkpt>
      <trkpt lat="47.31865" lon="-0.51321">
        <ele>93</ele>
        <time>2021-07-04T08:52:46Z</time>
      </trkpt>
      <trkpt lat="47.31867" lon="-0.51302">
        <ele>93.8</ele>
        <time>2021-07-04T08:52:48Z</time>
      </trkpt>
      <trkpt lat="47.31873" lon="-0.51286">
        <ele>94.4</ele>
        <time>2021-07-04T08:52:50Z</time>
      </trkpt>
      <trkpt lat="47.31878" lon="-0.5128">
        <ele>94.4</ele>
        <time>2021-07-04T08:52:51Z</time>
      </trkpt>
      <trkpt lat="47.31883" lon="-0.51275">
        <ele>94.2</ele>
        <time>2021-07-04T08:52:52Z</time>
      </trkpt>
      <trkpt lat="47.31895" lon="-0.51266">
        <ele>94.2</ele>
        <time>2021-07-04T08:52:54Z</time>
      </trkpt>
      <trkpt lat="47.31907" lon="-0.51258">
        <ele>94.2</ele>
        <time>2021-07-04T08:52:56Z</time>
      </trkpt>
      <trkpt lat="47.31919" lon="-0.51251">
        <ele>94.2</ele>
        <time>2021-07-04T08:52:58Z</time>
      </trkpt>
      <trkpt lat="47.31925" lon="-0.51248">
        <ele>94.2</ele>
        <time>2021-07-04T08:52:59Z</time>
      </trkpt>
      <trkpt lat="47.31932" lon="-0.51246">
        <ele>94.2</ele>
        <time>2021-07-04T08:53:00Z</time>
      </trkpt>
      <trkpt lat="47.31945" lon="-0.51245">
        <ele>94.6</ele>
        <time>2021-07-04T08:53:02Z</time>
      </trkpt>
      <trkpt lat="47.31959" lon="-0.51245">
        <ele>94.2</ele>
        <time>2021-07-04T08:53:04Z</time>
      </trkpt>
      <trkpt lat="47.31974" lon="-0.51243">
        <ele>93</ele>
        <time>2021-07-04T08:53:06Z</time>
      </trkpt>
      <trkpt lat="47.31981" lon="-0.51241">
        <ele>92.4</ele>
        <time>2021-07-04T08:53:07Z</time>
      </trkpt>
      <trkpt lat="47.31988" lon="-0.51237">
        <ele>92.2</ele>
        <time>2021-07-04T08:53:08Z</time>
      </trkpt>
      <trkpt lat="47.32001" lon="-0.51229">
        <ele>92</ele>
        <time>2021-07-04T08:53:10Z</time>
      </trkpt>
      <trkpt lat="47.32014" lon="-0.51222">
        <ele>91.6</ele>
        <time>2021-07-04T08:53:12Z</time>
      </trkpt>
      <trkpt lat="47.32021" lon="-0.51218">
        <ele>91.4</ele>
        <time>2021-07-04T08:53:13Z</time>
      </trkpt>
      <trkpt lat="47.32028" lon="-0.51214">
        <ele>91.2</ele>
        <time>2021-07-04T08:53:14Z</time>
      </trkpt>
      <trkpt lat="47.32034" lon="-0.5121">
        <ele>91.2</ele>
        <time>2021-07-04T08:53:15Z</time>
      </trkpt>
      <trkpt lat="47.3204" lon="-0.51207">
        <ele>90.8</ele>
        <time>2021-07-04T08:53:16Z</time>
      </trkpt>
      <trkpt lat="47.32052" lon="-0.51202">
        <ele>90.8</ele>
        <time>2021-07-04T08:53:18Z</time>
      </trkpt>
      <trkpt lat="47.32057" lon="-0.51201">
        <ele>91.2</ele>
        <time>2021-07-04T08:53:19Z</time>
      </trkpt>
      <trkpt lat="47.32061" lon="-0.512">
        <ele>91.6</ele>
        <time>2021-07-04T08:53:20Z</time>
      </trkpt>
      <trkpt lat="47.32065" lon="-0.51197">
        <ele>91.8</ele>
        <time>2021-07-04T08:53:22Z</time>
      </trkpt>
      <trkpt lat="47.32068" lon="-0.51195">
        <ele>93</ele>
        <time>2021-07-04T08:53:45Z</time>
      </trkpt>
      <trkpt lat="47.32073" lon="-0.51192">
        <ele>91.6</ele>
        <time>2021-07-04T08:53:47Z</time>
      </trkpt>
      <trkpt lat="47.32076" lon="-0.51191">
        <ele>91.4</ele>
        <time>2021-07-04T08:53:48Z</time>
      </trkpt>
      <trkpt lat="47.32079" lon="-0.51189">
        <ele>91</ele>
        <time>2021-07-04T08:53:49Z</time>
      </trkpt>
      <trkpt lat="47.32087" lon="-0.51186">
        <ele>91.2</ele>
        <time>2021-07-04T08:53:51Z</time>
      </trkpt>
      <trkpt lat="47.32096" lon="-0.51183">
        <ele>91</ele>
        <time>2021-07-04T08:53:53Z</time>
      </trkpt>
      <trkpt lat="47.32104" lon="-0.51183">
        <ele>90.8</ele>
        <time>2021-07-04T08:53:55Z</time>
      </trkpt>
      <trkpt lat="47.32112" lon="-0.51185">
        <ele>90.4</ele>
        <time>2021-07-04T08:53:57Z</time>
      </trkpt>
      <trkpt lat="47.32116" lon="-0.51186">
        <ele>90.2</ele>
        <time>2021-07-04T08:53:58Z</time>
      </trkpt>
      <trkpt lat="47.3212" lon="-0.51188">
        <ele>89.8</ele>
        <time>2021-07-04T08:53:59Z</time>
      </trkpt>
      <trkpt lat="47.3213" lon="-0.51193">
        <ele>88.8</ele>
        <time>2021-07-04T08:54:01Z</time>
      </trkpt>
      <trkpt lat="47.32141" lon="-0.51198">
        <ele>88</ele>
        <time>2021-07-04T08:54:03Z</time>
      </trkpt>
      <trkpt lat="47.32146" lon="-0.512">
        <ele>87.6</ele>
        <time>2021-07-04T08:54:04Z</time>
      </trkpt>
      <trkpt lat="47.32151" lon="-0.51201">
        <ele>87.6</ele>
        <time>2021-07-04T08:54:05Z</time>
      </trkpt>
      <trkpt lat="47.32162" lon="-0.51206">
        <ele>87</ele>
        <time>2021-07-04T08:54:07Z</time>
      </trkpt>
      <trkpt lat="47.32172" lon="-0.51212">
        <ele>87</ele>
        <time>2021-07-04T08:54:09Z</time>
      </trkpt>
      <trkpt lat="47.32182" lon="-0.51217">
        <ele>87.2</ele>
        <time>2021-07-04T08:54:11Z</time>
      </trkpt>
      <trkpt lat="47.32191" lon="-0.51222">
        <ele>86.4</ele>
        <time>2021-07-04T08:54:13Z</time>
      </trkpt>
      <trkpt lat="47.32197" lon="-0.51225">
        <ele>86.4</ele>
        <time>2021-07-04T08:54:14Z</time>
      </trkpt>
      <trkpt lat="47.32203" lon="-0.51229">
        <ele>86.4</ele>
        <time>2021-07-04T08:54:15Z</time>
      </trkpt>
      <trkpt lat="47.32213" lon="-0.51236">
        <ele>86.6</ele>
        <time>2021-07-04T08:54:17Z</time>
      </trkpt>
      <trkpt lat="47.32224" lon="-0.51242">
        <ele>86.6</ele>
        <time>2021-07-04T08:54:19Z</time>
      </trkpt>
      <trkpt lat="47.32228" lon="-0.51245">
        <ele>86.4</ele>
        <time>2021-07-04T08:54:20Z</time>
      </trkpt>
      <trkpt lat="47.32233" lon="-0.51248">
        <ele>86</ele>
        <time>2021-07-04T08:54:21Z</time>
      </trkpt>
      <trkpt lat="47.32244" lon="-0.51254">
        <ele>86</ele>
        <time>2021-07-04T08:54:23Z</time>
      </trkpt>
      <trkpt lat="47.32255" lon="-0.51261">
        <ele>85.8</ele>
        <time>2021-07-04T08:54:25Z</time>
      </trkpt>
      <trkpt lat="47.32261" lon="-0.51264">
        <ele>85.2</ele>
        <time>2021-07-04T08:54:26Z</time>
      </trkpt>
      <trkpt lat="47.32267" lon="-0.51266">
        <ele>84.6</ele>
        <time>2021-07-04T08:54:27Z</time>
      </trkpt>
      <trkpt lat="47.32272" lon="-0.5127">
        <ele>84.2</ele>
        <time>2021-07-04T08:54:28Z</time>
      </trkpt>
      <trkpt lat="47.32278" lon="-0.51274">
        <ele>83.8</ele>
        <time>2021-07-04T08:54:29Z</time>
      </trkpt>
      <trkpt lat="47.32288" lon="-0.51281">
        <ele>83.8</ele>
        <time>2021-07-04T08:54:31Z</time>
      </trkpt>
      <trkpt lat="47.32299" lon="-0.51287">
        <ele>84.2</ele>
        <time>2021-07-04T08:54:33Z</time>
      </trkpt>
      <trkpt lat="47.32305" lon="-0.51289">
        <ele>84.4</ele>
        <time>2021-07-04T08:54:34Z</time>
      </trkpt>
      <trkpt lat="47.32311" lon="-0.51289">
        <ele>84.2</ele>
        <time>2021-07-04T08:54:35Z</time>
      </trkpt>
      <trkpt lat="47.32316" lon="-0.51286">
        <ele>84.4</ele>
        <time>2021-07-04T08:54:36Z</time>
      </trkpt>
      <trkpt lat="47.3232" lon="-0.51282">
        <ele>84.2</ele>
        <time>2021-07-04T08:54:37Z</time>
      </trkpt>
      <trkpt lat="47.32325" lon="-0.51277">
        <ele>84.4</ele>
        <time>2021-07-04T08:54:38Z</time>
      </trkpt>
      <trkpt lat="47.3233" lon="-0.51272">
        <ele>84</ele>
        <time>2021-07-04T08:54:39Z</time>
      </trkpt>
      <trkpt lat="47.32334" lon="-0.51267">
        <ele>84</ele>
        <time>2021-07-04T08:54:40Z</time>
      </trkpt>
      <trkpt lat="47.32339" lon="-0.51262">
        <ele>83.8</ele>
        <time>2021-07-04T08:54:41Z</time>
      </trkpt>
      <trkpt lat="47.32349" lon="-0.51253">
        <ele>83.8</ele>
        <time>2021-07-04T08:54:43Z</time>
      </trkpt>
      <trkpt lat="47.3236" lon="-0.51243">
        <ele>84.2</ele>
        <time>2021-07-04T08:54:45Z</time>
      </trkpt>
      <trkpt lat="47.3237" lon="-0.51232">
        <ele>84</ele>
        <time>2021-07-04T08:54:47Z</time>
      </trkpt>
      <trkpt lat="47.32376" lon="-0.51228">
        <ele>83.6</ele>
        <time>2021-07-04T08:54:48Z</time>
      </trkpt>
      <trkpt lat="47.32382" lon="-0.51225">
        <ele>83.8</ele>
        <time>2021-07-04T08:54:49Z</time>
      </trkpt>
      <trkpt lat="47.32392" lon="-0.51221">
        <ele>84.4</ele>
        <time>2021-07-04T08:54:51Z</time>
      </trkpt>
      <trkpt lat="47.32397" lon="-0.51219">
        <ele>84.6</ele>
        <time>2021-07-04T08:54:52Z</time>
      </trkpt>
      <trkpt lat="47.32402" lon="-0.51217">
        <ele>84.6</ele>
        <time>2021-07-04T08:54:53Z</time>
      </trkpt>
      <trkpt lat="47.32412" lon="-0.51214">
        <ele>85.2</ele>
        <time>2021-07-04T08:54:55Z</time>
      </trkpt>
      <trkpt lat="47.32417" lon="-0.51212">
        <ele>85.4</ele>
        <time>2021-07-04T08:54:56Z</time>
      </trkpt>
      <trkpt lat="47.32422" lon="-0.5121">
        <ele>85.6</ele>
        <time>2021-07-04T08:54:57Z</time>
      </trkpt>
      <trkpt lat="47.32432" lon="-0.51206">
        <ele>85.2</ele>
        <time>2021-07-04T08:54:59Z</time>
      </trkpt>
      <trkpt lat="47.32442" lon="-0.51203">
        <ele>85.8</ele>
        <time>2021-07-04T08:55:01Z</time>
      </trkpt>
      <trkpt lat="47.32452" lon="-0.512">
        <ele>85.8</ele>
        <time>2021-07-04T08:55:03Z</time>
      </trkpt>
      <trkpt lat="47.32457" lon="-0.51198">
        <ele>86</ele>
        <time>2021-07-04T08:55:04Z</time>
      </trkpt>
      <trkpt lat="47.32463" lon="-0.51196">
        <ele>86</ele>
        <time>2021-07-04T08:55:05Z</time>
      </trkpt>
      <trkpt lat="47.32473" lon="-0.51193">
        <ele>86.4</ele>
        <time>2021-07-04T08:55:07Z</time>
      </trkpt>
      <trkpt lat="47.32484" lon="-0.51189">
        <ele>86.4</ele>
        <time>2021-07-04T08:55:09Z</time>
      </trkpt>
      <trkpt lat="47.32494" lon="-0.51186">
        <ele>86.4</ele>
        <time>2021-07-04T08:55:11Z</time>
      </trkpt>
      <trkpt lat="47.32505" lon="-0.51182">
        <ele>86</ele>
        <time>2021-07-04T08:55:13Z</time>
      </trkpt>
      <trkpt lat="47.32515" lon="-0.51178">
        <ele>86.6</ele>
        <time>2021-07-04T08:55:15Z</time>
      </trkpt>
      <trkpt lat="47.32525" lon="-0.51174">
        <ele>87.4</ele>
        <time>2021-07-04T08:55:17Z</time>
      </trkpt>
      <trkpt lat="47.3253" lon="-0.51172">
        <ele>87</ele>
        <time>2021-07-04T08:55:18Z</time>
      </trkpt>
      <trkpt lat="47.32535" lon="-0.51171">
        <ele>86.8</ele>
        <time>2021-07-04T08:55:19Z</time>
      </trkpt>
      <trkpt lat="47.32545" lon="-0.51167">
        <ele>86.8</ele>
        <time>2021-07-04T08:55:21Z</time>
      </trkpt>
      <trkpt lat="47.32554" lon="-0.51164">
        <ele>87.2</ele>
        <time>2021-07-04T08:55:23Z</time>
      </trkpt>
      <trkpt lat="47.32559" lon="-0.51162">
        <ele>87.4</ele>
        <time>2021-07-04T08:55:24Z</time>
      </trkpt>
      <trkpt lat="47.32564" lon="-0.5116">
        <ele>87.4</ele>
        <time>2021-07-04T08:55:25Z</time>
      </trkpt>
      <trkpt lat="47.32568" lon="-0.51158">
        <ele>87.6</ele>
        <time>2021-07-04T08:55:26Z</time>
      </trkpt>
      <trkpt lat="47.32573" lon="-0.51156">
        <ele>87.6</ele>
        <time>2021-07-04T08:55:27Z</time>
      </trkpt>
      <trkpt lat="47.32581" lon="-0.51151">
        <ele>87.6</ele>
        <time>2021-07-04T08:55:29Z</time>
      </trkpt>
      <trkpt lat="47.3259" lon="-0.51146">
        <ele>88.4</ele>
        <time>2021-07-04T08:55:31Z</time>
      </trkpt>
      <trkpt lat="47.32595" lon="-0.51144">
        <ele>88.4</ele>
        <time>2021-07-04T08:55:32Z</time>
      </trkpt>
      <trkpt lat="47.32599" lon="-0.51141">
        <ele>88.4</ele>
        <time>2021-07-04T08:55:33Z</time>
      </trkpt>
      <trkpt lat="47.32603" lon="-0.51138">
        <ele>88.6</ele>
        <time>2021-07-04T08:55:34Z</time>
      </trkpt>
      <trkpt lat="47.32608" lon="-0.51135">
        <ele>88.8</ele>
        <time>2021-07-04T08:55:35Z</time>
      </trkpt>
      <trkpt lat="47.32616" lon="-0.5113">
        <ele>88.8</ele>
        <time>2021-07-04T08:55:37Z</time>
      </trkpt>
      <trkpt lat="47.32624" lon="-0.51125">
        <ele>89</ele>
        <time>2021-07-04T08:55:39Z</time>
      </trkpt>
      <trkpt lat="47.32632" lon="-0.51119">
        <ele>89.2</ele>
        <time>2021-07-04T08:55:41Z</time>
      </trkpt>
      <trkpt lat="47.32639" lon="-0.51115">
        <ele>89.4</ele>
        <time>2021-07-04T08:55:43Z</time>
      </trkpt>
      <trkpt lat="47.32643" lon="-0.51112">
        <ele>89.4</ele>
        <time>2021-07-04T08:55:45Z</time>
      </trkpt>
      <trkpt lat="47.32647" lon="-0.51108">
        <ele>89.6</ele>
        <time>2021-07-04T08:55:47Z</time>
      </trkpt>
      <trkpt lat="47.32653" lon="-0.51103">
        <ele>89.6</ele>
        <time>2021-07-04T08:55:49Z</time>
      </trkpt>
      <trkpt lat="47.32656" lon="-0.51099">
        <ele>89.6</ele>
        <time>2021-07-04T08:55:50Z</time>
      </trkpt>
      <trkpt lat="47.3266" lon="-0.51096">
        <ele>89.4</ele>
        <time>2021-07-04T08:55:51Z</time>
      </trkpt>
      <trkpt lat="47.32669" lon="-0.51087">
        <ele>88.8</ele>
        <time>2021-07-04T08:55:53Z</time>
      </trkpt>
      <trkpt lat="47.32673" lon="-0.51082">
        <ele>88.4</ele>
        <time>2021-07-04T08:55:54Z</time>
      </trkpt>
      <trkpt lat="47.32678" lon="-0.51078">
        <ele>88.8</ele>
        <time>2021-07-04T08:55:55Z</time>
      </trkpt>
      <trkpt lat="47.32687" lon="-0.51068">
        <ele>88.8</ele>
        <time>2021-07-04T08:55:57Z</time>
      </trkpt>
      <trkpt lat="47.32696" lon="-0.51058">
        <ele>88.4</ele>
        <time>2021-07-04T08:55:59Z</time>
      </trkpt>
      <trkpt lat="47.32705" lon="-0.51047">
        <ele>88.6</ele>
        <time>2021-07-04T08:56:01Z</time>
      </trkpt>
      <trkpt lat="47.32714" lon="-0.51036">
        <ele>88.6</ele>
        <time>2021-07-04T08:56:03Z</time>
      </trkpt>
      <trkpt lat="47.32723" lon="-0.51024">
        <ele>88.4</ele>
        <time>2021-07-04T08:56:05Z</time>
      </trkpt>
      <trkpt lat="47.32732" lon="-0.51012">
        <ele>89</ele>
        <time>2021-07-04T08:56:07Z</time>
      </trkpt>
      <trkpt lat="47.32741" lon="-0.51001">
        <ele>89.4</ele>
        <time>2021-07-04T08:56:09Z</time>
      </trkpt>
      <trkpt lat="47.32746" lon="-0.50995">
        <ele>89.6</ele>
        <time>2021-07-04T08:56:10Z</time>
      </trkpt>
      <trkpt lat="47.3275" lon="-0.50989">
        <ele>89.8</ele>
        <time>2021-07-04T08:56:11Z</time>
      </trkpt>
      <trkpt lat="47.32759" lon="-0.50977">
        <ele>89</ele>
        <time>2021-07-04T08:56:13Z</time>
      </trkpt>
      <trkpt lat="47.32768" lon="-0.50966">
        <ele>89</ele>
        <time>2021-07-04T08:56:15Z</time>
      </trkpt>
      <trkpt lat="47.32775" lon="-0.50955">
        <ele>89</ele>
        <time>2021-07-04T08:56:17Z</time>
      </trkpt>
      <trkpt lat="47.32779" lon="-0.5095">
        <ele>89.2</ele>
        <time>2021-07-04T08:56:18Z</time>
      </trkpt>
      <trkpt lat="47.32784" lon="-0.50944">
        <ele>89.2</ele>
        <time>2021-07-04T08:56:19Z</time>
      </trkpt>
      <trkpt lat="47.32792" lon="-0.50933">
        <ele>89.2</ele>
        <time>2021-07-04T08:56:21Z</time>
      </trkpt>
      <trkpt lat="47.32801" lon="-0.50922">
        <ele>89.2</ele>
        <time>2021-07-04T08:56:23Z</time>
      </trkpt>
      <trkpt lat="47.3281" lon="-0.50909">
        <ele>89.4</ele>
        <time>2021-07-04T08:56:25Z</time>
      </trkpt>
      <trkpt lat="47.32819" lon="-0.50896">
        <ele>89</ele>
        <time>2021-07-04T08:56:27Z</time>
      </trkpt>
      <trkpt lat="47.32829" lon="-0.50883">
        <ele>88.4</ele>
        <time>2021-07-04T08:56:29Z</time>
      </trkpt>
      <trkpt lat="47.32839" lon="-0.50871">
        <ele>88</ele>
        <time>2021-07-04T08:56:31Z</time>
      </trkpt>
      <trkpt lat="47.3285" lon="-0.50859">
        <ele>87.6</ele>
        <time>2021-07-04T08:56:33Z</time>
      </trkpt>
      <trkpt lat="47.32862" lon="-0.50848">
        <ele>87.6</ele>
        <time>2021-07-04T08:56:35Z</time>
      </trkpt>
      <trkpt lat="47.32873" lon="-0.50835">
        <ele>87.4</ele>
        <time>2021-07-04T08:56:37Z</time>
      </trkpt>
      <trkpt lat="47.32878" lon="-0.50828">
        <ele>87</ele>
        <time>2021-07-04T08:56:38Z</time>
      </trkpt>
      <trkpt lat="47.32883" lon="-0.50822">
        <ele>86.6</ele>
        <time>2021-07-04T08:56:39Z</time>
      </trkpt>
      <trkpt lat="47.32892" lon="-0.50809">
        <ele>86.4</ele>
        <time>2021-07-04T08:56:41Z</time>
      </trkpt>
      <trkpt lat="47.32904" lon="-0.50796">
        <ele>86.4</ele>
        <time>2021-07-04T08:56:43Z</time>
      </trkpt>
      <trkpt lat="47.3291" lon="-0.50789">
        <ele>86.2</ele>
        <time>2021-07-04T08:56:44Z</time>
      </trkpt>
      <trkpt lat="47.32916" lon="-0.50783">
        <ele>86</ele>
        <time>2021-07-04T08:56:45Z</time>
      </trkpt>
      <trkpt lat="47.32928" lon="-0.50771">
        <ele>85.6</ele>
        <time>2021-07-04T08:56:47Z</time>
      </trkpt>
      <trkpt lat="47.3294" lon="-0.5076">
        <ele>85</ele>
        <time>2021-07-04T08:56:49Z</time>
      </trkpt>
      <trkpt lat="47.32946" lon="-0.50755">
        <ele>84.6</ele>
        <time>2021-07-04T08:56:50Z</time>
      </trkpt>
      <trkpt lat="47.32952" lon="-0.50751">
        <ele>84.4</ele>
        <time>2021-07-04T08:56:51Z</time>
      </trkpt>
      <trkpt lat="47.32965" lon="-0.50742">
        <ele>84.2</ele>
        <time>2021-07-04T08:56:53Z</time>
      </trkpt>
      <trkpt lat="47.32978" lon="-0.50734">
        <ele>83.8</ele>
        <time>2021-07-04T08:56:55Z</time>
      </trkpt>
      <trkpt lat="47.32985" lon="-0.50729">
        <ele>83.8</ele>
        <time>2021-07-04T08:56:56Z</time>
      </trkpt>
      <trkpt lat="47.32992" lon="-0.50724">
        <ele>83.4</ele>
        <time>2021-07-04T08:56:57Z</time>
      </trkpt>
      <trkpt lat="47.33006" lon="-0.50716">
        <ele>83</ele>
        <time>2021-07-04T08:56:59Z</time>
      </trkpt>
      <trkpt lat="47.33014" lon="-0.50711">
        <ele>82.6</ele>
        <time>2021-07-04T08:57:00Z</time>
      </trkpt>
      <trkpt lat="47.33021" lon="-0.50707">
        <ele>82.2</ele>
        <time>2021-07-04T08:57:01Z</time>
      </trkpt>
      <trkpt lat="47.33035" lon="-0.50699">
        <ele>82</ele>
        <time>2021-07-04T08:57:03Z</time>
      </trkpt>
      <trkpt lat="47.33042" lon="-0.50695">
        <ele>81.8</ele>
        <time>2021-07-04T08:57:04Z</time>
      </trkpt>
      <trkpt lat="47.33049" lon="-0.50691">
        <ele>81.6</ele>
        <time>2021-07-04T08:57:05Z</time>
      </trkpt>
      <trkpt lat="47.33063" lon="-0.50684">
        <ele>81.4</ele>
        <time>2021-07-04T08:57:07Z</time>
      </trkpt>
      <trkpt lat="47.3307" lon="-0.50681">
        <ele>81.4</ele>
        <time>2021-07-04T08:57:08Z</time>
      </trkpt>
      <trkpt lat="47.33078" lon="-0.50677">
        <ele>81</ele>
        <time>2021-07-04T08:57:09Z</time>
      </trkpt>
      <trkpt lat="47.33085" lon="-0.50674">
        <ele>80</ele>
        <time>2021-07-04T08:57:10Z</time>
      </trkpt>
      <trkpt lat="47.33092" lon="-0.5067">
        <ele>80</ele>
        <time>2021-07-04T08:57:11Z</time>
      </trkpt>
      <trkpt lat="47.33098" lon="-0.50666">
        <ele>80.4</ele>
        <time>2021-07-04T08:57:12Z</time>
      </trkpt>
      <trkpt lat="47.33104" lon="-0.5066">
        <ele>80.6</ele>
        <time>2021-07-04T08:57:13Z</time>
      </trkpt>
      <trkpt lat="47.33115" lon="-0.50649">
        <ele>80.4</ele>
        <time>2021-07-04T08:57:15Z</time>
      </trkpt>
      <trkpt lat="47.33126" lon="-0.50646">
        <ele>80.6</ele>
        <time>2021-07-04T08:57:17Z</time>
      </trkpt>
      <trkpt lat="47.33131" lon="-0.50647">
        <ele>80.6</ele>
        <time>2021-07-04T08:57:18Z</time>
      </trkpt>
      <trkpt lat="47.33137" lon="-0.50651">
        <ele>80.2</ele>
        <time>2021-07-04T08:57:19Z</time>
      </trkpt>
      <trkpt lat="47.33143" lon="-0.50655">
        <ele>79.6</ele>
        <time>2021-07-04T08:57:20Z</time>
      </trkpt>
      <trkpt lat="47.3315" lon="-0.5066">
        <ele>79.2</ele>
        <time>2021-07-04T08:57:21Z</time>
      </trkpt>
      <trkpt lat="47.33156" lon="-0.50665">
        <ele>78.8</ele>
        <time>2021-07-04T08:57:22Z</time>
      </trkpt>
      <trkpt lat="47.33162" lon="-0.5067">
        <ele>78.8</ele>
        <time>2021-07-04T08:57:23Z</time>
      </trkpt>
      <trkpt lat="47.33175" lon="-0.50682">
        <ele>78.2</ele>
        <time>2021-07-04T08:57:25Z</time>
      </trkpt>
      <trkpt lat="47.33181" lon="-0.50688">
        <ele>77.6</ele>
        <time>2021-07-04T08:57:26Z</time>
      </trkpt>
      <trkpt lat="47.33187" lon="-0.50694">
        <ele>77.4</ele>
        <time>2021-07-04T08:57:27Z</time>
      </trkpt>
      <trkpt lat="47.33194" lon="-0.50701">
        <ele>76.6</ele>
        <time>2021-07-04T08:57:28Z</time>
      </trkpt>
      <trkpt lat="47.332" lon="-0.50709">
        <ele>76.4</ele>
        <time>2021-07-04T08:57:29Z</time>
      </trkpt>
      <trkpt lat="47.33206" lon="-0.50717">
        <ele>75.6</ele>
        <time>2021-07-04T08:57:30Z</time>
      </trkpt>
      <trkpt lat="47.33211" lon="-0.50725">
        <ele>75.6</ele>
        <time>2021-07-04T08:57:31Z</time>
      </trkpt>
      <trkpt lat="47.33224" lon="-0.5074">
        <ele>75.2</ele>
        <time>2021-07-04T08:57:33Z</time>
      </trkpt>
      <trkpt lat="47.33231" lon="-0.50746">
        <ele>73.2</ele>
        <time>2021-07-04T08:57:34Z</time>
      </trkpt>
      <trkpt lat="47.33238" lon="-0.5075">
        <ele>72.4</ele>
        <time>2021-07-04T08:57:35Z</time>
      </trkpt>
      <trkpt lat="47.33245" lon="-0.50751">
        <ele>71.8</ele>
        <time>2021-07-04T08:57:36Z</time>
      </trkpt>
      <trkpt lat="47.33253" lon="-0.50752">
        <ele>71.6</ele>
        <time>2021-07-04T08:57:37Z</time>
      </trkpt>
      <trkpt lat="47.33267" lon="-0.50754">
        <ele>72.6</ele>
        <time>2021-07-04T08:57:39Z</time>
      </trkpt>
      <trkpt lat="47.33273" lon="-0.50758">
        <ele>73</ele>
        <time>2021-07-04T08:57:40Z</time>
      </trkpt>
      <trkpt lat="47.33279" lon="-0.50762">
        <ele>72.8</ele>
        <time>2021-07-04T08:57:41Z</time>
      </trkpt>
      <trkpt lat="47.3329" lon="-0.50773">
        <ele>72.4</ele>
        <time>2021-07-04T08:57:43Z</time>
      </trkpt>
      <trkpt lat="47.33295" lon="-0.50779">
        <ele>72.6</ele>
        <time>2021-07-04T08:57:44Z</time>
      </trkpt>
      <trkpt lat="47.33298" lon="-0.50785">
        <ele>72.6</ele>
        <time>2021-07-04T08:57:45Z</time>
      </trkpt>
      <trkpt lat="47.33306" lon="-0.50794">
        <ele>72.6</ele>
        <time>2021-07-04T08:57:47Z</time>
      </trkpt>
      <trkpt lat="47.33316" lon="-0.508">
        <ele>72.4</ele>
        <time>2021-07-04T08:57:49Z</time>
      </trkpt>
      <trkpt lat="47.33328" lon="-0.50799">
        <ele>72.4</ele>
        <time>2021-07-04T08:57:51Z</time>
      </trkpt>
      <trkpt lat="47.33335" lon="-0.50798">
        <ele>72.2</ele>
        <time>2021-07-04T08:57:52Z</time>
      </trkpt>
      <trkpt lat="47.33342" lon="-0.50797">
        <ele>72.2</ele>
        <time>2021-07-04T08:57:53Z</time>
      </trkpt>
      <trkpt lat="47.33357" lon="-0.50794">
        <ele>72.4</ele>
        <time>2021-07-04T08:57:55Z</time>
      </trkpt>
      <trkpt lat="47.33369" lon="-0.50794">
        <ele>73.2</ele>
        <time>2021-07-04T08:57:57Z</time>
      </trkpt>
      <trkpt lat="47.33375" lon="-0.50794">
        <ele>74.4</ele>
        <time>2021-07-04T08:57:58Z</time>
      </trkpt>
      <trkpt lat="47.3338" lon="-0.50794">
        <ele>74.8</ele>
        <time>2021-07-04T08:57:59Z</time>
      </trkpt>
      <trkpt lat="47.3339" lon="-0.50792">
        <ele>75.2</ele>
        <time>2021-07-04T08:58:01Z</time>
      </trkpt>
      <trkpt lat="47.33401" lon="-0.50786">
        <ele>75</ele>
        <time>2021-07-04T08:58:03Z</time>
      </trkpt>
      <trkpt lat="47.33406" lon="-0.50782">
        <ele>74.8</ele>
        <time>2021-07-04T08:58:04Z</time>
      </trkpt>
      <trkpt lat="47.33411" lon="-0.50777">
        <ele>74.6</ele>
        <time>2021-07-04T08:58:05Z</time>
      </trkpt>
      <trkpt lat="47.33421" lon="-0.50764">
        <ele>74.6</ele>
        <time>2021-07-04T08:58:07Z</time>
      </trkpt>
      <trkpt lat="47.33432" lon="-0.50751">
        <ele>74</ele>
        <time>2021-07-04T08:58:09Z</time>
      </trkpt>
      <trkpt lat="47.33443" lon="-0.50737">
        <ele>72.8</ele>
        <time>2021-07-04T08:58:11Z</time>
      </trkpt>
      <trkpt lat="47.33456" lon="-0.50723">
        <ele>71.2</ele>
        <time>2021-07-04T08:58:13Z</time>
      </trkpt>
      <trkpt lat="47.33468" lon="-0.50709">
        <ele>69.8</ele>
        <time>2021-07-04T08:58:15Z</time>
      </trkpt>
      <trkpt lat="47.33478" lon="-0.50698">
        <ele>69.4</ele>
        <time>2021-07-04T08:58:17Z</time>
      </trkpt>
      <trkpt lat="47.33482" lon="-0.50696">
        <ele>69.4</ele>
        <time>2021-07-04T08:58:18Z</time>
      </trkpt>
      <trkpt lat="47.33486" lon="-0.50697">
        <ele>69.8</ele>
        <time>2021-07-04T08:58:19Z</time>
      </trkpt>
      <trkpt lat="47.33492" lon="-0.50706">
        <ele>70.4</ele>
        <time>2021-07-04T08:58:21Z</time>
      </trkpt>
      <trkpt lat="47.33495" lon="-0.50717">
        <ele>70.8</ele>
        <time>2021-07-04T08:58:23Z</time>
      </trkpt>
      <trkpt lat="47.33498" lon="-0.50727">
        <ele>71.6</ele>
        <time>2021-07-04T08:58:25Z</time>
      </trkpt>
      <trkpt lat="47.335" lon="-0.50731">
        <ele>72</ele>
        <time>2021-07-04T08:58:26Z</time>
      </trkpt>
      <trkpt lat="47.33503" lon="-0.50733">
        <ele>72.6</ele>
        <time>2021-07-04T08:58:27Z</time>
      </trkpt>
      <trkpt lat="47.33506" lon="-0.50732">
        <ele>73</ele>
        <time>2021-07-04T08:58:28Z</time>
      </trkpt>
      <trkpt lat="47.3351" lon="-0.5073">
        <ele>73</ele>
        <time>2021-07-04T08:58:29Z</time>
      </trkpt>
      <trkpt lat="47.33518" lon="-0.50721">
        <ele>72.4</ele>
        <time>2021-07-04T08:58:31Z</time>
      </trkpt>
      <trkpt lat="47.33522" lon="-0.50714">
        <ele>71.8</ele>
        <time>2021-07-04T08:58:32Z</time>
      </trkpt>
      <trkpt lat="47.33527" lon="-0.50708">
        <ele>71.2</ele>
        <time>2021-07-04T08:58:33Z</time>
      </trkpt>
      <trkpt lat="47.33531" lon="-0.50701">
        <ele>70.4</ele>
        <time>2021-07-04T08:58:34Z</time>
      </trkpt>
      <trkpt lat="47.33536" lon="-0.50693">
        <ele>69.8</ele>
        <time>2021-07-04T08:58:35Z</time>
      </trkpt>
      <trkpt lat="47.3354" lon="-0.50685">
        <ele>69.2</ele>
        <time>2021-07-04T08:58:36Z</time>
      </trkpt>
      <trkpt lat="47.33545" lon="-0.50677">
        <ele>69.2</ele>
        <time>2021-07-04T08:58:37Z</time>
      </trkpt>
      <trkpt lat="47.33554" lon="-0.5066">
        <ele>68</ele>
        <time>2021-07-04T08:58:39Z</time>
      </trkpt>
      <trkpt lat="47.33559" lon="-0.50651">
        <ele>66.8</ele>
        <time>2021-07-04T08:58:40Z</time>
      </trkpt>
      <trkpt lat="47.33564" lon="-0.50641">
        <ele>65.8</ele>
        <time>2021-07-04T08:58:41Z</time>
      </trkpt>
      <trkpt lat="47.3357" lon="-0.50632">
        <ele>65.4</ele>
        <time>2021-07-04T08:58:42Z</time>
      </trkpt>
      <trkpt lat="47.33576" lon="-0.50623">
        <ele>64.6</ele>
        <time>2021-07-04T08:58:43Z</time>
      </trkpt>
      <trkpt lat="47.33582" lon="-0.50615">
        <ele>64.2</ele>
        <time>2021-07-04T08:58:44Z</time>
      </trkpt>
      <trkpt lat="47.33588" lon="-0.50606">
        <ele>63.4</ele>
        <time>2021-07-04T08:58:45Z</time>
      </trkpt>
      <trkpt lat="47.33594" lon="-0.50598">
        <ele>62.8</ele>
        <time>2021-07-04T08:58:46Z</time>
      </trkpt>
      <trkpt lat="47.33601" lon="-0.5059">
        <ele>62.4</ele>
        <time>2021-07-04T08:58:47Z</time>
      </trkpt>
      <trkpt lat="47.33612" lon="-0.50576">
        <ele>62.6</ele>
        <time>2021-07-04T08:58:49Z</time>
      </trkpt>
      <trkpt lat="47.33622" lon="-0.50561">
        <ele>63.8</ele>
        <time>2021-07-04T08:58:51Z</time>
      </trkpt>
      <trkpt lat="47.33626" lon="-0.50554">
        <ele>64.4</ele>
        <time>2021-07-04T08:58:52Z</time>
      </trkpt>
      <trkpt lat="47.33629" lon="-0.50548">
        <ele>64.6</ele>
        <time>2021-07-04T08:58:53Z</time>
      </trkpt>
      <trkpt lat="47.33636" lon="-0.50536">
        <ele>65.2</ele>
        <time>2021-07-04T08:58:55Z</time>
      </trkpt>
      <trkpt lat="47.33639" lon="-0.50532">
        <ele>66</ele>
        <time>2021-07-04T08:58:56Z</time>
      </trkpt>
      <trkpt lat="47.33642" lon="-0.5053">
        <ele>66.4</ele>
        <time>2021-07-04T08:58:57Z</time>
      </trkpt>
      <trkpt lat="47.33646" lon="-0.50531">
        <ele>67</ele>
        <time>2021-07-04T08:58:58Z</time>
      </trkpt>
      <trkpt lat="47.33648" lon="-0.50533">
        <ele>67.4</ele>
        <time>2021-07-04T08:58:59Z</time>
      </trkpt>
      <trkpt lat="47.33653" lon="-0.50542">
        <ele>67.4</ele>
        <time>2021-07-04T08:59:01Z</time>
      </trkpt>
      <trkpt lat="47.33658" lon="-0.50552">
        <ele>68</ele>
        <time>2021-07-04T08:59:03Z</time>
      </trkpt>
      <trkpt lat="47.33662" lon="-0.50561">
        <ele>68.8</ele>
        <time>2021-07-04T08:59:05Z</time>
      </trkpt>
      <trkpt lat="47.33666" lon="-0.50565">
        <ele>69.2</ele>
        <time>2021-07-04T08:59:06Z</time>
      </trkpt>
      <trkpt lat="47.33669" lon="-0.50569">
        <ele>69.6</ele>
        <time>2021-07-04T08:59:07Z</time>
      </trkpt>
      <trkpt lat="47.33674" lon="-0.50577">
        <ele>70.2</ele>
        <time>2021-07-04T08:59:09Z</time>
      </trkpt>
      <trkpt lat="47.33676" lon="-0.50581">
        <ele>70.6</ele>
        <time>2021-07-04T08:59:10Z</time>
      </trkpt>
      <trkpt lat="47.33678" lon="-0.50586">
        <ele>71</ele>
        <time>2021-07-04T08:59:11Z</time>
      </trkpt>
      <trkpt lat="47.3368" lon="-0.5059">
        <ele>71</ele>
        <time>2021-07-04T08:59:12Z</time>
      </trkpt>
      <trkpt lat="47.33682" lon="-0.50593">
        <ele>71.2</ele>
        <time>2021-07-04T08:59:13Z</time>
      </trkpt>
      <trkpt lat="47.33686" lon="-0.506">
        <ele>72</ele>
        <time>2021-07-04T08:59:15Z</time>
      </trkpt>
      <trkpt lat="47.33691" lon="-0.50607">
        <ele>73</ele>
        <time>2021-07-04T08:59:17Z</time>
      </trkpt>
      <trkpt lat="47.33693" lon="-0.50611">
        <ele>73.4</ele>
        <time>2021-07-04T08:59:18Z</time>
      </trkpt>
      <trkpt lat="47.33696" lon="-0.50614">
        <ele>73.4</ele>
        <time>2021-07-04T08:59:19Z</time>
      </trkpt>
      <trkpt lat="47.337" lon="-0.50621">
        <ele>73.4</ele>
        <time>2021-07-04T08:59:21Z</time>
      </trkpt>
      <trkpt lat="47.33705" lon="-0.50628">
        <ele>74.2</ele>
        <time>2021-07-04T08:59:23Z</time>
      </trkpt>
      <trkpt lat="47.33707" lon="-0.50632">
        <ele>74.8</ele>
        <time>2021-07-04T08:59:24Z</time>
      </trkpt>
      <trkpt lat="47.3371" lon="-0.50635">
        <ele>75.4</ele>
        <time>2021-07-04T08:59:25Z</time>
      </trkpt>
      <trkpt lat="47.33712" lon="-0.50639">
        <ele>76</ele>
        <time>2021-07-04T08:59:26Z</time>
      </trkpt>
      <trkpt lat="47.33715" lon="-0.50642">
        <ele>76.2</ele>
        <time>2021-07-04T08:59:27Z</time>
      </trkpt>
      <trkpt lat="47.33721" lon="-0.50648">
        <ele>76.6</ele>
        <time>2021-07-04T08:59:29Z</time>
      </trkpt>
      <trkpt lat="47.33727" lon="-0.50654">
        <ele>77.4</ele>
        <time>2021-07-04T08:59:31Z</time>
      </trkpt>
      <trkpt lat="47.33733" lon="-0.50661">
        <ele>77.8</ele>
        <time>2021-07-04T08:59:33Z</time>
      </trkpt>
      <trkpt lat="47.33739" lon="-0.50669">
        <ele>78</ele>
        <time>2021-07-04T08:59:35Z</time>
      </trkpt>
      <trkpt lat="47.33744" lon="-0.50678">
        <ele>78.2</ele>
        <time>2021-07-04T08:59:37Z</time>
      </trkpt>
      <trkpt lat="47.33749" lon="-0.50688">
        <ele>78.2</ele>
        <time>2021-07-04T08:59:39Z</time>
      </trkpt>
      <trkpt lat="47.33752" lon="-0.50699">
        <ele>78.4</ele>
        <time>2021-07-04T08:59:41Z</time>
      </trkpt>
      <trkpt lat="47.33755" lon="-0.50709">
        <ele>78.8</ele>
        <time>2021-07-04T08:59:43Z</time>
      </trkpt>
      <trkpt lat="47.33758" lon="-0.50719">
        <ele>79.2</ele>
        <time>2021-07-04T08:59:45Z</time>
      </trkpt>
      <trkpt lat="47.3376" lon="-0.50724">
        <ele>79.4</ele>
        <time>2021-07-04T08:59:46Z</time>
      </trkpt>
      <trkpt lat="47.33761" lon="-0.50729">
        <ele>79.8</ele>
        <time>2021-07-04T08:59:47Z</time>
      </trkpt>
      <trkpt lat="47.33763" lon="-0.5074">
        <ele>81</ele>
        <time>2021-07-04T08:59:49Z</time>
      </trkpt>
      <trkpt lat="47.33764" lon="-0.50752">
        <ele>81.2</ele>
        <time>2021-07-04T08:59:51Z</time>
      </trkpt>
      <trkpt lat="47.33763" lon="-0.50758">
        <ele>80.8</ele>
        <time>2021-07-04T08:59:52Z</time>
      </trkpt>
      <trkpt lat="47.33763" lon="-0.50764">
        <ele>79.8</ele>
        <time>2021-07-04T08:59:53Z</time>
      </trkpt>
      <trkpt lat="47.33762" lon="-0.5077">
        <ele>78.6</ele>
        <time>2021-07-04T08:59:54Z</time>
      </trkpt>
      <trkpt lat="47.33761" lon="-0.50776">
        <ele>77.8</ele>
        <time>2021-07-04T08:59:55Z</time>
      </trkpt>
      <trkpt lat="47.3376" lon="-0.50789">
        <ele>79.8</ele>
        <time>2021-07-04T08:59:57Z</time>
      </trkpt>
      <trkpt lat="47.3376" lon="-0.50796">
        <ele>81.2</ele>
        <time>2021-07-04T08:59:58Z</time>
      </trkpt>
      <trkpt lat="47.33759" lon="-0.50803">
        <ele>81.2</ele>
        <time>2021-07-04T08:59:59Z</time>
      </trkpt>
      <trkpt lat="47.33759" lon="-0.5081">
        <ele>81</ele>
        <time>2021-07-04T09:00:00Z</time>
      </trkpt>
      <trkpt lat="47.33759" lon="-0.50817">
        <ele>80.8</ele>
        <time>2021-07-04T09:00:01Z</time>
      </trkpt>
      <trkpt lat="47.3376" lon="-0.50824">
        <ele>81.2</ele>
        <time>2021-07-04T09:00:02Z</time>
      </trkpt>
      <trkpt lat="47.33761" lon="-0.50831">
        <ele>81.6</ele>
        <time>2021-07-04T09:00:03Z</time>
      </trkpt>
      <trkpt lat="47.33762" lon="-0.50838">
        <ele>82.2</ele>
        <time>2021-07-04T09:00:04Z</time>
      </trkpt>
      <trkpt lat="47.33763" lon="-0.50845">
        <ele>82.4</ele>
        <time>2021-07-04T09:00:05Z</time>
      </trkpt>
      <trkpt lat="47.33767" lon="-0.50859">
        <ele>82.6</ele>
        <time>2021-07-04T09:00:07Z</time>
      </trkpt>
      <trkpt lat="47.3377" lon="-0.50873">
        <ele>83</ele>
        <time>2021-07-04T09:00:09Z</time>
      </trkpt>
      <trkpt lat="47.33773" lon="-0.50887">
        <ele>83.2</ele>
        <time>2021-07-04T09:00:11Z</time>
      </trkpt>
      <trkpt lat="47.33777" lon="-0.50901">
        <ele>83.6</ele>
        <time>2021-07-04T09:00:13Z</time>
      </trkpt>
      <trkpt lat="47.3378" lon="-0.50915">
        <ele>84</ele>
        <time>2021-07-04T09:00:15Z</time>
      </trkpt>
      <trkpt lat="47.33783" lon="-0.50929">
        <ele>84</ele>
        <time>2021-07-04T09:00:17Z</time>
      </trkpt>
      <trkpt lat="47.33787" lon="-0.50942">
        <ele>84.2</ele>
        <time>2021-07-04T09:00:19Z</time>
      </trkpt>
      <trkpt lat="47.33791" lon="-0.50956">
        <ele>84.4</ele>
        <time>2021-07-04T09:00:21Z</time>
      </trkpt>
      <trkpt lat="47.33793" lon="-0.50963">
        <ele>85</ele>
        <time>2021-07-04T09:00:22Z</time>
      </trkpt>
      <trkpt lat="47.33794" lon="-0.5097">
        <ele>85.4</ele>
        <time>2021-07-04T09:00:23Z</time>
      </trkpt>
      <trkpt lat="47.33799" lon="-0.50985">
        <ele>85.8</ele>
        <time>2021-07-04T09:00:25Z</time>
      </trkpt>
      <trkpt lat="47.33804" lon="-0.50999">
        <ele>85.8</ele>
        <time>2021-07-04T09:00:27Z</time>
      </trkpt>
      <trkpt lat="47.33806" lon="-0.51005">
        <ele>85.8</ele>
        <time>2021-07-04T09:00:28Z</time>
      </trkpt>
      <trkpt lat="47.33809" lon="-0.51012">
        <ele>85.8</ele>
        <time>2021-07-04T09:00:29Z</time>
      </trkpt>
      <trkpt lat="47.33816" lon="-0.51026">
        <ele>86</ele>
        <time>2021-07-04T09:00:31Z</time>
      </trkpt>
      <trkpt lat="47.33819" lon="-0.51032">
        <ele>86.2</ele>
        <time>2021-07-04T09:00:32Z</time>
      </trkpt>
      <trkpt lat="47.33823" lon="-0.51039">
        <ele>86.2</ele>
        <time>2021-07-04T09:00:33Z</time>
      </trkpt>
      <trkpt lat="47.3383" lon="-0.51053">
        <ele>86.6</ele>
        <time>2021-07-04T09:00:35Z</time>
      </trkpt>
      <trkpt lat="47.33837" lon="-0.51066">
        <ele>86.8</ele>
        <time>2021-07-04T09:00:37Z</time>
      </trkpt>
      <trkpt lat="47.33844" lon="-0.51079">
        <ele>86.6</ele>
        <time>2021-07-04T09:00:39Z</time>
      </trkpt>
      <trkpt lat="47.33851" lon="-0.51093">
        <ele>86.6</ele>
        <time>2021-07-04T09:00:41Z</time>
      </trkpt>
      <trkpt lat="47.33858" lon="-0.51106">
        <ele>86.6</ele>
        <time>2021-07-04T09:00:43Z</time>
      </trkpt>
      <trkpt lat="47.33861" lon="-0.51112">
        <ele>87</ele>
        <time>2021-07-04T09:00:44Z</time>
      </trkpt>
      <trkpt lat="47.33865" lon="-0.51119">
        <ele>87</ele>
        <time>2021-07-04T09:00:45Z</time>
      </trkpt>
      <trkpt lat="47.33872" lon="-0.51132">
        <ele>87</ele>
        <time>2021-07-04T09:00:47Z</time>
      </trkpt>
      <trkpt lat="47.33878" lon="-0.51145">
        <ele>87.2</ele>
        <time>2021-07-04T09:00:49Z</time>
      </trkpt>
      <trkpt lat="47.33885" lon="-0.51158">
        <ele>87.6</ele>
        <time>2021-07-04T09:00:51Z</time>
      </trkpt>
      <trkpt lat="47.33892" lon="-0.51171">
        <ele>87.8</ele>
        <time>2021-07-04T09:00:53Z</time>
      </trkpt>
      <trkpt lat="47.33896" lon="-0.51177">
        <ele>87.8</ele>
        <time>2021-07-04T09:00:54Z</time>
      </trkpt>
      <trkpt lat="47.339" lon="-0.51183">
        <ele>87.8</ele>
        <time>2021-07-04T09:00:55Z</time>
      </trkpt>
      <trkpt lat="47.33907" lon="-0.51195">
        <ele>87.6</ele>
        <time>2021-07-04T09:00:57Z</time>
      </trkpt>
      <trkpt lat="47.33914" lon="-0.51208">
        <ele>87.8</ele>
        <time>2021-07-04T09:00:59Z</time>
      </trkpt>
      <trkpt lat="47.33921" lon="-0.5122">
        <ele>88.2</ele>
        <time>2021-07-04T09:01:01Z</time>
      </trkpt>
      <trkpt lat="47.33926" lon="-0.51224">
        <ele>88.2</ele>
        <time>2021-07-04T09:01:02Z</time>
      </trkpt>
      <trkpt lat="47.33931" lon="-0.51225">
        <ele>87.8</ele>
        <time>2021-07-04T09:01:03Z</time>
      </trkpt>
      <trkpt lat="47.33943" lon="-0.51223">
        <ele>87.4</ele>
        <time>2021-07-04T09:01:05Z</time>
      </trkpt>
      <trkpt lat="47.33948" lon="-0.51221">
        <ele>87.4</ele>
        <time>2021-07-04T09:01:06Z</time>
      </trkpt>
      <trkpt lat="47.33954" lon="-0.5122">
        <ele>87.4</ele>
        <time>2021-07-04T09:01:07Z</time>
      </trkpt>
      <trkpt lat="47.33966" lon="-0.51215">
        <ele>87.4</ele>
        <time>2021-07-04T09:01:09Z</time>
      </trkpt>
      <trkpt lat="47.33979" lon="-0.51208">
        <ele>86.2</ele>
        <time>2021-07-04T09:01:11Z</time>
      </trkpt>
      <trkpt lat="47.33992" lon="-0.51203">
        <ele>85.6</ele>
        <time>2021-07-04T09:01:13Z</time>
      </trkpt>
      <trkpt lat="47.33999" lon="-0.51201">
        <ele>85</ele>
        <time>2021-07-04T09:01:14Z</time>
      </trkpt>
      <trkpt lat="47.34006" lon="-0.51199">
        <ele>84.8</ele>
        <time>2021-07-04T09:01:15Z</time>
      </trkpt>
      <trkpt lat="47.34019" lon="-0.51195">
        <ele>84.8</ele>
        <time>2021-07-04T09:01:17Z</time>
      </trkpt>
      <trkpt lat="47.34032" lon="-0.51193">
        <ele>84.4</ele>
        <time>2021-07-04T09:01:19Z</time>
      </trkpt>
      <trkpt lat="47.34038" lon="-0.5119">
        <ele>84.2</ele>
        <time>2021-07-04T09:01:20Z</time>
      </trkpt>
      <trkpt lat="47.34043" lon="-0.51187">
        <ele>83.8</ele>
        <time>2021-07-04T09:01:21Z</time>
      </trkpt>
      <trkpt lat="47.34049" lon="-0.51182">
        <ele>82.8</ele>
        <time>2021-07-04T09:01:22Z</time>
      </trkpt>
      <trkpt lat="47.34053" lon="-0.51176">
        <ele>82.6</ele>
        <time>2021-07-04T09:01:23Z</time>
      </trkpt>
      <trkpt lat="47.34056" lon="-0.5116">
        <ele>83.2</ele>
        <time>2021-07-04T09:01:25Z</time>
      </trkpt>
      <trkpt lat="47.34058" lon="-0.51142">
        <ele>82.6</ele>
        <time>2021-07-04T09:01:27Z</time>
      </trkpt>
      <trkpt lat="47.3406" lon="-0.51134">
        <ele>82.2</ele>
        <time>2021-07-04T09:01:28Z</time>
      </trkpt>
      <trkpt lat="47.34062" lon="-0.51125">
        <ele>82</ele>
        <time>2021-07-04T09:01:29Z</time>
      </trkpt>
      <trkpt lat="47.34065" lon="-0.51117">
        <ele>81.8</ele>
        <time>2021-07-04T09:01:30Z</time>
      </trkpt>
      <trkpt lat="47.34068" lon="-0.51108">
        <ele>82.2</ele>
        <time>2021-07-04T09:01:31Z</time>
      </trkpt>
      <trkpt lat="47.34072" lon="-0.51089">
        <ele>81.6</ele>
        <time>2021-07-04T09:01:33Z</time>
      </trkpt>
      <trkpt lat="47.34075" lon="-0.5108">
        <ele>80</ele>
        <time>2021-07-04T09:01:34Z</time>
      </trkpt>
      <trkpt lat="47.34078" lon="-0.51073">
        <ele>79.8</ele>
        <time>2021-07-04T09:01:35Z</time>
      </trkpt>
      <trkpt lat="47.34084" lon="-0.5107">
        <ele>80.6</ele>
        <time>2021-07-04T09:01:37Z</time>
      </trkpt>
      <trkpt lat="47.34089" lon="-0.51074">
        <ele>81</ele>
        <time>2021-07-04T09:01:39Z</time>
      </trkpt>
      <trkpt lat="47.34091" lon="-0.51077">
        <ele>81.2</ele>
        <time>2021-07-04T09:01:40Z</time>
      </trkpt>
      <trkpt lat="47.34093" lon="-0.5108">
        <ele>80.8</ele>
        <time>2021-07-04T09:01:41Z</time>
      </trkpt>
      <trkpt lat="47.34099" lon="-0.51088">
        <ele>80.4</ele>
        <time>2021-07-04T09:01:43Z</time>
      </trkpt>
      <trkpt lat="47.34105" lon="-0.51097">
        <ele>80.4</ele>
        <time>2021-07-04T09:01:45Z</time>
      </trkpt>
      <trkpt lat="47.34108" lon="-0.51102">
        <ele>80.4</ele>
        <time>2021-07-04T09:01:46Z</time>
      </trkpt>
      <trkpt lat="47.34111" lon="-0.51106">
        <ele>80.4</ele>
        <time>2021-07-04T09:01:47Z</time>
      </trkpt>
      <trkpt lat="47.34117" lon="-0.51111">
        <ele>80.2</ele>
        <time>2021-07-04T09:01:49Z</time>
      </trkpt>
      <trkpt lat="47.3412" lon="-0.5111">
        <ele>80.4</ele>
        <time>2021-07-04T09:01:50Z</time>
      </trkpt>
      <trkpt lat="47.34123" lon="-0.51107">
        <ele>80.4</ele>
        <time>2021-07-04T09:01:51Z</time>
      </trkpt>
      <trkpt lat="47.34129" lon="-0.51098">
        <ele>79.6</ele>
        <time>2021-07-04T09:01:53Z</time>
      </trkpt>
      <trkpt lat="47.34132" lon="-0.51092">
        <ele>79.2</ele>
        <time>2021-07-04T09:01:54Z</time>
      </trkpt>
      <trkpt lat="47.34136" lon="-0.51086">
        <ele>78.8</ele>
        <time>2021-07-04T09:01:55Z</time>
      </trkpt>
      <trkpt lat="47.34144" lon="-0.51072">
        <ele>78</ele>
        <time>2021-07-04T09:01:57Z</time>
      </trkpt>
      <trkpt lat="47.34148" lon="-0.51065">
        <ele>76.8</ele>
        <time>2021-07-04T09:01:58Z</time>
      </trkpt>
      <trkpt lat="47.34153" lon="-0.51059">
        <ele>76.6</ele>
        <time>2021-07-04T09:01:59Z</time>
      </trkpt>
      <trkpt lat="47.34161" lon="-0.51044">
        <ele>76.2</ele>
        <time>2021-07-04T09:02:01Z</time>
      </trkpt>
      <trkpt lat="47.34168" lon="-0.51032">
        <ele>75.8</ele>
        <time>2021-07-04T09:02:03Z</time>
      </trkpt>
      <trkpt lat="47.34174" lon="-0.5102">
        <ele>76.2</ele>
        <time>2021-07-04T09:02:05Z</time>
      </trkpt>
      <trkpt lat="47.3418" lon="-0.51008">
        <ele>75.8</ele>
        <time>2021-07-04T09:02:07Z</time>
      </trkpt>
      <trkpt lat="47.34185" lon="-0.50996">
        <ele>75.2</ele>
        <time>2021-07-04T09:02:09Z</time>
      </trkpt>
      <trkpt lat="47.34189" lon="-0.50983">
        <ele>75.2</ele>
        <time>2021-07-04T09:02:11Z</time>
      </trkpt>
      <trkpt lat="47.34193" lon="-0.50972">
        <ele>75.2</ele>
        <time>2021-07-04T09:02:13Z</time>
      </trkpt>
      <trkpt lat="47.34195" lon="-0.50968">
        <ele>75.2</ele>
        <time>2021-07-04T09:02:14Z</time>
      </trkpt>
      <trkpt lat="47.34198" lon="-0.50965">
        <ele>74.8</ele>
        <time>2021-07-04T09:02:15Z</time>
      </trkpt>
      <trkpt lat="47.34204" lon="-0.50961">
        <ele>75</ele>
        <time>2021-07-04T09:02:17Z</time>
      </trkpt>
      <trkpt lat="47.34212" lon="-0.50961">
        <ele>75.2</ele>
        <time>2021-07-04T09:02:19Z</time>
      </trkpt>
      <trkpt lat="47.34221" lon="-0.50961">
        <ele>75.2</ele>
        <time>2021-07-04T09:02:21Z</time>
      </trkpt>
      <trkpt lat="47.3423" lon="-0.5096">
        <ele>74.8</ele>
        <time>2021-07-04T09:02:23Z</time>
      </trkpt>
      <trkpt lat="47.34235" lon="-0.5096">
        <ele>74.8</ele>
        <time>2021-07-04T09:02:24Z</time>
      </trkpt>
      <trkpt lat="47.3424" lon="-0.5096">
        <ele>74.6</ele>
        <time>2021-07-04T09:02:25Z</time>
      </trkpt>
      <trkpt lat="47.3425" lon="-0.50959">
        <ele>74.8</ele>
        <time>2021-07-04T09:02:27Z</time>
      </trkpt>
      <trkpt lat="47.34265" lon="-0.50958">
        <ele>75</ele>
        <time>2021-07-04T09:02:30Z</time>
      </trkpt>
      <trkpt lat="47.3427" lon="-0.50958">
        <ele>75</ele>
        <time>2021-07-04T09:02:31Z</time>
      </trkpt>
      <trkpt lat="47.34275" lon="-0.50958">
        <ele>75</ele>
        <time>2021-07-04T09:02:32Z</time>
      </trkpt>
      <trkpt lat="47.34286" lon="-0.50957">
        <ele>75.4</ele>
        <time>2021-07-04T09:02:34Z</time>
      </trkpt>
      <trkpt lat="47.34291" lon="-0.50957">
        <ele>75.8</ele>
        <time>2021-07-04T09:02:35Z</time>
      </trkpt>
      <trkpt lat="47.34297" lon="-0.50957">
        <ele>75.6</ele>
        <time>2021-07-04T09:02:36Z</time>
      </trkpt>
      <trkpt lat="47.34309" lon="-0.50957">
        <ele>75.6</ele>
        <time>2021-07-04T09:02:38Z</time>
      </trkpt>
      <trkpt lat="47.3432" lon="-0.50956">
        <ele>74.6</ele>
        <time>2021-07-04T09:02:40Z</time>
      </trkpt>
      <trkpt lat="47.34332" lon="-0.50956">
        <ele>74</ele>
        <time>2021-07-04T09:02:42Z</time>
      </trkpt>
      <trkpt lat="47.34344" lon="-0.50955">
        <ele>73.8</ele>
        <time>2021-07-04T09:02:44Z</time>
      </trkpt>
      <trkpt lat="47.34356" lon="-0.50954">
        <ele>72.8</ele>
        <time>2021-07-04T09:02:46Z</time>
      </trkpt>
      <trkpt lat="47.3437" lon="-0.50952">
        <ele>72</ele>
        <time>2021-07-04T09:02:48Z</time>
      </trkpt>
      <trkpt lat="47.34382" lon="-0.5095">
        <ele>71.6</ele>
        <time>2021-07-04T09:02:50Z</time>
      </trkpt>
      <trkpt lat="47.34394" lon="-0.50952">
        <ele>71.4</ele>
        <time>2021-07-04T09:02:52Z</time>
      </trkpt>
      <trkpt lat="47.34402" lon="-0.50954">
        <ele>71.8</ele>
        <time>2021-07-04T09:02:54Z</time>
      </trkpt>
      <trkpt lat="47.34404" lon="-0.50955">
        <ele>72</ele>
        <time>2021-07-04T09:02:55Z</time>
      </trkpt>
      <trkpt lat="47.34407" lon="-0.50955">
        <ele>72</ele>
        <time>2021-07-04T09:02:56Z</time>
      </trkpt>
      <trkpt lat="47.34412" lon="-0.50958">
        <ele>71.6</ele>
        <time>2021-07-04T09:02:58Z</time>
      </trkpt>
      <trkpt lat="47.34419" lon="-0.50959">
        <ele>71</ele>
        <time>2021-07-04T09:03:00Z</time>
      </trkpt>
      <trkpt lat="47.34428" lon="-0.5096">
        <ele>70.8</ele>
        <time>2021-07-04T09:03:02Z</time>
      </trkpt>
      <trkpt lat="47.34439" lon="-0.50959">
        <ele>71</ele>
        <time>2021-07-04T09:03:04Z</time>
      </trkpt>
      <trkpt lat="47.34444" lon="-0.50958">
        <ele>70.8</ele>
        <time>2021-07-04T09:03:05Z</time>
      </trkpt>
      <trkpt lat="47.3445" lon="-0.50958">
        <ele>70.6</ele>
        <time>2021-07-04T09:03:06Z</time>
      </trkpt>
      <trkpt lat="47.34456" lon="-0.50958">
        <ele>70</ele>
        <time>2021-07-04T09:03:07Z</time>
      </trkpt>
      <trkpt lat="47.34461" lon="-0.50958">
        <ele>70.4</ele>
        <time>2021-07-04T09:03:08Z</time>
      </trkpt>
      <trkpt lat="47.34473" lon="-0.50956">
        <ele>71.4</ele>
        <time>2021-07-04T09:03:10Z</time>
      </trkpt>
      <trkpt lat="47.34484" lon="-0.50954">
        <ele>71.6</ele>
        <time>2021-07-04T09:03:12Z</time>
      </trkpt>
      <trkpt lat="47.34495" lon="-0.5095">
        <ele>71.4</ele>
        <time>2021-07-04T09:03:14Z</time>
      </trkpt>
      <trkpt lat="47.34506" lon="-0.50943">
        <ele>71.2</ele>
        <time>2021-07-04T09:03:16Z</time>
      </trkpt>
      <trkpt lat="47.3451" lon="-0.50938">
        <ele>71</ele>
        <time>2021-07-04T09:03:17Z</time>
      </trkpt>
      <trkpt lat="47.34514" lon="-0.50931">
        <ele>71</ele>
        <time>2021-07-04T09:03:18Z</time>
      </trkpt>
      <trkpt lat="47.34522" lon="-0.50916">
        <ele>70</ele>
        <time>2021-07-04T09:03:20Z</time>
      </trkpt>
      <trkpt lat="47.34526" lon="-0.50908">
        <ele>69.4</ele>
        <time>2021-07-04T09:03:21Z</time>
      </trkpt>
      <trkpt lat="47.3453" lon="-0.509">
        <ele>69.4</ele>
        <time>2021-07-04T09:03:22Z</time>
      </trkpt>
      <trkpt lat="47.34537" lon="-0.50884">
        <ele>69.2</ele>
        <time>2021-07-04T09:03:24Z</time>
      </trkpt>
      <trkpt lat="47.34546" lon="-0.50868">
        <ele>69.2</ele>
        <time>2021-07-04T09:03:26Z</time>
      </trkpt>
      <trkpt lat="47.34551" lon="-0.50861">
        <ele>69.4</ele>
        <time>2021-07-04T09:03:27Z</time>
      </trkpt>
      <trkpt lat="47.34554" lon="-0.50857">
        <ele>69.2</ele>
        <time>2021-07-04T09:03:28Z</time>
      </trkpt>
      <trkpt lat="47.34558" lon="-0.50853">
        <ele>69.2</ele>
        <time>2021-07-04T09:03:29Z</time>
      </trkpt>
      <trkpt lat="47.34563" lon="-0.50851">
        <ele>69.4</ele>
        <time>2021-07-04T09:03:30Z</time>
      </trkpt>
      <trkpt lat="47.34575" lon="-0.50847">
        <ele>69.2</ele>
        <time>2021-07-04T09:03:32Z</time>
      </trkpt>
      <trkpt lat="47.34581" lon="-0.50845">
        <ele>69.2</ele>
        <time>2021-07-04T09:03:33Z</time>
      </trkpt>
      <trkpt lat="47.34586" lon="-0.50843">
        <ele>69</ele>
        <time>2021-07-04T09:03:34Z</time>
      </trkpt>
      <trkpt lat="47.34591" lon="-0.5084">
        <ele>68.6</ele>
        <time>2021-07-04T09:03:35Z</time>
      </trkpt>
      <trkpt lat="47.34595" lon="-0.50836">
        <ele>68.4</ele>
        <time>2021-07-04T09:03:36Z</time>
      </trkpt>
      <trkpt lat="47.34599" lon="-0.50832">
        <ele>68</ele>
        <time>2021-07-04T09:03:37Z</time>
      </trkpt>
      <trkpt lat="47.34603" lon="-0.50826">
        <ele>67.8</ele>
        <time>2021-07-04T09:03:38Z</time>
      </trkpt>
      <trkpt lat="47.34612" lon="-0.50816">
        <ele>67.6</ele>
        <time>2021-07-04T09:03:40Z</time>
      </trkpt>
      <trkpt lat="47.34616" lon="-0.50811">
        <ele>67.4</ele>
        <time>2021-07-04T09:03:41Z</time>
      </trkpt>
      <trkpt lat="47.3462" lon="-0.50808">
        <ele>67.4</ele>
        <time>2021-07-04T09:03:42Z</time>
      </trkpt>
      <trkpt lat="47.34626" lon="-0.50805">
        <ele>67.8</ele>
        <time>2021-07-04T09:03:44Z</time>
      </trkpt>
      <trkpt lat="47.34634" lon="-0.50803">
        <ele>67.6</ele>
        <time>2021-07-04T09:03:46Z</time>
      </trkpt>
      <trkpt lat="47.34644" lon="-0.508">
        <ele>67.2</ele>
        <time>2021-07-04T09:03:48Z</time>
      </trkpt>
      <trkpt lat="47.34656" lon="-0.50795">
        <ele>66.6</ele>
        <time>2021-07-04T09:03:50Z</time>
      </trkpt>
      <trkpt lat="47.34661" lon="-0.50793">
        <ele>67</ele>
        <time>2021-07-04T09:03:51Z</time>
      </trkpt>
      <trkpt lat="47.34667" lon="-0.50791">
        <ele>67.2</ele>
        <time>2021-07-04T09:03:52Z</time>
      </trkpt>
      <trkpt lat="47.34678" lon="-0.50788">
        <ele>67.2</ele>
        <time>2021-07-04T09:03:54Z</time>
      </trkpt>
      <trkpt lat="47.34688" lon="-0.50785">
        <ele>67.2</ele>
        <time>2021-07-04T09:03:56Z</time>
      </trkpt>
      <trkpt lat="47.34693" lon="-0.50784">
        <ele>67.2</ele>
        <time>2021-07-04T09:03:57Z</time>
      </trkpt>
      <trkpt lat="47.34699" lon="-0.50782">
        <ele>67.4</ele>
        <time>2021-07-04T09:03:58Z</time>
      </trkpt>
      <trkpt lat="47.34709" lon="-0.5078">
        <ele>67.6</ele>
        <time>2021-07-04T09:04:00Z</time>
      </trkpt>
      <trkpt lat="47.34718" lon="-0.50778">
        <ele>68</ele>
        <time>2021-07-04T09:04:02Z</time>
      </trkpt>
      <trkpt lat="47.34722" lon="-0.50781">
        <ele>68.2</ele>
        <time>2021-07-04T09:04:03Z</time>
      </trkpt>
      <trkpt lat="47.34725" lon="-0.50784">
        <ele>68.2</ele>
        <time>2021-07-04T09:04:04Z</time>
      </trkpt>
      <trkpt lat="47.34726" lon="-0.50788">
        <ele>68.4</ele>
        <time>2021-07-04T09:04:05Z</time>
      </trkpt>
      <trkpt lat="47.34726" lon="-0.50793">
        <ele>68.8</ele>
        <time>2021-07-04T09:04:06Z</time>
      </trkpt>
      <trkpt lat="47.34727" lon="-0.50799">
        <ele>69</ele>
        <time>2021-07-04T09:04:07Z</time>
      </trkpt>
      <trkpt lat="47.34726" lon="-0.50805">
        <ele>69</ele>
        <time>2021-07-04T09:04:08Z</time>
      </trkpt>
      <trkpt lat="47.34726" lon="-0.50811">
        <ele>68.8</ele>
        <time>2021-07-04T09:04:09Z</time>
      </trkpt>
      <trkpt lat="47.34726" lon="-0.50824">
        <ele>68</ele>
        <time>2021-07-04T09:04:11Z</time>
      </trkpt>
      <trkpt lat="47.34726" lon="-0.50837">
        <ele>68.8</ele>
        <time>2021-07-04T09:04:13Z</time>
      </trkpt>
      <trkpt lat="47.34726" lon="-0.50851">
        <ele>68.8</ele>
        <time>2021-07-04T09:04:15Z</time>
      </trkpt>
      <trkpt lat="47.34726" lon="-0.50864">
        <ele>69.2</ele>
        <time>2021-07-04T09:04:17Z</time>
      </trkpt>
      <trkpt lat="47.34726" lon="-0.50871">
        <ele>69.4</ele>
        <time>2021-07-04T09:04:18Z</time>
      </trkpt>
      <trkpt lat="47.34726" lon="-0.50878">
        <ele>68.8</ele>
        <time>2021-07-04T09:04:19Z</time>
      </trkpt>
      <trkpt lat="47.34725" lon="-0.50891">
        <ele>68.8</ele>
        <time>2021-07-04T09:04:21Z</time>
      </trkpt>
      <trkpt lat="47.34725" lon="-0.50898">
        <ele>70</ele>
        <time>2021-07-04T09:04:22Z</time>
      </trkpt>
      <trkpt lat="47.34724" lon="-0.50905">
        <ele>71.2</ele>
        <time>2021-07-04T09:04:23Z</time>
      </trkpt>
      <trkpt lat="47.34724" lon="-0.50917">
        <ele>71.2</ele>
        <time>2021-07-04T09:04:25Z</time>
      </trkpt>
      <trkpt lat="47.34723" lon="-0.50923">
        <ele>71.2</ele>
        <time>2021-07-04T09:04:26Z</time>
      </trkpt>
      <trkpt lat="47.34722" lon="-0.5093">
        <ele>71.2</ele>
        <time>2021-07-04T09:04:27Z</time>
      </trkpt>
      <trkpt lat="47.34721" lon="-0.5094">
        <ele>71.4</ele>
        <time>2021-07-04T09:04:29Z</time>
      </trkpt>
      <trkpt lat="47.34722" lon="-0.50948">
        <ele>72.4</ele>
        <time>2021-07-04T09:04:31Z</time>
      </trkpt>
      <trkpt lat="47.34724" lon="-0.5095">
        <ele>72.8</ele>
        <time>2021-07-04T09:04:32Z</time>
      </trkpt>
      <trkpt lat="47.34727" lon="-0.50949">
        <ele>73</ele>
        <time>2021-07-04T09:04:33Z</time>
      </trkpt>
      <trkpt lat="47.34733" lon="-0.50948">
        <ele>73.2</ele>
        <time>2021-07-04T09:04:35Z</time>
      </trkpt>
      <trkpt lat="47.34739" lon="-0.50947">
        <ele>73.2</ele>
        <time>2021-07-04T09:04:37Z</time>
      </trkpt>
      <trkpt lat="47.34746" lon="-0.50946">
        <ele>73.4</ele>
        <time>2021-07-04T09:04:39Z</time>
      </trkpt>
      <trkpt lat="47.34754" lon="-0.50946">
        <ele>73.2</ele>
        <time>2021-07-04T09:04:41Z</time>
      </trkpt>
      <trkpt lat="47.34757" lon="-0.50945">
        <ele>73.4</ele>
        <time>2021-07-04T09:04:43Z</time>
      </trkpt>
      <trkpt lat="47.34764" lon="-0.50944">
        <ele>73.8</ele>
        <time>2021-07-04T09:04:45Z</time>
      </trkpt>
      <trkpt lat="47.34772" lon="-0.50943">
        <ele>73.8</ele>
        <time>2021-07-04T09:04:47Z</time>
      </trkpt>
      <trkpt lat="47.34776" lon="-0.50942">
        <ele>74</ele>
        <time>2021-07-04T09:04:48Z</time>
      </trkpt>
      <trkpt lat="47.3478" lon="-0.50941">
        <ele>74</ele>
        <time>2021-07-04T09:04:49Z</time>
      </trkpt>
      <trkpt lat="47.34788" lon="-0.50939">
        <ele>73.8</ele>
        <time>2021-07-04T09:04:51Z</time>
      </trkpt>
      <trkpt lat="47.34798" lon="-0.50936">
        <ele>73.8</ele>
        <time>2021-07-04T09:04:53Z</time>
      </trkpt>
      <trkpt lat="47.34807" lon="-0.50934">
        <ele>73.6</ele>
        <time>2021-07-04T09:04:55Z</time>
      </trkpt>
      <trkpt lat="47.34811" lon="-0.50933">
        <ele>73.6</ele>
        <time>2021-07-04T09:04:56Z</time>
      </trkpt>
      <trkpt lat="47.34816" lon="-0.50932">
        <ele>73.6</ele>
        <time>2021-07-04T09:04:57Z</time>
      </trkpt>
      <trkpt lat="47.34824" lon="-0.5093">
        <ele>73.6</ele>
        <time>2021-07-04T09:04:59Z</time>
      </trkpt>
      <trkpt lat="47.34828" lon="-0.50928">
        <ele>73.6</ele>
        <time>2021-07-04T09:05:00Z</time>
      </trkpt>
      <trkpt lat="47.34832" lon="-0.50926">
        <ele>73.4</ele>
        <time>2021-07-04T09:05:01Z</time>
      </trkpt>
      <trkpt lat="47.34837" lon="-0.50924">
        <ele>73.4</ele>
        <time>2021-07-04T09:05:02Z</time>
      </trkpt>
      <trkpt lat="47.34841" lon="-0.50922">
        <ele>73.6</ele>
        <time>2021-07-04T09:05:03Z</time>
      </trkpt>
      <trkpt lat="47.34846" lon="-0.5092">
        <ele>73.4</ele>
        <time>2021-07-04T09:05:04Z</time>
      </trkpt>
      <trkpt lat="47.34851" lon="-0.50918">
        <ele>73.2</ele>
        <time>2021-07-04T09:05:05Z</time>
      </trkpt>
      <trkpt lat="47.3486" lon="-0.50915">
        <ele>72.6</ele>
        <time>2021-07-04T09:05:07Z</time>
      </trkpt>
      <trkpt lat="47.34865" lon="-0.50913">
        <ele>72.2</ele>
        <time>2021-07-04T09:05:08Z</time>
      </trkpt>
      <trkpt lat="47.34871" lon="-0.50912">
        <ele>72</ele>
        <time>2021-07-04T09:05:09Z</time>
      </trkpt>
      <trkpt lat="47.34881" lon="-0.5091">
        <ele>72.2</ele>
        <time>2021-07-04T09:05:11Z</time>
      </trkpt>
      <trkpt lat="47.34891" lon="-0.50907">
        <ele>72</ele>
        <time>2021-07-04T09:05:13Z</time>
      </trkpt>
      <trkpt lat="47.34903" lon="-0.50906">
        <ele>71.8</ele>
        <time>2021-07-04T09:05:15Z</time>
      </trkpt>
      <trkpt lat="47.34914" lon="-0.50904">
        <ele>71.4</ele>
        <time>2021-07-04T09:05:17Z</time>
      </trkpt>
      <trkpt lat="47.34925" lon="-0.50902">
        <ele>71.4</ele>
        <time>2021-07-04T09:05:19Z</time>
      </trkpt>
      <trkpt lat="47.34931" lon="-0.50902">
        <ele>71</ele>
        <time>2021-07-04T09:05:20Z</time>
      </trkpt>
      <trkpt lat="47.34937" lon="-0.50901">
        <ele>70.4</ele>
        <time>2021-07-04T09:05:21Z</time>
      </trkpt>
      <trkpt lat="47.34942" lon="-0.509">
        <ele>69.8</ele>
        <time>2021-07-04T09:05:22Z</time>
      </trkpt>
      <trkpt lat="47.34948" lon="-0.509">
        <ele>69.8</ele>
        <time>2021-07-04T09:05:23Z</time>
      </trkpt>
      <trkpt lat="47.34959" lon="-0.50899">
        <ele>70.2</ele>
        <time>2021-07-04T09:05:25Z</time>
      </trkpt>
      <trkpt lat="47.34969" lon="-0.50899">
        <ele>69.8</ele>
        <time>2021-07-04T09:05:27Z</time>
      </trkpt>
      <trkpt lat="47.3498" lon="-0.50901">
        <ele>68.6</ele>
        <time>2021-07-04T09:05:29Z</time>
      </trkpt>
      <trkpt lat="47.34992" lon="-0.50902">
        <ele>68</ele>
        <time>2021-07-04T09:05:31Z</time>
      </trkpt>
      <trkpt lat="47.34998" lon="-0.50903">
        <ele>67.2</ele>
        <time>2021-07-04T09:05:32Z</time>
      </trkpt>
      <trkpt lat="47.35004" lon="-0.50903">
        <ele>66.8</ele>
        <time>2021-07-04T09:05:33Z</time>
      </trkpt>
      <trkpt lat="47.3501" lon="-0.50904">
        <ele>66.2</ele>
        <time>2021-07-04T09:05:34Z</time>
      </trkpt>
      <trkpt lat="47.35016" lon="-0.50905">
        <ele>66</ele>
        <time>2021-07-04T09:05:35Z</time>
      </trkpt>
      <trkpt lat="47.35021" lon="-0.50908">
        <ele>66.2</ele>
        <time>2021-07-04T09:05:36Z</time>
      </trkpt>
      <trkpt lat="47.35027" lon="-0.5091">
        <ele>66.4</ele>
        <time>2021-07-04T09:05:37Z</time>
      </trkpt>
      <trkpt lat="47.35032" lon="-0.50914">
        <ele>66.4</ele>
        <time>2021-07-04T09:05:38Z</time>
      </trkpt>
      <trkpt lat="47.35038" lon="-0.50917">
        <ele>66.6</ele>
        <time>2021-07-04T09:05:39Z</time>
      </trkpt>
      <trkpt lat="47.35048" lon="-0.50923">
        <ele>66.8</ele>
        <time>2021-07-04T09:05:41Z</time>
      </trkpt>
      <trkpt lat="47.35054" lon="-0.50925">
        <ele>66.8</ele>
        <time>2021-07-04T09:05:42Z</time>
      </trkpt>
      <trkpt lat="47.35059" lon="-0.50926">
        <ele>66.8</ele>
        <time>2021-07-04T09:05:43Z</time>
      </trkpt>
      <trkpt lat="47.3507" lon="-0.50929">
        <ele>66.8</ele>
        <time>2021-07-04T09:05:45Z</time>
      </trkpt>
      <trkpt lat="47.35081" lon="-0.50931">
        <ele>66.8</ele>
        <time>2021-07-04T09:05:47Z</time>
      </trkpt>
      <trkpt lat="47.35086" lon="-0.50932">
        <ele>67</ele>
        <time>2021-07-04T09:05:48Z</time>
      </trkpt>
      <trkpt lat="47.35091" lon="-0.50934">
        <ele>66.8</ele>
        <time>2021-07-04T09:05:49Z</time>
      </trkpt>
      <trkpt lat="47.35096" lon="-0.50935">
        <ele>67</ele>
        <time>2021-07-04T09:05:50Z</time>
      </trkpt>
      <trkpt lat="47.351" lon="-0.50938">
        <ele>67.2</ele>
        <time>2021-07-04T09:05:51Z</time>
      </trkpt>
      <trkpt lat="47.35104" lon="-0.50941">
        <ele>67.6</ele>
        <time>2021-07-04T09:05:52Z</time>
      </trkpt>
      <trkpt lat="47.35108" lon="-0.50943">
        <ele>67.8</ele>
        <time>2021-07-04T09:05:53Z</time>
      </trkpt>
      <trkpt lat="47.35117" lon="-0.5095">
        <ele>67.4</ele>
        <time>2021-07-04T09:05:55Z</time>
      </trkpt>
      <trkpt lat="47.35124" lon="-0.50956">
        <ele>70.8</ele>
        <time>2021-07-04T09:05:57Z</time>
      </trkpt>
      <trkpt lat="47.35131" lon="-0.50962">
        <ele>70.2</ele>
        <time>2021-07-04T09:05:59Z</time>
      </trkpt>
      <trkpt lat="47.35135" lon="-0.50965">
        <ele>69</ele>
        <time>2021-07-04T09:06:00Z</time>
      </trkpt>
      <trkpt lat="47.35139" lon="-0.50968">
        <ele>69</ele>
        <time>2021-07-04T09:06:01Z</time>
      </trkpt>
      <trkpt lat="47.35147" lon="-0.50974">
        <ele>69.6</ele>
        <time>2021-07-04T09:06:03Z</time>
      </trkpt>
      <trkpt lat="47.35154" lon="-0.50977">
        <ele>70.2</ele>
        <time>2021-07-04T09:06:05Z</time>
      </trkpt>
      <trkpt lat="47.35158" lon="-0.50978">
        <ele>70.8</ele>
        <time>2021-07-04T09:06:07Z</time>
      </trkpt>
      <trkpt lat="47.35162" lon="-0.50975">
        <ele>70.8</ele>
        <time>2021-07-04T09:06:09Z</time>
      </trkpt>
      <trkpt lat="47.35166" lon="-0.50969">
        <ele>70.4</ele>
        <time>2021-07-04T09:06:11Z</time>
      </trkpt>
      <trkpt lat="47.35172" lon="-0.50962">
        <ele>70.2</ele>
        <time>2021-07-04T09:06:13Z</time>
      </trkpt>
      <trkpt lat="47.35177" lon="-0.50959">
        <ele>70.2</ele>
        <time>2021-07-04T09:06:14Z</time>
      </trkpt>
      <trkpt lat="47.3518" lon="-0.50954">
        <ele>70</ele>
        <time>2021-07-04T09:06:15Z</time>
      </trkpt>
      <trkpt lat="47.35183" lon="-0.50949">
        <ele>69.8</ele>
        <time>2021-07-04T09:06:16Z</time>
      </trkpt>
      <trkpt lat="47.35187" lon="-0.50945">
        <ele>69.4</ele>
        <time>2021-07-04T09:06:17Z</time>
      </trkpt>
      <trkpt lat="47.35196" lon="-0.50935">
        <ele>69.4</ele>
        <time>2021-07-04T09:06:19Z</time>
      </trkpt>
      <trkpt lat="47.35205" lon="-0.50924">
        <ele>69.6</ele>
        <time>2021-07-04T09:06:21Z</time>
      </trkpt>
      <trkpt lat="47.3521" lon="-0.50919">
        <ele>69.6</ele>
        <time>2021-07-04T09:06:22Z</time>
      </trkpt>
      <trkpt lat="47.35213" lon="-0.50914">
        <ele>69.4</ele>
        <time>2021-07-04T09:06:23Z</time>
      </trkpt>
      <trkpt lat="47.35223" lon="-0.50904">
        <ele>69.6</ele>
        <time>2021-07-04T09:06:25Z</time>
      </trkpt>
      <trkpt lat="47.35228" lon="-0.50899">
        <ele>69</ele>
        <time>2021-07-04T09:06:26Z</time>
      </trkpt>
      <trkpt lat="47.35232" lon="-0.50893">
        <ele>69</ele>
        <time>2021-07-04T09:06:27Z</time>
      </trkpt>
      <trkpt lat="47.3524" lon="-0.50881">
        <ele>68.8</ele>
        <time>2021-07-04T09:06:29Z</time>
      </trkpt>
      <trkpt lat="47.35244" lon="-0.50876">
        <ele>69</ele>
        <time>2021-07-04T09:06:30Z</time>
      </trkpt>
      <trkpt lat="47.35248" lon="-0.50871">
        <ele>69</ele>
        <time>2021-07-04T09:06:31Z</time>
      </trkpt>
      <trkpt lat="47.35259" lon="-0.50859">
        <ele>69</ele>
        <time>2021-07-04T09:06:33Z</time>
      </trkpt>
      <trkpt lat="47.35269" lon="-0.50847">
        <ele>69</ele>
        <time>2021-07-04T09:06:35Z</time>
      </trkpt>
      <trkpt lat="47.35274" lon="-0.50842">
        <ele>69</ele>
        <time>2021-07-04T09:06:36Z</time>
      </trkpt>
      <trkpt lat="47.35279" lon="-0.50837">
        <ele>68.8</ele>
        <time>2021-07-04T09:06:37Z</time>
      </trkpt>
      <trkpt lat="47.35289" lon="-0.50826">
        <ele>68.6</ele>
        <time>2021-07-04T09:06:39Z</time>
      </trkpt>
      <trkpt lat="47.35298" lon="-0.50815">
        <ele>68.6</ele>
        <time>2021-07-04T09:06:41Z</time>
      </trkpt>
      <trkpt lat="47.35303" lon="-0.5081">
        <ele>68.8</ele>
        <time>2021-07-04T09:06:42Z</time>
      </trkpt>
      <trkpt lat="47.35307" lon="-0.50804">
        <ele>68.6</ele>
        <time>2021-07-04T09:06:43Z</time>
      </trkpt>
      <trkpt lat="47.35315" lon="-0.50793">
        <ele>68.6</ele>
        <time>2021-07-04T09:06:45Z</time>
      </trkpt>
      <trkpt lat="47.35323" lon="-0.50783">
        <ele>68.8</ele>
        <time>2021-07-04T09:06:47Z</time>
      </trkpt>
      <trkpt lat="47.35328" lon="-0.50778">
        <ele>69</ele>
        <time>2021-07-04T09:06:48Z</time>
      </trkpt>
      <trkpt lat="47.35334" lon="-0.50772">
        <ele>69.2</ele>
        <time>2021-07-04T09:06:49Z</time>
      </trkpt>
      <trkpt lat="47.35343" lon="-0.50762">
        <ele>69.6</ele>
        <time>2021-07-04T09:06:51Z</time>
      </trkpt>
      <trkpt lat="47.35353" lon="-0.50751">
        <ele>69.6</ele>
        <time>2021-07-04T09:06:53Z</time>
      </trkpt>
      <trkpt lat="47.35361" lon="-0.5074">
        <ele>70</ele>
        <time>2021-07-04T09:06:55Z</time>
      </trkpt>
      <trkpt lat="47.35365" lon="-0.50734">
        <ele>70.4</ele>
        <time>2021-07-04T09:06:56Z</time>
      </trkpt>
      <trkpt lat="47.3537" lon="-0.50728">
        <ele>70.4</ele>
        <time>2021-07-04T09:06:57Z</time>
      </trkpt>
      <trkpt lat="47.35375" lon="-0.50723">
        <ele>70.6</ele>
        <time>2021-07-04T09:06:58Z</time>
      </trkpt>
      <trkpt lat="47.3538" lon="-0.50716">
        <ele>70.6</ele>
        <time>2021-07-04T09:06:59Z</time>
      </trkpt>
      <trkpt lat="47.35389" lon="-0.50704">
        <ele>70.6</ele>
        <time>2021-07-04T09:07:01Z</time>
      </trkpt>
      <trkpt lat="47.35398" lon="-0.50692">
        <ele>70.8</ele>
        <time>2021-07-04T09:07:03Z</time>
      </trkpt>
      <trkpt lat="47.35407" lon="-0.50681">
        <ele>71.2</ele>
        <time>2021-07-04T09:07:05Z</time>
      </trkpt>
      <trkpt lat="47.35415" lon="-0.50669">
        <ele>71</ele>
        <time>2021-07-04T09:07:07Z</time>
      </trkpt>
      <trkpt lat="47.35419" lon="-0.50663">
        <ele>70.6</ele>
        <time>2021-07-04T09:07:08Z</time>
      </trkpt>
      <trkpt lat="47.35422" lon="-0.50657">
        <ele>70.8</ele>
        <time>2021-07-04T09:07:09Z</time>
      </trkpt>
      <trkpt lat="47.35429" lon="-0.50645">
        <ele>70.6</ele>
        <time>2021-07-04T09:07:11Z</time>
      </trkpt>
      <trkpt lat="47.35433" lon="-0.50639">
        <ele>70.4</ele>
        <time>2021-07-04T09:07:12Z</time>
      </trkpt>
      <trkpt lat="47.35438" lon="-0.50633">
        <ele>70.4</ele>
        <time>2021-07-04T09:07:13Z</time>
      </trkpt>
      <trkpt lat="47.35443" lon="-0.50627">
        <ele>70.4</ele>
        <time>2021-07-04T09:07:14Z</time>
      </trkpt>
      <trkpt lat="47.35447" lon="-0.50621">
        <ele>70.8</ele>
        <time>2021-07-04T09:07:15Z</time>
      </trkpt>
      <trkpt lat="47.35456" lon="-0.50608">
        <ele>70.6</ele>
        <time>2021-07-04T09:07:17Z</time>
      </trkpt>
      <trkpt lat="47.35465" lon="-0.50596">
        <ele>70.2</ele>
        <time>2021-07-04T09:07:19Z</time>
      </trkpt>
      <trkpt lat="47.35469" lon="-0.5059">
        <ele>70.2</ele>
        <time>2021-07-04T09:07:20Z</time>
      </trkpt>
      <trkpt lat="47.35472" lon="-0.50584">
        <ele>70.4</ele>
        <time>2021-07-04T09:07:21Z</time>
      </trkpt>
      <trkpt lat="47.35481" lon="-0.50572">
        <ele>70.4</ele>
        <time>2021-07-04T09:07:23Z</time>
      </trkpt>
      <trkpt lat="47.35491" lon="-0.50559">
        <ele>70.4</ele>
        <time>2021-07-04T09:07:25Z</time>
      </trkpt>
      <trkpt lat="47.35501" lon="-0.50545">
        <ele>70.2</ele>
        <time>2021-07-04T09:07:27Z</time>
      </trkpt>
      <trkpt lat="47.35511" lon="-0.50532">
        <ele>69.8</ele>
        <time>2021-07-04T09:07:29Z</time>
      </trkpt>
      <trkpt lat="47.35522" lon="-0.50518">
        <ele>69.6</ele>
        <time>2021-07-04T09:07:31Z</time>
      </trkpt>
      <trkpt lat="47.35527" lon="-0.5051">
        <ele>69.6</ele>
        <time>2021-07-04T09:07:32Z</time>
      </trkpt>
      <trkpt lat="47.35532" lon="-0.50503">
        <ele>69.6</ele>
        <time>2021-07-04T09:07:33Z</time>
      </trkpt>
      <trkpt lat="47.35542" lon="-0.50489">
        <ele>69.2</ele>
        <time>2021-07-04T09:07:35Z</time>
      </trkpt>
      <trkpt lat="47.35553" lon="-0.50475">
        <ele>69</ele>
        <time>2021-07-04T09:07:37Z</time>
      </trkpt>
      <trkpt lat="47.35563" lon="-0.50461">
        <ele>69.2</ele>
        <time>2021-07-04T09:07:39Z</time>
      </trkpt>
      <trkpt lat="47.35573" lon="-0.50447">
        <ele>69.2</ele>
        <time>2021-07-04T09:07:41Z</time>
      </trkpt>
      <trkpt lat="47.35578" lon="-0.50442">
        <ele>69.2</ele>
        <time>2021-07-04T09:07:42Z</time>
      </trkpt>
      <trkpt lat="47.35582" lon="-0.50436">
        <ele>69.4</ele>
        <time>2021-07-04T09:07:43Z</time>
      </trkpt>
      <trkpt lat="47.35586" lon="-0.50429">
        <ele>69.6</ele>
        <time>2021-07-04T09:07:44Z</time>
      </trkpt>
      <trkpt lat="47.3559" lon="-0.50424">
        <ele>69.6</ele>
        <time>2021-07-04T09:07:45Z</time>
      </trkpt>
      <trkpt lat="47.35593" lon="-0.50419">
        <ele>69.8</ele>
        <time>2021-07-04T09:07:46Z</time>
      </trkpt>
      <trkpt lat="47.35598" lon="-0.50414">
        <ele>70</ele>
        <time>2021-07-04T09:07:47Z</time>
      </trkpt>
      <trkpt lat="47.35602" lon="-0.5041">
        <ele>70.2</ele>
        <time>2021-07-04T09:07:48Z</time>
      </trkpt>
      <trkpt lat="47.35607" lon="-0.50405">
        <ele>70.4</ele>
        <time>2021-07-04T09:07:49Z</time>
      </trkpt>
      <trkpt lat="47.35617" lon="-0.50395">
        <ele>70.4</ele>
        <time>2021-07-04T09:07:51Z</time>
      </trkpt>
      <trkpt lat="47.35627" lon="-0.50386">
        <ele>70.4</ele>
        <time>2021-07-04T09:07:53Z</time>
      </trkpt>
      <trkpt lat="47.35636" lon="-0.50377">
        <ele>70.4</ele>
        <time>2021-07-04T09:07:55Z</time>
      </trkpt>
      <trkpt lat="47.35647" lon="-0.50366">
        <ele>70.6</ele>
        <time>2021-07-04T09:07:57Z</time>
      </trkpt>
      <trkpt lat="47.35659" lon="-0.50355">
        <ele>70.2</ele>
        <time>2021-07-04T09:07:59Z</time>
      </trkpt>
      <trkpt lat="47.35671" lon="-0.50344">
        <ele>70.4</ele>
        <time>2021-07-04T09:08:01Z</time>
      </trkpt>
      <trkpt lat="47.35682" lon="-0.50332">
        <ele>70</ele>
        <time>2021-07-04T09:08:03Z</time>
      </trkpt>
      <trkpt lat="47.35693" lon="-0.50323">
        <ele>70.4</ele>
        <time>2021-07-04T09:08:05Z</time>
      </trkpt>
      <trkpt lat="47.35704" lon="-0.50312">
        <ele>70.4</ele>
        <time>2021-07-04T09:08:07Z</time>
      </trkpt>
      <trkpt lat="47.35715" lon="-0.50301">
        <ele>70.4</ele>
        <time>2021-07-04T09:08:09Z</time>
      </trkpt>
      <trkpt lat="47.35725" lon="-0.50291">
        <ele>70.2</ele>
        <time>2021-07-04T09:08:11Z</time>
      </trkpt>
      <trkpt lat="47.3573" lon="-0.50286">
        <ele>70.4</ele>
        <time>2021-07-04T09:08:12Z</time>
      </trkpt>
      <trkpt lat="47.35735" lon="-0.50281">
        <ele>70.4</ele>
        <time>2021-07-04T09:08:13Z</time>
      </trkpt>
      <trkpt lat="47.35744" lon="-0.50271">
        <ele>70.8</ele>
        <time>2021-07-04T09:08:15Z</time>
      </trkpt>
      <trkpt lat="47.35754" lon="-0.5026">
        <ele>70.8</ele>
        <time>2021-07-04T09:08:17Z</time>
      </trkpt>
      <trkpt lat="47.35759" lon="-0.50255">
        <ele>70.6</ele>
        <time>2021-07-04T09:08:18Z</time>
      </trkpt>
      <trkpt lat="47.35766" lon="-0.5025">
        <ele>70.2</ele>
        <time>2021-07-04T09:08:19Z</time>
      </trkpt>
      <trkpt lat="47.35776" lon="-0.5024">
        <ele>70.2</ele>
        <time>2021-07-04T09:08:21Z</time>
      </trkpt>
      <trkpt lat="47.35786" lon="-0.5023">
        <ele>70.8</ele>
        <time>2021-07-04T09:08:23Z</time>
      </trkpt>
      <trkpt lat="47.35796" lon="-0.5022">
        <ele>69.8</ele>
        <time>2021-07-04T09:08:25Z</time>
      </trkpt>
      <trkpt lat="47.35803" lon="-0.50215">
        <ele>69.8</ele>
        <time>2021-07-04T09:08:26Z</time>
      </trkpt>
      <trkpt lat="47.3581" lon="-0.5021">
        <ele>69.8</ele>
        <time>2021-07-04T09:08:27Z</time>
      </trkpt>
      <trkpt lat="47.3582" lon="-0.50199">
        <ele>69.4</ele>
        <time>2021-07-04T09:08:29Z</time>
      </trkpt>
      <trkpt lat="47.35826" lon="-0.50194">
        <ele>69.6</ele>
        <time>2021-07-04T09:08:30Z</time>
      </trkpt>
      <trkpt lat="47.35831" lon="-0.50189">
        <ele>69.2</ele>
        <time>2021-07-04T09:08:31Z</time>
      </trkpt>
      <trkpt lat="47.35841" lon="-0.50177">
        <ele>68.8</ele>
        <time>2021-07-04T09:08:33Z</time>
      </trkpt>
      <trkpt lat="47.35852" lon="-0.50167">
        <ele>68.6</ele>
        <time>2021-07-04T09:08:35Z</time>
      </trkpt>
      <trkpt lat="47.35858" lon="-0.50162">
        <ele>68.6</ele>
        <time>2021-07-04T09:08:36Z</time>
      </trkpt>
      <trkpt lat="47.35864" lon="-0.50156">
        <ele>68.6</ele>
        <time>2021-07-04T09:08:37Z</time>
      </trkpt>
      <trkpt lat="47.35877" lon="-0.50146">
        <ele>68.2</ele>
        <time>2021-07-04T09:08:39Z</time>
      </trkpt>
      <trkpt lat="47.35888" lon="-0.50134">
        <ele>68.2</ele>
        <time>2021-07-04T09:08:41Z</time>
      </trkpt>
      <trkpt lat="47.35899" lon="-0.50124">
        <ele>67.6</ele>
        <time>2021-07-04T09:08:43Z</time>
      </trkpt>
      <trkpt lat="47.35909" lon="-0.50113">
        <ele>66.8</ele>
        <time>2021-07-04T09:08:45Z</time>
      </trkpt>
      <trkpt lat="47.35913" lon="-0.50111">
        <ele>66.6</ele>
        <time>2021-07-04T09:08:46Z</time>
      </trkpt>
      <trkpt lat="47.35915" lon="-0.50111">
        <ele>67</ele>
        <time>2021-07-04T09:08:47Z</time>
      </trkpt>
      <trkpt lat="47.35917" lon="-0.50112">
        <ele>68</ele>
        <time>2021-07-04T09:08:48Z</time>
      </trkpt>
      <trkpt lat="47.35919" lon="-0.50113">
        <ele>68.2</ele>
        <time>2021-07-04T09:08:49Z</time>
      </trkpt>
      <trkpt lat="47.35925" lon="-0.50114">
        <ele>67.8</ele>
        <time>2021-07-04T09:08:51Z</time>
      </trkpt>
      <trkpt lat="47.35929" lon="-0.50116">
        <ele>67.2</ele>
        <time>2021-07-04T09:08:52Z</time>
      </trkpt>
      <trkpt lat="47.35933" lon="-0.50117">
        <ele>66.6</ele>
        <time>2021-07-04T09:08:53Z</time>
      </trkpt>
      <trkpt lat="47.35943" lon="-0.50119">
        <ele>65.2</ele>
        <time>2021-07-04T09:08:55Z</time>
      </trkpt>
      <trkpt lat="47.35949" lon="-0.50121">
        <ele>64.6</ele>
        <time>2021-07-04T09:08:56Z</time>
      </trkpt>
      <trkpt lat="47.35955" lon="-0.50122">
        <ele>64</ele>
        <time>2021-07-04T09:08:57Z</time>
      </trkpt>
      <trkpt lat="47.35967" lon="-0.50125">
        <ele>64</ele>
        <time>2021-07-04T09:08:59Z</time>
      </trkpt>
      <trkpt lat="47.35979" lon="-0.50128">
        <ele>63.2</ele>
        <time>2021-07-04T09:09:01Z</time>
      </trkpt>
      <trkpt lat="47.35991" lon="-0.50131">
        <ele>63.6</ele>
        <time>2021-07-04T09:09:03Z</time>
      </trkpt>
      <trkpt lat="47.35997" lon="-0.50134">
        <ele>63.6</ele>
        <time>2021-07-04T09:09:04Z</time>
      </trkpt>
      <trkpt lat="47.36003" lon="-0.50137">
        <ele>63.6</ele>
        <time>2021-07-04T09:09:05Z</time>
      </trkpt>
      <trkpt lat="47.36009" lon="-0.5014">
        <ele>63</ele>
        <time>2021-07-04T09:09:06Z</time>
      </trkpt>
      <trkpt lat="47.36015" lon="-0.50144">
        <ele>62.8</ele>
        <time>2021-07-04T09:09:07Z</time>
      </trkpt>
      <trkpt lat="47.3602" lon="-0.50148">
        <ele>62.6</ele>
        <time>2021-07-04T09:09:08Z</time>
      </trkpt>
      <trkpt lat="47.36026" lon="-0.50151">
        <ele>62.4</ele>
        <time>2021-07-04T09:09:09Z</time>
      </trkpt>
      <trkpt lat="47.36032" lon="-0.50153">
        <ele>61.8</ele>
        <time>2021-07-04T09:09:10Z</time>
      </trkpt>
      <trkpt lat="47.36037" lon="-0.50156">
        <ele>61.4</ele>
        <time>2021-07-04T09:09:11Z</time>
      </trkpt>
      <trkpt lat="47.36043" lon="-0.5016">
        <ele>60.6</ele>
        <time>2021-07-04T09:09:12Z</time>
      </trkpt>
      <trkpt lat="47.3605" lon="-0.50162">
        <ele>60.4</ele>
        <time>2021-07-04T09:09:13Z</time>
      </trkpt>
      <trkpt lat="47.36065" lon="-0.50168">
        <ele>60.8</ele>
        <time>2021-07-04T09:09:15Z</time>
      </trkpt>
      <trkpt lat="47.36081" lon="-0.50173">
        <ele>60.2</ele>
        <time>2021-07-04T09:09:17Z</time>
      </trkpt>
      <trkpt lat="47.36096" lon="-0.50179">
        <ele>59.6</ele>
        <time>2021-07-04T09:09:19Z</time>
      </trkpt>
      <trkpt lat="47.36104" lon="-0.50182">
        <ele>59.4</ele>
        <time>2021-07-04T09:09:20Z</time>
      </trkpt>
      <trkpt lat="47.36112" lon="-0.50185">
        <ele>59.2</ele>
        <time>2021-07-04T09:09:21Z</time>
      </trkpt>
      <trkpt lat="47.36126" lon="-0.50192">
        <ele>58.6</ele>
        <time>2021-07-04T09:09:23Z</time>
      </trkpt>
      <trkpt lat="47.36133" lon="-0.50196">
        <ele>58.6</ele>
        <time>2021-07-04T09:09:24Z</time>
      </trkpt>
      <trkpt lat="47.3614" lon="-0.502">
        <ele>58.6</ele>
        <time>2021-07-04T09:09:25Z</time>
      </trkpt>
      <trkpt lat="47.36152" lon="-0.50208">
        <ele>59</ele>
        <time>2021-07-04T09:09:27Z</time>
      </trkpt>
      <trkpt lat="47.36164" lon="-0.50217">
        <ele>59</ele>
        <time>2021-07-04T09:09:29Z</time>
      </trkpt>
      <trkpt lat="47.36175" lon="-0.50225">
        <ele>59.2</ele>
        <time>2021-07-04T09:09:31Z</time>
      </trkpt>
      <trkpt lat="47.3618" lon="-0.50229">
        <ele>59.6</ele>
        <time>2021-07-04T09:09:32Z</time>
      </trkpt>
      <trkpt lat="47.36186" lon="-0.50233">
        <ele>59.4</ele>
        <time>2021-07-04T09:09:33Z</time>
      </trkpt>
      <trkpt lat="47.36198" lon="-0.50242">
        <ele>59.6</ele>
        <time>2021-07-04T09:09:35Z</time>
      </trkpt>
      <trkpt lat="47.36211" lon="-0.50252">
        <ele>59.2</ele>
        <time>2021-07-04T09:09:37Z</time>
      </trkpt>
      <trkpt lat="47.36223" lon="-0.50262">
        <ele>59.6</ele>
        <time>2021-07-04T09:09:39Z</time>
      </trkpt>
      <trkpt lat="47.36229" lon="-0.50267">
        <ele>59.6</ele>
        <time>2021-07-04T09:09:40Z</time>
      </trkpt>
      <trkpt lat="47.36235" lon="-0.50271">
        <ele>60.2</ele>
        <time>2021-07-04T09:09:41Z</time>
      </trkpt>
      <trkpt lat="47.36241" lon="-0.50276">
        <ele>60.6</ele>
        <time>2021-07-04T09:09:42Z</time>
      </trkpt>
      <trkpt lat="47.36247" lon="-0.5028">
        <ele>61</ele>
        <time>2021-07-04T09:09:43Z</time>
      </trkpt>
      <trkpt lat="47.36258" lon="-0.50288">
        <ele>61.2</ele>
        <time>2021-07-04T09:09:45Z</time>
      </trkpt>
      <trkpt lat="47.36269" lon="-0.50296">
        <ele>61.6</ele>
        <time>2021-07-04T09:09:47Z</time>
      </trkpt>
      <trkpt lat="47.36274" lon="-0.503">
        <ele>61.4</ele>
        <time>2021-07-04T09:09:48Z</time>
      </trkpt>
      <trkpt lat="47.36279" lon="-0.50304">
        <ele>61.6</ele>
        <time>2021-07-04T09:09:49Z</time>
      </trkpt>
      <trkpt lat="47.3629" lon="-0.50311">
        <ele>62.4</ele>
        <time>2021-07-04T09:09:51Z</time>
      </trkpt>
      <trkpt lat="47.36302" lon="-0.50318">
        <ele>62</ele>
        <time>2021-07-04T09:09:53Z</time>
      </trkpt>
      <trkpt lat="47.36313" lon="-0.50325">
        <ele>61.4</ele>
        <time>2021-07-04T09:09:55Z</time>
      </trkpt>
      <trkpt lat="47.36318" lon="-0.50329">
        <ele>61.6</ele>
        <time>2021-07-04T09:09:56Z</time>
      </trkpt>
      <trkpt lat="47.36323" lon="-0.50333">
        <ele>61.8</ele>
        <time>2021-07-04T09:09:57Z</time>
      </trkpt>
      <trkpt lat="47.36334" lon="-0.50341">
        <ele>61.2</ele>
        <time>2021-07-04T09:09:59Z</time>
      </trkpt>
      <trkpt lat="47.36344" lon="-0.50347">
        <ele>61.8</ele>
        <time>2021-07-04T09:10:01Z</time>
      </trkpt>
      <trkpt lat="47.36348" lon="-0.50349">
        <ele>62.2</ele>
        <time>2021-07-04T09:10:02Z</time>
      </trkpt>
      <trkpt lat="47.36352" lon="-0.50347">
        <ele>62.6</ele>
        <time>2021-07-04T09:10:03Z</time>
      </trkpt>
      <trkpt lat="47.36354" lon="-0.50344">
        <ele>63</ele>
        <time>2021-07-04T09:10:04Z</time>
      </trkpt>
      <trkpt lat="47.36355" lon="-0.50339">
        <ele>63</ele>
        <time>2021-07-04T09:10:05Z</time>
      </trkpt>
      <trkpt lat="47.36353" lon="-0.50329">
        <ele>61.8</ele>
        <time>2021-07-04T09:10:07Z</time>
      </trkpt>
      <trkpt lat="47.36353" lon="-0.50323">
        <ele>61.4</ele>
        <time>2021-07-04T09:10:08Z</time>
      </trkpt>
      <trkpt lat="47.36355" lon="-0.50318">
        <ele>61.4</ele>
        <time>2021-07-04T09:10:09Z</time>
      </trkpt>
      <trkpt lat="47.36359" lon="-0.50316">
        <ele>61.8</ele>
        <time>2021-07-04T09:10:10Z</time>
      </trkpt>
      <trkpt lat="47.36364" lon="-0.50315">
        <ele>62.4</ele>
        <time>2021-07-04T09:10:11Z</time>
      </trkpt>
      <trkpt lat="47.36368" lon="-0.50313">
        <ele>63</ele>
        <time>2021-07-04T09:10:12Z</time>
      </trkpt>
      <trkpt lat="47.36372" lon="-0.50311">
        <ele>63</ele>
        <time>2021-07-04T09:10:13Z</time>
      </trkpt>
      <trkpt lat="47.36381" lon="-0.50307">
        <ele>60</ele>
        <time>2021-07-04T09:10:15Z</time>
      </trkpt>
      <trkpt lat="47.36389" lon="-0.50302">
        <ele>62</ele>
        <time>2021-07-04T09:10:17Z</time>
      </trkpt>
      <trkpt lat="47.36394" lon="-0.50301">
        <ele>65.6</ele>
        <time>2021-07-04T09:10:18Z</time>
      </trkpt>
      <trkpt lat="47.36398" lon="-0.50299">
        <ele>65.4</ele>
        <time>2021-07-04T09:10:19Z</time>
      </trkpt>
      <trkpt lat="47.36401" lon="-0.50298">
        <ele>64</ele>
        <time>2021-07-04T09:10:20Z</time>
      </trkpt>
      <trkpt lat="47.36405" lon="-0.50296">
        <ele>60.2</ele>
        <time>2021-07-04T09:10:21Z</time>
      </trkpt>
      <trkpt lat="47.36409" lon="-0.50294">
        <ele>62.2</ele>
        <time>2021-07-04T09:10:22Z</time>
      </trkpt>
      <trkpt lat="47.36413" lon="-0.50292">
        <ele>63</ele>
        <time>2021-07-04T09:10:23Z</time>
      </trkpt>
      <trkpt lat="47.36418" lon="-0.50291">
        <ele>64.2</ele>
        <time>2021-07-04T09:10:24Z</time>
      </trkpt>
      <trkpt lat="47.36423" lon="-0.50289">
        <ele>63.4</ele>
        <time>2021-07-04T09:10:25Z</time>
      </trkpt>
      <trkpt lat="47.36428" lon="-0.50287">
        <ele>63</ele>
        <time>2021-07-04T09:10:26Z</time>
      </trkpt>
      <trkpt lat="47.36433" lon="-0.50285">
        <ele>63</ele>
        <time>2021-07-04T09:10:27Z</time>
      </trkpt>
      <trkpt lat="47.36444" lon="-0.50279">
        <ele>62.6</ele>
        <time>2021-07-04T09:10:29Z</time>
      </trkpt>
      <trkpt lat="47.36456" lon="-0.50273">
        <ele>62.2</ele>
        <time>2021-07-04T09:10:31Z</time>
      </trkpt>
      <trkpt lat="47.36468" lon="-0.50267">
        <ele>62.2</ele>
        <time>2021-07-04T09:10:33Z</time>
      </trkpt>
      <trkpt lat="47.36474" lon="-0.50264">
        <ele>61.8</ele>
        <time>2021-07-04T09:10:34Z</time>
      </trkpt>
      <trkpt lat="47.3648" lon="-0.5026">
        <ele>61.4</ele>
        <time>2021-07-04T09:10:35Z</time>
      </trkpt>
      <trkpt lat="47.36493" lon="-0.50256">
        <ele>61.6</ele>
        <time>2021-07-04T09:10:37Z</time>
      </trkpt>
      <trkpt lat="47.36506" lon="-0.50252">
        <ele>61.4</ele>
        <time>2021-07-04T09:10:39Z</time>
      </trkpt>
      <trkpt lat="47.36513" lon="-0.50251">
        <ele>61</ele>
        <time>2021-07-04T09:10:40Z</time>
      </trkpt>
      <trkpt lat="47.36519" lon="-0.50249">
        <ele>61</ele>
        <time>2021-07-04T09:10:41Z</time>
      </trkpt>
      <trkpt lat="47.36526" lon="-0.50248">
        <ele>60.8</ele>
        <time>2021-07-04T09:10:42Z</time>
      </trkpt>
      <trkpt lat="47.36532" lon="-0.50246">
        <ele>60.4</ele>
        <time>2021-07-04T09:10:43Z</time>
      </trkpt>
      <trkpt lat="47.36546" lon="-0.50243">
        <ele>59.6</ele>
        <time>2021-07-04T09:10:45Z</time>
      </trkpt>
      <trkpt lat="47.36559" lon="-0.50238">
        <ele>58.8</ele>
        <time>2021-07-04T09:10:47Z</time>
      </trkpt>
      <trkpt lat="47.36566" lon="-0.50236">
        <ele>58.4</ele>
        <time>2021-07-04T09:10:48Z</time>
      </trkpt>
      <trkpt lat="47.36574" lon="-0.50233">
        <ele>58.2</ele>
        <time>2021-07-04T09:10:49Z</time>
      </trkpt>
      <trkpt lat="47.36588" lon="-0.50227">
        <ele>57.8</ele>
        <time>2021-07-04T09:10:51Z</time>
      </trkpt>
      <trkpt lat="47.36603" lon="-0.50221">
        <ele>56.8</ele>
        <time>2021-07-04T09:10:53Z</time>
      </trkpt>
      <trkpt lat="47.36618" lon="-0.50215">
        <ele>56.8</ele>
        <time>2021-07-04T09:10:55Z</time>
      </trkpt>
      <trkpt lat="47.36625" lon="-0.50211">
        <ele>56.8</ele>
        <time>2021-07-04T09:10:56Z</time>
      </trkpt>
      <trkpt lat="47.36633" lon="-0.50208">
        <ele>56</ele>
        <time>2021-07-04T09:10:57Z</time>
      </trkpt>
      <trkpt lat="47.36641" lon="-0.50204">
        <ele>55.6</ele>
        <time>2021-07-04T09:10:58Z</time>
      </trkpt>
      <trkpt lat="47.36649" lon="-0.50201">
        <ele>55.2</ele>
        <time>2021-07-04T09:10:59Z</time>
      </trkpt>
      <trkpt lat="47.36665" lon="-0.50196">
        <ele>54.8</ele>
        <time>2021-07-04T09:11:01Z</time>
      </trkpt>
      <trkpt lat="47.36673" lon="-0.50193">
        <ele>53.8</ele>
        <time>2021-07-04T09:11:02Z</time>
      </trkpt>
      <trkpt lat="47.36682" lon="-0.5019">
        <ele>53.4</ele>
        <time>2021-07-04T09:11:03Z</time>
      </trkpt>
      <trkpt lat="47.3669" lon="-0.50188">
        <ele>52.8</ele>
        <time>2021-07-04T09:11:04Z</time>
      </trkpt>
      <trkpt lat="47.36699" lon="-0.50186">
        <ele>52.4</ele>
        <time>2021-07-04T09:11:05Z</time>
      </trkpt>
      <trkpt lat="47.36708" lon="-0.50184">
        <ele>51.6</ele>
        <time>2021-07-04T09:11:06Z</time>
      </trkpt>
      <trkpt lat="47.36717" lon="-0.50181">
        <ele>51.2</ele>
        <time>2021-07-04T09:11:07Z</time>
      </trkpt>
      <trkpt lat="47.36726" lon="-0.50178">
        <ele>50.2</ele>
        <time>2021-07-04T09:11:08Z</time>
      </trkpt>
      <trkpt lat="47.36735" lon="-0.50175">
        <ele>49.4</ele>
        <time>2021-07-04T09:11:09Z</time>
      </trkpt>
      <trkpt lat="47.36744" lon="-0.50173">
        <ele>48.6</ele>
        <time>2021-07-04T09:11:10Z</time>
      </trkpt>
      <trkpt lat="47.36753" lon="-0.5017">
        <ele>48.6</ele>
        <time>2021-07-04T09:11:11Z</time>
      </trkpt>
      <trkpt lat="47.36771" lon="-0.50165">
        <ele>47.6</ele>
        <time>2021-07-04T09:11:13Z</time>
      </trkpt>
      <trkpt lat="47.3678" lon="-0.50163">
        <ele>47.6</ele>
        <time>2021-07-04T09:11:14Z</time>
      </trkpt>
      <trkpt lat="47.36789" lon="-0.50161">
        <ele>47.4</ele>
        <time>2021-07-04T09:11:15Z</time>
      </trkpt>
      <trkpt lat="47.36807" lon="-0.50157">
        <ele>47</ele>
        <time>2021-07-04T09:11:17Z</time>
      </trkpt>
      <trkpt lat="47.36825" lon="-0.50154">
        <ele>47</ele>
        <time>2021-07-04T09:11:19Z</time>
      </trkpt>
      <trkpt lat="47.36843" lon="-0.50154">
        <ele>47.6</ele>
        <time>2021-07-04T09:11:21Z</time>
      </trkpt>
      <trkpt lat="47.36861" lon="-0.50154">
        <ele>45.8</ele>
        <time>2021-07-04T09:11:23Z</time>
      </trkpt>
      <trkpt lat="47.3688" lon="-0.50153">
        <ele>44.4</ele>
        <time>2021-07-04T09:11:25Z</time>
      </trkpt>
      <trkpt lat="47.36898" lon="-0.50154">
        <ele>44.4</ele>
        <time>2021-07-04T09:11:27Z</time>
      </trkpt>
      <trkpt lat="47.36915" lon="-0.50155">
        <ele>44.8</ele>
        <time>2021-07-04T09:11:29Z</time>
      </trkpt>
      <trkpt lat="47.36932" lon="-0.50157">
        <ele>44.6</ele>
        <time>2021-07-04T09:11:31Z</time>
      </trkpt>
      <trkpt lat="47.36949" lon="-0.50155">
        <ele>45</ele>
        <time>2021-07-04T09:11:33Z</time>
      </trkpt>
      <trkpt lat="47.36966" lon="-0.50153">
        <ele>44.6</ele>
        <time>2021-07-04T09:11:35Z</time>
      </trkpt>
      <trkpt lat="47.36973" lon="-0.50151">
        <ele>44.6</ele>
        <time>2021-07-04T09:11:36Z</time>
      </trkpt>
      <trkpt lat="47.36981" lon="-0.50149">
        <ele>44.6</ele>
        <time>2021-07-04T09:11:37Z</time>
      </trkpt>
      <trkpt lat="47.36996" lon="-0.50145">
        <ele>45.2</ele>
        <time>2021-07-04T09:11:39Z</time>
      </trkpt>
      <trkpt lat="47.3701" lon="-0.50143">
        <ele>45.2</ele>
        <time>2021-07-04T09:11:41Z</time>
      </trkpt>
      <trkpt lat="47.37017" lon="-0.50142">
        <ele>45.2</ele>
        <time>2021-07-04T09:11:42Z</time>
      </trkpt>
      <trkpt lat="47.37025" lon="-0.50141">
        <ele>45.4</ele>
        <time>2021-07-04T09:11:43Z</time>
      </trkpt>
      <trkpt lat="47.37039" lon="-0.50138">
        <ele>45</ele>
        <time>2021-07-04T09:11:45Z</time>
      </trkpt>
      <trkpt lat="47.37053" lon="-0.50134">
        <ele>44.6</ele>
        <time>2021-07-04T09:11:47Z</time>
      </trkpt>
      <trkpt lat="47.37059" lon="-0.5013">
        <ele>44.6</ele>
        <time>2021-07-04T09:11:48Z</time>
      </trkpt>
      <trkpt lat="47.37064" lon="-0.50124">
        <ele>44.6</ele>
        <time>2021-07-04T09:11:49Z</time>
      </trkpt>
      <trkpt lat="47.37073" lon="-0.50109">
        <ele>44.2</ele>
        <time>2021-07-04T09:11:51Z</time>
      </trkpt>
      <trkpt lat="47.37081" lon="-0.50094">
        <ele>43.6</ele>
        <time>2021-07-04T09:11:53Z</time>
      </trkpt>
      <trkpt lat="47.37089" lon="-0.50079">
        <ele>43.8</ele>
        <time>2021-07-04T09:11:55Z</time>
      </trkpt>
      <trkpt lat="47.37096" lon="-0.50063">
        <ele>43.2</ele>
        <time>2021-07-04T09:11:57Z</time>
      </trkpt>
      <trkpt lat="47.37102" lon="-0.50048">
        <ele>43</ele>
        <time>2021-07-04T09:11:59Z</time>
      </trkpt>
      <trkpt lat="47.37103" lon="-0.5004">
        <ele>42.8</ele>
        <time>2021-07-04T09:12:00Z</time>
      </trkpt>
      <trkpt lat="47.37103" lon="-0.50032">
        <ele>42.4</ele>
        <time>2021-07-04T09:12:01Z</time>
      </trkpt>
      <trkpt lat="47.37101" lon="-0.50014">
        <ele>42</ele>
        <time>2021-07-04T09:12:03Z</time>
      </trkpt>
      <trkpt lat="47.37099" lon="-0.49995">
        <ele>42</ele>
        <time>2021-07-04T09:12:05Z</time>
      </trkpt>
      <trkpt lat="47.37099" lon="-0.49985">
        <ele>42</ele>
        <time>2021-07-04T09:12:06Z</time>
      </trkpt>
      <trkpt lat="47.37097" lon="-0.49975">
        <ele>41.8</ele>
        <time>2021-07-04T09:12:07Z</time>
      </trkpt>
      <trkpt lat="47.37095" lon="-0.49954">
        <ele>41.2</ele>
        <time>2021-07-04T09:12:09Z</time>
      </trkpt>
      <trkpt lat="47.37094" lon="-0.49943">
        <ele>40.6</ele>
        <time>2021-07-04T09:12:10Z</time>
      </trkpt>
      <trkpt lat="47.37092" lon="-0.49933">
        <ele>40</ele>
        <time>2021-07-04T09:12:11Z</time>
      </trkpt>
      <trkpt lat="47.3709" lon="-0.49923">
        <ele>39.8</ele>
        <time>2021-07-04T09:12:12Z</time>
      </trkpt>
      <trkpt lat="47.37089" lon="-0.49914">
        <ele>39.8</ele>
        <time>2021-07-04T09:12:13Z</time>
      </trkpt>
      <trkpt lat="47.37085" lon="-0.49895">
        <ele>39.8</ele>
        <time>2021-07-04T09:12:15Z</time>
      </trkpt>
      <trkpt lat="47.37083" lon="-0.49886">
        <ele>39.6</ele>
        <time>2021-07-04T09:12:16Z</time>
      </trkpt>
      <trkpt lat="47.3708" lon="-0.49877">
        <ele>39.4</ele>
        <time>2021-07-04T09:12:17Z</time>
      </trkpt>
      <trkpt lat="47.37075" lon="-0.49861">
        <ele>39.2</ele>
        <time>2021-07-04T09:12:19Z</time>
      </trkpt>
      <trkpt lat="47.3707" lon="-0.49844">
        <ele>39.4</ele>
        <time>2021-07-04T09:12:21Z</time>
      </trkpt>
      <trkpt lat="47.37065" lon="-0.49826">
        <ele>39.8</ele>
        <time>2021-07-04T09:12:23Z</time>
      </trkpt>
      <trkpt lat="47.3706" lon="-0.4981">
        <ele>40.6</ele>
        <time>2021-07-04T09:12:25Z</time>
      </trkpt>
      <trkpt lat="47.37058" lon="-0.49802">
        <ele>40.8</ele>
        <time>2021-07-04T09:12:26Z</time>
      </trkpt>
      <trkpt lat="47.37055" lon="-0.49794">
        <ele>41</ele>
        <time>2021-07-04T09:12:27Z</time>
      </trkpt>
      <trkpt lat="47.37051" lon="-0.49779">
        <ele>40.8</ele>
        <time>2021-07-04T09:12:29Z</time>
      </trkpt>
      <trkpt lat="47.37047" lon="-0.49764">
        <ele>40.8</ele>
        <time>2021-07-04T09:12:31Z</time>
      </trkpt>
      <trkpt lat="47.37043" lon="-0.49748">
        <ele>40.8</ele>
        <time>2021-07-04T09:12:33Z</time>
      </trkpt>
      <trkpt lat="47.37038" lon="-0.49731">
        <ele>40.6</ele>
        <time>2021-07-04T09:12:35Z</time>
      </trkpt>
      <trkpt lat="47.37035" lon="-0.49715">
        <ele>40.8</ele>
        <time>2021-07-04T09:12:37Z</time>
      </trkpt>
      <trkpt lat="47.37034" lon="-0.49698">
        <ele>41.8</ele>
        <time>2021-07-04T09:12:39Z</time>
      </trkpt>
      <trkpt lat="47.37036" lon="-0.49681">
        <ele>42.6</ele>
        <time>2021-07-04T09:12:41Z</time>
      </trkpt>
      <trkpt lat="47.37039" lon="-0.49666">
        <ele>42.2</ele>
        <time>2021-07-04T09:12:43Z</time>
      </trkpt>
      <trkpt lat="47.37041" lon="-0.49654">
        <ele>42.6</ele>
        <time>2021-07-04T09:12:45Z</time>
      </trkpt>
      <trkpt lat="47.37043" lon="-0.49651">
        <ele>43</ele>
        <time>2021-07-04T09:12:46Z</time>
      </trkpt>
      <trkpt lat="47.37045" lon="-0.49651">
        <ele>43</ele>
        <time>2021-07-04T09:12:47Z</time>
      </trkpt>
      <trkpt lat="47.37047" lon="-0.49652">
        <ele>42</ele>
        <time>2021-07-04T09:12:49Z</time>
      </trkpt>
      <trkpt lat="47.37048" lon="-0.49653">
        <ele>41.8</ele>
        <time>2021-07-04T09:12:50Z</time>
      </trkpt>
      <trkpt lat="47.37049" lon="-0.49655">
        <ele>41.6</ele>
        <time>2021-07-04T09:12:51Z</time>
      </trkpt>
      <trkpt lat="47.37058" lon="-0.49662">
        <ele>41.4</ele>
        <time>2021-07-04T09:12:53Z</time>
      </trkpt>
      <trkpt lat="47.37065" lon="-0.49664">
        <ele>41.2</ele>
        <time>2021-07-04T09:12:54Z</time>
      </trkpt>
      <trkpt lat="47.37073" lon="-0.49666">
        <ele>41</ele>
        <time>2021-07-04T09:12:55Z</time>
      </trkpt>
      <trkpt lat="47.37081" lon="-0.49669">
        <ele>40.4</ele>
        <time>2021-07-04T09:12:56Z</time>
      </trkpt>
      <trkpt lat="47.37089" lon="-0.49671">
        <ele>39.6</ele>
        <time>2021-07-04T09:12:57Z</time>
      </trkpt>
      <trkpt lat="47.37098" lon="-0.49674">
        <ele>39</ele>
        <time>2021-07-04T09:12:58Z</time>
      </trkpt>
      <trkpt lat="47.37107" lon="-0.49676">
        <ele>38.8</ele>
        <time>2021-07-04T09:12:59Z</time>
      </trkpt>
      <trkpt lat="47.37116" lon="-0.49679">
        <ele>38.4</ele>
        <time>2021-07-04T09:13:00Z</time>
      </trkpt>
      <trkpt lat="47.37125" lon="-0.49682">
        <ele>37.8</ele>
        <time>2021-07-04T09:13:01Z</time>
      </trkpt>
      <trkpt lat="47.37142" lon="-0.49687">
        <ele>36</ele>
        <time>2021-07-04T09:13:03Z</time>
      </trkpt>
      <trkpt lat="47.37161" lon="-0.49694">
        <ele>34.8</ele>
        <time>2021-07-04T09:13:05Z</time>
      </trkpt>
      <trkpt lat="47.37171" lon="-0.49697">
        <ele>34.2</ele>
        <time>2021-07-04T09:13:06Z</time>
      </trkpt>
      <trkpt lat="47.37181" lon="-0.49701">
        <ele>33.2</ele>
        <time>2021-07-04T09:13:07Z</time>
      </trkpt>
      <trkpt lat="47.37201" lon="-0.49707">
        <ele>31.2</ele>
        <time>2021-07-04T09:13:09Z</time>
      </trkpt>
      <trkpt lat="47.37221" lon="-0.49713">
        <ele>29.4</ele>
        <time>2021-07-04T09:13:11Z</time>
      </trkpt>
      <trkpt lat="47.37231" lon="-0.49715">
        <ele>28</ele>
        <time>2021-07-04T09:13:12Z</time>
      </trkpt>
      <trkpt lat="47.37241" lon="-0.49716">
        <ele>27.6</ele>
        <time>2021-07-04T09:13:13Z</time>
      </trkpt>
      <trkpt lat="47.37251" lon="-0.49716">
        <ele>26.8</ele>
        <time>2021-07-04T09:13:14Z</time>
      </trkpt>
      <trkpt lat="47.37261" lon="-0.49715">
        <ele>26.4</ele>
        <time>2021-07-04T09:13:15Z</time>
      </trkpt>
      <trkpt lat="47.37271" lon="-0.49715">
        <ele>26.2</ele>
        <time>2021-07-04T09:13:16Z</time>
      </trkpt>
      <trkpt lat="47.3728" lon="-0.49715">
        <ele>26.4</ele>
        <time>2021-07-04T09:13:17Z</time>
      </trkpt>
      <trkpt lat="47.37298" lon="-0.49714">
        <ele>27</ele>
        <time>2021-07-04T09:13:19Z</time>
      </trkpt>
      <trkpt lat="47.37313" lon="-0.49713">
        <ele>28.4</ele>
        <time>2021-07-04T09:13:21Z</time>
      </trkpt>
      <trkpt lat="47.37319" lon="-0.49713">
        <ele>29.4</ele>
        <time>2021-07-04T09:13:22Z</time>
      </trkpt>
      <trkpt lat="47.37322" lon="-0.4971">
        <ele>30</ele>
        <time>2021-07-04T09:13:23Z</time>
      </trkpt>
      <trkpt lat="47.37326" lon="-0.49705">
        <ele>30.2</ele>
        <time>2021-07-04T09:13:24Z</time>
      </trkpt>
      <trkpt lat="47.37329" lon="-0.49699">
        <ele>30.2</ele>
        <time>2021-07-04T09:13:25Z</time>
      </trkpt>
      <trkpt lat="47.37329" lon="-0.49684">
        <ele>29.8</ele>
        <time>2021-07-04T09:13:27Z</time>
      </trkpt>
      <trkpt lat="47.37329" lon="-0.49675">
        <ele>29.6</ele>
        <time>2021-07-04T09:13:28Z</time>
      </trkpt>
      <trkpt lat="47.37329" lon="-0.49666">
        <ele>29.4</ele>
        <time>2021-07-04T09:13:29Z</time>
      </trkpt>
      <trkpt lat="47.3733" lon="-0.49648">
        <ele>29.4</ele>
        <time>2021-07-04T09:13:31Z</time>
      </trkpt>
      <trkpt lat="47.37331" lon="-0.4963">
        <ele>29.2</ele>
        <time>2021-07-04T09:13:33Z</time>
      </trkpt>
      <trkpt lat="47.37332" lon="-0.49611">
        <ele>29</ele>
        <time>2021-07-04T09:13:35Z</time>
      </trkpt>
      <trkpt lat="47.37332" lon="-0.49593">
        <ele>28.2</ele>
        <time>2021-07-04T09:13:37Z</time>
      </trkpt>
      <trkpt lat="47.37334" lon="-0.49574">
        <ele>28.8</ele>
        <time>2021-07-04T09:13:39Z</time>
      </trkpt>
      <trkpt lat="47.37336" lon="-0.49555">
        <ele>28.8</ele>
        <time>2021-07-04T09:13:41Z</time>
      </trkpt>
      <trkpt lat="47.37339" lon="-0.49537">
        <ele>28.8</ele>
        <time>2021-07-04T09:13:43Z</time>
      </trkpt>
      <trkpt lat="47.37343" lon="-0.49519">
        <ele>29</ele>
        <time>2021-07-04T09:13:45Z</time>
      </trkpt>
      <trkpt lat="47.37346" lon="-0.49501">
        <ele>29.2</ele>
        <time>2021-07-04T09:13:47Z</time>
      </trkpt>
      <trkpt lat="47.37347" lon="-0.49493">
        <ele>29.4</ele>
        <time>2021-07-04T09:13:48Z</time>
      </trkpt>
      <trkpt lat="47.37349" lon="-0.49484">
        <ele>29.6</ele>
        <time>2021-07-04T09:13:49Z</time>
      </trkpt>
      <trkpt lat="47.3735" lon="-0.49465">
        <ele>29.2</ele>
        <time>2021-07-04T09:13:51Z</time>
      </trkpt>
      <trkpt lat="47.37353" lon="-0.49446">
        <ele>29</ele>
        <time>2021-07-04T09:13:53Z</time>
      </trkpt>
      <trkpt lat="47.37355" lon="-0.49429">
        <ele>29</ele>
        <time>2021-07-04T09:13:55Z</time>
      </trkpt>
      <trkpt lat="47.37357" lon="-0.49414">
        <ele>29.2</ele>
        <time>2021-07-04T09:13:57Z</time>
      </trkpt>
      <trkpt lat="47.37359" lon="-0.49399">
        <ele>29.8</ele>
        <time>2021-07-04T09:13:59Z</time>
      </trkpt>
      <trkpt lat="47.37361" lon="-0.49392">
        <ele>29.4</ele>
        <time>2021-07-04T09:14:00Z</time>
      </trkpt>
      <trkpt lat="47.37362" lon="-0.49385">
        <ele>29.2</ele>
        <time>2021-07-04T09:14:01Z</time>
      </trkpt>
      <trkpt lat="47.37367" lon="-0.4937">
        <ele>29.6</ele>
        <time>2021-07-04T09:14:03Z</time>
      </trkpt>
      <trkpt lat="47.37371" lon="-0.49363">
        <ele>29.6</ele>
        <time>2021-07-04T09:14:04Z</time>
      </trkpt>
      <trkpt lat="47.37375" lon="-0.49356">
        <ele>29.6</ele>
        <time>2021-07-04T09:14:05Z</time>
      </trkpt>
      <trkpt lat="47.37382" lon="-0.4934">
        <ele>30.2</ele>
        <time>2021-07-04T09:14:07Z</time>
      </trkpt>
      <trkpt lat="47.3739" lon="-0.49326">
        <ele>29.8</ele>
        <time>2021-07-04T09:14:09Z</time>
      </trkpt>
      <trkpt lat="47.37395" lon="-0.49318">
        <ele>29.8</ele>
        <time>2021-07-04T09:14:10Z</time>
      </trkpt>
      <trkpt lat="47.37399" lon="-0.4931">
        <ele>30.2</ele>
        <time>2021-07-04T09:14:11Z</time>
      </trkpt>
      <trkpt lat="47.37407" lon="-0.49294">
        <ele>30.2</ele>
        <time>2021-07-04T09:14:13Z</time>
      </trkpt>
      <trkpt lat="47.37415" lon="-0.49279">
        <ele>30</ele>
        <time>2021-07-04T09:14:15Z</time>
      </trkpt>
      <trkpt lat="47.37424" lon="-0.49262">
        <ele>30</ele>
        <time>2021-07-04T09:14:17Z</time>
      </trkpt>
      <trkpt lat="47.37431" lon="-0.49248">
        <ele>30</ele>
        <time>2021-07-04T09:14:19Z</time>
      </trkpt>
      <trkpt lat="47.37437" lon="-0.49235">
        <ele>30.6</ele>
        <time>2021-07-04T09:14:21Z</time>
      </trkpt>
      <trkpt lat="47.3744" lon="-0.49228">
        <ele>30.6</ele>
        <time>2021-07-04T09:14:22Z</time>
      </trkpt>
      <trkpt lat="47.37443" lon="-0.4922">
        <ele>30.4</ele>
        <time>2021-07-04T09:14:23Z</time>
      </trkpt>
      <trkpt lat="47.37449" lon="-0.49204">
        <ele>29.6</ele>
        <time>2021-07-04T09:14:25Z</time>
      </trkpt>
      <trkpt lat="47.37452" lon="-0.49196">
        <ele>29.6</ele>
        <time>2021-07-04T09:14:26Z</time>
      </trkpt>
      <trkpt lat="47.37456" lon="-0.49189">
        <ele>29.8</ele>
        <time>2021-07-04T09:14:27Z</time>
      </trkpt>
      <trkpt lat="47.37464" lon="-0.49173">
        <ele>29.6</ele>
        <time>2021-07-04T09:14:29Z</time>
      </trkpt>
      <trkpt lat="47.3747" lon="-0.4916">
        <ele>29.4</ele>
        <time>2021-07-04T09:14:31Z</time>
      </trkpt>
      <trkpt lat="47.37477" lon="-0.49146">
        <ele>30.2</ele>
        <time>2021-07-04T09:14:33Z</time>
      </trkpt>
      <trkpt lat="47.37484" lon="-0.49132">
        <ele>30.4</ele>
        <time>2021-07-04T09:14:35Z</time>
      </trkpt>
      <trkpt lat="47.37492" lon="-0.49118">
        <ele>30.2</ele>
        <time>2021-07-04T09:14:37Z</time>
      </trkpt>
      <trkpt lat="47.37495" lon="-0.49111">
        <ele>30.6</ele>
        <time>2021-07-04T09:14:38Z</time>
      </trkpt>
      <trkpt lat="47.37498" lon="-0.49104">
        <ele>31</ele>
        <time>2021-07-04T09:14:39Z</time>
      </trkpt>
      <trkpt lat="47.37501" lon="-0.49097">
        <ele>31.6</ele>
        <time>2021-07-04T09:14:40Z</time>
      </trkpt>
      <trkpt lat="47.37504" lon="-0.49091">
        <ele>31.8</ele>
        <time>2021-07-04T09:14:41Z</time>
      </trkpt>
      <trkpt lat="47.37506" lon="-0.49083">
        <ele>32</ele>
        <time>2021-07-04T09:14:42Z</time>
      </trkpt>
      <trkpt lat="47.37508" lon="-0.49075">
        <ele>32</ele>
        <time>2021-07-04T09:14:43Z</time>
      </trkpt>
      <trkpt lat="47.37511" lon="-0.49059">
        <ele>32</ele>
        <time>2021-07-04T09:14:45Z</time>
      </trkpt>
      <trkpt lat="47.37514" lon="-0.49043">
        <ele>31.8</ele>
        <time>2021-07-04T09:14:47Z</time>
      </trkpt>
      <trkpt lat="47.37516" lon="-0.49028">
        <ele>32</ele>
        <time>2021-07-04T09:14:49Z</time>
      </trkpt>
      <trkpt lat="47.37515" lon="-0.4902">
        <ele>32.2</ele>
        <time>2021-07-04T09:14:50Z</time>
      </trkpt>
      <trkpt lat="47.37514" lon="-0.49013">
        <ele>32</ele>
        <time>2021-07-04T09:14:51Z</time>
      </trkpt>
      <trkpt lat="47.3751" lon="-0.48996">
        <ele>31.4</ele>
        <time>2021-07-04T09:14:53Z</time>
      </trkpt>
      <trkpt lat="47.37505" lon="-0.48979">
        <ele>31</ele>
        <time>2021-07-04T09:14:55Z</time>
      </trkpt>
      <trkpt lat="47.37504" lon="-0.4897">
        <ele>31</ele>
        <time>2021-07-04T09:14:56Z</time>
      </trkpt>
      <trkpt lat="47.37504" lon="-0.48961">
        <ele>31.2</ele>
        <time>2021-07-04T09:14:57Z</time>
      </trkpt>
      <trkpt lat="47.37503" lon="-0.48953">
        <ele>31.4</ele>
        <time>2021-07-04T09:14:58Z</time>
      </trkpt>
      <trkpt lat="47.37502" lon="-0.48946">
        <ele>31.2</ele>
        <time>2021-07-04T09:14:59Z</time>
      </trkpt>
      <trkpt lat="47.375" lon="-0.4893">
        <ele>30.6</ele>
        <time>2021-07-04T09:15:01Z</time>
      </trkpt>
      <trkpt lat="47.375" lon="-0.48922">
        <ele>30.6</ele>
        <time>2021-07-04T09:15:02Z</time>
      </trkpt>
      <trkpt lat="47.37501" lon="-0.48915">
        <ele>30.8</ele>
        <time>2021-07-04T09:15:03Z</time>
      </trkpt>
      <trkpt lat="47.37505" lon="-0.48906">
        <ele>31.4</ele>
        <time>2021-07-04T09:15:05Z</time>
      </trkpt>
      <trkpt lat="47.37513" lon="-0.48903">
        <ele>31.8</ele>
        <time>2021-07-04T09:15:07Z</time>
      </trkpt>
      <trkpt lat="47.37518" lon="-0.48901">
        <ele>31.8</ele>
        <time>2021-07-04T09:15:08Z</time>
      </trkpt>
      <trkpt lat="47.37522" lon="-0.48898">
        <ele>32</ele>
        <time>2021-07-04T09:15:09Z</time>
      </trkpt>
      <trkpt lat="47.37527" lon="-0.48896">
        <ele>32</ele>
        <time>2021-07-04T09:15:10Z</time>
      </trkpt>
      <trkpt lat="47.37531" lon="-0.48894">
        <ele>32.2</ele>
        <time>2021-07-04T09:15:11Z</time>
      </trkpt>
      <trkpt lat="47.3754" lon="-0.48889">
        <ele>32.8</ele>
        <time>2021-07-04T09:15:13Z</time>
      </trkpt>
      <trkpt lat="47.37545" lon="-0.48887">
        <ele>33</ele>
        <time>2021-07-04T09:15:14Z</time>
      </trkpt>
      <trkpt lat="47.37549" lon="-0.48885">
        <ele>33.2</ele>
        <time>2021-07-04T09:15:15Z</time>
      </trkpt>
      <trkpt lat="47.37558" lon="-0.48881">
        <ele>33.6</ele>
        <time>2021-07-04T09:15:17Z</time>
      </trkpt>
      <trkpt lat="47.37563" lon="-0.48879">
        <ele>33.8</ele>
        <time>2021-07-04T09:15:18Z</time>
      </trkpt>
      <trkpt lat="47.37568" lon="-0.48877">
        <ele>33.8</ele>
        <time>2021-07-04T09:15:19Z</time>
      </trkpt>
      <trkpt lat="47.37573" lon="-0.48874">
        <ele>34</ele>
        <time>2021-07-04T09:15:20Z</time>
      </trkpt>
      <trkpt lat="47.37577" lon="-0.48871">
        <ele>34.2</ele>
        <time>2021-07-04T09:15:21Z</time>
      </trkpt>
      <trkpt lat="47.37585" lon="-0.48866">
        <ele>34.8</ele>
        <time>2021-07-04T09:15:23Z</time>
      </trkpt>
      <trkpt lat="47.3759" lon="-0.48863">
        <ele>35</ele>
        <time>2021-07-04T09:15:24Z</time>
      </trkpt>
      <trkpt lat="47.37594" lon="-0.48861">
        <ele>35</ele>
        <time>2021-07-04T09:15:25Z</time>
      </trkpt>
      <trkpt lat="47.37601" lon="-0.48855">
        <ele>35.8</ele>
        <time>2021-07-04T09:15:27Z</time>
      </trkpt>
      <trkpt lat="47.37605" lon="-0.48853">
        <ele>36</ele>
        <time>2021-07-04T09:15:28Z</time>
      </trkpt>
      <trkpt lat="47.37609" lon="-0.4885">
        <ele>36.4</ele>
        <time>2021-07-04T09:15:29Z</time>
      </trkpt>
      <trkpt lat="47.37617" lon="-0.48844">
        <ele>37</ele>
        <time>2021-07-04T09:15:31Z</time>
      </trkpt>
      <trkpt lat="47.37621" lon="-0.4884">
        <ele>37.2</ele>
        <time>2021-07-04T09:15:32Z</time>
      </trkpt>
      <trkpt lat="47.37624" lon="-0.48837">
        <ele>37.4</ele>
        <time>2021-07-04T09:15:33Z</time>
      </trkpt>
      <trkpt lat="47.37628" lon="-0.48832">
        <ele>37.6</ele>
        <time>2021-07-04T09:15:34Z</time>
      </trkpt>
      <trkpt lat="47.37631" lon="-0.48828">
        <ele>37.8</ele>
        <time>2021-07-04T09:15:35Z</time>
      </trkpt>
      <trkpt lat="47.37637" lon="-0.48821">
        <ele>38.2</ele>
        <time>2021-07-04T09:15:37Z</time>
      </trkpt>
      <trkpt lat="47.3764" lon="-0.48813">
        <ele>38.6</ele>
        <time>2021-07-04T09:15:39Z</time>
      </trkpt>
      <trkpt lat="47.37637" lon="-0.48804">
        <ele>38.6</ele>
        <time>2021-07-04T09:15:41Z</time>
      </trkpt>
      <trkpt lat="47.37635" lon="-0.48799">
        <ele>38.6</ele>
        <time>2021-07-04T09:15:42Z</time>
      </trkpt>
      <trkpt lat="47.37634" lon="-0.48793">
        <ele>38.6</ele>
        <time>2021-07-04T09:15:43Z</time>
      </trkpt>
      <trkpt lat="47.3763" lon="-0.48782">
        <ele>38.2</ele>
        <time>2021-07-04T09:15:45Z</time>
      </trkpt>
      <trkpt lat="47.37626" lon="-0.48771">
        <ele>37.6</ele>
        <time>2021-07-04T09:15:47Z</time>
      </trkpt>
      <trkpt lat="47.37624" lon="-0.48766">
        <ele>37.6</ele>
        <time>2021-07-04T09:15:48Z</time>
      </trkpt>
      <trkpt lat="47.37622" lon="-0.48761">
        <ele>37.8</ele>
        <time>2021-07-04T09:15:49Z</time>
      </trkpt>
      <trkpt lat="47.37618" lon="-0.48748">
        <ele>38.6</ele>
        <time>2021-07-04T09:15:51Z</time>
      </trkpt>
      <trkpt lat="47.37614" lon="-0.48736">
        <ele>39.6</ele>
        <time>2021-07-04T09:15:53Z</time>
      </trkpt>
      <trkpt lat="47.3761" lon="-0.48725">
        <ele>40.2</ele>
        <time>2021-07-04T09:15:55Z</time>
      </trkpt>
      <trkpt lat="47.37605" lon="-0.48713">
        <ele>40.8</ele>
        <time>2021-07-04T09:15:57Z</time>
      </trkpt>
      <trkpt lat="47.376" lon="-0.48701">
        <ele>40.8</ele>
        <time>2021-07-04T09:15:59Z</time>
      </trkpt>
      <trkpt lat="47.37595" lon="-0.48687">
        <ele>41.2</ele>
        <time>2021-07-04T09:16:01Z</time>
      </trkpt>
      <trkpt lat="47.3759" lon="-0.48673">
        <ele>41</ele>
        <time>2021-07-04T09:16:03Z</time>
      </trkpt>
      <trkpt lat="47.37585" lon="-0.48658">
        <ele>40.6</ele>
        <time>2021-07-04T09:16:05Z</time>
      </trkpt>
      <trkpt lat="47.37579" lon="-0.48643">
        <ele>40.8</ele>
        <time>2021-07-04T09:16:07Z</time>
      </trkpt>
      <trkpt lat="47.37576" lon="-0.48635">
        <ele>40.8</ele>
        <time>2021-07-04T09:16:08Z</time>
      </trkpt>
      <trkpt lat="47.37573" lon="-0.48628">
        <ele>40.8</ele>
        <time>2021-07-04T09:16:09Z</time>
      </trkpt>
      <trkpt lat="47.37568" lon="-0.48614">
        <ele>40.4</ele>
        <time>2021-07-04T09:16:11Z</time>
      </trkpt>
      <trkpt lat="47.37562" lon="-0.48599">
        <ele>40</ele>
        <time>2021-07-04T09:16:13Z</time>
      </trkpt>
      <trkpt lat="47.37555" lon="-0.48584">
        <ele>39.8</ele>
        <time>2021-07-04T09:16:15Z</time>
      </trkpt>
      <trkpt lat="47.37549" lon="-0.48568">
        <ele>39.8</ele>
        <time>2021-07-04T09:16:17Z</time>
      </trkpt>
      <trkpt lat="47.37542" lon="-0.4855">
        <ele>39.4</ele>
        <time>2021-07-04T09:16:19Z</time>
      </trkpt>
      <trkpt lat="47.37536" lon="-0.48532">
        <ele>39</ele>
        <time>2021-07-04T09:16:21Z</time>
      </trkpt>
      <trkpt lat="47.37532" lon="-0.48523">
        <ele>38.6</ele>
        <time>2021-07-04T09:16:22Z</time>
      </trkpt>
      <trkpt lat="47.37529" lon="-0.48513">
        <ele>37.6</ele>
        <time>2021-07-04T09:16:23Z</time>
      </trkpt>
      <trkpt lat="47.37526" lon="-0.48503">
        <ele>36.4</ele>
        <time>2021-07-04T09:16:24Z</time>
      </trkpt>
      <trkpt lat="47.37522" lon="-0.48493">
        <ele>35.6</ele>
        <time>2021-07-04T09:16:25Z</time>
      </trkpt>
      <trkpt lat="47.37518" lon="-0.48482">
        <ele>35</ele>
        <time>2021-07-04T09:16:26Z</time>
      </trkpt>
      <trkpt lat="47.37514" lon="-0.48472">
        <ele>34.4</ele>
        <time>2021-07-04T09:16:27Z</time>
      </trkpt>
      <trkpt lat="47.37509" lon="-0.48456">
        <ele>34.6</ele>
        <time>2021-07-04T09:16:29Z</time>
      </trkpt>
      <trkpt lat="47.37508" lon="-0.4845">
        <ele>35</ele>
        <time>2021-07-04T09:16:30Z</time>
      </trkpt>
      <trkpt lat="47.3751" lon="-0.48445">
        <ele>35.4</ele>
        <time>2021-07-04T09:16:31Z</time>
      </trkpt>
      <trkpt lat="47.37515" lon="-0.48438">
        <ele>36</ele>
        <time>2021-07-04T09:16:33Z</time>
      </trkpt>
      <trkpt lat="47.37518" lon="-0.48434">
        <ele>36</ele>
        <time>2021-07-04T09:16:34Z</time>
      </trkpt>
      <trkpt lat="47.3752" lon="-0.48431">
        <ele>36.2</ele>
        <time>2021-07-04T09:16:35Z</time>
      </trkpt>
      <trkpt lat="47.37526" lon="-0.48424">
        <ele>37.2</ele>
        <time>2021-07-04T09:16:37Z</time>
      </trkpt>
      <trkpt lat="47.37529" lon="-0.48421">
        <ele>37.6</ele>
        <time>2021-07-04T09:16:38Z</time>
      </trkpt>
      <trkpt lat="47.37532" lon="-0.48418">
        <ele>37.8</ele>
        <time>2021-07-04T09:16:39Z</time>
      </trkpt>
      <trkpt lat="47.37534" lon="-0.48415">
        <ele>38.4</ele>
        <time>2021-07-04T09:16:40Z</time>
      </trkpt>
      <trkpt lat="47.37536" lon="-0.48411">
        <ele>39</ele>
        <time>2021-07-04T09:16:41Z</time>
      </trkpt>
      <trkpt lat="47.37541" lon="-0.48403">
        <ele>39.2</ele>
        <time>2021-07-04T09:16:43Z</time>
      </trkpt>
      <trkpt lat="47.37546" lon="-0.48396">
        <ele>39.4</ele>
        <time>2021-07-04T09:16:45Z</time>
      </trkpt>
      <trkpt lat="47.37549" lon="-0.48388">
        <ele>39.8</ele>
        <time>2021-07-04T09:16:47Z</time>
      </trkpt>
      <trkpt lat="47.37552" lon="-0.48385">
        <ele>40.4</ele>
        <time>2021-07-04T09:16:48Z</time>
      </trkpt>
      <trkpt lat="47.37554" lon="-0.48381">
        <ele>40.6</ele>
        <time>2021-07-04T09:16:49Z</time>
      </trkpt>
      <trkpt lat="47.37559" lon="-0.48375">
        <ele>41</ele>
        <time>2021-07-04T09:16:51Z</time>
      </trkpt>
      <trkpt lat="47.37565" lon="-0.48368">
        <ele>41.4</ele>
        <time>2021-07-04T09:16:53Z</time>
      </trkpt>
      <trkpt lat="47.37567" lon="-0.48365">
        <ele>41.4</ele>
        <time>2021-07-04T09:16:54Z</time>
      </trkpt>
      <trkpt lat="47.3757" lon="-0.48362">
        <ele>41.4</ele>
        <time>2021-07-04T09:16:55Z</time>
      </trkpt>
      <trkpt lat="47.37576" lon="-0.48357">
        <ele>41.8</ele>
        <time>2021-07-04T09:16:57Z</time>
      </trkpt>
      <trkpt lat="47.37582" lon="-0.48352">
        <ele>42.2</ele>
        <time>2021-07-04T09:16:59Z</time>
      </trkpt>
      <trkpt lat="47.37585" lon="-0.4835">
        <ele>42.4</ele>
        <time>2021-07-04T09:17:00Z</time>
      </trkpt>
      <trkpt lat="47.37588" lon="-0.48348">
        <ele>42.4</ele>
        <time>2021-07-04T09:17:01Z</time>
      </trkpt>
      <trkpt lat="47.37594" lon="-0.48343">
        <ele>42.8</ele>
        <time>2021-07-04T09:17:03Z</time>
      </trkpt>
      <trkpt lat="47.37601" lon="-0.48338">
        <ele>43.2</ele>
        <time>2021-07-04T09:17:05Z</time>
      </trkpt>
      <trkpt lat="47.37608" lon="-0.48333">
        <ele>43.6</ele>
        <time>2021-07-04T09:17:07Z</time>
      </trkpt>
      <trkpt lat="47.37611" lon="-0.4833">
        <ele>43.4</ele>
        <time>2021-07-04T09:17:08Z</time>
      </trkpt>
      <trkpt lat="47.37614" lon="-0.48327">
        <ele>43.6</ele>
        <time>2021-07-04T09:17:09Z</time>
      </trkpt>
      <trkpt lat="47.3762" lon="-0.48322">
        <ele>44.4</ele>
        <time>2021-07-04T09:17:11Z</time>
      </trkpt>
      <trkpt lat="47.37623" lon="-0.48319">
        <ele>44.8</ele>
        <time>2021-07-04T09:17:12Z</time>
      </trkpt>
      <trkpt lat="47.37626" lon="-0.48317">
        <ele>45</ele>
        <time>2021-07-04T09:17:13Z</time>
      </trkpt>
      <trkpt lat="47.37632" lon="-0.48313">
        <ele>45.8</ele>
        <time>2021-07-04T09:17:15Z</time>
      </trkpt>
      <trkpt lat="47.37635" lon="-0.48311">
        <ele>46</ele>
        <time>2021-07-04T09:17:16Z</time>
      </trkpt>
      <trkpt lat="47.37638" lon="-0.48309">
        <ele>46.4</ele>
        <time>2021-07-04T09:17:17Z</time>
      </trkpt>
      <trkpt lat="47.37645" lon="-0.48306">
        <ele>46.6</ele>
        <time>2021-07-04T09:17:19Z</time>
      </trkpt>
      <trkpt lat="47.37651" lon="-0.48301">
        <ele>47</ele>
        <time>2021-07-04T09:17:21Z</time>
      </trkpt>
      <trkpt lat="47.37658" lon="-0.48297">
        <ele>47.2</ele>
        <time>2021-07-04T09:17:23Z</time>
      </trkpt>
      <trkpt lat="47.37664" lon="-0.48293">
        <ele>47.2</ele>
        <time>2021-07-04T09:17:25Z</time>
      </trkpt>
      <trkpt lat="47.3767" lon="-0.48289">
        <ele>47.8</ele>
        <time>2021-07-04T09:17:27Z</time>
      </trkpt>
      <trkpt lat="47.37673" lon="-0.48287">
        <ele>48.2</ele>
        <time>2021-07-04T09:17:28Z</time>
      </trkpt>
      <trkpt lat="47.37676" lon="-0.48285">
        <ele>48.4</ele>
        <time>2021-07-04T09:17:29Z</time>
      </trkpt>
      <trkpt lat="47.37683" lon="-0.48282">
        <ele>48.6</ele>
        <time>2021-07-04T09:17:31Z</time>
      </trkpt>
      <trkpt lat="47.37686" lon="-0.48279">
        <ele>48.6</ele>
        <time>2021-07-04T09:17:32Z</time>
      </trkpt>
      <trkpt lat="47.37689" lon="-0.48277">
        <ele>48.8</ele>
        <time>2021-07-04T09:17:33Z</time>
      </trkpt>
      <trkpt lat="47.37695" lon="-0.48273">
        <ele>49.4</ele>
        <time>2021-07-04T09:17:35Z</time>
      </trkpt>
      <trkpt lat="47.37701" lon="-0.48269">
        <ele>49.8</ele>
        <time>2021-07-04T09:17:37Z</time>
      </trkpt>
      <trkpt lat="47.37707" lon="-0.48265">
        <ele>50.2</ele>
        <time>2021-07-04T09:17:39Z</time>
      </trkpt>
      <trkpt lat="47.37709" lon="-0.48263">
        <ele>50.4</ele>
        <time>2021-07-04T09:17:40Z</time>
      </trkpt>
      <trkpt lat="47.37712" lon="-0.48261">
        <ele>50.6</ele>
        <time>2021-07-04T09:17:41Z</time>
      </trkpt>
      <trkpt lat="47.37719" lon="-0.48258">
        <ele>51</ele>
        <time>2021-07-04T09:17:43Z</time>
      </trkpt>
      <trkpt lat="47.37725" lon="-0.48254">
        <ele>51.4</ele>
        <time>2021-07-04T09:17:45Z</time>
      </trkpt>
      <trkpt lat="47.37731" lon="-0.48249">
        <ele>52</ele>
        <time>2021-07-04T09:17:47Z</time>
      </trkpt>
      <trkpt lat="47.37737" lon="-0.48246">
        <ele>52.2</ele>
        <time>2021-07-04T09:17:49Z</time>
      </trkpt>
      <trkpt lat="47.37743" lon="-0.48242">
        <ele>52.6</ele>
        <time>2021-07-04T09:17:51Z</time>
      </trkpt>
      <trkpt lat="47.37749" lon="-0.48238">
        <ele>53.2</ele>
        <time>2021-07-04T09:17:53Z</time>
      </trkpt>
      <trkpt lat="47.37755" lon="-0.48234">
        <ele>53.6</ele>
        <time>2021-07-04T09:17:55Z</time>
      </trkpt>
      <trkpt lat="47.37761" lon="-0.48229">
        <ele>54</ele>
        <time>2021-07-04T09:17:57Z</time>
      </trkpt>
      <trkpt lat="47.37767" lon="-0.48225">
        <ele>54.4</ele>
        <time>2021-07-04T09:17:59Z</time>
      </trkpt>
      <trkpt lat="47.37774" lon="-0.48221">
        <ele>54.6</ele>
        <time>2021-07-04T09:18:01Z</time>
      </trkpt>
      <trkpt lat="47.3778" lon="-0.48217">
        <ele>54.8</ele>
        <time>2021-07-04T09:18:03Z</time>
      </trkpt>
      <trkpt lat="47.37787" lon="-0.48213">
        <ele>55.4</ele>
        <time>2021-07-04T09:18:05Z</time>
      </trkpt>
      <trkpt lat="47.37794" lon="-0.48208">
        <ele>55.6</ele>
        <time>2021-07-04T09:18:07Z</time>
      </trkpt>
      <trkpt lat="47.378" lon="-0.48204">
        <ele>56</ele>
        <time>2021-07-04T09:18:09Z</time>
      </trkpt>
      <trkpt lat="47.37806" lon="-0.48201">
        <ele>56.2</ele>
        <time>2021-07-04T09:18:11Z</time>
      </trkpt>
      <trkpt lat="47.37812" lon="-0.482">
        <ele>57</ele>
        <time>2021-07-04T09:18:13Z</time>
      </trkpt>
      <trkpt lat="47.37815" lon="-0.48202">
        <ele>57</ele>
        <time>2021-07-04T09:18:14Z</time>
      </trkpt>
      <trkpt lat="47.37818" lon="-0.48206">
        <ele>57</ele>
        <time>2021-07-04T09:18:15Z</time>
      </trkpt>
      <trkpt lat="47.37821" lon="-0.48215">
        <ele>57</ele>
        <time>2021-07-04T09:18:17Z</time>
      </trkpt>
      <trkpt lat="47.37823" lon="-0.48221">
        <ele>56.8</ele>
        <time>2021-07-04T09:18:18Z</time>
      </trkpt>
      <trkpt lat="47.37824" lon="-0.48227">
        <ele>56.4</ele>
        <time>2021-07-04T09:18:19Z</time>
      </trkpt>
      <trkpt lat="47.37825" lon="-0.48232">
        <ele>56.2</ele>
        <time>2021-07-04T09:18:20Z</time>
      </trkpt>
      <trkpt lat="47.37826" lon="-0.48238">
        <ele>56.4</ele>
        <time>2021-07-04T09:18:21Z</time>
      </trkpt>
      <trkpt lat="47.37829" lon="-0.48249">
        <ele>56.4</ele>
        <time>2021-07-04T09:18:23Z</time>
      </trkpt>
      <trkpt lat="47.37832" lon="-0.48257">
        <ele>56.4</ele>
        <time>2021-07-04T09:18:25Z</time>
      </trkpt>
      <trkpt lat="47.37836" lon="-0.48258">
        <ele>56.6</ele>
        <time>2021-07-04T09:18:26Z</time>
      </trkpt>
      <trkpt lat="47.3784" lon="-0.48258">
        <ele>56.8</ele>
        <time>2021-07-04T09:18:27Z</time>
      </trkpt>
      <trkpt lat="47.37843" lon="-0.48256">
        <ele>57.2</ele>
        <time>2021-07-04T09:18:28Z</time>
      </trkpt>
      <trkpt lat="47.37846" lon="-0.48254">
        <ele>57.2</ele>
        <time>2021-07-04T09:18:29Z</time>
      </trkpt>
      <trkpt lat="47.37849" lon="-0.48252">
        <ele>57.4</ele>
        <time>2021-07-04T09:18:30Z</time>
      </trkpt>
      <trkpt lat="47.37853" lon="-0.4825">
        <ele>57.6</ele>
        <time>2021-07-04T09:18:31Z</time>
      </trkpt>
      <trkpt lat="47.37859" lon="-0.48247">
        <ele>58</ele>
        <time>2021-07-04T09:18:33Z</time>
      </trkpt>
      <trkpt lat="47.37866" lon="-0.48244">
        <ele>58.4</ele>
        <time>2021-07-04T09:18:35Z</time>
      </trkpt>
      <trkpt lat="47.37873" lon="-0.48241">
        <ele>58.6</ele>
        <time>2021-07-04T09:18:37Z</time>
      </trkpt>
      <trkpt lat="47.3788" lon="-0.48238">
        <ele>59</ele>
        <time>2021-07-04T09:18:39Z</time>
      </trkpt>
      <trkpt lat="47.37883" lon="-0.48237">
        <ele>59.2</ele>
        <time>2021-07-04T09:18:40Z</time>
      </trkpt>
      <trkpt lat="47.37886" lon="-0.48235">
        <ele>59.4</ele>
        <time>2021-07-04T09:18:41Z</time>
      </trkpt>
      <trkpt lat="47.37889" lon="-0.48233">
        <ele>59.6</ele>
        <time>2021-07-04T09:18:42Z</time>
      </trkpt>
      <trkpt lat="47.37892" lon="-0.48232">
        <ele>59.8</ele>
        <time>2021-07-04T09:18:43Z</time>
      </trkpt>
      <trkpt lat="47.37899" lon="-0.48229">
        <ele>60.2</ele>
        <time>2021-07-04T09:18:45Z</time>
      </trkpt>
      <trkpt lat="47.37905" lon="-0.48225">
        <ele>60.4</ele>
        <time>2021-07-04T09:18:47Z</time>
      </trkpt>
      <trkpt lat="47.37911" lon="-0.48222">
        <ele>60.8</ele>
        <time>2021-07-04T09:18:49Z</time>
      </trkpt>
      <trkpt lat="47.37918" lon="-0.48219">
        <ele>61.2</ele>
        <time>2021-07-04T09:18:51Z</time>
      </trkpt>
      <trkpt lat="47.3792" lon="-0.48218">
        <ele>61.4</ele>
        <time>2021-07-04T09:18:52Z</time>
      </trkpt>
      <trkpt lat="47.37924" lon="-0.48217">
        <ele>61.4</ele>
        <time>2021-07-04T09:18:53Z</time>
      </trkpt>
      <trkpt lat="47.3793" lon="-0.48214">
        <ele>62</ele>
        <time>2021-07-04T09:18:55Z</time>
      </trkpt>
      <trkpt lat="47.37937" lon="-0.4821">
        <ele>62.2</ele>
        <time>2021-07-04T09:18:57Z</time>
      </trkpt>
      <trkpt lat="47.3794" lon="-0.48208">
        <ele>62.4</ele>
        <time>2021-07-04T09:18:58Z</time>
      </trkpt>
      <trkpt lat="47.37944" lon="-0.48207">
        <ele>62.4</ele>
        <time>2021-07-04T09:18:59Z</time>
      </trkpt>
      <trkpt lat="47.37951" lon="-0.48204">
        <ele>63</ele>
        <time>2021-07-04T09:19:01Z</time>
      </trkpt>
      <trkpt lat="47.37957" lon="-0.48201">
        <ele>63.4</ele>
        <time>2021-07-04T09:19:03Z</time>
      </trkpt>
      <trkpt lat="47.37963" lon="-0.48199">
        <ele>63.2</ele>
        <time>2021-07-04T09:19:05Z</time>
      </trkpt>
      <trkpt lat="47.3797" lon="-0.48196">
        <ele>63.4</ele>
        <time>2021-07-04T09:19:07Z</time>
      </trkpt>
      <trkpt lat="47.37977" lon="-0.48194">
        <ele>64</ele>
        <time>2021-07-04T09:19:09Z</time>
      </trkpt>
      <trkpt lat="47.37983" lon="-0.48196">
        <ele>64.4</ele>
        <time>2021-07-04T09:19:11Z</time>
      </trkpt>
      <trkpt lat="47.37987" lon="-0.48198">
        <ele>64.6</ele>
        <time>2021-07-04T09:19:12Z</time>
      </trkpt>
      <trkpt lat="47.37991" lon="-0.48201">
        <ele>64.8</ele>
        <time>2021-07-04T09:19:13Z</time>
      </trkpt>
      <trkpt lat="47.37994" lon="-0.48204">
        <ele>64.8</ele>
        <time>2021-07-04T09:19:14Z</time>
      </trkpt>
      <trkpt lat="47.37998" lon="-0.48208">
        <ele>65</ele>
        <time>2021-07-04T09:19:15Z</time>
      </trkpt>
      <trkpt lat="47.38005" lon="-0.48216">
        <ele>65</ele>
        <time>2021-07-04T09:19:17Z</time>
      </trkpt>
      <trkpt lat="47.38013" lon="-0.48224">
        <ele>64.6</ele>
        <time>2021-07-04T09:19:19Z</time>
      </trkpt>
      <trkpt lat="47.38022" lon="-0.48232">
        <ele>64.4</ele>
        <time>2021-07-04T09:19:21Z</time>
      </trkpt>
      <trkpt lat="47.3803" lon="-0.48239">
        <ele>64.4</ele>
        <time>2021-07-04T09:19:23Z</time>
      </trkpt>
      <trkpt lat="47.38039" lon="-0.48248">
        <ele>64.2</ele>
        <time>2021-07-04T09:19:25Z</time>
      </trkpt>
      <trkpt lat="47.38044" lon="-0.48252">
        <ele>64.4</ele>
        <time>2021-07-04T09:19:26Z</time>
      </trkpt>
      <trkpt lat="47.38049" lon="-0.48255">
        <ele>64</ele>
        <time>2021-07-04T09:19:27Z</time>
      </trkpt>
      <trkpt lat="47.38057" lon="-0.48265">
        <ele>63.6</ele>
        <time>2021-07-04T09:19:29Z</time>
      </trkpt>
      <trkpt lat="47.38065" lon="-0.48275">
        <ele>64</ele>
        <time>2021-07-04T09:19:31Z</time>
      </trkpt>
      <trkpt lat="47.38068" lon="-0.48282">
        <ele>63.4</ele>
        <time>2021-07-04T09:19:32Z</time>
      </trkpt>
      <trkpt lat="47.38072" lon="-0.48288">
        <ele>63</ele>
        <time>2021-07-04T09:19:33Z</time>
      </trkpt>
      <trkpt lat="47.38075" lon="-0.48294">
        <ele>62.4</ele>
        <time>2021-07-04T09:19:34Z</time>
      </trkpt>
      <trkpt lat="47.38079" lon="-0.48301">
        <ele>62.2</ele>
        <time>2021-07-04T09:19:35Z</time>
      </trkpt>
      <trkpt lat="47.38086" lon="-0.48314">
        <ele>61.4</ele>
        <time>2021-07-04T09:19:37Z</time>
      </trkpt>
      <trkpt lat="47.38093" lon="-0.48327">
        <ele>61.2</ele>
        <time>2021-07-04T09:19:39Z</time>
      </trkpt>
      <trkpt lat="47.38098" lon="-0.4834">
        <ele>61.6</ele>
        <time>2021-07-04T09:19:41Z</time>
      </trkpt>
      <trkpt lat="47.38104" lon="-0.48353">
        <ele>61</ele>
        <time>2021-07-04T09:19:43Z</time>
      </trkpt>
      <trkpt lat="47.38107" lon="-0.48361">
        <ele>60.8</ele>
        <time>2021-07-04T09:19:44Z</time>
      </trkpt>
      <trkpt lat="47.3811" lon="-0.48368">
        <ele>60.2</ele>
        <time>2021-07-04T09:19:45Z</time>
      </trkpt>
      <trkpt lat="47.38113" lon="-0.48376">
        <ele>60</ele>
        <time>2021-07-04T09:19:46Z</time>
      </trkpt>
      <trkpt lat="47.38116" lon="-0.48383">
        <ele>59.4</ele>
        <time>2021-07-04T09:19:47Z</time>
      </trkpt>
      <trkpt lat="47.38123" lon="-0.48398">
        <ele>59.6</ele>
        <time>2021-07-04T09:19:49Z</time>
      </trkpt>
      <trkpt lat="47.38129" lon="-0.48412">
        <ele>60.4</ele>
        <time>2021-07-04T09:19:51Z</time>
      </trkpt>
      <trkpt lat="47.38134" lon="-0.48427">
        <ele>59.6</ele>
        <time>2021-07-04T09:19:53Z</time>
      </trkpt>
      <trkpt lat="47.38137" lon="-0.48433">
        <ele>59.2</ele>
        <time>2021-07-04T09:19:54Z</time>
      </trkpt>
      <trkpt lat="47.38139" lon="-0.4844">
        <ele>59.2</ele>
        <time>2021-07-04T09:19:55Z</time>
      </trkpt>
      <trkpt lat="47.38145" lon="-0.48455">
        <ele>59.2</ele>
        <time>2021-07-04T09:19:57Z</time>
      </trkpt>
      <trkpt lat="47.3815" lon="-0.48471">
        <ele>59.4</ele>
        <time>2021-07-04T09:19:59Z</time>
      </trkpt>
      <trkpt lat="47.38154" lon="-0.48486">
        <ele>58.4</ele>
        <time>2021-07-04T09:20:01Z</time>
      </trkpt>
      <trkpt lat="47.38158" lon="-0.485">
        <ele>58</ele>
        <time>2021-07-04T09:20:03Z</time>
      </trkpt>
      <trkpt lat="47.38162" lon="-0.48515">
        <ele>58</ele>
        <time>2021-07-04T09:20:05Z</time>
      </trkpt>
      <trkpt lat="47.38165" lon="-0.48529">
        <ele>57.8</ele>
        <time>2021-07-04T09:20:07Z</time>
      </trkpt>
      <trkpt lat="47.38167" lon="-0.48537">
        <ele>57.6</ele>
        <time>2021-07-04T09:20:08Z</time>
      </trkpt>
      <trkpt lat="47.38168" lon="-0.48544">
        <ele>57.4</ele>
        <time>2021-07-04T09:20:09Z</time>
      </trkpt>
      <trkpt lat="47.38171" lon="-0.48558">
        <ele>57.8</ele>
        <time>2021-07-04T09:20:11Z</time>
      </trkpt>
      <trkpt lat="47.38173" lon="-0.48572">
        <ele>57.8</ele>
        <time>2021-07-04T09:20:13Z</time>
      </trkpt>
      <trkpt lat="47.38175" lon="-0.48579">
        <ele>57.4</ele>
        <time>2021-07-04T09:20:14Z</time>
      </trkpt>
      <trkpt lat="47.38177" lon="-0.48586">
        <ele>57</ele>
        <time>2021-07-04T09:20:15Z</time>
      </trkpt>
      <trkpt lat="47.38179" lon="-0.48599">
        <ele>56.4</ele>
        <time>2021-07-04T09:20:17Z</time>
      </trkpt>
      <trkpt lat="47.38184" lon="-0.48607">
        <ele>56.4</ele>
        <time>2021-07-04T09:20:19Z</time>
      </trkpt>
      <trkpt lat="47.38187" lon="-0.4861">
        <ele>56.8</ele>
        <time>2021-07-04T09:20:20Z</time>
      </trkpt>
      <trkpt lat="47.38191" lon="-0.48611">
        <ele>57</ele>
        <time>2021-07-04T09:20:21Z</time>
      </trkpt>
      <trkpt lat="47.38195" lon="-0.48612">
        <ele>57.2</ele>
        <time>2021-07-04T09:20:22Z</time>
      </trkpt>
      <trkpt lat="47.382" lon="-0.48615">
        <ele>57.2</ele>
        <time>2021-07-04T09:20:23Z</time>
      </trkpt>
      <trkpt lat="47.38204" lon="-0.48617">
        <ele>57.2</ele>
        <time>2021-07-04T09:20:24Z</time>
      </trkpt>
      <trkpt lat="47.38209" lon="-0.48619">
        <ele>57.4</ele>
        <time>2021-07-04T09:20:25Z</time>
      </trkpt>
      <trkpt lat="47.38218" lon="-0.48625">
        <ele>57.6</ele>
        <time>2021-07-04T09:20:27Z</time>
      </trkpt>
      <trkpt lat="47.38227" lon="-0.4863">
        <ele>57.6</ele>
        <time>2021-07-04T09:20:29Z</time>
      </trkpt>
      <trkpt lat="47.38232" lon="-0.48632">
        <ele>57.8</ele>
        <time>2021-07-04T09:20:30Z</time>
      </trkpt>
      <trkpt lat="47.38237" lon="-0.48634">
        <ele>58</ele>
        <time>2021-07-04T09:20:31Z</time>
      </trkpt>
      <trkpt lat="47.38248" lon="-0.48638">
        <ele>59</ele>
        <time>2021-07-04T09:20:33Z</time>
      </trkpt>
      <trkpt lat="47.38259" lon="-0.48639">
        <ele>60</ele>
        <time>2021-07-04T09:20:35Z</time>
      </trkpt>
      <trkpt lat="47.38265" lon="-0.48638">
        <ele>60.2</ele>
        <time>2021-07-04T09:20:36Z</time>
      </trkpt>
      <trkpt lat="47.38271" lon="-0.48638">
        <ele>60.6</ele>
        <time>2021-07-04T09:20:37Z</time>
      </trkpt>
      <trkpt lat="47.38282" lon="-0.48637">
        <ele>60.8</ele>
        <time>2021-07-04T09:20:39Z</time>
      </trkpt>
      <trkpt lat="47.38293" lon="-0.48634">
        <ele>60.6</ele>
        <time>2021-07-04T09:20:41Z</time>
      </trkpt>
      <trkpt lat="47.38303" lon="-0.48628">
        <ele>61</ele>
        <time>2021-07-04T09:20:43Z</time>
      </trkpt>
      <trkpt lat="47.38314" lon="-0.48622">
        <ele>60.6</ele>
        <time>2021-07-04T09:20:45Z</time>
      </trkpt>
      <trkpt lat="47.38319" lon="-0.48617">
        <ele>60.4</ele>
        <time>2021-07-04T09:20:46Z</time>
      </trkpt>
      <trkpt lat="47.38323" lon="-0.48612">
        <ele>60</ele>
        <time>2021-07-04T09:20:47Z</time>
      </trkpt>
      <trkpt lat="47.38327" lon="-0.48606">
        <ele>59.8</ele>
        <time>2021-07-04T09:20:48Z</time>
      </trkpt>
      <trkpt lat="47.38331" lon="-0.48601">
        <ele>59.2</ele>
        <time>2021-07-04T09:20:49Z</time>
      </trkpt>
      <trkpt lat="47.38335" lon="-0.48594">
        <ele>58.6</ele>
        <time>2021-07-04T09:20:50Z</time>
      </trkpt>
      <trkpt lat="47.38339" lon="-0.48587">
        <ele>58.4</ele>
        <time>2021-07-04T09:20:51Z</time>
      </trkpt>
      <trkpt lat="47.38346" lon="-0.48572">
        <ele>58.2</ele>
        <time>2021-07-04T09:20:53Z</time>
      </trkpt>
      <trkpt lat="47.3835" lon="-0.48565">
        <ele>58</ele>
        <time>2021-07-04T09:20:54Z</time>
      </trkpt>
      <trkpt lat="47.38355" lon="-0.48558">
        <ele>57.8</ele>
        <time>2021-07-04T09:20:55Z</time>
      </trkpt>
      <trkpt lat="47.38363" lon="-0.48543">
        <ele>58</ele>
        <time>2021-07-04T09:20:57Z</time>
      </trkpt>
      <trkpt lat="47.38373" lon="-0.48528">
        <ele>58</ele>
        <time>2021-07-04T09:20:59Z</time>
      </trkpt>
      <trkpt lat="47.38382" lon="-0.48515">
        <ele>57.6</ele>
        <time>2021-07-04T09:21:01Z</time>
      </trkpt>
      <trkpt lat="47.38391" lon="-0.48503">
        <ele>57.2</ele>
        <time>2021-07-04T09:21:03Z</time>
      </trkpt>
      <trkpt lat="47.38402" lon="-0.48494">
        <ele>57.6</ele>
        <time>2021-07-04T09:21:05Z</time>
      </trkpt>
      <trkpt lat="47.38414" lon="-0.48487">
        <ele>57.6</ele>
        <time>2021-07-04T09:21:07Z</time>
      </trkpt>
      <trkpt lat="47.38426" lon="-0.48483">
        <ele>57.4</ele>
        <time>2021-07-04T09:21:09Z</time>
      </trkpt>
      <trkpt lat="47.38431" lon="-0.48486">
        <ele>57.6</ele>
        <time>2021-07-04T09:21:10Z</time>
      </trkpt>
      <trkpt lat="47.38435" lon="-0.48491">
        <ele>57.8</ele>
        <time>2021-07-04T09:21:11Z</time>
      </trkpt>
      <trkpt lat="47.38438" lon="-0.48498">
        <ele>58</ele>
        <time>2021-07-04T09:21:12Z</time>
      </trkpt>
      <trkpt lat="47.38441" lon="-0.48504">
        <ele>58.2</ele>
        <time>2021-07-04T09:21:13Z</time>
      </trkpt>
      <trkpt lat="47.38443" lon="-0.48513">
        <ele>58.2</ele>
        <time>2021-07-04T09:21:14Z</time>
      </trkpt>
      <trkpt lat="47.38445" lon="-0.4852">
        <ele>58</ele>
        <time>2021-07-04T09:21:15Z</time>
      </trkpt>
      <trkpt lat="47.38449" lon="-0.48527">
        <ele>57.6</ele>
        <time>2021-07-04T09:21:16Z</time>
      </trkpt>
      <trkpt lat="47.38455" lon="-0.48531">
        <ele>57.2</ele>
        <time>2021-07-04T09:21:17Z</time>
      </trkpt>
      <trkpt lat="47.38461" lon="-0.48532">
        <ele>56.8</ele>
        <time>2021-07-04T09:21:18Z</time>
      </trkpt>
      <trkpt lat="47.38467" lon="-0.48533">
        <ele>56.8</ele>
        <time>2021-07-04T09:21:19Z</time>
      </trkpt>
      <trkpt lat="47.38479" lon="-0.48539">
        <ele>56.4</ele>
        <time>2021-07-04T09:21:21Z</time>
      </trkpt>
      <trkpt lat="47.38485" lon="-0.48544">
        <ele>56</ele>
        <time>2021-07-04T09:21:22Z</time>
      </trkpt>
      <trkpt lat="47.38489" lon="-0.48552">
        <ele>55.6</ele>
        <time>2021-07-04T09:21:23Z</time>
      </trkpt>
      <trkpt lat="47.38497" lon="-0.48568">
        <ele>54.6</ele>
        <time>2021-07-04T09:21:25Z</time>
      </trkpt>
      <trkpt lat="47.38501" lon="-0.48577">
        <ele>54.2</ele>
        <time>2021-07-04T09:21:26Z</time>
      </trkpt>
      <trkpt lat="47.38505" lon="-0.48586">
        <ele>54</ele>
        <time>2021-07-04T09:21:27Z</time>
      </trkpt>
      <trkpt lat="47.38512" lon="-0.48605">
        <ele>53.2</ele>
        <time>2021-07-04T09:21:29Z</time>
      </trkpt>
      <trkpt lat="47.38515" lon="-0.48614">
        <ele>52.6</ele>
        <time>2021-07-04T09:21:30Z</time>
      </trkpt>
      <trkpt lat="47.38519" lon="-0.48621">
        <ele>52.2</ele>
        <time>2021-07-04T09:21:31Z</time>
      </trkpt>
      <trkpt lat="47.38529" lon="-0.48625">
        <ele>52.4</ele>
        <time>2021-07-04T09:21:33Z</time>
      </trkpt>
      <trkpt lat="47.3854" lon="-0.48617">
        <ele>52.6</ele>
        <time>2021-07-04T09:21:35Z</time>
      </trkpt>
      <trkpt lat="47.38546" lon="-0.4861">
        <ele>52.8</ele>
        <time>2021-07-04T09:21:36Z</time>
      </trkpt>
      <trkpt lat="47.38551" lon="-0.48605">
        <ele>53.4</ele>
        <time>2021-07-04T09:21:37Z</time>
      </trkpt>
      <trkpt lat="47.38557" lon="-0.48597">
        <ele>53.8</ele>
        <time>2021-07-04T09:21:39Z</time>
      </trkpt>
      <trkpt lat="47.3856" lon="-0.48592">
        <ele>54.2</ele>
        <time>2021-07-04T09:21:40Z</time>
      </trkpt>
      <trkpt lat="47.38563" lon="-0.48589">
        <ele>54.2</ele>
        <time>2021-07-04T09:21:41Z</time>
      </trkpt>
      <trkpt lat="47.38561" lon="-0.48589">
        <ele>54.2</ele>
        <time>2021-07-04T09:21:42Z</time>
      </trkpt>
      <trkpt lat="47.38561" lon="-0.48591">
        <ele>54.6</ele>
        <time>2021-07-04T09:26:19Z</time>
      </trkpt>
      <trkpt lat="47.38563" lon="-0.48591">
        <ele>54</ele>
        <time>2021-07-04T09:26:20Z</time>
      </trkpt>
      <trkpt lat="47.38566" lon="-0.48589">
        <ele>54</ele>
        <time>2021-07-04T09:26:22Z</time>
      </trkpt>
      <trkpt lat="47.38569" lon="-0.48587">
        <ele>54.4</ele>
        <time>2021-07-04T09:26:24Z</time>
      </trkpt>
      <trkpt lat="47.38573" lon="-0.48583">
        <ele>54.2</ele>
        <time>2021-07-04T09:26:26Z</time>
      </trkpt>
      <trkpt lat="47.38579" lon="-0.48579">
        <ele>54</ele>
        <time>2021-07-04T09:26:28Z</time>
      </trkpt>
      <trkpt lat="47.38582" lon="-0.48577">
        <ele>54.2</ele>
        <time>2021-07-04T09:26:29Z</time>
      </trkpt>
      <trkpt lat="47.38585" lon="-0.48575">
        <ele>54.6</ele>
        <time>2021-07-04T09:26:30Z</time>
      </trkpt>
      <trkpt lat="47.38593" lon="-0.48571">
        <ele>54.8</ele>
        <time>2021-07-04T09:26:32Z</time>
      </trkpt>
      <trkpt lat="47.386" lon="-0.48565">
        <ele>55.2</ele>
        <time>2021-07-04T09:26:34Z</time>
      </trkpt>
      <trkpt lat="47.38608" lon="-0.4856">
        <ele>55.6</ele>
        <time>2021-07-04T09:26:36Z</time>
      </trkpt>
      <trkpt lat="47.38617" lon="-0.48554">
        <ele>56</ele>
        <time>2021-07-04T09:26:38Z</time>
      </trkpt>
      <trkpt lat="47.38625" lon="-0.48547">
        <ele>56.2</ele>
        <time>2021-07-04T09:26:40Z</time>
      </trkpt>
      <trkpt lat="47.38629" lon="-0.48542">
        <ele>56.4</ele>
        <time>2021-07-04T09:26:41Z</time>
      </trkpt>
      <trkpt lat="47.38632" lon="-0.48536">
        <ele>53.4</ele>
        <time>2021-07-04T09:26:42Z</time>
      </trkpt>
      <trkpt lat="47.38633" lon="-0.48531">
        <ele>55.4</ele>
        <time>2021-07-04T09:26:43Z</time>
      </trkpt>
      <trkpt lat="47.38634" lon="-0.48525">
        <ele>56</ele>
        <time>2021-07-04T09:26:44Z</time>
      </trkpt>
      <trkpt lat="47.38633" lon="-0.4852">
        <ele>59.4</ele>
        <time>2021-07-04T09:26:45Z</time>
      </trkpt>
      <trkpt lat="47.38633" lon="-0.48515">
        <ele>57.6</ele>
        <time>2021-07-04T09:26:46Z</time>
      </trkpt>
      <trkpt lat="47.38632" lon="-0.4851">
        <ele>57</ele>
        <time>2021-07-04T09:26:47Z</time>
      </trkpt>
      <trkpt lat="47.38633" lon="-0.48506">
        <ele>57</ele>
        <time>2021-07-04T09:26:48Z</time>
      </trkpt>
      <trkpt lat="47.38635" lon="-0.48499">
        <ele>57.4</ele>
        <time>2021-07-04T09:26:50Z</time>
      </trkpt>
      <trkpt lat="47.38637" lon="-0.48496">
        <ele>57.6</ele>
        <time>2021-07-04T09:26:51Z</time>
      </trkpt>
      <trkpt lat="47.38639" lon="-0.48492">
        <ele>57.6</ele>
        <time>2021-07-04T09:26:52Z</time>
      </trkpt>
      <trkpt lat="47.38645" lon="-0.48485">
        <ele>57.4</ele>
        <time>2021-07-04T09:26:54Z</time>
      </trkpt>
      <trkpt lat="47.38649" lon="-0.48481">
        <ele>57.2</ele>
        <time>2021-07-04T09:26:55Z</time>
      </trkpt>
      <trkpt lat="47.38653" lon="-0.48478">
        <ele>57.2</ele>
        <time>2021-07-04T09:26:56Z</time>
      </trkpt>
      <trkpt lat="47.38658" lon="-0.48474">
        <ele>57</ele>
        <time>2021-07-04T09:26:57Z</time>
      </trkpt>
      <trkpt lat="47.38662" lon="-0.48471">
        <ele>57</ele>
        <time>2021-07-04T09:26:58Z</time>
      </trkpt>
      <trkpt lat="47.38672" lon="-0.48463">
        <ele>56.8</ele>
        <time>2021-07-04T09:27:00Z</time>
      </trkpt>
      <trkpt lat="47.38677" lon="-0.4846">
        <ele>56.6</ele>
        <time>2021-07-04T09:27:01Z</time>
      </trkpt>
      <trkpt lat="47.38682" lon="-0.48456">
        <ele>56.4</ele>
        <time>2021-07-04T09:27:02Z</time>
      </trkpt>
      <trkpt lat="47.38693" lon="-0.48449">
        <ele>55.6</ele>
        <time>2021-07-04T09:27:04Z</time>
      </trkpt>
      <trkpt lat="47.38699" lon="-0.48445">
        <ele>55.4</ele>
        <time>2021-07-04T09:27:05Z</time>
      </trkpt>
      <trkpt lat="47.38705" lon="-0.48441">
        <ele>55</ele>
        <time>2021-07-04T09:27:06Z</time>
      </trkpt>
      <trkpt lat="47.38717" lon="-0.48433">
        <ele>54.6</ele>
        <time>2021-07-04T09:27:08Z</time>
      </trkpt>
      <trkpt lat="47.38723" lon="-0.48427">
        <ele>54.4</ele>
        <time>2021-07-04T09:27:09Z</time>
      </trkpt>
      <trkpt lat="47.38728" lon="-0.48419">
        <ele>54.2</ele>
        <time>2021-07-04T09:27:10Z</time>
      </trkpt>
      <trkpt lat="47.38737" lon="-0.484">
        <ele>53.6</ele>
        <time>2021-07-04T09:27:12Z</time>
      </trkpt>
      <trkpt lat="47.38741" lon="-0.4839">
        <ele>52.8</ele>
        <time>2021-07-04T09:27:13Z</time>
      </trkpt>
      <trkpt lat="47.38746" lon="-0.4838">
        <ele>52</ele>
        <time>2021-07-04T09:27:14Z</time>
      </trkpt>
      <trkpt lat="47.38751" lon="-0.4837">
        <ele>51.2</ele>
        <time>2021-07-04T09:27:15Z</time>
      </trkpt>
      <trkpt lat="47.38756" lon="-0.4836">
        <ele>50.8</ele>
        <time>2021-07-04T09:27:16Z</time>
      </trkpt>
      <trkpt lat="47.38767" lon="-0.4834">
        <ele>50.4</ele>
        <time>2021-07-04T09:27:18Z</time>
      </trkpt>
      <trkpt lat="47.38777" lon="-0.48319">
        <ele>49.8</ele>
        <time>2021-07-04T09:27:20Z</time>
      </trkpt>
      <trkpt lat="47.38786" lon="-0.48296">
        <ele>49</ele>
        <time>2021-07-04T09:27:22Z</time>
      </trkpt>
      <trkpt lat="47.3879" lon="-0.48285">
        <ele>48</ele>
        <time>2021-07-04T09:27:23Z</time>
      </trkpt>
      <trkpt lat="47.38794" lon="-0.48274">
        <ele>47</ele>
        <time>2021-07-04T09:27:24Z</time>
      </trkpt>
      <trkpt lat="47.38802" lon="-0.48252">
        <ele>46.6</ele>
        <time>2021-07-04T09:27:26Z</time>
      </trkpt>
      <trkpt lat="47.38812" lon="-0.48234">
        <ele>46.8</ele>
        <time>2021-07-04T09:27:28Z</time>
      </trkpt>
      <trkpt lat="47.38817" lon="-0.48228">
        <ele>47</ele>
        <time>2021-07-04T09:27:29Z</time>
      </trkpt>
      <trkpt lat="47.38821" lon="-0.48224">
        <ele>47.2</ele>
        <time>2021-07-04T09:27:30Z</time>
      </trkpt>
      <trkpt lat="47.38821" lon="-0.4821">
        <ele>47.4</ele>
        <time>2021-07-04T09:27:32Z</time>
      </trkpt>
      <trkpt lat="47.38816" lon="-0.48197">
        <ele>47</ele>
        <time>2021-07-04T09:27:34Z</time>
      </trkpt>
      <trkpt lat="47.38813" lon="-0.48191">
        <ele>46.6</ele>
        <time>2021-07-04T09:27:35Z</time>
      </trkpt>
      <trkpt lat="47.3881" lon="-0.48184">
        <ele>46.4</ele>
        <time>2021-07-04T09:27:36Z</time>
      </trkpt>
      <trkpt lat="47.38803" lon="-0.48172">
        <ele>46.6</ele>
        <time>2021-07-04T09:27:38Z</time>
      </trkpt>
      <trkpt lat="47.38795" lon="-0.48159">
        <ele>46.2</ele>
        <time>2021-07-04T09:27:40Z</time>
      </trkpt>
      <trkpt lat="47.38791" lon="-0.48152">
        <ele>45.8</ele>
        <time>2021-07-04T09:27:41Z</time>
      </trkpt>
      <trkpt lat="47.38787" lon="-0.48145">
        <ele>45.6</ele>
        <time>2021-07-04T09:27:42Z</time>
      </trkpt>
      <trkpt lat="47.38779" lon="-0.48132">
        <ele>45.4</ele>
        <time>2021-07-04T09:27:44Z</time>
      </trkpt>
      <trkpt lat="47.38772" lon="-0.48118">
        <ele>45.4</ele>
        <time>2021-07-04T09:27:46Z</time>
      </trkpt>
      <trkpt lat="47.38764" lon="-0.48104">
        <ele>45.6</ele>
        <time>2021-07-04T09:27:48Z</time>
      </trkpt>
      <trkpt lat="47.38755" lon="-0.48092">
        <ele>46.2</ele>
        <time>2021-07-04T09:27:50Z</time>
      </trkpt>
      <trkpt lat="47.38747" lon="-0.48079">
        <ele>46.8</ele>
        <time>2021-07-04T09:27:52Z</time>
      </trkpt>
      <trkpt lat="47.38739" lon="-0.48065">
        <ele>46.2</ele>
        <time>2021-07-04T09:27:54Z</time>
      </trkpt>
      <trkpt lat="47.38731" lon="-0.48051">
        <ele>45.2</ele>
        <time>2021-07-04T09:27:56Z</time>
      </trkpt>
      <trkpt lat="47.38723" lon="-0.48039">
        <ele>45</ele>
        <time>2021-07-04T09:27:58Z</time>
      </trkpt>
      <trkpt lat="47.38715" lon="-0.48026">
        <ele>46</ele>
        <time>2021-07-04T09:28:00Z</time>
      </trkpt>
      <trkpt lat="47.38708" lon="-0.48013">
        <ele>45.6</ele>
        <time>2021-07-04T09:28:02Z</time>
      </trkpt>
      <trkpt lat="47.387" lon="-0.48">
        <ele>45.8</ele>
        <time>2021-07-04T09:28:04Z</time>
      </trkpt>
      <trkpt lat="47.38692" lon="-0.47987">
        <ele>45.2</ele>
        <time>2021-07-04T09:28:06Z</time>
      </trkpt>
      <trkpt lat="47.38683" lon="-0.47973">
        <ele>45.6</ele>
        <time>2021-07-04T09:28:08Z</time>
      </trkpt>
      <trkpt lat="47.38676" lon="-0.4796">
        <ele>45.8</ele>
        <time>2021-07-04T09:28:10Z</time>
      </trkpt>
      <trkpt lat="47.38668" lon="-0.47946">
        <ele>46.2</ele>
        <time>2021-07-04T09:28:12Z</time>
      </trkpt>
      <trkpt lat="47.3866" lon="-0.47932">
        <ele>46.4</ele>
        <time>2021-07-04T09:28:14Z</time>
      </trkpt>
      <trkpt lat="47.38656" lon="-0.47925">
        <ele>46</ele>
        <time>2021-07-04T09:28:15Z</time>
      </trkpt>
      <trkpt lat="47.38653" lon="-0.47918">
        <ele>45.4</ele>
        <time>2021-07-04T09:28:16Z</time>
      </trkpt>
      <trkpt lat="47.38645" lon="-0.47904">
        <ele>45.2</ele>
        <time>2021-07-04T09:28:18Z</time>
      </trkpt>
      <trkpt lat="47.38637" lon="-0.47889">
        <ele>45.8</ele>
        <time>2021-07-04T09:28:20Z</time>
      </trkpt>
      <trkpt lat="47.38629" lon="-0.47875">
        <ele>46.4</ele>
        <time>2021-07-04T09:28:22Z</time>
      </trkpt>
      <trkpt lat="47.38622" lon="-0.47861">
        <ele>46.8</ele>
        <time>2021-07-04T09:28:24Z</time>
      </trkpt>
      <trkpt lat="47.38618" lon="-0.47853">
        <ele>45.8</ele>
        <time>2021-07-04T09:28:25Z</time>
      </trkpt>
      <trkpt lat="47.38615" lon="-0.47846">
        <ele>45.4</ele>
        <time>2021-07-04T09:28:26Z</time>
      </trkpt>
      <trkpt lat="47.38608" lon="-0.47833">
        <ele>45.6</ele>
        <time>2021-07-04T09:28:28Z</time>
      </trkpt>
      <trkpt lat="47.38602" lon="-0.4782">
        <ele>46.4</ele>
        <time>2021-07-04T09:28:30Z</time>
      </trkpt>
      <trkpt lat="47.38599" lon="-0.47814">
        <ele>46.6</ele>
        <time>2021-07-04T09:28:31Z</time>
      </trkpt>
      <trkpt lat="47.38596" lon="-0.47809">
        <ele>47.2</ele>
        <time>2021-07-04T09:28:32Z</time>
      </trkpt>
      <trkpt lat="47.38593" lon="-0.478">
        <ele>48</ele>
        <time>2021-07-04T09:28:34Z</time>
      </trkpt>
      <trkpt lat="47.38588" lon="-0.4779">
        <ele>48</ele>
        <time>2021-07-04T09:28:36Z</time>
      </trkpt>
      <trkpt lat="47.38583" lon="-0.47779">
        <ele>48</ele>
        <time>2021-07-04T09:28:38Z</time>
      </trkpt>
      <trkpt lat="47.38581" lon="-0.47773">
        <ele>48.2</ele>
        <time>2021-07-04T09:28:39Z</time>
      </trkpt>
      <trkpt lat="47.38579" lon="-0.47767">
        <ele>48.4</ele>
        <time>2021-07-04T09:28:40Z</time>
      </trkpt>
      <trkpt lat="47.38576" lon="-0.47761">
        <ele>48.2</ele>
        <time>2021-07-04T09:28:41Z</time>
      </trkpt>
      <trkpt lat="47.38573" lon="-0.47754">
        <ele>48</ele>
        <time>2021-07-04T09:28:42Z</time>
      </trkpt>
      <trkpt lat="47.38566" lon="-0.4774">
        <ele>47.8</ele>
        <time>2021-07-04T09:28:44Z</time>
      </trkpt>
      <trkpt lat="47.38561" lon="-0.47726">
        <ele>47.6</ele>
        <time>2021-07-04T09:28:46Z</time>
      </trkpt>
      <trkpt lat="47.38554" lon="-0.47712">
        <ele>47.8</ele>
        <time>2021-07-04T09:28:48Z</time>
      </trkpt>
      <trkpt lat="47.38547" lon="-0.47698">
        <ele>47.8</ele>
        <time>2021-07-04T09:28:50Z</time>
      </trkpt>
      <trkpt lat="47.38542" lon="-0.47682">
        <ele>48</ele>
        <time>2021-07-04T09:28:52Z</time>
      </trkpt>
      <trkpt lat="47.38536" lon="-0.47667">
        <ele>48</ele>
        <time>2021-07-04T09:28:54Z</time>
      </trkpt>
      <trkpt lat="47.3853" lon="-0.4765">
        <ele>47.8</ele>
        <time>2021-07-04T09:28:56Z</time>
      </trkpt>
      <trkpt lat="47.38525" lon="-0.47634">
        <ele>47.8</ele>
        <time>2021-07-04T09:28:58Z</time>
      </trkpt>
      <trkpt lat="47.38519" lon="-0.47618">
        <ele>47.8</ele>
        <time>2021-07-04T09:29:00Z</time>
      </trkpt>
      <trkpt lat="47.38513" lon="-0.47602">
        <ele>48</ele>
        <time>2021-07-04T09:29:02Z</time>
      </trkpt>
      <trkpt lat="47.38507" lon="-0.47586">
        <ele>48.4</ele>
        <time>2021-07-04T09:29:04Z</time>
      </trkpt>
      <trkpt lat="47.38504" lon="-0.47578">
        <ele>48.4</ele>
        <time>2021-07-04T09:29:05Z</time>
      </trkpt>
      <trkpt lat="47.38501" lon="-0.47569">
        <ele>48.4</ele>
        <time>2021-07-04T09:29:06Z</time>
      </trkpt>
      <trkpt lat="47.38495" lon="-0.47554">
        <ele>48.2</ele>
        <time>2021-07-04T09:29:08Z</time>
      </trkpt>
      <trkpt lat="47.38488" lon="-0.47538">
        <ele>47.8</ele>
        <time>2021-07-04T09:29:10Z</time>
      </trkpt>
      <trkpt lat="47.38482" lon="-0.47522">
        <ele>48.4</ele>
        <time>2021-07-04T09:29:12Z</time>
      </trkpt>
      <trkpt lat="47.38476" lon="-0.47507">
        <ele>48.8</ele>
        <time>2021-07-04T09:29:14Z</time>
      </trkpt>
      <trkpt lat="47.3847" lon="-0.47491">
        <ele>48.8</ele>
        <time>2021-07-04T09:29:16Z</time>
      </trkpt>
      <trkpt lat="47.38464" lon="-0.47476">
        <ele>48.8</ele>
        <time>2021-07-04T09:29:18Z</time>
      </trkpt>
      <trkpt lat="47.38458" lon="-0.47461">
        <ele>49</ele>
        <time>2021-07-04T09:29:20Z</time>
      </trkpt>
      <trkpt lat="47.38452" lon="-0.47446">
        <ele>48.6</ele>
        <time>2021-07-04T09:29:22Z</time>
      </trkpt>
      <trkpt lat="47.38448" lon="-0.47439">
        <ele>48.4</ele>
        <time>2021-07-04T09:29:23Z</time>
      </trkpt>
      <trkpt lat="47.38445" lon="-0.47431">
        <ele>48.4</ele>
        <time>2021-07-04T09:29:24Z</time>
      </trkpt>
      <trkpt lat="47.38439" lon="-0.47418">
        <ele>48.2</ele>
        <time>2021-07-04T09:29:26Z</time>
      </trkpt>
      <trkpt lat="47.38433" lon="-0.47404">
        <ele>48.4</ele>
        <time>2021-07-04T09:29:28Z</time>
      </trkpt>
      <trkpt lat="47.38426" lon="-0.4739">
        <ele>48.4</ele>
        <time>2021-07-04T09:29:30Z</time>
      </trkpt>
      <trkpt lat="47.38423" lon="-0.47383">
        <ele>48.4</ele>
        <time>2021-07-04T09:29:31Z</time>
      </trkpt>
      <trkpt lat="47.38419" lon="-0.47376">
        <ele>48.2</ele>
        <time>2021-07-04T09:29:32Z</time>
      </trkpt>
      <trkpt lat="47.38412" lon="-0.47362">
        <ele>48</ele>
        <time>2021-07-04T09:29:34Z</time>
      </trkpt>
      <trkpt lat="47.38405" lon="-0.47348">
        <ele>48.6</ele>
        <time>2021-07-04T09:29:36Z</time>
      </trkpt>
      <trkpt lat="47.38398" lon="-0.47333">
        <ele>49</ele>
        <time>2021-07-04T09:29:38Z</time>
      </trkpt>
      <trkpt lat="47.38394" lon="-0.47327">
        <ele>49.2</ele>
        <time>2021-07-04T09:29:39Z</time>
      </trkpt>
      <trkpt lat="47.38391" lon="-0.47321">
        <ele>49</ele>
        <time>2021-07-04T09:29:40Z</time>
      </trkpt>
      <trkpt lat="47.38384" lon="-0.47309">
        <ele>49</ele>
        <time>2021-07-04T09:29:42Z</time>
      </trkpt>
      <trkpt lat="47.38377" lon="-0.47298">
        <ele>49</ele>
        <time>2021-07-04T09:29:44Z</time>
      </trkpt>
      <trkpt lat="47.3837" lon="-0.47285">
        <ele>49.4</ele>
        <time>2021-07-04T09:29:46Z</time>
      </trkpt>
      <trkpt lat="47.38363" lon="-0.47271">
        <ele>49.6</ele>
        <time>2021-07-04T09:29:48Z</time>
      </trkpt>
      <trkpt lat="47.38356" lon="-0.47259">
        <ele>49.4</ele>
        <time>2021-07-04T09:29:50Z</time>
      </trkpt>
      <trkpt lat="47.38349" lon="-0.47245">
        <ele>49.4</ele>
        <time>2021-07-04T09:29:52Z</time>
      </trkpt>
      <trkpt lat="47.38342" lon="-0.47231">
        <ele>49.2</ele>
        <time>2021-07-04T09:29:54Z</time>
      </trkpt>
      <trkpt lat="47.38339" lon="-0.47225">
        <ele>49.2</ele>
        <time>2021-07-04T09:29:55Z</time>
      </trkpt>
      <trkpt lat="47.38334" lon="-0.47219">
        <ele>49.2</ele>
        <time>2021-07-04T09:29:56Z</time>
      </trkpt>
      <trkpt lat="47.38331" lon="-0.47212">
        <ele>49.4</ele>
        <time>2021-07-04T09:29:57Z</time>
      </trkpt>
      <trkpt lat="47.38328" lon="-0.47205">
        <ele>49.4</ele>
        <time>2021-07-04T09:29:58Z</time>
      </trkpt>
      <trkpt lat="47.38319" lon="-0.47191">
        <ele>49.2</ele>
        <time>2021-07-04T09:30:00Z</time>
      </trkpt>
      <trkpt lat="47.38311" lon="-0.47177">
        <ele>49.8</ele>
        <time>2021-07-04T09:30:02Z</time>
      </trkpt>
      <trkpt lat="47.38303" lon="-0.47164">
        <ele>50.4</ele>
        <time>2021-07-04T09:30:04Z</time>
      </trkpt>
      <trkpt lat="47.38298" lon="-0.47157">
        <ele>50.6</ele>
        <time>2021-07-04T09:30:05Z</time>
      </trkpt>
      <trkpt lat="47.38295" lon="-0.47151">
        <ele>50.4</ele>
        <time>2021-07-04T09:30:06Z</time>
      </trkpt>
      <trkpt lat="47.38287" lon="-0.47138">
        <ele>50.6</ele>
        <time>2021-07-04T09:30:08Z</time>
      </trkpt>
      <trkpt lat="47.38283" lon="-0.47129">
        <ele>50.2</ele>
        <time>2021-07-04T09:30:10Z</time>
      </trkpt>
      <trkpt lat="47.38282" lon="-0.47124">
        <ele>50.4</ele>
        <time>2021-07-04T09:30:11Z</time>
      </trkpt>
      <trkpt lat="47.38284" lon="-0.47121">
        <ele>50.8</ele>
        <time>2021-07-04T09:30:12Z</time>
      </trkpt>
      <trkpt lat="47.38285" lon="-0.47117">
        <ele>51.4</ele>
        <time>2021-07-04T09:30:13Z</time>
      </trkpt>
      <trkpt lat="47.38287" lon="-0.47116">
        <ele>51.8</ele>
        <time>2021-07-04T09:30:14Z</time>
      </trkpt>
      <trkpt lat="47.38288" lon="-0.47115">
        <ele>51.8</ele>
        <time>2021-07-04T09:30:15Z</time>
      </trkpt>
      <trkpt lat="47.3829" lon="-0.47115">
        <ele>51.6</ele>
        <time>2021-07-04T09:30:16Z</time>
      </trkpt>
      <trkpt lat="47.38296" lon="-0.4712">
        <ele>51.4</ele>
        <time>2021-07-04T09:30:17Z</time>
      </trkpt>
      <trkpt lat="47.383" lon="-0.47125">
        <ele>50.8</ele>
        <time>2021-07-04T09:30:18Z</time>
      </trkpt>
      <trkpt lat="47.38305" lon="-0.47129">
        <ele>50.4</ele>
        <time>2021-07-04T09:30:19Z</time>
      </trkpt>
      <trkpt lat="47.3831" lon="-0.47134">
        <ele>50</ele>
        <time>2021-07-04T09:30:20Z</time>
      </trkpt>
      <trkpt lat="47.38314" lon="-0.47139">
        <ele>49.8</ele>
        <time>2021-07-04T09:30:21Z</time>
      </trkpt>
      <trkpt lat="47.3832" lon="-0.47144">
        <ele>49.8</ele>
        <time>2021-07-04T09:30:22Z</time>
      </trkpt>
      <trkpt lat="47.38331" lon="-0.47152">
        <ele>49.6</ele>
        <time>2021-07-04T09:30:24Z</time>
      </trkpt>
      <trkpt lat="47.38337" lon="-0.47157">
        <ele>49.4</ele>
        <time>2021-07-04T09:30:25Z</time>
      </trkpt>
      <trkpt lat="47.38342" lon="-0.4716">
        <ele>49.2</ele>
        <time>2021-07-04T09:30:26Z</time>
      </trkpt>
      <trkpt lat="47.38354" lon="-0.47167">
        <ele>49</ele>
        <time>2021-07-04T09:30:28Z</time>
      </trkpt>
      <trkpt lat="47.38367" lon="-0.47172">
        <ele>48.8</ele>
        <time>2021-07-04T09:30:30Z</time>
      </trkpt>
      <trkpt lat="47.38379" lon="-0.47177">
        <ele>48.4</ele>
        <time>2021-07-04T09:30:32Z</time>
      </trkpt>
      <trkpt lat="47.38385" lon="-0.47179">
        <ele>48.4</ele>
        <time>2021-07-04T09:30:33Z</time>
      </trkpt>
      <trkpt lat="47.38391" lon="-0.47181">
        <ele>48.6</ele>
        <time>2021-07-04T09:30:34Z</time>
      </trkpt>
      <trkpt lat="47.38404" lon="-0.47185">
        <ele>48.4</ele>
        <time>2021-07-04T09:30:36Z</time>
      </trkpt>
      <trkpt lat="47.38415" lon="-0.47188">
        <ele>48.2</ele>
        <time>2021-07-04T09:30:38Z</time>
      </trkpt>
      <trkpt lat="47.38426" lon="-0.47192">
        <ele>48.4</ele>
        <time>2021-07-04T09:30:40Z</time>
      </trkpt>
      <trkpt lat="47.3843" lon="-0.47193">
        <ele>48.8</ele>
        <time>2021-07-04T09:30:41Z</time>
      </trkpt>
      <trkpt lat="47.38434" lon="-0.47193">
        <ele>48.8</ele>
        <time>2021-07-04T09:30:42Z</time>
      </trkpt>
      <trkpt lat="47.38439" lon="-0.47187">
        <ele>49.2</ele>
        <time>2021-07-04T09:30:44Z</time>
      </trkpt>
      <trkpt lat="47.3844" lon="-0.47178">
        <ele>50</ele>
        <time>2021-07-04T09:30:46Z</time>
      </trkpt>
      <trkpt lat="47.38442" lon="-0.47167">
        <ele>49.6</ele>
        <time>2021-07-04T09:30:48Z</time>
      </trkpt>
      <trkpt lat="47.38444" lon="-0.4716">
        <ele>49.4</ele>
        <time>2021-07-04T09:30:49Z</time>
      </trkpt>
      <trkpt lat="47.38444" lon="-0.47154">
        <ele>49.4</ele>
        <time>2021-07-04T09:30:50Z</time>
      </trkpt>
      <trkpt lat="47.38447" lon="-0.47141">
        <ele>49.4</ele>
        <time>2021-07-04T09:30:52Z</time>
      </trkpt>
      <trkpt lat="47.38449" lon="-0.47127">
        <ele>50</ele>
        <time>2021-07-04T09:30:54Z</time>
      </trkpt>
      <trkpt lat="47.3845" lon="-0.47114">
        <ele>50</ele>
        <time>2021-07-04T09:30:56Z</time>
      </trkpt>
      <trkpt lat="47.38453" lon="-0.47102">
        <ele>50.4</ele>
        <time>2021-07-04T09:30:58Z</time>
      </trkpt>
      <trkpt lat="47.38458" lon="-0.47092">
        <ele>50.6</ele>
        <time>2021-07-04T09:31:00Z</time>
      </trkpt>
      <trkpt lat="47.3846" lon="-0.47088">
        <ele>50.4</ele>
        <time>2021-07-04T09:31:01Z</time>
      </trkpt>
      <trkpt lat="47.3846" lon="-0.47081">
        <ele>50.2</ele>
        <time>2021-07-04T09:31:02Z</time>
      </trkpt>
      <trkpt lat="47.38461" lon="-0.47069">
        <ele>50.2</ele>
        <time>2021-07-04T09:31:04Z</time>
      </trkpt>
      <trkpt lat="47.38465" lon="-0.47057">
        <ele>51.2</ele>
        <time>2021-07-04T09:31:06Z</time>
      </trkpt>
      <trkpt lat="47.38467" lon="-0.4705">
        <ele>51.6</ele>
        <time>2021-07-04T09:31:07Z</time>
      </trkpt>
      <trkpt lat="47.38467" lon="-0.47043">
        <ele>51.6</ele>
        <time>2021-07-04T09:31:08Z</time>
      </trkpt>
      <trkpt lat="47.38468" lon="-0.47028">
        <ele>50.6</ele>
        <time>2021-07-04T09:31:10Z</time>
      </trkpt>
      <trkpt lat="47.38469" lon="-0.47014">
        <ele>49.8</ele>
        <time>2021-07-04T09:31:12Z</time>
      </trkpt>
      <trkpt lat="47.38471" lon="-0.46999">
        <ele>49.8</ele>
        <time>2021-07-04T09:31:14Z</time>
      </trkpt>
      <trkpt lat="47.38472" lon="-0.46993">
        <ele>49.6</ele>
        <time>2021-07-04T09:31:15Z</time>
      </trkpt>
      <trkpt lat="47.38474" lon="-0.46989">
        <ele>50</ele>
        <time>2021-07-04T09:31:16Z</time>
      </trkpt>
      <trkpt lat="47.3848" lon="-0.46987">
        <ele>50.2</ele>
        <time>2021-07-04T09:31:18Z</time>
      </trkpt>
      <trkpt lat="47.38489" lon="-0.46988">
        <ele>50.2</ele>
        <time>2021-07-04T09:31:20Z</time>
      </trkpt>
      <trkpt lat="47.38499" lon="-0.46989">
        <ele>49.8</ele>
        <time>2021-07-04T09:31:22Z</time>
      </trkpt>
      <trkpt lat="47.3851" lon="-0.4699">
        <ele>49.6</ele>
        <time>2021-07-04T09:31:24Z</time>
      </trkpt>
      <trkpt lat="47.38522" lon="-0.46992">
        <ele>49.6</ele>
        <time>2021-07-04T09:31:26Z</time>
      </trkpt>
      <trkpt lat="47.38528" lon="-0.46993">
        <ele>49</ele>
        <time>2021-07-04T09:31:27Z</time>
      </trkpt>
      <trkpt lat="47.38534" lon="-0.46994">
        <ele>48.8</ele>
        <time>2021-07-04T09:31:28Z</time>
      </trkpt>
      <trkpt lat="47.38545" lon="-0.46996">
        <ele>48.8</ele>
        <time>2021-07-04T09:31:30Z</time>
      </trkpt>
      <trkpt lat="47.38556" lon="-0.46997">
        <ele>48.6</ele>
        <time>2021-07-04T09:31:32Z</time>
      </trkpt>
      <trkpt lat="47.38562" lon="-0.46998">
        <ele>48.4</ele>
        <time>2021-07-04T09:31:33Z</time>
      </trkpt>
      <trkpt lat="47.38567" lon="-0.46998">
        <ele>48.6</ele>
        <time>2021-07-04T09:31:34Z</time>
      </trkpt>
      <trkpt lat="47.38578" lon="-0.46999">
        <ele>48.6</ele>
        <time>2021-07-04T09:31:36Z</time>
      </trkpt>
      <trkpt lat="47.38591" lon="-0.47">
        <ele>48.6</ele>
        <time>2021-07-04T09:31:38Z</time>
      </trkpt>
      <trkpt lat="47.38602" lon="-0.47001">
        <ele>48.2</ele>
        <time>2021-07-04T09:31:40Z</time>
      </trkpt>
      <trkpt lat="47.38613" lon="-0.47001">
        <ele>48.4</ele>
        <time>2021-07-04T09:31:42Z</time>
      </trkpt>
      <trkpt lat="47.38624" lon="-0.47001">
        <ele>48</ele>
        <time>2021-07-04T09:31:44Z</time>
      </trkpt>
      <trkpt lat="47.38634" lon="-0.47001">
        <ele>48.2</ele>
        <time>2021-07-04T09:31:46Z</time>
      </trkpt>
      <trkpt lat="47.38639" lon="-0.47">
        <ele>47.8</ele>
        <time>2021-07-04T09:31:47Z</time>
      </trkpt>
      <trkpt lat="47.38645" lon="-0.46998">
        <ele>47.8</ele>
        <time>2021-07-04T09:31:48Z</time>
      </trkpt>
      <trkpt lat="47.38658" lon="-0.46995">
        <ele>47.6</ele>
        <time>2021-07-04T09:31:50Z</time>
      </trkpt>
      <trkpt lat="47.3867" lon="-0.4699">
        <ele>47.8</ele>
        <time>2021-07-04T09:31:52Z</time>
      </trkpt>
      <trkpt lat="47.38682" lon="-0.46986">
        <ele>47.8</ele>
        <time>2021-07-04T09:31:54Z</time>
      </trkpt>
      <trkpt lat="47.38695" lon="-0.46982">
        <ele>47.8</ele>
        <time>2021-07-04T09:31:56Z</time>
      </trkpt>
      <trkpt lat="47.38707" lon="-0.46978">
        <ele>48.2</ele>
        <time>2021-07-04T09:31:58Z</time>
      </trkpt>
      <trkpt lat="47.38713" lon="-0.46975">
        <ele>48</ele>
        <time>2021-07-04T09:31:59Z</time>
      </trkpt>
      <trkpt lat="47.38719" lon="-0.46973">
        <ele>47.8</ele>
        <time>2021-07-04T09:32:00Z</time>
      </trkpt>
      <trkpt lat="47.38731" lon="-0.46968">
        <ele>47.8</ele>
        <time>2021-07-04T09:32:02Z</time>
      </trkpt>
      <trkpt lat="47.38742" lon="-0.46963">
        <ele>47.6</ele>
        <time>2021-07-04T09:32:04Z</time>
      </trkpt>
      <trkpt lat="47.38747" lon="-0.4696">
        <ele>47.4</ele>
        <time>2021-07-04T09:32:05Z</time>
      </trkpt>
      <trkpt lat="47.38753" lon="-0.46958">
        <ele>47.4</ele>
        <time>2021-07-04T09:32:06Z</time>
      </trkpt>
      <trkpt lat="47.38766" lon="-0.46954">
        <ele>47.4</ele>
        <time>2021-07-04T09:32:08Z</time>
      </trkpt>
      <trkpt lat="47.38778" lon="-0.46951">
        <ele>46.8</ele>
        <time>2021-07-04T09:32:10Z</time>
      </trkpt>
      <trkpt lat="47.38784" lon="-0.46951">
        <ele>46.2</ele>
        <time>2021-07-04T09:32:11Z</time>
      </trkpt>
      <trkpt lat="47.38791" lon="-0.46951">
        <ele>46.2</ele>
        <time>2021-07-04T09:32:12Z</time>
      </trkpt>
      <trkpt lat="47.38803" lon="-0.46952">
        <ele>46.8</ele>
        <time>2021-07-04T09:32:14Z</time>
      </trkpt>
      <trkpt lat="47.38816" lon="-0.46953">
        <ele>47</ele>
        <time>2021-07-04T09:32:16Z</time>
      </trkpt>
      <trkpt lat="47.38829" lon="-0.46953">
        <ele>47.2</ele>
        <time>2021-07-04T09:32:18Z</time>
      </trkpt>
      <trkpt lat="47.38835" lon="-0.46954">
        <ele>47.4</ele>
        <time>2021-07-04T09:32:19Z</time>
      </trkpt>
      <trkpt lat="47.38841" lon="-0.46954">
        <ele>47.6</ele>
        <time>2021-07-04T09:32:20Z</time>
      </trkpt>
      <trkpt lat="47.38851" lon="-0.46954">
        <ele>48.2</ele>
        <time>2021-07-04T09:32:22Z</time>
      </trkpt>
      <trkpt lat="47.38857" lon="-0.46955">
        <ele>48</ele>
        <time>2021-07-04T09:32:23Z</time>
      </trkpt>
      <trkpt lat="47.38862" lon="-0.46956">
        <ele>48</ele>
        <time>2021-07-04T09:32:24Z</time>
      </trkpt>
      <trkpt lat="47.38874" lon="-0.4696">
        <ele>47.8</ele>
        <time>2021-07-04T09:32:26Z</time>
      </trkpt>
      <trkpt lat="47.3888" lon="-0.46963">
        <ele>47.6</ele>
        <time>2021-07-04T09:32:27Z</time>
      </trkpt>
      <trkpt lat="47.38886" lon="-0.46966">
        <ele>47.6</ele>
        <time>2021-07-04T09:32:28Z</time>
      </trkpt>
      <trkpt lat="47.38898" lon="-0.4697">
        <ele>47.8</ele>
        <time>2021-07-04T09:32:30Z</time>
      </trkpt>
      <trkpt lat="47.3891" lon="-0.46974">
        <ele>48.4</ele>
        <time>2021-07-04T09:32:32Z</time>
      </trkpt>
      <trkpt lat="47.38923" lon="-0.46976">
        <ele>48.4</ele>
        <time>2021-07-04T09:32:34Z</time>
      </trkpt>
      <trkpt lat="47.38929" lon="-0.46977">
        <ele>48.2</ele>
        <time>2021-07-04T09:32:35Z</time>
      </trkpt>
      <trkpt lat="47.38935" lon="-0.46977">
        <ele>48.2</ele>
        <time>2021-07-04T09:32:36Z</time>
      </trkpt>
      <trkpt lat="47.38948" lon="-0.46976">
        <ele>48.2</ele>
        <time>2021-07-04T09:32:38Z</time>
      </trkpt>
      <trkpt lat="47.3896" lon="-0.46975">
        <ele>48.8</ele>
        <time>2021-07-04T09:32:40Z</time>
      </trkpt>
      <trkpt lat="47.38972" lon="-0.46974">
        <ele>48.4</ele>
        <time>2021-07-04T09:32:42Z</time>
      </trkpt>
      <trkpt lat="47.38979" lon="-0.46974">
        <ele>48.2</ele>
        <time>2021-07-04T09:32:43Z</time>
      </trkpt>
      <trkpt lat="47.38985" lon="-0.46973">
        <ele>48</ele>
        <time>2021-07-04T09:32:44Z</time>
      </trkpt>
      <trkpt lat="47.38997" lon="-0.46972">
        <ele>48.2</ele>
        <time>2021-07-04T09:32:46Z</time>
      </trkpt>
      <trkpt lat="47.39008" lon="-0.46971">
        <ele>48.6</ele>
        <time>2021-07-04T09:32:48Z</time>
      </trkpt>
      <trkpt lat="47.3902" lon="-0.46972">
        <ele>49.2</ele>
        <time>2021-07-04T09:32:50Z</time>
      </trkpt>
      <trkpt lat="47.39026" lon="-0.46973">
        <ele>49.2</ele>
        <time>2021-07-04T09:32:51Z</time>
      </trkpt>
      <trkpt lat="47.39032" lon="-0.46974">
        <ele>49.6</ele>
        <time>2021-07-04T09:32:52Z</time>
      </trkpt>
      <trkpt lat="47.39044" lon="-0.46977">
        <ele>49.4</ele>
        <time>2021-07-04T09:32:54Z</time>
      </trkpt>
      <trkpt lat="47.39057" lon="-0.46981">
        <ele>48.6</ele>
        <time>2021-07-04T09:32:56Z</time>
      </trkpt>
      <trkpt lat="47.39064" lon="-0.46983">
        <ele>48.4</ele>
        <time>2021-07-04T09:32:57Z</time>
      </trkpt>
      <trkpt lat="47.3907" lon="-0.46984">
        <ele>48</ele>
        <time>2021-07-04T09:32:58Z</time>
      </trkpt>
      <trkpt lat="47.39084" lon="-0.46986">
        <ele>47.2</ele>
        <time>2021-07-04T09:33:00Z</time>
      </trkpt>
      <trkpt lat="47.39098" lon="-0.46985">
        <ele>47.2</ele>
        <time>2021-07-04T09:33:02Z</time>
      </trkpt>
      <trkpt lat="47.39105" lon="-0.46984">
        <ele>47.8</ele>
        <time>2021-07-04T09:33:03Z</time>
      </trkpt>
      <trkpt lat="47.39112" lon="-0.46982">
        <ele>47.8</ele>
        <time>2021-07-04T09:33:04Z</time>
      </trkpt>
      <trkpt lat="47.39127" lon="-0.4698">
        <ele>47</ele>
        <time>2021-07-04T09:33:06Z</time>
      </trkpt>
      <trkpt lat="47.39141" lon="-0.46977">
        <ele>46.8</ele>
        <time>2021-07-04T09:33:08Z</time>
      </trkpt>
      <trkpt lat="47.39155" lon="-0.46975">
        <ele>46.6</ele>
        <time>2021-07-04T09:33:10Z</time>
      </trkpt>
      <trkpt lat="47.3917" lon="-0.46972">
        <ele>46</ele>
        <time>2021-07-04T09:33:12Z</time>
      </trkpt>
      <trkpt lat="47.39185" lon="-0.46968">
        <ele>45.8</ele>
        <time>2021-07-04T09:33:14Z</time>
      </trkpt>
      <trkpt lat="47.392" lon="-0.46964">
        <ele>45.2</ele>
        <time>2021-07-04T09:33:16Z</time>
      </trkpt>
      <trkpt lat="47.39215" lon="-0.46961">
        <ele>44.8</ele>
        <time>2021-07-04T09:33:18Z</time>
      </trkpt>
      <trkpt lat="47.39231" lon="-0.46958">
        <ele>44.4</ele>
        <time>2021-07-04T09:33:20Z</time>
      </trkpt>
      <trkpt lat="47.39246" lon="-0.46957">
        <ele>44.6</ele>
        <time>2021-07-04T09:33:22Z</time>
      </trkpt>
      <trkpt lat="47.39262" lon="-0.46957">
        <ele>44.4</ele>
        <time>2021-07-04T09:33:24Z</time>
      </trkpt>
      <trkpt lat="47.39269" lon="-0.46958">
        <ele>43.8</ele>
        <time>2021-07-04T09:33:25Z</time>
      </trkpt>
      <trkpt lat="47.39277" lon="-0.46958">
        <ele>43.4</ele>
        <time>2021-07-04T09:33:26Z</time>
      </trkpt>
      <trkpt lat="47.39293" lon="-0.4696">
        <ele>43.2</ele>
        <time>2021-07-04T09:33:28Z</time>
      </trkpt>
      <trkpt lat="47.39308" lon="-0.4696">
        <ele>43.4</ele>
        <time>2021-07-04T09:33:30Z</time>
      </trkpt>
      <trkpt lat="47.39324" lon="-0.46961">
        <ele>43.6</ele>
        <time>2021-07-04T09:33:32Z</time>
      </trkpt>
      <trkpt lat="47.39339" lon="-0.46961">
        <ele>43.2</ele>
        <time>2021-07-04T09:33:34Z</time>
      </trkpt>
      <trkpt lat="47.39347" lon="-0.46962">
        <ele>43.2</ele>
        <time>2021-07-04T09:33:35Z</time>
      </trkpt>
      <trkpt lat="47.39355" lon="-0.46962">
        <ele>43.2</ele>
        <time>2021-07-04T09:33:36Z</time>
      </trkpt>
      <trkpt lat="47.3937" lon="-0.46963">
        <ele>44.2</ele>
        <time>2021-07-04T09:33:38Z</time>
      </trkpt>
      <trkpt lat="47.39384" lon="-0.46964">
        <ele>44.2</ele>
        <time>2021-07-04T09:33:40Z</time>
      </trkpt>
      <trkpt lat="47.39398" lon="-0.46965">
        <ele>44</ele>
        <time>2021-07-04T09:33:42Z</time>
      </trkpt>
      <trkpt lat="47.39412" lon="-0.46964">
        <ele>44</ele>
        <time>2021-07-04T09:33:44Z</time>
      </trkpt>
      <trkpt lat="47.39426" lon="-0.46964">
        <ele>44.4</ele>
        <time>2021-07-04T09:33:46Z</time>
      </trkpt>
      <trkpt lat="47.39439" lon="-0.46965">
        <ele>44.8</ele>
        <time>2021-07-04T09:33:48Z</time>
      </trkpt>
      <trkpt lat="47.39451" lon="-0.46965">
        <ele>45</ele>
        <time>2021-07-04T09:33:50Z</time>
      </trkpt>
      <trkpt lat="47.39463" lon="-0.46965">
        <ele>44.8</ele>
        <time>2021-07-04T09:33:52Z</time>
      </trkpt>
      <trkpt lat="47.39469" lon="-0.46966">
        <ele>44.6</ele>
        <time>2021-07-04T09:33:53Z</time>
      </trkpt>
      <trkpt lat="47.39473" lon="-0.4697">
        <ele>44.6</ele>
        <time>2021-07-04T09:33:54Z</time>
      </trkpt>
      <trkpt lat="47.39477" lon="-0.46975">
        <ele>44.4</ele>
        <time>2021-07-04T09:33:55Z</time>
      </trkpt>
      <trkpt lat="47.39478" lon="-0.46982">
        <ele>44.2</ele>
        <time>2021-07-04T09:33:56Z</time>
      </trkpt>
      <trkpt lat="47.39477" lon="-0.46989">
        <ele>43.6</ele>
        <time>2021-07-04T09:33:57Z</time>
      </trkpt>
      <trkpt lat="47.39476" lon="-0.46997">
        <ele>43.2</ele>
        <time>2021-07-04T09:33:58Z</time>
      </trkpt>
      <trkpt lat="47.39474" lon="-0.47013">
        <ele>42.8</ele>
        <time>2021-07-04T09:34:00Z</time>
      </trkpt>
      <trkpt lat="47.39473" lon="-0.47021">
        <ele>42.6</ele>
        <time>2021-07-04T09:34:01Z</time>
      </trkpt>
      <trkpt lat="47.39473" lon="-0.47029">
        <ele>42.6</ele>
        <time>2021-07-04T09:34:02Z</time>
      </trkpt>
      <trkpt lat="47.39471" lon="-0.47046">
        <ele>42.6</ele>
        <time>2021-07-04T09:34:04Z</time>
      </trkpt>
      <trkpt lat="47.39468" lon="-0.47063">
        <ele>42.2</ele>
        <time>2021-07-04T09:34:06Z</time>
      </trkpt>
      <trkpt lat="47.39465" lon="-0.4708">
        <ele>42.2</ele>
        <time>2021-07-04T09:34:08Z</time>
      </trkpt>
      <trkpt lat="47.39463" lon="-0.47094">
        <ele>42.8</ele>
        <time>2021-07-04T09:34:10Z</time>
      </trkpt>
      <trkpt lat="47.39462" lon="-0.471">
        <ele>43</ele>
        <time>2021-07-04T09:34:11Z</time>
      </trkpt>
      <trkpt lat="47.39461" lon="-0.47106">
        <ele>43.4</ele>
        <time>2021-07-04T09:34:12Z</time>
      </trkpt>
      <trkpt lat="47.39459" lon="-0.47118">
        <ele>43.4</ele>
        <time>2021-07-04T09:34:14Z</time>
      </trkpt>
      <trkpt lat="47.39457" lon="-0.4713">
        <ele>42.8</ele>
        <time>2021-07-04T09:34:16Z</time>
      </trkpt>
      <trkpt lat="47.39457" lon="-0.47135">
        <ele>42.4</ele>
        <time>2021-07-04T09:34:17Z</time>
      </trkpt>
      <trkpt lat="47.39459" lon="-0.47139">
        <ele>42.6</ele>
        <time>2021-07-04T09:34:18Z</time>
      </trkpt>
      <trkpt lat="47.39461" lon="-0.4714">
        <ele>42.6</ele>
        <time>2021-07-04T09:34:19Z</time>
      </trkpt>
      <trkpt lat="47.39465" lon="-0.47141">
        <ele>42.8</ele>
        <time>2021-07-04T09:34:20Z</time>
      </trkpt>
      <trkpt lat="47.39472" lon="-0.47142">
        <ele>42.6</ele>
        <time>2021-07-04T09:34:22Z</time>
      </trkpt>
      <trkpt lat="47.39475" lon="-0.47143">
        <ele>42.4</ele>
        <time>2021-07-04T09:34:23Z</time>
      </trkpt>
      <trkpt lat="47.39479" lon="-0.47144">
        <ele>42.4</ele>
        <time>2021-07-04T09:34:24Z</time>
      </trkpt>
      <trkpt lat="47.39486" lon="-0.47146">
        <ele>42.6</ele>
        <time>2021-07-04T09:34:26Z</time>
      </trkpt>
      <trkpt lat="47.3949" lon="-0.47146">
        <ele>42.6</ele>
        <time>2021-07-04T09:34:27Z</time>
      </trkpt>
      <trkpt lat="47.39494" lon="-0.47146">
        <ele>42.8</ele>
        <time>2021-07-04T09:34:28Z</time>
      </trkpt>
      <trkpt lat="47.39502" lon="-0.47148">
        <ele>42.6</ele>
        <time>2021-07-04T09:34:30Z</time>
      </trkpt>
      <trkpt lat="47.39509" lon="-0.4715">
        <ele>43.4</ele>
        <time>2021-07-04T09:34:32Z</time>
      </trkpt>
      <trkpt lat="47.39513" lon="-0.4715">
        <ele>43.4</ele>
        <time>2021-07-04T09:34:33Z</time>
      </trkpt>
      <trkpt lat="47.39518" lon="-0.4715">
        <ele>42.6</ele>
        <time>2021-07-04T09:34:34Z</time>
      </trkpt>
      <trkpt lat="47.39527" lon="-0.47151">
        <ele>42.6</ele>
        <time>2021-07-04T09:34:36Z</time>
      </trkpt>
      <trkpt lat="47.39537" lon="-0.47151">
        <ele>42.4</ele>
        <time>2021-07-04T09:34:38Z</time>
      </trkpt>
      <trkpt lat="47.39542" lon="-0.47152">
        <ele>42.2</ele>
        <time>2021-07-04T09:34:39Z</time>
      </trkpt>
      <trkpt lat="47.39547" lon="-0.47153">
        <ele>42.4</ele>
        <time>2021-07-04T09:34:40Z</time>
      </trkpt>
      <trkpt lat="47.39553" lon="-0.47154">
        <ele>42.6</ele>
        <time>2021-07-04T09:34:41Z</time>
      </trkpt>
      <trkpt lat="47.39558" lon="-0.47154">
        <ele>42.6</ele>
        <time>2021-07-04T09:34:42Z</time>
      </trkpt>
      <trkpt lat="47.39569" lon="-0.47151">
        <ele>42.8</ele>
        <time>2021-07-04T09:34:44Z</time>
      </trkpt>
      <trkpt lat="47.3958" lon="-0.47148">
        <ele>41.8</ele>
        <time>2021-07-04T09:34:46Z</time>
      </trkpt>
      <trkpt lat="47.39585" lon="-0.47146">
        <ele>41.4</ele>
        <time>2021-07-04T09:34:47Z</time>
      </trkpt>
      <trkpt lat="47.3959" lon="-0.47144">
        <ele>41.6</ele>
        <time>2021-07-04T09:34:48Z</time>
      </trkpt>
      <trkpt lat="47.396" lon="-0.4714">
        <ele>42</ele>
        <time>2021-07-04T09:34:50Z</time>
      </trkpt>
      <trkpt lat="47.39611" lon="-0.47137">
        <ele>41.8</ele>
        <time>2021-07-04T09:34:52Z</time>
      </trkpt>
      <trkpt lat="47.39615" lon="-0.47135">
        <ele>41.6</ele>
        <time>2021-07-04T09:34:53Z</time>
      </trkpt>
      <trkpt lat="47.3962" lon="-0.47134">
        <ele>41.4</ele>
        <time>2021-07-04T09:34:54Z</time>
      </trkpt>
      <trkpt lat="47.39631" lon="-0.47131">
        <ele>41.2</ele>
        <time>2021-07-04T09:34:56Z</time>
      </trkpt>
      <trkpt lat="47.39641" lon="-0.47128">
        <ele>41</ele>
        <time>2021-07-04T09:34:58Z</time>
      </trkpt>
      <trkpt lat="47.39647" lon="-0.47125">
        <ele>40.6</ele>
        <time>2021-07-04T09:34:59Z</time>
      </trkpt>
      <trkpt lat="47.39652" lon="-0.47122">
        <ele>40</ele>
        <time>2021-07-04T09:35:00Z</time>
      </trkpt>
      <trkpt lat="47.39662" lon="-0.47114">
        <ele>39.6</ele>
        <time>2021-07-04T09:35:02Z</time>
      </trkpt>
      <trkpt lat="47.39672" lon="-0.47107">
        <ele>39.4</ele>
        <time>2021-07-04T09:35:04Z</time>
      </trkpt>
      <trkpt lat="47.39677" lon="-0.47105">
        <ele>39.4</ele>
        <time>2021-07-04T09:35:05Z</time>
      </trkpt>
      <trkpt lat="47.39681" lon="-0.47102">
        <ele>39.4</ele>
        <time>2021-07-04T09:35:06Z</time>
      </trkpt>
      <trkpt lat="47.39689" lon="-0.47098">
        <ele>39.4</ele>
        <time>2021-07-04T09:35:08Z</time>
      </trkpt>
      <trkpt lat="47.39698" lon="-0.47095">
        <ele>39</ele>
        <time>2021-07-04T09:35:10Z</time>
      </trkpt>
      <trkpt lat="47.39706" lon="-0.4709">
        <ele>39.2</ele>
        <time>2021-07-04T09:35:12Z</time>
      </trkpt>
      <trkpt lat="47.39709" lon="-0.47088">
        <ele>39.2</ele>
        <time>2021-07-04T09:35:13Z</time>
      </trkpt>
      <trkpt lat="47.39713" lon="-0.47085">
        <ele>38.6</ele>
        <time>2021-07-04T09:35:14Z</time>
      </trkpt>
      <trkpt lat="47.39721" lon="-0.47081">
        <ele>38.6</ele>
        <time>2021-07-04T09:35:16Z</time>
      </trkpt>
      <trkpt lat="47.39726" lon="-0.47082">
        <ele>39</ele>
        <time>2021-07-04T09:35:17Z</time>
      </trkpt>
      <trkpt lat="47.3973" lon="-0.47084">
        <ele>39</ele>
        <time>2021-07-04T09:35:18Z</time>
      </trkpt>
      <trkpt lat="47.39738" lon="-0.47089">
        <ele>39.2</ele>
        <time>2021-07-04T09:35:20Z</time>
      </trkpt>
      <trkpt lat="47.39743" lon="-0.4709">
        <ele>39.8</ele>
        <time>2021-07-04T09:35:21Z</time>
      </trkpt>
      <trkpt lat="47.39746" lon="-0.47092">
        <ele>40</ele>
        <time>2021-07-04T09:35:22Z</time>
      </trkpt>
      <trkpt lat="47.39751" lon="-0.47094">
        <ele>41</ele>
        <time>2021-07-04T09:35:24Z</time>
      </trkpt>
      <trkpt lat="47.39756" lon="-0.47098">
        <ele>41.6</ele>
        <time>2021-07-04T09:35:26Z</time>
      </trkpt>
      <trkpt lat="47.39757" lon="-0.471">
        <ele>41.8</ele>
        <time>2021-07-04T09:35:27Z</time>
      </trkpt>
      <trkpt lat="47.39758" lon="-0.47103">
        <ele>41.8</ele>
        <time>2021-07-04T09:35:28Z</time>
      </trkpt>
      <trkpt lat="47.3976" lon="-0.47106">
        <ele>42</ele>
        <time>2021-07-04T09:35:29Z</time>
      </trkpt>
      <trkpt lat="47.39762" lon="-0.4711">
        <ele>42.2</ele>
        <time>2021-07-04T09:35:30Z</time>
      </trkpt>
      <trkpt lat="47.39766" lon="-0.47118">
        <ele>42.8</ele>
        <time>2021-07-04T09:35:32Z</time>
      </trkpt>
      <trkpt lat="47.3977" lon="-0.47126">
        <ele>43.2</ele>
        <time>2021-07-04T09:35:34Z</time>
      </trkpt>
      <trkpt lat="47.39774" lon="-0.47137">
        <ele>43.2</ele>
        <time>2021-07-04T09:35:36Z</time>
      </trkpt>
      <trkpt lat="47.39777" lon="-0.47143">
        <ele>43</ele>
        <time>2021-07-04T09:35:37Z</time>
      </trkpt>
      <trkpt lat="47.39779" lon="-0.47149">
        <ele>43</ele>
        <time>2021-07-04T09:35:38Z</time>
      </trkpt>
      <trkpt lat="47.39785" lon="-0.47162">
        <ele>42.4</ele>
        <time>2021-07-04T09:35:40Z</time>
      </trkpt>
      <trkpt lat="47.39788" lon="-0.47169">
        <ele>41.8</ele>
        <time>2021-07-04T09:35:41Z</time>
      </trkpt>
      <trkpt lat="47.39791" lon="-0.47176">
        <ele>41.4</ele>
        <time>2021-07-04T09:35:42Z</time>
      </trkpt>
      <trkpt lat="47.39798" lon="-0.47186">
        <ele>41</ele>
        <time>2021-07-04T09:35:44Z</time>
      </trkpt>
      <trkpt lat="47.39806" lon="-0.47197">
        <ele>41.2</ele>
        <time>2021-07-04T09:35:46Z</time>
      </trkpt>
      <trkpt lat="47.3981" lon="-0.47203">
        <ele>41.4</ele>
        <time>2021-07-04T09:35:47Z</time>
      </trkpt>
      <trkpt lat="47.39813" lon="-0.4721">
        <ele>41</ele>
        <time>2021-07-04T09:35:48Z</time>
      </trkpt>
      <trkpt lat="47.39817" lon="-0.47224">
        <ele>41.2</ele>
        <time>2021-07-04T09:35:50Z</time>
      </trkpt>
      <trkpt lat="47.39819" lon="-0.47231">
        <ele>41.6</ele>
        <time>2021-07-04T09:35:51Z</time>
      </trkpt>
      <trkpt lat="47.39822" lon="-0.47238">
        <ele>41.6</ele>
        <time>2021-07-04T09:35:52Z</time>
      </trkpt>
      <trkpt lat="47.39826" lon="-0.47251">
        <ele>41.4</ele>
        <time>2021-07-04T09:35:54Z</time>
      </trkpt>
      <trkpt lat="47.39831" lon="-0.47265">
        <ele>42.4</ele>
        <time>2021-07-04T09:35:56Z</time>
      </trkpt>
      <trkpt lat="47.39838" lon="-0.47279">
        <ele>42.4</ele>
        <time>2021-07-04T09:35:58Z</time>
      </trkpt>
      <trkpt lat="47.39844" lon="-0.47294">
        <ele>41.2</ele>
        <time>2021-07-04T09:36:00Z</time>
      </trkpt>
      <trkpt lat="47.39847" lon="-0.47302">
        <ele>40.6</ele>
        <time>2021-07-04T09:36:01Z</time>
      </trkpt>
      <trkpt lat="47.3985" lon="-0.47309">
        <ele>40.8</ele>
        <time>2021-07-04T09:36:02Z</time>
      </trkpt>
      <trkpt lat="47.39854" lon="-0.47324">
        <ele>41</ele>
        <time>2021-07-04T09:36:04Z</time>
      </trkpt>
      <trkpt lat="47.39857" lon="-0.47331">
        <ele>41.2</ele>
        <time>2021-07-04T09:36:05Z</time>
      </trkpt>
      <trkpt lat="47.3986" lon="-0.47337">
        <ele>41.4</ele>
        <time>2021-07-04T09:36:06Z</time>
      </trkpt>
      <trkpt lat="47.39867" lon="-0.4735">
        <ele>41.2</ele>
        <time>2021-07-04T09:36:08Z</time>
      </trkpt>
      <trkpt lat="47.39874" lon="-0.47362">
        <ele>40.6</ele>
        <time>2021-07-04T09:36:10Z</time>
      </trkpt>
      <trkpt lat="47.39878" lon="-0.47368">
        <ele>40.6</ele>
        <time>2021-07-04T09:36:11Z</time>
      </trkpt>
      <trkpt lat="47.39881" lon="-0.47372">
        <ele>40.8</ele>
        <time>2021-07-04T09:36:12Z</time>
      </trkpt>
      <trkpt lat="47.39884" lon="-0.47377">
        <ele>41</ele>
        <time>2021-07-04T09:36:13Z</time>
      </trkpt>
      <trkpt lat="47.39887" lon="-0.47381">
        <ele>41.2</ele>
        <time>2021-07-04T09:36:14Z</time>
      </trkpt>
      <trkpt lat="47.39894" lon="-0.47389">
        <ele>41</ele>
        <time>2021-07-04T09:36:16Z</time>
      </trkpt>
      <trkpt lat="47.39902" lon="-0.47398">
        <ele>41</ele>
        <time>2021-07-04T09:36:18Z</time>
      </trkpt>
      <trkpt lat="47.39906" lon="-0.47403">
        <ele>40.8</ele>
        <time>2021-07-04T09:36:19Z</time>
      </trkpt>
      <trkpt lat="47.3991" lon="-0.47408">
        <ele>40.4</ele>
        <time>2021-07-04T09:36:20Z</time>
      </trkpt>
      <trkpt lat="47.39919" lon="-0.4742">
        <ele>39.4</ele>
        <time>2021-07-04T09:36:22Z</time>
      </trkpt>
      <trkpt lat="47.39928" lon="-0.47431">
        <ele>39.2</ele>
        <time>2021-07-04T09:36:24Z</time>
      </trkpt>
      <trkpt lat="47.39932" lon="-0.47435">
        <ele>39.4</ele>
        <time>2021-07-04T09:36:25Z</time>
      </trkpt>
      <trkpt lat="47.39937" lon="-0.47439">
        <ele>38.4</ele>
        <time>2021-07-04T09:36:26Z</time>
      </trkpt>
      <trkpt lat="47.39943" lon="-0.47444">
        <ele>37.8</ele>
        <time>2021-07-04T09:36:27Z</time>
      </trkpt>
      <trkpt lat="47.39948" lon="-0.47449">
        <ele>37.2</ele>
        <time>2021-07-04T09:36:28Z</time>
      </trkpt>
      <trkpt lat="47.39952" lon="-0.47455">
        <ele>36.8</ele>
        <time>2021-07-04T09:36:29Z</time>
      </trkpt>
      <trkpt lat="47.39958" lon="-0.4746">
        <ele>36</ele>
        <time>2021-07-04T09:36:30Z</time>
      </trkpt>
      <trkpt lat="47.39964" lon="-0.47464">
        <ele>35.6</ele>
        <time>2021-07-04T09:36:31Z</time>
      </trkpt>
      <trkpt lat="47.39969" lon="-0.47467">
        <ele>35.6</ele>
        <time>2021-07-04T09:36:32Z</time>
      </trkpt>
      <trkpt lat="47.39975" lon="-0.47468">
        <ele>35.6</ele>
        <time>2021-07-04T09:36:33Z</time>
      </trkpt>
      <trkpt lat="47.39981" lon="-0.4747">
        <ele>35.6</ele>
        <time>2021-07-04T09:36:34Z</time>
      </trkpt>
      <trkpt lat="47.39993" lon="-0.47472">
        <ele>35.6</ele>
        <time>2021-07-04T09:36:36Z</time>
      </trkpt>
      <trkpt lat="47.40005" lon="-0.47474">
        <ele>36</ele>
        <time>2021-07-04T09:36:38Z</time>
      </trkpt>
      <trkpt lat="47.4001" lon="-0.47475">
        <ele>36.2</ele>
        <time>2021-07-04T09:36:39Z</time>
      </trkpt>
      <trkpt lat="47.40015" lon="-0.47476">
        <ele>36.6</ele>
        <time>2021-07-04T09:36:40Z</time>
      </trkpt>
      <trkpt lat="47.40021" lon="-0.47478">
        <ele>36.8</ele>
        <time>2021-07-04T09:36:41Z</time>
      </trkpt>
      <trkpt lat="47.40026" lon="-0.47479">
        <ele>36.8</ele>
        <time>2021-07-04T09:36:42Z</time>
      </trkpt>
      <trkpt lat="47.40036" lon="-0.47478">
        <ele>36.8</ele>
        <time>2021-07-04T09:36:44Z</time>
      </trkpt>
      <trkpt lat="47.40042" lon="-0.47479">
        <ele>36.6</ele>
        <time>2021-07-04T09:36:45Z</time>
      </trkpt>
      <trkpt lat="47.40046" lon="-0.47483">
        <ele>36.8</ele>
        <time>2021-07-04T09:36:46Z</time>
      </trkpt>
      <trkpt lat="47.40049" lon="-0.47489">
        <ele>37</ele>
        <time>2021-07-04T09:36:47Z</time>
      </trkpt>
      <trkpt lat="47.40055" lon="-0.47495">
        <ele>37</ele>
        <time>2021-07-04T09:36:48Z</time>
      </trkpt>
      <trkpt lat="47.40061" lon="-0.47509">
        <ele>36.4</ele>
        <time>2021-07-04T09:36:50Z</time>
      </trkpt>
      <trkpt lat="47.40063" lon="-0.47518">
        <ele>36.2</ele>
        <time>2021-07-04T09:36:51Z</time>
      </trkpt>
      <trkpt lat="47.40065" lon="-0.47527">
        <ele>35.8</ele>
        <time>2021-07-04T09:36:52Z</time>
      </trkpt>
      <trkpt lat="47.40066" lon="-0.47536">
        <ele>35.4</ele>
        <time>2021-07-04T09:36:53Z</time>
      </trkpt>
      <trkpt lat="47.40067" lon="-0.47546">
        <ele>34.8</ele>
        <time>2021-07-04T09:36:54Z</time>
      </trkpt>
      <trkpt lat="47.40069" lon="-0.47565">
        <ele>34.2</ele>
        <time>2021-07-04T09:36:56Z</time>
      </trkpt>
      <trkpt lat="47.4007" lon="-0.47583">
        <ele>34.2</ele>
        <time>2021-07-04T09:36:58Z</time>
      </trkpt>
      <trkpt lat="47.40071" lon="-0.47593">
        <ele>34.2</ele>
        <time>2021-07-04T09:36:59Z</time>
      </trkpt>
      <trkpt lat="47.40073" lon="-0.47602">
        <ele>34.4</ele>
        <time>2021-07-04T09:37:00Z</time>
      </trkpt>
      <trkpt lat="47.40075" lon="-0.47611">
        <ele>34.2</ele>
        <time>2021-07-04T09:37:01Z</time>
      </trkpt>
      <trkpt lat="47.40077" lon="-0.4762">
        <ele>34.2</ele>
        <time>2021-07-04T09:37:02Z</time>
      </trkpt>
      <trkpt lat="47.4008" lon="-0.47637">
        <ele>34</ele>
        <time>2021-07-04T09:37:04Z</time>
      </trkpt>
      <trkpt lat="47.40081" lon="-0.47646">
        <ele>34</ele>
        <time>2021-07-04T09:37:05Z</time>
      </trkpt>
      <trkpt lat="47.40081" lon="-0.47654">
        <ele>34.4</ele>
        <time>2021-07-04T09:37:06Z</time>
      </trkpt>
      <trkpt lat="47.40084" lon="-0.47669">
        <ele>35.2</ele>
        <time>2021-07-04T09:37:08Z</time>
      </trkpt>
      <trkpt lat="47.40087" lon="-0.47684">
        <ele>35.4</ele>
        <time>2021-07-04T09:37:10Z</time>
      </trkpt>
      <trkpt lat="47.40087" lon="-0.47692">
        <ele>35.4</ele>
        <time>2021-07-04T09:37:11Z</time>
      </trkpt>
      <trkpt lat="47.40086" lon="-0.47699">
        <ele>35</ele>
        <time>2021-07-04T09:37:12Z</time>
      </trkpt>
      <trkpt lat="47.40081" lon="-0.47712">
        <ele>35.4</ele>
        <time>2021-07-04T09:37:14Z</time>
      </trkpt>
      <trkpt lat="47.40073" lon="-0.47724">
        <ele>36</ele>
        <time>2021-07-04T09:37:16Z</time>
      </trkpt>
      <trkpt lat="47.40066" lon="-0.47735">
        <ele>36.2</ele>
        <time>2021-07-04T09:37:18Z</time>
      </trkpt>
      <trkpt lat="47.40063" lon="-0.47743">
        <ele>36.4</ele>
        <time>2021-07-04T09:37:19Z</time>
      </trkpt>
      <trkpt lat="47.4006" lon="-0.47751">
        <ele>36.4</ele>
        <time>2021-07-04T09:37:20Z</time>
      </trkpt>
      <trkpt lat="47.40056" lon="-0.47768">
        <ele>36.8</ele>
        <time>2021-07-04T09:37:22Z</time>
      </trkpt>
      <trkpt lat="47.40055" lon="-0.47784">
        <ele>36.8</ele>
        <time>2021-07-04T09:37:24Z</time>
      </trkpt>
      <trkpt lat="47.40055" lon="-0.47792">
        <ele>36.8</ele>
        <time>2021-07-04T09:37:25Z</time>
      </trkpt>
      <trkpt lat="47.40057" lon="-0.47799">
        <ele>36.8</ele>
        <time>2021-07-04T09:37:26Z</time>
      </trkpt>
      <trkpt lat="47.40064" lon="-0.47807">
        <ele>36.8</ele>
        <time>2021-07-04T09:37:28Z</time>
      </trkpt>
      <trkpt lat="47.40074" lon="-0.47813">
        <ele>36.8</ele>
        <time>2021-07-04T09:37:30Z</time>
      </trkpt>
      <trkpt lat="47.40084" lon="-0.47819">
        <ele>36.6</ele>
        <time>2021-07-04T09:37:32Z</time>
      </trkpt>
      <trkpt lat="47.40089" lon="-0.47821">
        <ele>36.6</ele>
        <time>2021-07-04T09:37:33Z</time>
      </trkpt>
      <trkpt lat="47.40095" lon="-0.47824">
        <ele>36.2</ele>
        <time>2021-07-04T09:37:34Z</time>
      </trkpt>
      <trkpt lat="47.40106" lon="-0.47828">
        <ele>36</ele>
        <time>2021-07-04T09:37:36Z</time>
      </trkpt>
      <trkpt lat="47.40118" lon="-0.47832">
        <ele>35.8</ele>
        <time>2021-07-04T09:37:38Z</time>
      </trkpt>
      <trkpt lat="47.40131" lon="-0.47834">
        <ele>36.2</ele>
        <time>2021-07-04T09:37:40Z</time>
      </trkpt>
      <trkpt lat="47.40138" lon="-0.47835">
        <ele>36</ele>
        <time>2021-07-04T09:37:41Z</time>
      </trkpt>
      <trkpt lat="47.40145" lon="-0.47836">
        <ele>36.2</ele>
        <time>2021-07-04T09:37:42Z</time>
      </trkpt>
      <trkpt lat="47.40152" lon="-0.47836">
        <ele>36</ele>
        <time>2021-07-04T09:37:43Z</time>
      </trkpt>
      <trkpt lat="47.40159" lon="-0.47835">
        <ele>35.8</ele>
        <time>2021-07-04T09:37:44Z</time>
      </trkpt>
      <trkpt lat="47.40173" lon="-0.47832">
        <ele>35.4</ele>
        <time>2021-07-04T09:37:46Z</time>
      </trkpt>
      <trkpt lat="47.40186" lon="-0.47829">
        <ele>35.8</ele>
        <time>2021-07-04T09:37:48Z</time>
      </trkpt>
      <trkpt lat="47.402" lon="-0.47826">
        <ele>35.6</ele>
        <time>2021-07-04T09:37:50Z</time>
      </trkpt>
      <trkpt lat="47.40206" lon="-0.47825">
        <ele>35</ele>
        <time>2021-07-04T09:37:51Z</time>
      </trkpt>
      <trkpt lat="47.40212" lon="-0.47824">
        <ele>34.6</ele>
        <time>2021-07-04T09:37:52Z</time>
      </trkpt>
      <trkpt lat="47.40218" lon="-0.47823">
        <ele>34.4</ele>
        <time>2021-07-04T09:37:53Z</time>
      </trkpt>
      <trkpt lat="47.40224" lon="-0.47822">
        <ele>34.6</ele>
        <time>2021-07-04T09:37:54Z</time>
      </trkpt>
      <trkpt lat="47.40229" lon="-0.47821">
        <ele>34.8</ele>
        <time>2021-07-04T09:37:55Z</time>
      </trkpt>
      <trkpt lat="47.40235" lon="-0.4782">
        <ele>35.2</ele>
        <time>2021-07-04T09:37:56Z</time>
      </trkpt>
      <trkpt lat="47.40244" lon="-0.47817">
        <ele>35.6</ele>
        <time>2021-07-04T09:37:58Z</time>
      </trkpt>
      <trkpt lat="47.40252" lon="-0.47815">
        <ele>36.2</ele>
        <time>2021-07-04T09:38:00Z</time>
      </trkpt>
      <trkpt lat="47.40262" lon="-0.47813">
        <ele>37.2</ele>
        <time>2021-07-04T09:38:02Z</time>
      </trkpt>
      <trkpt lat="47.40267" lon="-0.47812">
        <ele>37.4</ele>
        <time>2021-07-04T09:38:03Z</time>
      </trkpt>
      <trkpt lat="47.40272" lon="-0.47812">
        <ele>37.8</ele>
        <time>2021-07-04T09:38:04Z</time>
      </trkpt>
      <trkpt lat="47.40281" lon="-0.47808">
        <ele>38.2</ele>
        <time>2021-07-04T09:38:06Z</time>
      </trkpt>
      <trkpt lat="47.40286" lon="-0.47805">
        <ele>38.2</ele>
        <time>2021-07-04T09:38:07Z</time>
      </trkpt>
      <trkpt lat="47.40291" lon="-0.47803">
        <ele>38.2</ele>
        <time>2021-07-04T09:38:08Z</time>
      </trkpt>
      <trkpt lat="47.40295" lon="-0.47801">
        <ele>38.2</ele>
        <time>2021-07-04T09:38:09Z</time>
      </trkpt>
      <trkpt lat="47.403" lon="-0.47798">
        <ele>38.4</ele>
        <time>2021-07-04T09:38:10Z</time>
      </trkpt>
      <trkpt lat="47.40305" lon="-0.47795">
        <ele>38.8</ele>
        <time>2021-07-04T09:38:11Z</time>
      </trkpt>
      <trkpt lat="47.4031" lon="-0.47792">
        <ele>39</ele>
        <time>2021-07-04T09:38:12Z</time>
      </trkpt>
      <trkpt lat="47.4032" lon="-0.47786">
        <ele>39.6</ele>
        <time>2021-07-04T09:38:14Z</time>
      </trkpt>
      <trkpt lat="47.40325" lon="-0.47783">
        <ele>40</ele>
        <time>2021-07-04T09:38:15Z</time>
      </trkpt>
      <trkpt lat="47.40329" lon="-0.4778">
        <ele>40.4</ele>
        <time>2021-07-04T09:38:16Z</time>
      </trkpt>
      <trkpt lat="47.40338" lon="-0.47776">
        <ele>40.6</ele>
        <time>2021-07-04T09:38:18Z</time>
      </trkpt>
      <trkpt lat="47.40342" lon="-0.47773">
        <ele>40.6</ele>
        <time>2021-07-04T09:38:19Z</time>
      </trkpt>
      <trkpt lat="47.40346" lon="-0.47769">
        <ele>40.6</ele>
        <time>2021-07-04T09:38:20Z</time>
      </trkpt>
      <trkpt lat="47.40354" lon="-0.47763">
        <ele>40.8</ele>
        <time>2021-07-04T09:38:22Z</time>
      </trkpt>
      <trkpt lat="47.40361" lon="-0.47757">
        <ele>41</ele>
        <time>2021-07-04T09:38:24Z</time>
      </trkpt>
      <trkpt lat="47.40369" lon="-0.47752">
        <ele>40.8</ele>
        <time>2021-07-04T09:38:26Z</time>
      </trkpt>
      <trkpt lat="47.40377" lon="-0.47746">
        <ele>40.4</ele>
        <time>2021-07-04T09:38:28Z</time>
      </trkpt>
      <trkpt lat="47.40385" lon="-0.47739">
        <ele>40</ele>
        <time>2021-07-04T09:38:30Z</time>
      </trkpt>
      <trkpt lat="47.40394" lon="-0.47732">
        <ele>39.6</ele>
        <time>2021-07-04T09:38:32Z</time>
      </trkpt>
      <trkpt lat="47.40398" lon="-0.47728">
        <ele>39.4</ele>
        <time>2021-07-04T09:38:33Z</time>
      </trkpt>
      <trkpt lat="47.40403" lon="-0.47724">
        <ele>39.2</ele>
        <time>2021-07-04T09:38:34Z</time>
      </trkpt>
      <trkpt lat="47.40408" lon="-0.4772">
        <ele>38.8</ele>
        <time>2021-07-04T09:38:35Z</time>
      </trkpt>
      <trkpt lat="47.40414" lon="-0.47715">
        <ele>38.4</ele>
        <time>2021-07-04T09:38:36Z</time>
      </trkpt>
      <trkpt lat="47.4042" lon="-0.47711">
        <ele>37.8</ele>
        <time>2021-07-04T09:38:37Z</time>
      </trkpt>
      <trkpt lat="47.40427" lon="-0.47706">
        <ele>37</ele>
        <time>2021-07-04T09:38:38Z</time>
      </trkpt>
      <trkpt lat="47.40433" lon="-0.47701">
        <ele>36.2</ele>
        <time>2021-07-04T09:38:39Z</time>
      </trkpt>
      <trkpt lat="47.4044" lon="-0.47697">
        <ele>35.6</ele>
        <time>2021-07-04T09:38:40Z</time>
      </trkpt>
      <trkpt lat="47.40447" lon="-0.47692">
        <ele>35</ele>
        <time>2021-07-04T09:38:41Z</time>
      </trkpt>
      <trkpt lat="47.40454" lon="-0.47686">
        <ele>34.4</ele>
        <time>2021-07-04T09:38:42Z</time>
      </trkpt>
      <trkpt lat="47.40467" lon="-0.47674">
        <ele>33.8</ele>
        <time>2021-07-04T09:38:44Z</time>
      </trkpt>
      <trkpt lat="47.40478" lon="-0.4766">
        <ele>34</ele>
        <time>2021-07-04T09:38:46Z</time>
      </trkpt>
      <trkpt lat="47.40489" lon="-0.47647">
        <ele>34.2</ele>
        <time>2021-07-04T09:38:48Z</time>
      </trkpt>
      <trkpt lat="47.40494" lon="-0.4764">
        <ele>34.4</ele>
        <time>2021-07-04T09:38:49Z</time>
      </trkpt>
      <trkpt lat="47.40499" lon="-0.47632">
        <ele>34.4</ele>
        <time>2021-07-04T09:38:50Z</time>
      </trkpt>
      <trkpt lat="47.40508" lon="-0.47618">
        <ele>34.4</ele>
        <time>2021-07-04T09:38:52Z</time>
      </trkpt>
      <trkpt lat="47.40511" lon="-0.47612">
        <ele>34.8</ele>
        <time>2021-07-04T09:38:53Z</time>
      </trkpt>
      <trkpt lat="47.40515" lon="-0.47606">
        <ele>35.2</ele>
        <time>2021-07-04T09:38:54Z</time>
      </trkpt>
      <trkpt lat="47.40518" lon="-0.476">
        <ele>35.6</ele>
        <time>2021-07-04T09:38:55Z</time>
      </trkpt>
      <trkpt lat="47.40523" lon="-0.47594">
        <ele>36</ele>
        <time>2021-07-04T09:38:56Z</time>
      </trkpt>
      <trkpt lat="47.40532" lon="-0.47582">
        <ele>35.8</ele>
        <time>2021-07-04T09:38:58Z</time>
      </trkpt>
      <trkpt lat="47.40541" lon="-0.4757">
        <ele>34.6</ele>
        <time>2021-07-04T09:39:00Z</time>
      </trkpt>
      <trkpt lat="47.40547" lon="-0.47565">
        <ele>34</ele>
        <time>2021-07-04T09:39:01Z</time>
      </trkpt>
      <trkpt lat="47.40554" lon="-0.4756">
        <ele>33.4</ele>
        <time>2021-07-04T09:39:02Z</time>
      </trkpt>
      <trkpt lat="47.40561" lon="-0.47556">
        <ele>32.8</ele>
        <time>2021-07-04T09:39:03Z</time>
      </trkpt>
      <trkpt lat="47.40568" lon="-0.47552">
        <ele>32.4</ele>
        <time>2021-07-04T09:39:04Z</time>
      </trkpt>
      <trkpt lat="47.40583" lon="-0.47544">
        <ele>31</ele>
        <time>2021-07-04T09:39:06Z</time>
      </trkpt>
      <trkpt lat="47.40599" lon="-0.47535">
        <ele>29.8</ele>
        <time>2021-07-04T09:39:08Z</time>
      </trkpt>
      <trkpt lat="47.40616" lon="-0.47525">
        <ele>29</ele>
        <time>2021-07-04T09:39:10Z</time>
      </trkpt>
      <trkpt lat="47.40625" lon="-0.4752">
        <ele>28.8</ele>
        <time>2021-07-04T09:39:11Z</time>
      </trkpt>
      <trkpt lat="47.40633" lon="-0.47515">
        <ele>28.4</ele>
        <time>2021-07-04T09:39:12Z</time>
      </trkpt>
      <trkpt lat="47.40649" lon="-0.47505">
        <ele>27.4</ele>
        <time>2021-07-04T09:39:14Z</time>
      </trkpt>
      <trkpt lat="47.40664" lon="-0.47496">
        <ele>27.4</ele>
        <time>2021-07-04T09:39:16Z</time>
      </trkpt>
      <trkpt lat="47.40678" lon="-0.47487">
        <ele>27.4</ele>
        <time>2021-07-04T09:39:18Z</time>
      </trkpt>
      <trkpt lat="47.40689" lon="-0.4748">
        <ele>27.8</ele>
        <time>2021-07-04T09:39:20Z</time>
      </trkpt>
      <trkpt lat="47.40694" lon="-0.47476">
        <ele>28</ele>
        <time>2021-07-04T09:39:21Z</time>
      </trkpt>
      <trkpt lat="47.40697" lon="-0.47474">
        <ele>28.6</ele>
        <time>2021-07-04T09:39:22Z</time>
      </trkpt>
      <trkpt lat="47.40699" lon="-0.47473">
        <ele>29.4</ele>
        <time>2021-07-04T09:39:24Z</time>
      </trkpt>
      <trkpt lat="47.40704" lon="-0.47467">
        <ele>29.8</ele>
        <time>2021-07-04T09:39:29Z</time>
      </trkpt>
      <trkpt lat="47.40707" lon="-0.47463">
        <ele>29.8</ele>
        <time>2021-07-04T09:39:31Z</time>
      </trkpt>
      <trkpt lat="47.4071" lon="-0.47458">
        <ele>29.8</ele>
        <time>2021-07-04T09:39:33Z</time>
      </trkpt>
      <trkpt lat="47.40714" lon="-0.47452">
        <ele>29.6</ele>
        <time>2021-07-04T09:39:35Z</time>
      </trkpt>
      <trkpt lat="47.40719" lon="-0.47442">
        <ele>28.8</ele>
        <time>2021-07-04T09:39:37Z</time>
      </trkpt>
      <trkpt lat="47.40722" lon="-0.47438">
        <ele>28</ele>
        <time>2021-07-04T09:39:38Z</time>
      </trkpt>
      <trkpt lat="47.40725" lon="-0.47433">
        <ele>27.8</ele>
        <time>2021-07-04T09:39:39Z</time>
      </trkpt>
      <trkpt lat="47.40731" lon="-0.47424">
        <ele>27.2</ele>
        <time>2021-07-04T09:39:41Z</time>
      </trkpt>
      <trkpt lat="47.40734" lon="-0.4742">
        <ele>26.8</ele>
        <time>2021-07-04T09:39:42Z</time>
      </trkpt>
      <trkpt lat="47.40738" lon="-0.47415">
        <ele>26.4</ele>
        <time>2021-07-04T09:39:43Z</time>
      </trkpt>
      <trkpt lat="47.40746" lon="-0.47407">
        <ele>26.4</ele>
        <time>2021-07-04T09:39:45Z</time>
      </trkpt>
      <trkpt lat="47.40751" lon="-0.47398">
        <ele>26.2</ele>
        <time>2021-07-04T09:39:47Z</time>
      </trkpt>
      <trkpt lat="47.4075" lon="-0.4739">
        <ele>26</ele>
        <time>2021-07-04T09:39:49Z</time>
      </trkpt>
      <trkpt lat="47.40748" lon="-0.47386">
        <ele>25.6</ele>
        <time>2021-07-04T09:39:50Z</time>
      </trkpt>
      <trkpt lat="47.40745" lon="-0.47381">
        <ele>25.4</ele>
        <time>2021-07-04T09:39:51Z</time>
      </trkpt>
      <trkpt lat="47.4074" lon="-0.4737">
        <ele>25.6</ele>
        <time>2021-07-04T09:39:53Z</time>
      </trkpt>
      <trkpt lat="47.40737" lon="-0.47365">
        <ele>25.6</ele>
        <time>2021-07-04T09:39:54Z</time>
      </trkpt>
      <trkpt lat="47.40734" lon="-0.4736">
        <ele>25.6</ele>
        <time>2021-07-04T09:39:55Z</time>
      </trkpt>
      <trkpt lat="47.40726" lon="-0.47353">
        <ele>25.6</ele>
        <time>2021-07-04T09:39:57Z</time>
      </trkpt>
      <trkpt lat="47.40721" lon="-0.4735">
        <ele>25.4</ele>
        <time>2021-07-04T09:39:58Z</time>
      </trkpt>
      <trkpt lat="47.40716" lon="-0.47348">
        <ele>25.2</ele>
        <time>2021-07-04T09:39:59Z</time>
      </trkpt>
      <trkpt lat="47.40707" lon="-0.47342">
        <ele>25</ele>
        <time>2021-07-04T09:40:01Z</time>
      </trkpt>
      <trkpt lat="47.407" lon="-0.47334">
        <ele>25.4</ele>
        <time>2021-07-04T09:40:03Z</time>
      </trkpt>
      <trkpt lat="47.40693" lon="-0.47324">
        <ele>25.2</ele>
        <time>2021-07-04T09:40:05Z</time>
      </trkpt>
      <trkpt lat="47.40686" lon="-0.47312">
        <ele>25.6</ele>
        <time>2021-07-04T09:40:07Z</time>
      </trkpt>
      <trkpt lat="47.40682" lon="-0.47306">
        <ele>26</ele>
        <time>2021-07-04T09:40:08Z</time>
      </trkpt>
      <trkpt lat="47.40678" lon="-0.47301">
        <ele>26</ele>
        <time>2021-07-04T09:40:09Z</time>
      </trkpt>
      <trkpt lat="47.40669" lon="-0.47293">
        <ele>26</ele>
        <time>2021-07-04T09:40:11Z</time>
      </trkpt>
      <trkpt lat="47.4066" lon="-0.47288">
        <ele>25.8</ele>
        <time>2021-07-04T09:40:13Z</time>
      </trkpt>
      <trkpt lat="47.40655" lon="-0.47286">
        <ele>25.8</ele>
        <time>2021-07-04T09:40:14Z</time>
      </trkpt>
      <trkpt lat="47.40651" lon="-0.47284">
        <ele>25.6</ele>
        <time>2021-07-04T09:40:15Z</time>
      </trkpt>
      <trkpt lat="47.40643" lon="-0.47279">
        <ele>25.6</ele>
        <time>2021-07-04T09:40:17Z</time>
      </trkpt>
      <trkpt lat="47.40639" lon="-0.47269">
        <ele>25.4</ele>
        <time>2021-07-04T09:40:19Z</time>
      </trkpt>
      <trkpt lat="47.40637" lon="-0.47262">
        <ele>25.2</ele>
        <time>2021-07-04T09:40:20Z</time>
      </trkpt>
      <trkpt lat="47.40636" lon="-0.47255">
        <ele>25</ele>
        <time>2021-07-04T09:40:21Z</time>
      </trkpt>
      <trkpt lat="47.40634" lon="-0.4724">
        <ele>24.6</ele>
        <time>2021-07-04T09:40:23Z</time>
      </trkpt>
      <trkpt lat="47.40632" lon="-0.47225">
        <ele>24.6</ele>
        <time>2021-07-04T09:40:25Z</time>
      </trkpt>
      <trkpt lat="47.40631" lon="-0.4722">
        <ele>24.8</ele>
        <time>2021-07-04T09:40:26Z</time>
      </trkpt>
      <trkpt lat="47.4063" lon="-0.47217">
        <ele>25.2</ele>
        <time>2021-07-04T09:40:27Z</time>
      </trkpt>
      <trkpt lat="47.40631" lon="-0.47214">
        <ele>25.8</ele>
        <time>2021-07-04T09:40:28Z</time>
      </trkpt>
      <trkpt lat="47.40632" lon="-0.47212">
        <ele>26.2</ele>
        <time>2021-07-04T09:40:29Z</time>
      </trkpt>
      <trkpt lat="47.40637" lon="-0.47208">
        <ele>26</ele>
        <time>2021-07-04T09:40:31Z</time>
      </trkpt>
      <trkpt lat="47.40643" lon="-0.47203">
        <ele>25.8</ele>
        <time>2021-07-04T09:40:33Z</time>
      </trkpt>
      <trkpt lat="47.40645" lon="-0.472">
        <ele>25.8</ele>
        <time>2021-07-04T09:40:34Z</time>
      </trkpt>
      <trkpt lat="47.40646" lon="-0.47197">
        <ele>26</ele>
        <time>2021-07-04T09:40:35Z</time>
      </trkpt>
      <trkpt lat="47.40647" lon="-0.47187">
        <ele>25.8</ele>
        <time>2021-07-04T09:40:37Z</time>
      </trkpt>
      <trkpt lat="47.40648" lon="-0.47176">
        <ele>26.2</ele>
        <time>2021-07-04T09:40:39Z</time>
      </trkpt>
      <trkpt lat="47.40649" lon="-0.47169">
        <ele>26</ele>
        <time>2021-07-04T09:40:40Z</time>
      </trkpt>
      <trkpt lat="47.40649" lon="-0.47161">
        <ele>25.6</ele>
        <time>2021-07-04T09:40:41Z</time>
      </trkpt>
      <trkpt lat="47.4065" lon="-0.47153">
        <ele>24.8</ele>
        <time>2021-07-04T09:40:42Z</time>
      </trkpt>
      <trkpt lat="47.4065" lon="-0.47144">
        <ele>24.4</ele>
        <time>2021-07-04T09:40:43Z</time>
      </trkpt>
      <trkpt lat="47.40651" lon="-0.47126">
        <ele>24.4</ele>
        <time>2021-07-04T09:40:45Z</time>
      </trkpt>
      <trkpt lat="47.40651" lon="-0.47109">
        <ele>24.4</ele>
        <time>2021-07-04T09:40:47Z</time>
      </trkpt>
      <trkpt lat="47.40651" lon="-0.4709">
        <ele>23.8</ele>
        <time>2021-07-04T09:40:49Z</time>
      </trkpt>
      <trkpt lat="47.4065" lon="-0.47072">
        <ele>24.2</ele>
        <time>2021-07-04T09:40:51Z</time>
      </trkpt>
      <trkpt lat="47.4065" lon="-0.47064">
        <ele>24.2</ele>
        <time>2021-07-04T09:40:52Z</time>
      </trkpt>
      <trkpt lat="47.40651" lon="-0.47056">
        <ele>24.6</ele>
        <time>2021-07-04T09:40:53Z</time>
      </trkpt>
      <trkpt lat="47.40652" lon="-0.47048">
        <ele>24.4</ele>
        <time>2021-07-04T09:40:54Z</time>
      </trkpt>
      <trkpt lat="47.40653" lon="-0.4704">
        <ele>24.6</ele>
        <time>2021-07-04T09:40:55Z</time>
      </trkpt>
      <trkpt lat="47.40655" lon="-0.47023">
        <ele>24.6</ele>
        <time>2021-07-04T09:40:57Z</time>
      </trkpt>
      <trkpt lat="47.40659" lon="-0.47006">
        <ele>24.4</ele>
        <time>2021-07-04T09:40:59Z</time>
      </trkpt>
      <trkpt lat="47.40662" lon="-0.46991">
        <ele>24.6</ele>
        <time>2021-07-04T09:41:01Z</time>
      </trkpt>
      <trkpt lat="47.40666" lon="-0.46972">
        <ele>24.2</ele>
        <time>2021-07-04T09:41:03Z</time>
      </trkpt>
      <trkpt lat="47.40666" lon="-0.46963">
        <ele>24</ele>
        <time>2021-07-04T09:41:04Z</time>
      </trkpt>
      <trkpt lat="47.40665" lon="-0.46954">
        <ele>23.8</ele>
        <time>2021-07-04T09:41:05Z</time>
      </trkpt>
      <trkpt lat="47.40662" lon="-0.46939">
        <ele>24</ele>
        <time>2021-07-04T09:41:07Z</time>
      </trkpt>
      <trkpt lat="47.40661" lon="-0.46931">
        <ele>24</ele>
        <time>2021-07-04T09:41:08Z</time>
      </trkpt>
      <trkpt lat="47.4066" lon="-0.46924">
        <ele>24</ele>
        <time>2021-07-04T09:41:09Z</time>
      </trkpt>
      <trkpt lat="47.40657" lon="-0.46908">
        <ele>23.4</ele>
        <time>2021-07-04T09:41:11Z</time>
      </trkpt>
      <trkpt lat="47.40654" lon="-0.46891">
        <ele>23.6</ele>
        <time>2021-07-04T09:41:13Z</time>
      </trkpt>
      <trkpt lat="47.40652" lon="-0.46875">
        <ele>24.2</ele>
        <time>2021-07-04T09:41:15Z</time>
      </trkpt>
      <trkpt lat="47.40649" lon="-0.46859">
        <ele>24.4</ele>
        <time>2021-07-04T09:41:17Z</time>
      </trkpt>
      <trkpt lat="47.40648" lon="-0.46851">
        <ele>24.6</ele>
        <time>2021-07-04T09:41:18Z</time>
      </trkpt>
      <trkpt lat="47.40646" lon="-0.46843">
        <ele>24.6</ele>
        <time>2021-07-04T09:41:19Z</time>
      </trkpt>
      <trkpt lat="47.40644" lon="-0.46835">
        <ele>24.6</ele>
        <time>2021-07-04T09:41:20Z</time>
      </trkpt>
      <trkpt lat="47.40643" lon="-0.46827">
        <ele>24.8</ele>
        <time>2021-07-04T09:41:21Z</time>
      </trkpt>
      <trkpt lat="47.40638" lon="-0.4681">
        <ele>25.6</ele>
        <time>2021-07-04T09:41:23Z</time>
      </trkpt>
      <trkpt lat="47.40635" lon="-0.46794">
        <ele>25.4</ele>
        <time>2021-07-04T09:41:25Z</time>
      </trkpt>
      <trkpt lat="47.40632" lon="-0.46778">
        <ele>25</ele>
        <time>2021-07-04T09:41:27Z</time>
      </trkpt>
      <trkpt lat="47.40631" lon="-0.4677">
        <ele>25</ele>
        <time>2021-07-04T09:41:28Z</time>
      </trkpt>
      <trkpt lat="47.4063" lon="-0.46762">
        <ele>25</ele>
        <time>2021-07-04T09:41:29Z</time>
      </trkpt>
      <trkpt lat="47.40628" lon="-0.46746">
        <ele>25</ele>
        <time>2021-07-04T09:41:31Z</time>
      </trkpt>
      <trkpt lat="47.40628" lon="-0.46737">
        <ele>24.8</ele>
        <time>2021-07-04T09:41:32Z</time>
      </trkpt>
      <trkpt lat="47.40627" lon="-0.46729">
        <ele>24.8</ele>
        <time>2021-07-04T09:41:33Z</time>
      </trkpt>
      <trkpt lat="47.40625" lon="-0.46721">
        <ele>24.6</ele>
        <time>2021-07-04T09:41:34Z</time>
      </trkpt>
      <trkpt lat="47.40623" lon="-0.46712">
        <ele>24.4</ele>
        <time>2021-07-04T09:41:35Z</time>
      </trkpt>
      <trkpt lat="47.40618" lon="-0.46697">
        <ele>24.6</ele>
        <time>2021-07-04T09:41:37Z</time>
      </trkpt>
      <trkpt lat="47.40614" lon="-0.4668">
        <ele>24.4</ele>
        <time>2021-07-04T09:41:39Z</time>
      </trkpt>
      <trkpt lat="47.40611" lon="-0.46663">
        <ele>24.4</ele>
        <time>2021-07-04T09:41:41Z</time>
      </trkpt>
      <trkpt lat="47.40608" lon="-0.46646">
        <ele>24.4</ele>
        <time>2021-07-04T09:41:43Z</time>
      </trkpt>
      <trkpt lat="47.40606" lon="-0.46638">
        <ele>24.8</ele>
        <time>2021-07-04T09:41:44Z</time>
      </trkpt>
      <trkpt lat="47.40604" lon="-0.46629">
        <ele>24.8</ele>
        <time>2021-07-04T09:41:45Z</time>
      </trkpt>
      <trkpt lat="47.406" lon="-0.46611">
        <ele>24.4</ele>
        <time>2021-07-04T09:41:47Z</time>
      </trkpt>
      <trkpt lat="47.40596" lon="-0.46594">
        <ele>23.8</ele>
        <time>2021-07-04T09:41:49Z</time>
      </trkpt>
      <trkpt lat="47.40591" lon="-0.46578">
        <ele>24.8</ele>
        <time>2021-07-04T09:41:51Z</time>
      </trkpt>
      <trkpt lat="47.40589" lon="-0.4657">
        <ele>25</ele>
        <time>2021-07-04T09:41:52Z</time>
      </trkpt>
      <trkpt lat="47.40587" lon="-0.46563">
        <ele>24.4</ele>
        <time>2021-07-04T09:41:53Z</time>
      </trkpt>
      <trkpt lat="47.40583" lon="-0.46548">
        <ele>24.6</ele>
        <time>2021-07-04T09:41:55Z</time>
      </trkpt>
      <trkpt lat="47.40578" lon="-0.46532">
        <ele>24.8</ele>
        <time>2021-07-04T09:41:57Z</time>
      </trkpt>
      <trkpt lat="47.40577" lon="-0.46524">
        <ele>24.6</ele>
        <time>2021-07-04T09:41:58Z</time>
      </trkpt>
      <trkpt lat="47.40575" lon="-0.46515">
        <ele>24.4</ele>
        <time>2021-07-04T09:41:59Z</time>
      </trkpt>
      <trkpt lat="47.40573" lon="-0.46506">
        <ele>24.2</ele>
        <time>2021-07-04T09:42:00Z</time>
      </trkpt>
      <trkpt lat="47.40571" lon="-0.46497">
        <ele>24.4</ele>
        <time>2021-07-04T09:42:01Z</time>
      </trkpt>
      <trkpt lat="47.40569" lon="-0.46488">
        <ele>24.6</ele>
        <time>2021-07-04T09:42:02Z</time>
      </trkpt>
      <trkpt lat="47.40567" lon="-0.46478">
        <ele>24.6</ele>
        <time>2021-07-04T09:42:03Z</time>
      </trkpt>
      <trkpt lat="47.40562" lon="-0.4646">
        <ele>24.4</ele>
        <time>2021-07-04T09:42:05Z</time>
      </trkpt>
      <trkpt lat="47.40559" lon="-0.46452">
        <ele>24.4</ele>
        <time>2021-07-04T09:42:06Z</time>
      </trkpt>
      <trkpt lat="47.40555" lon="-0.46445">
        <ele>24.4</ele>
        <time>2021-07-04T09:42:07Z</time>
      </trkpt>
      <trkpt lat="47.40551" lon="-0.46437">
        <ele>24.6</ele>
        <time>2021-07-04T09:42:08Z</time>
      </trkpt>
      <trkpt lat="47.40547" lon="-0.4643">
        <ele>24.6</ele>
        <time>2021-07-04T09:42:09Z</time>
      </trkpt>
      <trkpt lat="47.40545" lon="-0.46422">
        <ele>24.6</ele>
        <time>2021-07-04T09:42:10Z</time>
      </trkpt>
      <trkpt lat="47.40544" lon="-0.46414">
        <ele>24.6</ele>
        <time>2021-07-04T09:42:11Z</time>
      </trkpt>
      <trkpt lat="47.40546" lon="-0.46407">
        <ele>24.6</ele>
        <time>2021-07-04T09:42:12Z</time>
      </trkpt>
      <trkpt lat="47.4055" lon="-0.46403">
        <ele>24.4</ele>
        <time>2021-07-04T09:42:13Z</time>
      </trkpt>
      <trkpt lat="47.4056" lon="-0.464">
        <ele>24.6</ele>
        <time>2021-07-04T09:42:15Z</time>
      </trkpt>
      <trkpt lat="47.40571" lon="-0.46403">
        <ele>24.4</ele>
        <time>2021-07-04T09:42:17Z</time>
      </trkpt>
      <trkpt lat="47.40582" lon="-0.46409">
        <ele>24.2</ele>
        <time>2021-07-04T09:42:19Z</time>
      </trkpt>
      <trkpt lat="47.40588" lon="-0.46412">
        <ele>24.2</ele>
        <time>2021-07-04T09:42:20Z</time>
      </trkpt>
      <trkpt lat="47.40594" lon="-0.46415">
        <ele>24.2</ele>
        <time>2021-07-04T09:42:21Z</time>
      </trkpt>
      <trkpt lat="47.40606" lon="-0.46421">
        <ele>23.8</ele>
        <time>2021-07-04T09:42:23Z</time>
      </trkpt>
      <trkpt lat="47.40618" lon="-0.46426">
        <ele>24.2</ele>
        <time>2021-07-04T09:42:25Z</time>
      </trkpt>
      <trkpt lat="47.40629" lon="-0.46432">
        <ele>24.2</ele>
        <time>2021-07-04T09:42:27Z</time>
      </trkpt>
      <trkpt lat="47.40641" lon="-0.46437">
        <ele>24.4</ele>
        <time>2021-07-04T09:42:29Z</time>
      </trkpt>
      <trkpt lat="47.40654" lon="-0.46443">
        <ele>24.4</ele>
        <time>2021-07-04T09:42:31Z</time>
      </trkpt>
      <trkpt lat="47.4066" lon="-0.46445">
        <ele>24.2</ele>
        <time>2021-07-04T09:42:32Z</time>
      </trkpt>
      <trkpt lat="47.40666" lon="-0.46448">
        <ele>23.8</ele>
        <time>2021-07-04T09:42:33Z</time>
      </trkpt>
      <trkpt lat="47.40678" lon="-0.46454">
        <ele>24</ele>
        <time>2021-07-04T09:42:35Z</time>
      </trkpt>
      <trkpt lat="47.4069" lon="-0.4646">
        <ele>23.6</ele>
        <time>2021-07-04T09:42:37Z</time>
      </trkpt>
      <trkpt lat="47.40701" lon="-0.46465">
        <ele>23.8</ele>
        <time>2021-07-04T09:42:39Z</time>
      </trkpt>
      <trkpt lat="47.40712" lon="-0.4647">
        <ele>23.8</ele>
        <time>2021-07-04T09:42:41Z</time>
      </trkpt>
      <trkpt lat="47.40723" lon="-0.46476">
        <ele>23.4</ele>
        <time>2021-07-04T09:42:43Z</time>
      </trkpt>
      <trkpt lat="47.40734" lon="-0.46482">
        <ele>23.8</ele>
        <time>2021-07-04T09:42:45Z</time>
      </trkpt>
      <trkpt lat="47.40739" lon="-0.46485">
        <ele>24</ele>
        <time>2021-07-04T09:42:46Z</time>
      </trkpt>
      <trkpt lat="47.40743" lon="-0.46487">
        <ele>24</ele>
        <time>2021-07-04T09:42:47Z</time>
      </trkpt>
      <trkpt lat="47.40753" lon="-0.46493">
        <ele>24.2</ele>
        <time>2021-07-04T09:42:49Z</time>
      </trkpt>
      <trkpt lat="47.4076" lon="-0.46496">
        <ele>23.8</ele>
        <time>2021-07-04T09:42:50Z</time>
      </trkpt>
      <trkpt lat="47.40766" lon="-0.465">
        <ele>23.8</ele>
        <time>2021-07-04T09:42:51Z</time>
      </trkpt>
      <trkpt lat="47.40779" lon="-0.46506">
        <ele>23.6</ele>
        <time>2021-07-04T09:42:53Z</time>
      </trkpt>
      <trkpt lat="47.40791" lon="-0.46512">
        <ele>23.2</ele>
        <time>2021-07-04T09:42:55Z</time>
      </trkpt>
      <trkpt lat="47.40797" lon="-0.46515">
        <ele>23.6</ele>
        <time>2021-07-04T09:42:56Z</time>
      </trkpt>
      <trkpt lat="47.40803" lon="-0.46518">
        <ele>23.6</ele>
        <time>2021-07-04T09:42:57Z</time>
      </trkpt>
      <trkpt lat="47.40815" lon="-0.46525">
        <ele>23.4</ele>
        <time>2021-07-04T09:42:59Z</time>
      </trkpt>
      <trkpt lat="47.40825" lon="-0.46531">
        <ele>23.6</ele>
        <time>2021-07-04T09:43:01Z</time>
      </trkpt>
      <trkpt lat="47.40831" lon="-0.46534">
        <ele>23.6</ele>
        <time>2021-07-04T09:43:02Z</time>
      </trkpt>
      <trkpt lat="47.40836" lon="-0.46537">
        <ele>23.6</ele>
        <time>2021-07-04T09:43:03Z</time>
      </trkpt>
      <trkpt lat="47.40847" lon="-0.46543">
        <ele>24.2</ele>
        <time>2021-07-04T09:43:05Z</time>
      </trkpt>
      <trkpt lat="47.40858" lon="-0.4655">
        <ele>24.2</ele>
        <time>2021-07-04T09:43:07Z</time>
      </trkpt>
      <trkpt lat="47.40868" lon="-0.46557">
        <ele>24.4</ele>
        <time>2021-07-04T09:43:09Z</time>
      </trkpt>
      <trkpt lat="47.40873" lon="-0.46562">
        <ele>24.8</ele>
        <time>2021-07-04T09:43:10Z</time>
      </trkpt>
      <trkpt lat="47.40878" lon="-0.46568">
        <ele>24.8</ele>
        <time>2021-07-04T09:43:11Z</time>
      </trkpt>
      <trkpt lat="47.40881" lon="-0.46576">
        <ele>25.2</ele>
        <time>2021-07-04T09:43:12Z</time>
      </trkpt>
      <trkpt lat="47.40884" lon="-0.46584">
        <ele>25.6</ele>
        <time>2021-07-04T09:43:13Z</time>
      </trkpt>
      <trkpt lat="47.40889" lon="-0.46603">
        <ele>25</ele>
        <time>2021-07-04T09:43:15Z</time>
      </trkpt>
      <trkpt lat="47.40894" lon="-0.46621">
        <ele>24.6</ele>
        <time>2021-07-04T09:43:17Z</time>
      </trkpt>
      <trkpt lat="47.409" lon="-0.46639">
        <ele>24.4</ele>
        <time>2021-07-04T09:43:19Z</time>
      </trkpt>
      <trkpt lat="47.40906" lon="-0.46657">
        <ele>24.8</ele>
        <time>2021-07-04T09:43:21Z</time>
      </trkpt>
      <trkpt lat="47.40912" lon="-0.46674">
        <ele>24.8</ele>
        <time>2021-07-04T09:43:23Z</time>
      </trkpt>
      <trkpt lat="47.40915" lon="-0.46682">
        <ele>24.8</ele>
        <time>2021-07-04T09:43:24Z</time>
      </trkpt>
      <trkpt lat="47.40917" lon="-0.4669">
        <ele>24.8</ele>
        <time>2021-07-04T09:43:25Z</time>
      </trkpt>
      <trkpt lat="47.40922" lon="-0.46707">
        <ele>25</ele>
        <time>2021-07-04T09:43:27Z</time>
      </trkpt>
      <trkpt lat="47.40926" lon="-0.46724">
        <ele>25.2</ele>
        <time>2021-07-04T09:43:29Z</time>
      </trkpt>
      <trkpt lat="47.40929" lon="-0.46732">
        <ele>25.4</ele>
        <time>2021-07-04T09:43:30Z</time>
      </trkpt>
      <trkpt lat="47.40931" lon="-0.46741">
        <ele>25.4</ele>
        <time>2021-07-04T09:43:31Z</time>
      </trkpt>
      <trkpt lat="47.40936" lon="-0.46758">
        <ele>25.2</ele>
        <time>2021-07-04T09:43:33Z</time>
      </trkpt>
      <trkpt lat="47.40941" lon="-0.46775">
        <ele>25</ele>
        <time>2021-07-04T09:43:35Z</time>
      </trkpt>
      <trkpt lat="47.40946" lon="-0.46792">
        <ele>25.4</ele>
        <time>2021-07-04T09:43:37Z</time>
      </trkpt>
      <trkpt lat="47.40951" lon="-0.46809">
        <ele>24.8</ele>
        <time>2021-07-04T09:43:39Z</time>
      </trkpt>
      <trkpt lat="47.40955" lon="-0.46827">
        <ele>24.2</ele>
        <time>2021-07-04T09:43:41Z</time>
      </trkpt>
      <trkpt lat="47.4096" lon="-0.46845">
        <ele>23.8</ele>
        <time>2021-07-04T09:43:43Z</time>
      </trkpt>
      <trkpt lat="47.40964" lon="-0.46864">
        <ele>24.2</ele>
        <time>2021-07-04T09:43:45Z</time>
      </trkpt>
      <trkpt lat="47.40967" lon="-0.46874">
        <ele>24.6</ele>
        <time>2021-07-04T09:43:46Z</time>
      </trkpt>
      <trkpt lat="47.40969" lon="-0.46883">
        <ele>25.2</ele>
        <time>2021-07-04T09:43:47Z</time>
      </trkpt>
      <trkpt lat="47.40973" lon="-0.46901">
        <ele>25.6</ele>
        <time>2021-07-04T09:43:49Z</time>
      </trkpt>
      <trkpt lat="47.40977" lon="-0.46919">
        <ele>25.2</ele>
        <time>2021-07-04T09:43:51Z</time>
      </trkpt>
      <trkpt lat="47.40982" lon="-0.46937">
        <ele>24.8</ele>
        <time>2021-07-04T09:43:53Z</time>
      </trkpt>
      <trkpt lat="47.40986" lon="-0.46955">
        <ele>24.6</ele>
        <time>2021-07-04T09:43:55Z</time>
      </trkpt>
      <trkpt lat="47.40991" lon="-0.46973">
        <ele>24.2</ele>
        <time>2021-07-04T09:43:57Z</time>
      </trkpt>
      <trkpt lat="47.40994" lon="-0.46991">
        <ele>24.4</ele>
        <time>2021-07-04T09:43:59Z</time>
      </trkpt>
      <trkpt lat="47.40999" lon="-0.47009">
        <ele>24.2</ele>
        <time>2021-07-04T09:44:01Z</time>
      </trkpt>
      <trkpt lat="47.41001" lon="-0.47018">
        <ele>23.4</ele>
        <time>2021-07-04T09:44:02Z</time>
      </trkpt>
      <trkpt lat="47.41002" lon="-0.47027">
        <ele>22.8</ele>
        <time>2021-07-04T09:44:03Z</time>
      </trkpt>
      <trkpt lat="47.41006" lon="-0.47045">
        <ele>23.2</ele>
        <time>2021-07-04T09:44:05Z</time>
      </trkpt>
      <trkpt lat="47.41011" lon="-0.47063">
        <ele>25</ele>
        <time>2021-07-04T09:44:07Z</time>
      </trkpt>
      <trkpt lat="47.41015" lon="-0.47082">
        <ele>25.2</ele>
        <time>2021-07-04T09:44:09Z</time>
      </trkpt>
      <trkpt lat="47.4102" lon="-0.47101">
        <ele>25.2</ele>
        <time>2021-07-04T09:44:11Z</time>
      </trkpt>
      <trkpt lat="47.41024" lon="-0.4712">
        <ele>24.4</ele>
        <time>2021-07-04T09:44:13Z</time>
      </trkpt>
      <trkpt lat="47.41029" lon="-0.47138">
        <ele>24</ele>
        <time>2021-07-04T09:44:15Z</time>
      </trkpt>
      <trkpt lat="47.41031" lon="-0.47147">
        <ele>23.8</ele>
        <time>2021-07-04T09:44:16Z</time>
      </trkpt>
      <trkpt lat="47.41033" lon="-0.47157">
        <ele>23.8</ele>
        <time>2021-07-04T09:44:17Z</time>
      </trkpt>
      <trkpt lat="47.41037" lon="-0.47175">
        <ele>23.8</ele>
        <time>2021-07-04T09:44:19Z</time>
      </trkpt>
      <trkpt lat="47.41041" lon="-0.47193">
        <ele>23.6</ele>
        <time>2021-07-04T09:44:21Z</time>
      </trkpt>
      <trkpt lat="47.41045" lon="-0.47209">
        <ele>23.4</ele>
        <time>2021-07-04T09:44:23Z</time>
      </trkpt>
      <trkpt lat="47.41049" lon="-0.47226">
        <ele>24</ele>
        <time>2021-07-04T09:44:25Z</time>
      </trkpt>
      <trkpt lat="47.4105" lon="-0.47234">
        <ele>24.2</ele>
        <time>2021-07-04T09:44:26Z</time>
      </trkpt>
      <trkpt lat="47.41052" lon="-0.47241">
        <ele>24.4</ele>
        <time>2021-07-04T09:44:27Z</time>
      </trkpt>
      <trkpt lat="47.41053" lon="-0.47247">
        <ele>24.8</ele>
        <time>2021-07-04T09:44:28Z</time>
      </trkpt>
      <trkpt lat="47.41054" lon="-0.47253">
        <ele>25.2</ele>
        <time>2021-07-04T09:44:29Z</time>
      </trkpt>
      <trkpt lat="47.41056" lon="-0.47261">
        <ele>26</ele>
        <time>2021-07-04T09:44:31Z</time>
      </trkpt>
      <trkpt lat="47.41057" lon="-0.47269">
        <ele>26.2</ele>
        <time>2021-07-04T09:44:39Z</time>
      </trkpt>
      <trkpt lat="47.41055" lon="-0.47278">
        <ele>26.2</ele>
        <time>2021-07-04T09:44:41Z</time>
      </trkpt>
      <trkpt lat="47.41052" lon="-0.4729">
        <ele>26.2</ele>
        <time>2021-07-04T09:44:43Z</time>
      </trkpt>
      <trkpt lat="47.41048" lon="-0.47304">
        <ele>26</ele>
        <time>2021-07-04T09:44:45Z</time>
      </trkpt>
      <trkpt lat="47.41046" lon="-0.47311">
        <ele>25.8</ele>
        <time>2021-07-04T09:44:46Z</time>
      </trkpt>
      <trkpt lat="47.41044" lon="-0.47319">
        <ele>25.6</ele>
        <time>2021-07-04T09:44:47Z</time>
      </trkpt>
      <trkpt lat="47.4104" lon="-0.47334">
        <ele>26.2</ele>
        <time>2021-07-04T09:44:49Z</time>
      </trkpt>
      <trkpt lat="47.41036" lon="-0.4735">
        <ele>26.4</ele>
        <time>2021-07-04T09:44:51Z</time>
      </trkpt>
      <trkpt lat="47.41033" lon="-0.47365">
        <ele>26.2</ele>
        <time>2021-07-04T09:44:53Z</time>
      </trkpt>
      <trkpt lat="47.41029" lon="-0.47379">
        <ele>25.6</ele>
        <time>2021-07-04T09:44:55Z</time>
      </trkpt>
      <trkpt lat="47.41026" lon="-0.47394">
        <ele>25.6</ele>
        <time>2021-07-04T09:44:57Z</time>
      </trkpt>
      <trkpt lat="47.41023" lon="-0.47407">
        <ele>26</ele>
        <time>2021-07-04T09:44:59Z</time>
      </trkpt>
      <trkpt lat="47.41019" lon="-0.4742">
        <ele>26.2</ele>
        <time>2021-07-04T09:45:01Z</time>
      </trkpt>
      <trkpt lat="47.41015" lon="-0.47434">
        <ele>26</ele>
        <time>2021-07-04T09:45:03Z</time>
      </trkpt>
      <trkpt lat="47.4101" lon="-0.4745">
        <ele>25.2</ele>
        <time>2021-07-04T09:45:05Z</time>
      </trkpt>
      <trkpt lat="47.41004" lon="-0.47465">
        <ele>25.2</ele>
        <time>2021-07-04T09:45:07Z</time>
      </trkpt>
      <trkpt lat="47.41002" lon="-0.47474">
        <ele>25</ele>
        <time>2021-07-04T09:45:08Z</time>
      </trkpt>
      <trkpt lat="47.40999" lon="-0.47482">
        <ele>24.8</ele>
        <time>2021-07-04T09:45:09Z</time>
      </trkpt>
      <trkpt lat="47.40994" lon="-0.47499">
        <ele>25.2</ele>
        <time>2021-07-04T09:45:11Z</time>
      </trkpt>
      <trkpt lat="47.4099" lon="-0.47516">
        <ele>25.6</ele>
        <time>2021-07-04T09:45:13Z</time>
      </trkpt>
      <trkpt lat="47.40988" lon="-0.47525">
        <ele>25.4</ele>
        <time>2021-07-04T09:45:14Z</time>
      </trkpt>
      <trkpt lat="47.40987" lon="-0.47534">
        <ele>25</ele>
        <time>2021-07-04T09:45:15Z</time>
      </trkpt>
      <trkpt lat="47.40985" lon="-0.47553">
        <ele>24.8</ele>
        <time>2021-07-04T09:45:17Z</time>
      </trkpt>
      <trkpt lat="47.40984" lon="-0.47562">
        <ele>24.6</ele>
        <time>2021-07-04T09:45:18Z</time>
      </trkpt>
      <trkpt lat="47.40984" lon="-0.4757">
        <ele>24.8</ele>
        <time>2021-07-04T09:45:19Z</time>
      </trkpt>
      <trkpt lat="47.40983" lon="-0.47589">
        <ele>24.8</ele>
        <time>2021-07-04T09:45:21Z</time>
      </trkpt>
      <trkpt lat="47.40983" lon="-0.47607">
        <ele>25</ele>
        <time>2021-07-04T09:45:23Z</time>
      </trkpt>
      <trkpt lat="47.40982" lon="-0.47623">
        <ele>25.2</ele>
        <time>2021-07-04T09:45:25Z</time>
      </trkpt>
      <trkpt lat="47.40981" lon="-0.47637">
        <ele>25.6</ele>
        <time>2021-07-04T09:45:27Z</time>
      </trkpt>
      <trkpt lat="47.4098" lon="-0.47651">
        <ele>26.4</ele>
        <time>2021-07-04T09:45:29Z</time>
      </trkpt>
      <trkpt lat="47.40979" lon="-0.47658">
        <ele>26.4</ele>
        <time>2021-07-04T09:45:30Z</time>
      </trkpt>
      <trkpt lat="47.40979" lon="-0.47665">
        <ele>26.6</ele>
        <time>2021-07-04T09:45:31Z</time>
      </trkpt>
      <trkpt lat="47.40977" lon="-0.47678">
        <ele>26.6</ele>
        <time>2021-07-04T09:45:33Z</time>
      </trkpt>
      <trkpt lat="47.40975" lon="-0.4769">
        <ele>26.4</ele>
        <time>2021-07-04T09:45:35Z</time>
      </trkpt>
      <trkpt lat="47.40974" lon="-0.47697">
        <ele>26.4</ele>
        <time>2021-07-04T09:45:36Z</time>
      </trkpt>
      <trkpt lat="47.40973" lon="-0.47704">
        <ele>26.4</ele>
        <time>2021-07-04T09:45:37Z</time>
      </trkpt>
      <trkpt lat="47.40973" lon="-0.47714">
        <ele>26.6</ele>
        <time>2021-07-04T09:45:39Z</time>
      </trkpt>
      <trkpt lat="47.40973" lon="-0.47713">
        <ele>26.8</ele>
        <time>2021-07-04T09:45:40Z</time>
      </trkpt>
      <trkpt lat="47.4097" lon="-0.4773">
        <ele>26.6</ele>
        <time>2021-07-04T09:45:45Z</time>
      </trkpt>
      <trkpt lat="47.40975" lon="-0.47731">
        <ele>26.6</ele>
        <time>2021-07-04T09:45:47Z</time>
      </trkpt>
      <trkpt lat="47.40979" lon="-0.47732">
        <ele>26.6</ele>
        <time>2021-07-04T09:45:48Z</time>
      </trkpt>
      <trkpt lat="47.40984" lon="-0.47733">
        <ele>26.4</ele>
        <time>2021-07-04T09:45:49Z</time>
      </trkpt>
      <trkpt lat="47.4099" lon="-0.47733">
        <ele>26</ele>
        <time>2021-07-04T09:45:50Z</time>
      </trkpt>
      <trkpt lat="47.40995" lon="-0.47734">
        <ele>26</ele>
        <time>2021-07-04T09:45:51Z</time>
      </trkpt>
      <trkpt lat="47.41001" lon="-0.47734">
        <ele>25.8</ele>
        <time>2021-07-04T09:45:52Z</time>
      </trkpt>
      <trkpt lat="47.41007" lon="-0.47734">
        <ele>25.8</ele>
        <time>2021-07-04T09:45:53Z</time>
      </trkpt>
      <trkpt lat="47.41019" lon="-0.47734">
        <ele>25.6</ele>
        <time>2021-07-04T09:45:55Z</time>
      </trkpt>
      <trkpt lat="47.41031" lon="-0.47735">
        <ele>25.6</ele>
        <time>2021-07-04T09:45:57Z</time>
      </trkpt>
      <trkpt lat="47.41042" lon="-0.47734">
        <ele>25.6</ele>
        <time>2021-07-04T09:45:59Z</time>
      </trkpt>
      <trkpt lat="47.41053" lon="-0.47734">
        <ele>26.4</ele>
        <time>2021-07-04T09:46:01Z</time>
      </trkpt>
      <trkpt lat="47.41062" lon="-0.47734">
        <ele>26.8</ele>
        <time>2021-07-04T09:46:03Z</time>
      </trkpt>
      <trkpt lat="47.41067" lon="-0.47734">
        <ele>26.6</ele>
        <time>2021-07-04T09:46:04Z</time>
      </trkpt>
      <trkpt lat="47.41071" lon="-0.47734">
        <ele>26.8</ele>
        <time>2021-07-04T09:46:05Z</time>
      </trkpt>
      <trkpt lat="47.41079" lon="-0.47735">
        <ele>27</ele>
        <time>2021-07-04T09:46:07Z</time>
      </trkpt>
      <trkpt lat="47.41084" lon="-0.47734">
        <ele>27</ele>
        <time>2021-07-04T09:46:08Z</time>
      </trkpt>
      <trkpt lat="47.41089" lon="-0.47734">
        <ele>27.2</ele>
        <time>2021-07-04T09:46:09Z</time>
      </trkpt>
      <trkpt lat="47.41098" lon="-0.47733">
        <ele>27</ele>
        <time>2021-07-04T09:46:11Z</time>
      </trkpt>
      <trkpt lat="47.41107" lon="-0.47733">
        <ele>27.4</ele>
        <time>2021-07-04T09:46:13Z</time>
      </trkpt>
      <trkpt lat="47.41117" lon="-0.47733">
        <ele>27</ele>
        <time>2021-07-04T09:46:15Z</time>
      </trkpt>
      <trkpt lat="47.41127" lon="-0.47733">
        <ele>27</ele>
        <time>2021-07-04T09:46:17Z</time>
      </trkpt>
      <trkpt lat="47.41132" lon="-0.47734">
        <ele>27.4</ele>
        <time>2021-07-04T09:46:18Z</time>
      </trkpt>
      <trkpt lat="47.41136" lon="-0.47733">
        <ele>27.6</ele>
        <time>2021-07-04T09:46:19Z</time>
      </trkpt>
      <trkpt lat="47.41144" lon="-0.47733">
        <ele>27.4</ele>
        <time>2021-07-04T09:46:21Z</time>
      </trkpt>
      <trkpt lat="47.41152" lon="-0.47733">
        <ele>27.4</ele>
        <time>2021-07-04T09:46:23Z</time>
      </trkpt>
      <trkpt lat="47.4116" lon="-0.47734">
        <ele>27.6</ele>
        <time>2021-07-04T09:46:25Z</time>
      </trkpt>
      <trkpt lat="47.41167" lon="-0.47734">
        <ele>27.2</ele>
        <time>2021-07-04T09:46:27Z</time>
      </trkpt>
      <trkpt lat="47.41173" lon="-0.47737">
        <ele>27.6</ele>
        <time>2021-07-04T09:46:29Z</time>
      </trkpt>
      <trkpt lat="47.41175" lon="-0.4774">
        <ele>27.6</ele>
        <time>2021-07-04T09:46:30Z</time>
      </trkpt>
      <trkpt lat="47.41177" lon="-0.47742">
        <ele>27.4</ele>
        <time>2021-07-04T09:46:31Z</time>
      </trkpt>
      <trkpt lat="47.41177" lon="-0.47743">
        <ele>27.4</ele>
        <time>2021-07-04T09:46:33Z</time>
      </trkpt>
      <trkpt lat="47.41173" lon="-0.47739">
        <ele>27.4</ele>
        <time>2021-07-04T09:46:55Z</time>
      </trkpt>
      <trkpt lat="47.41171" lon="-0.47737">
        <ele>27.4</ele>
        <time>2021-07-04T09:46:56Z</time>
      </trkpt>
      <trkpt lat="47.41168" lon="-0.47736">
        <ele>27.4</ele>
        <time>2021-07-04T09:46:57Z</time>
      </trkpt>
      <trkpt lat="47.4116" lon="-0.47736">
        <ele>26.8</ele>
        <time>2021-07-04T09:46:59Z</time>
      </trkpt>
      <trkpt lat="47.41155" lon="-0.47736">
        <ele>26.6</ele>
        <time>2021-07-04T09:47:00Z</time>
      </trkpt>
      <trkpt lat="47.41149" lon="-0.47736">
        <ele>26.2</ele>
        <time>2021-07-04T09:47:01Z</time>
      </trkpt>
      <trkpt lat="47.41139" lon="-0.47735">
        <ele>25.6</ele>
        <time>2021-07-04T09:47:03Z</time>
      </trkpt>
      <trkpt lat="47.41133" lon="-0.47735">
        <ele>25.4</ele>
        <time>2021-07-04T09:47:04Z</time>
      </trkpt>
      <trkpt lat="47.41127" lon="-0.47735">
        <ele>25.2</ele>
        <time>2021-07-04T09:47:05Z</time>
      </trkpt>
      <trkpt lat="47.41122" lon="-0.47735">
        <ele>25.2</ele>
        <time>2021-07-04T09:47:06Z</time>
      </trkpt>
      <trkpt lat="47.41116" lon="-0.47735">
        <ele>24.8</ele>
        <time>2021-07-04T09:47:07Z</time>
      </trkpt>
      <trkpt lat="47.41106" lon="-0.47735">
        <ele>24.8</ele>
        <time>2021-07-04T09:47:09Z</time>
      </trkpt>
      <trkpt lat="47.41095" lon="-0.47735">
        <ele>24.6</ele>
        <time>2021-07-04T09:47:11Z</time>
      </trkpt>
      <trkpt lat="47.41084" lon="-0.47735">
        <ele>25</ele>
        <time>2021-07-04T09:47:13Z</time>
      </trkpt>
      <trkpt lat="47.41073" lon="-0.47736">
        <ele>24.2</ele>
        <time>2021-07-04T09:47:15Z</time>
      </trkpt>
      <trkpt lat="47.41061" lon="-0.47737">
        <ele>24.4</ele>
        <time>2021-07-04T09:47:17Z</time>
      </trkpt>
      <trkpt lat="47.4105" lon="-0.47737">
        <ele>24.2</ele>
        <time>2021-07-04T09:47:19Z</time>
      </trkpt>
      <trkpt lat="47.41039" lon="-0.47737">
        <ele>24.4</ele>
        <time>2021-07-04T09:47:21Z</time>
      </trkpt>
      <trkpt lat="47.41028" lon="-0.47737">
        <ele>25.2</ele>
        <time>2021-07-04T09:47:23Z</time>
      </trkpt>
      <trkpt lat="47.41023" lon="-0.47737">
        <ele>25.6</ele>
        <time>2021-07-04T09:47:24Z</time>
      </trkpt>
      <trkpt lat="47.41017" lon="-0.47737">
        <ele>26</ele>
        <time>2021-07-04T09:47:25Z</time>
      </trkpt>
      <trkpt lat="47.41006" lon="-0.47738">
        <ele>25.8</ele>
        <time>2021-07-04T09:47:27Z</time>
      </trkpt>
      <trkpt lat="47.40995" lon="-0.47738">
        <ele>25.6</ele>
        <time>2021-07-04T09:47:29Z</time>
      </trkpt>
      <trkpt lat="47.40989" lon="-0.47738">
        <ele>25.6</ele>
        <time>2021-07-04T09:47:30Z</time>
      </trkpt>
      <trkpt lat="47.40984" lon="-0.47737">
        <ele>25.6</ele>
        <time>2021-07-04T09:47:31Z</time>
      </trkpt>
      <trkpt lat="47.40978" lon="-0.47737">
        <ele>25.8</ele>
        <time>2021-07-04T09:47:32Z</time>
      </trkpt>
      <trkpt lat="47.40973" lon="-0.47737">
        <ele>25.8</ele>
        <time>2021-07-04T09:47:33Z</time>
      </trkpt>
      <trkpt lat="47.40966" lon="-0.47737">
        <ele>25.8</ele>
        <time>2021-07-04T09:47:35Z</time>
      </trkpt>
      <trkpt lat="47.40964" lon="-0.47735">
        <ele>26.2</ele>
        <time>2021-07-04T09:47:36Z</time>
      </trkpt>
      <trkpt lat="47.40963" lon="-0.47731">
        <ele>26.2</ele>
        <time>2021-07-04T09:47:37Z</time>
      </trkpt>
      <trkpt lat="47.40963" lon="-0.47726">
        <ele>26.4</ele>
        <time>2021-07-04T09:47:38Z</time>
      </trkpt>
      <trkpt lat="47.40964" lon="-0.4772">
        <ele>26.2</ele>
        <time>2021-07-04T09:47:39Z</time>
      </trkpt>
      <trkpt lat="47.40967" lon="-0.47708">
        <ele>26</ele>
        <time>2021-07-04T09:47:41Z</time>
      </trkpt>
      <trkpt lat="47.40968" lon="-0.47695">
        <ele>26</ele>
        <time>2021-07-04T09:47:43Z</time>
      </trkpt>
      <trkpt lat="47.40969" lon="-0.4768">
        <ele>25.8</ele>
        <time>2021-07-04T09:47:45Z</time>
      </trkpt>
      <trkpt lat="47.40971" lon="-0.47664">
        <ele>25.6</ele>
        <time>2021-07-04T09:47:47Z</time>
      </trkpt>
      <trkpt lat="47.40971" lon="-0.47656">
        <ele>27</ele>
        <time>2021-07-04T09:47:48Z</time>
      </trkpt>
      <trkpt lat="47.40972" lon="-0.47649">
        <ele>22</ele>
        <time>2021-07-04T09:47:49Z</time>
      </trkpt>
      <trkpt lat="47.40972" lon="-0.47642">
        <ele>20.6</ele>
        <time>2021-07-04T09:47:50Z</time>
      </trkpt>
      <trkpt lat="47.40973" lon="-0.47635">
        <ele>22.8</ele>
        <time>2021-07-04T09:47:51Z</time>
      </trkpt>
      <trkpt lat="47.40974" lon="-0.47629">
        <ele>29</ele>
        <time>2021-07-04T09:47:52Z</time>
      </trkpt>
      <trkpt lat="47.40974" lon="-0.47623">
        <ele>31</ele>
        <time>2021-07-04T09:47:53Z</time>
      </trkpt>
      <trkpt lat="47.40974" lon="-0.47617">
        <ele>27.4</ele>
        <time>2021-07-04T09:47:54Z</time>
      </trkpt>
      <trkpt lat="47.40974" lon="-0.4761">
        <ele>26.2</ele>
        <time>2021-07-04T09:47:55Z</time>
      </trkpt>
      <trkpt lat="47.40975" lon="-0.47595">
        <ele>25.8</ele>
        <time>2021-07-04T09:47:57Z</time>
      </trkpt>
      <trkpt lat="47.40977" lon="-0.4758">
        <ele>25.6</ele>
        <time>2021-07-04T09:47:59Z</time>
      </trkpt>
      <trkpt lat="47.40978" lon="-0.47572">
        <ele>25.6</ele>
        <time>2021-07-04T09:48:00Z</time>
      </trkpt>
      <trkpt lat="47.40978" lon="-0.47565">
        <ele>25.6</ele>
        <time>2021-07-04T09:48:01Z</time>
      </trkpt>
      <trkpt lat="47.40981" lon="-0.47548">
        <ele>25.6</ele>
        <time>2021-07-04T09:48:03Z</time>
      </trkpt>
      <trkpt lat="47.40984" lon="-0.47532">
        <ele>25.8</ele>
        <time>2021-07-04T09:48:05Z</time>
      </trkpt>
      <trkpt lat="47.40986" lon="-0.47524">
        <ele>25.6</ele>
        <time>2021-07-04T09:48:06Z</time>
      </trkpt>
      <trkpt lat="47.40988" lon="-0.47517">
        <ele>25.8</ele>
        <time>2021-07-04T09:48:07Z</time>
      </trkpt>
      <trkpt lat="47.40992" lon="-0.47502">
        <ele>26</ele>
        <time>2021-07-04T09:48:09Z</time>
      </trkpt>
      <trkpt lat="47.40996" lon="-0.47486">
        <ele>26.2</ele>
        <time>2021-07-04T09:48:11Z</time>
      </trkpt>
      <trkpt lat="47.40998" lon="-0.47479">
        <ele>26.2</ele>
        <time>2021-07-04T09:48:12Z</time>
      </trkpt>
      <trkpt lat="47.41" lon="-0.47471">
        <ele>26.2</ele>
        <time>2021-07-04T09:48:13Z</time>
      </trkpt>
      <trkpt lat="47.41004" lon="-0.47456">
        <ele>26.2</ele>
        <time>2021-07-04T09:48:15Z</time>
      </trkpt>
      <trkpt lat="47.41007" lon="-0.47441">
        <ele>26.4</ele>
        <time>2021-07-04T09:48:17Z</time>
      </trkpt>
      <trkpt lat="47.41009" lon="-0.47434">
        <ele>26.4</ele>
        <time>2021-07-04T09:48:18Z</time>
      </trkpt>
      <trkpt lat="47.41011" lon="-0.47426">
        <ele>26.6</ele>
        <time>2021-07-04T09:48:19Z</time>
      </trkpt>
      <trkpt lat="47.41015" lon="-0.4741">
        <ele>26.6</ele>
        <time>2021-07-04T09:48:21Z</time>
      </trkpt>
      <trkpt lat="47.4102" lon="-0.47393">
        <ele>26.4</ele>
        <time>2021-07-04T09:48:23Z</time>
      </trkpt>
      <trkpt lat="47.41022" lon="-0.47385">
        <ele>26.4</ele>
        <time>2021-07-04T09:48:24Z</time>
      </trkpt>
      <trkpt lat="47.41025" lon="-0.47375">
        <ele>26.2</ele>
        <time>2021-07-04T09:48:25Z</time>
      </trkpt>
      <trkpt lat="47.41031" lon="-0.47357">
        <ele>25.8</ele>
        <time>2021-07-04T09:48:27Z</time>
      </trkpt>
      <trkpt lat="47.41036" lon="-0.4734">
        <ele>25.6</ele>
        <time>2021-07-04T09:48:29Z</time>
      </trkpt>
      <trkpt lat="47.41041" lon="-0.47323">
        <ele>25.8</ele>
        <time>2021-07-04T09:48:31Z</time>
      </trkpt>
      <trkpt lat="47.41043" lon="-0.47315">
        <ele>25.8</ele>
        <time>2021-07-04T09:48:32Z</time>
      </trkpt>
      <trkpt lat="47.41046" lon="-0.47307">
        <ele>25.8</ele>
        <time>2021-07-04T09:48:33Z</time>
      </trkpt>
      <trkpt lat="47.4105" lon="-0.47292">
        <ele>26</ele>
        <time>2021-07-04T09:48:35Z</time>
      </trkpt>
      <trkpt lat="47.41055" lon="-0.47278">
        <ele>26.4</ele>
        <time>2021-07-04T09:48:37Z</time>
      </trkpt>
      <trkpt lat="47.41058" lon="-0.47273">
        <ele>26.4</ele>
        <time>2021-07-04T09:48:38Z</time>
      </trkpt>
      <trkpt lat="47.41061" lon="-0.47268">
        <ele>26.4</ele>
        <time>2021-07-04T09:48:39Z</time>
      </trkpt>
      <trkpt lat="47.4107" lon="-0.47262">
        <ele>26.6</ele>
        <time>2021-07-04T09:48:41Z</time>
      </trkpt>
      <trkpt lat="47.41075" lon="-0.47262">
        <ele>26.6</ele>
        <time>2021-07-04T09:48:42Z</time>
      </trkpt>
      <trkpt lat="47.41079" lon="-0.47262">
        <ele>26.4</ele>
        <time>2021-07-04T09:48:43Z</time>
      </trkpt>
      <trkpt lat="47.41084" lon="-0.47262">
        <ele>26.6</ele>
        <time>2021-07-04T09:48:44Z</time>
      </trkpt>
      <trkpt lat="47.41089" lon="-0.47263">
        <ele>26.4</ele>
        <time>2021-07-04T09:48:45Z</time>
      </trkpt>
      <trkpt lat="47.411" lon="-0.47264">
        <ele>26.4</ele>
        <time>2021-07-04T09:48:47Z</time>
      </trkpt>
      <trkpt lat="47.41111" lon="-0.47266">
        <ele>26.4</ele>
        <time>2021-07-04T09:48:49Z</time>
      </trkpt>
      <trkpt lat="47.41123" lon="-0.47267">
        <ele>26.2</ele>
        <time>2021-07-04T09:48:51Z</time>
      </trkpt>
      <trkpt lat="47.41134" lon="-0.47269">
        <ele>26.2</ele>
        <time>2021-07-04T09:48:53Z</time>
      </trkpt>
      <trkpt lat="47.41146" lon="-0.47271">
        <ele>26</ele>
        <time>2021-07-04T09:48:55Z</time>
      </trkpt>
      <trkpt lat="47.41159" lon="-0.47273">
        <ele>26</ele>
        <time>2021-07-04T09:48:57Z</time>
      </trkpt>
      <trkpt lat="47.41172" lon="-0.47275">
        <ele>25.6</ele>
        <time>2021-07-04T09:48:59Z</time>
      </trkpt>
      <trkpt lat="47.41178" lon="-0.47276">
        <ele>25.2</ele>
        <time>2021-07-04T09:49:00Z</time>
      </trkpt>
      <trkpt lat="47.41184" lon="-0.47276">
        <ele>25.2</ele>
        <time>2021-07-04T09:49:01Z</time>
      </trkpt>
      <trkpt lat="47.41196" lon="-0.47276">
        <ele>25.6</ele>
        <time>2021-07-04T09:49:03Z</time>
      </trkpt>
      <trkpt lat="47.41209" lon="-0.47272">
        <ele>25.8</ele>
        <time>2021-07-04T09:49:05Z</time>
      </trkpt>
      <trkpt lat="47.41216" lon="-0.4727">
        <ele>25.6</ele>
        <time>2021-07-04T09:49:06Z</time>
      </trkpt>
      <trkpt lat="47.41222" lon="-0.47268">
        <ele>25.6</ele>
        <time>2021-07-04T09:49:07Z</time>
      </trkpt>
      <trkpt lat="47.41236" lon="-0.47264">
        <ele>25.4</ele>
        <time>2021-07-04T09:49:09Z</time>
      </trkpt>
      <trkpt lat="47.4125" lon="-0.4726">
        <ele>25.6</ele>
        <time>2021-07-04T09:49:11Z</time>
      </trkpt>
      <trkpt lat="47.41264" lon="-0.47256">
        <ele>25.4</ele>
        <time>2021-07-04T09:49:13Z</time>
      </trkpt>
      <trkpt lat="47.41271" lon="-0.47254">
        <ele>25.2</ele>
        <time>2021-07-04T09:49:14Z</time>
      </trkpt>
      <trkpt lat="47.41278" lon="-0.47253">
        <ele>25.2</ele>
        <time>2021-07-04T09:49:15Z</time>
      </trkpt>
      <trkpt lat="47.41291" lon="-0.47249">
        <ele>25.4</ele>
        <time>2021-07-04T09:49:17Z</time>
      </trkpt>
      <trkpt lat="47.41304" lon="-0.47245">
        <ele>25.8</ele>
        <time>2021-07-04T09:49:19Z</time>
      </trkpt>
      <trkpt lat="47.41317" lon="-0.47242">
        <ele>26.2</ele>
        <time>2021-07-04T09:49:21Z</time>
      </trkpt>
      <trkpt lat="47.4133" lon="-0.47238">
        <ele>26.6</ele>
        <time>2021-07-04T09:49:23Z</time>
      </trkpt>
      <trkpt lat="47.41343" lon="-0.47234">
        <ele>26.2</ele>
        <time>2021-07-04T09:49:25Z</time>
      </trkpt>
      <trkpt lat="47.41356" lon="-0.4723">
        <ele>26</ele>
        <time>2021-07-04T09:49:27Z</time>
      </trkpt>
      <trkpt lat="47.41368" lon="-0.47226">
        <ele>26.2</ele>
        <time>2021-07-04T09:49:29Z</time>
      </trkpt>
      <trkpt lat="47.41381" lon="-0.47222">
        <ele>26.2</ele>
        <time>2021-07-04T09:49:31Z</time>
      </trkpt>
      <trkpt lat="47.41393" lon="-0.47219">
        <ele>26</ele>
        <time>2021-07-04T09:49:33Z</time>
      </trkpt>
      <trkpt lat="47.41399" lon="-0.47218">
        <ele>26.4</ele>
        <time>2021-07-04T09:49:34Z</time>
      </trkpt>
      <trkpt lat="47.41405" lon="-0.47218">
        <ele>26.8</ele>
        <time>2021-07-04T09:49:35Z</time>
      </trkpt>
      <trkpt lat="47.41409" lon="-0.47219">
        <ele>27.2</ele>
        <time>2021-07-04T09:49:36Z</time>
      </trkpt>
      <trkpt lat="47.41414" lon="-0.47221">
        <ele>27.4</ele>
        <time>2021-07-04T09:49:37Z</time>
      </trkpt>
      <trkpt lat="47.41418" lon="-0.47223">
        <ele>27.4</ele>
        <time>2021-07-04T09:49:38Z</time>
      </trkpt>
      <trkpt lat="47.41422" lon="-0.47226">
        <ele>27.4</ele>
        <time>2021-07-04T09:49:39Z</time>
      </trkpt>
      <trkpt lat="47.41425" lon="-0.4723">
        <ele>27.6</ele>
        <time>2021-07-04T09:49:40Z</time>
      </trkpt>
      <trkpt lat="47.41428" lon="-0.47235">
        <ele>27.8</ele>
        <time>2021-07-04T09:49:41Z</time>
      </trkpt>
      <trkpt lat="47.41431" lon="-0.47241">
        <ele>27.8</ele>
        <time>2021-07-04T09:49:42Z</time>
      </trkpt>
      <trkpt lat="47.41433" lon="-0.47262">
        <ele>27.4</ele>
        <time>2021-07-04T09:49:45Z</time>
      </trkpt>
      <trkpt lat="47.41433" lon="-0.4727">
        <ele>27.6</ele>
        <time>2021-07-04T09:49:46Z</time>
      </trkpt>
      <trkpt lat="47.41433" lon="-0.47278">
        <ele>27.6</ele>
        <time>2021-07-04T09:49:47Z</time>
      </trkpt>
      <trkpt lat="47.41433" lon="-0.47294">
        <ele>27.2</ele>
        <time>2021-07-04T09:49:49Z</time>
      </trkpt>
      <trkpt lat="47.41432" lon="-0.47311">
        <ele>27.2</ele>
        <time>2021-07-04T09:49:51Z</time>
      </trkpt>
      <trkpt lat="47.41432" lon="-0.4732">
        <ele>27</ele>
        <time>2021-07-04T09:49:52Z</time>
      </trkpt>
      <trkpt lat="47.41431" lon="-0.47329">
        <ele>27.2</ele>
        <time>2021-07-04T09:49:53Z</time>
      </trkpt>
      <trkpt lat="47.4143" lon="-0.47346">
        <ele>27.2</ele>
        <time>2021-07-04T09:49:55Z</time>
      </trkpt>
      <trkpt lat="47.41429" lon="-0.47355">
        <ele>26.8</ele>
        <time>2021-07-04T09:49:56Z</time>
      </trkpt>
      <trkpt lat="47.41429" lon="-0.47364">
        <ele>26.6</ele>
        <time>2021-07-04T09:49:57Z</time>
      </trkpt>
      <trkpt lat="47.41428" lon="-0.47383">
        <ele>26.6</ele>
        <time>2021-07-04T09:49:59Z</time>
      </trkpt>
      <trkpt lat="47.41429" lon="-0.47394">
        <ele>26.4</ele>
        <time>2021-07-04T09:50:00Z</time>
      </trkpt>
      <trkpt lat="47.41428" lon="-0.47403">
        <ele>26.4</ele>
        <time>2021-07-04T09:50:01Z</time>
      </trkpt>
      <trkpt lat="47.41428" lon="-0.47412">
        <ele>26.2</ele>
        <time>2021-07-04T09:50:02Z</time>
      </trkpt>
      <trkpt lat="47.41427" lon="-0.4742">
        <ele>26.8</ele>
        <time>2021-07-04T09:50:03Z</time>
      </trkpt>
      <trkpt lat="47.41427" lon="-0.47428">
        <ele>27</ele>
        <time>2021-07-04T09:50:04Z</time>
      </trkpt>
      <trkpt lat="47.41427" lon="-0.47436">
        <ele>27.4</ele>
        <time>2021-07-04T09:50:05Z</time>
      </trkpt>
      <trkpt lat="47.41427" lon="-0.47442">
        <ele>27.8</ele>
        <time>2021-07-04T09:50:06Z</time>
      </trkpt>
      <trkpt lat="47.41427" lon="-0.47448">
        <ele>28</ele>
        <time>2021-07-04T09:50:07Z</time>
      </trkpt>
      <trkpt lat="47.41428" lon="-0.47453">
        <ele>28.4</ele>
        <time>2021-07-04T09:50:08Z</time>
      </trkpt>
      <trkpt lat="47.41427" lon="-0.47466">
        <ele>28</ele>
        <time>2021-07-04T09:50:10Z</time>
      </trkpt>
      <trkpt lat="47.41426" lon="-0.4748">
        <ele>27.6</ele>
        <time>2021-07-04T09:50:12Z</time>
      </trkpt>
      <trkpt lat="47.41425" lon="-0.47495">
        <ele>27.6</ele>
        <time>2021-07-04T09:50:14Z</time>
      </trkpt>
      <trkpt lat="47.41424" lon="-0.47512">
        <ele>27.4</ele>
        <time>2021-07-04T09:50:16Z</time>
      </trkpt>
      <trkpt lat="47.41423" lon="-0.47521">
        <ele>27.2</ele>
        <time>2021-07-04T09:50:17Z</time>
      </trkpt>
      <trkpt lat="47.41423" lon="-0.4753">
        <ele>27.2</ele>
        <time>2021-07-04T09:50:18Z</time>
      </trkpt>
      <trkpt lat="47.41421" lon="-0.47547">
        <ele>27</ele>
        <time>2021-07-04T09:50:20Z</time>
      </trkpt>
      <trkpt lat="47.4142" lon="-0.47564">
        <ele>26.2</ele>
        <time>2021-07-04T09:50:22Z</time>
      </trkpt>
      <trkpt lat="47.41419" lon="-0.47572">
        <ele>26</ele>
        <time>2021-07-04T09:50:23Z</time>
      </trkpt>
      <trkpt lat="47.41419" lon="-0.4758">
        <ele>25.6</ele>
        <time>2021-07-04T09:50:24Z</time>
      </trkpt>
      <trkpt lat="47.41417" lon="-0.47588">
        <ele>25.4</ele>
        <time>2021-07-04T09:50:25Z</time>
      </trkpt>
      <trkpt lat="47.41416" lon="-0.47596">
        <ele>25.4</ele>
        <time>2021-07-04T09:50:26Z</time>
      </trkpt>
      <trkpt lat="47.41415" lon="-0.47604">
        <ele>25.8</ele>
        <time>2021-07-04T09:50:27Z</time>
      </trkpt>
      <trkpt lat="47.41415" lon="-0.47613">
        <ele>26</ele>
        <time>2021-07-04T09:50:28Z</time>
      </trkpt>
      <trkpt lat="47.41414" lon="-0.4763">
        <ele>25.8</ele>
        <time>2021-07-04T09:50:30Z</time>
      </trkpt>
      <trkpt lat="47.41412" lon="-0.47648">
        <ele>26.2</ele>
        <time>2021-07-04T09:50:32Z</time>
      </trkpt>
      <trkpt lat="47.41409" lon="-0.47666">
        <ele>27.4</ele>
        <time>2021-07-04T09:50:34Z</time>
      </trkpt>
      <trkpt lat="47.41409" lon="-0.47676">
        <ele>27.6</ele>
        <time>2021-07-04T09:50:35Z</time>
      </trkpt>
      <trkpt lat="47.41408" lon="-0.47685">
        <ele>27.2</ele>
        <time>2021-07-04T09:50:36Z</time>
      </trkpt>
      <trkpt lat="47.41407" lon="-0.47702">
        <ele>26.6</ele>
        <time>2021-07-04T09:50:38Z</time>
      </trkpt>
      <trkpt lat="47.41405" lon="-0.47719">
        <ele>26.4</ele>
        <time>2021-07-04T09:50:40Z</time>
      </trkpt>
      <trkpt lat="47.41403" lon="-0.47733">
        <ele>26.6</ele>
        <time>2021-07-04T09:50:42Z</time>
      </trkpt>
      <trkpt lat="47.41402" lon="-0.47741">
        <ele>26.8</ele>
        <time>2021-07-04T09:50:43Z</time>
      </trkpt>
      <trkpt lat="47.41402" lon="-0.47748">
        <ele>26.6</ele>
        <time>2021-07-04T09:50:44Z</time>
      </trkpt>
      <trkpt lat="47.41401" lon="-0.47762">
        <ele>26.8</ele>
        <time>2021-07-04T09:50:46Z</time>
      </trkpt>
      <trkpt lat="47.414" lon="-0.47776">
        <ele>27.2</ele>
        <time>2021-07-04T09:50:48Z</time>
      </trkpt>
      <trkpt lat="47.414" lon="-0.47789">
        <ele>27.4</ele>
        <time>2021-07-04T09:50:50Z</time>
      </trkpt>
      <trkpt lat="47.41401" lon="-0.47802">
        <ele>27</ele>
        <time>2021-07-04T09:50:52Z</time>
      </trkpt>
      <trkpt lat="47.41402" lon="-0.4781">
        <ele>27</ele>
        <time>2021-07-04T09:50:53Z</time>
      </trkpt>
      <trkpt lat="47.41403" lon="-0.47817">
        <ele>27</ele>
        <time>2021-07-04T09:50:54Z</time>
      </trkpt>
      <trkpt lat="47.41404" lon="-0.47824">
        <ele>27.2</ele>
        <time>2021-07-04T09:50:55Z</time>
      </trkpt>
      <trkpt lat="47.41405" lon="-0.47837">
        <ele>27</ele>
        <time>2021-07-04T09:50:57Z</time>
      </trkpt>
      <trkpt lat="47.41405" lon="-0.47844">
        <ele>27.2</ele>
        <time>2021-07-04T09:50:58Z</time>
      </trkpt>
      <trkpt lat="47.41403" lon="-0.47849">
        <ele>27.6</ele>
        <time>2021-07-04T09:50:59Z</time>
      </trkpt>
      <trkpt lat="47.41403" lon="-0.47856">
        <ele>28.8</ele>
        <time>2021-07-04T09:51:01Z</time>
      </trkpt>
      <trkpt lat="47.41403" lon="-0.47859">
        <ele>29.2</ele>
        <time>2021-07-04T09:51:03Z</time>
      </trkpt>
      <trkpt lat="47.41396" lon="-0.47877">
        <ele>28.4</ele>
        <time>2021-07-04T09:51:15Z</time>
      </trkpt>
      <trkpt lat="47.41394" lon="-0.47883">
        <ele>26.4</ele>
        <time>2021-07-04T09:51:16Z</time>
      </trkpt>
      <trkpt lat="47.41393" lon="-0.47888">
        <ele>27.4</ele>
        <time>2021-07-04T09:51:17Z</time>
      </trkpt>
      <trkpt lat="47.41391" lon="-0.47897">
        <ele>31.6</ele>
        <time>2021-07-04T09:51:19Z</time>
      </trkpt>
      <trkpt lat="47.4139" lon="-0.47906">
        <ele>33</ele>
        <time>2021-07-04T09:51:21Z</time>
      </trkpt>
      <trkpt lat="47.41389" lon="-0.4791">
        <ele>28.8</ele>
        <time>2021-07-04T09:51:22Z</time>
      </trkpt>
      <trkpt lat="47.41388" lon="-0.47914">
        <ele>28.6</ele>
        <time>2021-07-04T09:51:23Z</time>
      </trkpt>
      <trkpt lat="47.41386" lon="-0.47923">
        <ele>30.2</ele>
        <time>2021-07-04T09:51:25Z</time>
      </trkpt>
      <trkpt lat="47.41385" lon="-0.47929">
        <ele>28.8</ele>
        <time>2021-07-04T09:51:26Z</time>
      </trkpt>
      <trkpt lat="47.41384" lon="-0.47934">
        <ele>28.2</ele>
        <time>2021-07-04T09:51:27Z</time>
      </trkpt>
      <trkpt lat="47.41382" lon="-0.47946">
        <ele>27.8</ele>
        <time>2021-07-04T09:51:29Z</time>
      </trkpt>
      <trkpt lat="47.41381" lon="-0.47961">
        <ele>27.6</ele>
        <time>2021-07-04T09:51:31Z</time>
      </trkpt>
      <trkpt lat="47.4138" lon="-0.47967">
        <ele>27.6</ele>
        <time>2021-07-04T09:51:32Z</time>
      </trkpt>
      <trkpt lat="47.4138" lon="-0.47973">
        <ele>27.4</ele>
        <time>2021-07-04T09:51:33Z</time>
      </trkpt>
      <trkpt lat="47.4138" lon="-0.47981">
        <ele>27.6</ele>
        <time>2021-07-04T09:51:34Z</time>
      </trkpt>
      <trkpt lat="47.4138" lon="-0.47989">
        <ele>27.4</ele>
        <time>2021-07-04T09:51:35Z</time>
      </trkpt>
      <trkpt lat="47.41378" lon="-0.47998">
        <ele>27.2</ele>
        <time>2021-07-04T09:51:36Z</time>
      </trkpt>
      <trkpt lat="47.41378" lon="-0.48007">
        <ele>27</ele>
        <time>2021-07-04T09:51:37Z</time>
      </trkpt>
      <trkpt lat="47.41375" lon="-0.48027">
        <ele>27</ele>
        <time>2021-07-04T09:51:39Z</time>
      </trkpt>
      <trkpt lat="47.41374" lon="-0.48037">
        <ele>26.6</ele>
        <time>2021-07-04T09:51:40Z</time>
      </trkpt>
      <trkpt lat="47.41373" lon="-0.48046">
        <ele>26.4</ele>
        <time>2021-07-04T09:51:41Z</time>
      </trkpt>
      <trkpt lat="47.41371" lon="-0.48066">
        <ele>26.4</ele>
        <time>2021-07-04T09:51:43Z</time>
      </trkpt>
      <trkpt lat="47.41368" lon="-0.48086">
        <ele>26.6</ele>
        <time>2021-07-04T09:51:45Z</time>
      </trkpt>
      <trkpt lat="47.41367" lon="-0.48095">
        <ele>26.6</ele>
        <time>2021-07-04T09:51:46Z</time>
      </trkpt>
      <trkpt lat="47.41366" lon="-0.48105">
        <ele>26.2</ele>
        <time>2021-07-04T09:51:47Z</time>
      </trkpt>
      <trkpt lat="47.41363" lon="-0.48125">
        <ele>26</ele>
        <time>2021-07-04T09:51:49Z</time>
      </trkpt>
      <trkpt lat="47.41361" lon="-0.48147">
        <ele>26</ele>
        <time>2021-07-04T09:51:51Z</time>
      </trkpt>
      <trkpt lat="47.4136" lon="-0.48168">
        <ele>26.2</ele>
        <time>2021-07-04T09:51:53Z</time>
      </trkpt>
      <trkpt lat="47.41358" lon="-0.48188">
        <ele>26</ele>
        <time>2021-07-04T09:51:55Z</time>
      </trkpt>
      <trkpt lat="47.41357" lon="-0.48208">
        <ele>26</ele>
        <time>2021-07-04T09:51:57Z</time>
      </trkpt>
      <trkpt lat="47.41355" lon="-0.48217">
        <ele>26</ele>
        <time>2021-07-04T09:51:58Z</time>
      </trkpt>
      <trkpt lat="47.41354" lon="-0.48227">
        <ele>26</ele>
        <time>2021-07-04T09:51:59Z</time>
      </trkpt>
      <trkpt lat="47.41353" lon="-0.48246">
        <ele>26.6</ele>
        <time>2021-07-04T09:52:01Z</time>
      </trkpt>
      <trkpt lat="47.41352" lon="-0.48265">
        <ele>26.8</ele>
        <time>2021-07-04T09:52:03Z</time>
      </trkpt>
      <trkpt lat="47.41351" lon="-0.48283">
        <ele>26.6</ele>
        <time>2021-07-04T09:52:05Z</time>
      </trkpt>
      <trkpt lat="47.4135" lon="-0.48301">
        <ele>26.8</ele>
        <time>2021-07-04T09:52:07Z</time>
      </trkpt>
      <trkpt lat="47.41349" lon="-0.48319">
        <ele>26.4</ele>
        <time>2021-07-04T09:52:09Z</time>
      </trkpt>
      <trkpt lat="47.41349" lon="-0.48337">
        <ele>26.2</ele>
        <time>2021-07-04T09:52:11Z</time>
      </trkpt>
      <trkpt lat="47.41348" lon="-0.48356">
        <ele>26.2</ele>
        <time>2021-07-04T09:52:13Z</time>
      </trkpt>
      <trkpt lat="47.41346" lon="-0.48374">
        <ele>26.6</ele>
        <time>2021-07-04T09:52:15Z</time>
      </trkpt>
      <trkpt lat="47.41345" lon="-0.48392">
        <ele>26.8</ele>
        <time>2021-07-04T09:52:17Z</time>
      </trkpt>
      <trkpt lat="47.41344" lon="-0.4841">
        <ele>26.8</ele>
        <time>2021-07-04T09:52:19Z</time>
      </trkpt>
      <trkpt lat="47.41343" lon="-0.48429">
        <ele>26.4</ele>
        <time>2021-07-04T09:52:21Z</time>
      </trkpt>
      <trkpt lat="47.41342" lon="-0.48447">
        <ele>26.2</ele>
        <time>2021-07-04T09:52:23Z</time>
      </trkpt>
      <trkpt lat="47.41342" lon="-0.48456">
        <ele>26.4</ele>
        <time>2021-07-04T09:52:24Z</time>
      </trkpt>
      <trkpt lat="47.41342" lon="-0.48465">
        <ele>26.6</ele>
        <time>2021-07-04T09:52:25Z</time>
      </trkpt>
      <trkpt lat="47.41342" lon="-0.48482">
        <ele>26.4</ele>
        <time>2021-07-04T09:52:27Z</time>
      </trkpt>
      <trkpt lat="47.41341" lon="-0.48492">
        <ele>26.4</ele>
        <time>2021-07-04T09:52:28Z</time>
      </trkpt>
      <trkpt lat="47.4134" lon="-0.48501">
        <ele>26.4</ele>
        <time>2021-07-04T09:52:29Z</time>
      </trkpt>
      <trkpt lat="47.41339" lon="-0.4852">
        <ele>26</ele>
        <time>2021-07-04T09:52:31Z</time>
      </trkpt>
      <trkpt lat="47.41339" lon="-0.48539">
        <ele>25.8</ele>
        <time>2021-07-04T09:52:33Z</time>
      </trkpt>
      <trkpt lat="47.41338" lon="-0.48549">
        <ele>25.6</ele>
        <time>2021-07-04T09:52:34Z</time>
      </trkpt>
      <trkpt lat="47.41338" lon="-0.48558">
        <ele>25.4</ele>
        <time>2021-07-04T09:52:35Z</time>
      </trkpt>
      <trkpt lat="47.41337" lon="-0.48568">
        <ele>25.2</ele>
        <time>2021-07-04T09:52:36Z</time>
      </trkpt>
      <trkpt lat="47.41336" lon="-0.48577">
        <ele>25.4</ele>
        <time>2021-07-04T09:52:37Z</time>
      </trkpt>
      <trkpt lat="47.41334" lon="-0.48596">
        <ele>25.8</ele>
        <time>2021-07-04T09:52:39Z</time>
      </trkpt>
      <trkpt lat="47.41333" lon="-0.48605">
        <ele>25.6</ele>
        <time>2021-07-04T09:52:40Z</time>
      </trkpt>
      <trkpt lat="47.41331" lon="-0.48614">
        <ele>25.4</ele>
        <time>2021-07-04T09:52:41Z</time>
      </trkpt>
      <trkpt lat="47.41329" lon="-0.48631">
        <ele>25.6</ele>
        <time>2021-07-04T09:52:43Z</time>
      </trkpt>
      <trkpt lat="47.41328" lon="-0.4864">
        <ele>26</ele>
        <time>2021-07-04T09:52:44Z</time>
      </trkpt>
      <trkpt lat="47.41327" lon="-0.48649">
        <ele>26</ele>
        <time>2021-07-04T09:52:45Z</time>
      </trkpt>
      <trkpt lat="47.41328" lon="-0.48668">
        <ele>26</ele>
        <time>2021-07-04T09:52:47Z</time>
      </trkpt>
      <trkpt lat="47.41328" lon="-0.48687">
        <ele>26</ele>
        <time>2021-07-04T09:52:49Z</time>
      </trkpt>
      <trkpt lat="47.41329" lon="-0.48704">
        <ele>26.2</ele>
        <time>2021-07-04T09:52:51Z</time>
      </trkpt>
      <trkpt lat="47.41328" lon="-0.48722">
        <ele>25.8</ele>
        <time>2021-07-04T09:52:53Z</time>
      </trkpt>
      <trkpt lat="47.41327" lon="-0.48741">
        <ele>25.8</ele>
        <time>2021-07-04T09:52:55Z</time>
      </trkpt>
      <trkpt lat="47.41325" lon="-0.48758">
        <ele>25.4</ele>
        <time>2021-07-04T09:52:57Z</time>
      </trkpt>
      <trkpt lat="47.41324" lon="-0.48768">
        <ele>25</ele>
        <time>2021-07-04T09:52:58Z</time>
      </trkpt>
      <trkpt lat="47.41324" lon="-0.48777">
        <ele>25.2</ele>
        <time>2021-07-04T09:52:59Z</time>
      </trkpt>
      <trkpt lat="47.41322" lon="-0.48797">
        <ele>25.4</ele>
        <time>2021-07-04T09:53:01Z</time>
      </trkpt>
      <trkpt lat="47.41321" lon="-0.48817">
        <ele>26</ele>
        <time>2021-07-04T09:53:03Z</time>
      </trkpt>
      <trkpt lat="47.41321" lon="-0.48826">
        <ele>26.2</ele>
        <time>2021-07-04T09:53:04Z</time>
      </trkpt>
      <trkpt lat="47.41321" lon="-0.48845">
        <ele>26</ele>
        <time>2021-07-04T09:53:06Z</time>
      </trkpt>
      <trkpt lat="47.41321" lon="-0.48863">
        <ele>25.4</ele>
        <time>2021-07-04T09:53:08Z</time>
      </trkpt>
      <trkpt lat="47.4132" lon="-0.48872">
        <ele>25.4</ele>
        <time>2021-07-04T09:53:10Z</time>
      </trkpt>
      <trkpt lat="47.4132" lon="-0.4888">
        <ele>25.4</ele>
        <time>2021-07-04T09:53:11Z</time>
      </trkpt>
      <trkpt lat="47.4132" lon="-0.48888">
        <ele>25.6</ele>
        <time>2021-07-04T09:53:12Z</time>
      </trkpt>
      <trkpt lat="47.4132" lon="-0.48905">
        <ele>26.2</ele>
        <time>2021-07-04T09:53:14Z</time>
      </trkpt>
      <trkpt lat="47.4132" lon="-0.48922">
        <ele>26.2</ele>
        <time>2021-07-04T09:53:16Z</time>
      </trkpt>
      <trkpt lat="47.41319" lon="-0.48929">
        <ele>26.6</ele>
        <time>2021-07-04T09:53:17Z</time>
      </trkpt>
      <trkpt lat="47.41318" lon="-0.48936">
        <ele>26.8</ele>
        <time>2021-07-04T09:53:18Z</time>
      </trkpt>
      <trkpt lat="47.41314" lon="-0.48943">
        <ele>27</ele>
        <time>2021-07-04T09:53:20Z</time>
      </trkpt>
      <trkpt lat="47.41313" lon="-0.48943">
        <ele>27.8</ele>
        <time>2021-07-04T09:53:22Z</time>
      </trkpt>
      <trkpt lat="47.41304" lon="-0.48958">
        <ele>28</ele>
        <time>2021-07-04T09:55:05Z</time>
      </trkpt>
      <trkpt lat="47.41302" lon="-0.48962">
        <ele>28</ele>
        <time>2021-07-04T09:55:06Z</time>
      </trkpt>
      <trkpt lat="47.413" lon="-0.48965">
        <ele>28</ele>
        <time>2021-07-04T09:55:07Z</time>
      </trkpt>
      <trkpt lat="47.41297" lon="-0.48973">
        <ele>28.2</ele>
        <time>2021-07-04T09:55:09Z</time>
      </trkpt>
      <trkpt lat="47.41295" lon="-0.48982">
        <ele>28.4</ele>
        <time>2021-07-04T09:55:11Z</time>
      </trkpt>
      <trkpt lat="47.41295" lon="-0.48986">
        <ele>28.4</ele>
        <time>2021-07-04T09:55:12Z</time>
      </trkpt>
      <trkpt lat="47.41294" lon="-0.48991">
        <ele>28.2</ele>
        <time>2021-07-04T09:55:13Z</time>
      </trkpt>
      <trkpt lat="47.41291" lon="-0.48999">
        <ele>28.2</ele>
        <time>2021-07-04T09:55:15Z</time>
      </trkpt>
      <trkpt lat="47.4129" lon="-0.49011">
        <ele>27.6</ele>
        <time>2021-07-04T09:55:17Z</time>
      </trkpt>
      <trkpt lat="47.41289" lon="-0.49025">
        <ele>28</ele>
        <time>2021-07-04T09:55:19Z</time>
      </trkpt>
      <trkpt lat="47.41284" lon="-0.49036">
        <ele>27.6</ele>
        <time>2021-07-04T09:55:21Z</time>
      </trkpt>
      <trkpt lat="47.4128" lon="-0.49039">
        <ele>27.4</ele>
        <time>2021-07-04T09:55:22Z</time>
      </trkpt>
      <trkpt lat="47.41276" lon="-0.49042">
        <ele>27</ele>
        <time>2021-07-04T09:55:23Z</time>
      </trkpt>
      <trkpt lat="47.41271" lon="-0.49044">
        <ele>27</ele>
        <time>2021-07-04T09:55:24Z</time>
      </trkpt>
      <trkpt lat="47.41267" lon="-0.49043">
        <ele>27.2</ele>
        <time>2021-07-04T09:55:25Z</time>
      </trkpt>
      <trkpt lat="47.41263" lon="-0.49044">
        <ele>27.2</ele>
        <time>2021-07-04T09:55:26Z</time>
      </trkpt>
      <trkpt lat="47.41258" lon="-0.49044">
        <ele>27.4</ele>
        <time>2021-07-04T09:55:27Z</time>
      </trkpt>
      <trkpt lat="47.41252" lon="-0.49046">
        <ele>27.4</ele>
        <time>2021-07-04T09:55:28Z</time>
      </trkpt>
      <trkpt lat="47.41246" lon="-0.49046">
        <ele>27.4</ele>
        <time>2021-07-04T09:55:29Z</time>
      </trkpt>
      <trkpt lat="47.41236" lon="-0.49047">
        <ele>27</ele>
        <time>2021-07-04T09:55:31Z</time>
      </trkpt>
      <trkpt lat="47.41225" lon="-0.49047">
        <ele>27.2</ele>
        <time>2021-07-04T09:55:33Z</time>
      </trkpt>
      <trkpt lat="47.41214" lon="-0.49046">
        <ele>27.2</ele>
        <time>2021-07-04T09:55:35Z</time>
      </trkpt>
      <trkpt lat="47.41202" lon="-0.49046">
        <ele>27.2</ele>
        <time>2021-07-04T09:55:37Z</time>
      </trkpt>
      <trkpt lat="47.4119" lon="-0.49045">
        <ele>27</ele>
        <time>2021-07-04T09:55:39Z</time>
      </trkpt>
      <trkpt lat="47.41179" lon="-0.49043">
        <ele>26.8</ele>
        <time>2021-07-04T09:55:41Z</time>
      </trkpt>
      <trkpt lat="47.41169" lon="-0.49041">
        <ele>26.8</ele>
        <time>2021-07-04T09:55:43Z</time>
      </trkpt>
      <trkpt lat="47.41159" lon="-0.4904">
        <ele>27.2</ele>
        <time>2021-07-04T09:55:45Z</time>
      </trkpt>
      <trkpt lat="47.41152" lon="-0.4904">
        <ele>27.4</ele>
        <time>2021-07-04T09:55:47Z</time>
      </trkpt>
      <trkpt lat="47.41149" lon="-0.4904">
        <ele>27.6</ele>
        <time>2021-07-04T09:55:48Z</time>
      </trkpt>
      <trkpt lat="47.41146" lon="-0.49039">
        <ele>27.6</ele>
        <time>2021-07-04T09:55:49Z</time>
      </trkpt>
      <trkpt lat="47.41137" lon="-0.49036">
        <ele>27.4</ele>
        <time>2021-07-04T09:55:51Z</time>
      </trkpt>
      <trkpt lat="47.41132" lon="-0.49036">
        <ele>27.2</ele>
        <time>2021-07-04T09:55:52Z</time>
      </trkpt>
      <trkpt lat="47.41127" lon="-0.49035">
        <ele>27.4</ele>
        <time>2021-07-04T09:55:53Z</time>
      </trkpt>
      <trkpt lat="47.41116" lon="-0.49031">
        <ele>26.8</ele>
        <time>2021-07-04T09:55:55Z</time>
      </trkpt>
      <trkpt lat="47.41105" lon="-0.49028">
        <ele>26.6</ele>
        <time>2021-07-04T09:55:57Z</time>
      </trkpt>
      <trkpt lat="47.41093" lon="-0.49025">
        <ele>26.4</ele>
        <time>2021-07-04T09:55:59Z</time>
      </trkpt>
      <trkpt lat="47.41081" lon="-0.49022">
        <ele>26</ele>
        <time>2021-07-04T09:56:01Z</time>
      </trkpt>
      <trkpt lat="47.41075" lon="-0.49022">
        <ele>26</ele>
        <time>2021-07-04T09:56:02Z</time>
      </trkpt>
      <trkpt lat="47.41068" lon="-0.49022">
        <ele>26</ele>
        <time>2021-07-04T09:56:03Z</time>
      </trkpt>
      <trkpt lat="47.41062" lon="-0.49021">
        <ele>26</ele>
        <time>2021-07-04T09:56:04Z</time>
      </trkpt>
      <trkpt lat="47.41056" lon="-0.4902">
        <ele>25.6</ele>
        <time>2021-07-04T09:56:05Z</time>
      </trkpt>
      <trkpt lat="47.41045" lon="-0.49019">
        <ele>25.6</ele>
        <time>2021-07-04T09:56:07Z</time>
      </trkpt>
      <trkpt lat="47.41034" lon="-0.4902">
        <ele>25.8</ele>
        <time>2021-07-04T09:56:09Z</time>
      </trkpt>
      <trkpt lat="47.41024" lon="-0.4902">
        <ele>25.4</ele>
        <time>2021-07-04T09:56:11Z</time>
      </trkpt>
      <trkpt lat="47.41014" lon="-0.49022">
        <ele>25.8</ele>
        <time>2021-07-04T09:56:13Z</time>
      </trkpt>
      <trkpt lat="47.41009" lon="-0.49023">
        <ele>26.2</ele>
        <time>2021-07-04T09:56:14Z</time>
      </trkpt>
      <trkpt lat="47.41004" lon="-0.49023">
        <ele>25.6</ele>
        <time>2021-07-04T09:56:15Z</time>
      </trkpt>
      <trkpt lat="47.40993" lon="-0.49023">
        <ele>24.8</ele>
        <time>2021-07-04T09:56:17Z</time>
      </trkpt>
      <trkpt lat="47.40981" lon="-0.49024">
        <ele>24.6</ele>
        <time>2021-07-04T09:56:19Z</time>
      </trkpt>
      <trkpt lat="47.40975" lon="-0.49025">
        <ele>24.6</ele>
        <time>2021-07-04T09:56:20Z</time>
      </trkpt>
      <trkpt lat="47.40968" lon="-0.49026">
        <ele>24.6</ele>
        <time>2021-07-04T09:56:21Z</time>
      </trkpt>
      <trkpt lat="47.40956" lon="-0.49028">
        <ele>24.4</ele>
        <time>2021-07-04T09:56:23Z</time>
      </trkpt>
      <trkpt lat="47.40943" lon="-0.4903">
        <ele>24.4</ele>
        <time>2021-07-04T09:56:25Z</time>
      </trkpt>
      <trkpt lat="47.4093" lon="-0.4903">
        <ele>24.2</ele>
        <time>2021-07-04T09:56:27Z</time>
      </trkpt>
      <trkpt lat="47.40923" lon="-0.49031">
        <ele>24.4</ele>
        <time>2021-07-04T09:56:28Z</time>
      </trkpt>
      <trkpt lat="47.40916" lon="-0.49032">
        <ele>25</ele>
        <time>2021-07-04T09:56:29Z</time>
      </trkpt>
      <trkpt lat="47.40911" lon="-0.49034">
        <ele>25</ele>
        <time>2021-07-04T09:56:30Z</time>
      </trkpt>
      <trkpt lat="47.40906" lon="-0.49035">
        <ele>25.4</ele>
        <time>2021-07-04T09:56:31Z</time>
      </trkpt>
      <trkpt lat="47.40902" lon="-0.49037">
        <ele>25.6</ele>
        <time>2021-07-04T09:56:32Z</time>
      </trkpt>
      <trkpt lat="47.40899" lon="-0.49039">
        <ele>26.2</ele>
        <time>2021-07-04T09:56:33Z</time>
      </trkpt>
      <trkpt lat="47.40891" lon="-0.49042">
        <ele>26.6</ele>
        <time>2021-07-04T09:56:35Z</time>
      </trkpt>
      <trkpt lat="47.40882" lon="-0.49045">
        <ele>26.4</ele>
        <time>2021-07-04T09:56:37Z</time>
      </trkpt>
      <trkpt lat="47.40877" lon="-0.49046">
        <ele>26.4</ele>
        <time>2021-07-04T09:56:38Z</time>
      </trkpt>
      <trkpt lat="47.40873" lon="-0.49047">
        <ele>26</ele>
        <time>2021-07-04T09:56:39Z</time>
      </trkpt>
      <trkpt lat="47.40864" lon="-0.49051">
        <ele>26</ele>
        <time>2021-07-04T09:56:41Z</time>
      </trkpt>
      <trkpt lat="47.40855" lon="-0.49057">
        <ele>26.4</ele>
        <time>2021-07-04T09:56:43Z</time>
      </trkpt>
      <trkpt lat="47.40851" lon="-0.49063">
        <ele>26.4</ele>
        <time>2021-07-04T09:56:44Z</time>
      </trkpt>
      <trkpt lat="47.40851" lon="-0.49068">
        <ele>26.6</ele>
        <time>2021-07-04T09:56:45Z</time>
      </trkpt>
      <trkpt lat="47.40851" lon="-0.49073">
        <ele>26.6</ele>
        <time>2021-07-04T09:56:46Z</time>
      </trkpt>
      <trkpt lat="47.40853" lon="-0.49079">
        <ele>27</ele>
        <time>2021-07-04T09:56:47Z</time>
      </trkpt>
      <trkpt lat="47.40852" lon="-0.49093">
        <ele>27</ele>
        <time>2021-07-04T09:56:49Z</time>
      </trkpt>
      <trkpt lat="47.40852" lon="-0.49101">
        <ele>26.8</ele>
        <time>2021-07-04T09:56:50Z</time>
      </trkpt>
      <trkpt lat="47.40852" lon="-0.49109">
        <ele>26.6</ele>
        <time>2021-07-04T09:56:51Z</time>
      </trkpt>
      <trkpt lat="47.40852" lon="-0.49126">
        <ele>26.6</ele>
        <time>2021-07-04T09:56:53Z</time>
      </trkpt>
      <trkpt lat="47.40852" lon="-0.49143">
        <ele>26.8</ele>
        <time>2021-07-04T09:56:55Z</time>
      </trkpt>
      <trkpt lat="47.40852" lon="-0.49152">
        <ele>27</ele>
        <time>2021-07-04T09:56:56Z</time>
      </trkpt>
      <trkpt lat="47.40851" lon="-0.49161">
        <ele>27.2</ele>
        <time>2021-07-04T09:56:57Z</time>
      </trkpt>
      <trkpt lat="47.40851" lon="-0.49169">
        <ele>27.4</ele>
        <time>2021-07-04T09:56:58Z</time>
      </trkpt>
      <trkpt lat="47.4085" lon="-0.49178">
        <ele>27.6</ele>
        <time>2021-07-04T09:56:59Z</time>
      </trkpt>
      <trkpt lat="47.40849" lon="-0.49195">
        <ele>28.2</ele>
        <time>2021-07-04T09:57:01Z</time>
      </trkpt>
      <trkpt lat="47.40847" lon="-0.49213">
        <ele>27.6</ele>
        <time>2021-07-04T09:57:03Z</time>
      </trkpt>
      <trkpt lat="47.40846" lon="-0.49233">
        <ele>26.4</ele>
        <time>2021-07-04T09:57:05Z</time>
      </trkpt>
      <trkpt lat="47.40846" lon="-0.49243">
        <ele>26</ele>
        <time>2021-07-04T09:57:06Z</time>
      </trkpt>
      <trkpt lat="47.40846" lon="-0.49253">
        <ele>26</ele>
        <time>2021-07-04T09:57:07Z</time>
      </trkpt>
      <trkpt lat="47.40847" lon="-0.49262">
        <ele>26</ele>
        <time>2021-07-04T09:57:08Z</time>
      </trkpt>
      <trkpt lat="47.40848" lon="-0.49272">
        <ele>26</ele>
        <time>2021-07-04T09:57:09Z</time>
      </trkpt>
      <trkpt lat="47.40848" lon="-0.49282">
        <ele>26</ele>
        <time>2021-07-04T09:57:10Z</time>
      </trkpt>
      <trkpt lat="47.40848" lon="-0.49293">
        <ele>26</ele>
        <time>2021-07-04T09:57:11Z</time>
      </trkpt>
      <trkpt lat="47.40844" lon="-0.49315">
        <ele>26.2</ele>
        <time>2021-07-04T09:57:13Z</time>
      </trkpt>
      <trkpt lat="47.40842" lon="-0.49336">
        <ele>25.6</ele>
        <time>2021-07-04T09:57:15Z</time>
      </trkpt>
      <trkpt lat="47.40839" lon="-0.49358">
        <ele>25</ele>
        <time>2021-07-04T09:57:17Z</time>
      </trkpt>
      <trkpt lat="47.40837" lon="-0.49368">
        <ele>24.6</ele>
        <time>2021-07-04T09:57:18Z</time>
      </trkpt>
      <trkpt lat="47.40836" lon="-0.49379">
        <ele>24.6</ele>
        <time>2021-07-04T09:57:19Z</time>
      </trkpt>
      <trkpt lat="47.40833" lon="-0.49398">
        <ele>24</ele>
        <time>2021-07-04T09:57:21Z</time>
      </trkpt>
      <trkpt lat="47.40832" lon="-0.49408">
        <ele>24</ele>
        <time>2021-07-04T09:57:22Z</time>
      </trkpt>
      <trkpt lat="47.4083" lon="-0.49417">
        <ele>24.2</ele>
        <time>2021-07-04T09:57:23Z</time>
      </trkpt>
      <trkpt lat="47.40828" lon="-0.49436">
        <ele>24.4</ele>
        <time>2021-07-04T09:57:25Z</time>
      </trkpt>
      <trkpt lat="47.40825" lon="-0.49454">
        <ele>24.8</ele>
        <time>2021-07-04T09:57:27Z</time>
      </trkpt>
      <trkpt lat="47.40822" lon="-0.49472">
        <ele>24.4</ele>
        <time>2021-07-04T09:57:29Z</time>
      </trkpt>
      <trkpt lat="47.4082" lon="-0.49491">
        <ele>24.4</ele>
        <time>2021-07-04T09:57:31Z</time>
      </trkpt>
      <trkpt lat="47.40819" lon="-0.49501">
        <ele>24.4</ele>
        <time>2021-07-04T09:57:32Z</time>
      </trkpt>
      <trkpt lat="47.40819" lon="-0.49511">
        <ele>24.6</ele>
        <time>2021-07-04T09:57:33Z</time>
      </trkpt>
      <trkpt lat="47.40818" lon="-0.49531">
        <ele>24.4</ele>
        <time>2021-07-04T09:57:35Z</time>
      </trkpt>
      <trkpt lat="47.40817" lon="-0.49554">
        <ele>24.2</ele>
        <time>2021-07-04T09:57:37Z</time>
      </trkpt>
      <trkpt lat="47.40817" lon="-0.49578">
        <ele>24.2</ele>
        <time>2021-07-04T09:57:39Z</time>
      </trkpt>
      <trkpt lat="47.40815" lon="-0.496">
        <ele>25</ele>
        <time>2021-07-04T09:57:41Z</time>
      </trkpt>
      <trkpt lat="47.40814" lon="-0.49622">
        <ele>25</ele>
        <time>2021-07-04T09:57:43Z</time>
      </trkpt>
      <trkpt lat="47.40811" lon="-0.49643">
        <ele>25</ele>
        <time>2021-07-04T09:57:45Z</time>
      </trkpt>
      <trkpt lat="47.4081" lon="-0.49654">
        <ele>25</ele>
        <time>2021-07-04T09:57:46Z</time>
      </trkpt>
      <trkpt lat="47.40809" lon="-0.49664">
        <ele>24.6</ele>
        <time>2021-07-04T09:57:47Z</time>
      </trkpt>
      <trkpt lat="47.40807" lon="-0.49685">
        <ele>24.6</ele>
        <time>2021-07-04T09:57:49Z</time>
      </trkpt>
      <trkpt lat="47.40805" lon="-0.49705">
        <ele>25.2</ele>
        <time>2021-07-04T09:57:51Z</time>
      </trkpt>
      <trkpt lat="47.40805" lon="-0.49715">
        <ele>25.2</ele>
        <time>2021-07-04T09:57:52Z</time>
      </trkpt>
      <trkpt lat="47.40804" lon="-0.49725">
        <ele>25.2</ele>
        <time>2021-07-04T09:57:53Z</time>
      </trkpt>
      <trkpt lat="47.40802" lon="-0.49744">
        <ele>24.8</ele>
        <time>2021-07-04T09:57:55Z</time>
      </trkpt>
      <trkpt lat="47.40801" lon="-0.49763">
        <ele>24.6</ele>
        <time>2021-07-04T09:57:57Z</time>
      </trkpt>
      <trkpt lat="47.408" lon="-0.49772">
        <ele>24.4</ele>
        <time>2021-07-04T09:57:58Z</time>
      </trkpt>
      <trkpt lat="47.40799" lon="-0.49782">
        <ele>24</ele>
        <time>2021-07-04T09:57:59Z</time>
      </trkpt>
      <trkpt lat="47.40799" lon="-0.498">
        <ele>23.8</ele>
        <time>2021-07-04T09:58:01Z</time>
      </trkpt>
      <trkpt lat="47.40797" lon="-0.49819">
        <ele>23.8</ele>
        <time>2021-07-04T09:58:03Z</time>
      </trkpt>
      <trkpt lat="47.40793" lon="-0.49837">
        <ele>23.6</ele>
        <time>2021-07-04T09:58:05Z</time>
      </trkpt>
      <trkpt lat="47.4079" lon="-0.49856">
        <ele>23.8</ele>
        <time>2021-07-04T09:58:07Z</time>
      </trkpt>
      <trkpt lat="47.40787" lon="-0.49874">
        <ele>24.2</ele>
        <time>2021-07-04T09:58:09Z</time>
      </trkpt>
      <trkpt lat="47.40786" lon="-0.49894">
        <ele>24.6</ele>
        <time>2021-07-04T09:58:11Z</time>
      </trkpt>
      <trkpt lat="47.40785" lon="-0.49915">
        <ele>24.6</ele>
        <time>2021-07-04T09:58:13Z</time>
      </trkpt>
      <trkpt lat="47.40784" lon="-0.49935">
        <ele>24.4</ele>
        <time>2021-07-04T09:58:15Z</time>
      </trkpt>
      <trkpt lat="47.40784" lon="-0.49954">
        <ele>23.8</ele>
        <time>2021-07-04T09:58:17Z</time>
      </trkpt>
      <trkpt lat="47.40784" lon="-0.49974">
        <ele>23.6</ele>
        <time>2021-07-04T09:58:19Z</time>
      </trkpt>
      <trkpt lat="47.40784" lon="-0.49993">
        <ele>23.6</ele>
        <time>2021-07-04T09:58:21Z</time>
      </trkpt>
      <trkpt lat="47.40784" lon="-0.50011">
        <ele>23.6</ele>
        <time>2021-07-04T09:58:23Z</time>
      </trkpt>
      <trkpt lat="47.40785" lon="-0.5003">
        <ele>24.4</ele>
        <time>2021-07-04T09:58:25Z</time>
      </trkpt>
      <trkpt lat="47.40784" lon="-0.5004">
        <ele>25</ele>
        <time>2021-07-04T09:58:26Z</time>
      </trkpt>
      <trkpt lat="47.40785" lon="-0.50049">
        <ele>25</ele>
        <time>2021-07-04T09:58:27Z</time>
      </trkpt>
      <trkpt lat="47.40785" lon="-0.50068">
        <ele>24.2</ele>
        <time>2021-07-04T09:58:29Z</time>
      </trkpt>
      <trkpt lat="47.40785" lon="-0.50078">
        <ele>23.8</ele>
        <time>2021-07-04T09:58:30Z</time>
      </trkpt>
      <trkpt lat="47.40785" lon="-0.50088">
        <ele>24</ele>
        <time>2021-07-04T09:58:31Z</time>
      </trkpt>
      <trkpt lat="47.40785" lon="-0.50106">
        <ele>24</ele>
        <time>2021-07-04T09:58:33Z</time>
      </trkpt>
      <trkpt lat="47.40786" lon="-0.50125">
        <ele>23.6</ele>
        <time>2021-07-04T09:58:35Z</time>
      </trkpt>
      <trkpt lat="47.40786" lon="-0.50145">
        <ele>24</ele>
        <time>2021-07-04T09:58:37Z</time>
      </trkpt>
      <trkpt lat="47.40786" lon="-0.50164">
        <ele>24.2</ele>
        <time>2021-07-04T09:58:39Z</time>
      </trkpt>
      <trkpt lat="47.40786" lon="-0.50183">
        <ele>23.8</ele>
        <time>2021-07-04T09:58:41Z</time>
      </trkpt>
      <trkpt lat="47.40786" lon="-0.50202">
        <ele>23.4</ele>
        <time>2021-07-04T09:58:43Z</time>
      </trkpt>
      <trkpt lat="47.40786" lon="-0.5022">
        <ele>23.4</ele>
        <time>2021-07-04T09:58:45Z</time>
      </trkpt>
      <trkpt lat="47.40786" lon="-0.50239">
        <ele>24.2</ele>
        <time>2021-07-04T09:58:47Z</time>
      </trkpt>
      <trkpt lat="47.40787" lon="-0.50258">
        <ele>24.6</ele>
        <time>2021-07-04T09:58:49Z</time>
      </trkpt>
      <trkpt lat="47.40787" lon="-0.50268">
        <ele>24.6</ele>
        <time>2021-07-04T09:58:50Z</time>
      </trkpt>
      <trkpt lat="47.40787" lon="-0.50277">
        <ele>24.6</ele>
        <time>2021-07-04T09:58:51Z</time>
      </trkpt>
      <trkpt lat="47.40787" lon="-0.50297">
        <ele>24.6</ele>
        <time>2021-07-04T09:58:53Z</time>
      </trkpt>
      <trkpt lat="47.40787" lon="-0.50317">
        <ele>24.4</ele>
        <time>2021-07-04T09:58:55Z</time>
      </trkpt>
      <trkpt lat="47.40786" lon="-0.50337">
        <ele>24</ele>
        <time>2021-07-04T09:58:57Z</time>
      </trkpt>
      <trkpt lat="47.40786" lon="-0.50346">
        <ele>24</ele>
        <time>2021-07-04T09:58:58Z</time>
      </trkpt>
      <trkpt lat="47.40785" lon="-0.50356">
        <ele>24.2</ele>
        <time>2021-07-04T09:58:59Z</time>
      </trkpt>
      <trkpt lat="47.40785" lon="-0.50376">
        <ele>24.2</ele>
        <time>2021-07-04T09:59:01Z</time>
      </trkpt>
      <trkpt lat="47.40785" lon="-0.50395">
        <ele>23.6</ele>
        <time>2021-07-04T09:59:03Z</time>
      </trkpt>
      <trkpt lat="47.40786" lon="-0.50413">
        <ele>24</ele>
        <time>2021-07-04T09:59:05Z</time>
      </trkpt>
      <trkpt lat="47.40786" lon="-0.50422">
        <ele>24.4</ele>
        <time>2021-07-04T09:59:06Z</time>
      </trkpt>
      <trkpt lat="47.40787" lon="-0.50431">
        <ele>24.6</ele>
        <time>2021-07-04T09:59:07Z</time>
      </trkpt>
      <trkpt lat="47.40788" lon="-0.50449">
        <ele>24.8</ele>
        <time>2021-07-04T09:59:09Z</time>
      </trkpt>
      <trkpt lat="47.40789" lon="-0.50459">
        <ele>25</ele>
        <time>2021-07-04T09:59:10Z</time>
      </trkpt>
      <trkpt lat="47.4079" lon="-0.50468">
        <ele>25</ele>
        <time>2021-07-04T09:59:11Z</time>
      </trkpt>
      <trkpt lat="47.40792" lon="-0.50486">
        <ele>25.2</ele>
        <time>2021-07-04T09:59:13Z</time>
      </trkpt>
      <trkpt lat="47.40794" lon="-0.50495">
        <ele>25.2</ele>
        <time>2021-07-04T09:59:14Z</time>
      </trkpt>
      <trkpt lat="47.40795" lon="-0.50505">
        <ele>25</ele>
        <time>2021-07-04T09:59:15Z</time>
      </trkpt>
      <trkpt lat="47.40795" lon="-0.50523">
        <ele>24.6</ele>
        <time>2021-07-04T09:59:17Z</time>
      </trkpt>
      <trkpt lat="47.40795" lon="-0.50542">
        <ele>25</ele>
        <time>2021-07-04T09:59:19Z</time>
      </trkpt>
      <trkpt lat="47.40795" lon="-0.50551">
        <ele>25</ele>
        <time>2021-07-04T09:59:20Z</time>
      </trkpt>
      <trkpt lat="47.40793" lon="-0.5056">
        <ele>24.6</ele>
        <time>2021-07-04T09:59:21Z</time>
      </trkpt>
      <trkpt lat="47.4079" lon="-0.50578">
        <ele>24.2</ele>
        <time>2021-07-04T09:59:23Z</time>
      </trkpt>
      <trkpt lat="47.40786" lon="-0.50596">
        <ele>24</ele>
        <time>2021-07-04T09:59:25Z</time>
      </trkpt>
      <trkpt lat="47.40782" lon="-0.50614">
        <ele>24.6</ele>
        <time>2021-07-04T09:59:27Z</time>
      </trkpt>
      <trkpt lat="47.40779" lon="-0.50633">
        <ele>24.4</ele>
        <time>2021-07-04T09:59:29Z</time>
      </trkpt>
      <trkpt lat="47.40776" lon="-0.50651">
        <ele>24.6</ele>
        <time>2021-07-04T09:59:31Z</time>
      </trkpt>
      <trkpt lat="47.40775" lon="-0.5066">
        <ele>24.6</ele>
        <time>2021-07-04T09:59:32Z</time>
      </trkpt>
      <trkpt lat="47.40773" lon="-0.50669">
        <ele>24.8</ele>
        <time>2021-07-04T09:59:33Z</time>
      </trkpt>
      <trkpt lat="47.40772" lon="-0.50687">
        <ele>25</ele>
        <time>2021-07-04T09:59:35Z</time>
      </trkpt>
      <trkpt lat="47.40771" lon="-0.50706">
        <ele>24.8</ele>
        <time>2021-07-04T09:59:37Z</time>
      </trkpt>
      <trkpt lat="47.40771" lon="-0.50715">
        <ele>24.4</ele>
        <time>2021-07-04T09:59:38Z</time>
      </trkpt>
      <trkpt lat="47.40771" lon="-0.50724">
        <ele>24.2</ele>
        <time>2021-07-04T09:59:39Z</time>
      </trkpt>
      <trkpt lat="47.40771" lon="-0.50742">
        <ele>25.2</ele>
        <time>2021-07-04T09:59:41Z</time>
      </trkpt>
      <trkpt lat="47.4077" lon="-0.5076">
        <ele>25</ele>
        <time>2021-07-04T09:59:43Z</time>
      </trkpt>
      <trkpt lat="47.40768" lon="-0.50778">
        <ele>24</ele>
        <time>2021-07-04T09:59:45Z</time>
      </trkpt>
      <trkpt lat="47.40766" lon="-0.50787">
        <ele>24.2</ele>
        <time>2021-07-04T09:59:46Z</time>
      </trkpt>
      <trkpt lat="47.40765" lon="-0.50795">
        <ele>25</ele>
        <time>2021-07-04T09:59:47Z</time>
      </trkpt>
      <trkpt lat="47.40761" lon="-0.50813">
        <ele>25.6</ele>
        <time>2021-07-04T09:59:49Z</time>
      </trkpt>
      <trkpt lat="47.40757" lon="-0.50829">
        <ele>25.6</ele>
        <time>2021-07-04T09:59:51Z</time>
      </trkpt>
      <trkpt lat="47.40753" lon="-0.50845">
        <ele>25.6</ele>
        <time>2021-07-04T09:59:53Z</time>
      </trkpt>
      <trkpt lat="47.4075" lon="-0.50851">
        <ele>25.2</ele>
        <time>2021-07-04T09:59:54Z</time>
      </trkpt>
      <trkpt lat="47.40747" lon="-0.50857">
        <ele>25</ele>
        <time>2021-07-04T09:59:55Z</time>
      </trkpt>
      <trkpt lat="47.40739" lon="-0.50865">
        <ele>25.2</ele>
        <time>2021-07-04T09:59:57Z</time>
      </trkpt>
      <trkpt lat="47.40735" lon="-0.50867">
        <ele>25.4</ele>
        <time>2021-07-04T09:59:58Z</time>
      </trkpt>
      <trkpt lat="47.4073" lon="-0.50868">
        <ele>25.6</ele>
        <time>2021-07-04T09:59:59Z</time>
      </trkpt>
      <trkpt lat="47.40725" lon="-0.5087">
        <ele>25.8</ele>
        <time>2021-07-04T10:00:00Z</time>
      </trkpt>
      <trkpt lat="47.4072" lon="-0.50871">
        <ele>26</ele>
        <time>2021-07-04T10:00:01Z</time>
      </trkpt>
      <trkpt lat="47.40709" lon="-0.50874">
        <ele>26.2</ele>
        <time>2021-07-04T10:00:03Z</time>
      </trkpt>
      <trkpt lat="47.40704" lon="-0.50875">
        <ele>26</ele>
        <time>2021-07-04T10:00:04Z</time>
      </trkpt>
      <trkpt lat="47.40698" lon="-0.50878">
        <ele>25.6</ele>
        <time>2021-07-04T10:00:05Z</time>
      </trkpt>
      <trkpt lat="47.40687" lon="-0.50882">
        <ele>25.8</ele>
        <time>2021-07-04T10:00:07Z</time>
      </trkpt>
      <trkpt lat="47.40674" lon="-0.50886">
        <ele>25.8</ele>
        <time>2021-07-04T10:00:09Z</time>
      </trkpt>
      <trkpt lat="47.40661" lon="-0.50892">
        <ele>26.2</ele>
        <time>2021-07-04T10:00:11Z</time>
      </trkpt>
      <trkpt lat="47.40649" lon="-0.50897">
        <ele>26.8</ele>
        <time>2021-07-04T10:00:13Z</time>
      </trkpt>
      <trkpt lat="47.40637" lon="-0.50903">
        <ele>26.6</ele>
        <time>2021-07-04T10:00:15Z</time>
      </trkpt>
      <trkpt lat="47.40631" lon="-0.50905">
        <ele>26.2</ele>
        <time>2021-07-04T10:00:16Z</time>
      </trkpt>
      <trkpt lat="47.40625" lon="-0.50906">
        <ele>26</ele>
        <time>2021-07-04T10:00:17Z</time>
      </trkpt>
      <trkpt lat="47.40614" lon="-0.5091">
        <ele>25</ele>
        <time>2021-07-04T10:00:19Z</time>
      </trkpt>
      <trkpt lat="47.40604" lon="-0.50918">
        <ele>24.8</ele>
        <time>2021-07-04T10:00:21Z</time>
      </trkpt>
      <trkpt lat="47.40601" lon="-0.50925">
        <ele>24.8</ele>
        <time>2021-07-04T10:00:22Z</time>
      </trkpt>
      <trkpt lat="47.40601" lon="-0.50932">
        <ele>25</ele>
        <time>2021-07-04T10:00:23Z</time>
      </trkpt>
      <trkpt lat="47.406" lon="-0.50945">
        <ele>25.4</ele>
        <time>2021-07-04T10:00:25Z</time>
      </trkpt>
      <trkpt lat="47.406" lon="-0.50959">
        <ele>25.8</ele>
        <time>2021-07-04T10:00:27Z</time>
      </trkpt>
      <trkpt lat="47.40598" lon="-0.50974">
        <ele>26</ele>
        <time>2021-07-04T10:00:29Z</time>
      </trkpt>
      <trkpt lat="47.40599" lon="-0.50981">
        <ele>26.2</ele>
        <time>2021-07-04T10:00:30Z</time>
      </trkpt>
      <trkpt lat="47.40601" lon="-0.50984">
        <ele>26</ele>
        <time>2021-07-04T10:00:31Z</time>
      </trkpt>
      <trkpt lat="47.40607" lon="-0.50984">
        <ele>26.2</ele>
        <time>2021-07-04T10:00:32Z</time>
      </trkpt>
      <trkpt lat="47.40613" lon="-0.50983">
        <ele>26.4</ele>
        <time>2021-07-04T10:00:33Z</time>
      </trkpt>
      <trkpt lat="47.40624" lon="-0.50979">
        <ele>26.8</ele>
        <time>2021-07-04T10:00:35Z</time>
      </trkpt>
      <trkpt lat="47.40636" lon="-0.50975">
        <ele>26.6</ele>
        <time>2021-07-04T10:00:37Z</time>
      </trkpt>
      <trkpt lat="47.40648" lon="-0.50971">
        <ele>26.4</ele>
        <time>2021-07-04T10:00:39Z</time>
      </trkpt>
      <trkpt lat="47.40652" lon="-0.50969">
        <ele>26.4</ele>
        <time>2021-07-04T10:00:40Z</time>
      </trkpt>
      <trkpt lat="47.40658" lon="-0.50967">
        <ele>26.2</ele>
        <time>2021-07-04T10:00:41Z</time>
      </trkpt>
      <trkpt lat="47.40663" lon="-0.50964">
        <ele>26</ele>
        <time>2021-07-04T10:00:42Z</time>
      </trkpt>
      <trkpt lat="47.40669" lon="-0.50963">
        <ele>26</ele>
        <time>2021-07-04T10:00:43Z</time>
      </trkpt>
      <trkpt lat="47.4068" lon="-0.50959">
        <ele>26</ele>
        <time>2021-07-04T10:00:45Z</time>
      </trkpt>
      <trkpt lat="47.40693" lon="-0.50955">
        <ele>26</ele>
        <time>2021-07-04T10:00:47Z</time>
      </trkpt>
      <trkpt lat="47.40699" lon="-0.50953">
        <ele>26</ele>
        <time>2021-07-04T10:00:48Z</time>
      </trkpt>
      <trkpt lat="47.40706" lon="-0.50951">
        <ele>26</ele>
        <time>2021-07-04T10:00:49Z</time>
      </trkpt>
      <trkpt lat="47.4072" lon="-0.50947">
        <ele>25.4</ele>
        <time>2021-07-04T10:00:51Z</time>
      </trkpt>
      <trkpt lat="47.40733" lon="-0.50944">
        <ele>25.6</ele>
        <time>2021-07-04T10:00:53Z</time>
      </trkpt>
      <trkpt lat="47.4074" lon="-0.50942">
        <ele>25.8</ele>
        <time>2021-07-04T10:00:54Z</time>
      </trkpt>
      <trkpt lat="47.40747" lon="-0.50941">
        <ele>25.8</ele>
        <time>2021-07-04T10:00:55Z</time>
      </trkpt>
      <trkpt lat="47.4076" lon="-0.50938">
        <ele>26.2</ele>
        <time>2021-07-04T10:00:57Z</time>
      </trkpt>
      <trkpt lat="47.40772" lon="-0.50934">
        <ele>26.4</ele>
        <time>2021-07-04T10:00:59Z</time>
      </trkpt>
      <trkpt lat="47.40785" lon="-0.5093">
        <ele>26.6</ele>
        <time>2021-07-04T10:01:01Z</time>
      </trkpt>
      <trkpt lat="47.40791" lon="-0.50929">
        <ele>26.4</ele>
        <time>2021-07-04T10:01:02Z</time>
      </trkpt>
      <trkpt lat="47.40797" lon="-0.50928">
        <ele>26.2</ele>
        <time>2021-07-04T10:01:03Z</time>
      </trkpt>
      <trkpt lat="47.40803" lon="-0.50929">
        <ele>26.2</ele>
        <time>2021-07-04T10:01:04Z</time>
      </trkpt>
      <trkpt lat="47.40808" lon="-0.5093">
        <ele>26</ele>
        <time>2021-07-04T10:01:05Z</time>
      </trkpt>
      <trkpt lat="47.40813" lon="-0.50934">
        <ele>25.6</ele>
        <time>2021-07-04T10:01:06Z</time>
      </trkpt>
      <trkpt lat="47.40819" lon="-0.50938">
        <ele>25.2</ele>
        <time>2021-07-04T10:01:07Z</time>
      </trkpt>
      <trkpt lat="47.40826" lon="-0.50942">
        <ele>25</ele>
        <time>2021-07-04T10:01:08Z</time>
      </trkpt>
      <trkpt lat="47.40833" lon="-0.50946">
        <ele>25</ele>
        <time>2021-07-04T10:01:09Z</time>
      </trkpt>
      <trkpt lat="47.40846" lon="-0.50953">
        <ele>24.8</ele>
        <time>2021-07-04T10:01:11Z</time>
      </trkpt>
      <trkpt lat="47.40859" lon="-0.50959">
        <ele>24.8</ele>
        <time>2021-07-04T10:01:13Z</time>
      </trkpt>
      <trkpt lat="47.40871" lon="-0.50966">
        <ele>24.8</ele>
        <time>2021-07-04T10:01:15Z</time>
      </trkpt>
      <trkpt lat="47.40882" lon="-0.50974">
        <ele>25</ele>
        <time>2021-07-04T10:01:17Z</time>
      </trkpt>
      <trkpt lat="47.40886" lon="-0.50981">
        <ele>25</ele>
        <time>2021-07-04T10:01:18Z</time>
      </trkpt>
      <trkpt lat="47.4089" lon="-0.50987">
        <ele>25.2</ele>
        <time>2021-07-04T10:01:19Z</time>
      </trkpt>
      <trkpt lat="47.40894" lon="-0.50993">
        <ele>25.2</ele>
        <time>2021-07-04T10:01:20Z</time>
      </trkpt>
      <trkpt lat="47.40896" lon="-0.50998">
        <ele>25.2</ele>
        <time>2021-07-04T10:01:21Z</time>
      </trkpt>
      <trkpt lat="47.40897" lon="-0.51009">
        <ele>25.2</ele>
        <time>2021-07-04T10:01:23Z</time>
      </trkpt>
      <trkpt lat="47.40898" lon="-0.51021">
        <ele>24.6</ele>
        <time>2021-07-04T10:01:25Z</time>
      </trkpt>
      <trkpt lat="47.40897" lon="-0.51033">
        <ele>24.2</ele>
        <time>2021-07-04T10:01:27Z</time>
      </trkpt>
      <trkpt lat="47.40897" lon="-0.51048">
        <ele>24.8</ele>
        <time>2021-07-04T10:01:29Z</time>
      </trkpt>
      <trkpt lat="47.409" lon="-0.51063">
        <ele>25.6</ele>
        <time>2021-07-04T10:01:31Z</time>
      </trkpt>
      <trkpt lat="47.40902" lon="-0.51078">
        <ele>25.8</ele>
        <time>2021-07-04T10:01:33Z</time>
      </trkpt>
      <trkpt lat="47.40903" lon="-0.51085">
        <ele>25.6</ele>
        <time>2021-07-04T10:01:34Z</time>
      </trkpt>
      <trkpt lat="47.40903" lon="-0.51094">
        <ele>25.2</ele>
        <time>2021-07-04T10:01:35Z</time>
      </trkpt>
      <trkpt lat="47.40903" lon="-0.51111">
        <ele>25</ele>
        <time>2021-07-04T10:01:37Z</time>
      </trkpt>
      <trkpt lat="47.40901" lon="-0.51129">
        <ele>25.2</ele>
        <time>2021-07-04T10:01:39Z</time>
      </trkpt>
      <trkpt lat="47.40901" lon="-0.51148">
        <ele>24.6</ele>
        <time>2021-07-04T10:01:41Z</time>
      </trkpt>
      <trkpt lat="47.409" lon="-0.51166">
        <ele>24.8</ele>
        <time>2021-07-04T10:01:43Z</time>
      </trkpt>
      <trkpt lat="47.409" lon="-0.51183">
        <ele>24.6</ele>
        <time>2021-07-04T10:01:45Z</time>
      </trkpt>
      <trkpt lat="47.40901" lon="-0.51191">
        <ele>24.2</ele>
        <time>2021-07-04T10:01:46Z</time>
      </trkpt>
      <trkpt lat="47.40902" lon="-0.51199">
        <ele>24.2</ele>
        <time>2021-07-04T10:01:47Z</time>
      </trkpt>
      <trkpt lat="47.40906" lon="-0.51217">
        <ele>24</ele>
        <time>2021-07-04T10:01:49Z</time>
      </trkpt>
      <trkpt lat="47.40908" lon="-0.51227">
        <ele>24.2</ele>
        <time>2021-07-04T10:01:50Z</time>
      </trkpt>
      <trkpt lat="47.40911" lon="-0.51236">
        <ele>24.2</ele>
        <time>2021-07-04T10:01:51Z</time>
      </trkpt>
      <trkpt lat="47.40915" lon="-0.51253">
        <ele>24.2</ele>
        <time>2021-07-04T10:01:53Z</time>
      </trkpt>
      <trkpt lat="47.4092" lon="-0.51269">
        <ele>24</ele>
        <time>2021-07-04T10:01:55Z</time>
      </trkpt>
      <trkpt lat="47.40923" lon="-0.51274">
        <ele>24.2</ele>
        <time>2021-07-04T10:01:56Z</time>
      </trkpt>
      <trkpt lat="47.40925" lon="-0.51278">
        <ele>24.4</ele>
        <time>2021-07-04T10:01:57Z</time>
      </trkpt>
      <trkpt lat="47.40927" lon="-0.51279">
        <ele>24.4</ele>
        <time>2021-07-04T10:01:58Z</time>
      </trkpt>
      <trkpt lat="47.40929" lon="-0.5128">
        <ele>24.4</ele>
        <time>2021-07-04T10:01:59Z</time>
      </trkpt>
      <trkpt lat="47.40933" lon="-0.51278">
        <ele>24.6</ele>
        <time>2021-07-04T10:02:01Z</time>
      </trkpt>
      <trkpt lat="47.40935" lon="-0.51276">
        <ele>24.6</ele>
        <time>2021-07-04T10:02:02Z</time>
      </trkpt>
      <trkpt lat="47.40936" lon="-0.51278">
        <ele>24.6</ele>
        <time>2021-07-04T10:02:03Z</time>
      </trkpt>
      <trkpt lat="47.40938" lon="-0.51287">
        <ele>24.2</ele>
        <time>2021-07-04T10:02:05Z</time>
      </trkpt>
      <trkpt lat="47.4094" lon="-0.51291">
        <ele>24.2</ele>
        <time>2021-07-04T10:02:06Z</time>
      </trkpt>
      <trkpt lat="47.40942" lon="-0.51295">
        <ele>24</ele>
        <time>2021-07-04T10:02:07Z</time>
      </trkpt>
      <trkpt lat="47.40944" lon="-0.51306">
        <ele>24.2</ele>
        <time>2021-07-04T10:02:09Z</time>
      </trkpt>
      <trkpt lat="47.40951" lon="-0.51315">
        <ele>24.2</ele>
        <time>2021-07-04T10:02:11Z</time>
      </trkpt>
      <trkpt lat="47.40959" lon="-0.51319">
        <ele>24.4</ele>
        <time>2021-07-04T10:02:12Z</time>
      </trkpt>
      <trkpt lat="47.40965" lon="-0.51323">
        <ele>24.6</ele>
        <time>2021-07-04T10:02:13Z</time>
      </trkpt>
      <trkpt lat="47.40977" lon="-0.51329">
        <ele>24.8</ele>
        <time>2021-07-04T10:02:15Z</time>
      </trkpt>
      <trkpt lat="47.4099" lon="-0.51335">
        <ele>24.8</ele>
        <time>2021-07-04T10:02:17Z</time>
      </trkpt>
      <trkpt lat="47.41005" lon="-0.51344">
        <ele>24.6</ele>
        <time>2021-07-04T10:02:19Z</time>
      </trkpt>
      <trkpt lat="47.41019" lon="-0.51353">
        <ele>24.8</ele>
        <time>2021-07-04T10:02:21Z</time>
      </trkpt>
      <trkpt lat="47.41024" lon="-0.51359">
        <ele>25</ele>
        <time>2021-07-04T10:02:22Z</time>
      </trkpt>
      <trkpt lat="47.41029" lon="-0.51366">
        <ele>25.2</ele>
        <time>2021-07-04T10:02:23Z</time>
      </trkpt>
      <trkpt lat="47.41039" lon="-0.51378">
        <ele>25.2</ele>
        <time>2021-07-04T10:02:25Z</time>
      </trkpt>
      <trkpt lat="47.41045" lon="-0.51381">
        <ele>25.4</ele>
        <time>2021-07-04T10:02:26Z</time>
      </trkpt>
      <trkpt lat="47.41051" lon="-0.51385">
        <ele>25.2</ele>
        <time>2021-07-04T10:02:27Z</time>
      </trkpt>
      <trkpt lat="47.41058" lon="-0.51388">
        <ele>25.2</ele>
        <time>2021-07-04T10:02:28Z</time>
      </trkpt>
      <trkpt lat="47.41064" lon="-0.51394">
        <ele>25.2</ele>
        <time>2021-07-04T10:02:29Z</time>
      </trkpt>
      <trkpt lat="47.41073" lon="-0.51406">
        <ele>25.2</ele>
        <time>2021-07-04T10:02:31Z</time>
      </trkpt>
      <trkpt lat="47.41077" lon="-0.51417">
        <ele>24.8</ele>
        <time>2021-07-04T10:02:33Z</time>
      </trkpt>
      <trkpt lat="47.4108" lon="-0.51423">
        <ele>24.6</ele>
        <time>2021-07-04T10:02:34Z</time>
      </trkpt>
      <trkpt lat="47.41082" lon="-0.51428">
        <ele>24.6</ele>
        <time>2021-07-04T10:02:35Z</time>
      </trkpt>
      <trkpt lat="47.41086" lon="-0.51437">
        <ele>25</ele>
        <time>2021-07-04T10:02:37Z</time>
      </trkpt>
      <trkpt lat="47.41091" lon="-0.51445">
        <ele>25.6</ele>
        <time>2021-07-04T10:02:39Z</time>
      </trkpt>
      <trkpt lat="47.41094" lon="-0.51449">
        <ele>26</ele>
        <time>2021-07-04T10:02:40Z</time>
      </trkpt>
      <trkpt lat="47.41095" lon="-0.51452">
        <ele>26.6</ele>
        <time>2021-07-04T10:02:41Z</time>
      </trkpt>
      <trkpt lat="47.41097" lon="-0.51459">
        <ele>27.2</ele>
        <time>2021-07-04T10:02:43Z</time>
      </trkpt>
      <trkpt lat="47.41097" lon="-0.51463">
        <ele>27</ele>
        <time>2021-07-04T10:02:44Z</time>
      </trkpt>
      <trkpt lat="47.41095" lon="-0.5147">
        <ele>27.2</ele>
        <time>2021-07-04T10:02:45Z</time>
      </trkpt>
      <trkpt lat="47.41092" lon="-0.51484">
        <ele>27.4</ele>
        <time>2021-07-04T10:02:47Z</time>
      </trkpt>
      <trkpt lat="47.4109" lon="-0.51502">
        <ele>27.4</ele>
        <time>2021-07-04T10:02:49Z</time>
      </trkpt>
      <trkpt lat="47.41089" lon="-0.51511">
        <ele>27.4</ele>
        <time>2021-07-04T10:02:50Z</time>
      </trkpt>
      <trkpt lat="47.41088" lon="-0.51522">
        <ele>27.2</ele>
        <time>2021-07-04T10:02:51Z</time>
      </trkpt>
      <trkpt lat="47.41083" lon="-0.51546">
        <ele>27</ele>
        <time>2021-07-04T10:02:53Z</time>
      </trkpt>
      <trkpt lat="47.41077" lon="-0.51558">
        <ele>26.8</ele>
        <time>2021-07-04T10:02:54Z</time>
      </trkpt>
      <trkpt lat="47.41073" lon="-0.51568">
        <ele>26.6</ele>
        <time>2021-07-04T10:02:55Z</time>
      </trkpt>
      <trkpt lat="47.41068" lon="-0.51586">
        <ele>26.6</ele>
        <time>2021-07-04T10:02:57Z</time>
      </trkpt>
      <trkpt lat="47.41064" lon="-0.51604">
        <ele>26.6</ele>
        <time>2021-07-04T10:02:59Z</time>
      </trkpt>
      <trkpt lat="47.4106" lon="-0.51621">
        <ele>26.6</ele>
        <time>2021-07-04T10:03:01Z</time>
      </trkpt>
      <trkpt lat="47.41057" lon="-0.51639">
        <ele>26.4</ele>
        <time>2021-07-04T10:03:03Z</time>
      </trkpt>
      <trkpt lat="47.41054" lon="-0.51657">
        <ele>26.8</ele>
        <time>2021-07-04T10:03:05Z</time>
      </trkpt>
      <trkpt lat="47.41052" lon="-0.51674">
        <ele>26.8</ele>
        <time>2021-07-04T10:03:07Z</time>
      </trkpt>
      <trkpt lat="47.41051" lon="-0.51691">
        <ele>26.4</ele>
        <time>2021-07-04T10:03:09Z</time>
      </trkpt>
      <trkpt lat="47.4105" lon="-0.51699">
        <ele>26</ele>
        <time>2021-07-04T10:03:10Z</time>
      </trkpt>
      <trkpt lat="47.41049" lon="-0.51707">
        <ele>26</ele>
        <time>2021-07-04T10:03:11Z</time>
      </trkpt>
      <trkpt lat="47.41047" lon="-0.51724">
        <ele>26.6</ele>
        <time>2021-07-04T10:03:13Z</time>
      </trkpt>
      <trkpt lat="47.41045" lon="-0.51739">
        <ele>26.4</ele>
        <time>2021-07-04T10:03:15Z</time>
      </trkpt>
      <trkpt lat="47.41043" lon="-0.51755">
        <ele>26</ele>
        <time>2021-07-04T10:03:17Z</time>
      </trkpt>
      <trkpt lat="47.41041" lon="-0.5177">
        <ele>25.4</ele>
        <time>2021-07-04T10:03:19Z</time>
      </trkpt>
      <trkpt lat="47.41038" lon="-0.51785">
        <ele>25.4</ele>
        <time>2021-07-04T10:03:21Z</time>
      </trkpt>
      <trkpt lat="47.41037" lon="-0.518">
        <ele>25.6</ele>
        <time>2021-07-04T10:03:23Z</time>
      </trkpt>
      <trkpt lat="47.41036" lon="-0.51808">
        <ele>25.8</ele>
        <time>2021-07-04T10:03:24Z</time>
      </trkpt>
      <trkpt lat="47.41034" lon="-0.51815">
        <ele>25.8</ele>
        <time>2021-07-04T10:03:25Z</time>
      </trkpt>
      <trkpt lat="47.41033" lon="-0.51823">
        <ele>25.8</ele>
        <time>2021-07-04T10:03:26Z</time>
      </trkpt>
      <trkpt lat="47.41032" lon="-0.5183">
        <ele>25.8</ele>
        <time>2021-07-04T10:03:27Z</time>
      </trkpt>
      <trkpt lat="47.41031" lon="-0.51843">
        <ele>25.8</ele>
        <time>2021-07-04T10:03:29Z</time>
      </trkpt>
      <trkpt lat="47.41035" lon="-0.51852">
        <ele>26.2</ele>
        <time>2021-07-04T10:03:31Z</time>
      </trkpt>
      <trkpt lat="47.41041" lon="-0.51856">
        <ele>26.4</ele>
        <time>2021-07-04T10:03:33Z</time>
      </trkpt>
      <trkpt lat="47.41045" lon="-0.51856">
        <ele>26.6</ele>
        <time>2021-07-04T10:03:35Z</time>
      </trkpt>
      <trkpt lat="47.41049" lon="-0.51857">
        <ele>26.6</ele>
        <time>2021-07-04T10:03:37Z</time>
      </trkpt>
      <trkpt lat="47.41059" lon="-0.51854">
        <ele>26.2</ele>
        <time>2021-07-04T10:03:39Z</time>
      </trkpt>
      <trkpt lat="47.4107" lon="-0.5185">
        <ele>26.2</ele>
        <time>2021-07-04T10:03:41Z</time>
      </trkpt>
      <trkpt lat="47.41082" lon="-0.51847">
        <ele>26.4</ele>
        <time>2021-07-04T10:03:43Z</time>
      </trkpt>
      <trkpt lat="47.41087" lon="-0.51846">
        <ele>26.2</ele>
        <time>2021-07-04T10:03:44Z</time>
      </trkpt>
      <trkpt lat="47.41093" lon="-0.51843">
        <ele>26.4</ele>
        <time>2021-07-04T10:03:45Z</time>
      </trkpt>
      <trkpt lat="47.41103" lon="-0.51842">
        <ele>26.2</ele>
        <time>2021-07-04T10:03:47Z</time>
      </trkpt>
      <trkpt lat="47.41108" lon="-0.51841">
        <ele>26</ele>
        <time>2021-07-04T10:03:48Z</time>
      </trkpt>
      <trkpt lat="47.41114" lon="-0.51839">
        <ele>26.2</ele>
        <time>2021-07-04T10:03:49Z</time>
      </trkpt>
      <trkpt lat="47.4112" lon="-0.51839">
        <ele>26.4</ele>
        <time>2021-07-04T10:03:50Z</time>
      </trkpt>
      <trkpt lat="47.41127" lon="-0.51838">
        <ele>26.4</ele>
        <time>2021-07-04T10:03:51Z</time>
      </trkpt>
      <trkpt lat="47.41139" lon="-0.51836">
        <ele>26.2</ele>
        <time>2021-07-04T10:03:53Z</time>
      </trkpt>
      <trkpt lat="47.41145" lon="-0.51836">
        <ele>26</ele>
        <time>2021-07-04T10:03:54Z</time>
      </trkpt>
      <trkpt lat="47.41153" lon="-0.51836">
        <ele>26</ele>
        <time>2021-07-04T10:03:55Z</time>
      </trkpt>
      <trkpt lat="47.41167" lon="-0.51836">
        <ele>25.8</ele>
        <time>2021-07-04T10:03:57Z</time>
      </trkpt>
      <trkpt lat="47.41179" lon="-0.51837">
        <ele>26.2</ele>
        <time>2021-07-04T10:03:59Z</time>
      </trkpt>
      <trkpt lat="47.41188" lon="-0.51837">
        <ele>26.4</ele>
        <time>2021-07-04T10:04:01Z</time>
      </trkpt>
      <trkpt lat="47.41197" lon="-0.51838">
        <ele>26.6</ele>
        <time>2021-07-04T10:04:03Z</time>
      </trkpt>
      <trkpt lat="47.41205" lon="-0.5184">
        <ele>27</ele>
        <time>2021-07-04T10:04:05Z</time>
      </trkpt>
      <trkpt lat="47.41209" lon="-0.51843">
        <ele>27</ele>
        <time>2021-07-04T10:04:06Z</time>
      </trkpt>
      <trkpt lat="47.41213" lon="-0.51848">
        <ele>27.4</ele>
        <time>2021-07-04T10:04:07Z</time>
      </trkpt>
      <trkpt lat="47.41218" lon="-0.51855">
        <ele>27.4</ele>
        <time>2021-07-04T10:04:09Z</time>
      </trkpt>
      <trkpt lat="47.41221" lon="-0.51863">
        <ele>27</ele>
        <time>2021-07-04T10:04:11Z</time>
      </trkpt>
      <trkpt lat="47.41224" lon="-0.5187">
        <ele>27</ele>
        <time>2021-07-04T10:04:13Z</time>
      </trkpt>
      <trkpt lat="47.41225" lon="-0.51875">
        <ele>27</ele>
        <time>2021-07-04T10:04:14Z</time>
      </trkpt>
      <trkpt lat="47.41226" lon="-0.51879">
        <ele>27.2</ele>
        <time>2021-07-04T10:04:15Z</time>
      </trkpt>
      <trkpt lat="47.4123" lon="-0.51886">
        <ele>27.8</ele>
        <time>2021-07-04T10:04:17Z</time>
      </trkpt>
      <trkpt lat="47.41232" lon="-0.51889">
        <ele>27.8</ele>
        <time>2021-07-04T10:04:18Z</time>
      </trkpt>
      <trkpt lat="47.41235" lon="-0.51892">
        <ele>27.8</ele>
        <time>2021-07-04T10:04:19Z</time>
      </trkpt>
      <trkpt lat="47.41237" lon="-0.51893">
        <ele>28</ele>
        <time>2021-07-04T10:04:21Z</time>
      </trkpt>
      <trkpt lat="47.41238" lon="-0.51898">
        <ele>28</ele>
        <time>2021-07-04T10:04:35Z</time>
      </trkpt>
      <trkpt lat="47.41236" lon="-0.51898">
        <ele>27.8</ele>
        <time>2021-07-04T10:04:36Z</time>
      </trkpt>
      <trkpt lat="47.41235" lon="-0.51898">
        <ele>27.6</ele>
        <time>2021-07-04T10:04:37Z</time>
      </trkpt>
      <trkpt lat="47.41232" lon="-0.51895">
        <ele>27.8</ele>
        <time>2021-07-04T10:04:39Z</time>
      </trkpt>
      <trkpt lat="47.41232" lon="-0.51893">
        <ele>28</ele>
        <time>2021-07-04T10:04:40Z</time>
      </trkpt>
      <trkpt lat="47.41233" lon="-0.51891">
        <ele>28</ele>
        <time>2021-07-04T10:04:41Z</time>
      </trkpt>
      <trkpt lat="47.41235" lon="-0.51888">
        <ele>27.8</ele>
        <time>2021-07-04T10:04:43Z</time>
      </trkpt>
      <trkpt lat="47.41238" lon="-0.51884">
        <ele>28</ele>
        <time>2021-07-04T10:04:45Z</time>
      </trkpt>
      <trkpt lat="47.41241" lon="-0.51881">
        <ele>28.2</ele>
        <time>2021-07-04T10:04:47Z</time>
      </trkpt>
      <trkpt lat="47.41242" lon="-0.51876">
        <ele>28</ele>
        <time>2021-07-04T10:04:49Z</time>
      </trkpt>
      <trkpt lat="47.41241" lon="-0.51874">
        <ele>28</ele>
        <time>2021-07-04T10:04:50Z</time>
      </trkpt>
      <trkpt lat="47.41239" lon="-0.51874">
        <ele>28</ele>
        <time>2021-07-04T10:04:51Z</time>
      </trkpt>
      <trkpt lat="47.41233" lon="-0.51876">
        <ele>27.4</ele>
        <time>2021-07-04T10:04:53Z</time>
      </trkpt>
      <trkpt lat="47.41229" lon="-0.51877">
        <ele>27</ele>
        <time>2021-07-04T10:04:54Z</time>
      </trkpt>
      <trkpt lat="47.41225" lon="-0.51879">
        <ele>27</ele>
        <time>2021-07-04T10:04:55Z</time>
      </trkpt>
      <trkpt lat="47.41217" lon="-0.51881">
        <ele>27.2</ele>
        <time>2021-07-04T10:04:57Z</time>
      </trkpt>
      <trkpt lat="47.4121" lon="-0.51882">
        <ele>27.4</ele>
        <time>2021-07-04T10:04:59Z</time>
      </trkpt>
      <trkpt lat="47.41203" lon="-0.51881">
        <ele>27.2</ele>
        <time>2021-07-04T10:05:01Z</time>
      </trkpt>
      <trkpt lat="47.41195" lon="-0.5188">
        <ele>27.2</ele>
        <time>2021-07-04T10:05:03Z</time>
      </trkpt>
      <trkpt lat="47.41186" lon="-0.5188">
        <ele>26.8</ele>
        <time>2021-07-04T10:05:05Z</time>
      </trkpt>
      <trkpt lat="47.41174" lon="-0.51878">
        <ele>26.4</ele>
        <time>2021-07-04T10:05:07Z</time>
      </trkpt>
      <trkpt lat="47.41161" lon="-0.51875">
        <ele>26.4</ele>
        <time>2021-07-04T10:05:09Z</time>
      </trkpt>
      <trkpt lat="47.41149" lon="-0.51875">
        <ele>26.4</ele>
        <time>2021-07-04T10:05:11Z</time>
      </trkpt>
      <trkpt lat="47.41139" lon="-0.51875">
        <ele>26.4</ele>
        <time>2021-07-04T10:05:13Z</time>
      </trkpt>
      <trkpt lat="47.41127" lon="-0.51874">
        <ele>26.2</ele>
        <time>2021-07-04T10:05:15Z</time>
      </trkpt>
      <trkpt lat="47.41117" lon="-0.51874">
        <ele>26.2</ele>
        <time>2021-07-04T10:05:17Z</time>
      </trkpt>
      <trkpt lat="47.41111" lon="-0.51875">
        <ele>26</ele>
        <time>2021-07-04T10:05:18Z</time>
      </trkpt>
      <trkpt lat="47.41106" lon="-0.51877">
        <ele>26.4</ele>
        <time>2021-07-04T10:05:19Z</time>
      </trkpt>
      <trkpt lat="47.41096" lon="-0.51878">
        <ele>26</ele>
        <time>2021-07-04T10:05:21Z</time>
      </trkpt>
      <trkpt lat="47.41089" lon="-0.51878">
        <ele>25.6</ele>
        <time>2021-07-04T10:05:22Z</time>
      </trkpt>
      <trkpt lat="47.41084" lon="-0.51878">
        <ele>25.6</ele>
        <time>2021-07-04T10:05:23Z</time>
      </trkpt>
      <trkpt lat="47.4108" lon="-0.51878">
        <ele>25.6</ele>
        <time>2021-07-04T10:05:24Z</time>
      </trkpt>
      <trkpt lat="47.41074" lon="-0.51877">
        <ele>25.8</ele>
        <time>2021-07-04T10:05:25Z</time>
      </trkpt>
      <trkpt lat="47.41065" lon="-0.51877">
        <ele>26</ele>
        <time>2021-07-04T10:05:27Z</time>
      </trkpt>
      <trkpt lat="47.41057" lon="-0.51876">
        <ele>26.4</ele>
        <time>2021-07-04T10:05:29Z</time>
      </trkpt>
      <trkpt lat="47.41055" lon="-0.51877">
        <ele>26.8</ele>
        <time>2021-07-04T10:05:30Z</time>
      </trkpt>
      <trkpt lat="47.41052" lon="-0.51877">
        <ele>27.2</ele>
        <time>2021-07-04T10:05:31Z</time>
      </trkpt>
      <trkpt lat="47.41051" lon="-0.51877">
        <ele>27.6</ele>
        <time>2021-07-04T10:05:33Z</time>
      </trkpt>
      <trkpt lat="47.41054" lon="-0.51861">
        <ele>27.2</ele>
        <time>2021-07-04T10:06:07Z</time>
      </trkpt>
      <trkpt lat="47.41056" lon="-0.51857">
        <ele>27.2</ele>
        <time>2021-07-04T10:06:09Z</time>
      </trkpt>
      <trkpt lat="47.4106" lon="-0.51855">
        <ele>27</ele>
        <time>2021-07-04T10:06:11Z</time>
      </trkpt>
      <trkpt lat="47.41062" lon="-0.51853">
        <ele>26.6</ele>
        <time>2021-07-04T10:06:12Z</time>
      </trkpt>
      <trkpt lat="47.41064" lon="-0.51851">
        <ele>26.6</ele>
        <time>2021-07-04T10:06:13Z</time>
      </trkpt>
      <trkpt lat="47.41067" lon="-0.51848">
        <ele>27</ele>
        <time>2021-07-04T10:06:15Z</time>
      </trkpt>
      <trkpt lat="47.41069" lon="-0.51847">
        <ele>25.4</ele>
        <time>2021-07-04T10:06:16Z</time>
      </trkpt>
      <trkpt lat="47.41071" lon="-0.51846">
        <ele>26.8</ele>
        <time>2021-07-04T10:06:17Z</time>
      </trkpt>
      <trkpt lat="47.41079" lon="-0.51845">
        <ele>28.8</ele>
        <time>2021-07-04T10:06:19Z</time>
      </trkpt>
      <trkpt lat="47.41083" lon="-0.51844">
        <ele>27.8</ele>
        <time>2021-07-04T10:06:20Z</time>
      </trkpt>
      <trkpt lat="47.41086" lon="-0.51843">
        <ele>27.2</ele>
        <time>2021-07-04T10:06:21Z</time>
      </trkpt>
      <trkpt lat="47.41094" lon="-0.51842">
        <ele>26.8</ele>
        <time>2021-07-04T10:06:23Z</time>
      </trkpt>
      <trkpt lat="47.41097" lon="-0.51841">
        <ele>26.6</ele>
        <time>2021-07-04T10:06:24Z</time>
      </trkpt>
      <trkpt lat="47.41101" lon="-0.5184">
        <ele>26.8</ele>
        <time>2021-07-04T10:06:25Z</time>
      </trkpt>
      <trkpt lat="47.41108" lon="-0.51839">
        <ele>26.8</ele>
        <time>2021-07-04T10:06:27Z</time>
      </trkpt>
      <trkpt lat="47.41116" lon="-0.51837">
        <ele>26.8</ele>
        <time>2021-07-04T10:06:29Z</time>
      </trkpt>
      <trkpt lat="47.41126" lon="-0.51836">
        <ele>26.8</ele>
        <time>2021-07-04T10:06:31Z</time>
      </trkpt>
      <trkpt lat="47.41136" lon="-0.51836">
        <ele>26.6</ele>
        <time>2021-07-04T10:06:33Z</time>
      </trkpt>
      <trkpt lat="47.41141" lon="-0.51836">
        <ele>26.6</ele>
        <time>2021-07-04T10:06:34Z</time>
      </trkpt>
      <trkpt lat="47.41146" lon="-0.51835">
        <ele>26.6</ele>
        <time>2021-07-04T10:06:35Z</time>
      </trkpt>
      <trkpt lat="47.41152" lon="-0.51836">
        <ele>26.6</ele>
        <time>2021-07-04T10:06:36Z</time>
      </trkpt>
      <trkpt lat="47.41157" lon="-0.51835">
        <ele>26.6</ele>
        <time>2021-07-04T10:06:37Z</time>
      </trkpt>
      <trkpt lat="47.41163" lon="-0.51834">
        <ele>26.8</ele>
        <time>2021-07-04T10:06:38Z</time>
      </trkpt>
      <trkpt lat="47.41167" lon="-0.51834">
        <ele>26.8</ele>
        <time>2021-07-04T10:06:39Z</time>
      </trkpt>
      <trkpt lat="47.41175" lon="-0.51839">
        <ele>27.2</ele>
        <time>2021-07-04T10:06:41Z</time>
      </trkpt>
      <trkpt lat="47.41178" lon="-0.51847">
        <ele>27</ele>
        <time>2021-07-04T10:06:43Z</time>
      </trkpt>
      <trkpt lat="47.41179" lon="-0.51852">
        <ele>27</ele>
        <time>2021-07-04T10:06:44Z</time>
      </trkpt>
      <trkpt lat="47.4118" lon="-0.51856">
        <ele>26.8</ele>
        <time>2021-07-04T10:06:45Z</time>
      </trkpt>
      <trkpt lat="47.4118" lon="-0.51865">
        <ele>26.4</ele>
        <time>2021-07-04T10:06:47Z</time>
      </trkpt>
      <trkpt lat="47.41181" lon="-0.51874">
        <ele>26.4</ele>
        <time>2021-07-04T10:06:49Z</time>
      </trkpt>
      <trkpt lat="47.4118" lon="-0.51885">
        <ele>26.2</ele>
        <time>2021-07-04T10:06:51Z</time>
      </trkpt>
      <trkpt lat="47.41178" lon="-0.51898">
        <ele>25.8</ele>
        <time>2021-07-04T10:06:53Z</time>
      </trkpt>
      <trkpt lat="47.41177" lon="-0.51904">
        <ele>25.4</ele>
        <time>2021-07-04T10:06:54Z</time>
      </trkpt>
      <trkpt lat="47.41175" lon="-0.51912">
        <ele>25.4</ele>
        <time>2021-07-04T10:06:55Z</time>
      </trkpt>
      <trkpt lat="47.41173" lon="-0.51929">
        <ele>25.6</ele>
        <time>2021-07-04T10:06:57Z</time>
      </trkpt>
      <trkpt lat="47.4117" lon="-0.51943">
        <ele>26</ele>
        <time>2021-07-04T10:06:59Z</time>
      </trkpt>
      <trkpt lat="47.41167" lon="-0.51959">
        <ele>25.6</ele>
        <time>2021-07-04T10:07:01Z</time>
      </trkpt>
      <trkpt lat="47.41164" lon="-0.51973">
        <ele>25.6</ele>
        <time>2021-07-04T10:07:03Z</time>
      </trkpt>
      <trkpt lat="47.41161" lon="-0.51987">
        <ele>26</ele>
        <time>2021-07-04T10:07:05Z</time>
      </trkpt>
      <trkpt lat="47.41158" lon="-0.52002">
        <ele>26.6</ele>
        <time>2021-07-04T10:07:07Z</time>
      </trkpt>
      <trkpt lat="47.41155" lon="-0.52016">
        <ele>26.6</ele>
        <time>2021-07-04T10:07:09Z</time>
      </trkpt>
      <trkpt lat="47.41154" lon="-0.52029">
        <ele>26.2</ele>
        <time>2021-07-04T10:07:11Z</time>
      </trkpt>
      <trkpt lat="47.41152" lon="-0.52045">
        <ele>26.4</ele>
        <time>2021-07-04T10:07:13Z</time>
      </trkpt>
      <trkpt lat="47.41151" lon="-0.52059">
        <ele>26.4</ele>
        <time>2021-07-04T10:07:15Z</time>
      </trkpt>
      <trkpt lat="47.41149" lon="-0.52071">
        <ele>26</ele>
        <time>2021-07-04T10:07:17Z</time>
      </trkpt>
      <trkpt lat="47.4115" lon="-0.52082">
        <ele>26.2</ele>
        <time>2021-07-04T10:07:19Z</time>
      </trkpt>
      <trkpt lat="47.41151" lon="-0.52093">
        <ele>26.2</ele>
        <time>2021-07-04T10:07:21Z</time>
      </trkpt>
      <trkpt lat="47.41151" lon="-0.52098">
        <ele>26.2</ele>
        <time>2021-07-04T10:07:22Z</time>
      </trkpt>
      <trkpt lat="47.41152" lon="-0.52103">
        <ele>26.2</ele>
        <time>2021-07-04T10:07:23Z</time>
      </trkpt>
      <trkpt lat="47.41154" lon="-0.52109">
        <ele>26.2</ele>
        <time>2021-07-04T10:07:24Z</time>
      </trkpt>
      <trkpt lat="47.41154" lon="-0.52113">
        <ele>26.4</ele>
        <time>2021-07-04T10:07:25Z</time>
      </trkpt>
      <trkpt lat="47.41156" lon="-0.52117">
        <ele>26.6</ele>
        <time>2021-07-04T10:07:26Z</time>
      </trkpt>
      <trkpt lat="47.41158" lon="-0.5212">
        <ele>26.6</ele>
        <time>2021-07-04T10:07:27Z</time>
      </trkpt>
      <trkpt lat="47.41158" lon="-0.52127">
        <ele>26.6</ele>
        <time>2021-07-04T10:07:28Z</time>
      </trkpt>
      <trkpt lat="47.41158" lon="-0.52134">
        <ele>26.6</ele>
        <time>2021-07-04T10:07:29Z</time>
      </trkpt>
      <trkpt lat="47.41157" lon="-0.5214">
        <ele>26.8</ele>
        <time>2021-07-04T10:07:30Z</time>
      </trkpt>
      <trkpt lat="47.41157" lon="-0.52144">
        <ele>27</ele>
        <time>2021-07-04T10:07:31Z</time>
      </trkpt>
      <trkpt lat="47.41158" lon="-0.52151">
        <ele>27.4</ele>
        <time>2021-07-04T10:07:33Z</time>
      </trkpt>
      <trkpt lat="47.41158" lon="-0.52155">
        <ele>27.6</ele>
        <time>2021-07-04T10:07:34Z</time>
      </trkpt>
      <trkpt lat="47.41158" lon="-0.5216">
        <ele>27.8</ele>
        <time>2021-07-04T10:07:35Z</time>
      </trkpt>
      <trkpt lat="47.41157" lon="-0.52164">
        <ele>28</ele>
        <time>2021-07-04T10:07:36Z</time>
      </trkpt>
      <trkpt lat="47.41155" lon="-0.52168">
        <ele>27.8</ele>
        <time>2021-07-04T10:07:37Z</time>
      </trkpt>
      <trkpt lat="47.41153" lon="-0.52176">
        <ele>27.2</ele>
        <time>2021-07-04T10:07:39Z</time>
      </trkpt>
      <trkpt lat="47.41149" lon="-0.52187">
        <ele>26.8</ele>
        <time>2021-07-04T10:07:41Z</time>
      </trkpt>
      <trkpt lat="47.41144" lon="-0.52196">
        <ele>26.8</ele>
        <time>2021-07-04T10:07:43Z</time>
      </trkpt>
      <trkpt lat="47.41141" lon="-0.52202">
        <ele>27</ele>
        <time>2021-07-04T10:07:44Z</time>
      </trkpt>
      <trkpt lat="47.41136" lon="-0.52211">
        <ele>27</ele>
        <time>2021-07-04T10:07:45Z</time>
      </trkpt>
      <trkpt lat="47.41127" lon="-0.52229">
        <ele>27.4</ele>
        <time>2021-07-04T10:07:47Z</time>
      </trkpt>
      <trkpt lat="47.41123" lon="-0.52236">
        <ele>27.4</ele>
        <time>2021-07-04T10:07:48Z</time>
      </trkpt>
      <trkpt lat="47.4112" lon="-0.52242">
        <ele>27</ele>
        <time>2021-07-04T10:07:49Z</time>
      </trkpt>
      <trkpt lat="47.41117" lon="-0.52248">
        <ele>27</ele>
        <time>2021-07-04T10:07:50Z</time>
      </trkpt>
      <trkpt lat="47.41113" lon="-0.52255">
        <ele>26.8</ele>
        <time>2021-07-04T10:07:51Z</time>
      </trkpt>
      <trkpt lat="47.41109" lon="-0.52261">
        <ele>26.8</ele>
        <time>2021-07-04T10:07:52Z</time>
      </trkpt>
      <trkpt lat="47.41106" lon="-0.52268">
        <ele>27</ele>
        <time>2021-07-04T10:07:53Z</time>
      </trkpt>
      <trkpt lat="47.41101" lon="-0.52281">
        <ele>27</ele>
        <time>2021-07-04T10:07:55Z</time>
      </trkpt>
      <trkpt lat="47.41099" lon="-0.52285">
        <ele>27.2</ele>
        <time>2021-07-04T10:07:56Z</time>
      </trkpt>
      <trkpt lat="47.41097" lon="-0.5229">
        <ele>27.6</ele>
        <time>2021-07-04T10:07:57Z</time>
      </trkpt>
      <trkpt lat="47.41093" lon="-0.523">
        <ele>28</ele>
        <time>2021-07-04T10:07:59Z</time>
      </trkpt>
      <trkpt lat="47.41092" lon="-0.52303">
        <ele>28</ele>
        <time>2021-07-04T10:08:00Z</time>
      </trkpt>
      <trkpt lat="47.41091" lon="-0.52309">
        <ele>27.8</ele>
        <time>2021-07-04T10:08:01Z</time>
      </trkpt>
      <trkpt lat="47.41088" lon="-0.52321">
        <ele>27.6</ele>
        <time>2021-07-04T10:08:03Z</time>
      </trkpt>
      <trkpt lat="47.41084" lon="-0.52334">
        <ele>27.4</ele>
        <time>2021-07-04T10:08:05Z</time>
      </trkpt>
      <trkpt lat="47.41079" lon="-0.52347">
        <ele>26.8</ele>
        <time>2021-07-04T10:08:07Z</time>
      </trkpt>
      <trkpt lat="47.41076" lon="-0.52355">
        <ele>26.6</ele>
        <time>2021-07-04T10:08:08Z</time>
      </trkpt>
      <trkpt lat="47.41072" lon="-0.52362">
        <ele>26.6</ele>
        <time>2021-07-04T10:08:09Z</time>
      </trkpt>
      <trkpt lat="47.41068" lon="-0.52371">
        <ele>26.6</ele>
        <time>2021-07-04T10:08:10Z</time>
      </trkpt>
      <trkpt lat="47.41065" lon="-0.52377">
        <ele>26.4</ele>
        <time>2021-07-04T10:08:11Z</time>
      </trkpt>
      <trkpt lat="47.41054" lon="-0.52393">
        <ele>26.4</ele>
        <time>2021-07-04T10:08:13Z</time>
      </trkpt>
      <trkpt lat="47.41049" lon="-0.52406">
        <ele>26.6</ele>
        <time>2021-07-04T10:08:15Z</time>
      </trkpt>
      <trkpt lat="47.41047" lon="-0.52412">
        <ele>27</ele>
        <time>2021-07-04T10:08:16Z</time>
      </trkpt>
      <trkpt lat="47.41044" lon="-0.52417">
        <ele>27.6</ele>
        <time>2021-07-04T10:08:17Z</time>
      </trkpt>
      <trkpt lat="47.41043" lon="-0.52419">
        <ele>28</ele>
        <time>2021-07-04T10:08:18Z</time>
      </trkpt>
      <trkpt lat="47.41043" lon="-0.52418">
        <ele>28.2</ele>
        <time>2021-07-04T10:08:19Z</time>
      </trkpt>
      <trkpt lat="47.41044" lon="-0.52428">
        <ele>30</ele>
        <time>2021-07-04T10:08:30Z</time>
      </trkpt>
      <trkpt lat="47.4105" lon="-0.52426">
        <ele>29.8</ele>
        <time>2021-07-04T10:08:32Z</time>
      </trkpt>
      <trkpt lat="47.41057" lon="-0.52425">
        <ele>29.4</ele>
        <time>2021-07-04T10:08:34Z</time>
      </trkpt>
      <trkpt lat="47.41061" lon="-0.52424">
        <ele>29.2</ele>
        <time>2021-07-04T10:08:35Z</time>
      </trkpt>
      <trkpt lat="47.41066" lon="-0.52422">
        <ele>29</ele>
        <time>2021-07-04T10:08:36Z</time>
      </trkpt>
      <trkpt lat="47.41077" lon="-0.52418">
        <ele>28.8</ele>
        <time>2021-07-04T10:08:38Z</time>
      </trkpt>
      <trkpt lat="47.41088" lon="-0.52414">
        <ele>28.8</ele>
        <time>2021-07-04T10:08:40Z</time>
      </trkpt>
      <trkpt lat="47.41101" lon="-0.52409">
        <ele>29</ele>
        <time>2021-07-04T10:08:42Z</time>
      </trkpt>
      <trkpt lat="47.41115" lon="-0.52405">
        <ele>29</ele>
        <time>2021-07-04T10:08:44Z</time>
      </trkpt>
      <trkpt lat="47.41129" lon="-0.524">
        <ele>28.6</ele>
        <time>2021-07-04T10:08:46Z</time>
      </trkpt>
      <trkpt lat="47.41143" lon="-0.52396">
        <ele>28.6</ele>
        <time>2021-07-04T10:08:48Z</time>
      </trkpt>
      <trkpt lat="47.41151" lon="-0.52393">
        <ele>28.6</ele>
        <time>2021-07-04T10:08:49Z</time>
      </trkpt>
      <trkpt lat="47.41158" lon="-0.52391">
        <ele>28.8</ele>
        <time>2021-07-04T10:08:50Z</time>
      </trkpt>
      <trkpt lat="47.41173" lon="-0.52386">
        <ele>28.8</ele>
        <time>2021-07-04T10:08:52Z</time>
      </trkpt>
      <trkpt lat="47.41188" lon="-0.52381">
        <ele>28</ele>
        <time>2021-07-04T10:08:54Z</time>
      </trkpt>
      <trkpt lat="47.41203" lon="-0.52377">
        <ele>27.8</ele>
        <time>2021-07-04T10:08:56Z</time>
      </trkpt>
      <trkpt lat="47.41211" lon="-0.52375">
        <ele>27.8</ele>
        <time>2021-07-04T10:08:57Z</time>
      </trkpt>
      <trkpt lat="47.41218" lon="-0.52373">
        <ele>27.8</ele>
        <time>2021-07-04T10:08:58Z</time>
      </trkpt>
      <trkpt lat="47.41233" lon="-0.52369">
        <ele>27.4</ele>
        <time>2021-07-04T10:09:00Z</time>
      </trkpt>
      <trkpt lat="47.41249" lon="-0.52365">
        <ele>27.6</ele>
        <time>2021-07-04T10:09:02Z</time>
      </trkpt>
      <trkpt lat="47.41264" lon="-0.5236">
        <ele>28.2</ele>
        <time>2021-07-04T10:09:04Z</time>
      </trkpt>
      <trkpt lat="47.41279" lon="-0.52356">
        <ele>28</ele>
        <time>2021-07-04T10:09:06Z</time>
      </trkpt>
      <trkpt lat="47.41295" lon="-0.52351">
        <ele>28.2</ele>
        <time>2021-07-04T10:09:08Z</time>
      </trkpt>
      <trkpt lat="47.4131" lon="-0.52347">
        <ele>27.8</ele>
        <time>2021-07-04T10:09:10Z</time>
      </trkpt>
      <trkpt lat="47.41326" lon="-0.52342">
        <ele>28</ele>
        <time>2021-07-04T10:09:12Z</time>
      </trkpt>
      <trkpt lat="47.41333" lon="-0.52341">
        <ele>27.8</ele>
        <time>2021-07-04T10:09:13Z</time>
      </trkpt>
      <trkpt lat="47.4134" lon="-0.52339">
        <ele>27.8</ele>
        <time>2021-07-04T10:09:14Z</time>
      </trkpt>
      <trkpt lat="47.41356" lon="-0.52335">
        <ele>27.6</ele>
        <time>2021-07-04T10:09:16Z</time>
      </trkpt>
      <trkpt lat="47.41371" lon="-0.52331">
        <ele>27.4</ele>
        <time>2021-07-04T10:09:18Z</time>
      </trkpt>
      <trkpt lat="47.41387" lon="-0.52326">
        <ele>27.4</ele>
        <time>2021-07-04T10:09:20Z</time>
      </trkpt>
      <trkpt lat="47.41403" lon="-0.52323">
        <ele>27.2</ele>
        <time>2021-07-04T10:09:22Z</time>
      </trkpt>
      <trkpt lat="47.41411" lon="-0.52322">
        <ele>27</ele>
        <time>2021-07-04T10:09:23Z</time>
      </trkpt>
      <trkpt lat="47.41419" lon="-0.5232">
        <ele>27</ele>
        <time>2021-07-04T10:09:24Z</time>
      </trkpt>
      <trkpt lat="47.41434" lon="-0.52316">
        <ele>27.4</ele>
        <time>2021-07-04T10:09:26Z</time>
      </trkpt>
      <trkpt lat="47.41447" lon="-0.52312">
        <ele>28</ele>
        <time>2021-07-04T10:09:28Z</time>
      </trkpt>
      <trkpt lat="47.41453" lon="-0.52311">
        <ele>28.4</ele>
        <time>2021-07-04T10:09:29Z</time>
      </trkpt>
      <trkpt lat="47.41459" lon="-0.5231">
        <ele>29</ele>
        <time>2021-07-04T10:09:30Z</time>
      </trkpt>
      <trkpt lat="47.41463" lon="-0.52308">
        <ele>29.2</ele>
        <time>2021-07-04T10:09:31Z</time>
      </trkpt>
      <trkpt lat="47.41467" lon="-0.52306">
        <ele>29.6</ele>
        <time>2021-07-04T10:09:32Z</time>
      </trkpt>
      <trkpt lat="47.4147" lon="-0.52303">
        <ele>29.8</ele>
        <time>2021-07-04T10:09:34Z</time>
      </trkpt>
      <trkpt lat="47.41474" lon="-0.52303">
        <ele>30</ele>
        <time>2021-07-04T10:09:35Z</time>
      </trkpt>
      <trkpt lat="47.41477" lon="-0.52303">
        <ele>30</ele>
        <time>2021-07-04T10:09:36Z</time>
      </trkpt>
      <trkpt lat="47.41479" lon="-0.52304">
        <ele>29.8</ele>
        <time>2021-07-04T10:10:04Z</time>
      </trkpt>
      <trkpt lat="47.41482" lon="-0.52304">
        <ele>29.6</ele>
        <time>2021-07-04T10:10:05Z</time>
      </trkpt>
      <trkpt lat="47.41488" lon="-0.52305">
        <ele>29.4</ele>
        <time>2021-07-04T10:10:06Z</time>
      </trkpt>
      <trkpt lat="47.41499" lon="-0.52307">
        <ele>29</ele>
        <time>2021-07-04T10:10:08Z</time>
      </trkpt>
      <trkpt lat="47.41506" lon="-0.52307">
        <ele>28.8</ele>
        <time>2021-07-04T10:10:09Z</time>
      </trkpt>
      <trkpt lat="47.41512" lon="-0.52308">
        <ele>28.8</ele>
        <time>2021-07-04T10:10:10Z</time>
      </trkpt>
      <trkpt lat="47.41525" lon="-0.5231">
        <ele>29</ele>
        <time>2021-07-04T10:10:12Z</time>
      </trkpt>
      <trkpt lat="47.41538" lon="-0.52313">
        <ele>28.8</ele>
        <time>2021-07-04T10:10:14Z</time>
      </trkpt>
      <trkpt lat="47.41545" lon="-0.52314">
        <ele>29</ele>
        <time>2021-07-04T10:10:15Z</time>
      </trkpt>
      <trkpt lat="47.41552" lon="-0.52314">
        <ele>29</ele>
        <time>2021-07-04T10:10:16Z</time>
      </trkpt>
      <trkpt lat="47.41567" lon="-0.52315">
        <ele>29.2</ele>
        <time>2021-07-04T10:10:18Z</time>
      </trkpt>
      <trkpt lat="47.41581" lon="-0.52316">
        <ele>28.6</ele>
        <time>2021-07-04T10:10:20Z</time>
      </trkpt>
      <trkpt lat="47.41589" lon="-0.52317">
        <ele>28.4</ele>
        <time>2021-07-04T10:10:21Z</time>
      </trkpt>
      <trkpt lat="47.41596" lon="-0.52317">
        <ele>28.4</ele>
        <time>2021-07-04T10:10:22Z</time>
      </trkpt>
      <trkpt lat="47.41611" lon="-0.52318">
        <ele>28.4</ele>
        <time>2021-07-04T10:10:24Z</time>
      </trkpt>
      <trkpt lat="47.41626" lon="-0.52319">
        <ele>28.4</ele>
        <time>2021-07-04T10:10:26Z</time>
      </trkpt>
      <trkpt lat="47.41641" lon="-0.5232">
        <ele>28.6</ele>
        <time>2021-07-04T10:10:28Z</time>
      </trkpt>
      <trkpt lat="47.41648" lon="-0.52321">
        <ele>28.4</ele>
        <time>2021-07-04T10:10:29Z</time>
      </trkpt>
      <trkpt lat="47.41656" lon="-0.52321">
        <ele>28.4</ele>
        <time>2021-07-04T10:10:30Z</time>
      </trkpt>
      <trkpt lat="47.41671" lon="-0.52323">
        <ele>27.6</ele>
        <time>2021-07-04T10:10:32Z</time>
      </trkpt>
      <trkpt lat="47.41686" lon="-0.52324">
        <ele>27.8</ele>
        <time>2021-07-04T10:10:34Z</time>
      </trkpt>
      <trkpt lat="47.41701" lon="-0.52324">
        <ele>28.6</ele>
        <time>2021-07-04T10:10:36Z</time>
      </trkpt>
      <trkpt lat="47.41717" lon="-0.52326">
        <ele>28.6</ele>
        <time>2021-07-04T10:10:38Z</time>
      </trkpt>
      <trkpt lat="47.41732" lon="-0.52327">
        <ele>28.4</ele>
        <time>2021-07-04T10:10:40Z</time>
      </trkpt>
      <trkpt lat="47.41748" lon="-0.52328">
        <ele>28.6</ele>
        <time>2021-07-04T10:10:42Z</time>
      </trkpt>
      <trkpt lat="47.41763" lon="-0.52329">
        <ele>29</ele>
        <time>2021-07-04T10:10:44Z</time>
      </trkpt>
      <trkpt lat="47.41779" lon="-0.5233">
        <ele>29</ele>
        <time>2021-07-04T10:10:46Z</time>
      </trkpt>
      <trkpt lat="47.41794" lon="-0.5233">
        <ele>29.2</ele>
        <time>2021-07-04T10:10:48Z</time>
      </trkpt>
      <trkpt lat="47.41802" lon="-0.52331">
        <ele>29.4</ele>
        <time>2021-07-04T10:10:49Z</time>
      </trkpt>
      <trkpt lat="47.41809" lon="-0.52332">
        <ele>29.4</ele>
        <time>2021-07-04T10:10:50Z</time>
      </trkpt>
      <trkpt lat="47.41823" lon="-0.52332">
        <ele>29.8</ele>
        <time>2021-07-04T10:10:52Z</time>
      </trkpt>
      <trkpt lat="47.4183" lon="-0.5233">
        <ele>29.6</ele>
        <time>2021-07-04T10:10:53Z</time>
      </trkpt>
      <trkpt lat="47.41835" lon="-0.52326">
        <ele>29.8</ele>
        <time>2021-07-04T10:10:54Z</time>
      </trkpt>
      <trkpt lat="47.4184" lon="-0.5232">
        <ele>30</ele>
        <time>2021-07-04T10:10:55Z</time>
      </trkpt>
      <trkpt lat="47.41845" lon="-0.52316">
        <ele>30</ele>
        <time>2021-07-04T10:10:56Z</time>
      </trkpt>
      <trkpt lat="47.41856" lon="-0.52321">
        <ele>30.2</ele>
        <time>2021-07-04T10:10:58Z</time>
      </trkpt>
      <trkpt lat="47.41865" lon="-0.52334">
        <ele>30.2</ele>
        <time>2021-07-04T10:11:00Z</time>
      </trkpt>
      <trkpt lat="47.41871" lon="-0.52336">
        <ele>30.2</ele>
        <time>2021-07-04T10:11:01Z</time>
      </trkpt>
      <trkpt lat="47.41878" lon="-0.52337">
        <ele>30.4</ele>
        <time>2021-07-04T10:11:02Z</time>
      </trkpt>
      <trkpt lat="47.41892" lon="-0.52339">
        <ele>30</ele>
        <time>2021-07-04T10:11:04Z</time>
      </trkpt>
      <trkpt lat="47.41905" lon="-0.52341">
        <ele>30</ele>
        <time>2021-07-04T10:11:06Z</time>
      </trkpt>
      <trkpt lat="47.41919" lon="-0.52341">
        <ele>30.4</ele>
        <time>2021-07-04T10:11:08Z</time>
      </trkpt>
      <trkpt lat="47.41933" lon="-0.52342">
        <ele>30.6</ele>
        <time>2021-07-04T10:11:10Z</time>
      </trkpt>
      <trkpt lat="47.4194" lon="-0.52342">
        <ele>30.6</ele>
        <time>2021-07-04T10:11:11Z</time>
      </trkpt>
      <trkpt lat="47.41947" lon="-0.52342">
        <ele>30.8</ele>
        <time>2021-07-04T10:11:12Z</time>
      </trkpt>
      <trkpt lat="47.41961" lon="-0.52343">
        <ele>31</ele>
        <time>2021-07-04T10:11:14Z</time>
      </trkpt>
      <trkpt lat="47.41975" lon="-0.52344">
        <ele>31</ele>
        <time>2021-07-04T10:11:16Z</time>
      </trkpt>
      <trkpt lat="47.4199" lon="-0.52345">
        <ele>31.4</ele>
        <time>2021-07-04T10:11:18Z</time>
      </trkpt>
      <trkpt lat="47.41997" lon="-0.52346">
        <ele>31.4</ele>
        <time>2021-07-04T10:11:19Z</time>
      </trkpt>
      <trkpt lat="47.42004" lon="-0.52346">
        <ele>32</ele>
        <time>2021-07-04T10:11:20Z</time>
      </trkpt>
      <trkpt lat="47.42019" lon="-0.52347">
        <ele>32</ele>
        <time>2021-07-04T10:11:22Z</time>
      </trkpt>
      <trkpt lat="47.42034" lon="-0.52349">
        <ele>31.8</ele>
        <time>2021-07-04T10:11:24Z</time>
      </trkpt>
      <trkpt lat="47.42048" lon="-0.5235">
        <ele>32.4</ele>
        <time>2021-07-04T10:11:26Z</time>
      </trkpt>
      <trkpt lat="47.42063" lon="-0.52351">
        <ele>32.2</ele>
        <time>2021-07-04T10:11:28Z</time>
      </trkpt>
      <trkpt lat="47.42077" lon="-0.52352">
        <ele>32.4</ele>
        <time>2021-07-04T10:11:30Z</time>
      </trkpt>
      <trkpt lat="47.42092" lon="-0.52353">
        <ele>33.2</ele>
        <time>2021-07-04T10:11:32Z</time>
      </trkpt>
      <trkpt lat="47.42106" lon="-0.52354">
        <ele>33.4</ele>
        <time>2021-07-04T10:11:34Z</time>
      </trkpt>
      <trkpt lat="47.4212" lon="-0.52355">
        <ele>33.4</ele>
        <time>2021-07-04T10:11:36Z</time>
      </trkpt>
      <trkpt lat="47.42134" lon="-0.52357">
        <ele>33.4</ele>
        <time>2021-07-04T10:11:38Z</time>
      </trkpt>
      <trkpt lat="47.42149" lon="-0.52358">
        <ele>34</ele>
        <time>2021-07-04T10:11:40Z</time>
      </trkpt>
      <trkpt lat="47.42164" lon="-0.52359">
        <ele>33.6</ele>
        <time>2021-07-04T10:11:42Z</time>
      </trkpt>
      <trkpt lat="47.42179" lon="-0.52359">
        <ele>33.6</ele>
        <time>2021-07-04T10:11:44Z</time>
      </trkpt>
      <trkpt lat="47.42194" lon="-0.52361">
        <ele>33</ele>
        <time>2021-07-04T10:11:46Z</time>
      </trkpt>
      <trkpt lat="47.4221" lon="-0.52362">
        <ele>32.4</ele>
        <time>2021-07-04T10:11:48Z</time>
      </trkpt>
      <trkpt lat="47.42218" lon="-0.52363">
        <ele>32</ele>
        <time>2021-07-04T10:11:49Z</time>
      </trkpt>
      <trkpt lat="47.42225" lon="-0.52363">
        <ele>32</ele>
        <time>2021-07-04T10:11:50Z</time>
      </trkpt>
      <trkpt lat="47.42241" lon="-0.52365">
        <ele>32.2</ele>
        <time>2021-07-04T10:11:52Z</time>
      </trkpt>
      <trkpt lat="47.42257" lon="-0.52366">
        <ele>30.6</ele>
        <time>2021-07-04T10:11:54Z</time>
      </trkpt>
      <trkpt lat="47.42265" lon="-0.52366">
        <ele>29.4</ele>
        <time>2021-07-04T10:11:55Z</time>
      </trkpt>
      <trkpt lat="47.42272" lon="-0.52367">
        <ele>29</ele>
        <time>2021-07-04T10:11:56Z</time>
      </trkpt>
      <trkpt lat="47.42287" lon="-0.52372">
        <ele>30.2</ele>
        <time>2021-07-04T10:11:58Z</time>
      </trkpt>
      <trkpt lat="47.42295" lon="-0.52375">
        <ele>30.6</ele>
        <time>2021-07-04T10:11:59Z</time>
      </trkpt>
      <trkpt lat="47.42302" lon="-0.5238">
        <ele>30</ele>
        <time>2021-07-04T10:12:00Z</time>
      </trkpt>
      <trkpt lat="47.42308" lon="-0.52386">
        <ele>29.2</ele>
        <time>2021-07-04T10:12:01Z</time>
      </trkpt>
      <trkpt lat="47.42315" lon="-0.52391">
        <ele>28.2</ele>
        <time>2021-07-04T10:12:02Z</time>
      </trkpt>
      <trkpt lat="47.42329" lon="-0.524">
        <ele>29.2</ele>
        <time>2021-07-04T10:12:04Z</time>
      </trkpt>
      <trkpt lat="47.42343" lon="-0.5241">
        <ele>29.6</ele>
        <time>2021-07-04T10:12:06Z</time>
      </trkpt>
      <trkpt lat="47.42358" lon="-0.5242">
        <ele>29.8</ele>
        <time>2021-07-04T10:12:08Z</time>
      </trkpt>
      <trkpt lat="47.42372" lon="-0.52431">
        <ele>29.6</ele>
        <time>2021-07-04T10:12:10Z</time>
      </trkpt>
      <trkpt lat="47.42386" lon="-0.52442">
        <ele>28.2</ele>
        <time>2021-07-04T10:12:12Z</time>
      </trkpt>
      <trkpt lat="47.42401" lon="-0.52452">
        <ele>28.8</ele>
        <time>2021-07-04T10:12:14Z</time>
      </trkpt>
      <trkpt lat="47.42409" lon="-0.52458">
        <ele>28.4</ele>
        <time>2021-07-04T10:12:15Z</time>
      </trkpt>
      <trkpt lat="47.42416" lon="-0.52464">
        <ele>27.6</ele>
        <time>2021-07-04T10:12:16Z</time>
      </trkpt>
      <trkpt lat="47.4243" lon="-0.52474">
        <ele>26.6</ele>
        <time>2021-07-04T10:12:18Z</time>
      </trkpt>
      <trkpt lat="47.42444" lon="-0.52485">
        <ele>27.4</ele>
        <time>2021-07-04T10:12:20Z</time>
      </trkpt>
      <trkpt lat="47.42451" lon="-0.52491">
        <ele>27.8</ele>
        <time>2021-07-04T10:12:21Z</time>
      </trkpt>
      <trkpt lat="47.42458" lon="-0.52495">
        <ele>27.4</ele>
        <time>2021-07-04T10:12:22Z</time>
      </trkpt>
      <trkpt lat="47.42465" lon="-0.525">
        <ele>27.2</ele>
        <time>2021-07-04T10:12:23Z</time>
      </trkpt>
      <trkpt lat="47.42473" lon="-0.52504">
        <ele>26.6</ele>
        <time>2021-07-04T10:12:24Z</time>
      </trkpt>
      <trkpt lat="47.42481" lon="-0.52505">
        <ele>26.8</ele>
        <time>2021-07-04T10:12:25Z</time>
      </trkpt>
      <trkpt lat="47.42488" lon="-0.52509">
        <ele>27</ele>
        <time>2021-07-04T10:12:26Z</time>
      </trkpt>
      <trkpt lat="47.42495" lon="-0.52513">
        <ele>27.4</ele>
        <time>2021-07-04T10:12:27Z</time>
      </trkpt>
      <trkpt lat="47.42502" lon="-0.52519">
        <ele>27.8</ele>
        <time>2021-07-04T10:12:28Z</time>
      </trkpt>
      <trkpt lat="47.42509" lon="-0.52524">
        <ele>28</ele>
        <time>2021-07-04T10:12:29Z</time>
      </trkpt>
      <trkpt lat="47.42516" lon="-0.52529">
        <ele>28.4</ele>
        <time>2021-07-04T10:12:30Z</time>
      </trkpt>
      <trkpt lat="47.42529" lon="-0.52539">
        <ele>28.8</ele>
        <time>2021-07-04T10:12:32Z</time>
      </trkpt>
      <trkpt lat="47.42543" lon="-0.52549">
        <ele>29</ele>
        <time>2021-07-04T10:12:34Z</time>
      </trkpt>
      <trkpt lat="47.42557" lon="-0.52557">
        <ele>28.8</ele>
        <time>2021-07-04T10:12:36Z</time>
      </trkpt>
      <trkpt lat="47.42571" lon="-0.52568">
        <ele>29.4</ele>
        <time>2021-07-04T10:12:38Z</time>
      </trkpt>
      <trkpt lat="47.42577" lon="-0.52573">
        <ele>29.8</ele>
        <time>2021-07-04T10:12:39Z</time>
      </trkpt>
      <trkpt lat="47.42584" lon="-0.52577">
        <ele>29.8</ele>
        <time>2021-07-04T10:12:40Z</time>
      </trkpt>
      <trkpt lat="47.42597" lon="-0.52587">
        <ele>30</ele>
        <time>2021-07-04T10:12:42Z</time>
      </trkpt>
      <trkpt lat="47.4261" lon="-0.52596">
        <ele>30.4</ele>
        <time>2021-07-04T10:12:44Z</time>
      </trkpt>
      <trkpt lat="47.42616" lon="-0.52601">
        <ele>31</ele>
        <time>2021-07-04T10:12:45Z</time>
      </trkpt>
      <trkpt lat="47.42623" lon="-0.52607">
        <ele>31.6</ele>
        <time>2021-07-04T10:12:46Z</time>
      </trkpt>
      <trkpt lat="47.42635" lon="-0.52618">
        <ele>31.8</ele>
        <time>2021-07-04T10:12:48Z</time>
      </trkpt>
      <trkpt lat="47.42648" lon="-0.52628">
        <ele>31.8</ele>
        <time>2021-07-04T10:12:50Z</time>
      </trkpt>
      <trkpt lat="47.42661" lon="-0.52636">
        <ele>31.8</ele>
        <time>2021-07-04T10:12:52Z</time>
      </trkpt>
      <trkpt lat="47.42672" lon="-0.52645">
        <ele>31.6</ele>
        <time>2021-07-04T10:12:54Z</time>
      </trkpt>
      <trkpt lat="47.42678" lon="-0.5265">
        <ele>32</ele>
        <time>2021-07-04T10:12:55Z</time>
      </trkpt>
      <trkpt lat="47.42684" lon="-0.52654">
        <ele>32.2</ele>
        <time>2021-07-04T10:12:56Z</time>
      </trkpt>
      <trkpt lat="47.42696" lon="-0.52662">
        <ele>32.8</ele>
        <time>2021-07-04T10:12:58Z</time>
      </trkpt>
      <trkpt lat="47.42709" lon="-0.52671">
        <ele>32.6</ele>
        <time>2021-07-04T10:13:00Z</time>
      </trkpt>
      <trkpt lat="47.42722" lon="-0.5268">
        <ele>31.6</ele>
        <time>2021-07-04T10:13:02Z</time>
      </trkpt>
      <trkpt lat="47.42729" lon="-0.52685">
        <ele>31.4</ele>
        <time>2021-07-04T10:13:03Z</time>
      </trkpt>
      <trkpt lat="47.42735" lon="-0.5269">
        <ele>31.2</ele>
        <time>2021-07-04T10:13:04Z</time>
      </trkpt>
      <trkpt lat="47.42742" lon="-0.52695">
        <ele>30.8</ele>
        <time>2021-07-04T10:13:05Z</time>
      </trkpt>
      <trkpt lat="47.42749" lon="-0.527">
        <ele>29.8</ele>
        <time>2021-07-04T10:13:06Z</time>
      </trkpt>
      <trkpt lat="47.42755" lon="-0.52705">
        <ele>29.2</ele>
        <time>2021-07-04T10:13:07Z</time>
      </trkpt>
      <trkpt lat="47.42762" lon="-0.52709">
        <ele>28.8</ele>
        <time>2021-07-04T10:13:08Z</time>
      </trkpt>
      <trkpt lat="47.42776" lon="-0.52719">
        <ele>29.8</ele>
        <time>2021-07-04T10:13:10Z</time>
      </trkpt>
      <trkpt lat="47.42783" lon="-0.52723">
        <ele>30.4</ele>
        <time>2021-07-04T10:13:11Z</time>
      </trkpt>
      <trkpt lat="47.42791" lon="-0.52728">
        <ele>30.2</ele>
        <time>2021-07-04T10:13:12Z</time>
      </trkpt>
      <trkpt lat="47.42806" lon="-0.52738">
        <ele>28.6</ele>
        <time>2021-07-04T10:13:14Z</time>
      </trkpt>
      <trkpt lat="47.42823" lon="-0.52746">
        <ele>28</ele>
        <time>2021-07-04T10:13:16Z</time>
      </trkpt>
      <trkpt lat="47.42839" lon="-0.52754">
        <ele>27.2</ele>
        <time>2021-07-04T10:13:18Z</time>
      </trkpt>
      <trkpt lat="47.42855" lon="-0.52762">
        <ele>26.6</ele>
        <time>2021-07-04T10:13:20Z</time>
      </trkpt>
      <trkpt lat="47.42869" lon="-0.52768">
        <ele>26.4</ele>
        <time>2021-07-04T10:13:22Z</time>
      </trkpt>
      <trkpt lat="47.42874" lon="-0.52769">
        <ele>27</ele>
        <time>2021-07-04T10:13:23Z</time>
      </trkpt>
      <trkpt lat="47.42878" lon="-0.52769">
        <ele>28</ele>
        <time>2021-07-04T10:13:24Z</time>
      </trkpt>
      <trkpt lat="47.4288" lon="-0.5277">
        <ele>28.8</ele>
        <time>2021-07-04T10:13:25Z</time>
      </trkpt>
      <trkpt lat="47.42883" lon="-0.52771">
        <ele>29.2</ele>
        <time>2021-07-04T10:13:26Z</time>
      </trkpt>
      <trkpt lat="47.4289" lon="-0.52776">
        <ele>29.2</ele>
        <time>2021-07-04T10:13:28Z</time>
      </trkpt>
      <trkpt lat="47.42895" lon="-0.52778">
        <ele>29.2</ele>
        <time>2021-07-04T10:13:29Z</time>
      </trkpt>
      <trkpt lat="47.429" lon="-0.52781">
        <ele>29</ele>
        <time>2021-07-04T10:13:30Z</time>
      </trkpt>
      <trkpt lat="47.42912" lon="-0.52787">
        <ele>28.8</ele>
        <time>2021-07-04T10:13:32Z</time>
      </trkpt>
      <trkpt lat="47.42918" lon="-0.52789">
        <ele>28.6</ele>
        <time>2021-07-04T10:13:33Z</time>
      </trkpt>
      <trkpt lat="47.42924" lon="-0.52791">
        <ele>28.2</ele>
        <time>2021-07-04T10:13:34Z</time>
      </trkpt>
      <trkpt lat="47.42931" lon="-0.52792">
        <ele>28</ele>
        <time>2021-07-04T10:13:35Z</time>
      </trkpt>
      <trkpt lat="47.42939" lon="-0.52792">
        <ele>27.6</ele>
        <time>2021-07-04T10:13:36Z</time>
      </trkpt>
      <trkpt lat="47.42955" lon="-0.52792">
        <ele>27.2</ele>
        <time>2021-07-04T10:13:38Z</time>
      </trkpt>
      <trkpt lat="47.42963" lon="-0.52792">
        <ele>26.8</ele>
        <time>2021-07-04T10:13:39Z</time>
      </trkpt>
      <trkpt lat="47.42972" lon="-0.52791">
        <ele>27.2</ele>
        <time>2021-07-04T10:13:40Z</time>
      </trkpt>
      <trkpt lat="47.42988" lon="-0.52793">
        <ele>28.2</ele>
        <time>2021-07-04T10:13:42Z</time>
      </trkpt>
      <trkpt lat="47.43004" lon="-0.52799">
        <ele>27.6</ele>
        <time>2021-07-04T10:13:44Z</time>
      </trkpt>
      <trkpt lat="47.43011" lon="-0.52802">
        <ele>27.2</ele>
        <time>2021-07-04T10:13:45Z</time>
      </trkpt>
      <trkpt lat="47.43019" lon="-0.52804">
        <ele>27.2</ele>
        <time>2021-07-04T10:13:46Z</time>
      </trkpt>
      <trkpt lat="47.43032" lon="-0.52809">
        <ele>28.2</ele>
        <time>2021-07-04T10:13:48Z</time>
      </trkpt>
      <trkpt lat="47.43045" lon="-0.52812">
        <ele>28.8</ele>
        <time>2021-07-04T10:13:50Z</time>
      </trkpt>
      <trkpt lat="47.43052" lon="-0.52813">
        <ele>29</ele>
        <time>2021-07-04T10:13:51Z</time>
      </trkpt>
      <trkpt lat="47.43058" lon="-0.52815">
        <ele>28.8</ele>
        <time>2021-07-04T10:13:52Z</time>
      </trkpt>
      <trkpt lat="47.43068" lon="-0.52818">
        <ele>29.2</ele>
        <time>2021-07-04T10:13:54Z</time>
      </trkpt>
      <trkpt lat="47.43072" lon="-0.5282">
        <ele>30.2</ele>
        <time>2021-07-04T10:13:55Z</time>
      </trkpt>
      <trkpt lat="47.43076" lon="-0.52821">
        <ele>30.6</ele>
        <time>2021-07-04T10:13:56Z</time>
      </trkpt>
      <trkpt lat="47.43082" lon="-0.52823">
        <ele>30.8</ele>
        <time>2021-07-04T10:13:58Z</time>
      </trkpt>
      <trkpt lat="47.43085" lon="-0.52826">
        <ele>30.8</ele>
        <time>2021-07-04T10:14:00Z</time>
      </trkpt>
      <trkpt lat="47.43086" lon="-0.52831">
        <ele>30.6</ele>
        <time>2021-07-04T10:14:20Z</time>
      </trkpt>
      <trkpt lat="47.43086" lon="-0.52835">
        <ele>30.4</ele>
        <time>2021-07-04T10:14:21Z</time>
      </trkpt>
      <trkpt lat="47.43084" lon="-0.52839">
        <ele>30.2</ele>
        <time>2021-07-04T10:14:22Z</time>
      </trkpt>
      <trkpt lat="47.43083" lon="-0.52844">
        <ele>30.2</ele>
        <time>2021-07-04T10:14:23Z</time>
      </trkpt>
      <trkpt lat="47.4308" lon="-0.52855">
        <ele>30.2</ele>
        <time>2021-07-04T10:14:25Z</time>
      </trkpt>
      <trkpt lat="47.43078" lon="-0.52866">
        <ele>30</ele>
        <time>2021-07-04T10:14:27Z</time>
      </trkpt>
      <trkpt lat="47.43076" lon="-0.52877">
        <ele>30</ele>
        <time>2021-07-04T10:14:29Z</time>
      </trkpt>
      <trkpt lat="47.43076" lon="-0.52889">
        <ele>29.8</ele>
        <time>2021-07-04T10:14:31Z</time>
      </trkpt>
      <trkpt lat="47.43075" lon="-0.52895">
        <ele>29.6</ele>
        <time>2021-07-04T10:14:32Z</time>
      </trkpt>
      <trkpt lat="47.43075" lon="-0.52901">
        <ele>29.6</ele>
        <time>2021-07-04T10:14:33Z</time>
      </trkpt>
      <trkpt lat="47.43075" lon="-0.52915">
        <ele>29.6</ele>
        <time>2021-07-04T10:14:35Z</time>
      </trkpt>
      <trkpt lat="47.43074" lon="-0.52928">
        <ele>29.4</ele>
        <time>2021-07-04T10:14:37Z</time>
      </trkpt>
      <trkpt lat="47.43073" lon="-0.52935">
        <ele>29.2</ele>
        <time>2021-07-04T10:14:38Z</time>
      </trkpt>
      <trkpt lat="47.43072" lon="-0.52941">
        <ele>29.2</ele>
        <time>2021-07-04T10:14:39Z</time>
      </trkpt>
      <trkpt lat="47.43072" lon="-0.52953">
        <ele>29.4</ele>
        <time>2021-07-04T10:14:41Z</time>
      </trkpt>
      <trkpt lat="47.43071" lon="-0.52964">
        <ele>29.8</ele>
        <time>2021-07-04T10:14:43Z</time>
      </trkpt>
      <trkpt lat="47.4307" lon="-0.52974">
        <ele>29.4</ele>
        <time>2021-07-04T10:14:45Z</time>
      </trkpt>
      <trkpt lat="47.4307" lon="-0.52978">
        <ele>29.6</ele>
        <time>2021-07-04T10:14:46Z</time>
      </trkpt>
      <trkpt lat="47.43069" lon="-0.52984">
        <ele>29.6</ele>
        <time>2021-07-04T10:14:47Z</time>
      </trkpt>
      <trkpt lat="47.43069" lon="-0.52995">
        <ele>29.6</ele>
        <time>2021-07-04T10:14:49Z</time>
      </trkpt>
      <trkpt lat="47.43068" lon="-0.53012">
        <ele>29</ele>
        <time>2021-07-04T10:14:51Z</time>
      </trkpt>
      <trkpt lat="47.43069" lon="-0.53031">
        <ele>28.2</ele>
        <time>2021-07-04T10:14:53Z</time>
      </trkpt>
      <trkpt lat="47.43068" lon="-0.53041">
        <ele>27.6</ele>
        <time>2021-07-04T10:14:54Z</time>
      </trkpt>
      <trkpt lat="47.43067" lon="-0.5305">
        <ele>27.6</ele>
        <time>2021-07-04T10:14:55Z</time>
      </trkpt>
      <trkpt lat="47.43065" lon="-0.53059">
        <ele>27.6</ele>
        <time>2021-07-04T10:14:56Z</time>
      </trkpt>
      <trkpt lat="47.43062" lon="-0.53067">
        <ele>27.6</ele>
        <time>2021-07-04T10:14:57Z</time>
      </trkpt>
      <trkpt lat="47.43058" lon="-0.53085">
        <ele>27.6</ele>
        <time>2021-07-04T10:14:59Z</time>
      </trkpt>
      <trkpt lat="47.43053" lon="-0.53102">
        <ele>27.8</ele>
        <time>2021-07-04T10:15:01Z</time>
      </trkpt>
      <trkpt lat="47.43049" lon="-0.53119">
        <ele>27.6</ele>
        <time>2021-07-04T10:15:03Z</time>
      </trkpt>
      <trkpt lat="47.43044" lon="-0.53135">
        <ele>27</ele>
        <time>2021-07-04T10:15:05Z</time>
      </trkpt>
      <trkpt lat="47.43038" lon="-0.53152">
        <ele>27</ele>
        <time>2021-07-04T10:15:07Z</time>
      </trkpt>
      <trkpt lat="47.43034" lon="-0.53169">
        <ele>27.6</ele>
        <time>2021-07-04T10:15:09Z</time>
      </trkpt>
      <trkpt lat="47.43028" lon="-0.53189">
        <ele>27.4</ele>
        <time>2021-07-04T10:15:11Z</time>
      </trkpt>
      <trkpt lat="47.43026" lon="-0.53198">
        <ele>27.2</ele>
        <time>2021-07-04T10:15:12Z</time>
      </trkpt>
      <trkpt lat="47.43022" lon="-0.53208">
        <ele>27.2</ele>
        <time>2021-07-04T10:15:13Z</time>
      </trkpt>
      <trkpt lat="47.43016" lon="-0.53227">
        <ele>26.4</ele>
        <time>2021-07-04T10:15:15Z</time>
      </trkpt>
      <trkpt lat="47.4301" lon="-0.53247">
        <ele>26.6</ele>
        <time>2021-07-04T10:15:17Z</time>
      </trkpt>
      <trkpt lat="47.43005" lon="-0.53267">
        <ele>26.6</ele>
        <time>2021-07-04T10:15:19Z</time>
      </trkpt>
      <trkpt lat="47.43002" lon="-0.53276">
        <ele>26.6</ele>
        <time>2021-07-04T10:15:20Z</time>
      </trkpt>
      <trkpt lat="47.43" lon="-0.53286">
        <ele>26.8</ele>
        <time>2021-07-04T10:15:21Z</time>
      </trkpt>
      <trkpt lat="47.42994" lon="-0.53305">
        <ele>26.8</ele>
        <time>2021-07-04T10:15:23Z</time>
      </trkpt>
      <trkpt lat="47.42988" lon="-0.53324">
        <ele>26</ele>
        <time>2021-07-04T10:15:25Z</time>
      </trkpt>
      <trkpt lat="47.42982" lon="-0.53343">
        <ele>25.8</ele>
        <time>2021-07-04T10:15:27Z</time>
      </trkpt>
      <trkpt lat="47.4298" lon="-0.53353">
        <ele>26.2</ele>
        <time>2021-07-04T10:15:28Z</time>
      </trkpt>
      <trkpt lat="47.42977" lon="-0.53363">
        <ele>26.4</ele>
        <time>2021-07-04T10:15:29Z</time>
      </trkpt>
      <trkpt lat="47.42972" lon="-0.53382">
        <ele>26.6</ele>
        <time>2021-07-04T10:15:31Z</time>
      </trkpt>
      <trkpt lat="47.42967" lon="-0.53401">
        <ele>26</ele>
        <time>2021-07-04T10:15:33Z</time>
      </trkpt>
      <trkpt lat="47.42961" lon="-0.53421">
        <ele>26.2</ele>
        <time>2021-07-04T10:15:35Z</time>
      </trkpt>
      <trkpt lat="47.42956" lon="-0.5344">
        <ele>26.6</ele>
        <time>2021-07-04T10:15:37Z</time>
      </trkpt>
      <trkpt lat="47.4295" lon="-0.5346">
        <ele>26.6</ele>
        <time>2021-07-04T10:15:39Z</time>
      </trkpt>
      <trkpt lat="47.42944" lon="-0.5348">
        <ele>26</ele>
        <time>2021-07-04T10:15:41Z</time>
      </trkpt>
      <trkpt lat="47.42941" lon="-0.53489">
        <ele>26.2</ele>
        <time>2021-07-04T10:15:42Z</time>
      </trkpt>
      <trkpt lat="47.42938" lon="-0.53498">
        <ele>26.2</ele>
        <time>2021-07-04T10:15:43Z</time>
      </trkpt>
      <trkpt lat="47.42932" lon="-0.53516">
        <ele>27</ele>
        <time>2021-07-04T10:15:45Z</time>
      </trkpt>
      <trkpt lat="47.42926" lon="-0.53535">
        <ele>26.6</ele>
        <time>2021-07-04T10:15:47Z</time>
      </trkpt>
      <trkpt lat="47.42924" lon="-0.53544">
        <ele>26.2</ele>
        <time>2021-07-04T10:15:48Z</time>
      </trkpt>
      <trkpt lat="47.42922" lon="-0.53553">
        <ele>26.4</ele>
        <time>2021-07-04T10:15:49Z</time>
      </trkpt>
      <trkpt lat="47.42917" lon="-0.53571">
        <ele>26.8</ele>
        <time>2021-07-04T10:15:51Z</time>
      </trkpt>
      <trkpt lat="47.42911" lon="-0.5359">
        <ele>26.8</ele>
        <time>2021-07-04T10:15:53Z</time>
      </trkpt>
      <trkpt lat="47.42906" lon="-0.53608">
        <ele>27.2</ele>
        <time>2021-07-04T10:15:55Z</time>
      </trkpt>
      <trkpt lat="47.42904" lon="-0.53618">
        <ele>27.6</ele>
        <time>2021-07-04T10:15:56Z</time>
      </trkpt>
      <trkpt lat="47.42901" lon="-0.53628">
        <ele>27.4</ele>
        <time>2021-07-04T10:15:57Z</time>
      </trkpt>
      <trkpt lat="47.42895" lon="-0.53648">
        <ele>27</ele>
        <time>2021-07-04T10:15:59Z</time>
      </trkpt>
      <trkpt lat="47.42889" lon="-0.53667">
        <ele>26.8</ele>
        <time>2021-07-04T10:16:01Z</time>
      </trkpt>
      <trkpt lat="47.42886" lon="-0.53676">
        <ele>26.6</ele>
        <time>2021-07-04T10:16:02Z</time>
      </trkpt>
      <trkpt lat="47.42883" lon="-0.53684">
        <ele>26.6</ele>
        <time>2021-07-04T10:16:03Z</time>
      </trkpt>
      <trkpt lat="47.42879" lon="-0.53692">
        <ele>26.4</ele>
        <time>2021-07-04T10:16:04Z</time>
      </trkpt>
      <trkpt lat="47.42875" lon="-0.537">
        <ele>26.8</ele>
        <time>2021-07-04T10:16:05Z</time>
      </trkpt>
      <trkpt lat="47.42868" lon="-0.53717">
        <ele>27</ele>
        <time>2021-07-04T10:16:07Z</time>
      </trkpt>
      <trkpt lat="47.42862" lon="-0.53736">
        <ele>27.4</ele>
        <time>2021-07-04T10:16:09Z</time>
      </trkpt>
      <trkpt lat="47.42859" lon="-0.53745">
        <ele>27.2</ele>
        <time>2021-07-04T10:16:10Z</time>
      </trkpt>
      <trkpt lat="47.42856" lon="-0.53755">
        <ele>27.2</ele>
        <time>2021-07-04T10:16:11Z</time>
      </trkpt>
      <trkpt lat="47.42851" lon="-0.53773">
        <ele>26.6</ele>
        <time>2021-07-04T10:16:13Z</time>
      </trkpt>
      <trkpt lat="47.42846" lon="-0.53792">
        <ele>26</ele>
        <time>2021-07-04T10:16:15Z</time>
      </trkpt>
      <trkpt lat="47.42841" lon="-0.5381">
        <ele>25.8</ele>
        <time>2021-07-04T10:16:17Z</time>
      </trkpt>
      <trkpt lat="47.42835" lon="-0.5383">
        <ele>26.6</ele>
        <time>2021-07-04T10:16:19Z</time>
      </trkpt>
      <trkpt lat="47.42829" lon="-0.53849">
        <ele>26.2</ele>
        <time>2021-07-04T10:16:21Z</time>
      </trkpt>
      <trkpt lat="47.42824" lon="-0.53868">
        <ele>26.6</ele>
        <time>2021-07-04T10:16:23Z</time>
      </trkpt>
      <trkpt lat="47.42818" lon="-0.53887">
        <ele>26.6</ele>
        <time>2021-07-04T10:16:25Z</time>
      </trkpt>
      <trkpt lat="47.42813" lon="-0.53906">
        <ele>26.8</ele>
        <time>2021-07-04T10:16:27Z</time>
      </trkpt>
      <trkpt lat="47.42808" lon="-0.53925">
        <ele>26.6</ele>
        <time>2021-07-04T10:16:29Z</time>
      </trkpt>
      <trkpt lat="47.42802" lon="-0.53944">
        <ele>26.2</ele>
        <time>2021-07-04T10:16:31Z</time>
      </trkpt>
      <trkpt lat="47.428" lon="-0.53952">
        <ele>26.2</ele>
        <time>2021-07-04T10:16:32Z</time>
      </trkpt>
      <trkpt lat="47.42797" lon="-0.53962">
        <ele>26.4</ele>
        <time>2021-07-04T10:16:33Z</time>
      </trkpt>
      <trkpt lat="47.42792" lon="-0.5398">
        <ele>26.4</ele>
        <time>2021-07-04T10:16:35Z</time>
      </trkpt>
      <trkpt lat="47.42787" lon="-0.53998">
        <ele>26.4</ele>
        <time>2021-07-04T10:16:37Z</time>
      </trkpt>
      <trkpt lat="47.42782" lon="-0.54017">
        <ele>25.6</ele>
        <time>2021-07-04T10:16:39Z</time>
      </trkpt>
      <trkpt lat="47.42779" lon="-0.54027">
        <ele>25.2</ele>
        <time>2021-07-04T10:16:40Z</time>
      </trkpt>
      <trkpt lat="47.42776" lon="-0.54036">
        <ele>25.2</ele>
        <time>2021-07-04T10:16:41Z</time>
      </trkpt>
      <trkpt lat="47.42771" lon="-0.54056">
        <ele>25.4</ele>
        <time>2021-07-04T10:16:43Z</time>
      </trkpt>
      <trkpt lat="47.42766" lon="-0.54075">
        <ele>25.6</ele>
        <time>2021-07-04T10:16:45Z</time>
      </trkpt>
      <trkpt lat="47.4276" lon="-0.54094">
        <ele>25.6</ele>
        <time>2021-07-04T10:16:47Z</time>
      </trkpt>
      <trkpt lat="47.42755" lon="-0.54113">
        <ele>25.8</ele>
        <time>2021-07-04T10:16:49Z</time>
      </trkpt>
      <trkpt lat="47.42749" lon="-0.54132">
        <ele>26</ele>
        <time>2021-07-04T10:16:51Z</time>
      </trkpt>
      <trkpt lat="47.42744" lon="-0.54151">
        <ele>26.4</ele>
        <time>2021-07-04T10:16:53Z</time>
      </trkpt>
      <trkpt lat="47.42738" lon="-0.5417">
        <ele>26.2</ele>
        <time>2021-07-04T10:16:55Z</time>
      </trkpt>
      <trkpt lat="47.42733" lon="-0.54189">
        <ele>26</ele>
        <time>2021-07-04T10:16:57Z</time>
      </trkpt>
      <trkpt lat="47.42728" lon="-0.54208">
        <ele>25.6</ele>
        <time>2021-07-04T10:16:59Z</time>
      </trkpt>
      <trkpt lat="47.42722" lon="-0.54228">
        <ele>25.8</ele>
        <time>2021-07-04T10:17:01Z</time>
      </trkpt>
      <trkpt lat="47.42716" lon="-0.54248">
        <ele>26.2</ele>
        <time>2021-07-04T10:17:03Z</time>
      </trkpt>
      <trkpt lat="47.4271" lon="-0.54267">
        <ele>26.6</ele>
        <time>2021-07-04T10:17:05Z</time>
      </trkpt>
      <trkpt lat="47.42705" lon="-0.54287">
        <ele>26.6</ele>
        <time>2021-07-04T10:17:07Z</time>
      </trkpt>
      <trkpt lat="47.42699" lon="-0.54306">
        <ele>26.4</ele>
        <time>2021-07-04T10:17:09Z</time>
      </trkpt>
      <trkpt lat="47.42694" lon="-0.54325">
        <ele>26.2</ele>
        <time>2021-07-04T10:17:11Z</time>
      </trkpt>
      <trkpt lat="47.42688" lon="-0.54344">
        <ele>26.4</ele>
        <time>2021-07-04T10:17:13Z</time>
      </trkpt>
      <trkpt lat="47.42686" lon="-0.54354">
        <ele>26.6</ele>
        <time>2021-07-04T10:17:14Z</time>
      </trkpt>
      <trkpt lat="47.42683" lon="-0.54364">
        <ele>26.6</ele>
        <time>2021-07-04T10:17:15Z</time>
      </trkpt>
      <trkpt lat="47.42678" lon="-0.54383">
        <ele>26.8</ele>
        <time>2021-07-04T10:17:17Z</time>
      </trkpt>
      <trkpt lat="47.42672" lon="-0.54402">
        <ele>27.2</ele>
        <time>2021-07-04T10:17:19Z</time>
      </trkpt>
      <trkpt lat="47.42667" lon="-0.54421">
        <ele>27</ele>
        <time>2021-07-04T10:17:21Z</time>
      </trkpt>
      <trkpt lat="47.42661" lon="-0.5444">
        <ele>26.8</ele>
        <time>2021-07-04T10:17:23Z</time>
      </trkpt>
      <trkpt lat="47.42656" lon="-0.5446">
        <ele>26.6</ele>
        <time>2021-07-04T10:17:25Z</time>
      </trkpt>
      <trkpt lat="47.42651" lon="-0.54479">
        <ele>26.8</ele>
        <time>2021-07-04T10:17:27Z</time>
      </trkpt>
      <trkpt lat="47.42645" lon="-0.54498">
        <ele>27.2</ele>
        <time>2021-07-04T10:17:29Z</time>
      </trkpt>
      <trkpt lat="47.4264" lon="-0.54517">
        <ele>27</ele>
        <time>2021-07-04T10:17:31Z</time>
      </trkpt>
      <trkpt lat="47.42635" lon="-0.54535">
        <ele>27.2</ele>
        <time>2021-07-04T10:17:33Z</time>
      </trkpt>
      <trkpt lat="47.42629" lon="-0.54555">
        <ele>27</ele>
        <time>2021-07-04T10:17:35Z</time>
      </trkpt>
      <trkpt lat="47.42624" lon="-0.54574">
        <ele>26.8</ele>
        <time>2021-07-04T10:17:37Z</time>
      </trkpt>
      <trkpt lat="47.42618" lon="-0.54593">
        <ele>26.6</ele>
        <time>2021-07-04T10:17:39Z</time>
      </trkpt>
      <trkpt lat="47.42615" lon="-0.54603">
        <ele>26.6</ele>
        <time>2021-07-04T10:17:40Z</time>
      </trkpt>
      <trkpt lat="47.42612" lon="-0.54613">
        <ele>26.4</ele>
        <time>2021-07-04T10:17:41Z</time>
      </trkpt>
      <trkpt lat="47.42607" lon="-0.54632">
        <ele>26.8</ele>
        <time>2021-07-04T10:17:43Z</time>
      </trkpt>
      <trkpt lat="47.42602" lon="-0.54651">
        <ele>26.8</ele>
        <time>2021-07-04T10:17:45Z</time>
      </trkpt>
      <trkpt lat="47.42596" lon="-0.5467">
        <ele>26.6</ele>
        <time>2021-07-04T10:17:47Z</time>
      </trkpt>
      <trkpt lat="47.42591" lon="-0.54688">
        <ele>26.6</ele>
        <time>2021-07-04T10:17:49Z</time>
      </trkpt>
      <trkpt lat="47.42585" lon="-0.54707">
        <ele>26.4</ele>
        <time>2021-07-04T10:17:51Z</time>
      </trkpt>
      <trkpt lat="47.4258" lon="-0.54725">
        <ele>26</ele>
        <time>2021-07-04T10:17:53Z</time>
      </trkpt>
      <trkpt lat="47.42575" lon="-0.54743">
        <ele>25.8</ele>
        <time>2021-07-04T10:17:55Z</time>
      </trkpt>
      <trkpt lat="47.42573" lon="-0.54752">
        <ele>25.8</ele>
        <time>2021-07-04T10:17:56Z</time>
      </trkpt>
      <trkpt lat="47.4257" lon="-0.54761">
        <ele>25.8</ele>
        <time>2021-07-04T10:17:57Z</time>
      </trkpt>
      <trkpt lat="47.42564" lon="-0.54779">
        <ele>25.8</ele>
        <time>2021-07-04T10:17:59Z</time>
      </trkpt>
      <trkpt lat="47.42559" lon="-0.54797">
        <ele>26.2</ele>
        <time>2021-07-04T10:18:01Z</time>
      </trkpt>
      <trkpt lat="47.42553" lon="-0.54815">
        <ele>26.6</ele>
        <time>2021-07-04T10:18:03Z</time>
      </trkpt>
      <trkpt lat="47.42547" lon="-0.54834">
        <ele>26.2</ele>
        <time>2021-07-04T10:18:05Z</time>
      </trkpt>
      <trkpt lat="47.42545" lon="-0.54844">
        <ele>26.6</ele>
        <time>2021-07-04T10:18:06Z</time>
      </trkpt>
      <trkpt lat="47.42541" lon="-0.54853">
        <ele>26.6</ele>
        <time>2021-07-04T10:18:07Z</time>
      </trkpt>
      <trkpt lat="47.42534" lon="-0.5487">
        <ele>26.4</ele>
        <time>2021-07-04T10:18:09Z</time>
      </trkpt>
      <trkpt lat="47.42525" lon="-0.54887">
        <ele>26.6</ele>
        <time>2021-07-04T10:18:11Z</time>
      </trkpt>
      <trkpt lat="47.42519" lon="-0.54894">
        <ele>26.8</ele>
        <time>2021-07-04T10:18:12Z</time>
      </trkpt>
      <trkpt lat="47.42513" lon="-0.54901">
        <ele>26.4</ele>
        <time>2021-07-04T10:18:13Z</time>
      </trkpt>
      <trkpt lat="47.42502" lon="-0.54914">
        <ele>25.8</ele>
        <time>2021-07-04T10:18:15Z</time>
      </trkpt>
      <trkpt lat="47.42496" lon="-0.54919">
        <ele>25.8</ele>
        <time>2021-07-04T10:18:16Z</time>
      </trkpt>
      <trkpt lat="47.4249" lon="-0.54925">
        <ele>25.6</ele>
        <time>2021-07-04T10:18:17Z</time>
      </trkpt>
      <trkpt lat="47.42478" lon="-0.54936">
        <ele>25.4</ele>
        <time>2021-07-04T10:18:19Z</time>
      </trkpt>
      <trkpt lat="47.42468" lon="-0.54947">
        <ele>25.8</ele>
        <time>2021-07-04T10:18:21Z</time>
      </trkpt>
      <trkpt lat="47.42456" lon="-0.54958">
        <ele>26.2</ele>
        <time>2021-07-04T10:18:23Z</time>
      </trkpt>
      <trkpt lat="47.42446" lon="-0.5497">
        <ele>26.2</ele>
        <time>2021-07-04T10:18:25Z</time>
      </trkpt>
      <trkpt lat="47.42435" lon="-0.54982">
        <ele>26.2</ele>
        <time>2021-07-04T10:18:27Z</time>
      </trkpt>
      <trkpt lat="47.42425" lon="-0.54993">
        <ele>27</ele>
        <time>2021-07-04T10:18:29Z</time>
      </trkpt>
      <trkpt lat="47.42421" lon="-0.54998">
        <ele>27.2</ele>
        <time>2021-07-04T10:18:30Z</time>
      </trkpt>
      <trkpt lat="47.42416" lon="-0.55002">
        <ele>27.2</ele>
        <time>2021-07-04T10:18:31Z</time>
      </trkpt>
      <trkpt lat="47.42406" lon="-0.55012">
        <ele>27.2</ele>
        <time>2021-07-04T10:18:33Z</time>
      </trkpt>
      <trkpt lat="47.42398" lon="-0.5502">
        <ele>27.6</ele>
        <time>2021-07-04T10:18:35Z</time>
      </trkpt>
      <trkpt lat="47.42395" lon="-0.55025">
        <ele>28</ele>
        <time>2021-07-04T10:18:36Z</time>
      </trkpt>
      <trkpt lat="47.42393" lon="-0.55032">
        <ele>28.4</ele>
        <time>2021-07-04T10:18:37Z</time>
      </trkpt>
      <trkpt lat="47.42386" lon="-0.55041">
        <ele>28.6</ele>
        <time>2021-07-04T10:18:39Z</time>
      </trkpt>
      <trkpt lat="47.42381" lon="-0.55046">
        <ele>28.4</ele>
        <time>2021-07-04T10:18:40Z</time>
      </trkpt>
      <trkpt lat="47.42377" lon="-0.55049">
        <ele>28.2</ele>
        <time>2021-07-04T10:18:41Z</time>
      </trkpt>
      <trkpt lat="47.42368" lon="-0.55058">
        <ele>28.2</ele>
        <time>2021-07-04T10:18:43Z</time>
      </trkpt>
      <trkpt lat="47.42359" lon="-0.55066">
        <ele>28</ele>
        <time>2021-07-04T10:18:45Z</time>
      </trkpt>
      <trkpt lat="47.42353" lon="-0.55073">
        <ele>28</ele>
        <time>2021-07-04T10:18:47Z</time>
      </trkpt>
      <trkpt lat="47.4235" lon="-0.55081">
        <ele>28.2</ele>
        <time>2021-07-04T10:18:49Z</time>
      </trkpt>
      <trkpt lat="47.42348" lon="-0.55092">
        <ele>28.2</ele>
        <time>2021-07-04T10:18:51Z</time>
      </trkpt>
      <trkpt lat="47.42349" lon="-0.55104">
        <ele>28</ele>
        <time>2021-07-04T10:18:53Z</time>
      </trkpt>
      <trkpt lat="47.42351" lon="-0.55119">
        <ele>28.2</ele>
        <time>2021-07-04T10:18:55Z</time>
      </trkpt>
      <trkpt lat="47.42353" lon="-0.55132">
        <ele>27.8</ele>
        <time>2021-07-04T10:18:57Z</time>
      </trkpt>
      <trkpt lat="47.42356" lon="-0.55147">
        <ele>27</ele>
        <time>2021-07-04T10:18:59Z</time>
      </trkpt>
      <trkpt lat="47.42357" lon="-0.55155">
        <ele>26.8</ele>
        <time>2021-07-04T10:19:00Z</time>
      </trkpt>
      <trkpt lat="47.42358" lon="-0.55164">
        <ele>27</ele>
        <time>2021-07-04T10:19:01Z</time>
      </trkpt>
      <trkpt lat="47.42359" lon="-0.55182">
        <ele>28</ele>
        <time>2021-07-04T10:19:03Z</time>
      </trkpt>
      <trkpt lat="47.42361" lon="-0.552">
        <ele>28</ele>
        <time>2021-07-04T10:19:05Z</time>
      </trkpt>
      <trkpt lat="47.42362" lon="-0.55218">
        <ele>28</ele>
        <time>2021-07-04T10:19:07Z</time>
      </trkpt>
      <trkpt lat="47.42363" lon="-0.55236">
        <ele>27.8</ele>
        <time>2021-07-04T10:19:09Z</time>
      </trkpt>
      <trkpt lat="47.42364" lon="-0.55254">
        <ele>27.6</ele>
        <time>2021-07-04T10:19:11Z</time>
      </trkpt>
      <trkpt lat="47.42364" lon="-0.55271">
        <ele>27.4</ele>
        <time>2021-07-04T10:19:13Z</time>
      </trkpt>
      <trkpt lat="47.42365" lon="-0.55287">
        <ele>27.6</ele>
        <time>2021-07-04T10:19:15Z</time>
      </trkpt>
      <trkpt lat="47.42366" lon="-0.55302">
        <ele>28.2</ele>
        <time>2021-07-04T10:19:17Z</time>
      </trkpt>
      <trkpt lat="47.42367" lon="-0.5531">
        <ele>29.2</ele>
        <time>2021-07-04T10:19:18Z</time>
      </trkpt>
      <trkpt lat="47.42367" lon="-0.55318">
        <ele>29.4</ele>
        <time>2021-07-04T10:19:19Z</time>
      </trkpt>
      <trkpt lat="47.42368" lon="-0.55332">
        <ele>29</ele>
        <time>2021-07-04T10:19:21Z</time>
      </trkpt>
      <trkpt lat="47.42368" lon="-0.55347">
        <ele>29.4</ele>
        <time>2021-07-04T10:19:23Z</time>
      </trkpt>
      <trkpt lat="47.42368" lon="-0.55355">
        <ele>30</ele>
        <time>2021-07-04T10:19:24Z</time>
      </trkpt>
      <trkpt lat="47.42368" lon="-0.55362">
        <ele>30.8</ele>
        <time>2021-07-04T10:19:25Z</time>
      </trkpt>
      <trkpt lat="47.4237" lon="-0.55376">
        <ele>32</ele>
        <time>2021-07-04T10:19:27Z</time>
      </trkpt>
      <trkpt lat="47.4237" lon="-0.55388">
        <ele>32.8</ele>
        <time>2021-07-04T10:19:29Z</time>
      </trkpt>
      <trkpt lat="47.42368" lon="-0.55394">
        <ele>32.8</ele>
        <time>2021-07-04T10:19:30Z</time>
      </trkpt>
      <trkpt lat="47.42365" lon="-0.554">
        <ele>32.8</ele>
        <time>2021-07-04T10:19:31Z</time>
      </trkpt>
      <trkpt lat="47.42358" lon="-0.55411">
        <ele>32.6</ele>
        <time>2021-07-04T10:19:33Z</time>
      </trkpt>
      <trkpt lat="47.42356" lon="-0.55419">
        <ele>32.4</ele>
        <time>2021-07-04T10:19:34Z</time>
      </trkpt>
      <trkpt lat="47.42355" lon="-0.55426">
        <ele>32.6</ele>
        <time>2021-07-04T10:19:35Z</time>
      </trkpt>
      <trkpt lat="47.42352" lon="-0.55441">
        <ele>33</ele>
        <time>2021-07-04T10:19:37Z</time>
      </trkpt>
      <trkpt lat="47.42349" lon="-0.55457">
        <ele>33</ele>
        <time>2021-07-04T10:19:39Z</time>
      </trkpt>
      <trkpt lat="47.42346" lon="-0.55472">
        <ele>32.8</ele>
        <time>2021-07-04T10:19:41Z</time>
      </trkpt>
      <trkpt lat="47.42344" lon="-0.5548">
        <ele>32.6</ele>
        <time>2021-07-04T10:19:42Z</time>
      </trkpt>
      <trkpt lat="47.42341" lon="-0.55487">
        <ele>32.6</ele>
        <time>2021-07-04T10:19:43Z</time>
      </trkpt>
      <trkpt lat="47.42336" lon="-0.55503">
        <ele>32</ele>
        <time>2021-07-04T10:19:45Z</time>
      </trkpt>
      <trkpt lat="47.42329" lon="-0.55518">
        <ele>32</ele>
        <time>2021-07-04T10:19:47Z</time>
      </trkpt>
      <trkpt lat="47.42323" lon="-0.55532">
        <ele>32</ele>
        <time>2021-07-04T10:19:49Z</time>
      </trkpt>
      <trkpt lat="47.42319" lon="-0.5554">
        <ele>32.2</ele>
        <time>2021-07-04T10:19:50Z</time>
      </trkpt>
      <trkpt lat="47.42316" lon="-0.55548">
        <ele>32</ele>
        <time>2021-07-04T10:19:51Z</time>
      </trkpt>
      <trkpt lat="47.42308" lon="-0.55563">
        <ele>31.2</ele>
        <time>2021-07-04T10:19:53Z</time>
      </trkpt>
      <trkpt lat="47.42301" lon="-0.55579">
        <ele>31.4</ele>
        <time>2021-07-04T10:19:55Z</time>
      </trkpt>
      <trkpt lat="47.42293" lon="-0.55594">
        <ele>31.6</ele>
        <time>2021-07-04T10:19:57Z</time>
      </trkpt>
      <trkpt lat="47.42287" lon="-0.5561">
        <ele>31.2</ele>
        <time>2021-07-04T10:19:59Z</time>
      </trkpt>
      <trkpt lat="47.42284" lon="-0.55619">
        <ele>31.2</ele>
        <time>2021-07-04T10:20:00Z</time>
      </trkpt>
      <trkpt lat="47.42283" lon="-0.55628">
        <ele>30.8</ele>
        <time>2021-07-04T10:20:01Z</time>
      </trkpt>
      <trkpt lat="47.42283" lon="-0.55637">
        <ele>30.8</ele>
        <time>2021-07-04T10:20:02Z</time>
      </trkpt>
      <trkpt lat="47.42284" lon="-0.55646">
        <ele>31.2</ele>
        <time>2021-07-04T10:20:03Z</time>
      </trkpt>
      <trkpt lat="47.42285" lon="-0.55654">
        <ele>32</ele>
        <time>2021-07-04T10:20:04Z</time>
      </trkpt>
      <trkpt lat="47.42287" lon="-0.55663">
        <ele>32.6</ele>
        <time>2021-07-04T10:20:05Z</time>
      </trkpt>
      <trkpt lat="47.42288" lon="-0.55671">
        <ele>33.2</ele>
        <time>2021-07-04T10:20:06Z</time>
      </trkpt>
      <trkpt lat="47.42289" lon="-0.55679">
        <ele>33.6</ele>
        <time>2021-07-04T10:20:07Z</time>
      </trkpt>
      <trkpt lat="47.42291" lon="-0.55694">
        <ele>34</ele>
        <time>2021-07-04T10:20:09Z</time>
      </trkpt>
      <trkpt lat="47.42293" lon="-0.55711">
        <ele>34.6</ele>
        <time>2021-07-04T10:20:11Z</time>
      </trkpt>
      <trkpt lat="47.42296" lon="-0.55727">
        <ele>35.6</ele>
        <time>2021-07-04T10:20:13Z</time>
      </trkpt>
      <trkpt lat="47.42298" lon="-0.55742">
        <ele>36.2</ele>
        <time>2021-07-04T10:20:15Z</time>
      </trkpt>
      <trkpt lat="47.42301" lon="-0.55758">
        <ele>36</ele>
        <time>2021-07-04T10:20:17Z</time>
      </trkpt>
      <trkpt lat="47.42304" lon="-0.55774">
        <ele>35.8</ele>
        <time>2021-07-04T10:20:19Z</time>
      </trkpt>
      <trkpt lat="47.42306" lon="-0.55789">
        <ele>37</ele>
        <time>2021-07-04T10:20:21Z</time>
      </trkpt>
      <trkpt lat="47.42309" lon="-0.55805">
        <ele>37.2</ele>
        <time>2021-07-04T10:20:23Z</time>
      </trkpt>
      <trkpt lat="47.42311" lon="-0.55821">
        <ele>37.4</ele>
        <time>2021-07-04T10:20:25Z</time>
      </trkpt>
      <trkpt lat="47.42314" lon="-0.55837">
        <ele>38</ele>
        <time>2021-07-04T10:20:27Z</time>
      </trkpt>
      <trkpt lat="47.42315" lon="-0.55844">
        <ele>38.2</ele>
        <time>2021-07-04T10:20:28Z</time>
      </trkpt>
      <trkpt lat="47.42316" lon="-0.55852">
        <ele>38.4</ele>
        <time>2021-07-04T10:20:29Z</time>
      </trkpt>
      <trkpt lat="47.42318" lon="-0.55866">
        <ele>39.4</ele>
        <time>2021-07-04T10:20:31Z</time>
      </trkpt>
      <trkpt lat="47.4232" lon="-0.5588">
        <ele>39.6</ele>
        <time>2021-07-04T10:20:33Z</time>
      </trkpt>
      <trkpt lat="47.42322" lon="-0.55895">
        <ele>39.8</ele>
        <time>2021-07-04T10:20:35Z</time>
      </trkpt>
      <trkpt lat="47.42322" lon="-0.55911">
        <ele>40.2</ele>
        <time>2021-07-04T10:20:37Z</time>
      </trkpt>
      <trkpt lat="47.42323" lon="-0.55926">
        <ele>40.2</ele>
        <time>2021-07-04T10:20:39Z</time>
      </trkpt>
      <trkpt lat="47.42324" lon="-0.55943">
        <ele>40.2</ele>
        <time>2021-07-04T10:20:41Z</time>
      </trkpt>
      <trkpt lat="47.42324" lon="-0.5596">
        <ele>40</ele>
        <time>2021-07-04T10:20:43Z</time>
      </trkpt>
      <trkpt lat="47.42323" lon="-0.55978">
        <ele>39.4</ele>
        <time>2021-07-04T10:20:45Z</time>
      </trkpt>
      <trkpt lat="47.42321" lon="-0.55995">
        <ele>38.8</ele>
        <time>2021-07-04T10:20:47Z</time>
      </trkpt>
      <trkpt lat="47.42317" lon="-0.56012">
        <ele>38.6</ele>
        <time>2021-07-04T10:20:49Z</time>
      </trkpt>
      <trkpt lat="47.42314" lon="-0.5602">
        <ele>38.4</ele>
        <time>2021-07-04T10:20:50Z</time>
      </trkpt>
      <trkpt lat="47.42312" lon="-0.56027">
        <ele>38.2</ele>
        <time>2021-07-04T10:20:51Z</time>
      </trkpt>
      <trkpt lat="47.4231" lon="-0.56035">
        <ele>38</ele>
        <time>2021-07-04T10:20:52Z</time>
      </trkpt>
      <trkpt lat="47.42308" lon="-0.56043">
        <ele>38.2</ele>
        <time>2021-07-04T10:20:53Z</time>
      </trkpt>
      <trkpt lat="47.42303" lon="-0.56058">
        <ele>39.2</ele>
        <time>2021-07-04T10:20:55Z</time>
      </trkpt>
      <trkpt lat="47.42297" lon="-0.56074">
        <ele>39</ele>
        <time>2021-07-04T10:20:57Z</time>
      </trkpt>
      <trkpt lat="47.42292" lon="-0.56089">
        <ele>38.4</ele>
        <time>2021-07-04T10:20:59Z</time>
      </trkpt>
      <trkpt lat="47.42289" lon="-0.56097">
        <ele>38.4</ele>
        <time>2021-07-04T10:21:00Z</time>
      </trkpt>
      <trkpt lat="47.42287" lon="-0.56104">
        <ele>38.8</ele>
        <time>2021-07-04T10:21:01Z</time>
      </trkpt>
      <trkpt lat="47.42283" lon="-0.56119">
        <ele>39.6</ele>
        <time>2021-07-04T10:21:03Z</time>
      </trkpt>
      <trkpt lat="47.42284" lon="-0.56135">
        <ele>40.8</ele>
        <time>2021-07-04T10:21:05Z</time>
      </trkpt>
      <trkpt lat="47.42291" lon="-0.56144">
        <ele>41.4</ele>
        <time>2021-07-04T10:21:07Z</time>
      </trkpt>
      <trkpt lat="47.42296" lon="-0.56148">
        <ele>41.2</ele>
        <time>2021-07-04T10:21:08Z</time>
      </trkpt>
      <trkpt lat="47.42301" lon="-0.56152">
        <ele>41</ele>
        <time>2021-07-04T10:21:09Z</time>
      </trkpt>
      <trkpt lat="47.42311" lon="-0.5616">
        <ele>41.4</ele>
        <time>2021-07-04T10:21:11Z</time>
      </trkpt>
      <trkpt lat="47.42316" lon="-0.56164">
        <ele>41.8</ele>
        <time>2021-07-04T10:21:12Z</time>
      </trkpt>
      <trkpt lat="47.4232" lon="-0.56168">
        <ele>42</ele>
        <time>2021-07-04T10:21:13Z</time>
      </trkpt>
      <trkpt lat="47.42329" lon="-0.56178">
        <ele>42</ele>
        <time>2021-07-04T10:21:15Z</time>
      </trkpt>
      <trkpt lat="47.42334" lon="-0.56184">
        <ele>41.8</ele>
        <time>2021-07-04T10:21:16Z</time>
      </trkpt>
      <trkpt lat="47.42338" lon="-0.56189">
        <ele>41.6</ele>
        <time>2021-07-04T10:21:17Z</time>
      </trkpt>
      <trkpt lat="47.42347" lon="-0.56201">
        <ele>41.2</ele>
        <time>2021-07-04T10:21:19Z</time>
      </trkpt>
      <trkpt lat="47.42355" lon="-0.56214">
        <ele>41</ele>
        <time>2021-07-04T10:21:21Z</time>
      </trkpt>
      <trkpt lat="47.4236" lon="-0.56221">
        <ele>40.6</ele>
        <time>2021-07-04T10:21:22Z</time>
      </trkpt>
      <trkpt lat="47.42365" lon="-0.56228">
        <ele>40.6</ele>
        <time>2021-07-04T10:21:23Z</time>
      </trkpt>
      <trkpt lat="47.42374" lon="-0.56242">
        <ele>41</ele>
        <time>2021-07-04T10:21:25Z</time>
      </trkpt>
      <trkpt lat="47.42384" lon="-0.56256">
        <ele>40.8</ele>
        <time>2021-07-04T10:21:27Z</time>
      </trkpt>
      <trkpt lat="47.42389" lon="-0.56263">
        <ele>40.4</ele>
        <time>2021-07-04T10:21:28Z</time>
      </trkpt>
      <trkpt lat="47.42394" lon="-0.56269">
        <ele>40.2</ele>
        <time>2021-07-04T10:21:29Z</time>
      </trkpt>
      <trkpt lat="47.42403" lon="-0.56283">
        <ele>39.6</ele>
        <time>2021-07-04T10:21:31Z</time>
      </trkpt>
      <trkpt lat="47.42414" lon="-0.56297">
        <ele>39.2</ele>
        <time>2021-07-04T10:21:33Z</time>
      </trkpt>
      <trkpt lat="47.42424" lon="-0.56312">
        <ele>39.6</ele>
        <time>2021-07-04T10:21:35Z</time>
      </trkpt>
      <trkpt lat="47.42435" lon="-0.56326">
        <ele>39.6</ele>
        <time>2021-07-04T10:21:37Z</time>
      </trkpt>
      <trkpt lat="47.42446" lon="-0.56341">
        <ele>38.6</ele>
        <time>2021-07-04T10:21:39Z</time>
      </trkpt>
      <trkpt lat="47.42457" lon="-0.56353">
        <ele>38</ele>
        <time>2021-07-04T10:21:41Z</time>
      </trkpt>
      <trkpt lat="47.42469" lon="-0.56365">
        <ele>37.8</ele>
        <time>2021-07-04T10:21:43Z</time>
      </trkpt>
      <trkpt lat="47.42481" lon="-0.56378">
        <ele>37.6</ele>
        <time>2021-07-04T10:21:45Z</time>
      </trkpt>
      <trkpt lat="47.42487" lon="-0.56384">
        <ele>37.6</ele>
        <time>2021-07-04T10:21:46Z</time>
      </trkpt>
      <trkpt lat="47.42493" lon="-0.56391">
        <ele>37.2</ele>
        <time>2021-07-04T10:21:47Z</time>
      </trkpt>
      <trkpt lat="47.42505" lon="-0.56403">
        <ele>36.8</ele>
        <time>2021-07-04T10:21:49Z</time>
      </trkpt>
      <trkpt lat="47.42517" lon="-0.56415">
        <ele>36.6</ele>
        <time>2021-07-04T10:21:51Z</time>
      </trkpt>
      <trkpt lat="47.42529" lon="-0.56427">
        <ele>36.8</ele>
        <time>2021-07-04T10:21:53Z</time>
      </trkpt>
      <trkpt lat="47.42541" lon="-0.56437">
        <ele>36.4</ele>
        <time>2021-07-04T10:21:55Z</time>
      </trkpt>
      <trkpt lat="47.42547" lon="-0.5644">
        <ele>36.2</ele>
        <time>2021-07-04T10:21:56Z</time>
      </trkpt>
      <trkpt lat="47.42554" lon="-0.56443">
        <ele>36.4</ele>
        <time>2021-07-04T10:21:57Z</time>
      </trkpt>
      <trkpt lat="47.42568" lon="-0.56444">
        <ele>36.4</ele>
        <time>2021-07-04T10:21:59Z</time>
      </trkpt>
      <trkpt lat="47.42575" lon="-0.56443">
        <ele>36.6</ele>
        <time>2021-07-04T10:22:00Z</time>
      </trkpt>
      <trkpt lat="47.42582" lon="-0.56443">
        <ele>37</ele>
        <time>2021-07-04T10:22:01Z</time>
      </trkpt>
      <trkpt lat="47.42595" lon="-0.56449">
        <ele>37.2</ele>
        <time>2021-07-04T10:22:03Z</time>
      </trkpt>
      <trkpt lat="47.42609" lon="-0.56461">
        <ele>36.6</ele>
        <time>2021-07-04T10:22:05Z</time>
      </trkpt>
      <trkpt lat="47.42624" lon="-0.56468">
        <ele>36.6</ele>
        <time>2021-07-04T10:22:07Z</time>
      </trkpt>
      <trkpt lat="47.42632" lon="-0.5647">
        <ele>36.8</ele>
        <time>2021-07-04T10:22:08Z</time>
      </trkpt>
      <trkpt lat="47.4264" lon="-0.56472">
        <ele>36.6</ele>
        <time>2021-07-04T10:22:09Z</time>
      </trkpt>
      <trkpt lat="47.42656" lon="-0.56477">
        <ele>35.6</ele>
        <time>2021-07-04T10:22:11Z</time>
      </trkpt>
      <trkpt lat="47.42664" lon="-0.5648">
        <ele>35.2</ele>
        <time>2021-07-04T10:22:12Z</time>
      </trkpt>
      <trkpt lat="47.42672" lon="-0.56483">
        <ele>35</ele>
        <time>2021-07-04T10:22:13Z</time>
      </trkpt>
      <trkpt lat="47.4268" lon="-0.56485">
        <ele>34.8</ele>
        <time>2021-07-04T10:22:14Z</time>
      </trkpt>
      <trkpt lat="47.42688" lon="-0.56488">
        <ele>34.6</ele>
        <time>2021-07-04T10:22:15Z</time>
      </trkpt>
      <trkpt lat="47.42704" lon="-0.56498">
        <ele>33.8</ele>
        <time>2021-07-04T10:22:17Z</time>
      </trkpt>
      <trkpt lat="47.42712" lon="-0.56502">
        <ele>33.4</ele>
        <time>2021-07-04T10:22:18Z</time>
      </trkpt>
      <trkpt lat="47.4272" lon="-0.56505">
        <ele>33.4</ele>
        <time>2021-07-04T10:22:19Z</time>
      </trkpt>
      <trkpt lat="47.42736" lon="-0.56509">
        <ele>34.4</ele>
        <time>2021-07-04T10:22:21Z</time>
      </trkpt>
      <trkpt lat="47.42752" lon="-0.56513">
        <ele>34.4</ele>
        <time>2021-07-04T10:22:23Z</time>
      </trkpt>
      <trkpt lat="47.42768" lon="-0.56516">
        <ele>34.6</ele>
        <time>2021-07-04T10:22:25Z</time>
      </trkpt>
      <trkpt lat="47.42784" lon="-0.56518">
        <ele>34.8</ele>
        <time>2021-07-04T10:22:27Z</time>
      </trkpt>
      <trkpt lat="47.42799" lon="-0.56522">
        <ele>34.6</ele>
        <time>2021-07-04T10:22:29Z</time>
      </trkpt>
      <trkpt lat="47.42814" lon="-0.56526">
        <ele>34</ele>
        <time>2021-07-04T10:22:31Z</time>
      </trkpt>
      <trkpt lat="47.42828" lon="-0.56531">
        <ele>34.4</ele>
        <time>2021-07-04T10:22:33Z</time>
      </trkpt>
      <trkpt lat="47.42842" lon="-0.56535">
        <ele>34.8</ele>
        <time>2021-07-04T10:22:35Z</time>
      </trkpt>
      <trkpt lat="47.4285" lon="-0.56538">
        <ele>34.8</ele>
        <time>2021-07-04T10:22:36Z</time>
      </trkpt>
      <trkpt lat="47.42857" lon="-0.5654">
        <ele>34.8</ele>
        <time>2021-07-04T10:22:37Z</time>
      </trkpt>
      <trkpt lat="47.42872" lon="-0.56546">
        <ele>35</ele>
        <time>2021-07-04T10:22:39Z</time>
      </trkpt>
      <trkpt lat="47.42886" lon="-0.56553">
        <ele>35</ele>
        <time>2021-07-04T10:22:41Z</time>
      </trkpt>
      <trkpt lat="47.42901" lon="-0.56559">
        <ele>34.8</ele>
        <time>2021-07-04T10:22:43Z</time>
      </trkpt>
      <trkpt lat="47.42908" lon="-0.56563">
        <ele>34.8</ele>
        <time>2021-07-04T10:22:44Z</time>
      </trkpt>
      <trkpt lat="47.42915" lon="-0.56567">
        <ele>34.6</ele>
        <time>2021-07-04T10:22:45Z</time>
      </trkpt>
      <trkpt lat="47.4293" lon="-0.56576">
        <ele>35.2</ele>
        <time>2021-07-04T10:22:47Z</time>
      </trkpt>
      <trkpt lat="47.42944" lon="-0.56585">
        <ele>34.6</ele>
        <time>2021-07-04T10:22:49Z</time>
      </trkpt>
      <trkpt lat="47.42951" lon="-0.5659">
        <ele>34.6</ele>
        <time>2021-07-04T10:22:50Z</time>
      </trkpt>
      <trkpt lat="47.42958" lon="-0.56596">
        <ele>34.8</ele>
        <time>2021-07-04T10:22:51Z</time>
      </trkpt>
      <trkpt lat="47.42971" lon="-0.56608">
        <ele>35</ele>
        <time>2021-07-04T10:22:53Z</time>
      </trkpt>
      <trkpt lat="47.42984" lon="-0.56621">
        <ele>34.2</ele>
        <time>2021-07-04T10:22:55Z</time>
      </trkpt>
      <trkpt lat="47.42991" lon="-0.56627">
        <ele>34.4</ele>
        <time>2021-07-04T10:22:56Z</time>
      </trkpt>
      <trkpt lat="47.42997" lon="-0.56632">
        <ele>35.2</ele>
        <time>2021-07-04T10:22:57Z</time>
      </trkpt>
      <trkpt lat="47.43011" lon="-0.56643">
        <ele>35.8</ele>
        <time>2021-07-04T10:22:59Z</time>
      </trkpt>
      <trkpt lat="47.43024" lon="-0.56655">
        <ele>35.2</ele>
        <time>2021-07-04T10:23:01Z</time>
      </trkpt>
      <trkpt lat="47.43037" lon="-0.56666">
        <ele>35.6</ele>
        <time>2021-07-04T10:23:03Z</time>
      </trkpt>
      <trkpt lat="47.43049" lon="-0.56678">
        <ele>36</ele>
        <time>2021-07-04T10:23:05Z</time>
      </trkpt>
      <trkpt lat="47.43062" lon="-0.56691">
        <ele>35.8</ele>
        <time>2021-07-04T10:23:07Z</time>
      </trkpt>
      <trkpt lat="47.43074" lon="-0.56704">
        <ele>35.6</ele>
        <time>2021-07-04T10:23:09Z</time>
      </trkpt>
      <trkpt lat="47.4308" lon="-0.5671">
        <ele>35.4</ele>
        <time>2021-07-04T10:23:10Z</time>
      </trkpt>
      <trkpt lat="47.43086" lon="-0.56716">
        <ele>35.2</ele>
        <time>2021-07-04T10:23:11Z</time>
      </trkpt>
      <trkpt lat="47.43098" lon="-0.56728">
        <ele>35.6</ele>
        <time>2021-07-04T10:23:13Z</time>
      </trkpt>
      <trkpt lat="47.43109" lon="-0.5674">
        <ele>36</ele>
        <time>2021-07-04T10:23:15Z</time>
      </trkpt>
      <trkpt lat="47.43121" lon="-0.56752">
        <ele>36.2</ele>
        <time>2021-07-04T10:23:17Z</time>
      </trkpt>
      <trkpt lat="47.43127" lon="-0.56757">
        <ele>36.4</ele>
        <time>2021-07-04T10:23:18Z</time>
      </trkpt>
      <trkpt lat="47.43133" lon="-0.56763">
        <ele>36.4</ele>
        <time>2021-07-04T10:23:19Z</time>
      </trkpt>
      <trkpt lat="47.43144" lon="-0.56774">
        <ele>36.6</ele>
        <time>2021-07-04T10:23:21Z</time>
      </trkpt>
      <trkpt lat="47.43154" lon="-0.56786">
        <ele>37.2</ele>
        <time>2021-07-04T10:23:23Z</time>
      </trkpt>
      <trkpt lat="47.43165" lon="-0.56797">
        <ele>37.8</ele>
        <time>2021-07-04T10:23:25Z</time>
      </trkpt>
      <trkpt lat="47.43175" lon="-0.56808">
        <ele>38.2</ele>
        <time>2021-07-04T10:23:27Z</time>
      </trkpt>
      <trkpt lat="47.43186" lon="-0.5682">
        <ele>38.2</ele>
        <time>2021-07-04T10:23:29Z</time>
      </trkpt>
      <trkpt lat="47.43197" lon="-0.5683">
        <ele>38.4</ele>
        <time>2021-07-04T10:23:31Z</time>
      </trkpt>
      <trkpt lat="47.43208" lon="-0.56841">
        <ele>38.8</ele>
        <time>2021-07-04T10:23:33Z</time>
      </trkpt>
      <trkpt lat="47.43213" lon="-0.56847">
        <ele>38.6</ele>
        <time>2021-07-04T10:23:34Z</time>
      </trkpt>
      <trkpt lat="47.43218" lon="-0.56852">
        <ele>38.4</ele>
        <time>2021-07-04T10:23:35Z</time>
      </trkpt>
      <trkpt lat="47.43228" lon="-0.56863">
        <ele>38.2</ele>
        <time>2021-07-04T10:23:37Z</time>
      </trkpt>
      <trkpt lat="47.43237" lon="-0.56873">
        <ele>38.6</ele>
        <time>2021-07-04T10:23:39Z</time>
      </trkpt>
      <trkpt lat="47.43245" lon="-0.5688">
        <ele>39.4</ele>
        <time>2021-07-04T10:23:41Z</time>
      </trkpt>
      <trkpt lat="47.43253" lon="-0.56886">
        <ele>40.2</ele>
        <time>2021-07-04T10:23:43Z</time>
      </trkpt>
      <trkpt lat="47.43262" lon="-0.56891">
        <ele>40.2</ele>
        <time>2021-07-04T10:23:45Z</time>
      </trkpt>
      <trkpt lat="47.43267" lon="-0.56894">
        <ele>40</ele>
        <time>2021-07-04T10:23:46Z</time>
      </trkpt>
      <trkpt lat="47.43272" lon="-0.56899">
        <ele>40</ele>
        <time>2021-07-04T10:23:47Z</time>
      </trkpt>
      <trkpt lat="47.43276" lon="-0.56904">
        <ele>39.8</ele>
        <time>2021-07-04T10:23:48Z</time>
      </trkpt>
      <trkpt lat="47.43281" lon="-0.5691">
        <ele>39.6</ele>
        <time>2021-07-04T10:23:49Z</time>
      </trkpt>
      <trkpt lat="47.43291" lon="-0.56921">
        <ele>39.6</ele>
        <time>2021-07-04T10:23:51Z</time>
      </trkpt>
      <trkpt lat="47.43301" lon="-0.56931">
        <ele>40.2</ele>
        <time>2021-07-04T10:23:53Z</time>
      </trkpt>
      <trkpt lat="47.43312" lon="-0.56942">
        <ele>40.2</ele>
        <time>2021-07-04T10:23:55Z</time>
      </trkpt>
      <trkpt lat="47.43323" lon="-0.56953">
        <ele>40.2</ele>
        <time>2021-07-04T10:23:57Z</time>
      </trkpt>
      <trkpt lat="47.43328" lon="-0.56959">
        <ele>40.4</ele>
        <time>2021-07-04T10:23:58Z</time>
      </trkpt>
      <trkpt lat="47.43334" lon="-0.56964">
        <ele>40.4</ele>
        <time>2021-07-04T10:23:59Z</time>
      </trkpt>
      <trkpt lat="47.43344" lon="-0.56976">
        <ele>40.4</ele>
        <time>2021-07-04T10:24:01Z</time>
      </trkpt>
      <trkpt lat="47.43355" lon="-0.56987">
        <ele>40.8</ele>
        <time>2021-07-04T10:24:03Z</time>
      </trkpt>
      <trkpt lat="47.43366" lon="-0.56999">
        <ele>40.6</ele>
        <time>2021-07-04T10:24:05Z</time>
      </trkpt>
      <trkpt lat="47.43377" lon="-0.5701">
        <ele>39.8</ele>
        <time>2021-07-04T10:24:07Z</time>
      </trkpt>
      <trkpt lat="47.43388" lon="-0.57022">
        <ele>39.8</ele>
        <time>2021-07-04T10:24:09Z</time>
      </trkpt>
      <trkpt lat="47.434" lon="-0.57033">
        <ele>40.2</ele>
        <time>2021-07-04T10:24:11Z</time>
      </trkpt>
      <trkpt lat="47.43412" lon="-0.57044">
        <ele>40.2</ele>
        <time>2021-07-04T10:24:13Z</time>
      </trkpt>
      <trkpt lat="47.43424" lon="-0.57054">
        <ele>40</ele>
        <time>2021-07-04T10:24:15Z</time>
      </trkpt>
      <trkpt lat="47.43435" lon="-0.57065">
        <ele>40.6</ele>
        <time>2021-07-04T10:24:17Z</time>
      </trkpt>
      <trkpt lat="47.43447" lon="-0.57075">
        <ele>40.8</ele>
        <time>2021-07-04T10:24:19Z</time>
      </trkpt>
      <trkpt lat="47.43459" lon="-0.57084">
        <ele>40.2</ele>
        <time>2021-07-04T10:24:21Z</time>
      </trkpt>
      <trkpt lat="47.43471" lon="-0.57094">
        <ele>40.6</ele>
        <time>2021-07-04T10:24:23Z</time>
      </trkpt>
      <trkpt lat="47.43483" lon="-0.57104">
        <ele>40.6</ele>
        <time>2021-07-04T10:24:25Z</time>
      </trkpt>
      <trkpt lat="47.43495" lon="-0.57114">
        <ele>40.6</ele>
        <time>2021-07-04T10:24:27Z</time>
      </trkpt>
      <trkpt lat="47.43501" lon="-0.57119">
        <ele>40.8</ele>
        <time>2021-07-04T10:24:28Z</time>
      </trkpt>
      <trkpt lat="47.43507" lon="-0.57124">
        <ele>41</ele>
        <time>2021-07-04T10:24:29Z</time>
      </trkpt>
      <trkpt lat="47.43519" lon="-0.57133">
        <ele>41</ele>
        <time>2021-07-04T10:24:31Z</time>
      </trkpt>
      <trkpt lat="47.43525" lon="-0.57138">
        <ele>41.4</ele>
        <time>2021-07-04T10:24:32Z</time>
      </trkpt>
      <trkpt lat="47.43531" lon="-0.57142">
        <ele>41.6</ele>
        <time>2021-07-04T10:24:33Z</time>
      </trkpt>
      <trkpt lat="47.43544" lon="-0.57151">
        <ele>41.2</ele>
        <time>2021-07-04T10:24:35Z</time>
      </trkpt>
      <trkpt lat="47.43556" lon="-0.57159">
        <ele>41.4</ele>
        <time>2021-07-04T10:24:37Z</time>
      </trkpt>
      <trkpt lat="47.43569" lon="-0.57166">
        <ele>42.4</ele>
        <time>2021-07-04T10:24:39Z</time>
      </trkpt>
      <trkpt lat="47.43575" lon="-0.57169">
        <ele>42.8</ele>
        <time>2021-07-04T10:24:40Z</time>
      </trkpt>
      <trkpt lat="47.43582" lon="-0.57171">
        <ele>42.8</ele>
        <time>2021-07-04T10:24:41Z</time>
      </trkpt>
      <trkpt lat="47.43595" lon="-0.57175">
        <ele>42.4</ele>
        <time>2021-07-04T10:24:43Z</time>
      </trkpt>
      <trkpt lat="47.43608" lon="-0.57179">
        <ele>42.6</ele>
        <time>2021-07-04T10:24:45Z</time>
      </trkpt>
      <trkpt lat="47.43622" lon="-0.57182">
        <ele>43.2</ele>
        <time>2021-07-04T10:24:47Z</time>
      </trkpt>
      <trkpt lat="47.43635" lon="-0.57186">
        <ele>43.6</ele>
        <time>2021-07-04T10:24:49Z</time>
      </trkpt>
      <trkpt lat="47.43642" lon="-0.57187">
        <ele>44.2</ele>
        <time>2021-07-04T10:24:50Z</time>
      </trkpt>
      <trkpt lat="47.43648" lon="-0.57189">
        <ele>44.8</ele>
        <time>2021-07-04T10:24:51Z</time>
      </trkpt>
      <trkpt lat="47.43662" lon="-0.57193">
        <ele>45</ele>
        <time>2021-07-04T10:24:53Z</time>
      </trkpt>
      <trkpt lat="47.43676" lon="-0.57195">
        <ele>45</ele>
        <time>2021-07-04T10:24:55Z</time>
      </trkpt>
      <trkpt lat="47.43683" lon="-0.57197">
        <ele>45.2</ele>
        <time>2021-07-04T10:24:56Z</time>
      </trkpt>
      <trkpt lat="47.43689" lon="-0.57199">
        <ele>45.2</ele>
        <time>2021-07-04T10:24:57Z</time>
      </trkpt>
      <trkpt lat="47.43696" lon="-0.57201">
        <ele>44.6</ele>
        <time>2021-07-04T10:24:58Z</time>
      </trkpt>
      <trkpt lat="47.43703" lon="-0.57203">
        <ele>44.2</ele>
        <time>2021-07-04T10:24:59Z</time>
      </trkpt>
      <trkpt lat="47.43717" lon="-0.57206">
        <ele>43.8</ele>
        <time>2021-07-04T10:25:01Z</time>
      </trkpt>
      <trkpt lat="47.43731" lon="-0.57209">
        <ele>43.2</ele>
        <time>2021-07-04T10:25:03Z</time>
      </trkpt>
      <trkpt lat="47.43745" lon="-0.57212">
        <ele>43.4</ele>
        <time>2021-07-04T10:25:05Z</time>
      </trkpt>
      <trkpt lat="47.43759" lon="-0.57215">
        <ele>43</ele>
        <time>2021-07-04T10:25:07Z</time>
      </trkpt>
      <trkpt lat="47.43773" lon="-0.57217">
        <ele>44</ele>
        <time>2021-07-04T10:25:09Z</time>
      </trkpt>
      <trkpt lat="47.43781" lon="-0.57217">
        <ele>44.2</ele>
        <time>2021-07-04T10:25:10Z</time>
      </trkpt>
      <trkpt lat="47.43788" lon="-0.57217">
        <ele>44.6</ele>
        <time>2021-07-04T10:25:11Z</time>
      </trkpt>
      <trkpt lat="47.43795" lon="-0.57216">
        <ele>44.8</ele>
        <time>2021-07-04T10:25:12Z</time>
      </trkpt>
      <trkpt lat="47.43802" lon="-0.57215">
        <ele>45</ele>
        <time>2021-07-04T10:25:13Z</time>
      </trkpt>
      <trkpt lat="47.43817" lon="-0.57213">
        <ele>45.4</ele>
        <time>2021-07-04T10:25:15Z</time>
      </trkpt>
      <trkpt lat="47.43832" lon="-0.5721">
        <ele>45.4</ele>
        <time>2021-07-04T10:25:17Z</time>
      </trkpt>
      <trkpt lat="47.43846" lon="-0.57207">
        <ele>45.4</ele>
        <time>2021-07-04T10:25:19Z</time>
      </trkpt>
      <trkpt lat="47.43861" lon="-0.57204">
        <ele>45.2</ele>
        <time>2021-07-04T10:25:21Z</time>
      </trkpt>
      <trkpt lat="47.43876" lon="-0.57202">
        <ele>45.2</ele>
        <time>2021-07-04T10:25:23Z</time>
      </trkpt>
      <trkpt lat="47.43891" lon="-0.57199">
        <ele>45</ele>
        <time>2021-07-04T10:25:25Z</time>
      </trkpt>
      <trkpt lat="47.43898" lon="-0.57198">
        <ele>45</ele>
        <time>2021-07-04T10:25:26Z</time>
      </trkpt>
      <trkpt lat="47.43906" lon="-0.57197">
        <ele>45.2</ele>
        <time>2021-07-04T10:25:27Z</time>
      </trkpt>
      <trkpt lat="47.43921" lon="-0.57195">
        <ele>45.6</ele>
        <time>2021-07-04T10:25:29Z</time>
      </trkpt>
      <trkpt lat="47.43937" lon="-0.57194">
        <ele>45.6</ele>
        <time>2021-07-04T10:25:31Z</time>
      </trkpt>
      <trkpt lat="47.43945" lon="-0.57193">
        <ele>45.4</ele>
        <time>2021-07-04T10:25:32Z</time>
      </trkpt>
      <trkpt lat="47.43952" lon="-0.57193">
        <ele>45</ele>
        <time>2021-07-04T10:25:33Z</time>
      </trkpt>
      <trkpt lat="47.43967" lon="-0.57191">
        <ele>44.6</ele>
        <time>2021-07-04T10:25:35Z</time>
      </trkpt>
      <trkpt lat="47.43982" lon="-0.57187">
        <ele>45.4</ele>
        <time>2021-07-04T10:25:37Z</time>
      </trkpt>
      <trkpt lat="47.43996" lon="-0.57182">
        <ele>46.2</ele>
        <time>2021-07-04T10:25:39Z</time>
      </trkpt>
      <trkpt lat="47.4401" lon="-0.57176">
        <ele>46.4</ele>
        <time>2021-07-04T10:25:41Z</time>
      </trkpt>
      <trkpt lat="47.44017" lon="-0.57173">
        <ele>46.8</ele>
        <time>2021-07-04T10:25:42Z</time>
      </trkpt>
      <trkpt lat="47.44024" lon="-0.5717">
        <ele>47</ele>
        <time>2021-07-04T10:25:43Z</time>
      </trkpt>
      <trkpt lat="47.44037" lon="-0.57163">
        <ele>47.2</ele>
        <time>2021-07-04T10:25:45Z</time>
      </trkpt>
      <trkpt lat="47.44051" lon="-0.57157">
        <ele>47.6</ele>
        <time>2021-07-04T10:25:47Z</time>
      </trkpt>
      <trkpt lat="47.44057" lon="-0.57153">
        <ele>47.8</ele>
        <time>2021-07-04T10:25:48Z</time>
      </trkpt>
      <trkpt lat="47.44064" lon="-0.5715">
        <ele>47.6</ele>
        <time>2021-07-04T10:25:49Z</time>
      </trkpt>
      <trkpt lat="47.44076" lon="-0.57143">
        <ele>48.2</ele>
        <time>2021-07-04T10:25:51Z</time>
      </trkpt>
      <trkpt lat="47.44087" lon="-0.57136">
        <ele>49.2</ele>
        <time>2021-07-04T10:25:53Z</time>
      </trkpt>
      <trkpt lat="47.44093" lon="-0.57132">
        <ele>49.6</ele>
        <time>2021-07-04T10:25:54Z</time>
      </trkpt>
      <trkpt lat="47.44098" lon="-0.5713">
        <ele>50</ele>
        <time>2021-07-04T10:25:55Z</time>
      </trkpt>
      <trkpt lat="47.44103" lon="-0.57129">
        <ele>50.4</ele>
        <time>2021-07-04T10:25:56Z</time>
      </trkpt>
      <trkpt lat="47.44108" lon="-0.5713">
        <ele>50.8</ele>
        <time>2021-07-04T10:25:57Z</time>
      </trkpt>
      <trkpt lat="47.44118" lon="-0.57136">
        <ele>51</ele>
        <time>2021-07-04T10:25:59Z</time>
      </trkpt>
      <trkpt lat="47.44127" lon="-0.57148">
        <ele>51</ele>
        <time>2021-07-04T10:26:01Z</time>
      </trkpt>
      <trkpt lat="47.44131" lon="-0.57154">
        <ele>51</ele>
        <time>2021-07-04T10:26:02Z</time>
      </trkpt>
      <trkpt lat="47.44136" lon="-0.5716">
        <ele>50.6</ele>
        <time>2021-07-04T10:26:03Z</time>
      </trkpt>
      <trkpt lat="47.44145" lon="-0.57169">
        <ele>50.2</ele>
        <time>2021-07-04T10:26:05Z</time>
      </trkpt>
      <trkpt lat="47.44151" lon="-0.57171">
        <ele>50.4</ele>
        <time>2021-07-04T10:26:06Z</time>
      </trkpt>
      <trkpt lat="47.44158" lon="-0.57171">
        <ele>50.2</ele>
        <time>2021-07-04T10:26:07Z</time>
      </trkpt>
      <trkpt lat="47.4417" lon="-0.57173">
        <ele>50</ele>
        <time>2021-07-04T10:26:09Z</time>
      </trkpt>
      <trkpt lat="47.44183" lon="-0.57174">
        <ele>50.2</ele>
        <time>2021-07-04T10:26:11Z</time>
      </trkpt>
      <trkpt lat="47.44189" lon="-0.57174">
        <ele>50.6</ele>
        <time>2021-07-04T10:26:12Z</time>
      </trkpt>
      <trkpt lat="47.44196" lon="-0.57175">
        <ele>50.6</ele>
        <time>2021-07-04T10:26:13Z</time>
      </trkpt>
      <trkpt lat="47.44209" lon="-0.57176">
        <ele>50.6</ele>
        <time>2021-07-04T10:26:15Z</time>
      </trkpt>
      <trkpt lat="47.44221" lon="-0.57173">
        <ele>50.8</ele>
        <time>2021-07-04T10:26:17Z</time>
      </trkpt>
      <trkpt lat="47.44233" lon="-0.57163">
        <ele>51.4</ele>
        <time>2021-07-04T10:26:19Z</time>
      </trkpt>
      <trkpt lat="47.44243" lon="-0.57151">
        <ele>51.4</ele>
        <time>2021-07-04T10:26:21Z</time>
      </trkpt>
      <trkpt lat="47.44255" lon="-0.57139">
        <ele>50.6</ele>
        <time>2021-07-04T10:26:23Z</time>
      </trkpt>
      <trkpt lat="47.44261" lon="-0.57134">
        <ele>50</ele>
        <time>2021-07-04T10:26:24Z</time>
      </trkpt>
      <trkpt lat="47.44268" lon="-0.57129">
        <ele>49.6</ele>
        <time>2021-07-04T10:26:25Z</time>
      </trkpt>
      <trkpt lat="47.44276" lon="-0.57125">
        <ele>49.2</ele>
        <time>2021-07-04T10:26:26Z</time>
      </trkpt>
      <trkpt lat="47.44283" lon="-0.5712">
        <ele>48.8</ele>
        <time>2021-07-04T10:26:27Z</time>
      </trkpt>
      <trkpt lat="47.443" lon="-0.57112">
        <ele>47</ele>
        <time>2021-07-04T10:26:29Z</time>
      </trkpt>
      <trkpt lat="47.44308" lon="-0.57108">
        <ele>45.4</ele>
        <time>2021-07-04T10:26:30Z</time>
      </trkpt>
      <trkpt lat="47.44317" lon="-0.57104">
        <ele>44.6</ele>
        <time>2021-07-04T10:26:31Z</time>
      </trkpt>
      <trkpt lat="47.44326" lon="-0.571">
        <ele>43.8</ele>
        <time>2021-07-04T10:26:32Z</time>
      </trkpt>
      <trkpt lat="47.44335" lon="-0.57096">
        <ele>43</ele>
        <time>2021-07-04T10:26:33Z</time>
      </trkpt>
      <trkpt lat="47.44345" lon="-0.57093">
        <ele>42.6</ele>
        <time>2021-07-04T10:26:34Z</time>
      </trkpt>
      <trkpt lat="47.44354" lon="-0.57089">
        <ele>42.4</ele>
        <time>2021-07-04T10:26:35Z</time>
      </trkpt>
      <trkpt lat="47.44373" lon="-0.57082">
        <ele>41.6</ele>
        <time>2021-07-04T10:26:37Z</time>
      </trkpt>
      <trkpt lat="47.44391" lon="-0.57075">
        <ele>41.2</ele>
        <time>2021-07-04T10:26:39Z</time>
      </trkpt>
      <trkpt lat="47.444" lon="-0.57071">
        <ele>41</ele>
        <time>2021-07-04T10:26:40Z</time>
      </trkpt>
      <trkpt lat="47.44409" lon="-0.57067">
        <ele>40.8</ele>
        <time>2021-07-04T10:26:41Z</time>
      </trkpt>
      <trkpt lat="47.44427" lon="-0.57059">
        <ele>40.2</ele>
        <time>2021-07-04T10:26:43Z</time>
      </trkpt>
      <trkpt lat="47.44445" lon="-0.57052">
        <ele>39.6</ele>
        <time>2021-07-04T10:26:45Z</time>
      </trkpt>
      <trkpt lat="47.44453" lon="-0.57048">
        <ele>39.6</ele>
        <time>2021-07-04T10:26:46Z</time>
      </trkpt>
      <trkpt lat="47.44462" lon="-0.57044">
        <ele>39.4</ele>
        <time>2021-07-04T10:26:47Z</time>
      </trkpt>
      <trkpt lat="47.4448" lon="-0.57037">
        <ele>39.6</ele>
        <time>2021-07-04T10:26:49Z</time>
      </trkpt>
      <trkpt lat="47.44498" lon="-0.57031">
        <ele>39.6</ele>
        <time>2021-07-04T10:26:51Z</time>
      </trkpt>
      <trkpt lat="47.44514" lon="-0.57023">
        <ele>39.4</ele>
        <time>2021-07-04T10:26:53Z</time>
      </trkpt>
      <trkpt lat="47.4453" lon="-0.57017">
        <ele>39.2</ele>
        <time>2021-07-04T10:26:55Z</time>
      </trkpt>
      <trkpt lat="47.44546" lon="-0.57012">
        <ele>39.6</ele>
        <time>2021-07-04T10:26:57Z</time>
      </trkpt>
      <trkpt lat="47.4456" lon="-0.57007">
        <ele>40.4</ele>
        <time>2021-07-04T10:26:59Z</time>
      </trkpt>
      <trkpt lat="47.44565" lon="-0.57002">
        <ele>41</ele>
        <time>2021-07-04T10:27:00Z</time>
      </trkpt>
      <trkpt lat="47.44568" lon="-0.56995">
        <ele>41.4</ele>
        <time>2021-07-04T10:27:01Z</time>
      </trkpt>
      <trkpt lat="47.44566" lon="-0.5698">
        <ele>41.2</ele>
        <time>2021-07-04T10:27:03Z</time>
      </trkpt>
      <trkpt lat="47.44564" lon="-0.56972">
        <ele>40.8</ele>
        <time>2021-07-04T10:27:04Z</time>
      </trkpt>
      <trkpt lat="47.44562" lon="-0.56964">
        <ele>40.6</ele>
        <time>2021-07-04T10:27:05Z</time>
      </trkpt>
      <trkpt lat="47.44559" lon="-0.56946">
        <ele>40.4</ele>
        <time>2021-07-04T10:27:07Z</time>
      </trkpt>
      <trkpt lat="47.44555" lon="-0.56929">
        <ele>40.8</ele>
        <time>2021-07-04T10:27:09Z</time>
      </trkpt>
      <trkpt lat="47.44553" lon="-0.5692">
        <ele>41.2</ele>
        <time>2021-07-04T10:27:10Z</time>
      </trkpt>
      <trkpt lat="47.44551" lon="-0.56911">
        <ele>40.8</ele>
        <time>2021-07-04T10:27:11Z</time>
      </trkpt>
      <trkpt lat="47.44546" lon="-0.56894">
        <ele>40.4</ele>
        <time>2021-07-04T10:27:13Z</time>
      </trkpt>
      <trkpt lat="47.44542" lon="-0.56878">
        <ele>40.6</ele>
        <time>2021-07-04T10:27:15Z</time>
      </trkpt>
      <trkpt lat="47.4454" lon="-0.56871">
        <ele>40.8</ele>
        <time>2021-07-04T10:27:16Z</time>
      </trkpt>
      <trkpt lat="47.44536" lon="-0.56865">
        <ele>40.8</ele>
        <time>2021-07-04T10:27:17Z</time>
      </trkpt>
      <trkpt lat="47.44527" lon="-0.56858">
        <ele>40.2</ele>
        <time>2021-07-04T10:27:19Z</time>
      </trkpt>
      <trkpt lat="47.44524" lon="-0.56857">
        <ele>39.6</ele>
        <time>2021-07-04T10:27:20Z</time>
      </trkpt>
      <trkpt lat="47.4452" lon="-0.56858">
        <ele>39.2</ele>
        <time>2021-07-04T10:27:21Z</time>
      </trkpt>
      <trkpt lat="47.44513" lon="-0.56865">
        <ele>39.2</ele>
        <time>2021-07-04T10:27:23Z</time>
      </trkpt>
      <trkpt lat="47.44506" lon="-0.56874">
        <ele>39.6</ele>
        <time>2021-07-04T10:27:25Z</time>
      </trkpt>
      <trkpt lat="47.44502" lon="-0.56878">
        <ele>40.2</ele>
        <time>2021-07-04T10:27:26Z</time>
      </trkpt>
    </trkseg>
  </trk>
</gpx>